<?xml version="1.0" encoding="UTF-8" standalone="no" ?>
<gpx xmlns="http://www.topografix.com/GPX/1/1" xmlns:xsi="http://www.w3.org/2001/XMLSchema-instance" xsi:schemaLocation="http://www.topografix.com/GPX/1/1 http://www.topografix.com/GPX/1/1/gpx.xsd" version="1.1" creator="VisuGPX - https://www.visugpx.com">
  <metadata>
    <name>Gascougnolles fressines vaumoreau</name>
    <desc><![CDATA[Gascougnolles fressines vaumoreau]]></desc>
  </metadata>
  <trk>
    <name><![CDATA[Gascougnolles fressines vaumoreau]]></name>
    <trkseg>
      <trkpt lat="46.30726" lon="-0.34255">
        <ele>49.6126</ele>
        <time>2011-06-25T15:52:48Z</time>
      </trkpt>
      <trkpt lat="46.30727" lon="-0.34253">
        <ele>49.7907</ele>
        <time>2011-06-25T15:52:49Z</time>
      </trkpt>
      <trkpt lat="46.30726" lon="-0.34251">
        <ele>49.9683</ele>
        <time>2011-06-25T15:52:50Z</time>
      </trkpt>
      <trkpt lat="46.30727" lon="-0.34248">
        <ele>50.1452</ele>
        <time>2011-06-25T15:52:51Z</time>
      </trkpt>
      <trkpt lat="46.30726" lon="-0.34246">
        <ele>50.3193</ele>
        <time>2011-06-25T15:52:52Z</time>
      </trkpt>
      <trkpt lat="46.30726" lon="-0.34244">
        <ele>50.4897</ele>
        <time>2011-06-25T15:52:53Z</time>
      </trkpt>
      <trkpt lat="46.30727" lon="-0.34241">
        <ele>50.6491</ele>
        <time>2011-06-25T15:52:54Z</time>
      </trkpt>
      <trkpt lat="46.30727" lon="-0.34239">
        <ele>50.8064</ele>
        <time>2011-06-25T15:52:55Z</time>
      </trkpt>
      <trkpt lat="46.30728" lon="-0.34237">
        <ele>50.962</ele>
        <time>2011-06-25T15:52:56Z</time>
      </trkpt>
      <trkpt lat="46.30729" lon="-0.34235">
        <ele>51.1182</ele>
        <time>2011-06-25T15:52:57Z</time>
      </trkpt>
      <trkpt lat="46.3073" lon="-0.34233">
        <ele>51.2739</ele>
        <time>2011-06-25T15:52:58Z</time>
      </trkpt>
      <trkpt lat="46.3073" lon="-0.34232">
        <ele>51.4288</ele>
        <time>2011-06-25T15:52:59Z</time>
      </trkpt>
      <trkpt lat="46.3073" lon="-0.3423">
        <ele>51.5833</ele>
        <time>2011-06-25T15:53:00Z</time>
      </trkpt>
      <trkpt lat="46.3073" lon="-0.34228">
        <ele>51.7381</ele>
        <time>2011-06-25T15:53:01Z</time>
      </trkpt>
      <trkpt lat="46.30731" lon="-0.34226">
        <ele>51.8908</ele>
        <time>2011-06-25T15:53:02Z</time>
      </trkpt>
      <trkpt lat="46.30731" lon="-0.34224">
        <ele>52.0408</ele>
        <time>2011-06-25T15:53:03Z</time>
      </trkpt>
      <trkpt lat="46.30732" lon="-0.34223">
        <ele>52.1884</ele>
        <time>2011-06-25T15:53:04Z</time>
      </trkpt>
      <trkpt lat="46.30732" lon="-0.34221">
        <ele>52.3341</ele>
        <time>2011-06-25T15:53:05Z</time>
      </trkpt>
      <trkpt lat="46.30731" lon="-0.34219">
        <ele>52.4781</ele>
        <time>2011-06-25T15:53:06Z</time>
      </trkpt>
      <trkpt lat="46.30731" lon="-0.34217">
        <ele>52.6193</ele>
        <time>2011-06-25T15:53:07Z</time>
      </trkpt>
      <trkpt lat="46.30731" lon="-0.34217">
        <ele>52.9482</ele>
        <time>2011-06-25T15:53:12Z</time>
      </trkpt>
      <trkpt lat="46.30731" lon="-0.34215">
        <ele>53.093</ele>
        <time>2011-06-25T15:53:13Z</time>
      </trkpt>
      <trkpt lat="46.30731" lon="-0.34213">
        <ele>53.2349</ele>
        <time>2011-06-25T15:53:14Z</time>
      </trkpt>
      <trkpt lat="46.30731" lon="-0.34211">
        <ele>53.3745</ele>
        <time>2011-06-25T15:53:15Z</time>
      </trkpt>
      <trkpt lat="46.3073" lon="-0.34208">
        <ele>53.5576</ele>
        <time>2011-06-25T15:53:16Z</time>
      </trkpt>
      <trkpt lat="46.3073" lon="-0.34205">
        <ele>53.7381</ele>
        <time>2011-06-25T15:53:17Z</time>
      </trkpt>
      <trkpt lat="46.3073" lon="-0.34202">
        <ele>53.9156</ele>
        <time>2011-06-25T15:53:18Z</time>
      </trkpt>
      <trkpt lat="46.3073" lon="-0.342">
        <ele>54.0994</ele>
        <time>2011-06-25T15:53:19Z</time>
      </trkpt>
      <trkpt lat="46.3073" lon="-0.34198">
        <ele>54.2915</ele>
        <time>2011-06-25T15:53:20Z</time>
      </trkpt>
      <trkpt lat="46.30731" lon="-0.34196">
        <ele>54.486</ele>
        <time>2011-06-25T15:53:20Z</time>
      </trkpt>
      <trkpt lat="46.30731" lon="-0.34194">
        <ele>54.6818</ele>
        <time>2011-06-25T15:53:22Z</time>
      </trkpt>
      <trkpt lat="46.30731" lon="-0.34192">
        <ele>54.9165</ele>
        <time>2011-06-25T15:53:22Z</time>
      </trkpt>
      <trkpt lat="46.30731" lon="-0.34189">
        <ele>55.1471</ele>
        <time>2011-06-25T15:53:24Z</time>
      </trkpt>
      <trkpt lat="46.30731" lon="-0.34187">
        <ele>55.3718</ele>
        <time>2011-06-25T15:53:25Z</time>
      </trkpt>
      <trkpt lat="46.30731" lon="-0.34185">
        <ele>55.61</ele>
        <time>2011-06-25T15:53:26Z</time>
      </trkpt>
      <trkpt lat="46.30731" lon="-0.34183">
        <ele>55.8477</ele>
        <time>2011-06-25T15:53:27Z</time>
      </trkpt>
      <trkpt lat="46.30731" lon="-0.34182">
        <ele>56.0911</ele>
        <time>2011-06-25T15:53:28Z</time>
      </trkpt>
      <trkpt lat="46.3073" lon="-0.3418">
        <ele>56.3382</ele>
        <time>2011-06-25T15:53:29Z</time>
      </trkpt>
      <trkpt lat="46.3073" lon="-0.34179">
        <ele>56.5877</ele>
        <time>2011-06-25T15:53:30Z</time>
      </trkpt>
      <trkpt lat="46.30731" lon="-0.34177">
        <ele>56.843</ele>
        <time>2011-06-25T15:53:31Z</time>
      </trkpt>
      <trkpt lat="46.30731" lon="-0.34175">
        <ele>57.1064</ele>
        <time>2011-06-25T15:53:32Z</time>
      </trkpt>
      <trkpt lat="46.30731" lon="-0.34173">
        <ele>57.3651</ele>
        <time>2011-06-25T15:53:33Z</time>
      </trkpt>
      <trkpt lat="46.30731" lon="-0.34171">
        <ele>57.6305</ele>
        <time>2011-06-25T15:53:34Z</time>
      </trkpt>
      <trkpt lat="46.30731" lon="-0.34169">
        <ele>57.8938</ele>
        <time>2011-06-25T15:53:35Z</time>
      </trkpt>
      <trkpt lat="46.3073" lon="-0.34166">
        <ele>58.16</ele>
        <time>2011-06-25T15:53:36Z</time>
      </trkpt>
      <trkpt lat="46.3073" lon="-0.34164">
        <ele>58.4328</ele>
        <time>2011-06-25T15:53:37Z</time>
      </trkpt>
      <trkpt lat="46.3073" lon="-0.34162">
        <ele>58.7018</ele>
        <time>2011-06-25T15:53:38Z</time>
      </trkpt>
      <trkpt lat="46.3073" lon="-0.34159">
        <ele>58.9696</ele>
        <time>2011-06-25T15:53:39Z</time>
      </trkpt>
      <trkpt lat="46.30729" lon="-0.34157">
        <ele>59.2367</ele>
        <time>2011-06-25T15:53:40Z</time>
      </trkpt>
      <trkpt lat="46.30729" lon="-0.34155">
        <ele>59.5014</ele>
        <time>2011-06-25T15:53:41Z</time>
      </trkpt>
      <trkpt lat="46.30729" lon="-0.34152">
        <ele>59.7674</ele>
        <time>2011-06-25T15:53:42Z</time>
      </trkpt>
      <trkpt lat="46.30729" lon="-0.3415">
        <ele>60.0287</ele>
        <time>2011-06-25T15:53:43Z</time>
      </trkpt>
      <trkpt lat="46.3073" lon="-0.34147">
        <ele>60.2942</ele>
        <time>2011-06-25T15:53:44Z</time>
      </trkpt>
      <trkpt lat="46.30731" lon="-0.34145">
        <ele>60.5587</ele>
        <time>2011-06-25T15:53:45Z</time>
      </trkpt>
      <trkpt lat="46.30732" lon="-0.34143">
        <ele>60.8239</ele>
        <time>2011-06-25T15:53:46Z</time>
      </trkpt>
      <trkpt lat="46.30733" lon="-0.34142">
        <ele>61.0845</ele>
        <time>2011-06-25T15:53:47Z</time>
      </trkpt>
      <trkpt lat="46.30734" lon="-0.34141">
        <ele>61.3398</ele>
        <time>2011-06-25T15:53:48Z</time>
      </trkpt>
      <trkpt lat="46.30735" lon="-0.34139">
        <ele>61.6029</ele>
        <time>2011-06-25T15:53:49Z</time>
      </trkpt>
      <trkpt lat="46.30736" lon="-0.34137">
        <ele>61.8837</ele>
        <time>2011-06-25T15:53:50Z</time>
      </trkpt>
      <trkpt lat="46.30737" lon="-0.34135">
        <ele>62.1727</ele>
        <time>2011-06-25T15:53:51Z</time>
      </trkpt>
      <trkpt lat="46.30737" lon="-0.34133">
        <ele>62.4616</ele>
        <time>2011-06-25T15:53:52Z</time>
      </trkpt>
      <trkpt lat="46.30738" lon="-0.34131">
        <ele>62.7436</ele>
        <time>2011-06-25T15:53:53Z</time>
      </trkpt>
      <trkpt lat="46.30739" lon="-0.34129">
        <ele>63.0197</ele>
        <time>2011-06-25T15:53:54Z</time>
      </trkpt>
      <trkpt lat="46.3074" lon="-0.34128">
        <ele>63.2918</ele>
        <time>2011-06-25T15:53:55Z</time>
      </trkpt>
      <trkpt lat="46.30741" lon="-0.34127">
        <ele>63.5606</ele>
        <time>2011-06-25T15:53:56Z</time>
      </trkpt>
      <trkpt lat="46.30742" lon="-0.34127">
        <ele>63.8257</ele>
        <time>2011-06-25T15:53:57Z</time>
      </trkpt>
      <trkpt lat="46.30743" lon="-0.34126">
        <ele>64.086</ele>
        <time>2011-06-25T15:53:58Z</time>
      </trkpt>
      <trkpt lat="46.30745" lon="-0.34125">
        <ele>64.3408</ele>
        <time>2011-06-25T15:53:59Z</time>
      </trkpt>
      <trkpt lat="46.30746" lon="-0.34124">
        <ele>64.5887</ele>
        <time>2011-06-25T15:54:00Z</time>
      </trkpt>
      <trkpt lat="46.30747" lon="-0.34123">
        <ele>64.8306</ele>
        <time>2011-06-25T15:54:01Z</time>
      </trkpt>
      <trkpt lat="46.30748" lon="-0.34122">
        <ele>65.0697</ele>
        <time>2011-06-25T15:54:02Z</time>
      </trkpt>
      <trkpt lat="46.30749" lon="-0.34121">
        <ele>65.3096</ele>
        <time>2011-06-25T15:54:03Z</time>
      </trkpt>
      <trkpt lat="46.3075" lon="-0.3412">
        <ele>65.5515</ele>
        <time>2011-06-25T15:54:04Z</time>
      </trkpt>
      <trkpt lat="46.30751" lon="-0.34119">
        <ele>65.7927</ele>
        <time>2011-06-25T15:54:05Z</time>
      </trkpt>
      <trkpt lat="46.30753" lon="-0.34118">
        <ele>66.0306</ele>
        <time>2011-06-25T15:54:06Z</time>
      </trkpt>
      <trkpt lat="46.30754" lon="-0.34117">
        <ele>66.2655</ele>
        <time>2011-06-25T15:54:07Z</time>
      </trkpt>
      <trkpt lat="46.30755" lon="-0.34115">
        <ele>66.4951</ele>
        <time>2011-06-25T15:54:08Z</time>
      </trkpt>
      <trkpt lat="46.30756" lon="-0.34115">
        <ele>66.7171</ele>
        <time>2011-06-25T15:54:09Z</time>
      </trkpt>
      <trkpt lat="46.30758" lon="-0.34114">
        <ele>66.935</ele>
        <time>2011-06-25T15:54:10Z</time>
      </trkpt>
      <trkpt lat="46.30759" lon="-0.34113">
        <ele>67.1481</ele>
        <time>2011-06-25T15:54:11Z</time>
      </trkpt>
      <trkpt lat="46.3076" lon="-0.34112">
        <ele>67.3557</ele>
        <time>2011-06-25T15:54:12Z</time>
      </trkpt>
      <trkpt lat="46.30761" lon="-0.34111">
        <ele>67.5598</ele>
        <time>2011-06-25T15:54:13Z</time>
      </trkpt>
      <trkpt lat="46.30763" lon="-0.34111">
        <ele>67.7584</ele>
        <time>2011-06-25T15:54:14Z</time>
      </trkpt>
      <trkpt lat="46.30764" lon="-0.3411">
        <ele>67.9535</ele>
        <time>2011-06-25T15:54:15Z</time>
      </trkpt>
      <trkpt lat="46.30765" lon="-0.34109">
        <ele>68.1449</ele>
        <time>2011-06-25T15:54:16Z</time>
      </trkpt>
      <trkpt lat="46.30766" lon="-0.34108">
        <ele>68.3323</ele>
        <time>2011-06-25T15:54:17Z</time>
      </trkpt>
      <trkpt lat="46.30767" lon="-0.34108">
        <ele>68.5152</ele>
        <time>2011-06-25T15:54:18Z</time>
      </trkpt>
      <trkpt lat="46.30769" lon="-0.34107">
        <ele>68.6977</ele>
        <time>2011-06-25T15:54:19Z</time>
      </trkpt>
      <trkpt lat="46.3077" lon="-0.34107">
        <ele>68.8778</ele>
        <time>2011-06-25T15:54:20Z</time>
      </trkpt>
      <trkpt lat="46.30771" lon="-0.34106">
        <ele>69.0586</ele>
        <time>2011-06-25T15:54:21Z</time>
      </trkpt>
      <trkpt lat="46.30773" lon="-0.34106">
        <ele>69.2365</ele>
        <time>2011-06-25T15:54:22Z</time>
      </trkpt>
      <trkpt lat="46.30774" lon="-0.34106">
        <ele>69.4045</ele>
        <time>2011-06-25T15:54:23Z</time>
      </trkpt>
      <trkpt lat="46.30776" lon="-0.34105">
        <ele>69.5685</ele>
        <time>2011-06-25T15:54:24Z</time>
      </trkpt>
      <trkpt lat="46.30778" lon="-0.34104">
        <ele>69.7359</ele>
        <time>2011-06-25T15:54:25Z</time>
      </trkpt>
      <trkpt lat="46.3078" lon="-0.34104">
        <ele>69.9051</ele>
        <time>2011-06-25T15:54:26Z</time>
      </trkpt>
      <trkpt lat="46.30782" lon="-0.34103">
        <ele>70.0727</ele>
        <time>2011-06-25T15:54:27Z</time>
      </trkpt>
      <trkpt lat="46.30784" lon="-0.34102">
        <ele>70.2342</ele>
        <time>2011-06-25T15:54:28Z</time>
      </trkpt>
      <trkpt lat="46.30785" lon="-0.34101">
        <ele>70.3966</ele>
        <time>2011-06-25T15:54:29Z</time>
      </trkpt>
      <trkpt lat="46.30787" lon="-0.341">
        <ele>70.5567</ele>
        <time>2011-06-25T15:54:30Z</time>
      </trkpt>
      <trkpt lat="46.30788" lon="-0.34098">
        <ele>70.7099</ele>
        <time>2011-06-25T15:54:31Z</time>
      </trkpt>
      <trkpt lat="46.3079" lon="-0.34097">
        <ele>70.8603</ele>
        <time>2011-06-25T15:54:32Z</time>
      </trkpt>
      <trkpt lat="46.30791" lon="-0.34096">
        <ele>71.0137</ele>
        <time>2011-06-25T15:54:33Z</time>
      </trkpt>
      <trkpt lat="46.30793" lon="-0.34095">
        <ele>71.1657</ele>
        <time>2011-06-25T15:54:34Z</time>
      </trkpt>
      <trkpt lat="46.30794" lon="-0.34094">
        <ele>71.3176</ele>
        <time>2011-06-25T15:54:35Z</time>
      </trkpt>
      <trkpt lat="46.30795" lon="-0.34093">
        <ele>71.4697</ele>
        <time>2011-06-25T15:54:36Z</time>
      </trkpt>
      <trkpt lat="46.30797" lon="-0.34092">
        <ele>71.6179</ele>
        <time>2011-06-25T15:54:37Z</time>
      </trkpt>
      <trkpt lat="46.30798" lon="-0.34091">
        <ele>71.7659</ele>
        <time>2011-06-25T15:54:38Z</time>
      </trkpt>
      <trkpt lat="46.30799" lon="-0.3409">
        <ele>71.9049</ele>
        <time>2011-06-25T15:54:39Z</time>
      </trkpt>
      <trkpt lat="46.308" lon="-0.34089">
        <ele>72.0413</ele>
        <time>2011-06-25T15:54:40Z</time>
      </trkpt>
      <trkpt lat="46.30802" lon="-0.34089">
        <ele>72.1772</ele>
        <time>2011-06-25T15:54:41Z</time>
      </trkpt>
      <trkpt lat="46.30803" lon="-0.34088">
        <ele>72.3092</ele>
        <time>2011-06-25T15:54:42Z</time>
      </trkpt>
      <trkpt lat="46.30804" lon="-0.34088">
        <ele>72.4394</ele>
        <time>2011-06-25T15:54:43Z</time>
      </trkpt>
      <trkpt lat="46.30806" lon="-0.34087">
        <ele>72.5678</ele>
        <time>2011-06-25T15:54:44Z</time>
      </trkpt>
      <trkpt lat="46.30808" lon="-0.34087">
        <ele>72.6979</ele>
        <time>2011-06-25T15:54:45Z</time>
      </trkpt>
      <trkpt lat="46.30809" lon="-0.34087">
        <ele>72.8218</ele>
        <time>2011-06-25T15:54:46Z</time>
      </trkpt>
      <trkpt lat="46.30811" lon="-0.34086">
        <ele>72.942</ele>
        <time>2011-06-25T15:54:47Z</time>
      </trkpt>
      <trkpt lat="46.30812" lon="-0.34085">
        <ele>73.0585</ele>
        <time>2011-06-25T15:54:48Z</time>
      </trkpt>
      <trkpt lat="46.30813" lon="-0.34084">
        <ele>73.1756</ele>
        <time>2011-06-25T15:54:49Z</time>
      </trkpt>
      <trkpt lat="46.30814" lon="-0.34084">
        <ele>73.2908</ele>
        <time>2011-06-25T15:54:50Z</time>
      </trkpt>
      <trkpt lat="46.30815" lon="-0.34083">
        <ele>73.408</ele>
        <time>2011-06-25T15:54:51Z</time>
      </trkpt>
      <trkpt lat="46.30816" lon="-0.34083">
        <ele>73.5245</ele>
        <time>2011-06-25T15:54:52Z</time>
      </trkpt>
      <trkpt lat="46.30817" lon="-0.34082">
        <ele>73.6399</ele>
        <time>2011-06-25T15:54:53Z</time>
      </trkpt>
      <trkpt lat="46.30818" lon="-0.34082">
        <ele>73.7518</ele>
        <time>2011-06-25T15:54:54Z</time>
      </trkpt>
      <trkpt lat="46.3082" lon="-0.34081">
        <ele>73.8591</ele>
        <time>2011-06-25T15:54:55Z</time>
      </trkpt>
      <trkpt lat="46.30821" lon="-0.3408">
        <ele>73.9609</ele>
        <time>2011-06-25T15:54:56Z</time>
      </trkpt>
      <trkpt lat="46.30822" lon="-0.34079">
        <ele>74.0598</ele>
        <time>2011-06-25T15:54:57Z</time>
      </trkpt>
      <trkpt lat="46.30824" lon="-0.34079">
        <ele>74.1592</ele>
        <time>2011-06-25T15:54:58Z</time>
      </trkpt>
      <trkpt lat="46.30825" lon="-0.34078">
        <ele>74.2503</ele>
        <time>2011-06-25T15:54:59Z</time>
      </trkpt>
      <trkpt lat="46.30827" lon="-0.34077">
        <ele>74.3331</ele>
        <time>2011-06-25T15:55:00Z</time>
      </trkpt>
      <trkpt lat="46.30829" lon="-0.34077">
        <ele>74.4065</ele>
        <time>2011-06-25T15:55:01Z</time>
      </trkpt>
      <trkpt lat="46.3083" lon="-0.34077">
        <ele>74.4736</ele>
        <time>2011-06-25T15:55:02Z</time>
      </trkpt>
      <trkpt lat="46.30831" lon="-0.34077">
        <ele>74.5387</ele>
        <time>2011-06-25T15:55:03Z</time>
      </trkpt>
      <trkpt lat="46.30833" lon="-0.34076">
        <ele>74.5968</ele>
        <time>2011-06-25T15:55:04Z</time>
      </trkpt>
      <trkpt lat="46.30834" lon="-0.34076">
        <ele>74.6567</ele>
        <time>2011-06-25T15:55:05Z</time>
      </trkpt>
      <trkpt lat="46.30835" lon="-0.34075">
        <ele>74.7142</ele>
        <time>2011-06-25T15:55:06Z</time>
      </trkpt>
      <trkpt lat="46.30837" lon="-0.34074">
        <ele>74.7714</ele>
        <time>2011-06-25T15:55:07Z</time>
      </trkpt>
      <trkpt lat="46.30838" lon="-0.34073">
        <ele>74.8321</ele>
        <time>2011-06-25T15:55:08Z</time>
      </trkpt>
      <trkpt lat="46.3084" lon="-0.34072">
        <ele>74.8975</ele>
        <time>2011-06-25T15:55:09Z</time>
      </trkpt>
      <trkpt lat="46.30841" lon="-0.34071">
        <ele>74.9601</ele>
        <time>2011-06-25T15:55:10Z</time>
      </trkpt>
      <trkpt lat="46.30842" lon="-0.3407">
        <ele>75.0217</ele>
        <time>2011-06-25T15:55:11Z</time>
      </trkpt>
      <trkpt lat="46.30843" lon="-0.34069">
        <ele>75.0835</ele>
        <time>2011-06-25T15:55:12Z</time>
      </trkpt>
      <trkpt lat="46.30844" lon="-0.34068">
        <ele>75.1454</ele>
        <time>2011-06-25T15:55:13Z</time>
      </trkpt>
      <trkpt lat="46.30845" lon="-0.34067">
        <ele>75.2041</ele>
        <time>2011-06-25T15:55:14Z</time>
      </trkpt>
      <trkpt lat="46.30847" lon="-0.34066">
        <ele>75.2679</ele>
        <time>2011-06-25T15:55:15Z</time>
      </trkpt>
      <trkpt lat="46.30848" lon="-0.34065">
        <ele>75.3303</ele>
        <time>2011-06-25T15:55:16Z</time>
      </trkpt>
      <trkpt lat="46.30849" lon="-0.34063">
        <ele>75.3906</ele>
        <time>2011-06-25T15:55:17Z</time>
      </trkpt>
      <trkpt lat="46.3085" lon="-0.34062">
        <ele>75.4496</ele>
        <time>2011-06-25T15:55:18Z</time>
      </trkpt>
      <trkpt lat="46.30851" lon="-0.3406">
        <ele>75.5063</ele>
        <time>2011-06-25T15:55:19Z</time>
      </trkpt>
      <trkpt lat="46.30852" lon="-0.34059">
        <ele>75.5636</ele>
        <time>2011-06-25T15:55:20Z</time>
      </trkpt>
      <trkpt lat="46.30853" lon="-0.34057">
        <ele>75.6211</ele>
        <time>2011-06-25T15:55:21Z</time>
      </trkpt>
      <trkpt lat="46.30854" lon="-0.34056">
        <ele>75.6762</ele>
        <time>2011-06-25T15:55:22Z</time>
      </trkpt>
      <trkpt lat="46.30855" lon="-0.34055">
        <ele>75.7303</ele>
        <time>2011-06-25T15:55:23Z</time>
      </trkpt>
      <trkpt lat="46.30855" lon="-0.34053">
        <ele>75.7858</ele>
        <time>2011-06-25T15:55:24Z</time>
      </trkpt>
      <trkpt lat="46.30856" lon="-0.34052">
        <ele>75.8426</ele>
        <time>2011-06-25T15:55:25Z</time>
      </trkpt>
      <trkpt lat="46.30857" lon="-0.3405">
        <ele>75.8984</ele>
        <time>2011-06-25T15:55:26Z</time>
      </trkpt>
      <trkpt lat="46.30858" lon="-0.34049">
        <ele>75.9557</ele>
        <time>2011-06-25T15:55:27Z</time>
      </trkpt>
      <trkpt lat="46.30859" lon="-0.34049">
        <ele>76.0128</ele>
        <time>2011-06-25T15:55:28Z</time>
      </trkpt>
      <trkpt lat="46.30861" lon="-0.34048">
        <ele>76.0704</ele>
        <time>2011-06-25T15:55:29Z</time>
      </trkpt>
      <trkpt lat="46.30862" lon="-0.34048">
        <ele>76.1267</ele>
        <time>2011-06-25T15:55:30Z</time>
      </trkpt>
      <trkpt lat="46.30864" lon="-0.34047">
        <ele>76.1815</ele>
        <time>2011-06-25T15:55:31Z</time>
      </trkpt>
      <trkpt lat="46.30865" lon="-0.34045">
        <ele>76.2332</ele>
        <time>2011-06-25T15:55:32Z</time>
      </trkpt>
      <trkpt lat="46.30866" lon="-0.34044">
        <ele>76.2836</ele>
        <time>2011-06-25T15:55:33Z</time>
      </trkpt>
      <trkpt lat="46.30867" lon="-0.34043">
        <ele>76.3307</ele>
        <time>2011-06-25T15:55:34Z</time>
      </trkpt>
      <trkpt lat="46.30869" lon="-0.34042">
        <ele>76.3788</ele>
        <time>2011-06-25T15:55:35Z</time>
      </trkpt>
      <trkpt lat="46.3087" lon="-0.34042">
        <ele>76.4316</ele>
        <time>2011-06-25T15:55:36Z</time>
      </trkpt>
      <trkpt lat="46.30871" lon="-0.34041">
        <ele>76.4891</ele>
        <time>2011-06-25T15:55:37Z</time>
      </trkpt>
      <trkpt lat="46.30873" lon="-0.3404">
        <ele>76.5473</ele>
        <time>2011-06-25T15:55:38Z</time>
      </trkpt>
      <trkpt lat="46.30874" lon="-0.34039">
        <ele>76.6039</ele>
        <time>2011-06-25T15:55:39Z</time>
      </trkpt>
      <trkpt lat="46.30875" lon="-0.34038">
        <ele>76.6592</ele>
        <time>2011-06-25T15:55:40Z</time>
      </trkpt>
      <trkpt lat="46.30877" lon="-0.34038">
        <ele>76.711</ele>
        <time>2011-06-25T15:55:41Z</time>
      </trkpt>
      <trkpt lat="46.30878" lon="-0.34036">
        <ele>76.7606</ele>
        <time>2011-06-25T15:55:42Z</time>
      </trkpt>
      <trkpt lat="46.3088" lon="-0.34035">
        <ele>76.8079</ele>
        <time>2011-06-25T15:55:43Z</time>
      </trkpt>
      <trkpt lat="46.30881" lon="-0.34034">
        <ele>76.8528</ele>
        <time>2011-06-25T15:55:44Z</time>
      </trkpt>
      <trkpt lat="46.30883" lon="-0.34034">
        <ele>76.8926</ele>
        <time>2011-06-25T15:55:45Z</time>
      </trkpt>
      <trkpt lat="46.30884" lon="-0.34033">
        <ele>76.9286</ele>
        <time>2011-06-25T15:55:46Z</time>
      </trkpt>
      <trkpt lat="46.30886" lon="-0.34033">
        <ele>76.963</ele>
        <time>2011-06-25T15:55:47Z</time>
      </trkpt>
      <trkpt lat="46.30887" lon="-0.34032">
        <ele>76.9961</ele>
        <time>2011-06-25T15:55:48Z</time>
      </trkpt>
      <trkpt lat="46.30889" lon="-0.34032">
        <ele>77.0274</ele>
        <time>2011-06-25T15:55:49Z</time>
      </trkpt>
      <trkpt lat="46.3089" lon="-0.34032">
        <ele>77.0569</ele>
        <time>2011-06-25T15:55:50Z</time>
      </trkpt>
      <trkpt lat="46.30891" lon="-0.34032">
        <ele>77.0848</ele>
        <time>2011-06-25T15:55:51Z</time>
      </trkpt>
      <trkpt lat="46.30893" lon="-0.34032">
        <ele>77.1114</ele>
        <time>2011-06-25T15:55:52Z</time>
      </trkpt>
      <trkpt lat="46.30894" lon="-0.34032">
        <ele>77.1375</ele>
        <time>2011-06-25T15:55:53Z</time>
      </trkpt>
      <trkpt lat="46.30895" lon="-0.34032">
        <ele>77.1634</ele>
        <time>2011-06-25T15:55:54Z</time>
      </trkpt>
      <trkpt lat="46.30896" lon="-0.34032">
        <ele>77.1893</ele>
        <time>2011-06-25T15:55:55Z</time>
      </trkpt>
      <trkpt lat="46.30897" lon="-0.34031">
        <ele>77.2198</ele>
        <time>2011-06-25T15:55:56Z</time>
      </trkpt>
      <trkpt lat="46.30898" lon="-0.3403">
        <ele>77.2535</ele>
        <time>2011-06-25T15:55:57Z</time>
      </trkpt>
      <trkpt lat="46.30899" lon="-0.34029">
        <ele>77.2863</ele>
        <time>2011-06-25T15:55:58Z</time>
      </trkpt>
      <trkpt lat="46.309" lon="-0.34029">
        <ele>77.3202</ele>
        <time>2011-06-25T15:55:59Z</time>
      </trkpt>
      <trkpt lat="46.30901" lon="-0.34029">
        <ele>77.3544</ele>
        <time>2011-06-25T15:56:00Z</time>
      </trkpt>
      <trkpt lat="46.30902" lon="-0.34028">
        <ele>77.3901</ele>
        <time>2011-06-25T15:56:01Z</time>
      </trkpt>
      <trkpt lat="46.30903" lon="-0.34028">
        <ele>77.427</ele>
        <time>2011-06-25T15:56:02Z</time>
      </trkpt>
      <trkpt lat="46.30904" lon="-0.34027">
        <ele>77.464</ele>
        <time>2011-06-25T15:56:03Z</time>
      </trkpt>
      <trkpt lat="46.30906" lon="-0.34027">
        <ele>77.5021</ele>
        <time>2011-06-25T15:56:04Z</time>
      </trkpt>
      <trkpt lat="46.30907" lon="-0.34026">
        <ele>77.5378</ele>
        <time>2011-06-25T15:56:05Z</time>
      </trkpt>
      <trkpt lat="46.30908" lon="-0.34025">
        <ele>77.5725</ele>
        <time>2011-06-25T15:56:06Z</time>
      </trkpt>
      <trkpt lat="46.3091" lon="-0.34025">
        <ele>77.607</ele>
        <time>2011-06-25T15:56:07Z</time>
      </trkpt>
      <trkpt lat="46.30911" lon="-0.34024">
        <ele>77.6409</ele>
        <time>2011-06-25T15:56:08Z</time>
      </trkpt>
      <trkpt lat="46.30912" lon="-0.34023">
        <ele>77.6737</ele>
        <time>2011-06-25T15:56:09Z</time>
      </trkpt>
      <trkpt lat="46.30913" lon="-0.34022">
        <ele>77.7039</ele>
        <time>2011-06-25T15:56:10Z</time>
      </trkpt>
      <trkpt lat="46.30914" lon="-0.34021">
        <ele>77.7306</ele>
        <time>2011-06-25T15:56:11Z</time>
      </trkpt>
      <trkpt lat="46.30916" lon="-0.34021">
        <ele>77.7545</ele>
        <time>2011-06-25T15:56:12Z</time>
      </trkpt>
      <trkpt lat="46.30916" lon="-0.3402">
        <ele>77.7791</ele>
        <time>2011-06-25T15:56:13Z</time>
      </trkpt>
      <trkpt lat="46.30918" lon="-0.3402">
        <ele>77.8027</ele>
        <time>2011-06-25T15:56:14Z</time>
      </trkpt>
      <trkpt lat="46.30919" lon="-0.3402">
        <ele>77.825</ele>
        <time>2011-06-25T15:56:15Z</time>
      </trkpt>
      <trkpt lat="46.3092" lon="-0.34019">
        <ele>77.8437</ele>
        <time>2011-06-25T15:56:16Z</time>
      </trkpt>
      <trkpt lat="46.30922" lon="-0.34019">
        <ele>77.8616</ele>
        <time>2011-06-25T15:56:17Z</time>
      </trkpt>
      <trkpt lat="46.30923" lon="-0.34018">
        <ele>77.881</ele>
        <time>2011-06-25T15:56:18Z</time>
      </trkpt>
      <trkpt lat="46.30925" lon="-0.34018">
        <ele>77.8997</ele>
        <time>2011-06-25T15:56:19Z</time>
      </trkpt>
      <trkpt lat="46.30926" lon="-0.34017">
        <ele>77.9186</ele>
        <time>2011-06-25T15:56:20Z</time>
      </trkpt>
      <trkpt lat="46.30927" lon="-0.34016">
        <ele>77.9359</ele>
        <time>2011-06-25T15:56:21Z</time>
      </trkpt>
      <trkpt lat="46.30929" lon="-0.34016">
        <ele>77.9506</ele>
        <time>2011-06-25T15:56:22Z</time>
      </trkpt>
      <trkpt lat="46.3093" lon="-0.34015">
        <ele>77.9665</ele>
        <time>2011-06-25T15:56:23Z</time>
      </trkpt>
      <trkpt lat="46.30932" lon="-0.34015">
        <ele>77.9846</ele>
        <time>2011-06-25T15:56:23Z</time>
      </trkpt>
      <trkpt lat="46.30933" lon="-0.34015">
        <ele>78.0036</ele>
        <time>2011-06-25T15:56:25Z</time>
      </trkpt>
      <trkpt lat="46.30934" lon="-0.34015">
        <ele>78.0243</ele>
        <time>2011-06-25T15:56:26Z</time>
      </trkpt>
      <trkpt lat="46.30936" lon="-0.34015">
        <ele>78.0475</ele>
        <time>2011-06-25T15:56:27Z</time>
      </trkpt>
      <trkpt lat="46.30937" lon="-0.34014">
        <ele>78.0685</ele>
        <time>2011-06-25T15:56:28Z</time>
      </trkpt>
      <trkpt lat="46.30938" lon="-0.34014">
        <ele>78.0858</ele>
        <time>2011-06-25T15:56:29Z</time>
      </trkpt>
      <trkpt lat="46.3094" lon="-0.34013">
        <ele>78.0973</ele>
        <time>2011-06-25T15:56:30Z</time>
      </trkpt>
      <trkpt lat="46.30941" lon="-0.34013">
        <ele>78.1059</ele>
        <time>2011-06-25T15:56:31Z</time>
      </trkpt>
      <trkpt lat="46.30942" lon="-0.34013">
        <ele>78.1101</ele>
        <time>2011-06-25T15:56:32Z</time>
      </trkpt>
      <trkpt lat="46.30943" lon="-0.34013">
        <ele>78.1099</ele>
        <time>2011-06-25T15:56:33Z</time>
      </trkpt>
      <trkpt lat="46.30944" lon="-0.34013">
        <ele>78.1059</ele>
        <time>2011-06-25T15:56:34Z</time>
      </trkpt>
      <trkpt lat="46.30946" lon="-0.34013">
        <ele>78.1001</ele>
        <time>2011-06-25T15:56:35Z</time>
      </trkpt>
      <trkpt lat="46.30947" lon="-0.34012">
        <ele>78.0924</ele>
        <time>2011-06-25T15:56:36Z</time>
      </trkpt>
      <trkpt lat="46.30949" lon="-0.34012">
        <ele>78.0827</ele>
        <time>2011-06-25T15:56:37Z</time>
      </trkpt>
      <trkpt lat="46.3095" lon="-0.34011">
        <ele>78.065</ele>
        <time>2011-06-25T15:56:38Z</time>
      </trkpt>
      <trkpt lat="46.30952" lon="-0.34011">
        <ele>78.046</ele>
        <time>2011-06-25T15:56:39Z</time>
      </trkpt>
      <trkpt lat="46.30953" lon="-0.34011">
        <ele>78.0259</ele>
        <time>2011-06-25T15:56:40Z</time>
      </trkpt>
      <trkpt lat="46.30955" lon="-0.3401">
        <ele>77.9942</ele>
        <time>2011-06-25T15:56:41Z</time>
      </trkpt>
      <trkpt lat="46.30956" lon="-0.3401">
        <ele>77.9624</ele>
        <time>2011-06-25T15:56:42Z</time>
      </trkpt>
      <trkpt lat="46.30958" lon="-0.3401">
        <ele>77.9235</ele>
        <time>2011-06-25T15:56:43Z</time>
      </trkpt>
      <trkpt lat="46.30959" lon="-0.34011">
        <ele>77.8776</ele>
        <time>2011-06-25T15:56:44Z</time>
      </trkpt>
      <trkpt lat="46.30961" lon="-0.34011">
        <ele>77.8333</ele>
        <time>2011-06-25T15:56:45Z</time>
      </trkpt>
      <trkpt lat="46.30963" lon="-0.34011">
        <ele>77.7888</ele>
        <time>2011-06-25T15:56:46Z</time>
      </trkpt>
      <trkpt lat="46.30964" lon="-0.34011">
        <ele>77.7473</ele>
        <time>2011-06-25T15:56:47Z</time>
      </trkpt>
      <trkpt lat="46.30965" lon="-0.34011">
        <ele>77.7056</ele>
        <time>2011-06-25T15:56:48Z</time>
      </trkpt>
      <trkpt lat="46.30967" lon="-0.34012">
        <ele>77.6521</ele>
        <time>2011-06-25T15:56:49Z</time>
      </trkpt>
      <trkpt lat="46.30968" lon="-0.34012">
        <ele>77.5887</ele>
        <time>2011-06-25T15:56:50Z</time>
      </trkpt>
      <trkpt lat="46.30969" lon="-0.34012">
        <ele>77.5235</ele>
        <time>2011-06-25T15:56:51Z</time>
      </trkpt>
      <trkpt lat="46.30971" lon="-0.34011">
        <ele>77.4444</ele>
        <time>2011-06-25T15:56:52Z</time>
      </trkpt>
      <trkpt lat="46.30972" lon="-0.34011">
        <ele>77.3546</ele>
        <time>2011-06-25T15:56:53Z</time>
      </trkpt>
      <trkpt lat="46.30974" lon="-0.34011">
        <ele>77.2608</ele>
        <time>2011-06-25T15:56:54Z</time>
      </trkpt>
      <trkpt lat="46.30975" lon="-0.34011">
        <ele>77.1641</ele>
        <time>2011-06-25T15:56:55Z</time>
      </trkpt>
      <trkpt lat="46.30976" lon="-0.34011">
        <ele>77.0626</ele>
        <time>2011-06-25T15:56:56Z</time>
      </trkpt>
      <trkpt lat="46.30978" lon="-0.3401">
        <ele>76.9518</ele>
        <time>2011-06-25T15:56:57Z</time>
      </trkpt>
      <trkpt lat="46.30979" lon="-0.3401">
        <ele>76.8391</ele>
        <time>2011-06-25T15:56:58Z</time>
      </trkpt>
      <trkpt lat="46.3098" lon="-0.3401">
        <ele>76.7249</ele>
        <time>2011-06-25T15:56:59Z</time>
      </trkpt>
      <trkpt lat="46.30981" lon="-0.3401">
        <ele>76.6101</ele>
        <time>2011-06-25T15:57:00Z</time>
      </trkpt>
      <trkpt lat="46.30983" lon="-0.3401">
        <ele>76.4972</ele>
        <time>2011-06-25T15:57:01Z</time>
      </trkpt>
      <trkpt lat="46.30984" lon="-0.34009">
        <ele>76.3873</ele>
        <time>2011-06-25T15:57:02Z</time>
      </trkpt>
      <trkpt lat="46.30985" lon="-0.34009">
        <ele>76.2804</ele>
        <time>2011-06-25T15:57:03Z</time>
      </trkpt>
      <trkpt lat="46.30986" lon="-0.34009">
        <ele>76.1755</ele>
        <time>2011-06-25T15:57:04Z</time>
      </trkpt>
      <trkpt lat="46.30988" lon="-0.34008">
        <ele>76.0684</ele>
        <time>2011-06-25T15:57:05Z</time>
      </trkpt>
      <trkpt lat="46.30989" lon="-0.34008">
        <ele>75.9636</ele>
        <time>2011-06-25T15:57:06Z</time>
      </trkpt>
      <trkpt lat="46.3099" lon="-0.34007">
        <ele>75.8617</ele>
        <time>2011-06-25T15:57:07Z</time>
      </trkpt>
      <trkpt lat="46.30991" lon="-0.34007">
        <ele>75.7624</ele>
        <time>2011-06-25T15:57:08Z</time>
      </trkpt>
      <trkpt lat="46.30993" lon="-0.34006">
        <ele>75.6648</ele>
        <time>2011-06-25T15:57:09Z</time>
      </trkpt>
      <trkpt lat="46.30994" lon="-0.34006">
        <ele>75.5703</ele>
        <time>2011-06-25T15:57:10Z</time>
      </trkpt>
      <trkpt lat="46.30996" lon="-0.34005">
        <ele>75.4774</ele>
        <time>2011-06-25T15:57:11Z</time>
      </trkpt>
      <trkpt lat="46.30997" lon="-0.34005">
        <ele>75.3861</ele>
        <time>2011-06-25T15:57:12Z</time>
      </trkpt>
      <trkpt lat="46.30998" lon="-0.34004">
        <ele>75.2978</ele>
        <time>2011-06-25T15:57:13Z</time>
      </trkpt>
      <trkpt lat="46.31" lon="-0.34004">
        <ele>75.2116</ele>
        <time>2011-06-25T15:57:14Z</time>
      </trkpt>
      <trkpt lat="46.31001" lon="-0.34004">
        <ele>75.1255</ele>
        <time>2011-06-25T15:57:15Z</time>
      </trkpt>
      <trkpt lat="46.31003" lon="-0.34004">
        <ele>75.0394</ele>
        <time>2011-06-25T15:57:16Z</time>
      </trkpt>
      <trkpt lat="46.31004" lon="-0.34003">
        <ele>74.9523</ele>
        <time>2011-06-25T15:57:17Z</time>
      </trkpt>
      <trkpt lat="46.31006" lon="-0.34003">
        <ele>74.8655</ele>
        <time>2011-06-25T15:57:18Z</time>
      </trkpt>
      <trkpt lat="46.31008" lon="-0.34003">
        <ele>74.7778</ele>
        <time>2011-06-25T15:57:19Z</time>
      </trkpt>
      <trkpt lat="46.31009" lon="-0.34002">
        <ele>74.6907</ele>
        <time>2011-06-25T15:57:20Z</time>
      </trkpt>
      <trkpt lat="46.31011" lon="-0.34002">
        <ele>74.6072</ele>
        <time>2011-06-25T15:57:21Z</time>
      </trkpt>
      <trkpt lat="46.31012" lon="-0.34002">
        <ele>74.5274</ele>
        <time>2011-06-25T15:57:22Z</time>
      </trkpt>
      <trkpt lat="46.31014" lon="-0.34002">
        <ele>74.4491</ele>
        <time>2011-06-25T15:57:23Z</time>
      </trkpt>
      <trkpt lat="46.31015" lon="-0.34001">
        <ele>74.3733</ele>
        <time>2011-06-25T15:57:24Z</time>
      </trkpt>
      <trkpt lat="46.31017" lon="-0.34001">
        <ele>74.2985</ele>
        <time>2011-06-25T15:57:25Z</time>
      </trkpt>
      <trkpt lat="46.31018" lon="-0.34001">
        <ele>74.2237</ele>
        <time>2011-06-25T15:57:26Z</time>
      </trkpt>
      <trkpt lat="46.31019" lon="-0.34001">
        <ele>74.1499</ele>
        <time>2011-06-25T15:57:27Z</time>
      </trkpt>
      <trkpt lat="46.3102" lon="-0.34">
        <ele>74.0763</ele>
        <time>2011-06-25T15:57:28Z</time>
      </trkpt>
      <trkpt lat="46.31022" lon="-0.34">
        <ele>74.004</ele>
        <time>2011-06-25T15:57:29Z</time>
      </trkpt>
      <trkpt lat="46.31023" lon="-0.33999">
        <ele>73.9331</ele>
        <time>2011-06-25T15:57:30Z</time>
      </trkpt>
      <trkpt lat="46.31024" lon="-0.33998">
        <ele>73.8644</ele>
        <time>2011-06-25T15:57:31Z</time>
      </trkpt>
      <trkpt lat="46.31026" lon="-0.33998">
        <ele>73.7969</ele>
        <time>2011-06-25T15:57:32Z</time>
      </trkpt>
      <trkpt lat="46.31027" lon="-0.33997">
        <ele>73.7299</ele>
        <time>2011-06-25T15:57:33Z</time>
      </trkpt>
      <trkpt lat="46.31028" lon="-0.33997">
        <ele>73.664</ele>
        <time>2011-06-25T15:57:34Z</time>
      </trkpt>
      <trkpt lat="46.31029" lon="-0.33997">
        <ele>73.599</ele>
        <time>2011-06-25T15:57:35Z</time>
      </trkpt>
      <trkpt lat="46.31031" lon="-0.33997">
        <ele>73.5357</ele>
        <time>2011-06-25T15:57:36Z</time>
      </trkpt>
      <trkpt lat="46.31031" lon="-0.33996">
        <ele>73.4743</ele>
        <time>2011-06-25T15:57:37Z</time>
      </trkpt>
      <trkpt lat="46.31033" lon="-0.33996">
        <ele>73.4177</ele>
        <time>2011-06-25T15:57:38Z</time>
      </trkpt>
      <trkpt lat="46.31033" lon="-0.33995">
        <ele>73.3636</ele>
        <time>2011-06-25T15:57:39Z</time>
      </trkpt>
      <trkpt lat="46.31035" lon="-0.33995">
        <ele>73.31</ele>
        <time>2011-06-25T15:57:40Z</time>
      </trkpt>
      <trkpt lat="46.31036" lon="-0.33994">
        <ele>73.2584</ele>
        <time>2011-06-25T15:57:41Z</time>
      </trkpt>
      <trkpt lat="46.31037" lon="-0.33994">
        <ele>73.2092</ele>
        <time>2011-06-25T15:57:42Z</time>
      </trkpt>
      <trkpt lat="46.31038" lon="-0.33993">
        <ele>73.162</ele>
        <time>2011-06-25T15:57:43Z</time>
      </trkpt>
      <trkpt lat="46.31039" lon="-0.33993">
        <ele>73.1183</ele>
        <time>2011-06-25T15:57:44Z</time>
      </trkpt>
      <trkpt lat="46.31041" lon="-0.33992">
        <ele>73.0763</ele>
        <time>2011-06-25T15:57:45Z</time>
      </trkpt>
      <trkpt lat="46.31042" lon="-0.33991">
        <ele>73.0346</ele>
        <time>2011-06-25T15:57:46Z</time>
      </trkpt>
      <trkpt lat="46.31043" lon="-0.33991">
        <ele>72.9903</ele>
        <time>2011-06-25T15:57:47Z</time>
      </trkpt>
      <trkpt lat="46.31045" lon="-0.3399">
        <ele>72.9461</ele>
        <time>2011-06-25T15:57:48Z</time>
      </trkpt>
      <trkpt lat="46.31046" lon="-0.3399">
        <ele>72.9023</ele>
        <time>2011-06-25T15:57:49Z</time>
      </trkpt>
      <trkpt lat="46.31047" lon="-0.33989">
        <ele>72.8661</ele>
        <time>2011-06-25T15:57:50Z</time>
      </trkpt>
      <trkpt lat="46.31049" lon="-0.33988">
        <ele>72.8306</ele>
        <time>2011-06-25T15:57:50Z</time>
      </trkpt>
      <trkpt lat="46.3105" lon="-0.33987">
        <ele>72.7974</ele>
        <time>2011-06-25T15:57:52Z</time>
      </trkpt>
      <trkpt lat="46.31052" lon="-0.33987">
        <ele>72.7647</ele>
        <time>2011-06-25T15:57:53Z</time>
      </trkpt>
      <trkpt lat="46.31053" lon="-0.33986">
        <ele>72.7327</ele>
        <time>2011-06-25T15:57:54Z</time>
      </trkpt>
      <trkpt lat="46.31054" lon="-0.33985">
        <ele>72.7011</ele>
        <time>2011-06-25T15:57:55Z</time>
      </trkpt>
      <trkpt lat="46.31056" lon="-0.33984">
        <ele>72.6705</ele>
        <time>2011-06-25T15:57:56Z</time>
      </trkpt>
      <trkpt lat="46.31057" lon="-0.33983">
        <ele>72.6417</ele>
        <time>2011-06-25T15:57:57Z</time>
      </trkpt>
      <trkpt lat="46.31058" lon="-0.33982">
        <ele>72.6166</ele>
        <time>2011-06-25T15:57:58Z</time>
      </trkpt>
      <trkpt lat="46.31059" lon="-0.33981">
        <ele>72.5959</ele>
        <time>2011-06-25T15:57:59Z</time>
      </trkpt>
      <trkpt lat="46.3106" lon="-0.3398">
        <ele>72.5727</ele>
        <time>2011-06-25T15:58:00Z</time>
      </trkpt>
      <trkpt lat="46.31061" lon="-0.33979">
        <ele>72.5493</ele>
        <time>2011-06-25T15:58:01Z</time>
      </trkpt>
      <trkpt lat="46.31062" lon="-0.33977">
        <ele>72.5256</ele>
        <time>2011-06-25T15:58:02Z</time>
      </trkpt>
      <trkpt lat="46.31062" lon="-0.33976">
        <ele>72.5033</ele>
        <time>2011-06-25T15:58:03Z</time>
      </trkpt>
      <trkpt lat="46.31063" lon="-0.33975">
        <ele>72.4813</ele>
        <time>2011-06-25T15:58:04Z</time>
      </trkpt>
      <trkpt lat="46.31063" lon="-0.33973">
        <ele>72.46</ele>
        <time>2011-06-25T15:58:05Z</time>
      </trkpt>
      <trkpt lat="46.31064" lon="-0.33971">
        <ele>72.4401</ele>
        <time>2011-06-25T15:58:06Z</time>
      </trkpt>
      <trkpt lat="46.31064" lon="-0.3397">
        <ele>72.4149</ele>
        <time>2011-06-25T15:58:07Z</time>
      </trkpt>
      <trkpt lat="46.31064" lon="-0.33968">
        <ele>72.3851</ele>
        <time>2011-06-25T15:58:08Z</time>
      </trkpt>
      <trkpt lat="46.31063" lon="-0.33967">
        <ele>72.355</ele>
        <time>2011-06-25T15:58:09Z</time>
      </trkpt>
      <trkpt lat="46.31063" lon="-0.33966">
        <ele>72.3174</ele>
        <time>2011-06-25T15:58:10Z</time>
      </trkpt>
      <trkpt lat="46.31062" lon="-0.33966">
        <ele>72.2723</ele>
        <time>2011-06-25T15:58:11Z</time>
      </trkpt>
      <trkpt lat="46.31062" lon="-0.33966">
        <ele>72.2228</ele>
        <time>2011-06-25T15:58:12Z</time>
      </trkpt>
      <trkpt lat="46.31061" lon="-0.33965">
        <ele>72.1705</ele>
        <time>2011-06-25T15:58:13Z</time>
      </trkpt>
      <trkpt lat="46.31061" lon="-0.33965">
        <ele>72.1172</ele>
        <time>2011-06-25T15:58:14Z</time>
      </trkpt>
      <trkpt lat="46.3106" lon="-0.33964">
        <ele>72.0606</ele>
        <time>2011-06-25T15:58:15Z</time>
      </trkpt>
      <trkpt lat="46.31059" lon="-0.33963">
        <ele>72.0043</ele>
        <time>2011-06-25T15:58:16Z</time>
      </trkpt>
      <trkpt lat="46.31059" lon="-0.33961">
        <ele>71.9483</ele>
        <time>2011-06-25T15:58:17Z</time>
      </trkpt>
      <trkpt lat="46.31058" lon="-0.3396">
        <ele>71.8916</ele>
        <time>2011-06-25T15:58:18Z</time>
      </trkpt>
      <trkpt lat="46.31057" lon="-0.33958">
        <ele>71.8337</ele>
        <time>2011-06-25T15:58:19Z</time>
      </trkpt>
      <trkpt lat="46.31057" lon="-0.33956">
        <ele>71.7742</ele>
        <time>2011-06-25T15:58:20Z</time>
      </trkpt>
      <trkpt lat="46.31056" lon="-0.33954">
        <ele>71.7151</ele>
        <time>2011-06-25T15:58:21Z</time>
      </trkpt>
      <trkpt lat="46.31055" lon="-0.33952">
        <ele>71.6543</ele>
        <time>2011-06-25T15:58:22Z</time>
      </trkpt>
      <trkpt lat="46.31055" lon="-0.3395">
        <ele>71.5944</ele>
        <time>2011-06-25T15:58:23Z</time>
      </trkpt>
      <trkpt lat="46.31054" lon="-0.33949">
        <ele>71.5353</ele>
        <time>2011-06-25T15:58:24Z</time>
      </trkpt>
      <trkpt lat="46.31053" lon="-0.33947">
        <ele>71.477</ele>
        <time>2011-06-25T15:58:25Z</time>
      </trkpt>
      <trkpt lat="46.31053" lon="-0.33945">
        <ele>71.4177</ele>
        <time>2011-06-25T15:58:26Z</time>
      </trkpt>
      <trkpt lat="46.31052" lon="-0.33943">
        <ele>71.3586</ele>
        <time>2011-06-25T15:58:27Z</time>
      </trkpt>
      <trkpt lat="46.31052" lon="-0.33942">
        <ele>71.301</ele>
        <time>2011-06-25T15:58:28Z</time>
      </trkpt>
      <trkpt lat="46.31051" lon="-0.3394">
        <ele>71.2444</ele>
        <time>2011-06-25T15:58:29Z</time>
      </trkpt>
      <trkpt lat="46.31051" lon="-0.33938">
        <ele>71.1901</ele>
        <time>2011-06-25T15:58:30Z</time>
      </trkpt>
      <trkpt lat="46.31051" lon="-0.33935">
        <ele>71.134</ele>
        <time>2011-06-25T15:58:31Z</time>
      </trkpt>
      <trkpt lat="46.31051" lon="-0.33933">
        <ele>71.0775</ele>
        <time>2011-06-25T15:58:32Z</time>
      </trkpt>
      <trkpt lat="46.3105" lon="-0.33932">
        <ele>71.0203</ele>
        <time>2011-06-25T15:58:33Z</time>
      </trkpt>
      <trkpt lat="46.3105" lon="-0.3393">
        <ele>70.9622</ele>
        <time>2011-06-25T15:58:34Z</time>
      </trkpt>
      <trkpt lat="46.31049" lon="-0.33929">
        <ele>70.9053</ele>
        <time>2011-06-25T15:58:35Z</time>
      </trkpt>
      <trkpt lat="46.31049" lon="-0.33927">
        <ele>70.849</ele>
        <time>2011-06-25T15:58:36Z</time>
      </trkpt>
      <trkpt lat="46.31048" lon="-0.33925">
        <ele>70.7919</ele>
        <time>2011-06-25T15:58:37Z</time>
      </trkpt>
      <trkpt lat="46.31047" lon="-0.33923">
        <ele>70.7366</ele>
        <time>2011-06-25T15:58:38Z</time>
      </trkpt>
      <trkpt lat="46.31047" lon="-0.33921">
        <ele>70.6818</ele>
        <time>2011-06-25T15:58:39Z</time>
      </trkpt>
      <trkpt lat="46.31046" lon="-0.33919">
        <ele>70.6271</ele>
        <time>2011-06-25T15:58:40Z</time>
      </trkpt>
      <trkpt lat="46.31045" lon="-0.33918">
        <ele>70.5723</ele>
        <time>2011-06-25T15:58:41Z</time>
      </trkpt>
      <trkpt lat="46.31045" lon="-0.33916">
        <ele>70.5162</ele>
        <time>2011-06-25T15:58:42Z</time>
      </trkpt>
      <trkpt lat="46.31044" lon="-0.33914">
        <ele>70.4597</ele>
        <time>2011-06-25T15:58:43Z</time>
      </trkpt>
      <trkpt lat="46.31044" lon="-0.33912">
        <ele>70.4027</ele>
        <time>2011-06-25T15:58:44Z</time>
      </trkpt>
      <trkpt lat="46.31044" lon="-0.3391">
        <ele>70.345</ele>
        <time>2011-06-25T15:58:45Z</time>
      </trkpt>
      <trkpt lat="46.31043" lon="-0.33909">
        <ele>70.2868</ele>
        <time>2011-06-25T15:58:46Z</time>
      </trkpt>
      <trkpt lat="46.31042" lon="-0.33907">
        <ele>70.2281</ele>
        <time>2011-06-25T15:58:47Z</time>
      </trkpt>
      <trkpt lat="46.31041" lon="-0.33905">
        <ele>70.1692</ele>
        <time>2011-06-25T15:58:48Z</time>
      </trkpt>
      <trkpt lat="46.31041" lon="-0.33904">
        <ele>70.1098</ele>
        <time>2011-06-25T15:58:49Z</time>
      </trkpt>
      <trkpt lat="46.3104" lon="-0.33902">
        <ele>70.0496</ele>
        <time>2011-06-25T15:58:50Z</time>
      </trkpt>
      <trkpt lat="46.31039" lon="-0.33901">
        <ele>69.9872</ele>
        <time>2011-06-25T15:58:51Z</time>
      </trkpt>
      <trkpt lat="46.31038" lon="-0.33899">
        <ele>69.9273</ele>
        <time>2011-06-25T15:58:52Z</time>
      </trkpt>
      <trkpt lat="46.31038" lon="-0.33898">
        <ele>69.867</ele>
        <time>2011-06-25T15:58:53Z</time>
      </trkpt>
      <trkpt lat="46.31037" lon="-0.33896">
        <ele>69.8079</ele>
        <time>2011-06-25T15:58:54Z</time>
      </trkpt>
      <trkpt lat="46.31036" lon="-0.33895">
        <ele>69.7487</ele>
        <time>2011-06-25T15:58:55Z</time>
      </trkpt>
      <trkpt lat="46.31035" lon="-0.33893">
        <ele>69.6905</ele>
        <time>2011-06-25T15:58:56Z</time>
      </trkpt>
      <trkpt lat="46.31035" lon="-0.33892">
        <ele>69.6342</ele>
        <time>2011-06-25T15:58:57Z</time>
      </trkpt>
      <trkpt lat="46.31034" lon="-0.3389">
        <ele>69.5769</ele>
        <time>2011-06-25T15:58:58Z</time>
      </trkpt>
      <trkpt lat="46.31033" lon="-0.33889">
        <ele>69.5187</ele>
        <time>2011-06-25T15:58:59Z</time>
      </trkpt>
      <trkpt lat="46.31033" lon="-0.33887">
        <ele>69.4638</ele>
        <time>2011-06-25T15:59:00Z</time>
      </trkpt>
      <trkpt lat="46.31032" lon="-0.33886">
        <ele>69.4094</ele>
        <time>2011-06-25T15:59:01Z</time>
      </trkpt>
      <trkpt lat="46.31032" lon="-0.33884">
        <ele>69.3557</ele>
        <time>2011-06-25T15:59:02Z</time>
      </trkpt>
      <trkpt lat="46.31031" lon="-0.33882">
        <ele>69.3022</ele>
        <time>2011-06-25T15:59:03Z</time>
      </trkpt>
      <trkpt lat="46.31031" lon="-0.3388">
        <ele>69.2484</ele>
        <time>2011-06-25T15:59:04Z</time>
      </trkpt>
      <trkpt lat="46.3103" lon="-0.33878">
        <ele>69.1942</ele>
        <time>2011-06-25T15:59:05Z</time>
      </trkpt>
      <trkpt lat="46.3103" lon="-0.33877">
        <ele>69.1352</ele>
        <time>2011-06-25T15:59:06Z</time>
      </trkpt>
      <trkpt lat="46.31029" lon="-0.33875">
        <ele>69.0744</ele>
        <time>2011-06-25T15:59:07Z</time>
      </trkpt>
      <trkpt lat="46.31028" lon="-0.33874">
        <ele>69.0151</ele>
        <time>2011-06-25T15:59:08Z</time>
      </trkpt>
      <trkpt lat="46.31027" lon="-0.33872">
        <ele>68.9523</ele>
        <time>2011-06-25T15:59:09Z</time>
      </trkpt>
      <trkpt lat="46.31027" lon="-0.33871">
        <ele>68.8895</ele>
        <time>2011-06-25T15:59:10Z</time>
      </trkpt>
      <trkpt lat="46.31025" lon="-0.3387">
        <ele>68.8267</ele>
        <time>2011-06-25T15:59:11Z</time>
      </trkpt>
      <trkpt lat="46.31025" lon="-0.33868">
        <ele>68.7641</ele>
        <time>2011-06-25T15:59:12Z</time>
      </trkpt>
      <trkpt lat="46.31024" lon="-0.33867">
        <ele>68.7039</ele>
        <time>2011-06-25T15:59:13Z</time>
      </trkpt>
      <trkpt lat="46.31023" lon="-0.33865">
        <ele>68.6409</ele>
        <time>2011-06-25T15:59:14Z</time>
      </trkpt>
      <trkpt lat="46.31022" lon="-0.33864">
        <ele>68.5733</ele>
        <time>2011-06-25T15:59:15Z</time>
      </trkpt>
      <trkpt lat="46.31021" lon="-0.33862">
        <ele>68.5075</ele>
        <time>2011-06-25T15:59:16Z</time>
      </trkpt>
      <trkpt lat="46.3102" lon="-0.3386">
        <ele>68.4423</ele>
        <time>2011-06-25T15:59:17Z</time>
      </trkpt>
      <trkpt lat="46.31019" lon="-0.33858">
        <ele>68.3785</ele>
        <time>2011-06-25T15:59:18Z</time>
      </trkpt>
      <trkpt lat="46.31018" lon="-0.33856">
        <ele>68.3159</ele>
        <time>2011-06-25T15:59:19Z</time>
      </trkpt>
      <trkpt lat="46.31018" lon="-0.33854">
        <ele>68.2545</ele>
        <time>2011-06-25T15:59:20Z</time>
      </trkpt>
      <trkpt lat="46.31017" lon="-0.33852">
        <ele>68.197</ele>
        <time>2011-06-25T15:59:21Z</time>
      </trkpt>
      <trkpt lat="46.31017" lon="-0.3385">
        <ele>68.1404</ele>
        <time>2011-06-25T15:59:22Z</time>
      </trkpt>
      <trkpt lat="46.31017" lon="-0.33848">
        <ele>68.0881</ele>
        <time>2011-06-25T15:59:23Z</time>
      </trkpt>
      <trkpt lat="46.31016" lon="-0.33846">
        <ele>68.038</ele>
        <time>2011-06-25T15:59:24Z</time>
      </trkpt>
      <trkpt lat="46.31016" lon="-0.33844">
        <ele>67.9895</ele>
        <time>2011-06-25T15:59:25Z</time>
      </trkpt>
      <trkpt lat="46.31015" lon="-0.33842">
        <ele>67.95</ele>
        <time>2011-06-25T15:59:26Z</time>
      </trkpt>
      <trkpt lat="46.31015" lon="-0.3384">
        <ele>67.9192</ele>
        <time>2011-06-25T15:59:27Z</time>
      </trkpt>
      <trkpt lat="46.31015" lon="-0.33838">
        <ele>67.8957</ele>
        <time>2011-06-25T15:59:28Z</time>
      </trkpt>
      <trkpt lat="46.31015" lon="-0.33837">
        <ele>67.8749</ele>
        <time>2011-06-25T15:59:29Z</time>
      </trkpt>
      <trkpt lat="46.31015" lon="-0.33835">
        <ele>67.8605</ele>
        <time>2011-06-25T15:59:30Z</time>
      </trkpt>
      <trkpt lat="46.31015" lon="-0.33833">
        <ele>67.8462</ele>
        <time>2011-06-25T15:59:31Z</time>
      </trkpt>
      <trkpt lat="46.31014" lon="-0.33831">
        <ele>67.8328</ele>
        <time>2011-06-25T15:59:32Z</time>
      </trkpt>
      <trkpt lat="46.31014" lon="-0.3383">
        <ele>67.8205</ele>
        <time>2011-06-25T15:59:33Z</time>
      </trkpt>
      <trkpt lat="46.31013" lon="-0.33828">
        <ele>67.8095</ele>
        <time>2011-06-25T15:59:34Z</time>
      </trkpt>
      <trkpt lat="46.31012" lon="-0.33827">
        <ele>67.7997</ele>
        <time>2011-06-25T15:59:35Z</time>
      </trkpt>
      <trkpt lat="46.31011" lon="-0.33825">
        <ele>67.7901</ele>
        <time>2011-06-25T15:59:36Z</time>
      </trkpt>
      <trkpt lat="46.3101" lon="-0.33824">
        <ele>67.782</ele>
        <time>2011-06-25T15:59:37Z</time>
      </trkpt>
      <trkpt lat="46.3101" lon="-0.33822">
        <ele>67.7766</ele>
        <time>2011-06-25T15:59:38Z</time>
      </trkpt>
      <trkpt lat="46.3101" lon="-0.3382">
        <ele>67.7726</ele>
        <time>2011-06-25T15:59:39Z</time>
      </trkpt>
      <trkpt lat="46.31009" lon="-0.33819">
        <ele>67.7684</ele>
        <time>2011-06-25T15:59:40Z</time>
      </trkpt>
      <trkpt lat="46.31009" lon="-0.33817">
        <ele>67.7664</ele>
        <time>2011-06-25T15:59:41Z</time>
      </trkpt>
      <trkpt lat="46.31008" lon="-0.33815">
        <ele>67.7648</ele>
        <time>2011-06-25T15:59:42Z</time>
      </trkpt>
      <trkpt lat="46.31007" lon="-0.33813">
        <ele>67.7648</ele>
        <time>2011-06-25T15:59:43Z</time>
      </trkpt>
      <trkpt lat="46.31007" lon="-0.33811">
        <ele>67.7672</ele>
        <time>2011-06-25T15:59:44Z</time>
      </trkpt>
      <trkpt lat="46.31006" lon="-0.33809">
        <ele>67.7697</ele>
        <time>2011-06-25T15:59:45Z</time>
      </trkpt>
      <trkpt lat="46.31006" lon="-0.33808">
        <ele>67.7716</ele>
        <time>2011-06-25T15:59:46Z</time>
      </trkpt>
      <trkpt lat="46.31006" lon="-0.33806">
        <ele>67.7738</ele>
        <time>2011-06-25T15:59:47Z</time>
      </trkpt>
      <trkpt lat="46.31005" lon="-0.33805">
        <ele>67.7775</ele>
        <time>2011-06-25T15:59:48Z</time>
      </trkpt>
      <trkpt lat="46.31004" lon="-0.33803">
        <ele>67.7822</ele>
        <time>2011-06-25T15:59:49Z</time>
      </trkpt>
      <trkpt lat="46.31004" lon="-0.33802">
        <ele>67.7916</ele>
        <time>2011-06-25T15:59:50Z</time>
      </trkpt>
      <trkpt lat="46.31004" lon="-0.338">
        <ele>67.8036</ele>
        <time>2011-06-25T15:59:51Z</time>
      </trkpt>
      <trkpt lat="46.31004" lon="-0.33798">
        <ele>67.8166</ele>
        <time>2011-06-25T15:59:52Z</time>
      </trkpt>
      <trkpt lat="46.31004" lon="-0.33796">
        <ele>67.8308</ele>
        <time>2011-06-25T15:59:53Z</time>
      </trkpt>
      <trkpt lat="46.31004" lon="-0.33794">
        <ele>67.8497</ele>
        <time>2011-06-25T15:59:54Z</time>
      </trkpt>
      <trkpt lat="46.31004" lon="-0.33791">
        <ele>67.8765</ele>
        <time>2011-06-25T15:59:55Z</time>
      </trkpt>
      <trkpt lat="46.31004" lon="-0.33789">
        <ele>67.9086</ele>
        <time>2011-06-25T15:59:56Z</time>
      </trkpt>
      <trkpt lat="46.31003" lon="-0.33787">
        <ele>67.9407</ele>
        <time>2011-06-25T15:59:57Z</time>
      </trkpt>
      <trkpt lat="46.31003" lon="-0.33785">
        <ele>67.972</ele>
        <time>2011-06-25T15:59:58Z</time>
      </trkpt>
      <trkpt lat="46.31002" lon="-0.33783">
        <ele>68.0042</ele>
        <time>2011-06-25T15:59:59Z</time>
      </trkpt>
      <trkpt lat="46.31002" lon="-0.33781">
        <ele>68.0377</ele>
        <time>2011-06-25T16:00:00Z</time>
      </trkpt>
      <trkpt lat="46.31002" lon="-0.33779">
        <ele>68.0713</ele>
        <time>2011-06-25T16:00:01Z</time>
      </trkpt>
      <trkpt lat="46.31001" lon="-0.33778">
        <ele>68.1044</ele>
        <time>2011-06-25T16:00:02Z</time>
      </trkpt>
      <trkpt lat="46.31" lon="-0.33776">
        <ele>68.1389</ele>
        <time>2011-06-25T16:00:03Z</time>
      </trkpt>
      <trkpt lat="46.31" lon="-0.33774">
        <ele>68.1736</ele>
        <time>2011-06-25T16:00:04Z</time>
      </trkpt>
      <trkpt lat="46.30999" lon="-0.33773">
        <ele>68.2077</ele>
        <time>2011-06-25T16:00:05Z</time>
      </trkpt>
      <trkpt lat="46.30999" lon="-0.33771">
        <ele>68.2422</ele>
        <time>2011-06-25T16:00:06Z</time>
      </trkpt>
      <trkpt lat="46.30998" lon="-0.33769">
        <ele>68.278</ele>
        <time>2011-06-25T16:00:07Z</time>
      </trkpt>
      <trkpt lat="46.30997" lon="-0.33767">
        <ele>68.3127</ele>
        <time>2011-06-25T16:00:08Z</time>
      </trkpt>
      <trkpt lat="46.30996" lon="-0.33765">
        <ele>68.3476</ele>
        <time>2011-06-25T16:00:09Z</time>
      </trkpt>
      <trkpt lat="46.30996" lon="-0.33764">
        <ele>68.381</ele>
        <time>2011-06-25T16:00:10Z</time>
      </trkpt>
      <trkpt lat="46.30995" lon="-0.33762">
        <ele>68.4138</ele>
        <time>2011-06-25T16:00:11Z</time>
      </trkpt>
      <trkpt lat="46.30994" lon="-0.3376">
        <ele>68.4473</ele>
        <time>2011-06-25T16:00:12Z</time>
      </trkpt>
      <trkpt lat="46.30994" lon="-0.33758">
        <ele>68.4816</ele>
        <time>2011-06-25T16:00:13Z</time>
      </trkpt>
      <trkpt lat="46.30993" lon="-0.33757">
        <ele>68.5145</ele>
        <time>2011-06-25T16:00:14Z</time>
      </trkpt>
      <trkpt lat="46.30993" lon="-0.33755">
        <ele>68.546</ele>
        <time>2011-06-25T16:00:15Z</time>
      </trkpt>
      <trkpt lat="46.30993" lon="-0.33753">
        <ele>68.5764</ele>
        <time>2011-06-25T16:00:16Z</time>
      </trkpt>
      <trkpt lat="46.30992" lon="-0.33751">
        <ele>68.6068</ele>
        <time>2011-06-25T16:00:17Z</time>
      </trkpt>
      <trkpt lat="46.30991" lon="-0.3375">
        <ele>68.6215</ele>
        <time>2011-06-25T16:00:18Z</time>
      </trkpt>
      <trkpt lat="46.3099" lon="-0.33748">
        <ele>68.6291</ele>
        <time>2011-06-25T16:00:19Z</time>
      </trkpt>
      <trkpt lat="46.3099" lon="-0.33746">
        <ele>68.6402</ele>
        <time>2011-06-25T16:00:20Z</time>
      </trkpt>
      <trkpt lat="46.30989" lon="-0.33744">
        <ele>68.6533</ele>
        <time>2011-06-25T16:00:21Z</time>
      </trkpt>
      <trkpt lat="46.30989" lon="-0.33742">
        <ele>68.6697</ele>
        <time>2011-06-25T16:00:22Z</time>
      </trkpt>
      <trkpt lat="46.30988" lon="-0.3374">
        <ele>68.6869</ele>
        <time>2011-06-25T16:00:23Z</time>
      </trkpt>
      <trkpt lat="46.30988" lon="-0.33738">
        <ele>68.7025</ele>
        <time>2011-06-25T16:00:24Z</time>
      </trkpt>
      <trkpt lat="46.30987" lon="-0.33735">
        <ele>68.7184</ele>
        <time>2011-06-25T16:00:25Z</time>
      </trkpt>
      <trkpt lat="46.30987" lon="-0.33732">
        <ele>68.7482</ele>
        <time>2011-06-25T16:00:26Z</time>
      </trkpt>
      <trkpt lat="46.30987" lon="-0.3373">
        <ele>68.7812</ele>
        <time>2011-06-25T16:00:27Z</time>
      </trkpt>
      <trkpt lat="46.30987" lon="-0.33728">
        <ele>68.8139</ele>
        <time>2011-06-25T16:00:28Z</time>
      </trkpt>
      <trkpt lat="46.30987" lon="-0.33726">
        <ele>68.8492</ele>
        <time>2011-06-25T16:00:29Z</time>
      </trkpt>
      <trkpt lat="46.30987" lon="-0.33724">
        <ele>68.8856</ele>
        <time>2011-06-25T16:00:30Z</time>
      </trkpt>
      <trkpt lat="46.30986" lon="-0.33722">
        <ele>68.9246</ele>
        <time>2011-06-25T16:00:31Z</time>
      </trkpt>
      <trkpt lat="46.30986" lon="-0.3372">
        <ele>68.9657</ele>
        <time>2011-06-25T16:00:32Z</time>
      </trkpt>
      <trkpt lat="46.30986" lon="-0.33718">
        <ele>69.0104</ele>
        <time>2011-06-25T16:00:33Z</time>
      </trkpt>
      <trkpt lat="46.30986" lon="-0.33717">
        <ele>69.0594</ele>
        <time>2011-06-25T16:00:34Z</time>
      </trkpt>
      <trkpt lat="46.30986" lon="-0.33715">
        <ele>69.1109</ele>
        <time>2011-06-25T16:00:35Z</time>
      </trkpt>
      <trkpt lat="46.30986" lon="-0.33714">
        <ele>69.1686</ele>
        <time>2011-06-25T16:00:36Z</time>
      </trkpt>
      <trkpt lat="46.30986" lon="-0.33712">
        <ele>69.2263</ele>
        <time>2011-06-25T16:00:37Z</time>
      </trkpt>
      <trkpt lat="46.30986" lon="-0.3371">
        <ele>69.2789</ele>
        <time>2011-06-25T16:00:38Z</time>
      </trkpt>
      <trkpt lat="46.30985" lon="-0.33707">
        <ele>69.332</ele>
        <time>2011-06-25T16:00:39Z</time>
      </trkpt>
      <trkpt lat="46.30986" lon="-0.33705">
        <ele>69.3877</ele>
        <time>2011-06-25T16:00:40Z</time>
      </trkpt>
      <trkpt lat="46.30986" lon="-0.33703">
        <ele>69.4473</ele>
        <time>2011-06-25T16:00:41Z</time>
      </trkpt>
      <trkpt lat="46.30985" lon="-0.337">
        <ele>69.5067</ele>
        <time>2011-06-25T16:00:42Z</time>
      </trkpt>
      <trkpt lat="46.30985" lon="-0.33698">
        <ele>69.5629</ele>
        <time>2011-06-25T16:00:43Z</time>
      </trkpt>
      <trkpt lat="46.30985" lon="-0.33695">
        <ele>69.6212</ele>
        <time>2011-06-25T16:00:44Z</time>
      </trkpt>
      <trkpt lat="46.30985" lon="-0.33693">
        <ele>69.6789</ele>
        <time>2011-06-25T16:00:45Z</time>
      </trkpt>
      <trkpt lat="46.30985" lon="-0.33692">
        <ele>69.7341</ele>
        <time>2011-06-25T16:00:46Z</time>
      </trkpt>
      <trkpt lat="46.30984" lon="-0.3369">
        <ele>69.7889</ele>
        <time>2011-06-25T16:00:47Z</time>
      </trkpt>
      <trkpt lat="46.30984" lon="-0.33689">
        <ele>69.8445</ele>
        <time>2011-06-25T16:00:48Z</time>
      </trkpt>
      <trkpt lat="46.30984" lon="-0.33688">
        <ele>69.8997</ele>
        <time>2011-06-25T16:00:49Z</time>
      </trkpt>
      <trkpt lat="46.30984" lon="-0.33686">
        <ele>69.9548</ele>
        <time>2011-06-25T16:00:50Z</time>
      </trkpt>
      <trkpt lat="46.30984" lon="-0.33685">
        <ele>70.0114</ele>
        <time>2011-06-25T16:00:51Z</time>
      </trkpt>
      <trkpt lat="46.30983" lon="-0.33683">
        <ele>70.0704</ele>
        <time>2011-06-25T16:00:52Z</time>
      </trkpt>
      <trkpt lat="46.30983" lon="-0.33681">
        <ele>70.1276</ele>
        <time>2011-06-25T16:00:53Z</time>
      </trkpt>
      <trkpt lat="46.30983" lon="-0.33679">
        <ele>70.1846</ele>
        <time>2011-06-25T16:00:54Z</time>
      </trkpt>
      <trkpt lat="46.30983" lon="-0.33677">
        <ele>70.2381</ele>
        <time>2011-06-25T16:00:55Z</time>
      </trkpt>
      <trkpt lat="46.30982" lon="-0.33674">
        <ele>70.2892</ele>
        <time>2011-06-25T16:00:56Z</time>
      </trkpt>
      <trkpt lat="46.30982" lon="-0.33671">
        <ele>70.3424</ele>
        <time>2011-06-25T16:00:57Z</time>
      </trkpt>
      <trkpt lat="46.30981" lon="-0.33669">
        <ele>70.399</ele>
        <time>2011-06-25T16:00:58Z</time>
      </trkpt>
      <trkpt lat="46.30981" lon="-0.33666">
        <ele>70.4548</ele>
        <time>2011-06-25T16:00:59Z</time>
      </trkpt>
      <trkpt lat="46.30981" lon="-0.33664">
        <ele>70.5117</ele>
        <time>2011-06-25T16:01:00Z</time>
      </trkpt>
      <trkpt lat="46.30981" lon="-0.33662">
        <ele>70.5678</ele>
        <time>2011-06-25T16:01:01Z</time>
      </trkpt>
      <trkpt lat="46.30981" lon="-0.33661">
        <ele>70.6268</ele>
        <time>2011-06-25T16:01:02Z</time>
      </trkpt>
      <trkpt lat="46.30981" lon="-0.33659">
        <ele>70.686</ele>
        <time>2011-06-25T16:01:03Z</time>
      </trkpt>
      <trkpt lat="46.30981" lon="-0.33657">
        <ele>70.7439</ele>
        <time>2011-06-25T16:01:04Z</time>
      </trkpt>
      <trkpt lat="46.30981" lon="-0.33655">
        <ele>70.8009</ele>
        <time>2011-06-25T16:01:05Z</time>
      </trkpt>
      <trkpt lat="46.30981" lon="-0.33654">
        <ele>70.8579</ele>
        <time>2011-06-25T16:01:06Z</time>
      </trkpt>
      <trkpt lat="46.30981" lon="-0.33652">
        <ele>70.9146</ele>
        <time>2011-06-25T16:01:07Z</time>
      </trkpt>
      <trkpt lat="46.3098" lon="-0.3365">
        <ele>70.9711</ele>
        <time>2011-06-25T16:01:08Z</time>
      </trkpt>
      <trkpt lat="46.3098" lon="-0.33648">
        <ele>71.0279</ele>
        <time>2011-06-25T16:01:09Z</time>
      </trkpt>
      <trkpt lat="46.3098" lon="-0.33646">
        <ele>71.084</ele>
        <time>2011-06-25T16:01:10Z</time>
      </trkpt>
      <trkpt lat="46.3098" lon="-0.33644">
        <ele>71.1382</ele>
        <time>2011-06-25T16:01:11Z</time>
      </trkpt>
      <trkpt lat="46.30979" lon="-0.33641">
        <ele>71.1918</ele>
        <time>2011-06-25T16:01:12Z</time>
      </trkpt>
      <trkpt lat="46.30979" lon="-0.33639">
        <ele>71.2438</ele>
        <time>2011-06-25T16:01:13Z</time>
      </trkpt>
      <trkpt lat="46.30978" lon="-0.33637">
        <ele>71.2946</ele>
        <time>2011-06-25T16:01:14Z</time>
      </trkpt>
      <trkpt lat="46.30978" lon="-0.33635">
        <ele>71.3468</ele>
        <time>2011-06-25T16:01:15Z</time>
      </trkpt>
      <trkpt lat="46.30978" lon="-0.33633">
        <ele>71.399</ele>
        <time>2011-06-25T16:01:16Z</time>
      </trkpt>
      <trkpt lat="46.30978" lon="-0.33631">
        <ele>71.451</ele>
        <time>2011-06-25T16:01:17Z</time>
      </trkpt>
      <trkpt lat="46.30978" lon="-0.3363">
        <ele>71.5049</ele>
        <time>2011-06-25T16:01:18Z</time>
      </trkpt>
      <trkpt lat="46.30978" lon="-0.33629">
        <ele>71.5591</ele>
        <time>2011-06-25T16:01:19Z</time>
      </trkpt>
      <trkpt lat="46.30978" lon="-0.33627">
        <ele>71.6173</ele>
        <time>2011-06-25T16:01:20Z</time>
      </trkpt>
      <trkpt lat="46.30977" lon="-0.33625">
        <ele>71.6785</ele>
        <time>2011-06-25T16:01:21Z</time>
      </trkpt>
      <trkpt lat="46.30977" lon="-0.33623">
        <ele>71.7398</ele>
        <time>2011-06-25T16:01:22Z</time>
      </trkpt>
      <trkpt lat="46.30976" lon="-0.33621">
        <ele>71.8003</ele>
        <time>2011-06-25T16:01:23Z</time>
      </trkpt>
      <trkpt lat="46.30976" lon="-0.3362">
        <ele>71.8595</ele>
        <time>2011-06-25T16:01:24Z</time>
      </trkpt>
      <trkpt lat="46.30975" lon="-0.33619">
        <ele>71.9171</ele>
        <time>2011-06-25T16:01:25Z</time>
      </trkpt>
      <trkpt lat="46.30975" lon="-0.33617">
        <ele>71.9735</ele>
        <time>2011-06-25T16:01:26Z</time>
      </trkpt>
      <trkpt lat="46.30975" lon="-0.33616">
        <ele>72.0312</ele>
        <time>2011-06-25T16:01:27Z</time>
      </trkpt>
      <trkpt lat="46.30974" lon="-0.33614">
        <ele>72.0898</ele>
        <time>2011-06-25T16:01:28Z</time>
      </trkpt>
      <trkpt lat="46.30973" lon="-0.33613">
        <ele>72.1499</ele>
        <time>2011-06-25T16:01:29Z</time>
      </trkpt>
      <trkpt lat="46.30973" lon="-0.33611">
        <ele>72.2153</ele>
        <time>2011-06-25T16:01:30Z</time>
      </trkpt>
      <trkpt lat="46.30973" lon="-0.33608">
        <ele>72.285</ele>
        <time>2011-06-25T16:01:31Z</time>
      </trkpt>
      <trkpt lat="46.30973" lon="-0.33606">
        <ele>72.3585</ele>
        <time>2011-06-25T16:01:32Z</time>
      </trkpt>
      <trkpt lat="46.30973" lon="-0.33603">
        <ele>72.435</ele>
        <time>2011-06-25T16:01:33Z</time>
      </trkpt>
      <trkpt lat="46.30973" lon="-0.33601">
        <ele>72.5112</ele>
        <time>2011-06-25T16:01:34Z</time>
      </trkpt>
      <trkpt lat="46.30973" lon="-0.33599">
        <ele>72.5873</ele>
        <time>2011-06-25T16:01:35Z</time>
      </trkpt>
      <trkpt lat="46.30972" lon="-0.33597">
        <ele>72.66</ele>
        <time>2011-06-25T16:01:36Z</time>
      </trkpt>
      <trkpt lat="46.30972" lon="-0.33595">
        <ele>72.7309</ele>
        <time>2011-06-25T16:01:37Z</time>
      </trkpt>
      <trkpt lat="46.30971" lon="-0.33593">
        <ele>72.7984</ele>
        <time>2011-06-25T16:01:38Z</time>
      </trkpt>
      <trkpt lat="46.3097" lon="-0.33591">
        <ele>72.8624</ele>
        <time>2011-06-25T16:01:39Z</time>
      </trkpt>
      <trkpt lat="46.3097" lon="-0.33589">
        <ele>72.9211</ele>
        <time>2011-06-25T16:01:40Z</time>
      </trkpt>
      <trkpt lat="46.30969" lon="-0.33587">
        <ele>72.9757</ele>
        <time>2011-06-25T16:01:41Z</time>
      </trkpt>
      <trkpt lat="46.30969" lon="-0.33586">
        <ele>73.0262</ele>
        <time>2011-06-25T16:01:42Z</time>
      </trkpt>
      <trkpt lat="46.30968" lon="-0.33584">
        <ele>73.0726</ele>
        <time>2011-06-25T16:01:43Z</time>
      </trkpt>
      <trkpt lat="46.30968" lon="-0.33582">
        <ele>73.1154</ele>
        <time>2011-06-25T16:01:44Z</time>
      </trkpt>
      <trkpt lat="46.30967" lon="-0.3358">
        <ele>73.1545</ele>
        <time>2011-06-25T16:01:45Z</time>
      </trkpt>
      <trkpt lat="46.30967" lon="-0.33579">
        <ele>73.1916</ele>
        <time>2011-06-25T16:01:46Z</time>
      </trkpt>
      <trkpt lat="46.30967" lon="-0.33577">
        <ele>73.2272</ele>
        <time>2011-06-25T16:01:47Z</time>
      </trkpt>
      <trkpt lat="46.30967" lon="-0.33575">
        <ele>73.2616</ele>
        <time>2011-06-25T16:01:48Z</time>
      </trkpt>
      <trkpt lat="46.30966" lon="-0.33574">
        <ele>73.295</ele>
        <time>2011-06-25T16:01:49Z</time>
      </trkpt>
      <trkpt lat="46.30966" lon="-0.33572">
        <ele>73.3281</ele>
        <time>2011-06-25T16:01:50Z</time>
      </trkpt>
      <trkpt lat="46.30965" lon="-0.3357">
        <ele>73.361</ele>
        <time>2011-06-25T16:01:51Z</time>
      </trkpt>
      <trkpt lat="46.30965" lon="-0.33568">
        <ele>73.395</ele>
        <time>2011-06-25T16:01:52Z</time>
      </trkpt>
      <trkpt lat="46.30965" lon="-0.33566">
        <ele>73.4304</ele>
        <time>2011-06-25T16:01:53Z</time>
      </trkpt>
      <trkpt lat="46.30964" lon="-0.33564">
        <ele>73.4642</ele>
        <time>2011-06-25T16:01:54Z</time>
      </trkpt>
      <trkpt lat="46.30964" lon="-0.33562">
        <ele>73.4952</ele>
        <time>2011-06-25T16:01:55Z</time>
      </trkpt>
      <trkpt lat="46.30964" lon="-0.33561">
        <ele>73.5247</ele>
        <time>2011-06-25T16:01:56Z</time>
      </trkpt>
      <trkpt lat="46.30964" lon="-0.33559">
        <ele>73.5539</ele>
        <time>2011-06-25T16:01:57Z</time>
      </trkpt>
      <trkpt lat="46.30964" lon="-0.33558">
        <ele>73.5839</ele>
        <time>2011-06-25T16:01:58Z</time>
      </trkpt>
      <trkpt lat="46.30964" lon="-0.33556">
        <ele>73.612</ele>
        <time>2011-06-25T16:01:59Z</time>
      </trkpt>
      <trkpt lat="46.30964" lon="-0.33555">
        <ele>73.6408</ele>
        <time>2011-06-25T16:02:00Z</time>
      </trkpt>
      <trkpt lat="46.30964" lon="-0.33553">
        <ele>73.67</ele>
        <time>2011-06-25T16:02:01Z</time>
      </trkpt>
      <trkpt lat="46.30964" lon="-0.33552">
        <ele>73.6994</ele>
        <time>2011-06-25T16:02:02Z</time>
      </trkpt>
      <trkpt lat="46.30964" lon="-0.3355">
        <ele>73.7287</ele>
        <time>2011-06-25T16:02:03Z</time>
      </trkpt>
      <trkpt lat="46.30964" lon="-0.33548">
        <ele>73.759</ele>
        <time>2011-06-25T16:02:04Z</time>
      </trkpt>
      <trkpt lat="46.30964" lon="-0.33546">
        <ele>73.7883</ele>
        <time>2011-06-25T16:02:05Z</time>
      </trkpt>
      <trkpt lat="46.30964" lon="-0.33544">
        <ele>73.8162</ele>
        <time>2011-06-25T16:02:06Z</time>
      </trkpt>
      <trkpt lat="46.30963" lon="-0.33543">
        <ele>73.8412</ele>
        <time>2011-06-25T16:02:07Z</time>
      </trkpt>
      <trkpt lat="46.30962" lon="-0.33541">
        <ele>73.8653</ele>
        <time>2011-06-25T16:02:08Z</time>
      </trkpt>
      <trkpt lat="46.30962" lon="-0.33539">
        <ele>73.888</ele>
        <time>2011-06-25T16:02:09Z</time>
      </trkpt>
      <trkpt lat="46.30961" lon="-0.33538">
        <ele>73.9072</ele>
        <time>2011-06-25T16:02:10Z</time>
      </trkpt>
      <trkpt lat="46.30961" lon="-0.33536">
        <ele>73.9237</ele>
        <time>2011-06-25T16:02:11Z</time>
      </trkpt>
      <trkpt lat="46.3096" lon="-0.33534">
        <ele>73.9398</ele>
        <time>2011-06-25T16:02:12Z</time>
      </trkpt>
      <trkpt lat="46.3096" lon="-0.33532">
        <ele>73.9573</ele>
        <time>2011-06-25T16:02:13Z</time>
      </trkpt>
      <trkpt lat="46.30959" lon="-0.33531">
        <ele>73.9781</ele>
        <time>2011-06-25T16:02:14Z</time>
      </trkpt>
      <trkpt lat="46.30959" lon="-0.33529">
        <ele>74.0071</ele>
        <time>2011-06-25T16:02:15Z</time>
      </trkpt>
      <trkpt lat="46.30959" lon="-0.33527">
        <ele>74.0446</ele>
        <time>2011-06-25T16:02:16Z</time>
      </trkpt>
      <trkpt lat="46.30959" lon="-0.33524">
        <ele>74.089</ele>
        <time>2011-06-25T16:02:17Z</time>
      </trkpt>
      <trkpt lat="46.30959" lon="-0.33522">
        <ele>74.1331</ele>
        <time>2011-06-25T16:02:18Z</time>
      </trkpt>
      <trkpt lat="46.30959" lon="-0.3352">
        <ele>74.1761</ele>
        <time>2011-06-25T16:02:19Z</time>
      </trkpt>
      <trkpt lat="46.30959" lon="-0.33519">
        <ele>74.2185</ele>
        <time>2011-06-25T16:02:20Z</time>
      </trkpt>
      <trkpt lat="46.30958" lon="-0.33517">
        <ele>74.2586</ele>
        <time>2011-06-25T16:02:21Z</time>
      </trkpt>
      <trkpt lat="46.30958" lon="-0.33515">
        <ele>74.2981</ele>
        <time>2011-06-25T16:02:22Z</time>
      </trkpt>
      <trkpt lat="46.30957" lon="-0.33513">
        <ele>74.3347</ele>
        <time>2011-06-25T16:02:23Z</time>
      </trkpt>
      <trkpt lat="46.30957" lon="-0.33512">
        <ele>74.3701</ele>
        <time>2011-06-25T16:02:24Z</time>
      </trkpt>
      <trkpt lat="46.30956" lon="-0.3351">
        <ele>74.4066</ele>
        <time>2011-06-25T16:02:25Z</time>
      </trkpt>
      <trkpt lat="46.30956" lon="-0.33509">
        <ele>74.4418</ele>
        <time>2011-06-25T16:02:26Z</time>
      </trkpt>
      <trkpt lat="46.30956" lon="-0.33507">
        <ele>74.4786</ele>
        <time>2011-06-25T16:02:27Z</time>
      </trkpt>
      <trkpt lat="46.30956" lon="-0.33505">
        <ele>74.5186</ele>
        <time>2011-06-25T16:02:28Z</time>
      </trkpt>
      <trkpt lat="46.30956" lon="-0.33503">
        <ele>74.5559</ele>
        <time>2011-06-25T16:02:29Z</time>
      </trkpt>
      <trkpt lat="46.30956" lon="-0.33501">
        <ele>74.5896</ele>
        <time>2011-06-25T16:02:30Z</time>
      </trkpt>
      <trkpt lat="46.30955" lon="-0.335">
        <ele>74.6181</ele>
        <time>2011-06-25T16:02:31Z</time>
      </trkpt>
      <trkpt lat="46.30955" lon="-0.33498">
        <ele>74.6422</ele>
        <time>2011-06-25T16:02:32Z</time>
      </trkpt>
      <trkpt lat="46.30954" lon="-0.33496">
        <ele>74.6636</ele>
        <time>2011-06-25T16:02:33Z</time>
      </trkpt>
      <trkpt lat="46.30953" lon="-0.33495">
        <ele>74.6833</ele>
        <time>2011-06-25T16:02:34Z</time>
      </trkpt>
      <trkpt lat="46.30953" lon="-0.33493">
        <ele>74.701</ele>
        <time>2011-06-25T16:02:35Z</time>
      </trkpt>
      <trkpt lat="46.30952" lon="-0.33491">
        <ele>74.7212</ele>
        <time>2011-06-25T16:02:36Z</time>
      </trkpt>
      <trkpt lat="46.30951" lon="-0.33489">
        <ele>74.7348</ele>
        <time>2011-06-25T16:02:37Z</time>
      </trkpt>
      <trkpt lat="46.30951" lon="-0.33486">
        <ele>74.7423</ele>
        <time>2011-06-25T16:02:38Z</time>
      </trkpt>
      <trkpt lat="46.3095" lon="-0.33484">
        <ele>74.7531</ele>
        <time>2011-06-25T16:02:39Z</time>
      </trkpt>
      <trkpt lat="46.30949" lon="-0.33482">
        <ele>74.7573</ele>
        <time>2011-06-25T16:02:40Z</time>
      </trkpt>
      <trkpt lat="46.30948" lon="-0.3348">
        <ele>74.7546</ele>
        <time>2011-06-25T16:02:41Z</time>
      </trkpt>
      <trkpt lat="46.30948" lon="-0.33478">
        <ele>74.7509</ele>
        <time>2011-06-25T16:02:42Z</time>
      </trkpt>
      <trkpt lat="46.30947" lon="-0.33477">
        <ele>74.7437</ele>
        <time>2011-06-25T16:02:43Z</time>
      </trkpt>
      <trkpt lat="46.30946" lon="-0.33475">
        <ele>74.7372</ele>
        <time>2011-06-25T16:02:44Z</time>
      </trkpt>
      <trkpt lat="46.30946" lon="-0.33474">
        <ele>74.735</ele>
        <time>2011-06-25T16:02:45Z</time>
      </trkpt>
      <trkpt lat="46.30945" lon="-0.33471">
        <ele>74.7289</ele>
        <time>2011-06-25T16:02:46Z</time>
      </trkpt>
      <trkpt lat="46.30944" lon="-0.33469">
        <ele>74.7164</ele>
        <time>2011-06-25T16:02:47Z</time>
      </trkpt>
      <trkpt lat="46.30943" lon="-0.33466">
        <ele>74.7024</ele>
        <time>2011-06-25T16:02:48Z</time>
      </trkpt>
      <trkpt lat="46.30943" lon="-0.33464">
        <ele>74.6905</ele>
        <time>2011-06-25T16:02:49Z</time>
      </trkpt>
      <trkpt lat="46.30942" lon="-0.33462">
        <ele>74.6806</ele>
        <time>2011-06-25T16:02:50Z</time>
      </trkpt>
      <trkpt lat="46.30942" lon="-0.3346">
        <ele>74.6711</ele>
        <time>2011-06-25T16:02:51Z</time>
      </trkpt>
      <trkpt lat="46.30941" lon="-0.33458">
        <ele>74.6603</ele>
        <time>2011-06-25T16:02:52Z</time>
      </trkpt>
      <trkpt lat="46.30941" lon="-0.33456">
        <ele>74.6521</ele>
        <time>2011-06-25T16:02:53Z</time>
      </trkpt>
      <trkpt lat="46.30941" lon="-0.33454">
        <ele>74.6488</ele>
        <time>2011-06-25T16:02:54Z</time>
      </trkpt>
      <trkpt lat="46.30941" lon="-0.33452">
        <ele>74.6489</ele>
        <time>2011-06-25T16:02:55Z</time>
      </trkpt>
      <trkpt lat="46.30941" lon="-0.3345">
        <ele>74.6456</ele>
        <time>2011-06-25T16:02:56Z</time>
      </trkpt>
      <trkpt lat="46.30941" lon="-0.33448">
        <ele>74.6397</ele>
        <time>2011-06-25T16:02:57Z</time>
      </trkpt>
      <trkpt lat="46.30941" lon="-0.33446">
        <ele>74.6329</ele>
        <time>2011-06-25T16:02:58Z</time>
      </trkpt>
      <trkpt lat="46.30941" lon="-0.33443">
        <ele>74.6269</ele>
        <time>2011-06-25T16:02:59Z</time>
      </trkpt>
      <trkpt lat="46.30941" lon="-0.33442">
        <ele>74.621</ele>
        <time>2011-06-25T16:03:00Z</time>
      </trkpt>
      <trkpt lat="46.3094" lon="-0.3344">
        <ele>74.6151</ele>
        <time>2011-06-25T16:03:01Z</time>
      </trkpt>
      <trkpt lat="46.3094" lon="-0.33438">
        <ele>74.6071</ele>
        <time>2011-06-25T16:03:02Z</time>
      </trkpt>
      <trkpt lat="46.3094" lon="-0.33437">
        <ele>74.5979</ele>
        <time>2011-06-25T16:03:03Z</time>
      </trkpt>
      <trkpt lat="46.30939" lon="-0.33435">
        <ele>74.5858</ele>
        <time>2011-06-25T16:03:04Z</time>
      </trkpt>
      <trkpt lat="46.30938" lon="-0.33433">
        <ele>74.5715</ele>
        <time>2011-06-25T16:03:05Z</time>
      </trkpt>
      <trkpt lat="46.30938" lon="-0.33432">
        <ele>74.5573</ele>
        <time>2011-06-25T16:03:06Z</time>
      </trkpt>
      <trkpt lat="46.30938" lon="-0.33431">
        <ele>74.5435</ele>
        <time>2011-06-25T16:03:07Z</time>
      </trkpt>
      <trkpt lat="46.30937" lon="-0.33429">
        <ele>74.5293</ele>
        <time>2011-06-25T16:03:08Z</time>
      </trkpt>
      <trkpt lat="46.30936" lon="-0.33428">
        <ele>74.5165</ele>
        <time>2011-06-25T16:03:09Z</time>
      </trkpt>
      <trkpt lat="46.30936" lon="-0.33426">
        <ele>74.5029</ele>
        <time>2011-06-25T16:03:10Z</time>
      </trkpt>
      <trkpt lat="46.30936" lon="-0.33425">
        <ele>74.4877</ele>
        <time>2011-06-25T16:03:11Z</time>
      </trkpt>
      <trkpt lat="46.30935" lon="-0.33423">
        <ele>74.4654</ele>
        <time>2011-06-25T16:03:12Z</time>
      </trkpt>
      <trkpt lat="46.30935" lon="-0.33422">
        <ele>74.4421</ele>
        <time>2011-06-25T16:03:13Z</time>
      </trkpt>
      <trkpt lat="46.30933" lon="-0.33421">
        <ele>74.409</ele>
        <time>2011-06-25T16:03:14Z</time>
      </trkpt>
      <trkpt lat="46.30933" lon="-0.33419">
        <ele>74.3694</ele>
        <time>2011-06-25T16:03:15Z</time>
      </trkpt>
      <trkpt lat="46.30932" lon="-0.33418">
        <ele>74.3229</ele>
        <time>2011-06-25T16:03:16Z</time>
      </trkpt>
      <trkpt lat="46.30931" lon="-0.33416">
        <ele>74.2704</ele>
        <time>2011-06-25T16:03:17Z</time>
      </trkpt>
      <trkpt lat="46.30931" lon="-0.33415">
        <ele>74.2148</ele>
        <time>2011-06-25T16:03:18Z</time>
      </trkpt>
      <trkpt lat="46.3093" lon="-0.33413">
        <ele>74.1569</ele>
        <time>2011-06-25T16:03:19Z</time>
      </trkpt>
      <trkpt lat="46.30929" lon="-0.33411">
        <ele>74.091</ele>
        <time>2011-06-25T16:03:20Z</time>
      </trkpt>
      <trkpt lat="46.30928" lon="-0.33409">
        <ele>74.0215</ele>
        <time>2011-06-25T16:03:21Z</time>
      </trkpt>
      <trkpt lat="46.30927" lon="-0.33407">
        <ele>73.9519</ele>
        <time>2011-06-25T16:03:22Z</time>
      </trkpt>
      <trkpt lat="46.30926" lon="-0.33405">
        <ele>73.8891</ele>
        <time>2011-06-25T16:03:23Z</time>
      </trkpt>
      <trkpt lat="46.30925" lon="-0.33403">
        <ele>73.8258</ele>
        <time>2011-06-25T16:03:24Z</time>
      </trkpt>
      <trkpt lat="46.30925" lon="-0.33401">
        <ele>73.7605</ele>
        <time>2011-06-25T16:03:25Z</time>
      </trkpt>
      <trkpt lat="46.30924" lon="-0.334">
        <ele>73.6906</ele>
        <time>2011-06-25T16:03:26Z</time>
      </trkpt>
      <trkpt lat="46.30924" lon="-0.33398">
        <ele>73.6164</ele>
        <time>2011-06-25T16:03:27Z</time>
      </trkpt>
      <trkpt lat="46.30923" lon="-0.33396">
        <ele>73.5404</ele>
        <time>2011-06-25T16:03:28Z</time>
      </trkpt>
      <trkpt lat="46.30923" lon="-0.33395">
        <ele>73.4637</ele>
        <time>2011-06-25T16:03:29Z</time>
      </trkpt>
      <trkpt lat="46.30922" lon="-0.33393">
        <ele>73.3849</ele>
        <time>2011-06-25T16:03:30Z</time>
      </trkpt>
      <trkpt lat="46.30922" lon="-0.33392">
        <ele>73.3055</ele>
        <time>2011-06-25T16:03:31Z</time>
      </trkpt>
      <trkpt lat="46.30921" lon="-0.33391">
        <ele>73.225</ele>
        <time>2011-06-25T16:03:32Z</time>
      </trkpt>
      <trkpt lat="46.30921" lon="-0.33389">
        <ele>73.1446</ele>
        <time>2011-06-25T16:03:33Z</time>
      </trkpt>
      <trkpt lat="46.3092" lon="-0.33388">
        <ele>73.0646</ele>
        <time>2011-06-25T16:03:34Z</time>
      </trkpt>
      <trkpt lat="46.3092" lon="-0.33386">
        <ele>72.987</ele>
        <time>2011-06-25T16:03:35Z</time>
      </trkpt>
      <trkpt lat="46.30919" lon="-0.33385">
        <ele>72.9106</ele>
        <time>2011-06-25T16:03:36Z</time>
      </trkpt>
      <trkpt lat="46.30919" lon="-0.33384">
        <ele>72.8353</ele>
        <time>2011-06-25T16:03:37Z</time>
      </trkpt>
      <trkpt lat="46.30919" lon="-0.33382">
        <ele>72.7608</ele>
        <time>2011-06-25T16:03:38Z</time>
      </trkpt>
      <trkpt lat="46.30918" lon="-0.33381">
        <ele>72.6893</ele>
        <time>2011-06-25T16:03:39Z</time>
      </trkpt>
      <trkpt lat="46.30917" lon="-0.33379">
        <ele>72.6206</ele>
        <time>2011-06-25T16:03:40Z</time>
      </trkpt>
      <trkpt lat="46.30917" lon="-0.33377">
        <ele>72.5578</ele>
        <time>2011-06-25T16:03:41Z</time>
      </trkpt>
      <trkpt lat="46.30916" lon="-0.33376">
        <ele>72.4965</ele>
        <time>2011-06-25T16:03:42Z</time>
      </trkpt>
      <trkpt lat="46.30916" lon="-0.33374">
        <ele>72.439</ele>
        <time>2011-06-25T16:03:43Z</time>
      </trkpt>
      <trkpt lat="46.30916" lon="-0.33373">
        <ele>72.3842</ele>
        <time>2011-06-25T16:03:44Z</time>
      </trkpt>
      <trkpt lat="46.30915" lon="-0.33371">
        <ele>72.3296</ele>
        <time>2011-06-25T16:03:45Z</time>
      </trkpt>
      <trkpt lat="46.30914" lon="-0.33369">
        <ele>72.2725</ele>
        <time>2011-06-25T16:03:46Z</time>
      </trkpt>
      <trkpt lat="46.30914" lon="-0.33368">
        <ele>72.2186</ele>
        <time>2011-06-25T16:03:47Z</time>
      </trkpt>
      <trkpt lat="46.30913" lon="-0.33366">
        <ele>72.1624</ele>
        <time>2011-06-25T16:03:48Z</time>
      </trkpt>
      <trkpt lat="46.30912" lon="-0.33365">
        <ele>72.1083</ele>
        <time>2011-06-25T16:03:49Z</time>
      </trkpt>
      <trkpt lat="46.30912" lon="-0.33363">
        <ele>72.0499</ele>
        <time>2011-06-25T16:03:50Z</time>
      </trkpt>
      <trkpt lat="46.30911" lon="-0.33362">
        <ele>71.9894</ele>
        <time>2011-06-25T16:03:51Z</time>
      </trkpt>
      <trkpt lat="46.3091" lon="-0.3336">
        <ele>71.9137</ele>
        <time>2011-06-25T16:03:52Z</time>
      </trkpt>
      <trkpt lat="46.30909" lon="-0.33357">
        <ele>71.8243</ele>
        <time>2011-06-25T16:03:53Z</time>
      </trkpt>
      <trkpt lat="46.30908" lon="-0.33355">
        <ele>71.7374</ele>
        <time>2011-06-25T16:03:54Z</time>
      </trkpt>
      <trkpt lat="46.30907" lon="-0.33352">
        <ele>71.6491</ele>
        <time>2011-06-25T16:03:55Z</time>
      </trkpt>
      <trkpt lat="46.30906" lon="-0.3335">
        <ele>71.5532</ele>
        <time>2011-06-25T16:03:56Z</time>
      </trkpt>
      <trkpt lat="46.30905" lon="-0.33348">
        <ele>71.4611</ele>
        <time>2011-06-25T16:03:57Z</time>
      </trkpt>
      <trkpt lat="46.30904" lon="-0.33346">
        <ele>71.3675</ele>
        <time>2011-06-25T16:03:58Z</time>
      </trkpt>
      <trkpt lat="46.30903" lon="-0.33344">
        <ele>71.2777</ele>
        <time>2011-06-25T16:03:59Z</time>
      </trkpt>
      <trkpt lat="46.30903" lon="-0.33342">
        <ele>71.1906</ele>
        <time>2011-06-25T16:04:00Z</time>
      </trkpt>
      <trkpt lat="46.30902" lon="-0.33341">
        <ele>71.1034</ele>
        <time>2011-06-25T16:04:01Z</time>
      </trkpt>
      <trkpt lat="46.30902" lon="-0.33339">
        <ele>70.9985</ele>
        <time>2011-06-25T16:04:02Z</time>
      </trkpt>
      <trkpt lat="46.30902" lon="-0.33337">
        <ele>70.9033</ele>
        <time>2011-06-25T16:04:03Z</time>
      </trkpt>
      <trkpt lat="46.30902" lon="-0.33334">
        <ele>70.8166</ele>
        <time>2011-06-25T16:04:04Z</time>
      </trkpt>
      <trkpt lat="46.30903" lon="-0.33332">
        <ele>70.7375</ele>
        <time>2011-06-25T16:04:05Z</time>
      </trkpt>
      <trkpt lat="46.30903" lon="-0.3333">
        <ele>70.6658</ele>
        <time>2011-06-25T16:04:06Z</time>
      </trkpt>
      <trkpt lat="46.30903" lon="-0.33328">
        <ele>70.5963</ele>
        <time>2011-06-25T16:04:07Z</time>
      </trkpt>
      <trkpt lat="46.30903" lon="-0.33326">
        <ele>70.5293</ele>
        <time>2011-06-25T16:04:08Z</time>
      </trkpt>
      <trkpt lat="46.30903" lon="-0.33324">
        <ele>70.4683</ele>
        <time>2011-06-25T16:04:09Z</time>
      </trkpt>
      <trkpt lat="46.30903" lon="-0.33322">
        <ele>70.4109</ele>
        <time>2011-06-25T16:04:10Z</time>
      </trkpt>
      <trkpt lat="46.30903" lon="-0.3332">
        <ele>70.3547</ele>
        <time>2011-06-25T16:04:11Z</time>
      </trkpt>
      <trkpt lat="46.30903" lon="-0.33318">
        <ele>70.2986</ele>
        <time>2011-06-25T16:04:12Z</time>
      </trkpt>
      <trkpt lat="46.30903" lon="-0.33316">
        <ele>70.2391</ele>
        <time>2011-06-25T16:04:13Z</time>
      </trkpt>
      <trkpt lat="46.30903" lon="-0.33313">
        <ele>70.1802</ele>
        <time>2011-06-25T16:04:14Z</time>
      </trkpt>
      <trkpt lat="46.30903" lon="-0.33311">
        <ele>70.1226</ele>
        <time>2011-06-25T16:04:15Z</time>
      </trkpt>
      <trkpt lat="46.30903" lon="-0.33309">
        <ele>70.0638</ele>
        <time>2011-06-25T16:04:16Z</time>
      </trkpt>
      <trkpt lat="46.30904" lon="-0.33307">
        <ele>70.0053</ele>
        <time>2011-06-25T16:04:17Z</time>
      </trkpt>
      <trkpt lat="46.30903" lon="-0.33305">
        <ele>69.9465</ele>
        <time>2011-06-25T16:04:18Z</time>
      </trkpt>
      <trkpt lat="46.30903" lon="-0.33303">
        <ele>69.8869</ele>
        <time>2011-06-25T16:04:19Z</time>
      </trkpt>
      <trkpt lat="46.30903" lon="-0.33301">
        <ele>69.8246</ele>
        <time>2011-06-25T16:04:20Z</time>
      </trkpt>
      <trkpt lat="46.30903" lon="-0.33299">
        <ele>69.7594</ele>
        <time>2011-06-25T16:04:21Z</time>
      </trkpt>
      <trkpt lat="46.30903" lon="-0.33297">
        <ele>69.6937</ele>
        <time>2011-06-25T16:04:22Z</time>
      </trkpt>
      <trkpt lat="46.30903" lon="-0.33295">
        <ele>69.6291</ele>
        <time>2011-06-25T16:04:23Z</time>
      </trkpt>
      <trkpt lat="46.30902" lon="-0.33294">
        <ele>69.5631</ele>
        <time>2011-06-25T16:04:24Z</time>
      </trkpt>
      <trkpt lat="46.30902" lon="-0.33292">
        <ele>69.4964</ele>
        <time>2011-06-25T16:04:25Z</time>
      </trkpt>
      <trkpt lat="46.30901" lon="-0.3329">
        <ele>69.429</ele>
        <time>2011-06-25T16:04:26Z</time>
      </trkpt>
      <trkpt lat="46.30901" lon="-0.33288">
        <ele>69.3561</ele>
        <time>2011-06-25T16:04:27Z</time>
      </trkpt>
      <trkpt lat="46.30901" lon="-0.33286">
        <ele>69.2835</ele>
        <time>2011-06-25T16:04:28Z</time>
      </trkpt>
      <trkpt lat="46.30901" lon="-0.33285">
        <ele>69.2107</ele>
        <time>2011-06-25T16:04:29Z</time>
      </trkpt>
      <trkpt lat="46.309" lon="-0.33283">
        <ele>69.1389</ele>
        <time>2011-06-25T16:04:30Z</time>
      </trkpt>
      <trkpt lat="46.309" lon="-0.33281">
        <ele>69.0673</ele>
        <time>2011-06-25T16:04:31Z</time>
      </trkpt>
      <trkpt lat="46.30899" lon="-0.33279">
        <ele>68.9987</ele>
        <time>2011-06-25T16:04:32Z</time>
      </trkpt>
      <trkpt lat="46.30899" lon="-0.33278">
        <ele>68.933</ele>
        <time>2011-06-25T16:04:33Z</time>
      </trkpt>
      <trkpt lat="46.30898" lon="-0.33276">
        <ele>68.8671</ele>
        <time>2011-06-25T16:04:34Z</time>
      </trkpt>
      <trkpt lat="46.30898" lon="-0.33275">
        <ele>68.8016</ele>
        <time>2011-06-25T16:04:35Z</time>
      </trkpt>
      <trkpt lat="46.30897" lon="-0.33274">
        <ele>68.7399</ele>
        <time>2011-06-25T16:04:36Z</time>
      </trkpt>
      <trkpt lat="46.30896" lon="-0.33273">
        <ele>68.6824</ele>
        <time>2011-06-25T16:04:37Z</time>
      </trkpt>
      <trkpt lat="46.30896" lon="-0.33272">
        <ele>68.6262</ele>
        <time>2011-06-25T16:04:38Z</time>
      </trkpt>
      <trkpt lat="46.30896" lon="-0.3327">
        <ele>68.5717</ele>
        <time>2011-06-25T16:04:39Z</time>
      </trkpt>
      <trkpt lat="46.30895" lon="-0.33269">
        <ele>68.5179</ele>
        <time>2011-06-25T16:04:40Z</time>
      </trkpt>
      <trkpt lat="46.30895" lon="-0.33268">
        <ele>68.466</ele>
        <time>2011-06-25T16:04:41Z</time>
      </trkpt>
      <trkpt lat="46.30895" lon="-0.33266">
        <ele>68.4083</ele>
        <time>2011-06-25T16:04:42Z</time>
      </trkpt>
      <trkpt lat="46.30895" lon="-0.33265">
        <ele>68.3513</ele>
        <time>2011-06-25T16:04:43Z</time>
      </trkpt>
      <trkpt lat="46.30894" lon="-0.33264">
        <ele>68.2955</ele>
        <time>2011-06-25T16:04:44Z</time>
      </trkpt>
      <trkpt lat="46.30888" lon="-0.33266">
        <ele>67.8797</ele>
        <time>2011-06-25T16:05:32Z</time>
      </trkpt>
      <trkpt lat="46.30888" lon="-0.33263">
        <ele>67.8744</ele>
        <time>2011-06-25T16:05:33Z</time>
      </trkpt>
      <trkpt lat="46.30888" lon="-0.3326">
        <ele>67.8752</ele>
        <time>2011-06-25T16:05:34Z</time>
      </trkpt>
      <trkpt lat="46.30888" lon="-0.33255">
        <ele>67.8786</ele>
        <time>2011-06-25T16:05:35Z</time>
      </trkpt>
      <trkpt lat="46.30889" lon="-0.33253">
        <ele>67.8817</ele>
        <time>2011-06-25T16:05:36Z</time>
      </trkpt>
      <trkpt lat="46.30888" lon="-0.3325">
        <ele>67.8861</ele>
        <time>2011-06-25T16:05:37Z</time>
      </trkpt>
      <trkpt lat="46.30888" lon="-0.33248">
        <ele>67.8912</ele>
        <time>2011-06-25T16:05:38Z</time>
      </trkpt>
      <trkpt lat="46.30888" lon="-0.33246">
        <ele>67.8954</ele>
        <time>2011-06-25T16:05:39Z</time>
      </trkpt>
      <trkpt lat="46.30887" lon="-0.33244">
        <ele>67.8964</ele>
        <time>2011-06-25T16:05:40Z</time>
      </trkpt>
      <trkpt lat="46.30887" lon="-0.33242">
        <ele>67.897</ele>
        <time>2011-06-25T16:05:41Z</time>
      </trkpt>
      <trkpt lat="46.30887" lon="-0.3324">
        <ele>67.8979</ele>
        <time>2011-06-25T16:05:42Z</time>
      </trkpt>
      <trkpt lat="46.30886" lon="-0.33238">
        <ele>67.8958</ele>
        <time>2011-06-25T16:05:43Z</time>
      </trkpt>
      <trkpt lat="46.30886" lon="-0.33236">
        <ele>67.8925</ele>
        <time>2011-06-25T16:05:44Z</time>
      </trkpt>
      <trkpt lat="46.30885" lon="-0.33234">
        <ele>67.8843</ele>
        <time>2011-06-25T16:05:45Z</time>
      </trkpt>
      <trkpt lat="46.30885" lon="-0.33232">
        <ele>67.8738</ele>
        <time>2011-06-25T16:05:46Z</time>
      </trkpt>
      <trkpt lat="46.30885" lon="-0.33229">
        <ele>67.86</ele>
        <time>2011-06-25T16:05:47Z</time>
      </trkpt>
      <trkpt lat="46.30885" lon="-0.33226">
        <ele>67.8494</ele>
        <time>2011-06-25T16:05:48Z</time>
      </trkpt>
      <trkpt lat="46.30886" lon="-0.33224">
        <ele>67.8412</ele>
        <time>2011-06-25T16:05:49Z</time>
      </trkpt>
      <trkpt lat="46.30886" lon="-0.33221">
        <ele>67.8339</ele>
        <time>2011-06-25T16:05:50Z</time>
      </trkpt>
      <trkpt lat="46.30886" lon="-0.33219">
        <ele>67.8268</ele>
        <time>2011-06-25T16:05:51Z</time>
      </trkpt>
      <trkpt lat="46.30887" lon="-0.33217">
        <ele>67.8202</ele>
        <time>2011-06-25T16:05:52Z</time>
      </trkpt>
      <trkpt lat="46.30887" lon="-0.33215">
        <ele>67.8193</ele>
        <time>2011-06-25T16:05:53Z</time>
      </trkpt>
      <trkpt lat="46.30888" lon="-0.33213">
        <ele>67.8244</ele>
        <time>2011-06-25T16:05:54Z</time>
      </trkpt>
      <trkpt lat="46.30888" lon="-0.3321">
        <ele>67.8309</ele>
        <time>2011-06-25T16:05:55Z</time>
      </trkpt>
      <trkpt lat="46.30889" lon="-0.33208">
        <ele>67.8366</ele>
        <time>2011-06-25T16:05:56Z</time>
      </trkpt>
      <trkpt lat="46.3089" lon="-0.33206">
        <ele>67.8414</ele>
        <time>2011-06-25T16:05:57Z</time>
      </trkpt>
      <trkpt lat="46.3089" lon="-0.33205">
        <ele>67.845</ele>
        <time>2011-06-25T16:05:58Z</time>
      </trkpt>
      <trkpt lat="46.30891" lon="-0.33203">
        <ele>67.8478</ele>
        <time>2011-06-25T16:05:59Z</time>
      </trkpt>
      <trkpt lat="46.30892" lon="-0.33201">
        <ele>67.8493</ele>
        <time>2011-06-25T16:06:00Z</time>
      </trkpt>
      <trkpt lat="46.30892" lon="-0.33198">
        <ele>67.8508</ele>
        <time>2011-06-25T16:06:01Z</time>
      </trkpt>
      <trkpt lat="46.30893" lon="-0.33196">
        <ele>67.8512</ele>
        <time>2011-06-25T16:06:02Z</time>
      </trkpt>
      <trkpt lat="46.30894" lon="-0.33194">
        <ele>67.8495</ele>
        <time>2011-06-25T16:06:03Z</time>
      </trkpt>
      <trkpt lat="46.30895" lon="-0.33192">
        <ele>67.8467</ele>
        <time>2011-06-25T16:06:04Z</time>
      </trkpt>
      <trkpt lat="46.30896" lon="-0.3319">
        <ele>67.842</ele>
        <time>2011-06-25T16:06:05Z</time>
      </trkpt>
      <trkpt lat="46.30898" lon="-0.33188">
        <ele>67.8334</ele>
        <time>2011-06-25T16:06:06Z</time>
      </trkpt>
      <trkpt lat="46.30899" lon="-0.33185">
        <ele>67.8222</ele>
        <time>2011-06-25T16:06:07Z</time>
      </trkpt>
      <trkpt lat="46.30899" lon="-0.33183">
        <ele>67.8083</ele>
        <time>2011-06-25T16:06:08Z</time>
      </trkpt>
      <trkpt lat="46.30901" lon="-0.33181">
        <ele>67.7903</ele>
        <time>2011-06-25T16:06:09Z</time>
      </trkpt>
      <trkpt lat="46.30902" lon="-0.3318">
        <ele>67.7698</ele>
        <time>2011-06-25T16:06:10Z</time>
      </trkpt>
      <trkpt lat="46.30903" lon="-0.33178">
        <ele>67.7467</ele>
        <time>2011-06-25T16:06:11Z</time>
      </trkpt>
      <trkpt lat="46.30903" lon="-0.33176">
        <ele>67.7228</ele>
        <time>2011-06-25T16:06:12Z</time>
      </trkpt>
      <trkpt lat="46.30904" lon="-0.33174">
        <ele>67.6993</ele>
        <time>2011-06-25T16:06:13Z</time>
      </trkpt>
      <trkpt lat="46.30904" lon="-0.33173">
        <ele>67.6754</ele>
        <time>2011-06-25T16:06:14Z</time>
      </trkpt>
      <trkpt lat="46.30905" lon="-0.33171">
        <ele>67.6516</ele>
        <time>2011-06-25T16:06:15Z</time>
      </trkpt>
      <trkpt lat="46.30906" lon="-0.3317">
        <ele>67.6278</ele>
        <time>2011-06-25T16:06:16Z</time>
      </trkpt>
      <trkpt lat="46.30907" lon="-0.33168">
        <ele>67.6057</ele>
        <time>2011-06-25T16:06:17Z</time>
      </trkpt>
      <trkpt lat="46.30907" lon="-0.33166">
        <ele>67.5846</ele>
        <time>2011-06-25T16:06:18Z</time>
      </trkpt>
      <trkpt lat="46.30908" lon="-0.33164">
        <ele>67.5661</ele>
        <time>2011-06-25T16:06:19Z</time>
      </trkpt>
      <trkpt lat="46.30909" lon="-0.33162">
        <ele>67.5485</ele>
        <time>2011-06-25T16:06:20Z</time>
      </trkpt>
      <trkpt lat="46.30909" lon="-0.33161">
        <ele>67.5316</ele>
        <time>2011-06-25T16:06:21Z</time>
      </trkpt>
      <trkpt lat="46.3091" lon="-0.33159">
        <ele>67.5144</ele>
        <time>2011-06-25T16:06:22Z</time>
      </trkpt>
      <trkpt lat="46.30911" lon="-0.33157">
        <ele>67.4975</ele>
        <time>2011-06-25T16:06:23Z</time>
      </trkpt>
      <trkpt lat="46.30911" lon="-0.33155">
        <ele>67.4815</ele>
        <time>2011-06-25T16:06:24Z</time>
      </trkpt>
      <trkpt lat="46.30912" lon="-0.33154">
        <ele>67.4667</ele>
        <time>2011-06-25T16:06:25Z</time>
      </trkpt>
      <trkpt lat="46.30912" lon="-0.33152">
        <ele>67.4535</ele>
        <time>2011-06-25T16:06:26Z</time>
      </trkpt>
      <trkpt lat="46.30913" lon="-0.3315">
        <ele>67.4422</ele>
        <time>2011-06-25T16:06:27Z</time>
      </trkpt>
      <trkpt lat="46.30914" lon="-0.33148">
        <ele>67.433</ele>
        <time>2011-06-25T16:06:28Z</time>
      </trkpt>
      <trkpt lat="46.30914" lon="-0.33147">
        <ele>67.4241</ele>
        <time>2011-06-25T16:06:29Z</time>
      </trkpt>
      <trkpt lat="46.30915" lon="-0.33145">
        <ele>67.4142</ele>
        <time>2011-06-25T16:06:30Z</time>
      </trkpt>
      <trkpt lat="46.30915" lon="-0.33144">
        <ele>67.405</ele>
        <time>2011-06-25T16:06:31Z</time>
      </trkpt>
      <trkpt lat="46.30916" lon="-0.33142">
        <ele>67.3958</ele>
        <time>2011-06-25T16:06:32Z</time>
      </trkpt>
      <trkpt lat="46.30916" lon="-0.33141">
        <ele>67.3876</ele>
        <time>2011-06-25T16:06:33Z</time>
      </trkpt>
      <trkpt lat="46.30917" lon="-0.33139">
        <ele>67.3807</ele>
        <time>2011-06-25T16:06:34Z</time>
      </trkpt>
      <trkpt lat="46.30917" lon="-0.33138">
        <ele>67.3732</ele>
        <time>2011-06-25T16:06:35Z</time>
      </trkpt>
      <trkpt lat="46.30918" lon="-0.33136">
        <ele>67.3668</ele>
        <time>2011-06-25T16:06:36Z</time>
      </trkpt>
      <trkpt lat="46.30919" lon="-0.33134">
        <ele>67.3598</ele>
        <time>2011-06-25T16:06:37Z</time>
      </trkpt>
      <trkpt lat="46.30919" lon="-0.33133">
        <ele>67.3524</ele>
        <time>2011-06-25T16:06:38Z</time>
      </trkpt>
      <trkpt lat="46.3092" lon="-0.33131">
        <ele>67.3458</ele>
        <time>2011-06-25T16:06:39Z</time>
      </trkpt>
      <trkpt lat="46.30921" lon="-0.33129">
        <ele>67.3403</ele>
        <time>2011-06-25T16:06:40Z</time>
      </trkpt>
      <trkpt lat="46.30921" lon="-0.33127">
        <ele>67.335</ele>
        <time>2011-06-25T16:06:41Z</time>
      </trkpt>
      <trkpt lat="46.30922" lon="-0.33125">
        <ele>67.329</ele>
        <time>2011-06-25T16:06:42Z</time>
      </trkpt>
      <trkpt lat="46.30922" lon="-0.33123">
        <ele>67.3232</ele>
        <time>2011-06-25T16:06:43Z</time>
      </trkpt>
      <trkpt lat="46.30923" lon="-0.33122">
        <ele>67.3172</ele>
        <time>2011-06-25T16:06:44Z</time>
      </trkpt>
      <trkpt lat="46.30924" lon="-0.3312">
        <ele>67.3108</ele>
        <time>2011-06-25T16:06:45Z</time>
      </trkpt>
      <trkpt lat="46.30924" lon="-0.33119">
        <ele>67.3043</ele>
        <time>2011-06-25T16:06:46Z</time>
      </trkpt>
      <trkpt lat="46.30925" lon="-0.33117">
        <ele>67.2971</ele>
        <time>2011-06-25T16:06:47Z</time>
      </trkpt>
      <trkpt lat="46.30925" lon="-0.33115">
        <ele>67.2913</ele>
        <time>2011-06-25T16:06:48Z</time>
      </trkpt>
      <trkpt lat="46.30926" lon="-0.33113">
        <ele>67.285</ele>
        <time>2011-06-25T16:06:49Z</time>
      </trkpt>
      <trkpt lat="46.30927" lon="-0.33112">
        <ele>67.2807</ele>
        <time>2011-06-25T16:06:50Z</time>
      </trkpt>
      <trkpt lat="46.30927" lon="-0.3311">
        <ele>67.2776</ele>
        <time>2011-06-25T16:06:51Z</time>
      </trkpt>
      <trkpt lat="46.30928" lon="-0.33108">
        <ele>67.2728</ele>
        <time>2011-06-25T16:06:52Z</time>
      </trkpt>
      <trkpt lat="46.30928" lon="-0.33106">
        <ele>67.2686</ele>
        <time>2011-06-25T16:06:53Z</time>
      </trkpt>
      <trkpt lat="46.30929" lon="-0.33104">
        <ele>67.2659</ele>
        <time>2011-06-25T16:06:54Z</time>
      </trkpt>
      <trkpt lat="46.30929" lon="-0.33102">
        <ele>67.2644</ele>
        <time>2011-06-25T16:06:55Z</time>
      </trkpt>
      <trkpt lat="46.3093" lon="-0.331">
        <ele>67.2647</ele>
        <time>2011-06-25T16:06:56Z</time>
      </trkpt>
      <trkpt lat="46.3093" lon="-0.33098">
        <ele>67.2673</ele>
        <time>2011-06-25T16:06:57Z</time>
      </trkpt>
      <trkpt lat="46.30931" lon="-0.33096">
        <ele>67.2724</ele>
        <time>2011-06-25T16:06:58Z</time>
      </trkpt>
      <trkpt lat="46.30931" lon="-0.33095">
        <ele>67.2791</ele>
        <time>2011-06-25T16:06:59Z</time>
      </trkpt>
      <trkpt lat="46.30932" lon="-0.33093">
        <ele>67.2876</ele>
        <time>2011-06-25T16:07:00Z</time>
      </trkpt>
      <trkpt lat="46.30932" lon="-0.33092">
        <ele>67.2954</ele>
        <time>2011-06-25T16:07:01Z</time>
      </trkpt>
      <trkpt lat="46.30933" lon="-0.3309">
        <ele>67.3028</ele>
        <time>2011-06-25T16:07:02Z</time>
      </trkpt>
      <trkpt lat="46.30933" lon="-0.33089">
        <ele>67.3087</ele>
        <time>2011-06-25T16:07:03Z</time>
      </trkpt>
      <trkpt lat="46.30933" lon="-0.33087">
        <ele>67.3138</ele>
        <time>2011-06-25T16:07:04Z</time>
      </trkpt>
      <trkpt lat="46.30933" lon="-0.33085">
        <ele>67.3162</ele>
        <time>2011-06-25T16:07:05Z</time>
      </trkpt>
      <trkpt lat="46.30934" lon="-0.33082">
        <ele>67.3149</ele>
        <time>2011-06-25T16:07:06Z</time>
      </trkpt>
      <trkpt lat="46.30935" lon="-0.3308">
        <ele>67.3132</ele>
        <time>2011-06-25T16:07:07Z</time>
      </trkpt>
      <trkpt lat="46.30935" lon="-0.33078">
        <ele>67.3121</ele>
        <time>2011-06-25T16:07:08Z</time>
      </trkpt>
      <trkpt lat="46.30936" lon="-0.33076">
        <ele>67.3108</ele>
        <time>2011-06-25T16:07:09Z</time>
      </trkpt>
      <trkpt lat="46.30936" lon="-0.33074">
        <ele>67.3102</ele>
        <time>2011-06-25T16:07:10Z</time>
      </trkpt>
      <trkpt lat="46.30937" lon="-0.33072">
        <ele>67.3112</ele>
        <time>2011-06-25T16:07:11Z</time>
      </trkpt>
      <trkpt lat="46.30938" lon="-0.3307">
        <ele>67.3128</ele>
        <time>2011-06-25T16:07:12Z</time>
      </trkpt>
      <trkpt lat="46.30938" lon="-0.33068">
        <ele>67.3155</ele>
        <time>2011-06-25T16:07:13Z</time>
      </trkpt>
      <trkpt lat="46.30939" lon="-0.33066">
        <ele>67.3197</ele>
        <time>2011-06-25T16:07:14Z</time>
      </trkpt>
      <trkpt lat="46.30939" lon="-0.33064">
        <ele>67.3259</ele>
        <time>2011-06-25T16:07:15Z</time>
      </trkpt>
      <trkpt lat="46.3094" lon="-0.33063">
        <ele>67.3341</ele>
        <time>2011-06-25T16:07:16Z</time>
      </trkpt>
      <trkpt lat="46.3094" lon="-0.33061">
        <ele>67.3453</ele>
        <time>2011-06-25T16:07:17Z</time>
      </trkpt>
      <trkpt lat="46.30941" lon="-0.33059">
        <ele>67.3561</ele>
        <time>2011-06-25T16:07:18Z</time>
      </trkpt>
      <trkpt lat="46.30941" lon="-0.33058">
        <ele>67.3673</ele>
        <time>2011-06-25T16:07:19Z</time>
      </trkpt>
      <trkpt lat="46.30942" lon="-0.33057">
        <ele>67.3792</ele>
        <time>2011-06-25T16:07:20Z</time>
      </trkpt>
      <trkpt lat="46.30942" lon="-0.33055">
        <ele>67.3842</ele>
        <time>2011-06-25T16:07:21Z</time>
      </trkpt>
      <trkpt lat="46.30943" lon="-0.33053">
        <ele>67.3897</ele>
        <time>2011-06-25T16:07:22Z</time>
      </trkpt>
      <trkpt lat="46.30944" lon="-0.33051">
        <ele>67.3962</ele>
        <time>2011-06-25T16:07:23Z</time>
      </trkpt>
      <trkpt lat="46.30944" lon="-0.33048">
        <ele>67.4011</ele>
        <time>2011-06-25T16:07:24Z</time>
      </trkpt>
      <trkpt lat="46.30945" lon="-0.33046">
        <ele>67.4056</ele>
        <time>2011-06-25T16:07:25Z</time>
      </trkpt>
      <trkpt lat="46.30946" lon="-0.33044">
        <ele>67.4099</ele>
        <time>2011-06-25T16:07:26Z</time>
      </trkpt>
      <trkpt lat="46.30946" lon="-0.33042">
        <ele>67.4157</ele>
        <time>2011-06-25T16:07:27Z</time>
      </trkpt>
      <trkpt lat="46.30947" lon="-0.3304">
        <ele>67.4213</ele>
        <time>2011-06-25T16:07:28Z</time>
      </trkpt>
      <trkpt lat="46.30947" lon="-0.33038">
        <ele>67.4278</ele>
        <time>2011-06-25T16:07:29Z</time>
      </trkpt>
      <trkpt lat="46.30948" lon="-0.33037">
        <ele>67.4373</ele>
        <time>2011-06-25T16:07:30Z</time>
      </trkpt>
      <trkpt lat="46.30948" lon="-0.33035">
        <ele>67.4479</ele>
        <time>2011-06-25T16:07:31Z</time>
      </trkpt>
      <trkpt lat="46.30948" lon="-0.33033">
        <ele>67.4596</ele>
        <time>2011-06-25T16:07:32Z</time>
      </trkpt>
      <trkpt lat="46.30949" lon="-0.33031">
        <ele>67.47</ele>
        <time>2011-06-25T16:07:33Z</time>
      </trkpt>
      <trkpt lat="46.30949" lon="-0.33029">
        <ele>67.4793</ele>
        <time>2011-06-25T16:07:34Z</time>
      </trkpt>
      <trkpt lat="46.3095" lon="-0.33027">
        <ele>67.4843</ele>
        <time>2011-06-25T16:07:35Z</time>
      </trkpt>
      <trkpt lat="46.3095" lon="-0.33026">
        <ele>67.4863</ele>
        <time>2011-06-25T16:07:36Z</time>
      </trkpt>
      <trkpt lat="46.3095" lon="-0.33024">
        <ele>67.4887</ele>
        <time>2011-06-25T16:07:37Z</time>
      </trkpt>
      <trkpt lat="46.3095" lon="-0.33022">
        <ele>67.4911</ele>
        <time>2011-06-25T16:07:38Z</time>
      </trkpt>
      <trkpt lat="46.3095" lon="-0.33021">
        <ele>67.493</ele>
        <time>2011-06-25T16:07:39Z</time>
      </trkpt>
      <trkpt lat="46.3095" lon="-0.33019">
        <ele>67.4938</ele>
        <time>2011-06-25T16:07:40Z</time>
      </trkpt>
      <trkpt lat="46.3095" lon="-0.33017">
        <ele>67.4963</ele>
        <time>2011-06-25T16:07:41Z</time>
      </trkpt>
      <trkpt lat="46.3095" lon="-0.33016">
        <ele>67.4998</ele>
        <time>2011-06-25T16:07:42Z</time>
      </trkpt>
      <trkpt lat="46.3095" lon="-0.33014">
        <ele>67.506</ele>
        <time>2011-06-25T16:07:43Z</time>
      </trkpt>
      <trkpt lat="46.3095" lon="-0.33013">
        <ele>67.5075</ele>
        <time>2011-06-25T16:07:44Z</time>
      </trkpt>
      <trkpt lat="46.3095" lon="-0.33011">
        <ele>67.5074</ele>
        <time>2011-06-25T16:07:45Z</time>
      </trkpt>
      <trkpt lat="46.3095" lon="-0.3301">
        <ele>67.5092</ele>
        <time>2011-06-25T16:07:46Z</time>
      </trkpt>
      <trkpt lat="46.3095" lon="-0.33009">
        <ele>67.5115</ele>
        <time>2011-06-25T16:07:47Z</time>
      </trkpt>
      <trkpt lat="46.30949" lon="-0.33008">
        <ele>67.5132</ele>
        <time>2011-06-25T16:07:48Z</time>
      </trkpt>
      <trkpt lat="46.30949" lon="-0.33006">
        <ele>67.5157</ele>
        <time>2011-06-25T16:07:49Z</time>
      </trkpt>
      <trkpt lat="46.30949" lon="-0.33005">
        <ele>67.5176</ele>
        <time>2011-06-25T16:07:50Z</time>
      </trkpt>
      <trkpt lat="46.30948" lon="-0.33003">
        <ele>67.5194</ele>
        <time>2011-06-25T16:07:51Z</time>
      </trkpt>
      <trkpt lat="46.30948" lon="-0.33002">
        <ele>67.5193</ele>
        <time>2011-06-25T16:07:52Z</time>
      </trkpt>
      <trkpt lat="46.30947" lon="-0.33001">
        <ele>67.5192</ele>
        <time>2011-06-25T16:07:53Z</time>
      </trkpt>
      <trkpt lat="46.30946" lon="-0.33">
        <ele>67.518</ele>
        <time>2011-06-25T16:07:54Z</time>
      </trkpt>
      <trkpt lat="46.30946" lon="-0.32998">
        <ele>67.5171</ele>
        <time>2011-06-25T16:07:55Z</time>
      </trkpt>
      <trkpt lat="46.30945" lon="-0.32997">
        <ele>67.5146</ele>
        <time>2011-06-25T16:07:56Z</time>
      </trkpt>
      <trkpt lat="46.30945" lon="-0.32996">
        <ele>67.5117</ele>
        <time>2011-06-25T16:07:57Z</time>
      </trkpt>
      <trkpt lat="46.30945" lon="-0.32994">
        <ele>67.5087</ele>
        <time>2011-06-25T16:07:58Z</time>
      </trkpt>
      <trkpt lat="46.30944" lon="-0.32993">
        <ele>67.5039</ele>
        <time>2011-06-25T16:07:59Z</time>
      </trkpt>
      <trkpt lat="46.30944" lon="-0.32992">
        <ele>67.4982</ele>
        <time>2011-06-25T16:08:00Z</time>
      </trkpt>
      <trkpt lat="46.30944" lon="-0.3299">
        <ele>67.4894</ele>
        <time>2011-06-25T16:08:01Z</time>
      </trkpt>
      <trkpt lat="46.30944" lon="-0.32989">
        <ele>67.4792</ele>
        <time>2011-06-25T16:08:02Z</time>
      </trkpt>
      <trkpt lat="46.30944" lon="-0.32987">
        <ele>67.4665</ele>
        <time>2011-06-25T16:08:03Z</time>
      </trkpt>
      <trkpt lat="46.30944" lon="-0.32986">
        <ele>67.4568</ele>
        <time>2011-06-25T16:08:04Z</time>
      </trkpt>
      <trkpt lat="46.30944" lon="-0.32984">
        <ele>67.4492</ele>
        <time>2011-06-25T16:08:05Z</time>
      </trkpt>
      <trkpt lat="46.30944" lon="-0.32983">
        <ele>67.4408</ele>
        <time>2011-06-25T16:08:06Z</time>
      </trkpt>
      <trkpt lat="46.30944" lon="-0.32981">
        <ele>67.434</ele>
        <time>2011-06-25T16:08:07Z</time>
      </trkpt>
      <trkpt lat="46.30944" lon="-0.32979">
        <ele>67.4265</ele>
        <time>2011-06-25T16:08:08Z</time>
      </trkpt>
      <trkpt lat="46.30944" lon="-0.32976">
        <ele>67.4221</ele>
        <time>2011-06-25T16:08:09Z</time>
      </trkpt>
      <trkpt lat="46.30944" lon="-0.32974">
        <ele>67.4208</ele>
        <time>2011-06-25T16:08:10Z</time>
      </trkpt>
      <trkpt lat="46.30944" lon="-0.32972">
        <ele>67.4293</ele>
        <time>2011-06-25T16:08:11Z</time>
      </trkpt>
      <trkpt lat="46.30943" lon="-0.3297">
        <ele>67.4363</ele>
        <time>2011-06-25T16:08:12Z</time>
      </trkpt>
      <trkpt lat="46.30943" lon="-0.32968">
        <ele>67.4441</ele>
        <time>2011-06-25T16:08:13Z</time>
      </trkpt>
      <trkpt lat="46.30943" lon="-0.32965">
        <ele>67.4484</ele>
        <time>2011-06-25T16:08:14Z</time>
      </trkpt>
      <trkpt lat="46.30943" lon="-0.32963">
        <ele>67.451</ele>
        <time>2011-06-25T16:08:15Z</time>
      </trkpt>
      <trkpt lat="46.30943" lon="-0.32961">
        <ele>67.4548</ele>
        <time>2011-06-25T16:08:16Z</time>
      </trkpt>
      <trkpt lat="46.30943" lon="-0.32959">
        <ele>67.4585</ele>
        <time>2011-06-25T16:08:17Z</time>
      </trkpt>
      <trkpt lat="46.30943" lon="-0.32957">
        <ele>67.46</ele>
        <time>2011-06-25T16:08:18Z</time>
      </trkpt>
      <trkpt lat="46.30943" lon="-0.32955">
        <ele>67.4606</ele>
        <time>2011-06-25T16:08:19Z</time>
      </trkpt>
      <trkpt lat="46.30943" lon="-0.32954">
        <ele>67.4592</ele>
        <time>2011-06-25T16:08:20Z</time>
      </trkpt>
      <trkpt lat="46.30942" lon="-0.32952">
        <ele>67.4552</ele>
        <time>2011-06-25T16:08:21Z</time>
      </trkpt>
      <trkpt lat="46.30942" lon="-0.32951">
        <ele>67.4532</ele>
        <time>2011-06-25T16:08:22Z</time>
      </trkpt>
      <trkpt lat="46.30942" lon="-0.32949">
        <ele>67.4526</ele>
        <time>2011-06-25T16:08:23Z</time>
      </trkpt>
      <trkpt lat="46.30942" lon="-0.32948">
        <ele>67.4521</ele>
        <time>2011-06-25T16:08:24Z</time>
      </trkpt>
      <trkpt lat="46.30941" lon="-0.32947">
        <ele>67.4483</ele>
        <time>2011-06-25T16:08:25Z</time>
      </trkpt>
      <trkpt lat="46.30941" lon="-0.32945">
        <ele>67.44</ele>
        <time>2011-06-25T16:08:26Z</time>
      </trkpt>
      <trkpt lat="46.30941" lon="-0.32944">
        <ele>67.426</ele>
        <time>2011-06-25T16:08:27Z</time>
      </trkpt>
      <trkpt lat="46.30941" lon="-0.32942">
        <ele>67.4053</ele>
        <time>2011-06-25T16:08:28Z</time>
      </trkpt>
      <trkpt lat="46.30941" lon="-0.32941">
        <ele>67.3821</ele>
        <time>2011-06-25T16:08:29Z</time>
      </trkpt>
      <trkpt lat="46.30941" lon="-0.32939">
        <ele>67.3608</ele>
        <time>2011-06-25T16:08:30Z</time>
      </trkpt>
      <trkpt lat="46.30941" lon="-0.32937">
        <ele>67.3383</ele>
        <time>2011-06-25T16:08:31Z</time>
      </trkpt>
      <trkpt lat="46.30941" lon="-0.32935">
        <ele>67.3091</ele>
        <time>2011-06-25T16:08:32Z</time>
      </trkpt>
      <trkpt lat="46.30941" lon="-0.32934">
        <ele>67.2821</ele>
        <time>2011-06-25T16:08:33Z</time>
      </trkpt>
      <trkpt lat="46.30941" lon="-0.32932">
        <ele>67.2582</ele>
        <time>2011-06-25T16:08:34Z</time>
      </trkpt>
      <trkpt lat="46.3094" lon="-0.3293">
        <ele>67.2318</ele>
        <time>2011-06-25T16:08:35Z</time>
      </trkpt>
      <trkpt lat="46.30941" lon="-0.32929">
        <ele>67.209</ele>
        <time>2011-06-25T16:08:36Z</time>
      </trkpt>
      <trkpt lat="46.3094" lon="-0.32927">
        <ele>67.188</ele>
        <time>2011-06-25T16:08:37Z</time>
      </trkpt>
      <trkpt lat="46.3094" lon="-0.32925">
        <ele>67.1678</ele>
        <time>2011-06-25T16:08:38Z</time>
      </trkpt>
      <trkpt lat="46.3094" lon="-0.32923">
        <ele>67.1504</ele>
        <time>2011-06-25T16:08:39Z</time>
      </trkpt>
      <trkpt lat="46.3094" lon="-0.3292">
        <ele>67.1329</ele>
        <time>2011-06-25T16:08:40Z</time>
      </trkpt>
      <trkpt lat="46.3094" lon="-0.32918">
        <ele>67.1115</ele>
        <time>2011-06-25T16:08:41Z</time>
      </trkpt>
      <trkpt lat="46.3094" lon="-0.32916">
        <ele>67.0886</ele>
        <time>2011-06-25T16:08:42Z</time>
      </trkpt>
      <trkpt lat="46.3094" lon="-0.32914">
        <ele>67.0667</ele>
        <time>2011-06-25T16:08:43Z</time>
      </trkpt>
      <trkpt lat="46.3094" lon="-0.32912">
        <ele>67.045</ele>
        <time>2011-06-25T16:08:44Z</time>
      </trkpt>
      <trkpt lat="46.30939" lon="-0.3291">
        <ele>67.0247</ele>
        <time>2011-06-25T16:08:45Z</time>
      </trkpt>
      <trkpt lat="46.30939" lon="-0.32908">
        <ele>67.0041</ele>
        <time>2011-06-25T16:08:46Z</time>
      </trkpt>
      <trkpt lat="46.30939" lon="-0.32906">
        <ele>66.9828</ele>
        <time>2011-06-25T16:08:47Z</time>
      </trkpt>
      <trkpt lat="46.30939" lon="-0.32904">
        <ele>66.9611</ele>
        <time>2011-06-25T16:08:48Z</time>
      </trkpt>
      <trkpt lat="46.30939" lon="-0.32902">
        <ele>66.9399</ele>
        <time>2011-06-25T16:08:49Z</time>
      </trkpt>
      <trkpt lat="46.30938" lon="-0.329">
        <ele>66.9201</ele>
        <time>2011-06-25T16:08:50Z</time>
      </trkpt>
      <trkpt lat="46.30938" lon="-0.32898">
        <ele>66.9015</ele>
        <time>2011-06-25T16:08:51Z</time>
      </trkpt>
      <trkpt lat="46.30938" lon="-0.32896">
        <ele>66.8828</ele>
        <time>2011-06-25T16:08:52Z</time>
      </trkpt>
      <trkpt lat="46.30938" lon="-0.32894">
        <ele>66.8633</ele>
        <time>2011-06-25T16:08:53Z</time>
      </trkpt>
      <trkpt lat="46.30938" lon="-0.32892">
        <ele>66.8457</ele>
        <time>2011-06-25T16:08:54Z</time>
      </trkpt>
      <trkpt lat="46.30938" lon="-0.32889">
        <ele>66.8308</ele>
        <time>2011-06-25T16:08:55Z</time>
      </trkpt>
      <trkpt lat="46.30938" lon="-0.32887">
        <ele>66.8161</ele>
        <time>2011-06-25T16:08:56Z</time>
      </trkpt>
      <trkpt lat="46.30938" lon="-0.32885">
        <ele>66.8024</ele>
        <time>2011-06-25T16:08:57Z</time>
      </trkpt>
      <trkpt lat="46.30938" lon="-0.32883">
        <ele>66.7929</ele>
        <time>2011-06-25T16:08:58Z</time>
      </trkpt>
      <trkpt lat="46.30939" lon="-0.32881">
        <ele>66.7833</ele>
        <time>2011-06-25T16:08:59Z</time>
      </trkpt>
      <trkpt lat="46.30939" lon="-0.32879">
        <ele>66.7734</ele>
        <time>2011-06-25T16:09:00Z</time>
      </trkpt>
      <trkpt lat="46.30939" lon="-0.32877">
        <ele>66.7632</ele>
        <time>2011-06-25T16:09:01Z</time>
      </trkpt>
      <trkpt lat="46.3094" lon="-0.32874">
        <ele>66.7529</ele>
        <time>2011-06-25T16:09:02Z</time>
      </trkpt>
      <trkpt lat="46.3094" lon="-0.32872">
        <ele>66.7453</ele>
        <time>2011-06-25T16:09:03Z</time>
      </trkpt>
      <trkpt lat="46.30941" lon="-0.32869">
        <ele>66.7344</ele>
        <time>2011-06-25T16:09:04Z</time>
      </trkpt>
      <trkpt lat="46.30941" lon="-0.32865">
        <ele>66.7282</ele>
        <time>2011-06-25T16:09:05Z</time>
      </trkpt>
      <trkpt lat="46.30942" lon="-0.32863">
        <ele>66.7258</ele>
        <time>2011-06-25T16:09:06Z</time>
      </trkpt>
      <trkpt lat="46.30943" lon="-0.3286">
        <ele>66.7256</ele>
        <time>2011-06-25T16:09:07Z</time>
      </trkpt>
      <trkpt lat="46.30943" lon="-0.32858">
        <ele>66.7265</ele>
        <time>2011-06-25T16:09:08Z</time>
      </trkpt>
      <trkpt lat="46.30944" lon="-0.32856">
        <ele>66.7306</ele>
        <time>2011-06-25T16:09:09Z</time>
      </trkpt>
      <trkpt lat="46.3095" lon="-0.32855">
        <ele>66.5674</ele>
        <time>2011-06-25T16:09:39Z</time>
      </trkpt>
      <trkpt lat="46.3095" lon="-0.32853">
        <ele>66.5189</ele>
        <time>2011-06-25T16:09:40Z</time>
      </trkpt>
      <trkpt lat="46.3095" lon="-0.32852">
        <ele>66.4719</ele>
        <time>2011-06-25T16:09:41Z</time>
      </trkpt>
      <trkpt lat="46.3095" lon="-0.32851">
        <ele>66.4245</ele>
        <time>2011-06-25T16:09:42Z</time>
      </trkpt>
      <trkpt lat="46.30951" lon="-0.3285">
        <ele>66.3788</ele>
        <time>2011-06-25T16:09:43Z</time>
      </trkpt>
      <trkpt lat="46.30951" lon="-0.32849">
        <ele>66.3447</ele>
        <time>2011-06-25T16:09:44Z</time>
      </trkpt>
      <trkpt lat="46.30951" lon="-0.32847">
        <ele>66.3209</ele>
        <time>2011-06-25T16:09:45Z</time>
      </trkpt>
      <trkpt lat="46.30952" lon="-0.32846">
        <ele>66.2997</ele>
        <time>2011-06-25T16:09:46Z</time>
      </trkpt>
      <trkpt lat="46.30952" lon="-0.32844">
        <ele>66.256</ele>
        <time>2011-06-25T16:09:47Z</time>
      </trkpt>
      <trkpt lat="46.30952" lon="-0.32843">
        <ele>66.191</ele>
        <time>2011-06-25T16:09:48Z</time>
      </trkpt>
      <trkpt lat="46.30953" lon="-0.32842">
        <ele>66.1293</ele>
        <time>2011-06-25T16:09:49Z</time>
      </trkpt>
      <trkpt lat="46.30953" lon="-0.3284">
        <ele>66.0689</ele>
        <time>2011-06-25T16:09:50Z</time>
      </trkpt>
      <trkpt lat="46.30953" lon="-0.32839">
        <ele>66.0062</ele>
        <time>2011-06-25T16:09:51Z</time>
      </trkpt>
      <trkpt lat="46.30953" lon="-0.32838">
        <ele>65.9168</ele>
        <time>2011-06-25T16:09:52Z</time>
      </trkpt>
      <trkpt lat="46.30954" lon="-0.32836">
        <ele>65.8214</ele>
        <time>2011-06-25T16:09:53Z</time>
      </trkpt>
      <trkpt lat="46.30954" lon="-0.32834">
        <ele>65.7234</ele>
        <time>2011-06-25T16:09:54Z</time>
      </trkpt>
      <trkpt lat="46.30954" lon="-0.32833">
        <ele>65.6109</ele>
        <time>2011-06-25T16:09:55Z</time>
      </trkpt>
      <trkpt lat="46.30955" lon="-0.32831">
        <ele>65.4883</ele>
        <time>2011-06-25T16:09:56Z</time>
      </trkpt>
      <trkpt lat="46.30955" lon="-0.32829">
        <ele>65.3678</ele>
        <time>2011-06-25T16:09:57Z</time>
      </trkpt>
      <trkpt lat="46.30955" lon="-0.32827">
        <ele>65.2499</ele>
        <time>2011-06-25T16:09:58Z</time>
      </trkpt>
      <trkpt lat="46.30956" lon="-0.32826">
        <ele>65.1338</ele>
        <time>2011-06-25T16:09:59Z</time>
      </trkpt>
      <trkpt lat="46.30956" lon="-0.32825">
        <ele>65.028</ele>
        <time>2011-06-25T16:10:00Z</time>
      </trkpt>
      <trkpt lat="46.30957" lon="-0.32823">
        <ele>64.9233</ele>
        <time>2011-06-25T16:10:01Z</time>
      </trkpt>
      <trkpt lat="46.30957" lon="-0.32822">
        <ele>64.8233</ele>
        <time>2011-06-25T16:10:02Z</time>
      </trkpt>
      <trkpt lat="46.30957" lon="-0.3282">
        <ele>64.7283</ele>
        <time>2011-06-25T16:10:03Z</time>
      </trkpt>
      <trkpt lat="46.30958" lon="-0.32819">
        <ele>64.6369</ele>
        <time>2011-06-25T16:10:04Z</time>
      </trkpt>
      <trkpt lat="46.30959" lon="-0.32818">
        <ele>64.5495</ele>
        <time>2011-06-25T16:10:05Z</time>
      </trkpt>
      <trkpt lat="46.30959" lon="-0.32816">
        <ele>64.4681</ele>
        <time>2011-06-25T16:10:06Z</time>
      </trkpt>
      <trkpt lat="46.30959" lon="-0.32814">
        <ele>64.3908</ele>
        <time>2011-06-25T16:10:07Z</time>
      </trkpt>
      <trkpt lat="46.30959" lon="-0.32813">
        <ele>64.3135</ele>
        <time>2011-06-25T16:10:08Z</time>
      </trkpt>
      <trkpt lat="46.3096" lon="-0.32811">
        <ele>64.237</ele>
        <time>2011-06-25T16:10:09Z</time>
      </trkpt>
      <trkpt lat="46.3096" lon="-0.32809">
        <ele>64.1632</ele>
        <time>2011-06-25T16:10:10Z</time>
      </trkpt>
      <trkpt lat="46.3096" lon="-0.32807">
        <ele>64.0966</ele>
        <time>2011-06-25T16:10:11Z</time>
      </trkpt>
      <trkpt lat="46.30961" lon="-0.32804">
        <ele>64.0367</ele>
        <time>2011-06-25T16:10:12Z</time>
      </trkpt>
      <trkpt lat="46.30961" lon="-0.32802">
        <ele>63.9858</ele>
        <time>2011-06-25T16:10:13Z</time>
      </trkpt>
      <trkpt lat="46.30962" lon="-0.328">
        <ele>63.9345</ele>
        <time>2011-06-25T16:10:14Z</time>
      </trkpt>
      <trkpt lat="46.30962" lon="-0.32798">
        <ele>63.8837</ele>
        <time>2011-06-25T16:10:15Z</time>
      </trkpt>
      <trkpt lat="46.30962" lon="-0.32797">
        <ele>63.8356</ele>
        <time>2011-06-25T16:10:16Z</time>
      </trkpt>
      <trkpt lat="46.30963" lon="-0.32795">
        <ele>63.7882</ele>
        <time>2011-06-25T16:10:17Z</time>
      </trkpt>
      <trkpt lat="46.30963" lon="-0.32793">
        <ele>63.7438</ele>
        <time>2011-06-25T16:10:18Z</time>
      </trkpt>
      <trkpt lat="46.30963" lon="-0.32791">
        <ele>63.7007</ele>
        <time>2011-06-25T16:10:19Z</time>
      </trkpt>
      <trkpt lat="46.30964" lon="-0.3279">
        <ele>63.6559</ele>
        <time>2011-06-25T16:10:20Z</time>
      </trkpt>
      <trkpt lat="46.30964" lon="-0.32787">
        <ele>63.6192</ele>
        <time>2011-06-25T16:10:21Z</time>
      </trkpt>
      <trkpt lat="46.30964" lon="-0.32785">
        <ele>63.5949</ele>
        <time>2011-06-25T16:10:22Z</time>
      </trkpt>
      <trkpt lat="46.30964" lon="-0.32783">
        <ele>63.5744</ele>
        <time>2011-06-25T16:10:23Z</time>
      </trkpt>
      <trkpt lat="46.30965" lon="-0.32781">
        <ele>63.5567</ele>
        <time>2011-06-25T16:10:24Z</time>
      </trkpt>
      <trkpt lat="46.30965" lon="-0.32778">
        <ele>63.5419</ele>
        <time>2011-06-25T16:10:25Z</time>
      </trkpt>
      <trkpt lat="46.30965" lon="-0.32776">
        <ele>63.524</ele>
        <time>2011-06-25T16:10:26Z</time>
      </trkpt>
      <trkpt lat="46.30965" lon="-0.32774">
        <ele>63.5082</ele>
        <time>2011-06-25T16:10:27Z</time>
      </trkpt>
      <trkpt lat="46.30966" lon="-0.32772">
        <ele>63.4936</ele>
        <time>2011-06-25T16:10:28Z</time>
      </trkpt>
      <trkpt lat="46.30966" lon="-0.32771">
        <ele>63.4801</ele>
        <time>2011-06-25T16:10:29Z</time>
      </trkpt>
      <trkpt lat="46.30966" lon="-0.32769">
        <ele>63.4672</ele>
        <time>2011-06-25T16:10:30Z</time>
      </trkpt>
      <trkpt lat="46.30967" lon="-0.32766">
        <ele>63.4586</ele>
        <time>2011-06-25T16:10:31Z</time>
      </trkpt>
      <trkpt lat="46.30967" lon="-0.32764">
        <ele>63.452</ele>
        <time>2011-06-25T16:10:32Z</time>
      </trkpt>
      <trkpt lat="46.30967" lon="-0.32762">
        <ele>63.4476</ele>
        <time>2011-06-25T16:10:33Z</time>
      </trkpt>
      <trkpt lat="46.30968" lon="-0.32759">
        <ele>63.445</ele>
        <time>2011-06-25T16:10:34Z</time>
      </trkpt>
      <trkpt lat="46.30968" lon="-0.32757">
        <ele>63.4428</ele>
        <time>2011-06-25T16:10:35Z</time>
      </trkpt>
      <trkpt lat="46.30969" lon="-0.32755">
        <ele>63.4398</ele>
        <time>2011-06-25T16:10:36Z</time>
      </trkpt>
      <trkpt lat="46.30969" lon="-0.32753">
        <ele>63.4375</ele>
        <time>2011-06-25T16:10:37Z</time>
      </trkpt>
      <trkpt lat="46.30969" lon="-0.32751">
        <ele>63.4333</ele>
        <time>2011-06-25T16:10:38Z</time>
      </trkpt>
      <trkpt lat="46.3097" lon="-0.32749">
        <ele>63.4288</ele>
        <time>2011-06-25T16:10:39Z</time>
      </trkpt>
      <trkpt lat="46.3097" lon="-0.32747">
        <ele>63.4282</ele>
        <time>2011-06-25T16:10:40Z</time>
      </trkpt>
      <trkpt lat="46.30971" lon="-0.32745">
        <ele>63.4263</ele>
        <time>2011-06-25T16:10:41Z</time>
      </trkpt>
      <trkpt lat="46.30972" lon="-0.32744">
        <ele>63.4254</ele>
        <time>2011-06-25T16:10:42Z</time>
      </trkpt>
      <trkpt lat="46.30973" lon="-0.32742">
        <ele>63.4249</ele>
        <time>2011-06-25T16:10:43Z</time>
      </trkpt>
      <trkpt lat="46.30973" lon="-0.32741">
        <ele>63.4251</ele>
        <time>2011-06-25T16:10:44Z</time>
      </trkpt>
      <trkpt lat="46.30975" lon="-0.3274">
        <ele>63.4241</ele>
        <time>2011-06-25T16:10:45Z</time>
      </trkpt>
      <trkpt lat="46.30975" lon="-0.32739">
        <ele>63.4178</ele>
        <time>2011-06-25T16:10:46Z</time>
      </trkpt>
      <trkpt lat="46.30977" lon="-0.32737">
        <ele>63.4046</ele>
        <time>2011-06-25T16:10:47Z</time>
      </trkpt>
      <trkpt lat="46.30977" lon="-0.32736">
        <ele>63.3829</ele>
        <time>2011-06-25T16:10:48Z</time>
      </trkpt>
      <trkpt lat="46.30978" lon="-0.32734">
        <ele>63.3556</ele>
        <time>2011-06-25T16:10:49Z</time>
      </trkpt>
      <trkpt lat="46.30978" lon="-0.32733">
        <ele>63.3218</ele>
        <time>2011-06-25T16:10:50Z</time>
      </trkpt>
      <trkpt lat="46.30979" lon="-0.32731">
        <ele>63.2827</ele>
        <time>2011-06-25T16:10:51Z</time>
      </trkpt>
      <trkpt lat="46.3098" lon="-0.32729">
        <ele>63.2396</ele>
        <time>2011-06-25T16:10:52Z</time>
      </trkpt>
      <trkpt lat="46.3098" lon="-0.32728">
        <ele>63.1928</ele>
        <time>2011-06-25T16:10:53Z</time>
      </trkpt>
      <trkpt lat="46.3098" lon="-0.32726">
        <ele>63.1445</ele>
        <time>2011-06-25T16:10:54Z</time>
      </trkpt>
      <trkpt lat="46.30981" lon="-0.32725">
        <ele>63.0947</ele>
        <time>2011-06-25T16:10:55Z</time>
      </trkpt>
      <trkpt lat="46.30981" lon="-0.32723">
        <ele>63.0458</ele>
        <time>2011-06-25T16:10:56Z</time>
      </trkpt>
      <trkpt lat="46.30981" lon="-0.32722">
        <ele>62.995</ele>
        <time>2011-06-25T16:10:57Z</time>
      </trkpt>
      <trkpt lat="46.30982" lon="-0.3272">
        <ele>62.9441</ele>
        <time>2011-06-25T16:10:58Z</time>
      </trkpt>
      <trkpt lat="46.30982" lon="-0.32718">
        <ele>62.8954</ele>
        <time>2011-06-25T16:10:59Z</time>
      </trkpt>
      <trkpt lat="46.30983" lon="-0.32716">
        <ele>62.8514</ele>
        <time>2011-06-25T16:11:00Z</time>
      </trkpt>
      <trkpt lat="46.30983" lon="-0.32715">
        <ele>62.8122</ele>
        <time>2011-06-25T16:11:01Z</time>
      </trkpt>
      <trkpt lat="46.30983" lon="-0.32713">
        <ele>62.7731</ele>
        <time>2011-06-25T16:11:02Z</time>
      </trkpt>
      <trkpt lat="46.30984" lon="-0.32711">
        <ele>62.7348</ele>
        <time>2011-06-25T16:11:03Z</time>
      </trkpt>
      <trkpt lat="46.30984" lon="-0.32709">
        <ele>62.6954</ele>
        <time>2011-06-25T16:11:04Z</time>
      </trkpt>
      <trkpt lat="46.30985" lon="-0.32708">
        <ele>62.6566</ele>
        <time>2011-06-25T16:11:05Z</time>
      </trkpt>
      <trkpt lat="46.30985" lon="-0.32706">
        <ele>62.6171</ele>
        <time>2011-06-25T16:11:06Z</time>
      </trkpt>
      <trkpt lat="46.30985" lon="-0.32705">
        <ele>62.5765</ele>
        <time>2011-06-25T16:11:07Z</time>
      </trkpt>
      <trkpt lat="46.30986" lon="-0.32703">
        <ele>62.5362</ele>
        <time>2011-06-25T16:11:08Z</time>
      </trkpt>
      <trkpt lat="46.30986" lon="-0.32702">
        <ele>62.4906</ele>
        <time>2011-06-25T16:11:09Z</time>
      </trkpt>
      <trkpt lat="46.30986" lon="-0.327">
        <ele>62.4405</ele>
        <time>2011-06-25T16:11:10Z</time>
      </trkpt>
      <trkpt lat="46.30986" lon="-0.32698">
        <ele>62.391</ele>
        <time>2011-06-25T16:11:11Z</time>
      </trkpt>
      <trkpt lat="46.30986" lon="-0.32696">
        <ele>62.3382</ele>
        <time>2011-06-25T16:11:12Z</time>
      </trkpt>
      <trkpt lat="46.30986" lon="-0.32694">
        <ele>62.2841</ele>
        <time>2011-06-25T16:11:13Z</time>
      </trkpt>
      <trkpt lat="46.30987" lon="-0.32693">
        <ele>62.2318</ele>
        <time>2011-06-25T16:11:14Z</time>
      </trkpt>
      <trkpt lat="46.30987" lon="-0.32691">
        <ele>62.1805</ele>
        <time>2011-06-25T16:11:15Z</time>
      </trkpt>
      <trkpt lat="46.30987" lon="-0.32689">
        <ele>62.1243</ele>
        <time>2011-06-25T16:11:16Z</time>
      </trkpt>
      <trkpt lat="46.30987" lon="-0.32687">
        <ele>62.0638</ele>
        <time>2011-06-25T16:11:17Z</time>
      </trkpt>
      <trkpt lat="46.30988" lon="-0.32685">
        <ele>61.9987</ele>
        <time>2011-06-25T16:11:18Z</time>
      </trkpt>
      <trkpt lat="46.30988" lon="-0.32683">
        <ele>61.9313</ele>
        <time>2011-06-25T16:11:19Z</time>
      </trkpt>
      <trkpt lat="46.30988" lon="-0.32682">
        <ele>61.862</ele>
        <time>2011-06-25T16:11:20Z</time>
      </trkpt>
      <trkpt lat="46.30988" lon="-0.3268">
        <ele>61.7926</ele>
        <time>2011-06-25T16:11:21Z</time>
      </trkpt>
      <trkpt lat="46.30988" lon="-0.32678">
        <ele>61.7238</ele>
        <time>2011-06-25T16:11:22Z</time>
      </trkpt>
      <trkpt lat="46.30989" lon="-0.32676">
        <ele>61.6569</ele>
        <time>2011-06-25T16:11:23Z</time>
      </trkpt>
      <trkpt lat="46.30989" lon="-0.32674">
        <ele>61.5907</ele>
        <time>2011-06-25T16:11:24Z</time>
      </trkpt>
      <trkpt lat="46.30989" lon="-0.32671">
        <ele>61.5273</ele>
        <time>2011-06-25T16:11:25Z</time>
      </trkpt>
      <trkpt lat="46.30989" lon="-0.32669">
        <ele>61.4651</ele>
        <time>2011-06-25T16:11:26Z</time>
      </trkpt>
      <trkpt lat="46.30989" lon="-0.32667">
        <ele>61.4047</ele>
        <time>2011-06-25T16:11:27Z</time>
      </trkpt>
      <trkpt lat="46.30989" lon="-0.32666">
        <ele>61.3446</ele>
        <time>2011-06-25T16:11:28Z</time>
      </trkpt>
      <trkpt lat="46.3099" lon="-0.32664">
        <ele>61.2838</ele>
        <time>2011-06-25T16:11:29Z</time>
      </trkpt>
      <trkpt lat="46.3099" lon="-0.32662">
        <ele>61.2248</ele>
        <time>2011-06-25T16:11:30Z</time>
      </trkpt>
      <trkpt lat="46.3099" lon="-0.3266">
        <ele>61.1671</ele>
        <time>2011-06-25T16:11:31Z</time>
      </trkpt>
      <trkpt lat="46.3099" lon="-0.32659">
        <ele>61.1099</ele>
        <time>2011-06-25T16:11:32Z</time>
      </trkpt>
      <trkpt lat="46.3099" lon="-0.32657">
        <ele>61.0528</ele>
        <time>2011-06-25T16:11:33Z</time>
      </trkpt>
      <trkpt lat="46.3099" lon="-0.32655">
        <ele>60.9957</ele>
        <time>2011-06-25T16:11:34Z</time>
      </trkpt>
      <trkpt lat="46.3099" lon="-0.32653">
        <ele>60.9391</ele>
        <time>2011-06-25T16:11:35Z</time>
      </trkpt>
      <trkpt lat="46.3099" lon="-0.32652">
        <ele>60.8834</ele>
        <time>2011-06-25T16:11:36Z</time>
      </trkpt>
      <trkpt lat="46.30991" lon="-0.3265">
        <ele>60.8296</ele>
        <time>2011-06-25T16:11:37Z</time>
      </trkpt>
      <trkpt lat="46.30991" lon="-0.32649">
        <ele>60.7781</ele>
        <time>2011-06-25T16:11:38Z</time>
      </trkpt>
      <trkpt lat="46.30991" lon="-0.32647">
        <ele>60.7291</ele>
        <time>2011-06-25T16:11:39Z</time>
      </trkpt>
      <trkpt lat="46.30991" lon="-0.32645">
        <ele>60.6826</ele>
        <time>2011-06-25T16:11:40Z</time>
      </trkpt>
      <trkpt lat="46.30991" lon="-0.32644">
        <ele>60.6379</ele>
        <time>2011-06-25T16:11:41Z</time>
      </trkpt>
      <trkpt lat="46.30991" lon="-0.32642">
        <ele>60.5942</ele>
        <time>2011-06-25T16:11:42Z</time>
      </trkpt>
      <trkpt lat="46.30991" lon="-0.32641">
        <ele>60.552</ele>
        <time>2011-06-25T16:11:43Z</time>
      </trkpt>
      <trkpt lat="46.30991" lon="-0.32639">
        <ele>60.5112</ele>
        <time>2011-06-25T16:11:44Z</time>
      </trkpt>
      <trkpt lat="46.30991" lon="-0.32638">
        <ele>60.4713</ele>
        <time>2011-06-25T16:11:45Z</time>
      </trkpt>
      <trkpt lat="46.30991" lon="-0.32636">
        <ele>60.4323</ele>
        <time>2011-06-25T16:11:46Z</time>
      </trkpt>
      <trkpt lat="46.30991" lon="-0.32635">
        <ele>60.3946</ele>
        <time>2011-06-25T16:11:47Z</time>
      </trkpt>
      <trkpt lat="46.30991" lon="-0.32633">
        <ele>60.3577</ele>
        <time>2011-06-25T16:11:48Z</time>
      </trkpt>
      <trkpt lat="46.30991" lon="-0.32632">
        <ele>60.3234</ele>
        <time>2011-06-25T16:11:49Z</time>
      </trkpt>
      <trkpt lat="46.30992" lon="-0.32631">
        <ele>60.2901</ele>
        <time>2011-06-25T16:11:50Z</time>
      </trkpt>
      <trkpt lat="46.30992" lon="-0.32629">
        <ele>60.2593</ele>
        <time>2011-06-25T16:11:51Z</time>
      </trkpt>
      <trkpt lat="46.30992" lon="-0.32628">
        <ele>60.2291</ele>
        <time>2011-06-25T16:11:52Z</time>
      </trkpt>
      <trkpt lat="46.30992" lon="-0.32626">
        <ele>60.1996</ele>
        <time>2011-06-25T16:11:53Z</time>
      </trkpt>
      <trkpt lat="46.30992" lon="-0.32625">
        <ele>60.1707</ele>
        <time>2011-06-25T16:11:54Z</time>
      </trkpt>
      <trkpt lat="46.30992" lon="-0.32623">
        <ele>60.1421</ele>
        <time>2011-06-25T16:11:55Z</time>
      </trkpt>
      <trkpt lat="46.30992" lon="-0.32621">
        <ele>60.1113</ele>
        <time>2011-06-25T16:11:56Z</time>
      </trkpt>
      <trkpt lat="46.30992" lon="-0.32619">
        <ele>60.0783</ele>
        <time>2011-06-25T16:11:57Z</time>
      </trkpt>
      <trkpt lat="46.30992" lon="-0.32617">
        <ele>60.0431</ele>
        <time>2011-06-25T16:11:58Z</time>
      </trkpt>
      <trkpt lat="46.30991" lon="-0.32615">
        <ele>60.0054</ele>
        <time>2011-06-25T16:11:59Z</time>
      </trkpt>
      <trkpt lat="46.30991" lon="-0.32613">
        <ele>59.9656</ele>
        <time>2011-06-25T16:12:00Z</time>
      </trkpt>
      <trkpt lat="46.30991" lon="-0.32611">
        <ele>59.9266</ele>
        <time>2011-06-25T16:12:01Z</time>
      </trkpt>
      <trkpt lat="46.30991" lon="-0.32609">
        <ele>59.8881</ele>
        <time>2011-06-25T16:12:02Z</time>
      </trkpt>
      <trkpt lat="46.30991" lon="-0.32607">
        <ele>59.8501</ele>
        <time>2011-06-25T16:12:03Z</time>
      </trkpt>
      <trkpt lat="46.30991" lon="-0.32606">
        <ele>59.8121</ele>
        <time>2011-06-25T16:12:04Z</time>
      </trkpt>
      <trkpt lat="46.30991" lon="-0.32604">
        <ele>59.7745</ele>
        <time>2011-06-25T16:12:05Z</time>
      </trkpt>
      <trkpt lat="46.30991" lon="-0.32603">
        <ele>59.7363</ele>
        <time>2011-06-25T16:12:06Z</time>
      </trkpt>
      <trkpt lat="46.30991" lon="-0.326">
        <ele>59.6948</ele>
        <time>2011-06-25T16:12:07Z</time>
      </trkpt>
      <trkpt lat="46.30991" lon="-0.32599">
        <ele>59.6512</ele>
        <time>2011-06-25T16:12:08Z</time>
      </trkpt>
      <trkpt lat="46.30992" lon="-0.32597">
        <ele>59.6068</ele>
        <time>2011-06-25T16:12:09Z</time>
      </trkpt>
      <trkpt lat="46.30992" lon="-0.32595">
        <ele>59.5637</ele>
        <time>2011-06-25T16:12:10Z</time>
      </trkpt>
      <trkpt lat="46.30992" lon="-0.32594">
        <ele>59.5216</ele>
        <time>2011-06-25T16:12:11Z</time>
      </trkpt>
      <trkpt lat="46.30992" lon="-0.32592">
        <ele>59.4798</ele>
        <time>2011-06-25T16:12:12Z</time>
      </trkpt>
      <trkpt lat="46.30992" lon="-0.32591">
        <ele>59.4383</ele>
        <time>2011-06-25T16:12:13Z</time>
      </trkpt>
      <trkpt lat="46.30992" lon="-0.32589">
        <ele>59.3972</ele>
        <time>2011-06-25T16:12:14Z</time>
      </trkpt>
      <trkpt lat="46.30993" lon="-0.32587">
        <ele>59.3541</ele>
        <time>2011-06-25T16:12:15Z</time>
      </trkpt>
      <trkpt lat="46.30993" lon="-0.32586">
        <ele>59.3101</ele>
        <time>2011-06-25T16:12:16Z</time>
      </trkpt>
      <trkpt lat="46.30993" lon="-0.32584">
        <ele>59.264</ele>
        <time>2011-06-25T16:12:17Z</time>
      </trkpt>
      <trkpt lat="46.30993" lon="-0.32582">
        <ele>59.2189</ele>
        <time>2011-06-25T16:12:18Z</time>
      </trkpt>
      <trkpt lat="46.30993" lon="-0.3258">
        <ele>59.1745</ele>
        <time>2011-06-25T16:12:19Z</time>
      </trkpt>
      <trkpt lat="46.30993" lon="-0.32579">
        <ele>59.129</ele>
        <time>2011-06-25T16:12:20Z</time>
      </trkpt>
      <trkpt lat="46.30993" lon="-0.32577">
        <ele>59.0854</ele>
        <time>2011-06-25T16:12:21Z</time>
      </trkpt>
      <trkpt lat="46.30993" lon="-0.32575">
        <ele>59.0425</ele>
        <time>2011-06-25T16:12:22Z</time>
      </trkpt>
      <trkpt lat="46.30992" lon="-0.32573">
        <ele>59.0005</ele>
        <time>2011-06-25T16:12:23Z</time>
      </trkpt>
      <trkpt lat="46.30992" lon="-0.32572">
        <ele>58.9593</ele>
        <time>2011-06-25T16:12:24Z</time>
      </trkpt>
      <trkpt lat="46.30992" lon="-0.3257">
        <ele>58.9196</ele>
        <time>2011-06-25T16:12:25Z</time>
      </trkpt>
      <trkpt lat="46.30992" lon="-0.32569">
        <ele>58.8803</ele>
        <time>2011-06-25T16:12:26Z</time>
      </trkpt>
      <trkpt lat="46.30992" lon="-0.32567">
        <ele>58.8416</ele>
        <time>2011-06-25T16:12:27Z</time>
      </trkpt>
      <trkpt lat="46.30992" lon="-0.32566">
        <ele>58.8047</ele>
        <time>2011-06-25T16:12:28Z</time>
      </trkpt>
      <trkpt lat="46.30992" lon="-0.32564">
        <ele>58.7684</ele>
        <time>2011-06-25T16:12:29Z</time>
      </trkpt>
      <trkpt lat="46.30992" lon="-0.32562">
        <ele>58.7337</ele>
        <time>2011-06-25T16:12:30Z</time>
      </trkpt>
      <trkpt lat="46.30992" lon="-0.3256">
        <ele>58.6985</ele>
        <time>2011-06-25T16:12:31Z</time>
      </trkpt>
      <trkpt lat="46.30991" lon="-0.32559">
        <ele>58.663</ele>
        <time>2011-06-25T16:12:32Z</time>
      </trkpt>
      <trkpt lat="46.30991" lon="-0.32557">
        <ele>58.6296</ele>
        <time>2011-06-25T16:12:33Z</time>
      </trkpt>
      <trkpt lat="46.30991" lon="-0.32555">
        <ele>58.5954</ele>
        <time>2011-06-25T16:12:34Z</time>
      </trkpt>
      <trkpt lat="46.30991" lon="-0.32554">
        <ele>58.5628</ele>
        <time>2011-06-25T16:12:35Z</time>
      </trkpt>
      <trkpt lat="46.3099" lon="-0.32552">
        <ele>58.5328</ele>
        <time>2011-06-25T16:12:36Z</time>
      </trkpt>
      <trkpt lat="46.3099" lon="-0.32551">
        <ele>58.504</ele>
        <time>2011-06-25T16:12:37Z</time>
      </trkpt>
      <trkpt lat="46.3099" lon="-0.32549">
        <ele>58.4757</ele>
        <time>2011-06-25T16:12:38Z</time>
      </trkpt>
      <trkpt lat="46.3099" lon="-0.32547">
        <ele>58.4398</ele>
        <time>2011-06-25T16:12:39Z</time>
      </trkpt>
      <trkpt lat="46.3099" lon="-0.32546">
        <ele>58.4005</ele>
        <time>2011-06-25T16:12:40Z</time>
      </trkpt>
      <trkpt lat="46.3099" lon="-0.32544">
        <ele>58.3555</ele>
        <time>2011-06-25T16:12:41Z</time>
      </trkpt>
      <trkpt lat="46.3099" lon="-0.32543">
        <ele>58.3119</ele>
        <time>2011-06-25T16:12:42Z</time>
      </trkpt>
      <trkpt lat="46.30989" lon="-0.32541">
        <ele>58.2689</ele>
        <time>2011-06-25T16:12:43Z</time>
      </trkpt>
      <trkpt lat="46.30989" lon="-0.32539">
        <ele>58.2225</ele>
        <time>2011-06-25T16:12:44Z</time>
      </trkpt>
      <trkpt lat="46.30989" lon="-0.32537">
        <ele>58.1769</ele>
        <time>2011-06-25T16:12:45Z</time>
      </trkpt>
      <trkpt lat="46.30989" lon="-0.32535">
        <ele>58.1306</ele>
        <time>2011-06-25T16:12:46Z</time>
      </trkpt>
      <trkpt lat="46.30988" lon="-0.32534">
        <ele>58.0861</ele>
        <time>2011-06-25T16:12:47Z</time>
      </trkpt>
      <trkpt lat="46.30988" lon="-0.32532">
        <ele>58.0431</ele>
        <time>2011-06-25T16:12:48Z</time>
      </trkpt>
      <trkpt lat="46.30988" lon="-0.32531">
        <ele>58.0004</ele>
        <time>2011-06-25T16:12:49Z</time>
      </trkpt>
      <trkpt lat="46.30988" lon="-0.32529">
        <ele>57.9597</ele>
        <time>2011-06-25T16:12:50Z</time>
      </trkpt>
      <trkpt lat="46.30988" lon="-0.32528">
        <ele>57.9228</ele>
        <time>2011-06-25T16:12:51Z</time>
      </trkpt>
      <trkpt lat="46.30988" lon="-0.32526">
        <ele>57.8902</ele>
        <time>2011-06-25T16:12:52Z</time>
      </trkpt>
      <trkpt lat="46.30988" lon="-0.32525">
        <ele>57.8628</ele>
        <time>2011-06-25T16:12:53Z</time>
      </trkpt>
      <trkpt lat="46.30988" lon="-0.32523">
        <ele>57.8381</ele>
        <time>2011-06-25T16:12:54Z</time>
      </trkpt>
      <trkpt lat="46.30988" lon="-0.32522">
        <ele>57.8197</ele>
        <time>2011-06-25T16:12:55Z</time>
      </trkpt>
      <trkpt lat="46.30988" lon="-0.3252">
        <ele>57.8026</ele>
        <time>2011-06-25T16:12:56Z</time>
      </trkpt>
      <trkpt lat="46.30988" lon="-0.32519">
        <ele>57.797</ele>
        <time>2011-06-25T16:12:57Z</time>
      </trkpt>
      <trkpt lat="46.30989" lon="-0.32517">
        <ele>57.7986</ele>
        <time>2011-06-25T16:12:58Z</time>
      </trkpt>
      <trkpt lat="46.30989" lon="-0.32515">
        <ele>57.7975</ele>
        <time>2011-06-25T16:12:59Z</time>
      </trkpt>
      <trkpt lat="46.30989" lon="-0.32513">
        <ele>57.7976</ele>
        <time>2011-06-25T16:13:00Z</time>
      </trkpt>
      <trkpt lat="46.30989" lon="-0.32511">
        <ele>57.8141</ele>
        <time>2011-06-25T16:13:01Z</time>
      </trkpt>
      <trkpt lat="46.30989" lon="-0.32509">
        <ele>57.8284</ele>
        <time>2011-06-25T16:13:02Z</time>
      </trkpt>
      <trkpt lat="46.30988" lon="-0.32508">
        <ele>57.8408</ele>
        <time>2011-06-25T16:13:03Z</time>
      </trkpt>
      <trkpt lat="46.30988" lon="-0.32506">
        <ele>57.8543</ele>
        <time>2011-06-25T16:13:04Z</time>
      </trkpt>
      <trkpt lat="46.30988" lon="-0.32504">
        <ele>57.865</ele>
        <time>2011-06-25T16:13:05Z</time>
      </trkpt>
      <trkpt lat="46.30988" lon="-0.32502">
        <ele>57.8754</ele>
        <time>2011-06-25T16:13:06Z</time>
      </trkpt>
      <trkpt lat="46.30988" lon="-0.32501">
        <ele>57.8814</ele>
        <time>2011-06-25T16:13:07Z</time>
      </trkpt>
      <trkpt lat="46.30988" lon="-0.32499">
        <ele>57.8859</ele>
        <time>2011-06-25T16:13:08Z</time>
      </trkpt>
      <trkpt lat="46.30988" lon="-0.32496">
        <ele>57.9003</ele>
        <time>2011-06-25T16:13:09Z</time>
      </trkpt>
      <trkpt lat="46.30988" lon="-0.32493">
        <ele>57.9243</ele>
        <time>2011-06-25T16:13:10Z</time>
      </trkpt>
      <trkpt lat="46.30988" lon="-0.3249">
        <ele>57.9557</ele>
        <time>2011-06-25T16:13:11Z</time>
      </trkpt>
      <trkpt lat="46.30988" lon="-0.32486">
        <ele>57.9874</ele>
        <time>2011-06-25T16:13:12Z</time>
      </trkpt>
      <trkpt lat="46.30989" lon="-0.32483">
        <ele>58.0141</ele>
        <time>2011-06-25T16:13:13Z</time>
      </trkpt>
      <trkpt lat="46.30989" lon="-0.3248">
        <ele>58.0342</ele>
        <time>2011-06-25T16:13:14Z</time>
      </trkpt>
      <trkpt lat="46.30989" lon="-0.32477">
        <ele>58.0468</ele>
        <time>2011-06-25T16:13:15Z</time>
      </trkpt>
      <trkpt lat="46.3099" lon="-0.32474">
        <ele>58.0551</ele>
        <time>2011-06-25T16:13:16Z</time>
      </trkpt>
      <trkpt lat="46.3099" lon="-0.32472">
        <ele>58.0615</ele>
        <time>2011-06-25T16:13:17Z</time>
      </trkpt>
      <trkpt lat="46.3099" lon="-0.3247">
        <ele>58.0654</ele>
        <time>2011-06-25T16:13:18Z</time>
      </trkpt>
      <trkpt lat="46.30989" lon="-0.32467">
        <ele>58.0684</ele>
        <time>2011-06-25T16:13:19Z</time>
      </trkpt>
      <trkpt lat="46.30989" lon="-0.32465">
        <ele>58.0706</ele>
        <time>2011-06-25T16:13:20Z</time>
      </trkpt>
      <trkpt lat="46.30989" lon="-0.32463">
        <ele>58.0718</ele>
        <time>2011-06-25T16:13:21Z</time>
      </trkpt>
      <trkpt lat="46.3099" lon="-0.32461">
        <ele>58.071</ele>
        <time>2011-06-25T16:13:22Z</time>
      </trkpt>
      <trkpt lat="46.30989" lon="-0.3246">
        <ele>58.0704</ele>
        <time>2011-06-25T16:13:23Z</time>
      </trkpt>
      <trkpt lat="46.30989" lon="-0.32458">
        <ele>58.0708</ele>
        <time>2011-06-25T16:13:24Z</time>
      </trkpt>
      <trkpt lat="46.30989" lon="-0.32456">
        <ele>58.0743</ele>
        <time>2011-06-25T16:13:25Z</time>
      </trkpt>
      <trkpt lat="46.30988" lon="-0.32454">
        <ele>58.0785</ele>
        <time>2011-06-25T16:13:26Z</time>
      </trkpt>
      <trkpt lat="46.30988" lon="-0.32452">
        <ele>58.0813</ele>
        <time>2011-06-25T16:13:27Z</time>
      </trkpt>
      <trkpt lat="46.30988" lon="-0.3245">
        <ele>58.084</ele>
        <time>2011-06-25T16:13:28Z</time>
      </trkpt>
      <trkpt lat="46.30988" lon="-0.32449">
        <ele>58.086</ele>
        <time>2011-06-25T16:13:29Z</time>
      </trkpt>
      <trkpt lat="46.30988" lon="-0.32447">
        <ele>58.0883</ele>
        <time>2011-06-25T16:13:30Z</time>
      </trkpt>
      <trkpt lat="46.30988" lon="-0.32445">
        <ele>58.0908</ele>
        <time>2011-06-25T16:13:31Z</time>
      </trkpt>
      <trkpt lat="46.30988" lon="-0.32444">
        <ele>58.0938</ele>
        <time>2011-06-25T16:13:32Z</time>
      </trkpt>
      <trkpt lat="46.30987" lon="-0.32442">
        <ele>58.0976</ele>
        <time>2011-06-25T16:13:33Z</time>
      </trkpt>
      <trkpt lat="46.30987" lon="-0.3244">
        <ele>58.0996</ele>
        <time>2011-06-25T16:13:34Z</time>
      </trkpt>
      <trkpt lat="46.30986" lon="-0.32439">
        <ele>58.1018</ele>
        <time>2011-06-25T16:13:35Z</time>
      </trkpt>
      <trkpt lat="46.30986" lon="-0.32437">
        <ele>58.1026</ele>
        <time>2011-06-25T16:13:36Z</time>
      </trkpt>
      <trkpt lat="46.30986" lon="-0.32435">
        <ele>58.1035</ele>
        <time>2011-06-25T16:13:37Z</time>
      </trkpt>
      <trkpt lat="46.30986" lon="-0.32433">
        <ele>58.1054</ele>
        <time>2011-06-25T16:13:38Z</time>
      </trkpt>
      <trkpt lat="46.30987" lon="-0.32431">
        <ele>58.1094</ele>
        <time>2011-06-25T16:13:39Z</time>
      </trkpt>
      <trkpt lat="46.30987" lon="-0.32429">
        <ele>58.1133</ele>
        <time>2011-06-25T16:13:40Z</time>
      </trkpt>
      <trkpt lat="46.30987" lon="-0.32427">
        <ele>58.1197</ele>
        <time>2011-06-25T16:13:41Z</time>
      </trkpt>
      <trkpt lat="46.30987" lon="-0.32425">
        <ele>58.1271</ele>
        <time>2011-06-25T16:13:42Z</time>
      </trkpt>
      <trkpt lat="46.30987" lon="-0.32424">
        <ele>58.1342</ele>
        <time>2011-06-25T16:13:43Z</time>
      </trkpt>
      <trkpt lat="46.30987" lon="-0.32422">
        <ele>58.1409</ele>
        <time>2011-06-25T16:13:44Z</time>
      </trkpt>
      <trkpt lat="46.30987" lon="-0.32421">
        <ele>58.1452</ele>
        <time>2011-06-25T16:13:45Z</time>
      </trkpt>
      <trkpt lat="46.30987" lon="-0.32419">
        <ele>58.1472</ele>
        <time>2011-06-25T16:13:46Z</time>
      </trkpt>
      <trkpt lat="46.30987" lon="-0.32418">
        <ele>58.1468</ele>
        <time>2011-06-25T16:13:47Z</time>
      </trkpt>
      <trkpt lat="46.30987" lon="-0.32417">
        <ele>58.1455</ele>
        <time>2011-06-25T16:13:48Z</time>
      </trkpt>
      <trkpt lat="46.30988" lon="-0.32416">
        <ele>58.1437</ele>
        <time>2011-06-25T16:13:49Z</time>
      </trkpt>
      <trkpt lat="46.30988" lon="-0.32415">
        <ele>58.1417</ele>
        <time>2011-06-25T16:13:50Z</time>
      </trkpt>
      <trkpt lat="46.30988" lon="-0.32414">
        <ele>58.1398</ele>
        <time>2011-06-25T16:13:51Z</time>
      </trkpt>
      <trkpt lat="46.30988" lon="-0.32412">
        <ele>58.1357</ele>
        <time>2011-06-25T16:13:52Z</time>
      </trkpt>
      <trkpt lat="46.30988" lon="-0.32411">
        <ele>58.1306</ele>
        <time>2011-06-25T16:13:53Z</time>
      </trkpt>
      <trkpt lat="46.30988" lon="-0.32409">
        <ele>58.1231</ele>
        <time>2011-06-25T16:13:54Z</time>
      </trkpt>
      <trkpt lat="46.30988" lon="-0.32407">
        <ele>58.1151</ele>
        <time>2011-06-25T16:13:55Z</time>
      </trkpt>
      <trkpt lat="46.30989" lon="-0.32405">
        <ele>58.1052</ele>
        <time>2011-06-25T16:13:56Z</time>
      </trkpt>
      <trkpt lat="46.3099" lon="-0.32403">
        <ele>58.0921</ele>
        <time>2011-06-25T16:13:57Z</time>
      </trkpt>
      <trkpt lat="46.3099" lon="-0.32401">
        <ele>58.0817</ele>
        <time>2011-06-25T16:13:58Z</time>
      </trkpt>
      <trkpt lat="46.30991" lon="-0.324">
        <ele>58.0731</ele>
        <time>2011-06-25T16:13:59Z</time>
      </trkpt>
      <trkpt lat="46.30992" lon="-0.32398">
        <ele>58.0698</ele>
        <time>2011-06-25T16:14:00Z</time>
      </trkpt>
      <trkpt lat="46.30992" lon="-0.32396">
        <ele>58.0671</ele>
        <time>2011-06-25T16:14:01Z</time>
      </trkpt>
      <trkpt lat="46.30993" lon="-0.32394">
        <ele>58.0635</ele>
        <time>2011-06-25T16:14:02Z</time>
      </trkpt>
      <trkpt lat="46.30993" lon="-0.32392">
        <ele>58.0618</ele>
        <time>2011-06-25T16:14:03Z</time>
      </trkpt>
      <trkpt lat="46.30993" lon="-0.3239">
        <ele>58.0605</ele>
        <time>2011-06-25T16:14:04Z</time>
      </trkpt>
      <trkpt lat="46.30993" lon="-0.32388">
        <ele>58.0597</ele>
        <time>2011-06-25T16:14:05Z</time>
      </trkpt>
      <trkpt lat="46.30993" lon="-0.32386">
        <ele>58.0566</ele>
        <time>2011-06-25T16:14:06Z</time>
      </trkpt>
      <trkpt lat="46.30993" lon="-0.32384">
        <ele>58.0545</ele>
        <time>2011-06-25T16:14:07Z</time>
      </trkpt>
      <trkpt lat="46.30993" lon="-0.32382">
        <ele>58.0521</ele>
        <time>2011-06-25T16:14:08Z</time>
      </trkpt>
      <trkpt lat="46.30993" lon="-0.32381">
        <ele>58.0477</ele>
        <time>2011-06-25T16:14:09Z</time>
      </trkpt>
      <trkpt lat="46.30993" lon="-0.32379">
        <ele>58.0394</ele>
        <time>2011-06-25T16:14:10Z</time>
      </trkpt>
      <trkpt lat="46.30993" lon="-0.32378">
        <ele>58.0283</ele>
        <time>2011-06-25T16:14:11Z</time>
      </trkpt>
      <trkpt lat="46.30993" lon="-0.32376">
        <ele>58.0174</ele>
        <time>2011-06-25T16:14:12Z</time>
      </trkpt>
      <trkpt lat="46.30993" lon="-0.32375">
        <ele>58.0067</ele>
        <time>2011-06-25T16:14:13Z</time>
      </trkpt>
      <trkpt lat="46.30993" lon="-0.32373">
        <ele>57.9983</ele>
        <time>2011-06-25T16:14:14Z</time>
      </trkpt>
      <trkpt lat="46.30993" lon="-0.32371">
        <ele>57.9917</ele>
        <time>2011-06-25T16:14:15Z</time>
      </trkpt>
      <trkpt lat="46.30993" lon="-0.32369">
        <ele>57.9848</ele>
        <time>2011-06-25T16:14:16Z</time>
      </trkpt>
      <trkpt lat="46.30993" lon="-0.32368">
        <ele>57.98</ele>
        <time>2011-06-25T16:14:17Z</time>
      </trkpt>
      <trkpt lat="46.30993" lon="-0.32366">
        <ele>57.976</ele>
        <time>2011-06-25T16:14:18Z</time>
      </trkpt>
      <trkpt lat="46.30994" lon="-0.32364">
        <ele>57.9727</ele>
        <time>2011-06-25T16:14:19Z</time>
      </trkpt>
      <trkpt lat="46.30993" lon="-0.32363">
        <ele>57.9712</ele>
        <time>2011-06-25T16:14:20Z</time>
      </trkpt>
      <trkpt lat="46.30993" lon="-0.32361">
        <ele>57.9675</ele>
        <time>2011-06-25T16:14:21Z</time>
      </trkpt>
      <trkpt lat="46.30993" lon="-0.32359">
        <ele>57.9615</ele>
        <time>2011-06-25T16:14:22Z</time>
      </trkpt>
      <trkpt lat="46.30992" lon="-0.32357">
        <ele>57.9596</ele>
        <time>2011-06-25T16:14:23Z</time>
      </trkpt>
      <trkpt lat="46.30992" lon="-0.32355">
        <ele>57.9586</ele>
        <time>2011-06-25T16:14:24Z</time>
      </trkpt>
      <trkpt lat="46.30991" lon="-0.32354">
        <ele>57.9579</ele>
        <time>2011-06-25T16:14:25Z</time>
      </trkpt>
      <trkpt lat="46.30991" lon="-0.32352">
        <ele>57.9586</ele>
        <time>2011-06-25T16:14:26Z</time>
      </trkpt>
      <trkpt lat="46.30991" lon="-0.3235">
        <ele>57.9618</ele>
        <time>2011-06-25T16:14:27Z</time>
      </trkpt>
      <trkpt lat="46.30991" lon="-0.32348">
        <ele>57.9666</ele>
        <time>2011-06-25T16:14:28Z</time>
      </trkpt>
      <trkpt lat="46.30991" lon="-0.32347">
        <ele>57.9712</ele>
        <time>2011-06-25T16:14:29Z</time>
      </trkpt>
      <trkpt lat="46.30991" lon="-0.32345">
        <ele>57.9783</ele>
        <time>2011-06-25T16:14:30Z</time>
      </trkpt>
      <trkpt lat="46.30991" lon="-0.32343">
        <ele>57.9852</ele>
        <time>2011-06-25T16:14:31Z</time>
      </trkpt>
      <trkpt lat="46.30991" lon="-0.32342">
        <ele>57.9905</ele>
        <time>2011-06-25T16:14:32Z</time>
      </trkpt>
      <trkpt lat="46.30991" lon="-0.3234">
        <ele>57.9963</ele>
        <time>2011-06-25T16:14:33Z</time>
      </trkpt>
      <trkpt lat="46.30991" lon="-0.32339">
        <ele>58.0001</ele>
        <time>2011-06-25T16:14:34Z</time>
      </trkpt>
      <trkpt lat="46.30991" lon="-0.32337">
        <ele>58.003</ele>
        <time>2011-06-25T16:14:35Z</time>
      </trkpt>
      <trkpt lat="46.30991" lon="-0.32336">
        <ele>58.0091</ele>
        <time>2011-06-25T16:14:36Z</time>
      </trkpt>
      <trkpt lat="46.30991" lon="-0.32334">
        <ele>58.0152</ele>
        <time>2011-06-25T16:14:37Z</time>
      </trkpt>
      <trkpt lat="46.30991" lon="-0.32332">
        <ele>58.0235</ele>
        <time>2011-06-25T16:14:38Z</time>
      </trkpt>
      <trkpt lat="46.30991" lon="-0.32331">
        <ele>58.0318</ele>
        <time>2011-06-25T16:14:39Z</time>
      </trkpt>
      <trkpt lat="46.30991" lon="-0.32329">
        <ele>58.0405</ele>
        <time>2011-06-25T16:14:40Z</time>
      </trkpt>
      <trkpt lat="46.30991" lon="-0.32327">
        <ele>58.049</ele>
        <time>2011-06-25T16:14:41Z</time>
      </trkpt>
      <trkpt lat="46.30991" lon="-0.32325">
        <ele>58.0591</ele>
        <time>2011-06-25T16:14:42Z</time>
      </trkpt>
      <trkpt lat="46.30991" lon="-0.32323">
        <ele>58.0684</ele>
        <time>2011-06-25T16:14:43Z</time>
      </trkpt>
      <trkpt lat="46.30991" lon="-0.32321">
        <ele>58.0778</ele>
        <time>2011-06-25T16:14:44Z</time>
      </trkpt>
      <trkpt lat="46.30991" lon="-0.32319">
        <ele>58.0851</ele>
        <time>2011-06-25T16:14:45Z</time>
      </trkpt>
      <trkpt lat="46.30991" lon="-0.32317">
        <ele>58.0949</ele>
        <time>2011-06-25T16:14:46Z</time>
      </trkpt>
      <trkpt lat="46.30991" lon="-0.32315">
        <ele>58.1055</ele>
        <time>2011-06-25T16:14:47Z</time>
      </trkpt>
      <trkpt lat="46.30991" lon="-0.32313">
        <ele>58.1231</ele>
        <time>2011-06-25T16:14:48Z</time>
      </trkpt>
      <trkpt lat="46.30991" lon="-0.32311">
        <ele>58.1464</ele>
        <time>2011-06-25T16:14:49Z</time>
      </trkpt>
      <trkpt lat="46.30991" lon="-0.32309">
        <ele>58.1694</ele>
        <time>2011-06-25T16:14:50Z</time>
      </trkpt>
      <trkpt lat="46.30991" lon="-0.32308">
        <ele>58.1916</ele>
        <time>2011-06-25T16:14:51Z</time>
      </trkpt>
      <trkpt lat="46.30991" lon="-0.32306">
        <ele>58.2131</ele>
        <time>2011-06-25T16:14:52Z</time>
      </trkpt>
      <trkpt lat="46.30991" lon="-0.32304">
        <ele>58.2382</ele>
        <time>2011-06-25T16:14:53Z</time>
      </trkpt>
      <trkpt lat="46.30991" lon="-0.32302">
        <ele>58.2666</ele>
        <time>2011-06-25T16:14:54Z</time>
      </trkpt>
      <trkpt lat="46.30991" lon="-0.323">
        <ele>58.2999</ele>
        <time>2011-06-25T16:14:55Z</time>
      </trkpt>
      <trkpt lat="46.30991" lon="-0.32298">
        <ele>58.3332</ele>
        <time>2011-06-25T16:14:56Z</time>
      </trkpt>
      <trkpt lat="46.30991" lon="-0.32296">
        <ele>58.3678</ele>
        <time>2011-06-25T16:14:57Z</time>
      </trkpt>
      <trkpt lat="46.30991" lon="-0.32294">
        <ele>58.4052</ele>
        <time>2011-06-25T16:14:58Z</time>
      </trkpt>
      <trkpt lat="46.30991" lon="-0.32292">
        <ele>58.4438</ele>
        <time>2011-06-25T16:14:59Z</time>
      </trkpt>
      <trkpt lat="46.30991" lon="-0.3229">
        <ele>58.4833</ele>
        <time>2011-06-25T16:15:00Z</time>
      </trkpt>
      <trkpt lat="46.30991" lon="-0.32288">
        <ele>58.5241</ele>
        <time>2011-06-25T16:15:01Z</time>
      </trkpt>
      <trkpt lat="46.30991" lon="-0.32286">
        <ele>58.5643</ele>
        <time>2011-06-25T16:15:02Z</time>
      </trkpt>
      <trkpt lat="46.30991" lon="-0.32284">
        <ele>58.6041</ele>
        <time>2011-06-25T16:15:03Z</time>
      </trkpt>
      <trkpt lat="46.30991" lon="-0.32282">
        <ele>58.6436</ele>
        <time>2011-06-25T16:15:04Z</time>
      </trkpt>
      <trkpt lat="46.30991" lon="-0.32281">
        <ele>58.6846</ele>
        <time>2011-06-25T16:15:05Z</time>
      </trkpt>
      <trkpt lat="46.30991" lon="-0.32279">
        <ele>58.73</ele>
        <time>2011-06-25T16:15:06Z</time>
      </trkpt>
      <trkpt lat="46.30991" lon="-0.32277">
        <ele>58.7787</ele>
        <time>2011-06-25T16:15:07Z</time>
      </trkpt>
      <trkpt lat="46.30991" lon="-0.32275">
        <ele>58.8269</ele>
        <time>2011-06-25T16:15:08Z</time>
      </trkpt>
      <trkpt lat="46.30991" lon="-0.32273">
        <ele>58.8744</ele>
        <time>2011-06-25T16:15:09Z</time>
      </trkpt>
      <trkpt lat="46.30991" lon="-0.3227">
        <ele>58.9192</ele>
        <time>2011-06-25T16:15:10Z</time>
      </trkpt>
      <trkpt lat="46.30991" lon="-0.32268">
        <ele>58.9673</ele>
        <time>2011-06-25T16:15:11Z</time>
      </trkpt>
      <trkpt lat="46.30991" lon="-0.32266">
        <ele>59.0143</ele>
        <time>2011-06-25T16:15:12Z</time>
      </trkpt>
      <trkpt lat="46.30991" lon="-0.32264">
        <ele>59.0642</ele>
        <time>2011-06-25T16:15:13Z</time>
      </trkpt>
      <trkpt lat="46.30991" lon="-0.32263">
        <ele>59.1142</ele>
        <time>2011-06-25T16:15:14Z</time>
      </trkpt>
      <trkpt lat="46.30991" lon="-0.32261">
        <ele>59.1654</ele>
        <time>2011-06-25T16:15:15Z</time>
      </trkpt>
      <trkpt lat="46.30992" lon="-0.32258">
        <ele>59.2159</ele>
        <time>2011-06-25T16:15:16Z</time>
      </trkpt>
      <trkpt lat="46.30992" lon="-0.32256">
        <ele>59.2653</ele>
        <time>2011-06-25T16:15:17Z</time>
      </trkpt>
      <trkpt lat="46.30992" lon="-0.32254">
        <ele>59.315</ele>
        <time>2011-06-25T16:15:18Z</time>
      </trkpt>
      <trkpt lat="46.30992" lon="-0.32252">
        <ele>59.3649</ele>
        <time>2011-06-25T16:15:19Z</time>
      </trkpt>
      <trkpt lat="46.30992" lon="-0.32249">
        <ele>59.4194</ele>
        <time>2011-06-25T16:15:20Z</time>
      </trkpt>
      <trkpt lat="46.30992" lon="-0.32247">
        <ele>59.471</ele>
        <time>2011-06-25T16:15:21Z</time>
      </trkpt>
      <trkpt lat="46.30993" lon="-0.32245">
        <ele>59.5232</ele>
        <time>2011-06-25T16:15:22Z</time>
      </trkpt>
      <trkpt lat="46.30993" lon="-0.32243">
        <ele>59.5769</ele>
        <time>2011-06-25T16:15:23Z</time>
      </trkpt>
      <trkpt lat="46.30993" lon="-0.32241">
        <ele>59.6303</ele>
        <time>2011-06-25T16:15:24Z</time>
      </trkpt>
      <trkpt lat="46.30993" lon="-0.32239">
        <ele>59.684</ele>
        <time>2011-06-25T16:15:25Z</time>
      </trkpt>
      <trkpt lat="46.30993" lon="-0.32237">
        <ele>59.7352</ele>
        <time>2011-06-25T16:15:26Z</time>
      </trkpt>
      <trkpt lat="46.30993" lon="-0.32235">
        <ele>59.7851</ele>
        <time>2011-06-25T16:15:27Z</time>
      </trkpt>
      <trkpt lat="46.30992" lon="-0.32233">
        <ele>59.837</ele>
        <time>2011-06-25T16:15:28Z</time>
      </trkpt>
      <trkpt lat="46.30993" lon="-0.32231">
        <ele>59.8853</ele>
        <time>2011-06-25T16:15:29Z</time>
      </trkpt>
      <trkpt lat="46.30993" lon="-0.32228">
        <ele>59.9336</ele>
        <time>2011-06-25T16:15:30Z</time>
      </trkpt>
      <trkpt lat="46.30993" lon="-0.32226">
        <ele>59.9836</ele>
        <time>2011-06-25T16:15:31Z</time>
      </trkpt>
      <trkpt lat="46.30993" lon="-0.32224">
        <ele>60.0343</ele>
        <time>2011-06-25T16:15:32Z</time>
      </trkpt>
      <trkpt lat="46.30993" lon="-0.32222">
        <ele>60.0871</ele>
        <time>2011-06-25T16:15:33Z</time>
      </trkpt>
      <trkpt lat="46.30993" lon="-0.32221">
        <ele>60.1406</ele>
        <time>2011-06-25T16:15:34Z</time>
      </trkpt>
      <trkpt lat="46.30993" lon="-0.32219">
        <ele>60.196</ele>
        <time>2011-06-25T16:15:35Z</time>
      </trkpt>
      <trkpt lat="46.30993" lon="-0.32218">
        <ele>60.255</ele>
        <time>2011-06-25T16:15:36Z</time>
      </trkpt>
      <trkpt lat="46.30993" lon="-0.32216">
        <ele>60.3143</ele>
        <time>2011-06-25T16:15:37Z</time>
      </trkpt>
      <trkpt lat="46.30992" lon="-0.32214">
        <ele>60.3736</ele>
        <time>2011-06-25T16:15:38Z</time>
      </trkpt>
      <trkpt lat="46.30992" lon="-0.32212">
        <ele>60.4306</ele>
        <time>2011-06-25T16:15:39Z</time>
      </trkpt>
      <trkpt lat="46.30992" lon="-0.3221">
        <ele>60.4888</ele>
        <time>2011-06-25T16:15:40Z</time>
      </trkpt>
      <trkpt lat="46.30992" lon="-0.32209">
        <ele>60.5469</ele>
        <time>2011-06-25T16:15:41Z</time>
      </trkpt>
      <trkpt lat="46.30992" lon="-0.32207">
        <ele>60.6051</ele>
        <time>2011-06-25T16:15:42Z</time>
      </trkpt>
      <trkpt lat="46.30992" lon="-0.32205">
        <ele>60.6659</ele>
        <time>2011-06-25T16:15:43Z</time>
      </trkpt>
      <trkpt lat="46.30991" lon="-0.32203">
        <ele>60.7254</ele>
        <time>2011-06-25T16:15:44Z</time>
      </trkpt>
      <trkpt lat="46.30992" lon="-0.32201">
        <ele>60.7859</ele>
        <time>2011-06-25T16:15:45Z</time>
      </trkpt>
      <trkpt lat="46.30992" lon="-0.32199">
        <ele>60.8445</ele>
        <time>2011-06-25T16:15:46Z</time>
      </trkpt>
      <trkpt lat="46.30992" lon="-0.32196">
        <ele>60.9029</ele>
        <time>2011-06-25T16:15:47Z</time>
      </trkpt>
      <trkpt lat="46.30992" lon="-0.32194">
        <ele>60.9603</ele>
        <time>2011-06-25T16:15:48Z</time>
      </trkpt>
      <trkpt lat="46.30992" lon="-0.32192">
        <ele>61.0165</ele>
        <time>2011-06-25T16:15:49Z</time>
      </trkpt>
      <trkpt lat="46.30993" lon="-0.3219">
        <ele>61.073</ele>
        <time>2011-06-25T16:15:50Z</time>
      </trkpt>
      <trkpt lat="46.30993" lon="-0.32188">
        <ele>61.129</ele>
        <time>2011-06-25T16:15:51Z</time>
      </trkpt>
      <trkpt lat="46.30993" lon="-0.32187">
        <ele>61.1866</ele>
        <time>2011-06-25T16:15:52Z</time>
      </trkpt>
      <trkpt lat="46.30993" lon="-0.32185">
        <ele>61.243</ele>
        <time>2011-06-25T16:15:53Z</time>
      </trkpt>
      <trkpt lat="46.30994" lon="-0.32184">
        <ele>61.2994</ele>
        <time>2011-06-25T16:15:54Z</time>
      </trkpt>
      <trkpt lat="46.30994" lon="-0.32182">
        <ele>61.3587</ele>
        <time>2011-06-25T16:15:55Z</time>
      </trkpt>
      <trkpt lat="46.30994" lon="-0.32181">
        <ele>61.4172</ele>
        <time>2011-06-25T16:15:56Z</time>
      </trkpt>
      <trkpt lat="46.30994" lon="-0.32179">
        <ele>61.4748</ele>
        <time>2011-06-25T16:15:57Z</time>
      </trkpt>
      <trkpt lat="46.30994" lon="-0.32177">
        <ele>61.5326</ele>
        <time>2011-06-25T16:15:58Z</time>
      </trkpt>
      <trkpt lat="46.30994" lon="-0.32176">
        <ele>61.5901</ele>
        <time>2011-06-25T16:15:59Z</time>
      </trkpt>
      <trkpt lat="46.30994" lon="-0.32174">
        <ele>61.6471</ele>
        <time>2011-06-25T16:16:00Z</time>
      </trkpt>
      <trkpt lat="46.30994" lon="-0.32173">
        <ele>61.7017</ele>
        <time>2011-06-25T16:16:01Z</time>
      </trkpt>
      <trkpt lat="46.30994" lon="-0.32171">
        <ele>61.755</ele>
        <time>2011-06-25T16:16:02Z</time>
      </trkpt>
      <trkpt lat="46.30994" lon="-0.32169">
        <ele>61.8044</ele>
        <time>2011-06-25T16:16:03Z</time>
      </trkpt>
      <trkpt lat="46.30994" lon="-0.32168">
        <ele>61.8534</ele>
        <time>2011-06-25T16:16:04Z</time>
      </trkpt>
      <trkpt lat="46.30994" lon="-0.32166">
        <ele>61.9038</ele>
        <time>2011-06-25T16:16:05Z</time>
      </trkpt>
      <trkpt lat="46.30994" lon="-0.32164">
        <ele>61.9535</ele>
        <time>2011-06-25T16:16:06Z</time>
      </trkpt>
      <trkpt lat="46.30994" lon="-0.32162">
        <ele>62.0033</ele>
        <time>2011-06-25T16:16:07Z</time>
      </trkpt>
      <trkpt lat="46.30994" lon="-0.3216">
        <ele>62.0525</ele>
        <time>2011-06-25T16:16:08Z</time>
      </trkpt>
      <trkpt lat="46.30994" lon="-0.32158">
        <ele>62.1021</ele>
        <time>2011-06-25T16:16:09Z</time>
      </trkpt>
      <trkpt lat="46.30994" lon="-0.32156">
        <ele>62.1486</ele>
        <time>2011-06-25T16:16:10Z</time>
      </trkpt>
      <trkpt lat="46.30994" lon="-0.32153">
        <ele>62.1943</ele>
        <time>2011-06-25T16:16:11Z</time>
      </trkpt>
      <trkpt lat="46.30994" lon="-0.32151">
        <ele>62.2382</ele>
        <time>2011-06-25T16:16:12Z</time>
      </trkpt>
      <trkpt lat="46.30994" lon="-0.32149">
        <ele>62.2815</ele>
        <time>2011-06-25T16:16:13Z</time>
      </trkpt>
      <trkpt lat="46.30995" lon="-0.32147">
        <ele>62.3276</ele>
        <time>2011-06-25T16:16:14Z</time>
      </trkpt>
      <trkpt lat="46.30995" lon="-0.32145">
        <ele>62.3765</ele>
        <time>2011-06-25T16:16:15Z</time>
      </trkpt>
      <trkpt lat="46.30995" lon="-0.32143">
        <ele>62.4309</ele>
        <time>2011-06-25T16:16:16Z</time>
      </trkpt>
      <trkpt lat="46.30996" lon="-0.32141">
        <ele>62.4854</ele>
        <time>2011-06-25T16:16:17Z</time>
      </trkpt>
      <trkpt lat="46.30996" lon="-0.32139">
        <ele>62.5391</ele>
        <time>2011-06-25T16:16:18Z</time>
      </trkpt>
      <trkpt lat="46.30996" lon="-0.32137">
        <ele>62.5912</ele>
        <time>2011-06-25T16:16:19Z</time>
      </trkpt>
      <trkpt lat="46.30997" lon="-0.32135">
        <ele>62.6416</ele>
        <time>2011-06-25T16:16:20Z</time>
      </trkpt>
      <trkpt lat="46.30997" lon="-0.32133">
        <ele>62.6901</ele>
        <time>2011-06-25T16:16:21Z</time>
      </trkpt>
      <trkpt lat="46.30998" lon="-0.32131">
        <ele>62.7367</ele>
        <time>2011-06-25T16:16:22Z</time>
      </trkpt>
      <trkpt lat="46.30998" lon="-0.32128">
        <ele>62.7817</ele>
        <time>2011-06-25T16:16:23Z</time>
      </trkpt>
      <trkpt lat="46.30999" lon="-0.32126">
        <ele>62.824</ele>
        <time>2011-06-25T16:16:24Z</time>
      </trkpt>
      <trkpt lat="46.30999" lon="-0.32123">
        <ele>62.8673</ele>
        <time>2011-06-25T16:16:25Z</time>
      </trkpt>
      <trkpt lat="46.31" lon="-0.32121">
        <ele>62.9105</ele>
        <time>2011-06-25T16:16:26Z</time>
      </trkpt>
      <trkpt lat="46.31" lon="-0.32118">
        <ele>62.9527</ele>
        <time>2011-06-25T16:16:27Z</time>
      </trkpt>
      <trkpt lat="46.31001" lon="-0.32116">
        <ele>62.9914</ele>
        <time>2011-06-25T16:16:28Z</time>
      </trkpt>
      <trkpt lat="46.31002" lon="-0.32113">
        <ele>63.032</ele>
        <time>2011-06-25T16:16:29Z</time>
      </trkpt>
      <trkpt lat="46.31002" lon="-0.32111">
        <ele>63.0733</ele>
        <time>2011-06-25T16:16:30Z</time>
      </trkpt>
      <trkpt lat="46.31003" lon="-0.32109">
        <ele>63.1137</ele>
        <time>2011-06-25T16:16:31Z</time>
      </trkpt>
      <trkpt lat="46.31004" lon="-0.32106">
        <ele>63.1532</ele>
        <time>2011-06-25T16:16:32Z</time>
      </trkpt>
      <trkpt lat="46.31004" lon="-0.32104">
        <ele>63.1929</ele>
        <time>2011-06-25T16:16:33Z</time>
      </trkpt>
      <trkpt lat="46.31005" lon="-0.32102">
        <ele>63.2326</ele>
        <time>2011-06-25T16:16:34Z</time>
      </trkpt>
      <trkpt lat="46.31006" lon="-0.321">
        <ele>63.2704</ele>
        <time>2011-06-25T16:16:35Z</time>
      </trkpt>
      <trkpt lat="46.31006" lon="-0.32098">
        <ele>63.3094</ele>
        <time>2011-06-25T16:16:36Z</time>
      </trkpt>
      <trkpt lat="46.31007" lon="-0.32096">
        <ele>63.3468</ele>
        <time>2011-06-25T16:16:37Z</time>
      </trkpt>
      <trkpt lat="46.31008" lon="-0.32095">
        <ele>63.3825</ele>
        <time>2011-06-25T16:16:38Z</time>
      </trkpt>
      <trkpt lat="46.31009" lon="-0.32093">
        <ele>63.4161</ele>
        <time>2011-06-25T16:16:39Z</time>
      </trkpt>
      <trkpt lat="46.31009" lon="-0.32092">
        <ele>63.4497</ele>
        <time>2011-06-25T16:16:40Z</time>
      </trkpt>
      <trkpt lat="46.3101" lon="-0.3209">
        <ele>63.4819</ele>
        <time>2011-06-25T16:16:41Z</time>
      </trkpt>
      <trkpt lat="46.3101" lon="-0.32089">
        <ele>63.5155</ele>
        <time>2011-06-25T16:16:42Z</time>
      </trkpt>
      <trkpt lat="46.31011" lon="-0.32087">
        <ele>63.5479</ele>
        <time>2011-06-25T16:16:43Z</time>
      </trkpt>
      <trkpt lat="46.31012" lon="-0.32085">
        <ele>63.5825</ele>
        <time>2011-06-25T16:16:44Z</time>
      </trkpt>
      <trkpt lat="46.31012" lon="-0.32084">
        <ele>63.6208</ele>
        <time>2011-06-25T16:16:45Z</time>
      </trkpt>
      <trkpt lat="46.31013" lon="-0.32082">
        <ele>63.6598</ele>
        <time>2011-06-25T16:16:46Z</time>
      </trkpt>
      <trkpt lat="46.31014" lon="-0.32081">
        <ele>63.7041</ele>
        <time>2011-06-25T16:16:47Z</time>
      </trkpt>
      <trkpt lat="46.31015" lon="-0.3208">
        <ele>63.7508</ele>
        <time>2011-06-25T16:16:48Z</time>
      </trkpt>
      <trkpt lat="46.31017" lon="-0.32079">
        <ele>63.8009</ele>
        <time>2011-06-25T16:16:49Z</time>
      </trkpt>
      <trkpt lat="46.31018" lon="-0.32077">
        <ele>63.8501</ele>
        <time>2011-06-25T16:16:50Z</time>
      </trkpt>
      <trkpt lat="46.31019" lon="-0.32076">
        <ele>63.9004</ele>
        <time>2011-06-25T16:16:51Z</time>
      </trkpt>
      <trkpt lat="46.3102" lon="-0.32075">
        <ele>63.9469</ele>
        <time>2011-06-25T16:16:52Z</time>
      </trkpt>
      <trkpt lat="46.31021" lon="-0.32073">
        <ele>63.9882</ele>
        <time>2011-06-25T16:16:53Z</time>
      </trkpt>
      <trkpt lat="46.31022" lon="-0.32071">
        <ele>64.0284</ele>
        <time>2011-06-25T16:16:54Z</time>
      </trkpt>
      <trkpt lat="46.31022" lon="-0.3207">
        <ele>64.0673</ele>
        <time>2011-06-25T16:16:55Z</time>
      </trkpt>
      <trkpt lat="46.31023" lon="-0.32068">
        <ele>64.1053</ele>
        <time>2011-06-25T16:16:56Z</time>
      </trkpt>
      <trkpt lat="46.31024" lon="-0.32067">
        <ele>64.1439</ele>
        <time>2011-06-25T16:16:57Z</time>
      </trkpt>
      <trkpt lat="46.31025" lon="-0.32065">
        <ele>64.1819</ele>
        <time>2011-06-25T16:16:58Z</time>
      </trkpt>
      <trkpt lat="46.31025" lon="-0.32063">
        <ele>64.2193</ele>
        <time>2011-06-25T16:16:59Z</time>
      </trkpt>
      <trkpt lat="46.31026" lon="-0.32061">
        <ele>64.2557</ele>
        <time>2011-06-25T16:17:00Z</time>
      </trkpt>
      <trkpt lat="46.31027" lon="-0.3206">
        <ele>64.2925</ele>
        <time>2011-06-25T16:17:01Z</time>
      </trkpt>
      <trkpt lat="46.31028" lon="-0.32058">
        <ele>64.3296</ele>
        <time>2011-06-25T16:17:02Z</time>
      </trkpt>
      <trkpt lat="46.31028" lon="-0.32057">
        <ele>64.3658</ele>
        <time>2011-06-25T16:17:03Z</time>
      </trkpt>
      <trkpt lat="46.31029" lon="-0.32055">
        <ele>64.4027</ele>
        <time>2011-06-25T16:17:04Z</time>
      </trkpt>
      <trkpt lat="46.3103" lon="-0.32053">
        <ele>64.4385</ele>
        <time>2011-06-25T16:17:05Z</time>
      </trkpt>
      <trkpt lat="46.3103" lon="-0.32052">
        <ele>64.4731</ele>
        <time>2011-06-25T16:17:06Z</time>
      </trkpt>
      <trkpt lat="46.31031" lon="-0.3205">
        <ele>64.5074</ele>
        <time>2011-06-25T16:17:07Z</time>
      </trkpt>
      <trkpt lat="46.31031" lon="-0.32049">
        <ele>64.5418</ele>
        <time>2011-06-25T16:17:08Z</time>
      </trkpt>
      <trkpt lat="46.31032" lon="-0.32047">
        <ele>64.5764</ele>
        <time>2011-06-25T16:17:09Z</time>
      </trkpt>
      <trkpt lat="46.31033" lon="-0.32046">
        <ele>64.6101</ele>
        <time>2011-06-25T16:17:10Z</time>
      </trkpt>
      <trkpt lat="46.31033" lon="-0.32044">
        <ele>64.6432</ele>
        <time>2011-06-25T16:17:11Z</time>
      </trkpt>
      <trkpt lat="46.31034" lon="-0.32042">
        <ele>64.6778</ele>
        <time>2011-06-25T16:17:12Z</time>
      </trkpt>
      <trkpt lat="46.31035" lon="-0.32041">
        <ele>64.7127</ele>
        <time>2011-06-25T16:17:13Z</time>
      </trkpt>
      <trkpt lat="46.31036" lon="-0.32039">
        <ele>64.7485</ele>
        <time>2011-06-25T16:17:14Z</time>
      </trkpt>
      <trkpt lat="46.31036" lon="-0.32038">
        <ele>64.787</ele>
        <time>2011-06-25T16:17:15Z</time>
      </trkpt>
      <trkpt lat="46.31037" lon="-0.32036">
        <ele>64.8209</ele>
        <time>2011-06-25T16:17:16Z</time>
      </trkpt>
      <trkpt lat="46.31038" lon="-0.32034">
        <ele>64.8527</ele>
        <time>2011-06-25T16:17:17Z</time>
      </trkpt>
      <trkpt lat="46.31039" lon="-0.32032">
        <ele>64.8835</ele>
        <time>2011-06-25T16:17:18Z</time>
      </trkpt>
      <trkpt lat="46.3104" lon="-0.3203">
        <ele>64.9136</ele>
        <time>2011-06-25T16:17:19Z</time>
      </trkpt>
      <trkpt lat="46.31041" lon="-0.32029">
        <ele>64.9436</ele>
        <time>2011-06-25T16:17:20Z</time>
      </trkpt>
      <trkpt lat="46.31042" lon="-0.32027">
        <ele>64.9712</ele>
        <time>2011-06-25T16:17:21Z</time>
      </trkpt>
      <trkpt lat="46.31043" lon="-0.32025">
        <ele>64.9958</ele>
        <time>2011-06-25T16:17:22Z</time>
      </trkpt>
      <trkpt lat="46.31044" lon="-0.32023">
        <ele>65.0186</ele>
        <time>2011-06-25T16:17:23Z</time>
      </trkpt>
      <trkpt lat="46.31046" lon="-0.32021">
        <ele>65.0404</ele>
        <time>2011-06-25T16:17:24Z</time>
      </trkpt>
      <trkpt lat="46.31047" lon="-0.3202">
        <ele>65.0635</ele>
        <time>2011-06-25T16:17:25Z</time>
      </trkpt>
      <trkpt lat="46.31048" lon="-0.32018">
        <ele>65.0878</ele>
        <time>2011-06-25T16:17:26Z</time>
      </trkpt>
      <trkpt lat="46.31049" lon="-0.32017">
        <ele>65.1138</ele>
        <time>2011-06-25T16:17:27Z</time>
      </trkpt>
      <trkpt lat="46.3105" lon="-0.32016">
        <ele>65.1411</ele>
        <time>2011-06-25T16:17:28Z</time>
      </trkpt>
      <trkpt lat="46.31051" lon="-0.32015">
        <ele>65.1709</ele>
        <time>2011-06-25T16:17:29Z</time>
      </trkpt>
      <trkpt lat="46.31052" lon="-0.32014">
        <ele>65.2015</ele>
        <time>2011-06-25T16:17:30Z</time>
      </trkpt>
      <trkpt lat="46.31053" lon="-0.32012">
        <ele>65.2318</ele>
        <time>2011-06-25T16:17:31Z</time>
      </trkpt>
      <trkpt lat="46.31054" lon="-0.32011">
        <ele>65.2627</ele>
        <time>2011-06-25T16:17:32Z</time>
      </trkpt>
      <trkpt lat="46.31055" lon="-0.3201">
        <ele>65.293</ele>
        <time>2011-06-25T16:17:33Z</time>
      </trkpt>
      <trkpt lat="46.31056" lon="-0.32008">
        <ele>65.322</ele>
        <time>2011-06-25T16:17:34Z</time>
      </trkpt>
      <trkpt lat="46.31057" lon="-0.32007">
        <ele>65.3496</ele>
        <time>2011-06-25T16:17:35Z</time>
      </trkpt>
      <trkpt lat="46.31058" lon="-0.32005">
        <ele>65.3792</ele>
        <time>2011-06-25T16:17:36Z</time>
      </trkpt>
      <trkpt lat="46.31059" lon="-0.32004">
        <ele>65.4102</ele>
        <time>2011-06-25T16:17:37Z</time>
      </trkpt>
      <trkpt lat="46.31059" lon="-0.32002">
        <ele>65.441</ele>
        <time>2011-06-25T16:17:38Z</time>
      </trkpt>
      <trkpt lat="46.3106" lon="-0.32001">
        <ele>65.4708</ele>
        <time>2011-06-25T16:17:39Z</time>
      </trkpt>
      <trkpt lat="46.31061" lon="-0.32">
        <ele>65.5008</ele>
        <time>2011-06-25T16:17:40Z</time>
      </trkpt>
      <trkpt lat="46.31062" lon="-0.31999">
        <ele>65.5329</ele>
        <time>2011-06-25T16:17:41Z</time>
      </trkpt>
      <trkpt lat="46.31064" lon="-0.31999">
        <ele>65.5687</ele>
        <time>2011-06-25T16:17:42Z</time>
      </trkpt>
      <trkpt lat="46.31065" lon="-0.31998">
        <ele>65.6087</ele>
        <time>2011-06-25T16:17:43Z</time>
      </trkpt>
      <trkpt lat="46.31065" lon="-0.31997">
        <ele>65.6496</ele>
        <time>2011-06-25T16:17:44Z</time>
      </trkpt>
      <trkpt lat="46.31067" lon="-0.31995">
        <ele>65.6909</ele>
        <time>2011-06-25T16:17:45Z</time>
      </trkpt>
      <trkpt lat="46.31067" lon="-0.31994">
        <ele>65.7325</ele>
        <time>2011-06-25T16:17:46Z</time>
      </trkpt>
      <trkpt lat="46.31068" lon="-0.31993">
        <ele>65.7736</ele>
        <time>2011-06-25T16:17:47Z</time>
      </trkpt>
      <trkpt lat="46.3107" lon="-0.31992">
        <ele>65.8122</ele>
        <time>2011-06-25T16:17:48Z</time>
      </trkpt>
      <trkpt lat="46.31071" lon="-0.31991">
        <ele>65.8494</ele>
        <time>2011-06-25T16:17:49Z</time>
      </trkpt>
      <trkpt lat="46.31072" lon="-0.3199">
        <ele>65.8881</ele>
        <time>2011-06-25T16:17:50Z</time>
      </trkpt>
      <trkpt lat="46.31073" lon="-0.31989">
        <ele>65.9265</ele>
        <time>2011-06-25T16:17:51Z</time>
      </trkpt>
      <trkpt lat="46.31073" lon="-0.31988">
        <ele>65.9636</ele>
        <time>2011-06-25T16:17:52Z</time>
      </trkpt>
      <trkpt lat="46.31074" lon="-0.31987">
        <ele>65.9997</ele>
        <time>2011-06-25T16:17:53Z</time>
      </trkpt>
      <trkpt lat="46.31075" lon="-0.31986">
        <ele>66.0391</ele>
        <time>2011-06-25T16:17:54Z</time>
      </trkpt>
      <trkpt lat="46.31076" lon="-0.31984">
        <ele>66.0791</ele>
        <time>2011-06-25T16:17:55Z</time>
      </trkpt>
      <trkpt lat="46.31077" lon="-0.31983">
        <ele>66.1186</ele>
        <time>2011-06-25T16:17:56Z</time>
      </trkpt>
      <trkpt lat="46.31078" lon="-0.31982">
        <ele>66.1625</ele>
        <time>2011-06-25T16:17:57Z</time>
      </trkpt>
      <trkpt lat="46.3108" lon="-0.31981">
        <ele>66.2096</ele>
        <time>2011-06-25T16:17:58Z</time>
      </trkpt>
      <trkpt lat="46.31081" lon="-0.31979">
        <ele>66.256</ele>
        <time>2011-06-25T16:17:59Z</time>
      </trkpt>
      <trkpt lat="46.31082" lon="-0.31978">
        <ele>66.3021</ele>
        <time>2011-06-25T16:18:00Z</time>
      </trkpt>
      <trkpt lat="46.31083" lon="-0.31977">
        <ele>66.3481</ele>
        <time>2011-06-25T16:18:01Z</time>
      </trkpt>
      <trkpt lat="46.31084" lon="-0.31976">
        <ele>66.393</ele>
        <time>2011-06-25T16:18:02Z</time>
      </trkpt>
      <trkpt lat="46.31086" lon="-0.31975">
        <ele>66.4414</ele>
        <time>2011-06-25T16:18:03Z</time>
      </trkpt>
      <trkpt lat="46.31087" lon="-0.31975">
        <ele>66.4883</ele>
        <time>2011-06-25T16:18:04Z</time>
      </trkpt>
      <trkpt lat="46.31088" lon="-0.31974">
        <ele>66.5337</ele>
        <time>2011-06-25T16:18:05Z</time>
      </trkpt>
      <trkpt lat="46.31089" lon="-0.31973">
        <ele>66.5787</ele>
        <time>2011-06-25T16:18:06Z</time>
      </trkpt>
      <trkpt lat="46.3109" lon="-0.31972">
        <ele>66.6229</ele>
        <time>2011-06-25T16:18:07Z</time>
      </trkpt>
      <trkpt lat="46.31091" lon="-0.31971">
        <ele>66.6675</ele>
        <time>2011-06-25T16:18:08Z</time>
      </trkpt>
      <trkpt lat="46.31093" lon="-0.3197">
        <ele>66.7128</ele>
        <time>2011-06-25T16:18:09Z</time>
      </trkpt>
      <trkpt lat="46.31094" lon="-0.31969">
        <ele>66.7636</ele>
        <time>2011-06-25T16:18:10Z</time>
      </trkpt>
      <trkpt lat="46.31095" lon="-0.31969">
        <ele>66.813</ele>
        <time>2011-06-25T16:18:11Z</time>
      </trkpt>
      <trkpt lat="46.31096" lon="-0.31968">
        <ele>66.8607</ele>
        <time>2011-06-25T16:18:12Z</time>
      </trkpt>
      <trkpt lat="46.31097" lon="-0.31967">
        <ele>66.9076</ele>
        <time>2011-06-25T16:18:13Z</time>
      </trkpt>
      <trkpt lat="46.31098" lon="-0.31966">
        <ele>66.9544</ele>
        <time>2011-06-25T16:18:14Z</time>
      </trkpt>
      <trkpt lat="46.31099" lon="-0.31966">
        <ele>67.0043</ele>
        <time>2011-06-25T16:18:15Z</time>
      </trkpt>
      <trkpt lat="46.311" lon="-0.31965">
        <ele>67.0532</ele>
        <time>2011-06-25T16:18:16Z</time>
      </trkpt>
      <trkpt lat="46.31101" lon="-0.31965">
        <ele>67.1013</ele>
        <time>2011-06-25T16:18:17Z</time>
      </trkpt>
      <trkpt lat="46.31102" lon="-0.31964">
        <ele>67.1528</ele>
        <time>2011-06-25T16:18:18Z</time>
      </trkpt>
      <trkpt lat="46.31104" lon="-0.31963">
        <ele>67.2071</ele>
        <time>2011-06-25T16:18:19Z</time>
      </trkpt>
      <trkpt lat="46.31105" lon="-0.31962">
        <ele>67.2595</ele>
        <time>2011-06-25T16:18:20Z</time>
      </trkpt>
      <trkpt lat="46.31106" lon="-0.31962">
        <ele>67.311</ele>
        <time>2011-06-25T16:18:21Z</time>
      </trkpt>
      <trkpt lat="46.31107" lon="-0.31961">
        <ele>67.3619</ele>
        <time>2011-06-25T16:18:22Z</time>
      </trkpt>
      <trkpt lat="46.31108" lon="-0.3196">
        <ele>67.4133</ele>
        <time>2011-06-25T16:18:23Z</time>
      </trkpt>
      <trkpt lat="46.31109" lon="-0.3196">
        <ele>67.4644</ele>
        <time>2011-06-25T16:18:24Z</time>
      </trkpt>
      <trkpt lat="46.3111" lon="-0.31959">
        <ele>67.5168</ele>
        <time>2011-06-25T16:18:25Z</time>
      </trkpt>
      <trkpt lat="46.31112" lon="-0.31959">
        <ele>67.5698</ele>
        <time>2011-06-25T16:18:26Z</time>
      </trkpt>
      <trkpt lat="46.31113" lon="-0.31958">
        <ele>67.6249</ele>
        <time>2011-06-25T16:18:27Z</time>
      </trkpt>
      <trkpt lat="46.31114" lon="-0.31958">
        <ele>67.6765</ele>
        <time>2011-06-25T16:18:28Z</time>
      </trkpt>
      <trkpt lat="46.31115" lon="-0.31958">
        <ele>67.7325</ele>
        <time>2011-06-25T16:18:29Z</time>
      </trkpt>
      <trkpt lat="46.31117" lon="-0.31958">
        <ele>67.7949</ele>
        <time>2011-06-25T16:18:30Z</time>
      </trkpt>
      <trkpt lat="46.31118" lon="-0.31958">
        <ele>67.8623</ele>
        <time>2011-06-25T16:18:31Z</time>
      </trkpt>
      <trkpt lat="46.3112" lon="-0.31958">
        <ele>67.9341</ele>
        <time>2011-06-25T16:18:32Z</time>
      </trkpt>
      <trkpt lat="46.31122" lon="-0.31958">
        <ele>68.0074</ele>
        <time>2011-06-25T16:18:33Z</time>
      </trkpt>
      <trkpt lat="46.31123" lon="-0.31958">
        <ele>68.0813</ele>
        <time>2011-06-25T16:18:34Z</time>
      </trkpt>
      <trkpt lat="46.31125" lon="-0.31958">
        <ele>68.1537</ele>
        <time>2011-06-25T16:18:35Z</time>
      </trkpt>
      <trkpt lat="46.31126" lon="-0.31958">
        <ele>68.2242</ele>
        <time>2011-06-25T16:18:36Z</time>
      </trkpt>
      <trkpt lat="46.31128" lon="-0.31957">
        <ele>68.2916</ele>
        <time>2011-06-25T16:18:37Z</time>
      </trkpt>
      <trkpt lat="46.3113" lon="-0.31957">
        <ele>68.358</ele>
        <time>2011-06-25T16:18:38Z</time>
      </trkpt>
      <trkpt lat="46.31131" lon="-0.31956">
        <ele>68.4235</ele>
        <time>2011-06-25T16:18:39Z</time>
      </trkpt>
      <trkpt lat="46.31132" lon="-0.31956">
        <ele>68.4879</ele>
        <time>2011-06-25T16:18:40Z</time>
      </trkpt>
      <trkpt lat="46.31134" lon="-0.31956">
        <ele>68.5499</ele>
        <time>2011-06-25T16:18:41Z</time>
      </trkpt>
      <trkpt lat="46.31135" lon="-0.31955">
        <ele>68.6097</ele>
        <time>2011-06-25T16:18:42Z</time>
      </trkpt>
      <trkpt lat="46.31136" lon="-0.31954">
        <ele>68.6676</ele>
        <time>2011-06-25T16:18:43Z</time>
      </trkpt>
      <trkpt lat="46.31138" lon="-0.31953">
        <ele>68.7227</ele>
        <time>2011-06-25T16:18:44Z</time>
      </trkpt>
      <trkpt lat="46.31139" lon="-0.31952">
        <ele>68.7745</ele>
        <time>2011-06-25T16:18:45Z</time>
      </trkpt>
      <trkpt lat="46.3114" lon="-0.31951">
        <ele>68.8259</ele>
        <time>2011-06-25T16:18:46Z</time>
      </trkpt>
      <trkpt lat="46.31141" lon="-0.3195">
        <ele>68.8764</ele>
        <time>2011-06-25T16:18:47Z</time>
      </trkpt>
      <trkpt lat="46.31143" lon="-0.31949">
        <ele>68.9189</ele>
        <time>2011-06-25T16:18:48Z</time>
      </trkpt>
      <trkpt lat="46.31144" lon="-0.31948">
        <ele>68.9588</ele>
        <time>2011-06-25T16:18:49Z</time>
      </trkpt>
      <trkpt lat="46.31145" lon="-0.31947">
        <ele>68.9983</ele>
        <time>2011-06-25T16:18:50Z</time>
      </trkpt>
      <trkpt lat="46.31146" lon="-0.31946">
        <ele>69.0332</ele>
        <time>2011-06-25T16:18:51Z</time>
      </trkpt>
      <trkpt lat="46.31147" lon="-0.31944">
        <ele>69.0649</ele>
        <time>2011-06-25T16:18:52Z</time>
      </trkpt>
      <trkpt lat="46.31149" lon="-0.31943">
        <ele>69.0927</ele>
        <time>2011-06-25T16:18:53Z</time>
      </trkpt>
      <trkpt lat="46.31149" lon="-0.31942">
        <ele>69.1205</ele>
        <time>2011-06-25T16:18:54Z</time>
      </trkpt>
      <trkpt lat="46.3115" lon="-0.31941">
        <ele>69.1479</ele>
        <time>2011-06-25T16:18:55Z</time>
      </trkpt>
      <trkpt lat="46.31151" lon="-0.3194">
        <ele>69.1746</ele>
        <time>2011-06-25T16:18:56Z</time>
      </trkpt>
      <trkpt lat="46.31152" lon="-0.31938">
        <ele>69.2005</ele>
        <time>2011-06-25T16:18:57Z</time>
      </trkpt>
      <trkpt lat="46.31153" lon="-0.31937">
        <ele>69.2238</ele>
        <time>2011-06-25T16:18:58Z</time>
      </trkpt>
      <trkpt lat="46.31154" lon="-0.31936">
        <ele>69.2438</ele>
        <time>2011-06-25T16:18:59Z</time>
      </trkpt>
      <trkpt lat="46.31155" lon="-0.31935">
        <ele>69.2595</ele>
        <time>2011-06-25T16:19:00Z</time>
      </trkpt>
      <trkpt lat="46.31156" lon="-0.31934">
        <ele>69.2752</ele>
        <time>2011-06-25T16:19:01Z</time>
      </trkpt>
      <trkpt lat="46.31157" lon="-0.31933">
        <ele>69.2907</ele>
        <time>2011-06-25T16:19:02Z</time>
      </trkpt>
      <trkpt lat="46.31158" lon="-0.31932">
        <ele>69.3057</ele>
        <time>2011-06-25T16:19:03Z</time>
      </trkpt>
      <trkpt lat="46.3116" lon="-0.31931">
        <ele>69.3184</ele>
        <time>2011-06-25T16:19:04Z</time>
      </trkpt>
      <trkpt lat="46.3116" lon="-0.3193">
        <ele>69.3305</ele>
        <time>2011-06-25T16:19:05Z</time>
      </trkpt>
      <trkpt lat="46.31162" lon="-0.31928">
        <ele>69.3434</ele>
        <time>2011-06-25T16:19:06Z</time>
      </trkpt>
      <trkpt lat="46.31163" lon="-0.31927">
        <ele>69.3562</ele>
        <time>2011-06-25T16:19:07Z</time>
      </trkpt>
      <trkpt lat="46.31163" lon="-0.31926">
        <ele>69.3676</ele>
        <time>2011-06-25T16:19:08Z</time>
      </trkpt>
      <trkpt lat="46.31165" lon="-0.31924">
        <ele>69.3791</ele>
        <time>2011-06-25T16:19:09Z</time>
      </trkpt>
      <trkpt lat="46.31165" lon="-0.31923">
        <ele>69.3897</ele>
        <time>2011-06-25T16:19:10Z</time>
      </trkpt>
      <trkpt lat="46.31167" lon="-0.31922">
        <ele>69.3999</ele>
        <time>2011-06-25T16:19:11Z</time>
      </trkpt>
      <trkpt lat="46.31167" lon="-0.3192">
        <ele>69.4088</ele>
        <time>2011-06-25T16:19:12Z</time>
      </trkpt>
      <trkpt lat="46.31168" lon="-0.31919">
        <ele>69.4165</ele>
        <time>2011-06-25T16:19:13Z</time>
      </trkpt>
      <trkpt lat="46.31169" lon="-0.31918">
        <ele>69.4236</ele>
        <time>2011-06-25T16:19:14Z</time>
      </trkpt>
      <trkpt lat="46.3117" lon="-0.31917">
        <ele>69.4299</ele>
        <time>2011-06-25T16:19:15Z</time>
      </trkpt>
      <trkpt lat="46.31171" lon="-0.31916">
        <ele>69.4346</ele>
        <time>2011-06-25T16:19:16Z</time>
      </trkpt>
      <trkpt lat="46.31172" lon="-0.31915">
        <ele>69.4391</ele>
        <time>2011-06-25T16:19:17Z</time>
      </trkpt>
      <trkpt lat="46.31173" lon="-0.31914">
        <ele>69.4411</ele>
        <time>2011-06-25T16:19:18Z</time>
      </trkpt>
      <trkpt lat="46.31174" lon="-0.31912">
        <ele>69.4434</ele>
        <time>2011-06-25T16:19:19Z</time>
      </trkpt>
      <trkpt lat="46.31175" lon="-0.31911">
        <ele>69.442</ele>
        <time>2011-06-25T16:19:20Z</time>
      </trkpt>
      <trkpt lat="46.31176" lon="-0.3191">
        <ele>69.4408</ele>
        <time>2011-06-25T16:19:21Z</time>
      </trkpt>
      <trkpt lat="46.31176" lon="-0.31909">
        <ele>69.4344</ele>
        <time>2011-06-25T16:19:22Z</time>
      </trkpt>
      <trkpt lat="46.31178" lon="-0.31907">
        <ele>69.4269</ele>
        <time>2011-06-25T16:19:23Z</time>
      </trkpt>
      <trkpt lat="46.31178" lon="-0.31906">
        <ele>69.4174</ele>
        <time>2011-06-25T16:19:24Z</time>
      </trkpt>
      <trkpt lat="46.31179" lon="-0.31905">
        <ele>69.409</ele>
        <time>2011-06-25T16:19:25Z</time>
      </trkpt>
      <trkpt lat="46.31181" lon="-0.31903">
        <ele>69.3999</ele>
        <time>2011-06-25T16:19:26Z</time>
      </trkpt>
      <trkpt lat="46.31182" lon="-0.31901">
        <ele>69.3899</ele>
        <time>2011-06-25T16:19:27Z</time>
      </trkpt>
      <trkpt lat="46.31183" lon="-0.319">
        <ele>69.3796</ele>
        <time>2011-06-25T16:19:28Z</time>
      </trkpt>
      <trkpt lat="46.31184" lon="-0.31899">
        <ele>69.3689</ele>
        <time>2011-06-25T16:19:29Z</time>
      </trkpt>
      <trkpt lat="46.31185" lon="-0.31897">
        <ele>69.3587</ele>
        <time>2011-06-25T16:19:30Z</time>
      </trkpt>
      <trkpt lat="46.31186" lon="-0.31896">
        <ele>69.3498</ele>
        <time>2011-06-25T16:19:31Z</time>
      </trkpt>
      <trkpt lat="46.31187" lon="-0.31895">
        <ele>69.3419</ele>
        <time>2011-06-25T16:19:32Z</time>
      </trkpt>
      <trkpt lat="46.31188" lon="-0.31894">
        <ele>69.3355</ele>
        <time>2011-06-25T16:19:33Z</time>
      </trkpt>
      <trkpt lat="46.31189" lon="-0.31892">
        <ele>69.3314</ele>
        <time>2011-06-25T16:19:34Z</time>
      </trkpt>
      <trkpt lat="46.31189" lon="-0.31891">
        <ele>69.3294</ele>
        <time>2011-06-25T16:19:35Z</time>
      </trkpt>
      <trkpt lat="46.3119" lon="-0.31889">
        <ele>69.3282</ele>
        <time>2011-06-25T16:19:36Z</time>
      </trkpt>
      <trkpt lat="46.31191" lon="-0.31888">
        <ele>69.3302</ele>
        <time>2011-06-25T16:19:37Z</time>
      </trkpt>
      <trkpt lat="46.31192" lon="-0.31887">
        <ele>69.3363</ele>
        <time>2011-06-25T16:19:38Z</time>
      </trkpt>
      <trkpt lat="46.31192" lon="-0.31886">
        <ele>69.3424</ele>
        <time>2011-06-25T16:19:39Z</time>
      </trkpt>
      <trkpt lat="46.31193" lon="-0.31886">
        <ele>69.3479</ele>
        <time>2011-06-25T16:19:40Z</time>
      </trkpt>
      <trkpt lat="46.31194" lon="-0.31885">
        <ele>69.3533</ele>
        <time>2011-06-25T16:19:41Z</time>
      </trkpt>
      <trkpt lat="46.31194" lon="-0.31884">
        <ele>69.3586</ele>
        <time>2011-06-25T16:19:42Z</time>
      </trkpt>
      <trkpt lat="46.31195" lon="-0.31883">
        <ele>69.3643</ele>
        <time>2011-06-25T16:19:43Z</time>
      </trkpt>
      <trkpt lat="46.31195" lon="-0.31882">
        <ele>69.3701</ele>
        <time>2011-06-25T16:19:44Z</time>
      </trkpt>
      <trkpt lat="46.31196" lon="-0.3188">
        <ele>69.3758</ele>
        <time>2011-06-25T16:19:45Z</time>
      </trkpt>
      <trkpt lat="46.31197" lon="-0.31879">
        <ele>69.3831</ele>
        <time>2011-06-25T16:19:46Z</time>
      </trkpt>
      <trkpt lat="46.31198" lon="-0.31877">
        <ele>69.3905</ele>
        <time>2011-06-25T16:19:47Z</time>
      </trkpt>
      <trkpt lat="46.31199" lon="-0.31875">
        <ele>69.3992</ele>
        <time>2011-06-25T16:19:48Z</time>
      </trkpt>
      <trkpt lat="46.31199" lon="-0.31873">
        <ele>69.4084</ele>
        <time>2011-06-25T16:19:49Z</time>
      </trkpt>
      <trkpt lat="46.312" lon="-0.31871">
        <ele>69.4177</ele>
        <time>2011-06-25T16:19:50Z</time>
      </trkpt>
      <trkpt lat="46.312" lon="-0.3187">
        <ele>69.4283</ele>
        <time>2011-06-25T16:19:51Z</time>
      </trkpt>
      <trkpt lat="46.31201" lon="-0.31868">
        <ele>69.4431</ele>
        <time>2011-06-25T16:19:52Z</time>
      </trkpt>
      <trkpt lat="46.31202" lon="-0.31866">
        <ele>69.4598</ele>
        <time>2011-06-25T16:19:53Z</time>
      </trkpt>
      <trkpt lat="46.31203" lon="-0.31864">
        <ele>69.4785</ele>
        <time>2011-06-25T16:19:54Z</time>
      </trkpt>
      <trkpt lat="46.31203" lon="-0.31862">
        <ele>69.4966</ele>
        <time>2011-06-25T16:19:55Z</time>
      </trkpt>
      <trkpt lat="46.31204" lon="-0.3186">
        <ele>69.5138</ele>
        <time>2011-06-25T16:19:56Z</time>
      </trkpt>
      <trkpt lat="46.31205" lon="-0.31858">
        <ele>69.5319</ele>
        <time>2011-06-25T16:19:57Z</time>
      </trkpt>
      <trkpt lat="46.31205" lon="-0.31857">
        <ele>69.5507</ele>
        <time>2011-06-25T16:19:58Z</time>
      </trkpt>
      <trkpt lat="46.31206" lon="-0.31855">
        <ele>69.569</ele>
        <time>2011-06-25T16:19:59Z</time>
      </trkpt>
      <trkpt lat="46.31207" lon="-0.31854">
        <ele>69.5874</ele>
        <time>2011-06-25T16:20:00Z</time>
      </trkpt>
      <trkpt lat="46.31208" lon="-0.31852">
        <ele>69.6056</ele>
        <time>2011-06-25T16:20:01Z</time>
      </trkpt>
      <trkpt lat="46.31208" lon="-0.3185">
        <ele>69.6224</ele>
        <time>2011-06-25T16:20:02Z</time>
      </trkpt>
      <trkpt lat="46.31209" lon="-0.31849">
        <ele>69.6398</ele>
        <time>2011-06-25T16:20:03Z</time>
      </trkpt>
      <trkpt lat="46.3121" lon="-0.31847">
        <ele>69.6585</ele>
        <time>2011-06-25T16:20:04Z</time>
      </trkpt>
      <trkpt lat="46.3121" lon="-0.31846">
        <ele>69.6769</ele>
        <time>2011-06-25T16:20:05Z</time>
      </trkpt>
      <trkpt lat="46.31211" lon="-0.31844">
        <ele>69.6996</ele>
        <time>2011-06-25T16:20:06Z</time>
      </trkpt>
      <trkpt lat="46.31212" lon="-0.31842">
        <ele>69.7226</ele>
        <time>2011-06-25T16:20:07Z</time>
      </trkpt>
      <trkpt lat="46.31213" lon="-0.31841">
        <ele>69.7462</ele>
        <time>2011-06-25T16:20:08Z</time>
      </trkpt>
      <trkpt lat="46.31213" lon="-0.31839">
        <ele>69.7712</ele>
        <time>2011-06-25T16:20:09Z</time>
      </trkpt>
      <trkpt lat="46.31214" lon="-0.31838">
        <ele>69.7986</ele>
        <time>2011-06-25T16:20:10Z</time>
      </trkpt>
      <trkpt lat="46.31215" lon="-0.31837">
        <ele>69.8274</ele>
        <time>2011-06-25T16:20:11Z</time>
      </trkpt>
      <trkpt lat="46.31216" lon="-0.31835">
        <ele>69.8568</ele>
        <time>2011-06-25T16:20:12Z</time>
      </trkpt>
      <trkpt lat="46.31216" lon="-0.31834">
        <ele>69.8879</ele>
        <time>2011-06-25T16:20:13Z</time>
      </trkpt>
      <trkpt lat="46.31217" lon="-0.31833">
        <ele>69.9184</ele>
        <time>2011-06-25T16:20:14Z</time>
      </trkpt>
      <trkpt lat="46.31218" lon="-0.31832">
        <ele>69.9495</ele>
        <time>2011-06-25T16:20:15Z</time>
      </trkpt>
      <trkpt lat="46.31218" lon="-0.3183">
        <ele>69.9806</ele>
        <time>2011-06-25T16:20:16Z</time>
      </trkpt>
      <trkpt lat="46.31219" lon="-0.31828">
        <ele>70.012</ele>
        <time>2011-06-25T16:20:17Z</time>
      </trkpt>
      <trkpt lat="46.3122" lon="-0.31827">
        <ele>70.0448</ele>
        <time>2011-06-25T16:20:18Z</time>
      </trkpt>
      <trkpt lat="46.31221" lon="-0.31825">
        <ele>70.0776</ele>
        <time>2011-06-25T16:20:19Z</time>
      </trkpt>
      <trkpt lat="46.31222" lon="-0.31823">
        <ele>70.1114</ele>
        <time>2011-06-25T16:20:20Z</time>
      </trkpt>
      <trkpt lat="46.31223" lon="-0.31822">
        <ele>70.1456</ele>
        <time>2011-06-25T16:20:21Z</time>
      </trkpt>
      <trkpt lat="46.31223" lon="-0.3182">
        <ele>70.181</ele>
        <time>2011-06-25T16:20:22Z</time>
      </trkpt>
      <trkpt lat="46.31224" lon="-0.31819">
        <ele>70.2161</ele>
        <time>2011-06-25T16:20:23Z</time>
      </trkpt>
      <trkpt lat="46.31225" lon="-0.31817">
        <ele>70.2531</ele>
        <time>2011-06-25T16:20:24Z</time>
      </trkpt>
      <trkpt lat="46.31226" lon="-0.31816">
        <ele>70.2892</ele>
        <time>2011-06-25T16:20:25Z</time>
      </trkpt>
      <trkpt lat="46.31227" lon="-0.31815">
        <ele>70.327</ele>
        <time>2011-06-25T16:20:26Z</time>
      </trkpt>
      <trkpt lat="46.31228" lon="-0.31814">
        <ele>70.3643</ele>
        <time>2011-06-25T16:20:27Z</time>
      </trkpt>
      <trkpt lat="46.31228" lon="-0.31812">
        <ele>70.4013</ele>
        <time>2011-06-25T16:20:28Z</time>
      </trkpt>
      <trkpt lat="46.31229" lon="-0.3181">
        <ele>70.4388</ele>
        <time>2011-06-25T16:20:29Z</time>
      </trkpt>
      <trkpt lat="46.3123" lon="-0.31808">
        <ele>70.478</ele>
        <time>2011-06-25T16:20:30Z</time>
      </trkpt>
      <trkpt lat="46.31231" lon="-0.31807">
        <ele>70.5197</ele>
        <time>2011-06-25T16:20:31Z</time>
      </trkpt>
      <trkpt lat="46.31232" lon="-0.31805">
        <ele>70.5648</ele>
        <time>2011-06-25T16:20:32Z</time>
      </trkpt>
      <trkpt lat="46.31233" lon="-0.31804">
        <ele>70.6139</ele>
        <time>2011-06-25T16:20:33Z</time>
      </trkpt>
      <trkpt lat="46.31234" lon="-0.31803">
        <ele>70.6659</ele>
        <time>2011-06-25T16:20:34Z</time>
      </trkpt>
      <trkpt lat="46.31235" lon="-0.31802">
        <ele>70.7223</ele>
        <time>2011-06-25T16:20:35Z</time>
      </trkpt>
      <trkpt lat="46.31236" lon="-0.31801">
        <ele>70.7831</ele>
        <time>2011-06-25T16:20:36Z</time>
      </trkpt>
      <trkpt lat="46.31237" lon="-0.318">
        <ele>70.8473</ele>
        <time>2011-06-25T16:20:37Z</time>
      </trkpt>
      <trkpt lat="46.31238" lon="-0.31799">
        <ele>70.9127</ele>
        <time>2011-06-25T16:20:38Z</time>
      </trkpt>
      <trkpt lat="46.31239" lon="-0.31797">
        <ele>70.9818</ele>
        <time>2011-06-25T16:20:39Z</time>
      </trkpt>
      <trkpt lat="46.3124" lon="-0.31796">
        <ele>71.051</ele>
        <time>2011-06-25T16:20:40Z</time>
      </trkpt>
      <trkpt lat="46.31241" lon="-0.31795">
        <ele>71.1227</ele>
        <time>2011-06-25T16:20:41Z</time>
      </trkpt>
      <trkpt lat="46.31242" lon="-0.31794">
        <ele>71.1942</ele>
        <time>2011-06-25T16:20:42Z</time>
      </trkpt>
      <trkpt lat="46.31242" lon="-0.31793">
        <ele>71.2698</ele>
        <time>2011-06-25T16:20:43Z</time>
      </trkpt>
      <trkpt lat="46.31244" lon="-0.31792">
        <ele>71.3474</ele>
        <time>2011-06-25T16:20:44Z</time>
      </trkpt>
      <trkpt lat="46.31244" lon="-0.31791">
        <ele>71.427</ele>
        <time>2011-06-25T16:20:45Z</time>
      </trkpt>
      <trkpt lat="46.31245" lon="-0.3179">
        <ele>71.5076</ele>
        <time>2011-06-25T16:20:46Z</time>
      </trkpt>
      <trkpt lat="46.31246" lon="-0.31789">
        <ele>71.5911</ele>
        <time>2011-06-25T16:20:47Z</time>
      </trkpt>
      <trkpt lat="46.31247" lon="-0.31788">
        <ele>71.6748</ele>
        <time>2011-06-25T16:20:48Z</time>
      </trkpt>
      <trkpt lat="46.31248" lon="-0.31786">
        <ele>71.7598</ele>
        <time>2011-06-25T16:20:49Z</time>
      </trkpt>
      <trkpt lat="46.31249" lon="-0.31785">
        <ele>71.8451</ele>
        <time>2011-06-25T16:20:50Z</time>
      </trkpt>
      <trkpt lat="46.3125" lon="-0.31784">
        <ele>71.9301</ele>
        <time>2011-06-25T16:20:51Z</time>
      </trkpt>
      <trkpt lat="46.3125" lon="-0.31783">
        <ele>72.0126</ele>
        <time>2011-06-25T16:20:52Z</time>
      </trkpt>
      <trkpt lat="46.31252" lon="-0.31782">
        <ele>72.0965</ele>
        <time>2011-06-25T16:20:53Z</time>
      </trkpt>
      <trkpt lat="46.31252" lon="-0.31781">
        <ele>72.1797</ele>
        <time>2011-06-25T16:20:54Z</time>
      </trkpt>
      <trkpt lat="46.31253" lon="-0.3178">
        <ele>72.2632</ele>
        <time>2011-06-25T16:20:55Z</time>
      </trkpt>
      <trkpt lat="46.31254" lon="-0.31778">
        <ele>72.3444</ele>
        <time>2011-06-25T16:20:56Z</time>
      </trkpt>
      <trkpt lat="46.31255" lon="-0.31777">
        <ele>72.4252</ele>
        <time>2011-06-25T16:20:57Z</time>
      </trkpt>
      <trkpt lat="46.31256" lon="-0.31776">
        <ele>72.5095</ele>
        <time>2011-06-25T16:20:58Z</time>
      </trkpt>
      <trkpt lat="46.31257" lon="-0.31775">
        <ele>72.5966</ele>
        <time>2011-06-25T16:20:59Z</time>
      </trkpt>
      <trkpt lat="46.31258" lon="-0.31774">
        <ele>72.6934</ele>
        <time>2011-06-25T16:21:00Z</time>
      </trkpt>
      <trkpt lat="46.3126" lon="-0.31773">
        <ele>72.802</ele>
        <time>2011-06-25T16:21:01Z</time>
      </trkpt>
      <trkpt lat="46.31261" lon="-0.31773">
        <ele>72.9164</ele>
        <time>2011-06-25T16:21:02Z</time>
      </trkpt>
      <trkpt lat="46.31263" lon="-0.31772">
        <ele>73.03</ele>
        <time>2011-06-25T16:21:03Z</time>
      </trkpt>
      <trkpt lat="46.31264" lon="-0.31771">
        <ele>73.1419</ele>
        <time>2011-06-25T16:21:04Z</time>
      </trkpt>
      <trkpt lat="46.31265" lon="-0.3177">
        <ele>73.2505</ele>
        <time>2011-06-25T16:21:05Z</time>
      </trkpt>
      <trkpt lat="46.31266" lon="-0.31769">
        <ele>73.3574</ele>
        <time>2011-06-25T16:21:06Z</time>
      </trkpt>
      <trkpt lat="46.31268" lon="-0.31768">
        <ele>73.4623</ele>
        <time>2011-06-25T16:21:07Z</time>
      </trkpt>
      <trkpt lat="46.31269" lon="-0.31768">
        <ele>73.5661</ele>
        <time>2011-06-25T16:21:08Z</time>
      </trkpt>
      <trkpt lat="46.3127" lon="-0.31766">
        <ele>73.6661</ele>
        <time>2011-06-25T16:21:09Z</time>
      </trkpt>
      <trkpt lat="46.31271" lon="-0.31765">
        <ele>73.7637</ele>
        <time>2011-06-25T16:21:10Z</time>
      </trkpt>
      <trkpt lat="46.31271" lon="-0.31764">
        <ele>73.8601</ele>
        <time>2011-06-25T16:21:11Z</time>
      </trkpt>
      <trkpt lat="46.31273" lon="-0.31763">
        <ele>73.9529</ele>
        <time>2011-06-25T16:21:12Z</time>
      </trkpt>
      <trkpt lat="46.31274" lon="-0.31762">
        <ele>74.0439</ele>
        <time>2011-06-25T16:21:13Z</time>
      </trkpt>
      <trkpt lat="46.31274" lon="-0.31761">
        <ele>74.1332</ele>
        <time>2011-06-25T16:21:14Z</time>
      </trkpt>
      <trkpt lat="46.31276" lon="-0.3176">
        <ele>74.2201</ele>
        <time>2011-06-25T16:21:15Z</time>
      </trkpt>
      <trkpt lat="46.31277" lon="-0.31759">
        <ele>74.3048</ele>
        <time>2011-06-25T16:21:16Z</time>
      </trkpt>
      <trkpt lat="46.31278" lon="-0.31758">
        <ele>74.3874</ele>
        <time>2011-06-25T16:21:17Z</time>
      </trkpt>
      <trkpt lat="46.31279" lon="-0.31757">
        <ele>74.4703</ele>
        <time>2011-06-25T16:21:18Z</time>
      </trkpt>
      <trkpt lat="46.3128" lon="-0.31756">
        <ele>74.5501</ele>
        <time>2011-06-25T16:21:19Z</time>
      </trkpt>
      <trkpt lat="46.31281" lon="-0.31755">
        <ele>74.6289</ele>
        <time>2011-06-25T16:21:20Z</time>
      </trkpt>
      <trkpt lat="46.31282" lon="-0.31754">
        <ele>74.7075</ele>
        <time>2011-06-25T16:21:21Z</time>
      </trkpt>
      <trkpt lat="46.31283" lon="-0.31753">
        <ele>74.7923</ele>
        <time>2011-06-25T16:21:22Z</time>
      </trkpt>
      <trkpt lat="46.31284" lon="-0.31752">
        <ele>74.8753</ele>
        <time>2011-06-25T16:21:23Z</time>
      </trkpt>
      <trkpt lat="46.31285" lon="-0.31751">
        <ele>74.9567</ele>
        <time>2011-06-25T16:21:24Z</time>
      </trkpt>
      <trkpt lat="46.31286" lon="-0.3175">
        <ele>75.0351</ele>
        <time>2011-06-25T16:21:25Z</time>
      </trkpt>
      <trkpt lat="46.31287" lon="-0.31749">
        <ele>75.1129</ele>
        <time>2011-06-25T16:21:26Z</time>
      </trkpt>
      <trkpt lat="46.31289" lon="-0.31747">
        <ele>75.1891</ele>
        <time>2011-06-25T16:21:27Z</time>
      </trkpt>
      <trkpt lat="46.3129" lon="-0.31746">
        <ele>75.2628</ele>
        <time>2011-06-25T16:21:28Z</time>
      </trkpt>
      <trkpt lat="46.31291" lon="-0.31745">
        <ele>75.3335</ele>
        <time>2011-06-25T16:21:29Z</time>
      </trkpt>
      <trkpt lat="46.31292" lon="-0.31745">
        <ele>75.4046</ele>
        <time>2011-06-25T16:21:30Z</time>
      </trkpt>
      <trkpt lat="46.31294" lon="-0.31744">
        <ele>75.4785</ele>
        <time>2011-06-25T16:21:31Z</time>
      </trkpt>
      <trkpt lat="46.31295" lon="-0.31743">
        <ele>75.5507</ele>
        <time>2011-06-25T16:21:32Z</time>
      </trkpt>
      <trkpt lat="46.31296" lon="-0.31742">
        <ele>75.6199</ele>
        <time>2011-06-25T16:21:33Z</time>
      </trkpt>
      <trkpt lat="46.31297" lon="-0.31741">
        <ele>75.6878</ele>
        <time>2011-06-25T16:21:34Z</time>
      </trkpt>
      <trkpt lat="46.31298" lon="-0.3174">
        <ele>75.7532</ele>
        <time>2011-06-25T16:21:35Z</time>
      </trkpt>
      <trkpt lat="46.31299" lon="-0.31739">
        <ele>75.8172</ele>
        <time>2011-06-25T16:21:36Z</time>
      </trkpt>
      <trkpt lat="46.313" lon="-0.31738">
        <ele>75.8795</ele>
        <time>2011-06-25T16:21:37Z</time>
      </trkpt>
      <trkpt lat="46.31301" lon="-0.31736">
        <ele>75.9399</ele>
        <time>2011-06-25T16:21:38Z</time>
      </trkpt>
      <trkpt lat="46.31302" lon="-0.31735">
        <ele>75.998</ele>
        <time>2011-06-25T16:21:39Z</time>
      </trkpt>
      <trkpt lat="46.31303" lon="-0.31734">
        <ele>76.0541</ele>
        <time>2011-06-25T16:21:40Z</time>
      </trkpt>
      <trkpt lat="46.31305" lon="-0.31733">
        <ele>76.1095</ele>
        <time>2011-06-25T16:21:41Z</time>
      </trkpt>
      <trkpt lat="46.31306" lon="-0.31732">
        <ele>76.1629</ele>
        <time>2011-06-25T16:21:42Z</time>
      </trkpt>
      <trkpt lat="46.31307" lon="-0.31731">
        <ele>76.2156</ele>
        <time>2011-06-25T16:21:43Z</time>
      </trkpt>
      <trkpt lat="46.31308" lon="-0.31731">
        <ele>76.2731</ele>
        <time>2011-06-25T16:21:44Z</time>
      </trkpt>
      <trkpt lat="46.31309" lon="-0.3173">
        <ele>76.3274</ele>
        <time>2011-06-25T16:21:45Z</time>
      </trkpt>
      <trkpt lat="46.31311" lon="-0.31729">
        <ele>76.3862</ele>
        <time>2011-06-25T16:21:46Z</time>
      </trkpt>
      <trkpt lat="46.31312" lon="-0.31728">
        <ele>76.4418</ele>
        <time>2011-06-25T16:21:47Z</time>
      </trkpt>
      <trkpt lat="46.31313" lon="-0.31727">
        <ele>76.4955</ele>
        <time>2011-06-25T16:21:48Z</time>
      </trkpt>
      <trkpt lat="46.31315" lon="-0.31726">
        <ele>76.5482</ele>
        <time>2011-06-25T16:21:49Z</time>
      </trkpt>
      <trkpt lat="46.31316" lon="-0.31725">
        <ele>76.6071</ele>
        <time>2011-06-25T16:21:50Z</time>
      </trkpt>
      <trkpt lat="46.31317" lon="-0.31724">
        <ele>76.6708</ele>
        <time>2011-06-25T16:21:51Z</time>
      </trkpt>
      <trkpt lat="46.31319" lon="-0.31723">
        <ele>76.7371</ele>
        <time>2011-06-25T16:21:52Z</time>
      </trkpt>
      <trkpt lat="46.3132" lon="-0.31723">
        <ele>76.806</ele>
        <time>2011-06-25T16:21:53Z</time>
      </trkpt>
      <trkpt lat="46.31321" lon="-0.31721">
        <ele>76.8736</ele>
        <time>2011-06-25T16:21:54Z</time>
      </trkpt>
      <trkpt lat="46.31323" lon="-0.3172">
        <ele>76.9376</ele>
        <time>2011-06-25T16:21:55Z</time>
      </trkpt>
      <trkpt lat="46.31324" lon="-0.31719">
        <ele>77.0004</ele>
        <time>2011-06-25T16:21:56Z</time>
      </trkpt>
      <trkpt lat="46.31325" lon="-0.31719">
        <ele>77.0614</ele>
        <time>2011-06-25T16:21:57Z</time>
      </trkpt>
      <trkpt lat="46.31326" lon="-0.31718">
        <ele>77.1207</ele>
        <time>2011-06-25T16:21:58Z</time>
      </trkpt>
      <trkpt lat="46.31327" lon="-0.31716">
        <ele>77.1782</ele>
        <time>2011-06-25T16:21:59Z</time>
      </trkpt>
      <trkpt lat="46.31329" lon="-0.31715">
        <ele>77.2323</ele>
        <time>2011-06-25T16:22:00Z</time>
      </trkpt>
      <trkpt lat="46.3133" lon="-0.31714">
        <ele>77.2854</ele>
        <time>2011-06-25T16:22:01Z</time>
      </trkpt>
      <trkpt lat="46.31331" lon="-0.31713">
        <ele>77.3378</ele>
        <time>2011-06-25T16:22:02Z</time>
      </trkpt>
      <trkpt lat="46.31332" lon="-0.31712">
        <ele>77.389</ele>
        <time>2011-06-25T16:22:03Z</time>
      </trkpt>
      <trkpt lat="46.31333" lon="-0.31711">
        <ele>77.4423</ele>
        <time>2011-06-25T16:22:04Z</time>
      </trkpt>
      <trkpt lat="46.31334" lon="-0.3171">
        <ele>77.4969</ele>
        <time>2011-06-25T16:22:05Z</time>
      </trkpt>
      <trkpt lat="46.31335" lon="-0.31709">
        <ele>77.5517</ele>
        <time>2011-06-25T16:22:06Z</time>
      </trkpt>
      <trkpt lat="46.31337" lon="-0.31708">
        <ele>77.6078</ele>
        <time>2011-06-25T16:22:07Z</time>
      </trkpt>
      <trkpt lat="46.31338" lon="-0.31707">
        <ele>77.6638</ele>
        <time>2011-06-25T16:22:08Z</time>
      </trkpt>
      <trkpt lat="46.31339" lon="-0.31707">
        <ele>77.7187</ele>
        <time>2011-06-25T16:22:09Z</time>
      </trkpt>
      <trkpt lat="46.3134" lon="-0.31706">
        <ele>77.7735</ele>
        <time>2011-06-25T16:22:10Z</time>
      </trkpt>
      <trkpt lat="46.31341" lon="-0.31705">
        <ele>77.8308</ele>
        <time>2011-06-25T16:22:11Z</time>
      </trkpt>
      <trkpt lat="46.31342" lon="-0.31704">
        <ele>77.8894</ele>
        <time>2011-06-25T16:22:12Z</time>
      </trkpt>
      <trkpt lat="46.31344" lon="-0.31703">
        <ele>77.9494</ele>
        <time>2011-06-25T16:22:13Z</time>
      </trkpt>
      <trkpt lat="46.31345" lon="-0.31702">
        <ele>78.0106</ele>
        <time>2011-06-25T16:22:14Z</time>
      </trkpt>
      <trkpt lat="46.31346" lon="-0.31701">
        <ele>78.0712</ele>
        <time>2011-06-25T16:22:15Z</time>
      </trkpt>
      <trkpt lat="46.31347" lon="-0.317">
        <ele>78.1327</ele>
        <time>2011-06-25T16:22:16Z</time>
      </trkpt>
      <trkpt lat="46.31348" lon="-0.31699">
        <ele>78.1952</ele>
        <time>2011-06-25T16:22:17Z</time>
      </trkpt>
      <trkpt lat="46.3135" lon="-0.31698">
        <ele>78.2597</ele>
        <time>2011-06-25T16:22:18Z</time>
      </trkpt>
      <trkpt lat="46.31351" lon="-0.31697">
        <ele>78.3258</ele>
        <time>2011-06-25T16:22:19Z</time>
      </trkpt>
      <trkpt lat="46.31352" lon="-0.31696">
        <ele>78.3935</ele>
        <time>2011-06-25T16:22:20Z</time>
      </trkpt>
      <trkpt lat="46.31353" lon="-0.31695">
        <ele>78.4595</ele>
        <time>2011-06-25T16:22:21Z</time>
      </trkpt>
      <trkpt lat="46.31354" lon="-0.31694">
        <ele>78.5244</ele>
        <time>2011-06-25T16:22:22Z</time>
      </trkpt>
      <trkpt lat="46.31355" lon="-0.31692">
        <ele>78.5879</ele>
        <time>2011-06-25T16:22:23Z</time>
      </trkpt>
      <trkpt lat="46.31356" lon="-0.31691">
        <ele>78.6506</ele>
        <time>2011-06-25T16:22:24Z</time>
      </trkpt>
      <trkpt lat="46.31358" lon="-0.31689">
        <ele>78.7096</ele>
        <time>2011-06-25T16:22:25Z</time>
      </trkpt>
      <trkpt lat="46.31359" lon="-0.31688">
        <ele>78.7674</ele>
        <time>2011-06-25T16:22:26Z</time>
      </trkpt>
      <trkpt lat="46.3136" lon="-0.31687">
        <ele>78.8245</ele>
        <time>2011-06-25T16:22:27Z</time>
      </trkpt>
      <trkpt lat="46.31361" lon="-0.31686">
        <ele>78.8806</ele>
        <time>2011-06-25T16:22:28Z</time>
      </trkpt>
      <trkpt lat="46.31362" lon="-0.31685">
        <ele>78.9368</ele>
        <time>2011-06-25T16:22:29Z</time>
      </trkpt>
      <trkpt lat="46.31363" lon="-0.31685">
        <ele>78.9882</ele>
        <time>2011-06-25T16:22:30Z</time>
      </trkpt>
      <trkpt lat="46.31364" lon="-0.31684">
        <ele>79.0319</ele>
        <time>2011-06-25T16:22:31Z</time>
      </trkpt>
      <trkpt lat="46.31365" lon="-0.31683">
        <ele>79.0708</ele>
        <time>2011-06-25T16:22:32Z</time>
      </trkpt>
      <trkpt lat="46.31366" lon="-0.31682">
        <ele>79.1049</ele>
        <time>2011-06-25T16:22:33Z</time>
      </trkpt>
      <trkpt lat="46.31368" lon="-0.31682">
        <ele>79.1334</ele>
        <time>2011-06-25T16:22:34Z</time>
      </trkpt>
      <trkpt lat="46.31369" lon="-0.31681">
        <ele>79.1592</ele>
        <time>2011-06-25T16:22:35Z</time>
      </trkpt>
      <trkpt lat="46.3137" lon="-0.31681">
        <ele>79.1834</ele>
        <time>2011-06-25T16:22:36Z</time>
      </trkpt>
      <trkpt lat="46.31371" lon="-0.3168">
        <ele>79.2056</ele>
        <time>2011-06-25T16:22:37Z</time>
      </trkpt>
      <trkpt lat="46.31372" lon="-0.31679">
        <ele>79.2265</ele>
        <time>2011-06-25T16:22:38Z</time>
      </trkpt>
      <trkpt lat="46.31373" lon="-0.31679">
        <ele>79.2447</ele>
        <time>2011-06-25T16:22:39Z</time>
      </trkpt>
      <trkpt lat="46.31374" lon="-0.31678">
        <ele>79.2588</ele>
        <time>2011-06-25T16:22:40Z</time>
      </trkpt>
      <trkpt lat="46.31376" lon="-0.31677">
        <ele>79.2696</ele>
        <time>2011-06-25T16:22:41Z</time>
      </trkpt>
      <trkpt lat="46.31377" lon="-0.31676">
        <ele>79.277</ele>
        <time>2011-06-25T16:22:42Z</time>
      </trkpt>
      <trkpt lat="46.31378" lon="-0.31675">
        <ele>79.2827</ele>
        <time>2011-06-25T16:22:43Z</time>
      </trkpt>
      <trkpt lat="46.31379" lon="-0.31674">
        <ele>79.2874</ele>
        <time>2011-06-25T16:22:44Z</time>
      </trkpt>
      <trkpt lat="46.31381" lon="-0.31673">
        <ele>79.2917</ele>
        <time>2011-06-25T16:22:45Z</time>
      </trkpt>
      <trkpt lat="46.31382" lon="-0.31672">
        <ele>79.2969</ele>
        <time>2011-06-25T16:22:46Z</time>
      </trkpt>
      <trkpt lat="46.31382" lon="-0.31672">
        <ele>79.3019</ele>
        <time>2011-06-25T16:22:47Z</time>
      </trkpt>
      <trkpt lat="46.31384" lon="-0.31671">
        <ele>79.3062</ele>
        <time>2011-06-25T16:22:48Z</time>
      </trkpt>
      <trkpt lat="46.31385" lon="-0.3167">
        <ele>79.3106</ele>
        <time>2011-06-25T16:22:49Z</time>
      </trkpt>
      <trkpt lat="46.31386" lon="-0.31669">
        <ele>79.3146</ele>
        <time>2011-06-25T16:22:50Z</time>
      </trkpt>
      <trkpt lat="46.31387" lon="-0.31668">
        <ele>79.3189</ele>
        <time>2011-06-25T16:22:51Z</time>
      </trkpt>
      <trkpt lat="46.31388" lon="-0.31668">
        <ele>79.324</ele>
        <time>2011-06-25T16:22:52Z</time>
      </trkpt>
      <trkpt lat="46.31389" lon="-0.31667">
        <ele>79.3292</ele>
        <time>2011-06-25T16:22:53Z</time>
      </trkpt>
      <trkpt lat="46.3139" lon="-0.31666">
        <ele>79.3341</ele>
        <time>2011-06-25T16:22:54Z</time>
      </trkpt>
      <trkpt lat="46.31391" lon="-0.31664">
        <ele>79.3393</ele>
        <time>2011-06-25T16:22:55Z</time>
      </trkpt>
      <trkpt lat="46.31392" lon="-0.31663">
        <ele>79.3455</ele>
        <time>2011-06-25T16:22:56Z</time>
      </trkpt>
      <trkpt lat="46.31393" lon="-0.31663">
        <ele>79.3511</ele>
        <time>2011-06-25T16:22:57Z</time>
      </trkpt>
      <trkpt lat="46.31394" lon="-0.31662">
        <ele>79.3564</ele>
        <time>2011-06-25T16:22:58Z</time>
      </trkpt>
      <trkpt lat="46.31395" lon="-0.3166">
        <ele>79.3615</ele>
        <time>2011-06-25T16:22:59Z</time>
      </trkpt>
      <trkpt lat="46.31396" lon="-0.31659">
        <ele>79.3665</ele>
        <time>2011-06-25T16:23:00Z</time>
      </trkpt>
      <trkpt lat="46.31397" lon="-0.31659">
        <ele>79.3715</ele>
        <time>2011-06-25T16:23:01Z</time>
      </trkpt>
      <trkpt lat="46.31398" lon="-0.31658">
        <ele>79.3761</ele>
        <time>2011-06-25T16:23:02Z</time>
      </trkpt>
      <trkpt lat="46.31399" lon="-0.31657">
        <ele>79.3801</ele>
        <time>2011-06-25T16:23:03Z</time>
      </trkpt>
      <trkpt lat="46.314" lon="-0.31655">
        <ele>79.384</ele>
        <time>2011-06-25T16:23:04Z</time>
      </trkpt>
      <trkpt lat="46.31401" lon="-0.31654">
        <ele>79.3882</ele>
        <time>2011-06-25T16:23:05Z</time>
      </trkpt>
      <trkpt lat="46.31402" lon="-0.31652">
        <ele>79.3925</ele>
        <time>2011-06-25T16:23:06Z</time>
      </trkpt>
      <trkpt lat="46.31403" lon="-0.3165">
        <ele>79.3975</ele>
        <time>2011-06-25T16:23:07Z</time>
      </trkpt>
      <trkpt lat="46.31404" lon="-0.31648">
        <ele>79.4029</ele>
        <time>2011-06-25T16:23:08Z</time>
      </trkpt>
      <trkpt lat="46.31405" lon="-0.31646">
        <ele>79.4086</ele>
        <time>2011-06-25T16:23:09Z</time>
      </trkpt>
      <trkpt lat="46.31406" lon="-0.31644">
        <ele>79.4149</ele>
        <time>2011-06-25T16:23:10Z</time>
      </trkpt>
      <trkpt lat="46.31406" lon="-0.31643">
        <ele>79.4215</ele>
        <time>2011-06-25T16:23:11Z</time>
      </trkpt>
      <trkpt lat="46.31408" lon="-0.31641">
        <ele>79.4283</ele>
        <time>2011-06-25T16:23:12Z</time>
      </trkpt>
      <trkpt lat="46.31408" lon="-0.3164">
        <ele>79.4356</ele>
        <time>2011-06-25T16:23:13Z</time>
      </trkpt>
      <trkpt lat="46.3141" lon="-0.31639">
        <ele>79.4427</ele>
        <time>2011-06-25T16:23:14Z</time>
      </trkpt>
      <trkpt lat="46.3141" lon="-0.31638">
        <ele>79.4504</ele>
        <time>2011-06-25T16:23:15Z</time>
      </trkpt>
      <trkpt lat="46.31411" lon="-0.31636">
        <ele>79.4573</ele>
        <time>2011-06-25T16:23:16Z</time>
      </trkpt>
      <trkpt lat="46.31412" lon="-0.31635">
        <ele>79.4623</ele>
        <time>2011-06-25T16:23:17Z</time>
      </trkpt>
      <trkpt lat="46.31413" lon="-0.31635">
        <ele>79.4671</ele>
        <time>2011-06-25T16:23:18Z</time>
      </trkpt>
      <trkpt lat="46.31414" lon="-0.31634">
        <ele>79.4705</ele>
        <time>2011-06-25T16:23:19Z</time>
      </trkpt>
      <trkpt lat="46.31415" lon="-0.31633">
        <ele>79.4731</ele>
        <time>2011-06-25T16:23:20Z</time>
      </trkpt>
      <trkpt lat="46.31416" lon="-0.31632">
        <ele>79.4768</ele>
        <time>2011-06-25T16:23:21Z</time>
      </trkpt>
      <trkpt lat="46.31417" lon="-0.31631">
        <ele>79.4809</ele>
        <time>2011-06-25T16:23:22Z</time>
      </trkpt>
      <trkpt lat="46.31418" lon="-0.3163">
        <ele>79.4861</ele>
        <time>2011-06-25T16:23:23Z</time>
      </trkpt>
      <trkpt lat="46.31419" lon="-0.31629">
        <ele>79.489</ele>
        <time>2011-06-25T16:23:24Z</time>
      </trkpt>
      <trkpt lat="46.31421" lon="-0.31628">
        <ele>79.4889</ele>
        <time>2011-06-25T16:23:25Z</time>
      </trkpt>
      <trkpt lat="46.31421" lon="-0.31626">
        <ele>79.4898</ele>
        <time>2011-06-25T16:23:26Z</time>
      </trkpt>
      <trkpt lat="46.31422" lon="-0.31625">
        <ele>79.4893</ele>
        <time>2011-06-25T16:23:27Z</time>
      </trkpt>
      <trkpt lat="46.31424" lon="-0.31624">
        <ele>79.4892</ele>
        <time>2011-06-25T16:23:28Z</time>
      </trkpt>
      <trkpt lat="46.31425" lon="-0.31623">
        <ele>79.4876</ele>
        <time>2011-06-25T16:23:29Z</time>
      </trkpt>
      <trkpt lat="46.31426" lon="-0.31622">
        <ele>79.4854</ele>
        <time>2011-06-25T16:23:30Z</time>
      </trkpt>
      <trkpt lat="46.31427" lon="-0.31621">
        <ele>79.4825</ele>
        <time>2011-06-25T16:23:31Z</time>
      </trkpt>
      <trkpt lat="46.31427" lon="-0.3162">
        <ele>79.4798</ele>
        <time>2011-06-25T16:23:32Z</time>
      </trkpt>
      <trkpt lat="46.31429" lon="-0.3162">
        <ele>79.4806</ele>
        <time>2011-06-25T16:23:33Z</time>
      </trkpt>
      <trkpt lat="46.3143" lon="-0.31619">
        <ele>79.4858</ele>
        <time>2011-06-25T16:23:34Z</time>
      </trkpt>
      <trkpt lat="46.31431" lon="-0.31618">
        <ele>79.4907</ele>
        <time>2011-06-25T16:23:35Z</time>
      </trkpt>
      <trkpt lat="46.31432" lon="-0.31617">
        <ele>79.5035</ele>
        <time>2011-06-25T16:23:36Z</time>
      </trkpt>
      <trkpt lat="46.31434" lon="-0.31617">
        <ele>79.517</ele>
        <time>2011-06-25T16:23:36Z</time>
      </trkpt>
      <trkpt lat="46.31435" lon="-0.31616">
        <ele>79.5295</ele>
        <time>2011-06-25T16:23:38Z</time>
      </trkpt>
      <trkpt lat="46.31436" lon="-0.31615">
        <ele>79.5432</ele>
        <time>2011-06-25T16:23:39Z</time>
      </trkpt>
      <trkpt lat="46.31437" lon="-0.31614">
        <ele>79.5562</ele>
        <time>2011-06-25T16:23:40Z</time>
      </trkpt>
      <trkpt lat="46.31438" lon="-0.31613">
        <ele>79.5677</ele>
        <time>2011-06-25T16:23:41Z</time>
      </trkpt>
      <trkpt lat="46.31439" lon="-0.31612">
        <ele>79.5772</ele>
        <time>2011-06-25T16:23:42Z</time>
      </trkpt>
      <trkpt lat="46.3144" lon="-0.31611">
        <ele>79.5863</ele>
        <time>2011-06-25T16:23:43Z</time>
      </trkpt>
      <trkpt lat="46.31441" lon="-0.3161">
        <ele>79.5996</ele>
        <time>2011-06-25T16:23:44Z</time>
      </trkpt>
      <trkpt lat="46.31442" lon="-0.3161">
        <ele>79.6167</ele>
        <time>2011-06-25T16:23:45Z</time>
      </trkpt>
      <trkpt lat="46.31443" lon="-0.31609">
        <ele>79.635</ele>
        <time>2011-06-25T16:23:46Z</time>
      </trkpt>
      <trkpt lat="46.31445" lon="-0.31608">
        <ele>79.6553</ele>
        <time>2011-06-25T16:23:47Z</time>
      </trkpt>
      <trkpt lat="46.31446" lon="-0.31607">
        <ele>79.6758</ele>
        <time>2011-06-25T16:23:48Z</time>
      </trkpt>
      <trkpt lat="46.31447" lon="-0.31606">
        <ele>79.6998</ele>
        <time>2011-06-25T16:23:49Z</time>
      </trkpt>
      <trkpt lat="46.31448" lon="-0.31605">
        <ele>79.7233</ele>
        <time>2011-06-25T16:23:50Z</time>
      </trkpt>
      <trkpt lat="46.3145" lon="-0.31604">
        <ele>79.7505</ele>
        <time>2011-06-25T16:23:51Z</time>
      </trkpt>
      <trkpt lat="46.31451" lon="-0.31603">
        <ele>79.7747</ele>
        <time>2011-06-25T16:23:52Z</time>
      </trkpt>
      <trkpt lat="46.31452" lon="-0.31602">
        <ele>79.7993</ele>
        <time>2011-06-25T16:23:53Z</time>
      </trkpt>
      <trkpt lat="46.31453" lon="-0.31601">
        <ele>79.8299</ele>
        <time>2011-06-25T16:23:54Z</time>
      </trkpt>
      <trkpt lat="46.31454" lon="-0.316">
        <ele>79.861</ele>
        <time>2011-06-25T16:23:55Z</time>
      </trkpt>
      <trkpt lat="46.31455" lon="-0.31599">
        <ele>79.8914</ele>
        <time>2011-06-25T16:23:56Z</time>
      </trkpt>
      <trkpt lat="46.31456" lon="-0.31598">
        <ele>79.9209</ele>
        <time>2011-06-25T16:23:57Z</time>
      </trkpt>
      <trkpt lat="46.31458" lon="-0.31597">
        <ele>79.9506</ele>
        <time>2011-06-25T16:23:57Z</time>
      </trkpt>
      <trkpt lat="46.31459" lon="-0.31596">
        <ele>79.9839</ele>
        <time>2011-06-25T16:23:59Z</time>
      </trkpt>
      <trkpt lat="46.3146" lon="-0.31595">
        <ele>80.0171</ele>
        <time>2011-06-25T16:24:00Z</time>
      </trkpt>
      <trkpt lat="46.31461" lon="-0.31594">
        <ele>80.0544</ele>
        <time>2011-06-25T16:24:01Z</time>
      </trkpt>
      <trkpt lat="46.31463" lon="-0.31593">
        <ele>80.0956</ele>
        <time>2011-06-25T16:24:02Z</time>
      </trkpt>
      <trkpt lat="46.31464" lon="-0.31591">
        <ele>80.1366</ele>
        <time>2011-06-25T16:24:03Z</time>
      </trkpt>
      <trkpt lat="46.31465" lon="-0.31591">
        <ele>80.1824</ele>
        <time>2011-06-25T16:24:04Z</time>
      </trkpt>
      <trkpt lat="46.31466" lon="-0.3159">
        <ele>80.2291</ele>
        <time>2011-06-25T16:24:05Z</time>
      </trkpt>
      <trkpt lat="46.31467" lon="-0.31589">
        <ele>80.2755</ele>
        <time>2011-06-25T16:24:05Z</time>
      </trkpt>
      <trkpt lat="46.31469" lon="-0.31588">
        <ele>80.3217</ele>
        <time>2011-06-25T16:24:07Z</time>
      </trkpt>
      <trkpt lat="46.3147" lon="-0.31587">
        <ele>80.3672</ele>
        <time>2011-06-25T16:24:08Z</time>
      </trkpt>
      <trkpt lat="46.31471" lon="-0.31586">
        <ele>80.4142</ele>
        <time>2011-06-25T16:24:09Z</time>
      </trkpt>
      <trkpt lat="46.31472" lon="-0.31586">
        <ele>80.4633</ele>
        <time>2011-06-25T16:24:10Z</time>
      </trkpt>
      <trkpt lat="46.31473" lon="-0.31585">
        <ele>80.5125</ele>
        <time>2011-06-25T16:24:11Z</time>
      </trkpt>
      <trkpt lat="46.31474" lon="-0.31584">
        <ele>80.5619</ele>
        <time>2011-06-25T16:24:12Z</time>
      </trkpt>
      <trkpt lat="46.31476" lon="-0.31584">
        <ele>80.6137</ele>
        <time>2011-06-25T16:24:13Z</time>
      </trkpt>
      <trkpt lat="46.31477" lon="-0.31583">
        <ele>80.6654</ele>
        <time>2011-06-25T16:24:14Z</time>
      </trkpt>
      <trkpt lat="46.31478" lon="-0.31582">
        <ele>80.7175</ele>
        <time>2011-06-25T16:24:15Z</time>
      </trkpt>
      <trkpt lat="46.31479" lon="-0.31581">
        <ele>80.7694</ele>
        <time>2011-06-25T16:24:16Z</time>
      </trkpt>
      <trkpt lat="46.3148" lon="-0.31579">
        <ele>80.8198</ele>
        <time>2011-06-25T16:24:17Z</time>
      </trkpt>
      <trkpt lat="46.31481" lon="-0.31578">
        <ele>80.8685</ele>
        <time>2011-06-25T16:24:18Z</time>
      </trkpt>
      <trkpt lat="46.31482" lon="-0.31577">
        <ele>80.9163</ele>
        <time>2011-06-25T16:24:19Z</time>
      </trkpt>
      <trkpt lat="46.31483" lon="-0.31576">
        <ele>80.9646</ele>
        <time>2011-06-25T16:24:20Z</time>
      </trkpt>
      <trkpt lat="46.31484" lon="-0.31575">
        <ele>81.0131</ele>
        <time>2011-06-25T16:24:21Z</time>
      </trkpt>
      <trkpt lat="46.31484" lon="-0.31574">
        <ele>81.0615</ele>
        <time>2011-06-25T16:24:22Z</time>
      </trkpt>
      <trkpt lat="46.31485" lon="-0.31573">
        <ele>81.1097</ele>
        <time>2011-06-25T16:24:23Z</time>
      </trkpt>
      <trkpt lat="46.31487" lon="-0.31572">
        <ele>81.1569</ele>
        <time>2011-06-25T16:24:24Z</time>
      </trkpt>
      <trkpt lat="46.31487" lon="-0.3157">
        <ele>81.2004</ele>
        <time>2011-06-25T16:24:25Z</time>
      </trkpt>
      <trkpt lat="46.31488" lon="-0.31569">
        <ele>81.2392</ele>
        <time>2011-06-25T16:24:26Z</time>
      </trkpt>
      <trkpt lat="46.31489" lon="-0.31568">
        <ele>81.2777</ele>
        <time>2011-06-25T16:24:27Z</time>
      </trkpt>
      <trkpt lat="46.3149" lon="-0.31567">
        <ele>81.3156</ele>
        <time>2011-06-25T16:24:28Z</time>
      </trkpt>
      <trkpt lat="46.31491" lon="-0.31565">
        <ele>81.3524</ele>
        <time>2011-06-25T16:24:29Z</time>
      </trkpt>
      <trkpt lat="46.31492" lon="-0.31564">
        <ele>81.3883</ele>
        <time>2011-06-25T16:24:30Z</time>
      </trkpt>
      <trkpt lat="46.31492" lon="-0.31563">
        <ele>81.424</ele>
        <time>2011-06-25T16:24:31Z</time>
      </trkpt>
      <trkpt lat="46.31493" lon="-0.31561">
        <ele>81.4576</ele>
        <time>2011-06-25T16:24:32Z</time>
      </trkpt>
      <trkpt lat="46.31494" lon="-0.3156">
        <ele>81.4894</ele>
        <time>2011-06-25T16:24:33Z</time>
      </trkpt>
      <trkpt lat="46.31495" lon="-0.31558">
        <ele>81.5203</ele>
        <time>2011-06-25T16:24:33Z</time>
      </trkpt>
      <trkpt lat="46.31496" lon="-0.31557">
        <ele>81.549</ele>
        <time>2011-06-25T16:24:35Z</time>
      </trkpt>
      <trkpt lat="46.31497" lon="-0.31556">
        <ele>81.577</ele>
        <time>2011-06-25T16:24:36Z</time>
      </trkpt>
      <trkpt lat="46.31498" lon="-0.31554">
        <ele>81.6024</ele>
        <time>2011-06-25T16:24:37Z</time>
      </trkpt>
      <trkpt lat="46.31499" lon="-0.31553">
        <ele>81.6268</ele>
        <time>2011-06-25T16:24:38Z</time>
      </trkpt>
      <trkpt lat="46.315" lon="-0.31552">
        <ele>81.6496</ele>
        <time>2011-06-25T16:24:39Z</time>
      </trkpt>
      <trkpt lat="46.31501" lon="-0.3155">
        <ele>81.6723</ele>
        <time>2011-06-25T16:24:40Z</time>
      </trkpt>
      <trkpt lat="46.31502" lon="-0.31549">
        <ele>81.6943</ele>
        <time>2011-06-25T16:24:41Z</time>
      </trkpt>
      <trkpt lat="46.31503" lon="-0.31548">
        <ele>81.7166</ele>
        <time>2011-06-25T16:24:42Z</time>
      </trkpt>
      <trkpt lat="46.31504" lon="-0.31547">
        <ele>81.7371</ele>
        <time>2011-06-25T16:24:43Z</time>
      </trkpt>
      <trkpt lat="46.31505" lon="-0.31546">
        <ele>81.7597</ele>
        <time>2011-06-25T16:24:44Z</time>
      </trkpt>
      <trkpt lat="46.31506" lon="-0.31544">
        <ele>81.7769</ele>
        <time>2011-06-25T16:24:45Z</time>
      </trkpt>
      <trkpt lat="46.31506" lon="-0.31543">
        <ele>81.7968</ele>
        <time>2011-06-25T16:24:46Z</time>
      </trkpt>
      <trkpt lat="46.31508" lon="-0.31542">
        <ele>81.8184</ele>
        <time>2011-06-25T16:24:47Z</time>
      </trkpt>
      <trkpt lat="46.31509" lon="-0.31541">
        <ele>81.8418</ele>
        <time>2011-06-25T16:24:48Z</time>
      </trkpt>
      <trkpt lat="46.3151" lon="-0.3154">
        <ele>81.8653</ele>
        <time>2011-06-25T16:24:49Z</time>
      </trkpt>
      <trkpt lat="46.31511" lon="-0.31539">
        <ele>81.8885</ele>
        <time>2011-06-25T16:24:50Z</time>
      </trkpt>
      <trkpt lat="46.31512" lon="-0.31538">
        <ele>81.9106</ele>
        <time>2011-06-25T16:24:51Z</time>
      </trkpt>
      <trkpt lat="46.31513" lon="-0.31537">
        <ele>81.9321</ele>
        <time>2011-06-25T16:24:52Z</time>
      </trkpt>
      <trkpt lat="46.31514" lon="-0.31536">
        <ele>81.9519</ele>
        <time>2011-06-25T16:24:53Z</time>
      </trkpt>
      <trkpt lat="46.31515" lon="-0.31535">
        <ele>81.971</ele>
        <time>2011-06-25T16:24:54Z</time>
      </trkpt>
      <trkpt lat="46.31516" lon="-0.31534">
        <ele>81.9925</ele>
        <time>2011-06-25T16:24:55Z</time>
      </trkpt>
      <trkpt lat="46.31517" lon="-0.31533">
        <ele>82.0124</ele>
        <time>2011-06-25T16:24:56Z</time>
      </trkpt>
      <trkpt lat="46.31518" lon="-0.31532">
        <ele>82.0325</ele>
        <time>2011-06-25T16:24:57Z</time>
      </trkpt>
      <trkpt lat="46.31519" lon="-0.31531">
        <ele>82.0521</ele>
        <time>2011-06-25T16:24:58Z</time>
      </trkpt>
      <trkpt lat="46.3152" lon="-0.31529">
        <ele>82.07</ele>
        <time>2011-06-25T16:24:59Z</time>
      </trkpt>
      <trkpt lat="46.31521" lon="-0.31528">
        <ele>82.0881</ele>
        <time>2011-06-25T16:25:00Z</time>
      </trkpt>
      <trkpt lat="46.31522" lon="-0.31527">
        <ele>82.1052</ele>
        <time>2011-06-25T16:25:01Z</time>
      </trkpt>
      <trkpt lat="46.31523" lon="-0.31526">
        <ele>82.1227</ele>
        <time>2011-06-25T16:25:02Z</time>
      </trkpt>
      <trkpt lat="46.31524" lon="-0.31525">
        <ele>82.1401</ele>
        <time>2011-06-25T16:25:03Z</time>
      </trkpt>
      <trkpt lat="46.31525" lon="-0.31523">
        <ele>82.1554</ele>
        <time>2011-06-25T16:25:04Z</time>
      </trkpt>
      <trkpt lat="46.31525" lon="-0.31522">
        <ele>82.1723</ele>
        <time>2011-06-25T16:25:05Z</time>
      </trkpt>
      <trkpt lat="46.31527" lon="-0.31521">
        <ele>82.1888</ele>
        <time>2011-06-25T16:25:06Z</time>
      </trkpt>
      <trkpt lat="46.31527" lon="-0.3152">
        <ele>82.2064</ele>
        <time>2011-06-25T16:25:07Z</time>
      </trkpt>
      <trkpt lat="46.31529" lon="-0.31519">
        <ele>82.2243</ele>
        <time>2011-06-25T16:25:08Z</time>
      </trkpt>
      <trkpt lat="46.3153" lon="-0.31518">
        <ele>82.2415</ele>
        <time>2011-06-25T16:25:09Z</time>
      </trkpt>
      <trkpt lat="46.31531" lon="-0.31517">
        <ele>82.2584</ele>
        <time>2011-06-25T16:25:10Z</time>
      </trkpt>
      <trkpt lat="46.31532" lon="-0.31516">
        <ele>82.2748</ele>
        <time>2011-06-25T16:25:11Z</time>
      </trkpt>
      <trkpt lat="46.31533" lon="-0.31514">
        <ele>82.2909</ele>
        <time>2011-06-25T16:25:12Z</time>
      </trkpt>
      <trkpt lat="46.31533" lon="-0.31513">
        <ele>82.3088</ele>
        <time>2011-06-25T16:25:13Z</time>
      </trkpt>
      <trkpt lat="46.31535" lon="-0.31512">
        <ele>82.326</ele>
        <time>2011-06-25T16:25:14Z</time>
      </trkpt>
      <trkpt lat="46.31536" lon="-0.31511">
        <ele>82.3428</ele>
        <time>2011-06-25T16:25:15Z</time>
      </trkpt>
      <trkpt lat="46.31537" lon="-0.3151">
        <ele>82.3583</ele>
        <time>2011-06-25T16:25:16Z</time>
      </trkpt>
      <trkpt lat="46.31538" lon="-0.31509">
        <ele>82.3745</ele>
        <time>2011-06-25T16:25:17Z</time>
      </trkpt>
      <trkpt lat="46.31538" lon="-0.31508">
        <ele>82.391</ele>
        <time>2011-06-25T16:25:18Z</time>
      </trkpt>
      <trkpt lat="46.3154" lon="-0.31507">
        <ele>82.4066</ele>
        <time>2011-06-25T16:25:19Z</time>
      </trkpt>
      <trkpt lat="46.3154" lon="-0.31506">
        <ele>82.4219</ele>
        <time>2011-06-25T16:25:20Z</time>
      </trkpt>
      <trkpt lat="46.31541" lon="-0.31505">
        <ele>82.4366</ele>
        <time>2011-06-25T16:25:21Z</time>
      </trkpt>
      <trkpt lat="46.31543" lon="-0.31503">
        <ele>82.4526</ele>
        <time>2011-06-25T16:25:22Z</time>
      </trkpt>
      <trkpt lat="46.31543" lon="-0.31502">
        <ele>82.4719</ele>
        <time>2011-06-25T16:25:23Z</time>
      </trkpt>
      <trkpt lat="46.31545" lon="-0.31501">
        <ele>82.4929</ele>
        <time>2011-06-25T16:25:24Z</time>
      </trkpt>
      <trkpt lat="46.31546" lon="-0.315">
        <ele>82.5142</ele>
        <time>2011-06-25T16:25:25Z</time>
      </trkpt>
      <trkpt lat="46.31546" lon="-0.31499">
        <ele>82.5355</ele>
        <time>2011-06-25T16:25:26Z</time>
      </trkpt>
      <trkpt lat="46.31548" lon="-0.31498">
        <ele>82.5567</ele>
        <time>2011-06-25T16:25:27Z</time>
      </trkpt>
      <trkpt lat="46.31549" lon="-0.31497">
        <ele>82.5767</ele>
        <time>2011-06-25T16:25:28Z</time>
      </trkpt>
      <trkpt lat="46.3155" lon="-0.31496">
        <ele>82.5964</ele>
        <time>2011-06-25T16:25:29Z</time>
      </trkpt>
      <trkpt lat="46.31551" lon="-0.31495">
        <ele>82.6153</ele>
        <time>2011-06-25T16:25:30Z</time>
      </trkpt>
      <trkpt lat="46.31552" lon="-0.31494">
        <ele>82.6339</ele>
        <time>2011-06-25T16:25:31Z</time>
      </trkpt>
      <trkpt lat="46.31553" lon="-0.31493">
        <ele>82.6522</ele>
        <time>2011-06-25T16:25:32Z</time>
      </trkpt>
      <trkpt lat="46.31554" lon="-0.31491">
        <ele>82.6684</ele>
        <time>2011-06-25T16:25:33Z</time>
      </trkpt>
      <trkpt lat="46.31555" lon="-0.3149">
        <ele>82.6853</ele>
        <time>2011-06-25T16:25:34Z</time>
      </trkpt>
      <trkpt lat="46.31556" lon="-0.31489">
        <ele>82.7017</ele>
        <time>2011-06-25T16:25:35Z</time>
      </trkpt>
      <trkpt lat="46.31558" lon="-0.31488">
        <ele>82.7181</ele>
        <time>2011-06-25T16:25:36Z</time>
      </trkpt>
      <trkpt lat="46.31559" lon="-0.31487">
        <ele>82.7334</ele>
        <time>2011-06-25T16:25:37Z</time>
      </trkpt>
      <trkpt lat="46.3156" lon="-0.31486">
        <ele>82.7478</ele>
        <time>2011-06-25T16:25:38Z</time>
      </trkpt>
      <trkpt lat="46.31561" lon="-0.31485">
        <ele>82.763</ele>
        <time>2011-06-25T16:25:39Z</time>
      </trkpt>
      <trkpt lat="46.31562" lon="-0.31484">
        <ele>82.778</ele>
        <time>2011-06-25T16:25:40Z</time>
      </trkpt>
      <trkpt lat="46.31563" lon="-0.31483">
        <ele>82.7931</ele>
        <time>2011-06-25T16:25:41Z</time>
      </trkpt>
      <trkpt lat="46.31564" lon="-0.31482">
        <ele>82.8104</ele>
        <time>2011-06-25T16:25:42Z</time>
      </trkpt>
      <trkpt lat="46.31565" lon="-0.31482">
        <ele>82.8309</ele>
        <time>2011-06-25T16:25:43Z</time>
      </trkpt>
      <trkpt lat="46.31566" lon="-0.31481">
        <ele>82.8538</ele>
        <time>2011-06-25T16:25:44Z</time>
      </trkpt>
      <trkpt lat="46.31568" lon="-0.3148">
        <ele>82.8794</ele>
        <time>2011-06-25T16:25:45Z</time>
      </trkpt>
      <trkpt lat="46.31569" lon="-0.31479">
        <ele>82.9048</ele>
        <time>2011-06-25T16:25:46Z</time>
      </trkpt>
      <trkpt lat="46.3157" lon="-0.31478">
        <ele>82.9322</ele>
        <time>2011-06-25T16:25:47Z</time>
      </trkpt>
      <trkpt lat="46.31571" lon="-0.31477">
        <ele>82.9584</ele>
        <time>2011-06-25T16:25:48Z</time>
      </trkpt>
      <trkpt lat="46.31573" lon="-0.31476">
        <ele>82.9814</ele>
        <time>2011-06-25T16:25:49Z</time>
      </trkpt>
      <trkpt lat="46.31574" lon="-0.31475">
        <ele>83.0041</ele>
        <time>2011-06-25T16:25:50Z</time>
      </trkpt>
      <trkpt lat="46.31575" lon="-0.31474">
        <ele>83.0276</ele>
        <time>2011-06-25T16:25:51Z</time>
      </trkpt>
      <trkpt lat="46.31576" lon="-0.31474">
        <ele>83.0463</ele>
        <time>2011-06-25T16:25:52Z</time>
      </trkpt>
      <trkpt lat="46.31577" lon="-0.31473">
        <ele>83.0666</ele>
        <time>2011-06-25T16:25:53Z</time>
      </trkpt>
      <trkpt lat="46.31578" lon="-0.31472">
        <ele>83.0884</ele>
        <time>2011-06-25T16:25:54Z</time>
      </trkpt>
      <trkpt lat="46.31579" lon="-0.31472">
        <ele>83.1105</ele>
        <time>2011-06-25T16:25:55Z</time>
      </trkpt>
      <trkpt lat="46.3158" lon="-0.31471">
        <ele>83.1344</ele>
        <time>2011-06-25T16:25:56Z</time>
      </trkpt>
      <trkpt lat="46.31582" lon="-0.3147">
        <ele>83.1597</ele>
        <time>2011-06-25T16:25:57Z</time>
      </trkpt>
      <trkpt lat="46.31583" lon="-0.31469">
        <ele>83.1844</ele>
        <time>2011-06-25T16:25:58Z</time>
      </trkpt>
      <trkpt lat="46.31584" lon="-0.31468">
        <ele>83.2098</ele>
        <time>2011-06-25T16:25:59Z</time>
      </trkpt>
      <trkpt lat="46.31585" lon="-0.31466">
        <ele>83.2354</ele>
        <time>2011-06-25T16:26:00Z</time>
      </trkpt>
      <trkpt lat="46.31586" lon="-0.31465">
        <ele>83.2629</ele>
        <time>2011-06-25T16:26:01Z</time>
      </trkpt>
      <trkpt lat="46.31587" lon="-0.31464">
        <ele>83.2923</ele>
        <time>2011-06-25T16:26:02Z</time>
      </trkpt>
      <trkpt lat="46.31588" lon="-0.31464">
        <ele>83.3218</ele>
        <time>2011-06-25T16:26:03Z</time>
      </trkpt>
      <trkpt lat="46.3159" lon="-0.31463">
        <ele>83.3521</ele>
        <time>2011-06-25T16:26:04Z</time>
      </trkpt>
      <trkpt lat="46.31591" lon="-0.31463">
        <ele>83.3816</ele>
        <time>2011-06-25T16:26:05Z</time>
      </trkpt>
      <trkpt lat="46.31591" lon="-0.31462">
        <ele>83.4098</ele>
        <time>2011-06-25T16:26:06Z</time>
      </trkpt>
      <trkpt lat="46.31592" lon="-0.31461">
        <ele>83.4354</ele>
        <time>2011-06-25T16:26:07Z</time>
      </trkpt>
      <trkpt lat="46.31593" lon="-0.3146">
        <ele>83.4589</ele>
        <time>2011-06-25T16:26:08Z</time>
      </trkpt>
      <trkpt lat="46.31595" lon="-0.31459">
        <ele>83.482</ele>
        <time>2011-06-25T16:26:09Z</time>
      </trkpt>
      <trkpt lat="46.31596" lon="-0.31457">
        <ele>83.5061</ele>
        <time>2011-06-25T16:26:10Z</time>
      </trkpt>
      <trkpt lat="46.31597" lon="-0.31456">
        <ele>83.5292</ele>
        <time>2011-06-25T16:26:11Z</time>
      </trkpt>
      <trkpt lat="46.31598" lon="-0.31455">
        <ele>83.5503</ele>
        <time>2011-06-25T16:26:12Z</time>
      </trkpt>
      <trkpt lat="46.31599" lon="-0.31454">
        <ele>83.5724</ele>
        <time>2011-06-25T16:26:13Z</time>
      </trkpt>
      <trkpt lat="46.31601" lon="-0.31453">
        <ele>83.5912</ele>
        <time>2011-06-25T16:26:14Z</time>
      </trkpt>
      <trkpt lat="46.31602" lon="-0.31453">
        <ele>83.6081</ele>
        <time>2011-06-25T16:26:15Z</time>
      </trkpt>
      <trkpt lat="46.31603" lon="-0.31452">
        <ele>83.6237</ele>
        <time>2011-06-25T16:26:15Z</time>
      </trkpt>
      <trkpt lat="46.31604" lon="-0.31451">
        <ele>83.6388</ele>
        <time>2011-06-25T16:26:17Z</time>
      </trkpt>
      <trkpt lat="46.31606" lon="-0.3145">
        <ele>83.6549</ele>
        <time>2011-06-25T16:26:18Z</time>
      </trkpt>
      <trkpt lat="46.31607" lon="-0.31449">
        <ele>83.6681</ele>
        <time>2011-06-25T16:26:19Z</time>
      </trkpt>
      <trkpt lat="46.31609" lon="-0.31448">
        <ele>83.6835</ele>
        <time>2011-06-25T16:26:20Z</time>
      </trkpt>
      <trkpt lat="46.3161" lon="-0.31447">
        <ele>83.7004</ele>
        <time>2011-06-25T16:26:21Z</time>
      </trkpt>
      <trkpt lat="46.31612" lon="-0.31447">
        <ele>83.718</ele>
        <time>2011-06-25T16:26:22Z</time>
      </trkpt>
      <trkpt lat="46.31613" lon="-0.31446">
        <ele>83.7361</ele>
        <time>2011-06-25T16:26:23Z</time>
      </trkpt>
      <trkpt lat="46.31614" lon="-0.31445">
        <ele>83.7539</ele>
        <time>2011-06-25T16:26:24Z</time>
      </trkpt>
      <trkpt lat="46.31615" lon="-0.31444">
        <ele>83.7709</ele>
        <time>2011-06-25T16:26:25Z</time>
      </trkpt>
      <trkpt lat="46.31616" lon="-0.31443">
        <ele>83.7873</ele>
        <time>2011-06-25T16:26:26Z</time>
      </trkpt>
      <trkpt lat="46.31617" lon="-0.31442">
        <ele>83.8017</ele>
        <time>2011-06-25T16:26:27Z</time>
      </trkpt>
      <trkpt lat="46.31618" lon="-0.31441">
        <ele>83.8139</ele>
        <time>2011-06-25T16:26:28Z</time>
      </trkpt>
      <trkpt lat="46.31619" lon="-0.3144">
        <ele>83.8234</ele>
        <time>2011-06-25T16:26:29Z</time>
      </trkpt>
      <trkpt lat="46.3162" lon="-0.31439">
        <ele>83.8328</ele>
        <time>2011-06-25T16:26:30Z</time>
      </trkpt>
      <trkpt lat="46.31622" lon="-0.31438">
        <ele>83.8428</ele>
        <time>2011-06-25T16:26:31Z</time>
      </trkpt>
      <trkpt lat="46.31623" lon="-0.31437">
        <ele>83.8524</ele>
        <time>2011-06-25T16:26:32Z</time>
      </trkpt>
      <trkpt lat="46.31624" lon="-0.31436">
        <ele>83.8618</ele>
        <time>2011-06-25T16:26:33Z</time>
      </trkpt>
      <trkpt lat="46.31625" lon="-0.31435">
        <ele>83.8696</ele>
        <time>2011-06-25T16:26:34Z</time>
      </trkpt>
      <trkpt lat="46.31626" lon="-0.31434">
        <ele>83.8762</ele>
        <time>2011-06-25T16:26:35Z</time>
      </trkpt>
      <trkpt lat="46.31627" lon="-0.31433">
        <ele>83.8825</ele>
        <time>2011-06-25T16:26:36Z</time>
      </trkpt>
      <trkpt lat="46.31628" lon="-0.31433">
        <ele>83.8918</ele>
        <time>2011-06-25T16:26:37Z</time>
      </trkpt>
      <trkpt lat="46.31629" lon="-0.31432">
        <ele>83.901</ele>
        <time>2011-06-25T16:26:38Z</time>
      </trkpt>
      <trkpt lat="46.3163" lon="-0.31431">
        <ele>83.9103</ele>
        <time>2011-06-25T16:26:39Z</time>
      </trkpt>
      <trkpt lat="46.31632" lon="-0.3143">
        <ele>83.9186</ele>
        <time>2011-06-25T16:26:40Z</time>
      </trkpt>
      <trkpt lat="46.31633" lon="-0.31429">
        <ele>83.9269</ele>
        <time>2011-06-25T16:26:41Z</time>
      </trkpt>
      <trkpt lat="46.31634" lon="-0.31428">
        <ele>83.9338</ele>
        <time>2011-06-25T16:26:42Z</time>
      </trkpt>
      <trkpt lat="46.31635" lon="-0.31428">
        <ele>83.9408</ele>
        <time>2011-06-25T16:26:43Z</time>
      </trkpt>
      <trkpt lat="46.31636" lon="-0.31427">
        <ele>83.955</ele>
        <time>2011-06-25T16:26:44Z</time>
      </trkpt>
      <trkpt lat="46.31637" lon="-0.31427">
        <ele>83.9694</ele>
        <time>2011-06-25T16:26:45Z</time>
      </trkpt>
      <trkpt lat="46.31638" lon="-0.31427">
        <ele>83.9908</ele>
        <time>2011-06-25T16:26:46Z</time>
      </trkpt>
      <trkpt lat="46.3164" lon="-0.31427">
        <ele>84.0172</ele>
        <time>2011-06-25T16:26:47Z</time>
      </trkpt>
      <trkpt lat="46.31641" lon="-0.31426">
        <ele>84.0449</ele>
        <time>2011-06-25T16:26:48Z</time>
      </trkpt>
      <trkpt lat="46.31643" lon="-0.31426">
        <ele>84.0715</ele>
        <time>2011-06-25T16:26:49Z</time>
      </trkpt>
      <trkpt lat="46.31644" lon="-0.31425">
        <ele>84.1006</ele>
        <time>2011-06-25T16:26:50Z</time>
      </trkpt>
      <trkpt lat="46.31646" lon="-0.31425">
        <ele>84.1323</ele>
        <time>2011-06-25T16:26:51Z</time>
      </trkpt>
      <trkpt lat="46.31647" lon="-0.31424">
        <ele>84.1645</ele>
        <time>2011-06-25T16:26:52Z</time>
      </trkpt>
      <trkpt lat="46.31648" lon="-0.31424">
        <ele>84.195</ele>
        <time>2011-06-25T16:26:53Z</time>
      </trkpt>
      <trkpt lat="46.31649" lon="-0.31423">
        <ele>84.225</ele>
        <time>2011-06-25T16:26:54Z</time>
      </trkpt>
      <trkpt lat="46.31651" lon="-0.31422">
        <ele>84.2521</ele>
        <time>2011-06-25T16:26:55Z</time>
      </trkpt>
      <trkpt lat="46.31652" lon="-0.31422">
        <ele>84.2774</ele>
        <time>2011-06-25T16:26:56Z</time>
      </trkpt>
      <trkpt lat="46.31653" lon="-0.31421">
        <ele>84.3021</ele>
        <time>2011-06-25T16:26:57Z</time>
      </trkpt>
      <trkpt lat="46.31654" lon="-0.3142">
        <ele>84.3233</ele>
        <time>2011-06-25T16:26:58Z</time>
      </trkpt>
      <trkpt lat="46.31655" lon="-0.31419">
        <ele>84.3421</ele>
        <time>2011-06-25T16:26:59Z</time>
      </trkpt>
      <trkpt lat="46.31656" lon="-0.31418">
        <ele>84.3557</ele>
        <time>2011-06-25T16:27:00Z</time>
      </trkpt>
      <trkpt lat="46.31657" lon="-0.31418">
        <ele>84.3678</ele>
        <time>2011-06-25T16:27:01Z</time>
      </trkpt>
      <trkpt lat="46.31658" lon="-0.31417">
        <ele>84.3753</ele>
        <time>2011-06-25T16:27:01Z</time>
      </trkpt>
      <trkpt lat="46.31658" lon="-0.31417">
        <ele>84.3787</ele>
        <time>2011-06-25T16:27:03Z</time>
      </trkpt>
      <trkpt lat="46.31659" lon="-0.31417">
        <ele>84.3784</ele>
        <time>2011-06-25T16:27:04Z</time>
      </trkpt>
      <trkpt lat="46.3166" lon="-0.31416">
        <ele>84.376</ele>
        <time>2011-06-25T16:27:05Z</time>
      </trkpt>
      <trkpt lat="46.31707" lon="-0.31397">
        <ele>81.8486</ele>
        <time>2011-06-25T16:29:11Z</time>
      </trkpt>
      <trkpt lat="46.31708" lon="-0.31397">
        <ele>81.821</ele>
        <time>2011-06-25T16:29:12Z</time>
      </trkpt>
      <trkpt lat="46.31709" lon="-0.31397">
        <ele>81.7929</ele>
        <time>2011-06-25T16:29:13Z</time>
      </trkpt>
      <trkpt lat="46.3171" lon="-0.31397">
        <ele>81.7656</ele>
        <time>2011-06-25T16:29:14Z</time>
      </trkpt>
      <trkpt lat="46.3171" lon="-0.31397">
        <ele>81.7392</ele>
        <time>2011-06-25T16:29:15Z</time>
      </trkpt>
      <trkpt lat="46.31712" lon="-0.31397">
        <ele>81.7137</ele>
        <time>2011-06-25T16:29:16Z</time>
      </trkpt>
      <trkpt lat="46.31713" lon="-0.31396">
        <ele>81.6892</ele>
        <time>2011-06-25T16:29:17Z</time>
      </trkpt>
      <trkpt lat="46.31714" lon="-0.31396">
        <ele>81.6643</ele>
        <time>2011-06-25T16:29:18Z</time>
      </trkpt>
      <trkpt lat="46.31717" lon="-0.31395">
        <ele>81.6111</ele>
        <time>2011-06-25T16:29:20Z</time>
      </trkpt>
      <trkpt lat="46.31718" lon="-0.31394">
        <ele>81.5793</ele>
        <time>2011-06-25T16:29:21Z</time>
      </trkpt>
      <trkpt lat="46.3172" lon="-0.31393">
        <ele>81.5108</ele>
        <time>2011-06-25T16:29:23Z</time>
      </trkpt>
      <trkpt lat="46.31722" lon="-0.31392">
        <ele>81.4753</ele>
        <time>2011-06-25T16:29:24Z</time>
      </trkpt>
      <trkpt lat="46.31723" lon="-0.31391">
        <ele>81.4406</ele>
        <time>2011-06-25T16:29:25Z</time>
      </trkpt>
      <trkpt lat="46.31724" lon="-0.3139">
        <ele>81.4042</ele>
        <time>2011-06-25T16:29:26Z</time>
      </trkpt>
      <trkpt lat="46.31726" lon="-0.3139">
        <ele>81.3653</ele>
        <time>2011-06-25T16:29:27Z</time>
      </trkpt>
      <trkpt lat="46.31727" lon="-0.31389">
        <ele>81.3261</ele>
        <time>2011-06-25T16:29:28Z</time>
      </trkpt>
      <trkpt lat="46.31728" lon="-0.31388">
        <ele>81.287</ele>
        <time>2011-06-25T16:29:29Z</time>
      </trkpt>
      <trkpt lat="46.3173" lon="-0.31388">
        <ele>81.2423</ele>
        <time>2011-06-25T16:29:30Z</time>
      </trkpt>
      <trkpt lat="46.31731" lon="-0.31387">
        <ele>81.1931</ele>
        <time>2011-06-25T16:29:31Z</time>
      </trkpt>
      <trkpt lat="46.31732" lon="-0.31386">
        <ele>81.1388</ele>
        <time>2011-06-25T16:29:32Z</time>
      </trkpt>
      <trkpt lat="46.31733" lon="-0.31386">
        <ele>81.0808</ele>
        <time>2011-06-25T16:29:33Z</time>
      </trkpt>
      <trkpt lat="46.31735" lon="-0.31385">
        <ele>81.023</ele>
        <time>2011-06-25T16:29:34Z</time>
      </trkpt>
      <trkpt lat="46.31736" lon="-0.31384">
        <ele>80.9658</ele>
        <time>2011-06-25T16:29:35Z</time>
      </trkpt>
      <trkpt lat="46.31737" lon="-0.31384">
        <ele>80.9098</ele>
        <time>2011-06-25T16:29:36Z</time>
      </trkpt>
      <trkpt lat="46.31739" lon="-0.31383">
        <ele>80.8561</ele>
        <time>2011-06-25T16:29:37Z</time>
      </trkpt>
      <trkpt lat="46.3174" lon="-0.31383">
        <ele>80.8021</ele>
        <time>2011-06-25T16:29:38Z</time>
      </trkpt>
      <trkpt lat="46.31742" lon="-0.31382">
        <ele>80.7498</ele>
        <time>2011-06-25T16:29:39Z</time>
      </trkpt>
      <trkpt lat="46.31743" lon="-0.31382">
        <ele>80.6966</ele>
        <time>2011-06-25T16:29:40Z</time>
      </trkpt>
      <trkpt lat="46.31745" lon="-0.31382">
        <ele>80.6435</ele>
        <time>2011-06-25T16:29:41Z</time>
      </trkpt>
      <trkpt lat="46.31746" lon="-0.31382">
        <ele>80.5901</ele>
        <time>2011-06-25T16:29:42Z</time>
      </trkpt>
      <trkpt lat="46.31748" lon="-0.31382">
        <ele>80.537</ele>
        <time>2011-06-25T16:29:43Z</time>
      </trkpt>
      <trkpt lat="46.31749" lon="-0.31382">
        <ele>80.4852</ele>
        <time>2011-06-25T16:29:44Z</time>
      </trkpt>
      <trkpt lat="46.31751" lon="-0.31382">
        <ele>80.4332</ele>
        <time>2011-06-25T16:29:45Z</time>
      </trkpt>
      <trkpt lat="46.31752" lon="-0.31382">
        <ele>80.3818</ele>
        <time>2011-06-25T16:29:46Z</time>
      </trkpt>
      <trkpt lat="46.31754" lon="-0.31382">
        <ele>80.3263</ele>
        <time>2011-06-25T16:29:47Z</time>
      </trkpt>
      <trkpt lat="46.31755" lon="-0.31381">
        <ele>80.2726</ele>
        <time>2011-06-25T16:29:48Z</time>
      </trkpt>
      <trkpt lat="46.31757" lon="-0.31381">
        <ele>80.2204</ele>
        <time>2011-06-25T16:29:49Z</time>
      </trkpt>
      <trkpt lat="46.31758" lon="-0.31381">
        <ele>80.1687</ele>
        <time>2011-06-25T16:29:50Z</time>
      </trkpt>
      <trkpt lat="46.31759" lon="-0.3138">
        <ele>80.1156</ele>
        <time>2011-06-25T16:29:51Z</time>
      </trkpt>
      <trkpt lat="46.3176" lon="-0.3138">
        <ele>80.0633</ele>
        <time>2011-06-25T16:29:52Z</time>
      </trkpt>
      <trkpt lat="46.31762" lon="-0.3138">
        <ele>80.0118</ele>
        <time>2011-06-25T16:29:53Z</time>
      </trkpt>
      <trkpt lat="46.31763" lon="-0.3138">
        <ele>79.963</ele>
        <time>2011-06-25T16:29:54Z</time>
      </trkpt>
      <trkpt lat="46.31764" lon="-0.3138">
        <ele>79.917</ele>
        <time>2011-06-25T16:29:55Z</time>
      </trkpt>
      <trkpt lat="46.31765" lon="-0.3138">
        <ele>79.8716</ele>
        <time>2011-06-25T16:29:56Z</time>
      </trkpt>
      <trkpt lat="46.31767" lon="-0.3138">
        <ele>79.8201</ele>
        <time>2011-06-25T16:29:57Z</time>
      </trkpt>
      <trkpt lat="46.31768" lon="-0.3138">
        <ele>79.7701</ele>
        <time>2011-06-25T16:29:58Z</time>
      </trkpt>
      <trkpt lat="46.3177" lon="-0.3138">
        <ele>79.721</ele>
        <time>2011-06-25T16:29:59Z</time>
      </trkpt>
      <trkpt lat="46.31772" lon="-0.3138">
        <ele>79.6699</ele>
        <time>2011-06-25T16:30:00Z</time>
      </trkpt>
      <trkpt lat="46.31773" lon="-0.31379">
        <ele>79.6175</ele>
        <time>2011-06-25T16:30:01Z</time>
      </trkpt>
      <trkpt lat="46.31774" lon="-0.31379">
        <ele>79.5669</ele>
        <time>2011-06-25T16:30:02Z</time>
      </trkpt>
      <trkpt lat="46.31776" lon="-0.31379">
        <ele>79.5161</ele>
        <time>2011-06-25T16:30:03Z</time>
      </trkpt>
      <trkpt lat="46.31777" lon="-0.31379">
        <ele>79.468</ele>
        <time>2011-06-25T16:30:04Z</time>
      </trkpt>
      <trkpt lat="46.31778" lon="-0.31379">
        <ele>79.4212</ele>
        <time>2011-06-25T16:30:05Z</time>
      </trkpt>
      <trkpt lat="46.3178" lon="-0.3138">
        <ele>79.3735</ele>
        <time>2011-06-25T16:30:06Z</time>
      </trkpt>
      <trkpt lat="46.31781" lon="-0.3138">
        <ele>79.327</ele>
        <time>2011-06-25T16:30:07Z</time>
      </trkpt>
      <trkpt lat="46.31783" lon="-0.3138">
        <ele>79.2806</ele>
        <time>2011-06-25T16:30:08Z</time>
      </trkpt>
      <trkpt lat="46.31784" lon="-0.31381">
        <ele>79.234</ele>
        <time>2011-06-25T16:30:09Z</time>
      </trkpt>
      <trkpt lat="46.31785" lon="-0.31381">
        <ele>79.1882</ele>
        <time>2011-06-25T16:30:10Z</time>
      </trkpt>
      <trkpt lat="46.31787" lon="-0.31381">
        <ele>79.1445</ele>
        <time>2011-06-25T16:30:11Z</time>
      </trkpt>
      <trkpt lat="46.31788" lon="-0.31381">
        <ele>79.103</ele>
        <time>2011-06-25T16:30:12Z</time>
      </trkpt>
      <trkpt lat="46.31789" lon="-0.3138">
        <ele>79.0626</ele>
        <time>2011-06-25T16:30:13Z</time>
      </trkpt>
      <trkpt lat="46.31791" lon="-0.31381">
        <ele>79.0206</ele>
        <time>2011-06-25T16:30:14Z</time>
      </trkpt>
      <trkpt lat="46.31792" lon="-0.31381">
        <ele>78.9797</ele>
        <time>2011-06-25T16:30:15Z</time>
      </trkpt>
      <trkpt lat="46.31794" lon="-0.31381">
        <ele>78.9368</ele>
        <time>2011-06-25T16:30:16Z</time>
      </trkpt>
      <trkpt lat="46.31796" lon="-0.31382">
        <ele>78.8919</ele>
        <time>2011-06-25T16:30:17Z</time>
      </trkpt>
      <trkpt lat="46.31797" lon="-0.31382">
        <ele>78.8438</ele>
        <time>2011-06-25T16:30:18Z</time>
      </trkpt>
      <trkpt lat="46.31798" lon="-0.31382">
        <ele>78.7948</ele>
        <time>2011-06-25T16:30:19Z</time>
      </trkpt>
      <trkpt lat="46.318" lon="-0.31382">
        <ele>78.7473</ele>
        <time>2011-06-25T16:30:20Z</time>
      </trkpt>
      <trkpt lat="46.31801" lon="-0.31382">
        <ele>78.6981</ele>
        <time>2011-06-25T16:30:21Z</time>
      </trkpt>
      <trkpt lat="46.31802" lon="-0.31382">
        <ele>78.6514</ele>
        <time>2011-06-25T16:30:22Z</time>
      </trkpt>
      <trkpt lat="46.31804" lon="-0.31382">
        <ele>78.6067</ele>
        <time>2011-06-25T16:30:23Z</time>
      </trkpt>
      <trkpt lat="46.31805" lon="-0.31383">
        <ele>78.563</ele>
        <time>2011-06-25T16:30:24Z</time>
      </trkpt>
      <trkpt lat="46.31806" lon="-0.31382">
        <ele>78.5195</ele>
        <time>2011-06-25T16:30:25Z</time>
      </trkpt>
      <trkpt lat="46.31807" lon="-0.31382">
        <ele>78.4756</ele>
        <time>2011-06-25T16:30:26Z</time>
      </trkpt>
      <trkpt lat="46.31808" lon="-0.31382">
        <ele>78.4339</ele>
        <time>2011-06-25T16:30:27Z</time>
      </trkpt>
      <trkpt lat="46.31809" lon="-0.31382">
        <ele>78.3895</ele>
        <time>2011-06-25T16:30:28Z</time>
      </trkpt>
      <trkpt lat="46.31811" lon="-0.31381">
        <ele>78.3481</ele>
        <time>2011-06-25T16:30:29Z</time>
      </trkpt>
      <trkpt lat="46.31812" lon="-0.3138">
        <ele>78.3086</ele>
        <time>2011-06-25T16:30:30Z</time>
      </trkpt>
      <trkpt lat="46.31813" lon="-0.3138">
        <ele>78.2704</ele>
        <time>2011-06-25T16:30:31Z</time>
      </trkpt>
      <trkpt lat="46.31815" lon="-0.31379">
        <ele>78.2332</ele>
        <time>2011-06-25T16:30:32Z</time>
      </trkpt>
      <trkpt lat="46.31816" lon="-0.31379">
        <ele>78.1973</ele>
        <time>2011-06-25T16:30:33Z</time>
      </trkpt>
      <trkpt lat="46.31818" lon="-0.31379">
        <ele>78.1636</ele>
        <time>2011-06-25T16:30:34Z</time>
      </trkpt>
      <trkpt lat="46.31819" lon="-0.31379">
        <ele>78.1307</ele>
        <time>2011-06-25T16:30:35Z</time>
      </trkpt>
      <trkpt lat="46.3182" lon="-0.31379">
        <ele>78.0988</ele>
        <time>2011-06-25T16:30:36Z</time>
      </trkpt>
      <trkpt lat="46.31821" lon="-0.31379">
        <ele>78.0684</ele>
        <time>2011-06-25T16:30:37Z</time>
      </trkpt>
      <trkpt lat="46.31823" lon="-0.31379">
        <ele>78.0375</ele>
        <time>2011-06-25T16:30:38Z</time>
      </trkpt>
      <trkpt lat="46.31824" lon="-0.31379">
        <ele>78.0088</ele>
        <time>2011-06-25T16:30:39Z</time>
      </trkpt>
      <trkpt lat="46.31825" lon="-0.31379">
        <ele>77.983</ele>
        <time>2011-06-25T16:30:40Z</time>
      </trkpt>
      <trkpt lat="46.31826" lon="-0.31379">
        <ele>77.9556</ele>
        <time>2011-06-25T16:30:41Z</time>
      </trkpt>
      <trkpt lat="46.31827" lon="-0.31379">
        <ele>77.9288</ele>
        <time>2011-06-25T16:30:42Z</time>
      </trkpt>
      <trkpt lat="46.31829" lon="-0.31379">
        <ele>77.9006</ele>
        <time>2011-06-25T16:30:43Z</time>
      </trkpt>
      <trkpt lat="46.3183" lon="-0.31379">
        <ele>77.8741</ele>
        <time>2011-06-25T16:30:44Z</time>
      </trkpt>
      <trkpt lat="46.31831" lon="-0.31378">
        <ele>77.85</ele>
        <time>2011-06-25T16:30:45Z</time>
      </trkpt>
      <trkpt lat="46.31833" lon="-0.31378">
        <ele>77.8244</ele>
        <time>2011-06-25T16:30:46Z</time>
      </trkpt>
      <trkpt lat="46.31834" lon="-0.31377">
        <ele>77.7969</ele>
        <time>2011-06-25T16:30:47Z</time>
      </trkpt>
      <trkpt lat="46.31835" lon="-0.31377">
        <ele>77.7706</ele>
        <time>2011-06-25T16:30:48Z</time>
      </trkpt>
      <trkpt lat="46.31836" lon="-0.31376">
        <ele>77.7461</ele>
        <time>2011-06-25T16:30:49Z</time>
      </trkpt>
      <trkpt lat="46.31838" lon="-0.31376">
        <ele>77.7222</ele>
        <time>2011-06-25T16:30:50Z</time>
      </trkpt>
      <trkpt lat="46.31839" lon="-0.31375">
        <ele>77.7018</ele>
        <time>2011-06-25T16:30:51Z</time>
      </trkpt>
      <trkpt lat="46.31841" lon="-0.31375">
        <ele>77.679</ele>
        <time>2011-06-25T16:30:52Z</time>
      </trkpt>
      <trkpt lat="46.31842" lon="-0.31374">
        <ele>77.66</ele>
        <time>2011-06-25T16:30:53Z</time>
      </trkpt>
      <trkpt lat="46.31844" lon="-0.31374">
        <ele>77.6427</ele>
        <time>2011-06-25T16:30:54Z</time>
      </trkpt>
      <trkpt lat="46.31845" lon="-0.31373">
        <ele>77.6269</ele>
        <time>2011-06-25T16:30:55Z</time>
      </trkpt>
      <trkpt lat="46.31847" lon="-0.31373">
        <ele>77.6174</ele>
        <time>2011-06-25T16:30:56Z</time>
      </trkpt>
      <trkpt lat="46.31848" lon="-0.31373">
        <ele>77.6106</ele>
        <time>2011-06-25T16:30:56Z</time>
      </trkpt>
      <trkpt lat="46.3185" lon="-0.31373">
        <ele>77.6086</ele>
        <time>2011-06-25T16:30:58Z</time>
      </trkpt>
      <trkpt lat="46.31851" lon="-0.31372">
        <ele>77.6049</ele>
        <time>2011-06-25T16:30:59Z</time>
      </trkpt>
      <trkpt lat="46.31852" lon="-0.31372">
        <ele>77.6105</ele>
        <time>2011-06-25T16:31:00Z</time>
      </trkpt>
      <trkpt lat="46.31854" lon="-0.31372">
        <ele>77.617</ele>
        <time>2011-06-25T16:31:01Z</time>
      </trkpt>
      <trkpt lat="46.31855" lon="-0.31372">
        <ele>77.6211</ele>
        <time>2011-06-25T16:31:02Z</time>
      </trkpt>
      <trkpt lat="46.31857" lon="-0.31371">
        <ele>77.622</ele>
        <time>2011-06-25T16:31:02Z</time>
      </trkpt>
      <trkpt lat="46.31858" lon="-0.31371">
        <ele>77.623</ele>
        <time>2011-06-25T16:31:04Z</time>
      </trkpt>
      <trkpt lat="46.3186" lon="-0.3137">
        <ele>77.6217</ele>
        <time>2011-06-25T16:31:05Z</time>
      </trkpt>
      <trkpt lat="46.31862" lon="-0.3137">
        <ele>77.6217</ele>
        <time>2011-06-25T16:31:06Z</time>
      </trkpt>
      <trkpt lat="46.31863" lon="-0.3137">
        <ele>77.6217</ele>
        <time>2011-06-25T16:31:06Z</time>
      </trkpt>
      <trkpt lat="46.31865" lon="-0.3137">
        <ele>77.6192</ele>
        <time>2011-06-25T16:31:08Z</time>
      </trkpt>
      <trkpt lat="46.31866" lon="-0.31369">
        <ele>77.6118</ele>
        <time>2011-06-25T16:31:08Z</time>
      </trkpt>
      <trkpt lat="46.31867" lon="-0.31369">
        <ele>77.604</ele>
        <time>2011-06-25T16:31:09Z</time>
      </trkpt>
      <trkpt lat="46.31868" lon="-0.3137">
        <ele>77.5956</ele>
        <time>2011-06-25T16:31:11Z</time>
      </trkpt>
      <trkpt lat="46.31869" lon="-0.3137">
        <ele>77.5888</ele>
        <time>2011-06-25T16:31:12Z</time>
      </trkpt>
      <trkpt lat="46.3187" lon="-0.3137">
        <ele>77.582</ele>
        <time>2011-06-25T16:31:13Z</time>
      </trkpt>
      <trkpt lat="46.31872" lon="-0.31369">
        <ele>77.5755</ele>
        <time>2011-06-25T16:31:14Z</time>
      </trkpt>
      <trkpt lat="46.31873" lon="-0.31369">
        <ele>77.5695</ele>
        <time>2011-06-25T16:31:15Z</time>
      </trkpt>
      <trkpt lat="46.31874" lon="-0.31368">
        <ele>77.5638</ele>
        <time>2011-06-25T16:31:16Z</time>
      </trkpt>
      <trkpt lat="46.31875" lon="-0.31368">
        <ele>77.5582</ele>
        <time>2011-06-25T16:31:17Z</time>
      </trkpt>
      <trkpt lat="46.31876" lon="-0.31368">
        <ele>77.5519</ele>
        <time>2011-06-25T16:31:18Z</time>
      </trkpt>
      <trkpt lat="46.31877" lon="-0.31368">
        <ele>77.5473</ele>
        <time>2011-06-25T16:31:19Z</time>
      </trkpt>
      <trkpt lat="46.31878" lon="-0.31367">
        <ele>77.5451</ele>
        <time>2011-06-25T16:31:20Z</time>
      </trkpt>
      <trkpt lat="46.31879" lon="-0.31367">
        <ele>77.5368</ele>
        <time>2011-06-25T16:31:21Z</time>
      </trkpt>
      <trkpt lat="46.31881" lon="-0.31367">
        <ele>77.5271</ele>
        <time>2011-06-25T16:31:22Z</time>
      </trkpt>
      <trkpt lat="46.31882" lon="-0.31366">
        <ele>77.5175</ele>
        <time>2011-06-25T16:31:23Z</time>
      </trkpt>
      <trkpt lat="46.31883" lon="-0.31366">
        <ele>77.4969</ele>
        <time>2011-06-25T16:31:24Z</time>
      </trkpt>
      <trkpt lat="46.31884" lon="-0.31365">
        <ele>77.4766</ele>
        <time>2011-06-25T16:31:25Z</time>
      </trkpt>
      <trkpt lat="46.31886" lon="-0.31365">
        <ele>77.4488</ele>
        <time>2011-06-25T16:31:26Z</time>
      </trkpt>
      <trkpt lat="46.31887" lon="-0.31364">
        <ele>77.4135</ele>
        <time>2011-06-25T16:31:26Z</time>
      </trkpt>
      <trkpt lat="46.31888" lon="-0.31363">
        <ele>77.3784</ele>
        <time>2011-06-25T16:31:28Z</time>
      </trkpt>
      <trkpt lat="46.3189" lon="-0.31362">
        <ele>77.3421</ele>
        <time>2011-06-25T16:31:29Z</time>
      </trkpt>
      <trkpt lat="46.31891" lon="-0.31361">
        <ele>77.3069</ele>
        <time>2011-06-25T16:31:30Z</time>
      </trkpt>
      <trkpt lat="46.31892" lon="-0.31361">
        <ele>77.2735</ele>
        <time>2011-06-25T16:31:31Z</time>
      </trkpt>
      <trkpt lat="46.31894" lon="-0.3136">
        <ele>77.2411</ele>
        <time>2011-06-25T16:31:32Z</time>
      </trkpt>
      <trkpt lat="46.31895" lon="-0.31359">
        <ele>77.206</ele>
        <time>2011-06-25T16:31:33Z</time>
      </trkpt>
      <trkpt lat="46.31897" lon="-0.31359">
        <ele>77.167</ele>
        <time>2011-06-25T16:31:34Z</time>
      </trkpt>
      <trkpt lat="46.31899" lon="-0.31358">
        <ele>77.1269</ele>
        <time>2011-06-25T16:31:35Z</time>
      </trkpt>
      <trkpt lat="46.31901" lon="-0.31356">
        <ele>77.0845</ele>
        <time>2011-06-25T16:31:36Z</time>
      </trkpt>
      <trkpt lat="46.31902" lon="-0.31356">
        <ele>77.0423</ele>
        <time>2011-06-25T16:31:37Z</time>
      </trkpt>
      <trkpt lat="46.31904" lon="-0.31355">
        <ele>76.9932</ele>
        <time>2011-06-25T16:31:37Z</time>
      </trkpt>
      <trkpt lat="46.31906" lon="-0.31354">
        <ele>76.9463</ele>
        <time>2011-06-25T16:31:38Z</time>
      </trkpt>
      <trkpt lat="46.31907" lon="-0.31354">
        <ele>76.9027</ele>
        <time>2011-06-25T16:31:40Z</time>
      </trkpt>
      <trkpt lat="46.31909" lon="-0.31353">
        <ele>76.8611</ele>
        <time>2011-06-25T16:31:41Z</time>
      </trkpt>
      <trkpt lat="46.3191" lon="-0.31352">
        <ele>76.8213</ele>
        <time>2011-06-25T16:31:42Z</time>
      </trkpt>
      <trkpt lat="46.31912" lon="-0.31352">
        <ele>76.7831</ele>
        <time>2011-06-25T16:31:43Z</time>
      </trkpt>
      <trkpt lat="46.31913" lon="-0.31352">
        <ele>76.75</ele>
        <time>2011-06-25T16:31:44Z</time>
      </trkpt>
      <trkpt lat="46.31914" lon="-0.31351">
        <ele>76.7196</ele>
        <time>2011-06-25T16:31:45Z</time>
      </trkpt>
      <trkpt lat="46.31915" lon="-0.3135">
        <ele>76.6905</ele>
        <time>2011-06-25T16:31:45Z</time>
      </trkpt>
      <trkpt lat="46.31916" lon="-0.3135">
        <ele>76.6709</ele>
        <time>2011-06-25T16:31:47Z</time>
      </trkpt>
      <trkpt lat="46.31918" lon="-0.31349">
        <ele>76.6545</ele>
        <time>2011-06-25T16:31:47Z</time>
      </trkpt>
      <trkpt lat="46.31919" lon="-0.31348">
        <ele>76.6342</ele>
        <time>2011-06-25T16:31:49Z</time>
      </trkpt>
      <trkpt lat="46.3192" lon="-0.31348">
        <ele>76.6196</ele>
        <time>2011-06-25T16:31:50Z</time>
      </trkpt>
      <trkpt lat="46.31921" lon="-0.31347">
        <ele>76.5986</ele>
        <time>2011-06-25T16:31:50Z</time>
      </trkpt>
      <trkpt lat="46.31923" lon="-0.31346">
        <ele>76.5855</ele>
        <time>2011-06-25T16:31:52Z</time>
      </trkpt>
      <trkpt lat="46.31924" lon="-0.31345">
        <ele>76.5807</ele>
        <time>2011-06-25T16:31:52Z</time>
      </trkpt>
      <trkpt lat="46.31925" lon="-0.31345">
        <ele>76.5891</ele>
        <time>2011-06-25T16:31:54Z</time>
      </trkpt>
      <trkpt lat="46.31927" lon="-0.31344">
        <ele>76.5975</ele>
        <time>2011-06-25T16:31:55Z</time>
      </trkpt>
      <trkpt lat="46.31928" lon="-0.31343">
        <ele>76.6121</ele>
        <time>2011-06-25T16:31:56Z</time>
      </trkpt>
      <trkpt lat="46.31929" lon="-0.31343">
        <ele>76.6249</ele>
        <time>2011-06-25T16:31:57Z</time>
      </trkpt>
      <trkpt lat="46.31931" lon="-0.31342">
        <ele>76.6333</ele>
        <time>2011-06-25T16:31:57Z</time>
      </trkpt>
      <trkpt lat="46.31932" lon="-0.31341">
        <ele>76.6426</ele>
        <time>2011-06-25T16:31:58Z</time>
      </trkpt>
      <trkpt lat="46.31934" lon="-0.31341">
        <ele>76.6524</ele>
        <time>2011-06-25T16:32:00Z</time>
      </trkpt>
      <trkpt lat="46.31936" lon="-0.3134">
        <ele>76.6598</ele>
        <time>2011-06-25T16:32:01Z</time>
      </trkpt>
      <trkpt lat="46.31937" lon="-0.31339">
        <ele>76.6637</ele>
        <time>2011-06-25T16:32:01Z</time>
      </trkpt>
      <trkpt lat="46.31938" lon="-0.31338">
        <ele>76.6681</ele>
        <time>2011-06-25T16:32:03Z</time>
      </trkpt>
      <trkpt lat="46.3194" lon="-0.31337">
        <ele>76.6752</ele>
        <time>2011-06-25T16:32:04Z</time>
      </trkpt>
      <trkpt lat="46.31941" lon="-0.31336">
        <ele>76.6841</ele>
        <time>2011-06-25T16:32:05Z</time>
      </trkpt>
      <trkpt lat="46.31942" lon="-0.31336">
        <ele>76.6962</ele>
        <time>2011-06-25T16:32:06Z</time>
      </trkpt>
      <trkpt lat="46.31944" lon="-0.31335">
        <ele>76.7139</ele>
        <time>2011-06-25T16:32:07Z</time>
      </trkpt>
      <trkpt lat="46.31945" lon="-0.31334">
        <ele>76.7327</ele>
        <time>2011-06-25T16:32:07Z</time>
      </trkpt>
      <trkpt lat="46.31946" lon="-0.31334">
        <ele>76.7518</ele>
        <time>2011-06-25T16:32:09Z</time>
      </trkpt>
      <trkpt lat="46.31947" lon="-0.31333">
        <ele>76.7682</ele>
        <time>2011-06-25T16:32:10Z</time>
      </trkpt>
      <trkpt lat="46.31949" lon="-0.31332">
        <ele>76.7816</ele>
        <time>2011-06-25T16:32:10Z</time>
      </trkpt>
      <trkpt lat="46.31949" lon="-0.31331">
        <ele>76.7977</ele>
        <time>2011-06-25T16:32:12Z</time>
      </trkpt>
      <trkpt lat="46.3195" lon="-0.3133">
        <ele>76.8139</ele>
        <time>2011-06-25T16:32:13Z</time>
      </trkpt>
      <trkpt lat="46.31952" lon="-0.31329">
        <ele>76.8347</ele>
        <time>2011-06-25T16:32:13Z</time>
      </trkpt>
      <trkpt lat="46.31953" lon="-0.31328">
        <ele>76.8528</ele>
        <time>2011-06-25T16:32:14Z</time>
      </trkpt>
      <trkpt lat="46.31953" lon="-0.31327">
        <ele>76.8682</ele>
        <time>2011-06-25T16:32:16Z</time>
      </trkpt>
      <trkpt lat="46.31955" lon="-0.31326">
        <ele>76.8814</ele>
        <time>2011-06-25T16:32:17Z</time>
      </trkpt>
      <trkpt lat="46.31955" lon="-0.31324">
        <ele>76.8914</ele>
        <time>2011-06-25T16:32:17Z</time>
      </trkpt>
      <trkpt lat="46.31956" lon="-0.31323">
        <ele>76.9004</ele>
        <time>2011-06-25T16:32:18Z</time>
      </trkpt>
      <trkpt lat="46.31957" lon="-0.31322">
        <ele>76.9076</ele>
        <time>2011-06-25T16:32:20Z</time>
      </trkpt>
      <trkpt lat="46.31958" lon="-0.31321">
        <ele>76.9129</ele>
        <time>2011-06-25T16:32:20Z</time>
      </trkpt>
      <trkpt lat="46.31959" lon="-0.3132">
        <ele>76.9185</ele>
        <time>2011-06-25T16:32:21Z</time>
      </trkpt>
      <trkpt lat="46.3196" lon="-0.31319">
        <ele>76.9223</ele>
        <time>2011-06-25T16:32:23Z</time>
      </trkpt>
      <trkpt lat="46.31961" lon="-0.31317">
        <ele>76.9271</ele>
        <time>2011-06-25T16:32:24Z</time>
      </trkpt>
      <trkpt lat="46.31962" lon="-0.31317">
        <ele>76.9301</ele>
        <time>2011-06-25T16:32:25Z</time>
      </trkpt>
      <trkpt lat="46.31963" lon="-0.31316">
        <ele>76.9323</ele>
        <time>2011-06-25T16:32:26Z</time>
      </trkpt>
      <trkpt lat="46.31964" lon="-0.31315">
        <ele>76.9391</ele>
        <time>2011-06-25T16:32:27Z</time>
      </trkpt>
      <trkpt lat="46.31965" lon="-0.31314">
        <ele>76.948</ele>
        <time>2011-06-25T16:32:28Z</time>
      </trkpt>
      <trkpt lat="46.31966" lon="-0.31313">
        <ele>76.9606</ele>
        <time>2011-06-25T16:32:29Z</time>
      </trkpt>
      <trkpt lat="46.31968" lon="-0.31313">
        <ele>76.9713</ele>
        <time>2011-06-25T16:32:30Z</time>
      </trkpt>
      <trkpt lat="46.31969" lon="-0.31313">
        <ele>76.9817</ele>
        <time>2011-06-25T16:32:31Z</time>
      </trkpt>
      <trkpt lat="46.3197" lon="-0.31312">
        <ele>76.9957</ele>
        <time>2011-06-25T16:32:32Z</time>
      </trkpt>
      <trkpt lat="46.31971" lon="-0.31311">
        <ele>77.0089</ele>
        <time>2011-06-25T16:32:33Z</time>
      </trkpt>
      <trkpt lat="46.31972" lon="-0.3131">
        <ele>77.0198</ele>
        <time>2011-06-25T16:32:34Z</time>
      </trkpt>
      <trkpt lat="46.31973" lon="-0.31309">
        <ele>77.0331</ele>
        <time>2011-06-25T16:32:34Z</time>
      </trkpt>
      <trkpt lat="46.31974" lon="-0.31308">
        <ele>77.0532</ele>
        <time>2011-06-25T16:32:35Z</time>
      </trkpt>
      <trkpt lat="46.31976" lon="-0.31307">
        <ele>77.0782</ele>
        <time>2011-06-25T16:32:37Z</time>
      </trkpt>
      <trkpt lat="46.31977" lon="-0.31305">
        <ele>77.1121</ele>
        <time>2011-06-25T16:32:37Z</time>
      </trkpt>
      <trkpt lat="46.31978" lon="-0.31304">
        <ele>77.1414</ele>
        <time>2011-06-25T16:32:38Z</time>
      </trkpt>
      <trkpt lat="46.3198" lon="-0.31303">
        <ele>77.1688</ele>
        <time>2011-06-25T16:32:40Z</time>
      </trkpt>
      <trkpt lat="46.31981" lon="-0.31302">
        <ele>77.1961</ele>
        <time>2011-06-25T16:32:41Z</time>
      </trkpt>
      <trkpt lat="46.31982" lon="-0.31301">
        <ele>77.2189</ele>
        <time>2011-06-25T16:32:42Z</time>
      </trkpt>
      <trkpt lat="46.31984" lon="-0.313">
        <ele>77.244</ele>
        <time>2011-06-25T16:32:43Z</time>
      </trkpt>
      <trkpt lat="46.31985" lon="-0.31299">
        <ele>77.2684</ele>
        <time>2011-06-25T16:32:43Z</time>
      </trkpt>
      <trkpt lat="46.31986" lon="-0.31298">
        <ele>77.2936</ele>
        <time>2011-06-25T16:32:45Z</time>
      </trkpt>
      <trkpt lat="46.31987" lon="-0.31297">
        <ele>77.3184</ele>
        <time>2011-06-25T16:32:46Z</time>
      </trkpt>
      <trkpt lat="46.31988" lon="-0.31296">
        <ele>77.3437</ele>
        <time>2011-06-25T16:32:47Z</time>
      </trkpt>
      <trkpt lat="46.31989" lon="-0.31295">
        <ele>77.3667</ele>
        <time>2011-06-25T16:32:48Z</time>
      </trkpt>
      <trkpt lat="46.3199" lon="-0.31294">
        <ele>77.3968</ele>
        <time>2011-06-25T16:32:49Z</time>
      </trkpt>
      <trkpt lat="46.31992" lon="-0.31293">
        <ele>77.4246</ele>
        <time>2011-06-25T16:32:50Z</time>
      </trkpt>
      <trkpt lat="46.31993" lon="-0.31292">
        <ele>77.4558</ele>
        <time>2011-06-25T16:32:50Z</time>
      </trkpt>
      <trkpt lat="46.31994" lon="-0.31291">
        <ele>77.4848</ele>
        <time>2011-06-25T16:32:52Z</time>
      </trkpt>
      <trkpt lat="46.31996" lon="-0.31291">
        <ele>77.5132</ele>
        <time>2011-06-25T16:32:53Z</time>
      </trkpt>
      <trkpt lat="46.31997" lon="-0.3129">
        <ele>77.5436</ele>
        <time>2011-06-25T16:32:54Z</time>
      </trkpt>
      <trkpt lat="46.31998" lon="-0.3129">
        <ele>77.5682</ele>
        <time>2011-06-25T16:32:55Z</time>
      </trkpt>
      <trkpt lat="46.32" lon="-0.31289">
        <ele>77.5796</ele>
        <time>2011-06-25T16:32:56Z</time>
      </trkpt>
      <trkpt lat="46.32001" lon="-0.31288">
        <ele>77.59</ele>
        <time>2011-06-25T16:32:57Z</time>
      </trkpt>
      <trkpt lat="46.32002" lon="-0.31288">
        <ele>77.5959</ele>
        <time>2011-06-25T16:32:58Z</time>
      </trkpt>
      <trkpt lat="46.32003" lon="-0.31287">
        <ele>77.5961</ele>
        <time>2011-06-25T16:32:58Z</time>
      </trkpt>
      <trkpt lat="46.32005" lon="-0.31286">
        <ele>77.5958</ele>
        <time>2011-06-25T16:33:00Z</time>
      </trkpt>
      <trkpt lat="46.32006" lon="-0.31285">
        <ele>77.5959</ele>
        <time>2011-06-25T16:33:00Z</time>
      </trkpt>
      <trkpt lat="46.32007" lon="-0.31285">
        <ele>77.5948</ele>
        <time>2011-06-25T16:33:01Z</time>
      </trkpt>
      <trkpt lat="46.32008" lon="-0.31284">
        <ele>77.5901</ele>
        <time>2011-06-25T16:33:02Z</time>
      </trkpt>
      <trkpt lat="46.3201" lon="-0.31283">
        <ele>77.5887</ele>
        <time>2011-06-25T16:33:04Z</time>
      </trkpt>
      <trkpt lat="46.3201" lon="-0.31282">
        <ele>77.5881</ele>
        <time>2011-06-25T16:33:05Z</time>
      </trkpt>
      <trkpt lat="46.32011" lon="-0.31281">
        <ele>77.5883</ele>
        <time>2011-06-25T16:33:06Z</time>
      </trkpt>
      <trkpt lat="46.32012" lon="-0.31281">
        <ele>77.587</ele>
        <time>2011-06-25T16:33:07Z</time>
      </trkpt>
      <trkpt lat="46.32013" lon="-0.3128">
        <ele>77.5848</ele>
        <time>2011-06-25T16:33:08Z</time>
      </trkpt>
      <trkpt lat="46.32015" lon="-0.31279">
        <ele>77.5852</ele>
        <time>2011-06-25T16:33:08Z</time>
      </trkpt>
      <trkpt lat="46.32016" lon="-0.31278">
        <ele>77.5861</ele>
        <time>2011-06-25T16:33:10Z</time>
      </trkpt>
      <trkpt lat="46.32017" lon="-0.31276">
        <ele>77.5848</ele>
        <time>2011-06-25T16:33:10Z</time>
      </trkpt>
      <trkpt lat="46.32018" lon="-0.31275">
        <ele>77.5834</ele>
        <time>2011-06-25T16:33:12Z</time>
      </trkpt>
      <trkpt lat="46.32019" lon="-0.31274">
        <ele>77.5802</ele>
        <time>2011-06-25T16:33:13Z</time>
      </trkpt>
      <trkpt lat="46.3202" lon="-0.31273">
        <ele>77.5794</ele>
        <time>2011-06-25T16:33:13Z</time>
      </trkpt>
      <trkpt lat="46.32021" lon="-0.31273">
        <ele>77.5791</ele>
        <time>2011-06-25T16:33:15Z</time>
      </trkpt>
      <trkpt lat="46.32023" lon="-0.31271">
        <ele>77.5793</ele>
        <time>2011-06-25T16:33:15Z</time>
      </trkpt>
      <trkpt lat="46.32024" lon="-0.3127">
        <ele>77.5762</ele>
        <time>2011-06-25T16:33:17Z</time>
      </trkpt>
      <trkpt lat="46.32025" lon="-0.31269">
        <ele>77.5732</ele>
        <time>2011-06-25T16:33:18Z</time>
      </trkpt>
      <trkpt lat="46.32026" lon="-0.31268">
        <ele>77.5706</ele>
        <time>2011-06-25T16:33:18Z</time>
      </trkpt>
      <trkpt lat="46.32027" lon="-0.31268">
        <ele>77.5691</ele>
        <time>2011-06-25T16:33:19Z</time>
      </trkpt>
      <trkpt lat="46.32028" lon="-0.31267">
        <ele>77.5695</ele>
        <time>2011-06-25T16:33:21Z</time>
      </trkpt>
      <trkpt lat="46.32029" lon="-0.31267">
        <ele>77.5703</ele>
        <time>2011-06-25T16:33:21Z</time>
      </trkpt>
      <trkpt lat="46.3203" lon="-0.31266">
        <ele>77.5712</ele>
        <time>2011-06-25T16:33:22Z</time>
      </trkpt>
      <trkpt lat="46.32031" lon="-0.31265">
        <ele>77.5728</ele>
        <time>2011-06-25T16:33:23Z</time>
      </trkpt>
      <trkpt lat="46.32032" lon="-0.31264">
        <ele>77.5748</ele>
        <time>2011-06-25T16:33:24Z</time>
      </trkpt>
      <trkpt lat="46.32033" lon="-0.31262">
        <ele>77.5804</ele>
        <time>2011-06-25T16:33:26Z</time>
      </trkpt>
      <trkpt lat="46.32034" lon="-0.31261">
        <ele>77.5839</ele>
        <time>2011-06-25T16:33:27Z</time>
      </trkpt>
      <trkpt lat="46.32035" lon="-0.3126">
        <ele>77.5885</ele>
        <time>2011-06-25T16:33:28Z</time>
      </trkpt>
      <trkpt lat="46.32036" lon="-0.31259">
        <ele>77.591</ele>
        <time>2011-06-25T16:33:29Z</time>
      </trkpt>
      <trkpt lat="46.32037" lon="-0.31258">
        <ele>77.5958</ele>
        <time>2011-06-25T16:33:29Z</time>
      </trkpt>
      <trkpt lat="46.32038" lon="-0.31256">
        <ele>77.6027</ele>
        <time>2011-06-25T16:33:30Z</time>
      </trkpt>
      <trkpt lat="46.32039" lon="-0.31255">
        <ele>77.611</ele>
        <time>2011-06-25T16:33:32Z</time>
      </trkpt>
      <trkpt lat="46.3204" lon="-0.31255">
        <ele>77.6078</ele>
        <time>2011-06-25T16:33:33Z</time>
      </trkpt>
      <trkpt lat="46.32042" lon="-0.31254">
        <ele>77.6047</ele>
        <time>2011-06-25T16:33:34Z</time>
      </trkpt>
      <trkpt lat="46.32043" lon="-0.31253">
        <ele>77.6014</ele>
        <time>2011-06-25T16:33:35Z</time>
      </trkpt>
      <trkpt lat="46.32045" lon="-0.31252">
        <ele>77.5994</ele>
        <time>2011-06-25T16:33:35Z</time>
      </trkpt>
      <trkpt lat="46.32046" lon="-0.31251">
        <ele>77.6012</ele>
        <time>2011-06-25T16:33:37Z</time>
      </trkpt>
      <trkpt lat="46.32047" lon="-0.3125">
        <ele>77.6138</ele>
        <time>2011-06-25T16:33:38Z</time>
      </trkpt>
      <trkpt lat="46.32048" lon="-0.3125">
        <ele>77.6419</ele>
        <time>2011-06-25T16:33:39Z</time>
      </trkpt>
      <trkpt lat="46.3205" lon="-0.3125">
        <ele>77.6841</ele>
        <time>2011-06-25T16:33:40Z</time>
      </trkpt>
      <trkpt lat="46.3205" lon="-0.3125">
        <ele>77.7334</ele>
        <time>2011-06-25T16:33:41Z</time>
      </trkpt>
      <trkpt lat="46.32052" lon="-0.31251">
        <ele>77.9222</ele>
        <time>2011-06-25T16:33:44Z</time>
      </trkpt>
      <trkpt lat="46.32053" lon="-0.3125">
        <ele>77.9774</ele>
        <time>2011-06-25T16:33:46Z</time>
      </trkpt>
      <trkpt lat="46.32054" lon="-0.3125">
        <ele>78.0312</ele>
        <time>2011-06-25T16:33:47Z</time>
      </trkpt>
      <trkpt lat="46.32055" lon="-0.31249">
        <ele>78.0785</ele>
        <time>2011-06-25T16:33:47Z</time>
      </trkpt>
      <trkpt lat="46.32056" lon="-0.31248">
        <ele>78.1188</ele>
        <time>2011-06-25T16:33:48Z</time>
      </trkpt>
      <trkpt lat="46.32057" lon="-0.31248">
        <ele>78.1535</ele>
        <time>2011-06-25T16:33:50Z</time>
      </trkpt>
      <trkpt lat="46.32059" lon="-0.31247">
        <ele>78.1869</ele>
        <time>2011-06-25T16:33:51Z</time>
      </trkpt>
      <trkpt lat="46.3206" lon="-0.31247">
        <ele>78.2198</ele>
        <time>2011-06-25T16:33:52Z</time>
      </trkpt>
      <trkpt lat="46.32062" lon="-0.31246">
        <ele>78.25</ele>
        <time>2011-06-25T16:33:53Z</time>
      </trkpt>
      <trkpt lat="46.32063" lon="-0.31246">
        <ele>78.2786</ele>
        <time>2011-06-25T16:33:54Z</time>
      </trkpt>
      <trkpt lat="46.32064" lon="-0.31245">
        <ele>78.3066</ele>
        <time>2011-06-25T16:33:55Z</time>
      </trkpt>
      <trkpt lat="46.32066" lon="-0.31245">
        <ele>78.3347</ele>
        <time>2011-06-25T16:33:55Z</time>
      </trkpt>
      <trkpt lat="46.32068" lon="-0.31244">
        <ele>78.365</ele>
        <time>2011-06-25T16:33:57Z</time>
      </trkpt>
      <trkpt lat="46.32069" lon="-0.31243">
        <ele>78.3978</ele>
        <time>2011-06-25T16:33:58Z</time>
      </trkpt>
      <trkpt lat="46.3207" lon="-0.31243">
        <ele>78.4329</ele>
        <time>2011-06-25T16:33:59Z</time>
      </trkpt>
      <trkpt lat="46.32072" lon="-0.31242">
        <ele>78.4702</ele>
        <time>2011-06-25T16:34:00Z</time>
      </trkpt>
      <trkpt lat="46.32073" lon="-0.31241">
        <ele>78.5099</ele>
        <time>2011-06-25T16:34:01Z</time>
      </trkpt>
      <trkpt lat="46.32075" lon="-0.31241">
        <ele>78.5495</ele>
        <time>2011-06-25T16:34:02Z</time>
      </trkpt>
      <trkpt lat="46.32076" lon="-0.3124">
        <ele>78.5888</ele>
        <time>2011-06-25T16:34:02Z</time>
      </trkpt>
      <trkpt lat="46.32078" lon="-0.31239">
        <ele>78.6267</ele>
        <time>2011-06-25T16:34:04Z</time>
      </trkpt>
      <trkpt lat="46.32079" lon="-0.31238">
        <ele>78.6633</ele>
        <time>2011-06-25T16:34:05Z</time>
      </trkpt>
      <trkpt lat="46.32081" lon="-0.31237">
        <ele>78.6994</ele>
        <time>2011-06-25T16:34:06Z</time>
      </trkpt>
      <trkpt lat="46.32082" lon="-0.31236">
        <ele>78.7347</ele>
        <time>2011-06-25T16:34:07Z</time>
      </trkpt>
      <trkpt lat="46.32084" lon="-0.31236">
        <ele>78.7677</ele>
        <time>2011-06-25T16:34:08Z</time>
      </trkpt>
      <trkpt lat="46.32085" lon="-0.31235">
        <ele>78.8</ele>
        <time>2011-06-25T16:34:09Z</time>
      </trkpt>
      <trkpt lat="46.32086" lon="-0.31235">
        <ele>78.8319</ele>
        <time>2011-06-25T16:34:10Z</time>
      </trkpt>
      <trkpt lat="46.32088" lon="-0.31235">
        <ele>78.8638</ele>
        <time>2011-06-25T16:34:11Z</time>
      </trkpt>
      <trkpt lat="46.32089" lon="-0.31234">
        <ele>78.8948</ele>
        <time>2011-06-25T16:34:12Z</time>
      </trkpt>
      <trkpt lat="46.32089" lon="-0.31234">
        <ele>78.9259</ele>
        <time>2011-06-25T16:34:13Z</time>
      </trkpt>
      <trkpt lat="46.32089" lon="-0.31233">
        <ele>78.9538</ele>
        <time>2011-06-25T16:34:14Z</time>
      </trkpt>
      <trkpt lat="46.32088" lon="-0.31231">
        <ele>78.9821</ele>
        <time>2011-06-25T16:34:15Z</time>
      </trkpt>
      <trkpt lat="46.32088" lon="-0.3123">
        <ele>79.0089</ele>
        <time>2011-06-25T16:34:16Z</time>
      </trkpt>
      <trkpt lat="46.32089" lon="-0.3123">
        <ele>79.032</ele>
        <time>2011-06-25T16:34:17Z</time>
      </trkpt>
      <trkpt lat="46.32091" lon="-0.3123">
        <ele>79.0573</ele>
        <time>2011-06-25T16:34:18Z</time>
      </trkpt>
      <trkpt lat="46.32093" lon="-0.31229">
        <ele>79.0823</ele>
        <time>2011-06-25T16:34:19Z</time>
      </trkpt>
      <trkpt lat="46.32094" lon="-0.31229">
        <ele>79.1057</ele>
        <time>2011-06-25T16:34:20Z</time>
      </trkpt>
      <trkpt lat="46.32096" lon="-0.31228">
        <ele>79.1293</ele>
        <time>2011-06-25T16:34:21Z</time>
      </trkpt>
      <trkpt lat="46.32098" lon="-0.31228">
        <ele>79.1511</ele>
        <time>2011-06-25T16:34:22Z</time>
      </trkpt>
      <trkpt lat="46.321" lon="-0.31228">
        <ele>79.1722</ele>
        <time>2011-06-25T16:34:23Z</time>
      </trkpt>
      <trkpt lat="46.32101" lon="-0.31227">
        <ele>79.2027</ele>
        <time>2011-06-25T16:34:24Z</time>
      </trkpt>
      <trkpt lat="46.32103" lon="-0.31226">
        <ele>79.2451</ele>
        <time>2011-06-25T16:34:25Z</time>
      </trkpt>
      <trkpt lat="46.32104" lon="-0.31226">
        <ele>79.2858</ele>
        <time>2011-06-25T16:34:26Z</time>
      </trkpt>
      <trkpt lat="46.32106" lon="-0.31225">
        <ele>79.3286</ele>
        <time>2011-06-25T16:34:27Z</time>
      </trkpt>
      <trkpt lat="46.32107" lon="-0.31224">
        <ele>79.3746</ele>
        <time>2011-06-25T16:34:28Z</time>
      </trkpt>
      <trkpt lat="46.32108" lon="-0.31224">
        <ele>79.4182</ele>
        <time>2011-06-25T16:34:29Z</time>
      </trkpt>
      <trkpt lat="46.3211" lon="-0.31223">
        <ele>79.463</ele>
        <time>2011-06-25T16:34:30Z</time>
      </trkpt>
      <trkpt lat="46.32111" lon="-0.31222">
        <ele>79.5078</ele>
        <time>2011-06-25T16:34:30Z</time>
      </trkpt>
      <trkpt lat="46.32113" lon="-0.31222">
        <ele>79.5525</ele>
        <time>2011-06-25T16:34:32Z</time>
      </trkpt>
      <trkpt lat="46.32115" lon="-0.31221">
        <ele>79.5933</ele>
        <time>2011-06-25T16:34:33Z</time>
      </trkpt>
      <trkpt lat="46.32116" lon="-0.31221">
        <ele>79.6343</ele>
        <time>2011-06-25T16:34:34Z</time>
      </trkpt>
      <trkpt lat="46.32118" lon="-0.31221">
        <ele>79.678</ele>
        <time>2011-06-25T16:34:35Z</time>
      </trkpt>
      <trkpt lat="46.32119" lon="-0.31221">
        <ele>79.7205</ele>
        <time>2011-06-25T16:34:36Z</time>
      </trkpt>
      <trkpt lat="46.32121" lon="-0.31221">
        <ele>79.7576</ele>
        <time>2011-06-25T16:34:37Z</time>
      </trkpt>
      <trkpt lat="46.32122" lon="-0.3122">
        <ele>79.7942</ele>
        <time>2011-06-25T16:34:38Z</time>
      </trkpt>
      <trkpt lat="46.32124" lon="-0.3122">
        <ele>79.8296</ele>
        <time>2011-06-25T16:34:39Z</time>
      </trkpt>
      <trkpt lat="46.32125" lon="-0.3122">
        <ele>79.8656</ele>
        <time>2011-06-25T16:34:40Z</time>
      </trkpt>
      <trkpt lat="46.32126" lon="-0.31219">
        <ele>79.9085</ele>
        <time>2011-06-25T16:34:41Z</time>
      </trkpt>
      <trkpt lat="46.32128" lon="-0.31219">
        <ele>79.9596</ele>
        <time>2011-06-25T16:34:42Z</time>
      </trkpt>
      <trkpt lat="46.32129" lon="-0.31219">
        <ele>80.0098</ele>
        <time>2011-06-25T16:34:43Z</time>
      </trkpt>
      <trkpt lat="46.32131" lon="-0.31219">
        <ele>80.0574</ele>
        <time>2011-06-25T16:34:44Z</time>
      </trkpt>
      <trkpt lat="46.32132" lon="-0.31219">
        <ele>80.1078</ele>
        <time>2011-06-25T16:34:45Z</time>
      </trkpt>
      <trkpt lat="46.32134" lon="-0.31219">
        <ele>80.1562</ele>
        <time>2011-06-25T16:34:46Z</time>
      </trkpt>
      <trkpt lat="46.32135" lon="-0.31219">
        <ele>80.2029</ele>
        <time>2011-06-25T16:34:47Z</time>
      </trkpt>
      <trkpt lat="46.32137" lon="-0.31219">
        <ele>80.2485</ele>
        <time>2011-06-25T16:34:48Z</time>
      </trkpt>
      <trkpt lat="46.32138" lon="-0.31219">
        <ele>80.292</ele>
        <time>2011-06-25T16:34:49Z</time>
      </trkpt>
      <trkpt lat="46.3214" lon="-0.31219">
        <ele>80.3341</ele>
        <time>2011-06-25T16:34:50Z</time>
      </trkpt>
      <trkpt lat="46.32141" lon="-0.31219">
        <ele>80.3802</ele>
        <time>2011-06-25T16:34:51Z</time>
      </trkpt>
      <trkpt lat="46.32142" lon="-0.3122">
        <ele>80.4263</ele>
        <time>2011-06-25T16:34:52Z</time>
      </trkpt>
      <trkpt lat="46.32144" lon="-0.3122">
        <ele>80.4755</ele>
        <time>2011-06-25T16:34:53Z</time>
      </trkpt>
      <trkpt lat="46.32145" lon="-0.31219">
        <ele>80.526</ele>
        <time>2011-06-25T16:34:54Z</time>
      </trkpt>
      <trkpt lat="46.32147" lon="-0.31219">
        <ele>80.5783</ele>
        <time>2011-06-25T16:34:54Z</time>
      </trkpt>
      <trkpt lat="46.32148" lon="-0.31219">
        <ele>80.63</ele>
        <time>2011-06-25T16:34:56Z</time>
      </trkpt>
      <trkpt lat="46.3215" lon="-0.31219">
        <ele>80.6817</ele>
        <time>2011-06-25T16:34:57Z</time>
      </trkpt>
      <trkpt lat="46.32151" lon="-0.31219">
        <ele>80.7333</ele>
        <time>2011-06-25T16:34:58Z</time>
      </trkpt>
      <trkpt lat="46.32153" lon="-0.31219">
        <ele>80.789</ele>
        <time>2011-06-25T16:34:58Z</time>
      </trkpt>
      <trkpt lat="46.32155" lon="-0.31219">
        <ele>80.8493</ele>
        <time>2011-06-25T16:34:59Z</time>
      </trkpt>
      <trkpt lat="46.32156" lon="-0.31219">
        <ele>80.9119</ele>
        <time>2011-06-25T16:35:01Z</time>
      </trkpt>
      <trkpt lat="46.32158" lon="-0.31219">
        <ele>80.9757</ele>
        <time>2011-06-25T16:35:02Z</time>
      </trkpt>
      <trkpt lat="46.3216" lon="-0.31219">
        <ele>81.0407</ele>
        <time>2011-06-25T16:35:03Z</time>
      </trkpt>
      <trkpt lat="46.32161" lon="-0.31218">
        <ele>81.1071</ele>
        <time>2011-06-25T16:35:04Z</time>
      </trkpt>
      <trkpt lat="46.32163" lon="-0.31218">
        <ele>81.1724</ele>
        <time>2011-06-25T16:35:04Z</time>
      </trkpt>
      <trkpt lat="46.32164" lon="-0.31218">
        <ele>81.2372</ele>
        <time>2011-06-25T16:35:05Z</time>
      </trkpt>
      <trkpt lat="46.32166" lon="-0.31218">
        <ele>81.3022</ele>
        <time>2011-06-25T16:35:06Z</time>
      </trkpt>
      <trkpt lat="46.32167" lon="-0.31218">
        <ele>81.3697</ele>
        <time>2011-06-25T16:35:08Z</time>
      </trkpt>
      <trkpt lat="46.32169" lon="-0.31218">
        <ele>81.4376</ele>
        <time>2011-06-25T16:35:09Z</time>
      </trkpt>
      <trkpt lat="46.32171" lon="-0.31217">
        <ele>81.506</ele>
        <time>2011-06-25T16:35:09Z</time>
      </trkpt>
      <trkpt lat="46.32172" lon="-0.31217">
        <ele>81.5743</ele>
        <time>2011-06-25T16:35:11Z</time>
      </trkpt>
      <trkpt lat="46.32174" lon="-0.31217">
        <ele>81.6413</ele>
        <time>2011-06-25T16:35:11Z</time>
      </trkpt>
      <trkpt lat="46.32175" lon="-0.31216">
        <ele>81.7062</ele>
        <time>2011-06-25T16:35:13Z</time>
      </trkpt>
      <trkpt lat="46.32177" lon="-0.31216">
        <ele>81.768</ele>
        <time>2011-06-25T16:35:14Z</time>
      </trkpt>
      <trkpt lat="46.32178" lon="-0.31216">
        <ele>81.8285</ele>
        <time>2011-06-25T16:35:15Z</time>
      </trkpt>
      <trkpt lat="46.32179" lon="-0.31216">
        <ele>81.8884</ele>
        <time>2011-06-25T16:35:16Z</time>
      </trkpt>
      <trkpt lat="46.3218" lon="-0.31216">
        <ele>81.9461</ele>
        <time>2011-06-25T16:35:16Z</time>
      </trkpt>
      <trkpt lat="46.32182" lon="-0.31215">
        <ele>82.0022</ele>
        <time>2011-06-25T16:35:17Z</time>
      </trkpt>
      <trkpt lat="46.32183" lon="-0.31215">
        <ele>82.0552</ele>
        <time>2011-06-25T16:35:18Z</time>
      </trkpt>
      <trkpt lat="46.32184" lon="-0.31216">
        <ele>82.1076</ele>
        <time>2011-06-25T16:35:19Z</time>
      </trkpt>
      <trkpt lat="46.32186" lon="-0.31216">
        <ele>82.1585</ele>
        <time>2011-06-25T16:35:21Z</time>
      </trkpt>
      <trkpt lat="46.32187" lon="-0.31216">
        <ele>82.2049</ele>
        <time>2011-06-25T16:35:21Z</time>
      </trkpt>
      <trkpt lat="46.32188" lon="-0.31216">
        <ele>82.2492</ele>
        <time>2011-06-25T16:35:23Z</time>
      </trkpt>
      <trkpt lat="46.3219" lon="-0.31217">
        <ele>82.2914</ele>
        <time>2011-06-25T16:35:23Z</time>
      </trkpt>
      <trkpt lat="46.32192" lon="-0.31217">
        <ele>82.3319</ele>
        <time>2011-06-25T16:35:24Z</time>
      </trkpt>
      <trkpt lat="46.32193" lon="-0.31217">
        <ele>82.3709</ele>
        <time>2011-06-25T16:35:25Z</time>
      </trkpt>
      <trkpt lat="46.32194" lon="-0.31216">
        <ele>82.4092</ele>
        <time>2011-06-25T16:35:26Z</time>
      </trkpt>
      <trkpt lat="46.32195" lon="-0.31217">
        <ele>82.4463</ele>
        <time>2011-06-25T16:35:27Z</time>
      </trkpt>
      <trkpt lat="46.32196" lon="-0.31216">
        <ele>82.4802</ele>
        <time>2011-06-25T16:35:29Z</time>
      </trkpt>
      <trkpt lat="46.32198" lon="-0.31216">
        <ele>82.5137</ele>
        <time>2011-06-25T16:35:30Z</time>
      </trkpt>
      <trkpt lat="46.32199" lon="-0.31216">
        <ele>82.5486</ele>
        <time>2011-06-25T16:35:30Z</time>
      </trkpt>
      <trkpt lat="46.322" lon="-0.31215">
        <ele>82.5827</ele>
        <time>2011-06-25T16:35:31Z</time>
      </trkpt>
      <trkpt lat="46.32201" lon="-0.31215">
        <ele>82.6168</ele>
        <time>2011-06-25T16:35:32Z</time>
      </trkpt>
      <trkpt lat="46.32202" lon="-0.31214">
        <ele>82.6479</ele>
        <time>2011-06-25T16:35:34Z</time>
      </trkpt>
      <trkpt lat="46.32203" lon="-0.31214">
        <ele>82.6801</ele>
        <time>2011-06-25T16:35:35Z</time>
      </trkpt>
      <trkpt lat="46.32203" lon="-0.31213">
        <ele>82.7131</ele>
        <time>2011-06-25T16:35:35Z</time>
      </trkpt>
      <trkpt lat="46.32204" lon="-0.31212">
        <ele>82.7457</ele>
        <time>2011-06-25T16:35:36Z</time>
      </trkpt>
      <trkpt lat="46.32205" lon="-0.31211">
        <ele>82.7762</ele>
        <time>2011-06-25T16:35:37Z</time>
      </trkpt>
      <trkpt lat="46.32206" lon="-0.31211">
        <ele>82.802</ele>
        <time>2011-06-25T16:35:38Z</time>
      </trkpt>
      <trkpt lat="46.32207" lon="-0.3121">
        <ele>82.8284</ele>
        <time>2011-06-25T16:35:39Z</time>
      </trkpt>
      <trkpt lat="46.32208" lon="-0.3121">
        <ele>82.8637</ele>
        <time>2011-06-25T16:35:40Z</time>
      </trkpt>
      <trkpt lat="46.32209" lon="-0.3121">
        <ele>82.9139</ele>
        <time>2011-06-25T16:35:41Z</time>
      </trkpt>
      <trkpt lat="46.3221" lon="-0.3121">
        <ele>82.9622</ele>
        <time>2011-06-25T16:35:43Z</time>
      </trkpt>
      <trkpt lat="46.32211" lon="-0.3121">
        <ele>83.0083</ele>
        <time>2011-06-25T16:35:44Z</time>
      </trkpt>
      <trkpt lat="46.32212" lon="-0.3121">
        <ele>83.0523</ele>
        <time>2011-06-25T16:35:44Z</time>
      </trkpt>
      <trkpt lat="46.32213" lon="-0.31209">
        <ele>83.0989</ele>
        <time>2011-06-25T16:35:46Z</time>
      </trkpt>
      <trkpt lat="46.32214" lon="-0.31209">
        <ele>83.1519</ele>
        <time>2011-06-25T16:35:46Z</time>
      </trkpt>
      <trkpt lat="46.32216" lon="-0.31209">
        <ele>83.2022</ele>
        <time>2011-06-25T16:35:47Z</time>
      </trkpt>
      <trkpt lat="46.32217" lon="-0.31209">
        <ele>83.2483</ele>
        <time>2011-06-25T16:35:49Z</time>
      </trkpt>
      <trkpt lat="46.32218" lon="-0.31209">
        <ele>83.2915</ele>
        <time>2011-06-25T16:35:49Z</time>
      </trkpt>
      <trkpt lat="46.32219" lon="-0.31208">
        <ele>83.3326</ele>
        <time>2011-06-25T16:35:50Z</time>
      </trkpt>
      <trkpt lat="46.3222" lon="-0.31208">
        <ele>83.3719</ele>
        <time>2011-06-25T16:35:52Z</time>
      </trkpt>
      <trkpt lat="46.32222" lon="-0.31208">
        <ele>83.4086</ele>
        <time>2011-06-25T16:35:52Z</time>
      </trkpt>
      <trkpt lat="46.32223" lon="-0.31208">
        <ele>83.4321</ele>
        <time>2011-06-25T16:35:53Z</time>
      </trkpt>
      <trkpt lat="46.32224" lon="-0.31207">
        <ele>83.4541</ele>
        <time>2011-06-25T16:35:55Z</time>
      </trkpt>
      <trkpt lat="46.32226" lon="-0.31207">
        <ele>83.4748</ele>
        <time>2011-06-25T16:35:55Z</time>
      </trkpt>
      <trkpt lat="46.32227" lon="-0.31207">
        <ele>83.4946</ele>
        <time>2011-06-25T16:35:56Z</time>
      </trkpt>
      <trkpt lat="46.32229" lon="-0.31207">
        <ele>83.5138</ele>
        <time>2011-06-25T16:35:57Z</time>
      </trkpt>
      <trkpt lat="46.3223" lon="-0.31207">
        <ele>83.5318</ele>
        <time>2011-06-25T16:35:58Z</time>
      </trkpt>
      <trkpt lat="46.32231" lon="-0.31206">
        <ele>83.5502</ele>
        <time>2011-06-25T16:36:00Z</time>
      </trkpt>
      <trkpt lat="46.32233" lon="-0.31206">
        <ele>83.5691</ele>
        <time>2011-06-25T16:36:00Z</time>
      </trkpt>
      <trkpt lat="46.32234" lon="-0.31206">
        <ele>83.5885</ele>
        <time>2011-06-25T16:36:01Z</time>
      </trkpt>
      <trkpt lat="46.32235" lon="-0.31206">
        <ele>83.6078</ele>
        <time>2011-06-25T16:36:03Z</time>
      </trkpt>
      <trkpt lat="46.32236" lon="-0.31206">
        <ele>83.6264</ele>
        <time>2011-06-25T16:36:03Z</time>
      </trkpt>
      <trkpt lat="46.32237" lon="-0.31206">
        <ele>83.6482</ele>
        <time>2011-06-25T16:36:04Z</time>
      </trkpt>
      <trkpt lat="46.32238" lon="-0.31206">
        <ele>83.6691</ele>
        <time>2011-06-25T16:36:06Z</time>
      </trkpt>
      <trkpt lat="46.32239" lon="-0.31205">
        <ele>83.6854</ele>
        <time>2011-06-25T16:36:06Z</time>
      </trkpt>
      <trkpt lat="46.3224" lon="-0.31205">
        <ele>83.7004</ele>
        <time>2011-06-25T16:36:07Z</time>
      </trkpt>
      <trkpt lat="46.32241" lon="-0.31206">
        <ele>83.7139</ele>
        <time>2011-06-25T16:36:08Z</time>
      </trkpt>
      <trkpt lat="46.32243" lon="-0.31206">
        <ele>83.7234</ele>
        <time>2011-06-25T16:36:09Z</time>
      </trkpt>
      <trkpt lat="46.32244" lon="-0.31206">
        <ele>83.734</ele>
        <time>2011-06-25T16:36:10Z</time>
      </trkpt>
      <trkpt lat="46.32245" lon="-0.31207">
        <ele>83.7397</ele>
        <time>2011-06-25T16:36:12Z</time>
      </trkpt>
      <trkpt lat="46.32247" lon="-0.31206">
        <ele>83.7433</ele>
        <time>2011-06-25T16:36:13Z</time>
      </trkpt>
      <trkpt lat="46.32248" lon="-0.31207">
        <ele>83.7444</ele>
        <time>2011-06-25T16:36:13Z</time>
      </trkpt>
      <trkpt lat="46.3225" lon="-0.31207">
        <ele>83.7444</ele>
        <time>2011-06-25T16:36:14Z</time>
      </trkpt>
      <trkpt lat="46.32251" lon="-0.31207">
        <ele>83.7408</ele>
        <time>2011-06-25T16:36:16Z</time>
      </trkpt>
      <trkpt lat="46.32252" lon="-0.31207">
        <ele>83.7337</ele>
        <time>2011-06-25T16:36:16Z</time>
      </trkpt>
      <trkpt lat="46.32254" lon="-0.31207">
        <ele>83.7253</ele>
        <time>2011-06-25T16:36:18Z</time>
      </trkpt>
      <trkpt lat="46.32255" lon="-0.31207">
        <ele>83.7203</ele>
        <time>2011-06-25T16:36:18Z</time>
      </trkpt>
      <trkpt lat="46.32256" lon="-0.31207">
        <ele>83.718</ele>
        <time>2011-06-25T16:36:20Z</time>
      </trkpt>
      <trkpt lat="46.32258" lon="-0.31207">
        <ele>83.7157</ele>
        <time>2011-06-25T16:36:20Z</time>
      </trkpt>
      <trkpt lat="46.32259" lon="-0.31207">
        <ele>83.7118</ele>
        <time>2011-06-25T16:36:21Z</time>
      </trkpt>
      <trkpt lat="46.3226" lon="-0.31207">
        <ele>83.7069</ele>
        <time>2011-06-25T16:36:23Z</time>
      </trkpt>
      <trkpt lat="46.32262" lon="-0.31208">
        <ele>83.7014</ele>
        <time>2011-06-25T16:36:23Z</time>
      </trkpt>
      <trkpt lat="46.32263" lon="-0.31208">
        <ele>83.6951</ele>
        <time>2011-06-25T16:36:25Z</time>
      </trkpt>
      <trkpt lat="46.32265" lon="-0.31207">
        <ele>83.6863</ele>
        <time>2011-06-25T16:36:26Z</time>
      </trkpt>
      <trkpt lat="46.32266" lon="-0.31207">
        <ele>83.6787</ele>
        <time>2011-06-25T16:36:26Z</time>
      </trkpt>
      <trkpt lat="46.32267" lon="-0.31207">
        <ele>83.6711</ele>
        <time>2011-06-25T16:36:27Z</time>
      </trkpt>
      <trkpt lat="46.32269" lon="-0.31207">
        <ele>83.6666</ele>
        <time>2011-06-25T16:36:29Z</time>
      </trkpt>
      <trkpt lat="46.3227" lon="-0.31207">
        <ele>83.6617</ele>
        <time>2011-06-25T16:36:30Z</time>
      </trkpt>
      <trkpt lat="46.32272" lon="-0.31207">
        <ele>83.6573</ele>
        <time>2011-06-25T16:36:31Z</time>
      </trkpt>
      <trkpt lat="46.32273" lon="-0.31208">
        <ele>83.6497</ele>
        <time>2011-06-25T16:36:31Z</time>
      </trkpt>
      <trkpt lat="46.32274" lon="-0.31208">
        <ele>83.6406</ele>
        <time>2011-06-25T16:36:33Z</time>
      </trkpt>
      <trkpt lat="46.32276" lon="-0.31208">
        <ele>83.6332</ele>
        <time>2011-06-25T16:36:34Z</time>
      </trkpt>
      <trkpt lat="46.32277" lon="-0.31208">
        <ele>83.6242</ele>
        <time>2011-06-25T16:36:35Z</time>
      </trkpt>
      <trkpt lat="46.32278" lon="-0.31207">
        <ele>83.614</ele>
        <time>2011-06-25T16:36:35Z</time>
      </trkpt>
      <trkpt lat="46.3228" lon="-0.31208">
        <ele>83.5987</ele>
        <time>2011-06-25T16:36:36Z</time>
      </trkpt>
      <trkpt lat="46.32282" lon="-0.31207">
        <ele>83.5796</ele>
        <time>2011-06-25T16:36:37Z</time>
      </trkpt>
      <trkpt lat="46.32283" lon="-0.31207">
        <ele>83.5579</ele>
        <time>2011-06-25T16:36:39Z</time>
      </trkpt>
      <trkpt lat="46.32284" lon="-0.31207">
        <ele>83.5352</ele>
        <time>2011-06-25T16:36:40Z</time>
      </trkpt>
      <trkpt lat="46.32285" lon="-0.31207">
        <ele>83.5126</ele>
        <time>2011-06-25T16:36:40Z</time>
      </trkpt>
      <trkpt lat="46.32286" lon="-0.31207">
        <ele>83.4899</ele>
        <time>2011-06-25T16:36:42Z</time>
      </trkpt>
      <trkpt lat="46.32288" lon="-0.31207">
        <ele>83.468</ele>
        <time>2011-06-25T16:36:43Z</time>
      </trkpt>
      <trkpt lat="46.32289" lon="-0.31207">
        <ele>83.448</ele>
        <time>2011-06-25T16:36:43Z</time>
      </trkpt>
      <trkpt lat="46.3229" lon="-0.31207">
        <ele>83.429</ele>
        <time>2011-06-25T16:36:45Z</time>
      </trkpt>
      <trkpt lat="46.32291" lon="-0.31207">
        <ele>83.4076</ele>
        <time>2011-06-25T16:36:46Z</time>
      </trkpt>
      <trkpt lat="46.32293" lon="-0.31207">
        <ele>83.3837</ele>
        <time>2011-06-25T16:36:46Z</time>
      </trkpt>
      <trkpt lat="46.32295" lon="-0.31207">
        <ele>83.359</ele>
        <time>2011-06-25T16:36:47Z</time>
      </trkpt>
      <trkpt lat="46.32296" lon="-0.31207">
        <ele>83.3334</ele>
        <time>2011-06-25T16:36:48Z</time>
      </trkpt>
      <trkpt lat="46.32298" lon="-0.31207">
        <ele>83.3095</ele>
        <time>2011-06-25T16:36:49Z</time>
      </trkpt>
      <trkpt lat="46.32299" lon="-0.31207">
        <ele>83.285</ele>
        <time>2011-06-25T16:36:50Z</time>
      </trkpt>
      <trkpt lat="46.323" lon="-0.31207">
        <ele>83.2588</ele>
        <time>2011-06-25T16:36:52Z</time>
      </trkpt>
      <trkpt lat="46.32301" lon="-0.31207">
        <ele>83.2338</ele>
        <time>2011-06-25T16:36:53Z</time>
      </trkpt>
      <trkpt lat="46.32303" lon="-0.31208">
        <ele>83.2061</ele>
        <time>2011-06-25T16:36:54Z</time>
      </trkpt>
      <trkpt lat="46.32304" lon="-0.31208">
        <ele>83.1782</ele>
        <time>2011-06-25T16:36:55Z</time>
      </trkpt>
      <trkpt lat="46.32306" lon="-0.31208">
        <ele>83.1492</ele>
        <time>2011-06-25T16:36:55Z</time>
      </trkpt>
      <trkpt lat="46.32307" lon="-0.31209">
        <ele>83.1219</ele>
        <time>2011-06-25T16:36:56Z</time>
      </trkpt>
      <trkpt lat="46.32308" lon="-0.31209">
        <ele>83.096</ele>
        <time>2011-06-25T16:36:57Z</time>
      </trkpt>
      <trkpt lat="46.3231" lon="-0.31209">
        <ele>83.0708</ele>
        <time>2011-06-25T16:36:59Z</time>
      </trkpt>
      <trkpt lat="46.32311" lon="-0.31209">
        <ele>83.044</ele>
        <time>2011-06-25T16:36:59Z</time>
      </trkpt>
      <trkpt lat="46.32313" lon="-0.31209">
        <ele>83.0123</ele>
        <time>2011-06-25T16:37:01Z</time>
      </trkpt>
      <trkpt lat="46.32314" lon="-0.3121">
        <ele>82.983</ele>
        <time>2011-06-25T16:37:02Z</time>
      </trkpt>
      <trkpt lat="46.32316" lon="-0.3121">
        <ele>82.9534</ele>
        <time>2011-06-25T16:37:03Z</time>
      </trkpt>
      <trkpt lat="46.32317" lon="-0.31211">
        <ele>82.9303</ele>
        <time>2011-06-25T16:37:03Z</time>
      </trkpt>
      <trkpt lat="46.32319" lon="-0.31211">
        <ele>82.91</ele>
        <time>2011-06-25T16:37:05Z</time>
      </trkpt>
      <trkpt lat="46.3232" lon="-0.31211">
        <ele>82.888</ele>
        <time>2011-06-25T16:37:05Z</time>
      </trkpt>
      <trkpt lat="46.32321" lon="-0.31211">
        <ele>82.8666</ele>
        <time>2011-06-25T16:37:06Z</time>
      </trkpt>
      <trkpt lat="46.32322" lon="-0.31211">
        <ele>82.8414</ele>
        <time>2011-06-25T16:37:07Z</time>
      </trkpt>
      <trkpt lat="46.32323" lon="-0.31211">
        <ele>82.8117</ele>
        <time>2011-06-25T16:37:08Z</time>
      </trkpt>
      <trkpt lat="46.32324" lon="-0.31211">
        <ele>82.7802</ele>
        <time>2011-06-25T16:37:09Z</time>
      </trkpt>
      <trkpt lat="46.32325" lon="-0.3121">
        <ele>82.7499</ele>
        <time>2011-06-25T16:37:10Z</time>
      </trkpt>
      <trkpt lat="46.32326" lon="-0.3121">
        <ele>82.7211</ele>
        <time>2011-06-25T16:37:11Z</time>
      </trkpt>
      <trkpt lat="46.32327" lon="-0.31209">
        <ele>82.6935</ele>
        <time>2011-06-25T16:37:12Z</time>
      </trkpt>
      <trkpt lat="46.32328" lon="-0.31209">
        <ele>82.6644</ele>
        <time>2011-06-25T16:37:13Z</time>
      </trkpt>
      <trkpt lat="46.32328" lon="-0.31208">
        <ele>82.6325</ele>
        <time>2011-06-25T16:37:14Z</time>
      </trkpt>
      <trkpt lat="46.32329" lon="-0.31208">
        <ele>82.6032</ele>
        <time>2011-06-25T16:37:15Z</time>
      </trkpt>
      <trkpt lat="46.3233" lon="-0.31207">
        <ele>82.5743</ele>
        <time>2011-06-25T16:37:16Z</time>
      </trkpt>
      <trkpt lat="46.32331" lon="-0.31208">
        <ele>82.5417</ele>
        <time>2011-06-25T16:37:17Z</time>
      </trkpt>
      <trkpt lat="46.32332" lon="-0.31207">
        <ele>82.5113</ele>
        <time>2011-06-25T16:37:18Z</time>
      </trkpt>
      <trkpt lat="46.32333" lon="-0.31207">
        <ele>82.4774</ele>
        <time>2011-06-25T16:37:19Z</time>
      </trkpt>
      <trkpt lat="46.32333" lon="-0.31206">
        <ele>82.4425</ele>
        <time>2011-06-25T16:37:20Z</time>
      </trkpt>
      <trkpt lat="46.32334" lon="-0.31206">
        <ele>82.4072</ele>
        <time>2011-06-25T16:37:21Z</time>
      </trkpt>
      <trkpt lat="46.32335" lon="-0.31206">
        <ele>82.374</ele>
        <time>2011-06-25T16:37:23Z</time>
      </trkpt>
      <trkpt lat="46.32336" lon="-0.31205">
        <ele>82.3417</ele>
        <time>2011-06-25T16:37:23Z</time>
      </trkpt>
      <trkpt lat="46.32337" lon="-0.31205">
        <ele>82.3095</ele>
        <time>2011-06-25T16:37:24Z</time>
      </trkpt>
      <trkpt lat="46.32339" lon="-0.31205">
        <ele>82.2765</ele>
        <time>2011-06-25T16:37:25Z</time>
      </trkpt>
      <trkpt lat="46.3234" lon="-0.31205">
        <ele>82.2434</ele>
        <time>2011-06-25T16:37:26Z</time>
      </trkpt>
      <trkpt lat="46.32341" lon="-0.31204">
        <ele>82.2109</ele>
        <time>2011-06-25T16:37:27Z</time>
      </trkpt>
      <trkpt lat="46.32342" lon="-0.31204">
        <ele>82.1792</ele>
        <time>2011-06-25T16:37:29Z</time>
      </trkpt>
      <trkpt lat="46.32343" lon="-0.31204">
        <ele>82.1466</ele>
        <time>2011-06-25T16:37:29Z</time>
      </trkpt>
      <trkpt lat="46.32344" lon="-0.31203">
        <ele>82.1145</ele>
        <time>2011-06-25T16:37:30Z</time>
      </trkpt>
      <trkpt lat="46.32344" lon="-0.31203">
        <ele>82.0891</ele>
        <time>2011-06-25T16:37:31Z</time>
      </trkpt>
      <trkpt lat="46.32345" lon="-0.31203">
        <ele>82.0689</ele>
        <time>2011-06-25T16:37:32Z</time>
      </trkpt>
      <trkpt lat="46.32346" lon="-0.31202">
        <ele>82.0523</ele>
        <time>2011-06-25T16:37:33Z</time>
      </trkpt>
      <trkpt lat="46.32346" lon="-0.31202">
        <ele>82.0374</ele>
        <time>2011-06-25T16:37:34Z</time>
      </trkpt>
      <trkpt lat="46.32347" lon="-0.31202">
        <ele>82.0249</ele>
        <time>2011-06-25T16:37:36Z</time>
      </trkpt>
      <trkpt lat="46.32347" lon="-0.31201">
        <ele>82.0116</ele>
        <time>2011-06-25T16:37:37Z</time>
      </trkpt>
      <trkpt lat="46.32348" lon="-0.312">
        <ele>81.9994</ele>
        <time>2011-06-25T16:37:37Z</time>
      </trkpt>
      <trkpt lat="46.32348" lon="-0.312">
        <ele>81.9925</ele>
        <time>2011-06-25T16:37:38Z</time>
      </trkpt>
      <trkpt lat="46.32349" lon="-0.312">
        <ele>81.9877</ele>
        <time>2011-06-25T16:37:39Z</time>
      </trkpt>
      <trkpt lat="46.3235" lon="-0.31199">
        <ele>81.9857</ele>
        <time>2011-06-25T16:37:40Z</time>
      </trkpt>
      <trkpt lat="46.32351" lon="-0.31198">
        <ele>81.9868</ele>
        <time>2011-06-25T16:37:42Z</time>
      </trkpt>
      <trkpt lat="46.32352" lon="-0.31197">
        <ele>81.9841</ele>
        <time>2011-06-25T16:37:43Z</time>
      </trkpt>
      <trkpt lat="46.32353" lon="-0.31197">
        <ele>81.981</ele>
        <time>2011-06-25T16:37:44Z</time>
      </trkpt>
      <trkpt lat="46.32354" lon="-0.31196">
        <ele>81.9739</ele>
        <time>2011-06-25T16:37:45Z</time>
      </trkpt>
      <trkpt lat="46.32356" lon="-0.31195">
        <ele>81.9664</ele>
        <time>2011-06-25T16:37:45Z</time>
      </trkpt>
      <trkpt lat="46.32356" lon="-0.31194">
        <ele>81.9596</ele>
        <time>2011-06-25T16:37:46Z</time>
      </trkpt>
      <trkpt lat="46.32357" lon="-0.31193">
        <ele>81.9535</ele>
        <time>2011-06-25T16:37:47Z</time>
      </trkpt>
      <trkpt lat="46.32357" lon="-0.31192">
        <ele>81.9486</ele>
        <time>2011-06-25T16:37:49Z</time>
      </trkpt>
      <trkpt lat="46.32358" lon="-0.31191">
        <ele>81.9438</ele>
        <time>2011-06-25T16:37:49Z</time>
      </trkpt>
      <trkpt lat="46.32359" lon="-0.3119">
        <ele>81.942</ele>
        <time>2011-06-25T16:37:51Z</time>
      </trkpt>
      <trkpt lat="46.32361" lon="-0.31189">
        <ele>81.9403</ele>
        <time>2011-06-25T16:37:51Z</time>
      </trkpt>
      <trkpt lat="46.32361" lon="-0.31187">
        <ele>81.9339</ele>
        <time>2011-06-25T16:37:52Z</time>
      </trkpt>
      <trkpt lat="46.32362" lon="-0.31186">
        <ele>81.9246</ele>
        <time>2011-06-25T16:37:53Z</time>
      </trkpt>
      <trkpt lat="46.32363" lon="-0.31185">
        <ele>81.9169</ele>
        <time>2011-06-25T16:37:55Z</time>
      </trkpt>
      <trkpt lat="46.32364" lon="-0.31184">
        <ele>81.9056</ele>
        <time>2011-06-25T16:37:55Z</time>
      </trkpt>
      <trkpt lat="46.32365" lon="-0.31183">
        <ele>81.8881</ele>
        <time>2011-06-25T16:37:56Z</time>
      </trkpt>
      <trkpt lat="46.32366" lon="-0.31182">
        <ele>81.8711</ele>
        <time>2011-06-25T16:37:57Z</time>
      </trkpt>
      <trkpt lat="46.32367" lon="-0.3118">
        <ele>81.8537</ele>
        <time>2011-06-25T16:37:58Z</time>
      </trkpt>
      <trkpt lat="46.32367" lon="-0.31179">
        <ele>81.8384</ele>
        <time>2011-06-25T16:38:00Z</time>
      </trkpt>
      <trkpt lat="46.32368" lon="-0.31178">
        <ele>81.825</ele>
        <time>2011-06-25T16:38:00Z</time>
      </trkpt>
      <trkpt lat="46.32369" lon="-0.31177">
        <ele>81.8116</ele>
        <time>2011-06-25T16:38:01Z</time>
      </trkpt>
      <trkpt lat="46.3237" lon="-0.31175">
        <ele>81.799</ele>
        <time>2011-06-25T16:38:02Z</time>
      </trkpt>
      <trkpt lat="46.32371" lon="-0.31174">
        <ele>81.7819</ele>
        <time>2011-06-25T16:38:03Z</time>
      </trkpt>
      <trkpt lat="46.32372" lon="-0.31173">
        <ele>81.7714</ele>
        <time>2011-06-25T16:38:05Z</time>
      </trkpt>
      <trkpt lat="46.32373" lon="-0.31172">
        <ele>81.7591</ele>
        <time>2011-06-25T16:38:06Z</time>
      </trkpt>
      <trkpt lat="46.32373" lon="-0.31171">
        <ele>81.748</ele>
        <time>2011-06-25T16:38:06Z</time>
      </trkpt>
      <trkpt lat="46.32374" lon="-0.3117">
        <ele>81.74</ele>
        <time>2011-06-25T16:38:07Z</time>
      </trkpt>
      <trkpt lat="46.32375" lon="-0.31169">
        <ele>81.7308</ele>
        <time>2011-06-25T16:38:08Z</time>
      </trkpt>
      <trkpt lat="46.32376" lon="-0.31168">
        <ele>81.7197</ele>
        <time>2011-06-25T16:38:09Z</time>
      </trkpt>
      <trkpt lat="46.32377" lon="-0.31167">
        <ele>81.7048</ele>
        <time>2011-06-25T16:38:10Z</time>
      </trkpt>
      <trkpt lat="46.32377" lon="-0.31166">
        <ele>81.6912</ele>
        <time>2011-06-25T16:38:12Z</time>
      </trkpt>
      <trkpt lat="46.32378" lon="-0.31165">
        <ele>81.6791</ele>
        <time>2011-06-25T16:38:12Z</time>
      </trkpt>
      <trkpt lat="46.32379" lon="-0.31164">
        <ele>81.6686</ele>
        <time>2011-06-25T16:38:13Z</time>
      </trkpt>
      <trkpt lat="46.3238" lon="-0.31163">
        <ele>81.6588</ele>
        <time>2011-06-25T16:38:15Z</time>
      </trkpt>
      <trkpt lat="46.3238" lon="-0.31162">
        <ele>81.6486</ele>
        <time>2011-06-25T16:38:16Z</time>
      </trkpt>
      <trkpt lat="46.32381" lon="-0.31161">
        <ele>81.6388</ele>
        <time>2011-06-25T16:38:17Z</time>
      </trkpt>
      <trkpt lat="46.32382" lon="-0.3116">
        <ele>81.6311</ele>
        <time>2011-06-25T16:38:17Z</time>
      </trkpt>
      <trkpt lat="46.32383" lon="-0.31159">
        <ele>81.6226</ele>
        <time>2011-06-25T16:38:18Z</time>
      </trkpt>
      <trkpt lat="46.32384" lon="-0.31158">
        <ele>81.6206</ele>
        <time>2011-06-25T16:38:19Z</time>
      </trkpt>
      <trkpt lat="46.32385" lon="-0.31157">
        <ele>81.6286</ele>
        <time>2011-06-25T16:38:20Z</time>
      </trkpt>
      <trkpt lat="46.32386" lon="-0.31156">
        <ele>81.6491</ele>
        <time>2011-06-25T16:38:21Z</time>
      </trkpt>
      <trkpt lat="46.32387" lon="-0.31154">
        <ele>81.6576</ele>
        <time>2011-06-25T16:38:23Z</time>
      </trkpt>
      <trkpt lat="46.32388" lon="-0.31153">
        <ele>81.6558</ele>
        <time>2011-06-25T16:38:23Z</time>
      </trkpt>
      <trkpt lat="46.32389" lon="-0.31152">
        <ele>81.6544</ele>
        <time>2011-06-25T16:38:24Z</time>
      </trkpt>
      <trkpt lat="46.3239" lon="-0.3115">
        <ele>81.6524</ele>
        <time>2011-06-25T16:38:26Z</time>
      </trkpt>
      <trkpt lat="46.3239" lon="-0.31149">
        <ele>81.6513</ele>
        <time>2011-06-25T16:38:26Z</time>
      </trkpt>
      <trkpt lat="46.32391" lon="-0.31147">
        <ele>81.6555</ele>
        <time>2011-06-25T16:38:27Z</time>
      </trkpt>
      <trkpt lat="46.32393" lon="-0.31146">
        <ele>81.6607</ele>
        <time>2011-06-25T16:38:28Z</time>
      </trkpt>
      <trkpt lat="46.32394" lon="-0.31143">
        <ele>81.6627</ele>
        <time>2011-06-25T16:38:29Z</time>
      </trkpt>
      <trkpt lat="46.32396" lon="-0.31142">
        <ele>81.6592</ele>
        <time>2011-06-25T16:38:30Z</time>
      </trkpt>
      <trkpt lat="46.32397" lon="-0.3114">
        <ele>81.6556</ele>
        <time>2011-06-25T16:38:31Z</time>
      </trkpt>
      <trkpt lat="46.32398" lon="-0.31138">
        <ele>81.6554</ele>
        <time>2011-06-25T16:38:32Z</time>
      </trkpt>
      <trkpt lat="46.324" lon="-0.31137">
        <ele>81.6554</ele>
        <time>2011-06-25T16:38:34Z</time>
      </trkpt>
      <trkpt lat="46.32401" lon="-0.31135">
        <ele>81.6579</ele>
        <time>2011-06-25T16:38:34Z</time>
      </trkpt>
      <trkpt lat="46.32402" lon="-0.31132">
        <ele>81.6589</ele>
        <time>2011-06-25T16:38:36Z</time>
      </trkpt>
      <trkpt lat="46.32404" lon="-0.3113">
        <ele>81.6553</ele>
        <time>2011-06-25T16:38:37Z</time>
      </trkpt>
      <trkpt lat="46.32406" lon="-0.31128">
        <ele>81.6486</ele>
        <time>2011-06-25T16:38:37Z</time>
      </trkpt>
      <trkpt lat="46.32407" lon="-0.31126">
        <ele>81.6351</ele>
        <time>2011-06-25T16:38:38Z</time>
      </trkpt>
      <trkpt lat="46.32408" lon="-0.31124">
        <ele>81.6189</ele>
        <time>2011-06-25T16:38:39Z</time>
      </trkpt>
      <trkpt lat="46.32409" lon="-0.31123">
        <ele>81.6025</ele>
        <time>2011-06-25T16:38:40Z</time>
      </trkpt>
      <trkpt lat="46.3241" lon="-0.31122">
        <ele>81.5846</ele>
        <time>2011-06-25T16:38:41Z</time>
      </trkpt>
      <trkpt lat="46.32412" lon="-0.31122">
        <ele>81.5667</ele>
        <time>2011-06-25T16:38:42Z</time>
      </trkpt>
      <trkpt lat="46.32412" lon="-0.31121">
        <ele>81.5474</ele>
        <time>2011-06-25T16:38:44Z</time>
      </trkpt>
      <trkpt lat="46.32414" lon="-0.31121">
        <ele>81.5278</ele>
        <time>2011-06-25T16:38:44Z</time>
      </trkpt>
      <trkpt lat="46.32415" lon="-0.3112">
        <ele>81.5056</ele>
        <time>2011-06-25T16:38:45Z</time>
      </trkpt>
      <trkpt lat="46.32416" lon="-0.3112">
        <ele>81.4847</ele>
        <time>2011-06-25T16:38:46Z</time>
      </trkpt>
      <trkpt lat="46.32417" lon="-0.31119">
        <ele>81.4636</ele>
        <time>2011-06-25T16:38:47Z</time>
      </trkpt>
      <trkpt lat="46.32419" lon="-0.31119">
        <ele>81.4397</ele>
        <time>2011-06-25T16:38:49Z</time>
      </trkpt>
      <trkpt lat="46.3242" lon="-0.31118">
        <ele>81.4166</ele>
        <time>2011-06-25T16:38:49Z</time>
      </trkpt>
      <trkpt lat="46.32422" lon="-0.31117">
        <ele>81.3888</ele>
        <time>2011-06-25T16:38:50Z</time>
      </trkpt>
      <trkpt lat="46.32422" lon="-0.31116">
        <ele>81.362</ele>
        <time>2011-06-25T16:38:51Z</time>
      </trkpt>
      <trkpt lat="46.32423" lon="-0.31115">
        <ele>81.3329</ele>
        <time>2011-06-25T16:38:52Z</time>
      </trkpt>
      <trkpt lat="46.32425" lon="-0.31114">
        <ele>81.3057</ele>
        <time>2011-06-25T16:38:54Z</time>
      </trkpt>
      <trkpt lat="46.32426" lon="-0.31114">
        <ele>81.281</ele>
        <time>2011-06-25T16:38:54Z</time>
      </trkpt>
      <trkpt lat="46.32427" lon="-0.31113">
        <ele>81.2547</ele>
        <time>2011-06-25T16:38:56Z</time>
      </trkpt>
      <trkpt lat="46.32428" lon="-0.31113">
        <ele>81.2292</ele>
        <time>2011-06-25T16:38:57Z</time>
      </trkpt>
      <trkpt lat="46.3243" lon="-0.31113">
        <ele>81.1986</ele>
        <time>2011-06-25T16:38:57Z</time>
      </trkpt>
      <trkpt lat="46.3243" lon="-0.31112">
        <ele>81.1681</ele>
        <time>2011-06-25T16:38:58Z</time>
      </trkpt>
      <trkpt lat="46.32431" lon="-0.31112">
        <ele>81.1363</ele>
        <time>2011-06-25T16:39:00Z</time>
      </trkpt>
      <trkpt lat="46.32432" lon="-0.31112">
        <ele>81.1045</ele>
        <time>2011-06-25T16:39:00Z</time>
      </trkpt>
      <trkpt lat="46.32433" lon="-0.31112">
        <ele>81.0734</ele>
        <time>2011-06-25T16:39:01Z</time>
      </trkpt>
      <trkpt lat="46.32433" lon="-0.31112">
        <ele>81.0387</ele>
        <time>2011-06-25T16:39:03Z</time>
      </trkpt>
      <trkpt lat="46.32434" lon="-0.31111">
        <ele>81.0035</ele>
        <time>2011-06-25T16:39:04Z</time>
      </trkpt>
      <trkpt lat="46.32435" lon="-0.31111">
        <ele>80.9708</ele>
        <time>2011-06-25T16:39:05Z</time>
      </trkpt>
      <trkpt lat="46.32436" lon="-0.31111">
        <ele>80.9295</ele>
        <time>2011-06-25T16:39:06Z</time>
      </trkpt>
      <trkpt lat="46.32437" lon="-0.31112">
        <ele>80.8772</ele>
        <time>2011-06-25T16:39:07Z</time>
      </trkpt>
      <trkpt lat="46.32438" lon="-0.31112">
        <ele>80.8283</ele>
        <time>2011-06-25T16:39:08Z</time>
      </trkpt>
      <trkpt lat="46.32439" lon="-0.31118">
        <ele>80.6309</ele>
        <time>2011-06-25T16:39:14Z</time>
      </trkpt>
      <trkpt lat="46.3244" lon="-0.31119">
        <ele>80.5512</ele>
        <time>2011-06-25T16:39:15Z</time>
      </trkpt>
      <trkpt lat="46.32441" lon="-0.3112">
        <ele>80.4733</ele>
        <time>2011-06-25T16:39:16Z</time>
      </trkpt>
      <trkpt lat="46.32442" lon="-0.31122">
        <ele>80.4019</ele>
        <time>2011-06-25T16:39:17Z</time>
      </trkpt>
      <trkpt lat="46.32443" lon="-0.31124">
        <ele>80.3355</ele>
        <time>2011-06-25T16:39:18Z</time>
      </trkpt>
      <trkpt lat="46.32444" lon="-0.31125">
        <ele>80.2706</ele>
        <time>2011-06-25T16:39:19Z</time>
      </trkpt>
      <trkpt lat="46.32446" lon="-0.31127">
        <ele>80.2029</ele>
        <time>2011-06-25T16:39:20Z</time>
      </trkpt>
      <trkpt lat="46.32447" lon="-0.31129">
        <ele>80.1362</ele>
        <time>2011-06-25T16:39:21Z</time>
      </trkpt>
      <trkpt lat="46.32447" lon="-0.31131">
        <ele>80.0626</ele>
        <time>2011-06-25T16:39:22Z</time>
      </trkpt>
      <trkpt lat="46.32448" lon="-0.31134">
        <ele>79.9844</ele>
        <time>2011-06-25T16:39:23Z</time>
      </trkpt>
      <trkpt lat="46.32449" lon="-0.31135">
        <ele>79.9015</ele>
        <time>2011-06-25T16:39:24Z</time>
      </trkpt>
      <trkpt lat="46.3245" lon="-0.31137">
        <ele>79.8174</ele>
        <time>2011-06-25T16:39:25Z</time>
      </trkpt>
      <trkpt lat="46.32451" lon="-0.31139">
        <ele>79.7301</ele>
        <time>2011-06-25T16:39:26Z</time>
      </trkpt>
      <trkpt lat="46.32452" lon="-0.3114">
        <ele>79.6376</ele>
        <time>2011-06-25T16:39:27Z</time>
      </trkpt>
      <trkpt lat="46.32453" lon="-0.31142">
        <ele>79.5448</ele>
        <time>2011-06-25T16:39:28Z</time>
      </trkpt>
      <trkpt lat="46.32454" lon="-0.31143">
        <ele>79.4465</ele>
        <time>2011-06-25T16:39:28Z</time>
      </trkpt>
      <trkpt lat="46.32455" lon="-0.31144">
        <ele>79.3486</ele>
        <time>2011-06-25T16:39:30Z</time>
      </trkpt>
      <trkpt lat="46.32456" lon="-0.31145">
        <ele>79.251</ele>
        <time>2011-06-25T16:39:31Z</time>
      </trkpt>
      <trkpt lat="46.32457" lon="-0.31146">
        <ele>79.1523</ele>
        <time>2011-06-25T16:39:32Z</time>
      </trkpt>
      <trkpt lat="46.32458" lon="-0.31146">
        <ele>79.0459</ele>
        <time>2011-06-25T16:39:32Z</time>
      </trkpt>
      <trkpt lat="46.32459" lon="-0.31146">
        <ele>78.9386</ele>
        <time>2011-06-25T16:39:33Z</time>
      </trkpt>
      <trkpt lat="46.3246" lon="-0.31146">
        <ele>78.8347</ele>
        <time>2011-06-25T16:39:34Z</time>
      </trkpt>
      <trkpt lat="46.32462" lon="-0.31145">
        <ele>78.7381</ele>
        <time>2011-06-25T16:39:35Z</time>
      </trkpt>
      <trkpt lat="46.32463" lon="-0.31145">
        <ele>78.6451</ele>
        <time>2011-06-25T16:39:36Z</time>
      </trkpt>
      <trkpt lat="46.32464" lon="-0.31145">
        <ele>78.556</ele>
        <time>2011-06-25T16:39:37Z</time>
      </trkpt>
      <trkpt lat="46.32464" lon="-0.31145">
        <ele>78.47</ele>
        <time>2011-06-25T16:39:38Z</time>
      </trkpt>
      <trkpt lat="46.32465" lon="-0.31145">
        <ele>78.3874</ele>
        <time>2011-06-25T16:39:39Z</time>
      </trkpt>
      <trkpt lat="46.32466" lon="-0.31145">
        <ele>78.3068</ele>
        <time>2011-06-25T16:39:40Z</time>
      </trkpt>
      <trkpt lat="46.32467" lon="-0.31145">
        <ele>78.2296</ele>
        <time>2011-06-25T16:39:42Z</time>
      </trkpt>
      <trkpt lat="46.32467" lon="-0.31145">
        <ele>78.1504</ele>
        <time>2011-06-25T16:39:42Z</time>
      </trkpt>
      <trkpt lat="46.32468" lon="-0.31145">
        <ele>78.0746</ele>
        <time>2011-06-25T16:39:43Z</time>
      </trkpt>
      <trkpt lat="46.32468" lon="-0.31145">
        <ele>78.0001</ele>
        <time>2011-06-25T16:39:44Z</time>
      </trkpt>
      <trkpt lat="46.32469" lon="-0.31145">
        <ele>77.9246</ele>
        <time>2011-06-25T16:39:45Z</time>
      </trkpt>
      <trkpt lat="46.3247" lon="-0.31146">
        <ele>77.8514</ele>
        <time>2011-06-25T16:39:46Z</time>
      </trkpt>
      <trkpt lat="46.32471" lon="-0.31146">
        <ele>77.7801</ele>
        <time>2011-06-25T16:39:48Z</time>
      </trkpt>
      <trkpt lat="46.32472" lon="-0.31147">
        <ele>77.7042</ele>
        <time>2011-06-25T16:39:48Z</time>
      </trkpt>
      <trkpt lat="46.32473" lon="-0.31147">
        <ele>77.6219</ele>
        <time>2011-06-25T16:39:50Z</time>
      </trkpt>
      <trkpt lat="46.32473" lon="-0.31147">
        <ele>77.54</ele>
        <time>2011-06-25T16:39:51Z</time>
      </trkpt>
      <trkpt lat="46.32474" lon="-0.31147">
        <ele>77.4595</ele>
        <time>2011-06-25T16:39:51Z</time>
      </trkpt>
      <trkpt lat="46.32475" lon="-0.31147">
        <ele>77.3817</ele>
        <time>2011-06-25T16:39:52Z</time>
      </trkpt>
      <trkpt lat="46.32476" lon="-0.31147">
        <ele>77.3079</ele>
        <time>2011-06-25T16:39:54Z</time>
      </trkpt>
      <trkpt lat="46.32477" lon="-0.31147">
        <ele>77.2379</ele>
        <time>2011-06-25T16:39:55Z</time>
      </trkpt>
      <trkpt lat="46.32476" lon="-0.31148">
        <ele>77.1616</ele>
        <time>2011-06-25T16:39:56Z</time>
      </trkpt>
      <trkpt lat="46.32477" lon="-0.31148">
        <ele>77.0947</ele>
        <time>2011-06-25T16:39:57Z</time>
      </trkpt>
      <trkpt lat="46.32501" lon="-0.31149">
        <ele>74.0748</ele>
        <time>2011-06-25T16:41:20Z</time>
      </trkpt>
      <trkpt lat="46.32501" lon="-0.31148">
        <ele>73.8749</ele>
        <time>2011-06-25T16:41:21Z</time>
      </trkpt>
      <trkpt lat="46.32502" lon="-0.31147">
        <ele>73.6797</ele>
        <time>2011-06-25T16:41:22Z</time>
      </trkpt>
      <trkpt lat="46.32502" lon="-0.31146">
        <ele>73.4922</ele>
        <time>2011-06-25T16:41:22Z</time>
      </trkpt>
      <trkpt lat="46.32504" lon="-0.31145">
        <ele>73.3091</ele>
        <time>2011-06-25T16:41:24Z</time>
      </trkpt>
      <trkpt lat="46.32504" lon="-0.31144">
        <ele>73.1344</ele>
        <time>2011-06-25T16:41:24Z</time>
      </trkpt>
      <trkpt lat="46.32505" lon="-0.31143">
        <ele>72.9687</ele>
        <time>2011-06-25T16:41:26Z</time>
      </trkpt>
      <trkpt lat="46.32507" lon="-0.31143">
        <ele>72.8109</ele>
        <time>2011-06-25T16:41:27Z</time>
      </trkpt>
      <trkpt lat="46.32507" lon="-0.31142">
        <ele>72.6603</ele>
        <time>2011-06-25T16:41:28Z</time>
      </trkpt>
      <trkpt lat="46.32508" lon="-0.3114">
        <ele>72.5081</ele>
        <time>2011-06-25T16:41:29Z</time>
      </trkpt>
      <trkpt lat="46.32508" lon="-0.31139">
        <ele>72.3574</ele>
        <time>2011-06-25T16:41:30Z</time>
      </trkpt>
      <trkpt lat="46.32509" lon="-0.31137">
        <ele>72.219</ele>
        <time>2011-06-25T16:41:31Z</time>
      </trkpt>
      <trkpt lat="46.32509" lon="-0.31135">
        <ele>72.088</ele>
        <time>2011-06-25T16:41:31Z</time>
      </trkpt>
      <trkpt lat="46.32508" lon="-0.31133">
        <ele>71.9633</ele>
        <time>2011-06-25T16:41:33Z</time>
      </trkpt>
      <trkpt lat="46.32508" lon="-0.31132">
        <ele>71.8404</ele>
        <time>2011-06-25T16:41:34Z</time>
      </trkpt>
      <trkpt lat="46.32509" lon="-0.3113">
        <ele>71.7203</ele>
        <time>2011-06-25T16:41:35Z</time>
      </trkpt>
      <trkpt lat="46.32509" lon="-0.31128">
        <ele>71.6068</ele>
        <time>2011-06-25T16:41:36Z</time>
      </trkpt>
      <trkpt lat="46.32509" lon="-0.31126">
        <ele>71.493</ele>
        <time>2011-06-25T16:41:37Z</time>
      </trkpt>
      <trkpt lat="46.32509" lon="-0.31124">
        <ele>71.3848</ele>
        <time>2011-06-25T16:41:38Z</time>
      </trkpt>
      <trkpt lat="46.32509" lon="-0.31122">
        <ele>71.2853</ele>
        <time>2011-06-25T16:41:38Z</time>
      </trkpt>
      <trkpt lat="46.32509" lon="-0.31121">
        <ele>71.1913</ele>
        <time>2011-06-25T16:41:40Z</time>
      </trkpt>
      <trkpt lat="46.3251" lon="-0.31119">
        <ele>71.1026</ele>
        <time>2011-06-25T16:41:41Z</time>
      </trkpt>
      <trkpt lat="46.3251" lon="-0.31118">
        <ele>71.0141</ele>
        <time>2011-06-25T16:41:42Z</time>
      </trkpt>
      <trkpt lat="46.32511" lon="-0.31116">
        <ele>70.9284</ele>
        <time>2011-06-25T16:41:43Z</time>
      </trkpt>
      <trkpt lat="46.32512" lon="-0.31115">
        <ele>70.8517</ele>
        <time>2011-06-25T16:41:44Z</time>
      </trkpt>
      <trkpt lat="46.32512" lon="-0.31114">
        <ele>70.7788</ele>
        <time>2011-06-25T16:41:45Z</time>
      </trkpt>
      <trkpt lat="46.32513" lon="-0.31112">
        <ele>70.7145</ele>
        <time>2011-06-25T16:41:46Z</time>
      </trkpt>
      <trkpt lat="46.32513" lon="-0.31111">
        <ele>70.6559</ele>
        <time>2011-06-25T16:41:47Z</time>
      </trkpt>
      <trkpt lat="46.32514" lon="-0.31109">
        <ele>70.6047</ele>
        <time>2011-06-25T16:41:47Z</time>
      </trkpt>
      <trkpt lat="46.32515" lon="-0.31107">
        <ele>70.5673</ele>
        <time>2011-06-25T16:41:48Z</time>
      </trkpt>
      <trkpt lat="46.32516" lon="-0.31105">
        <ele>70.532</ele>
        <time>2011-06-25T16:41:50Z</time>
      </trkpt>
      <trkpt lat="46.32516" lon="-0.31103">
        <ele>70.498</ele>
        <time>2011-06-25T16:41:51Z</time>
      </trkpt>
      <trkpt lat="46.32517" lon="-0.31101">
        <ele>70.4664</ele>
        <time>2011-06-25T16:41:52Z</time>
      </trkpt>
      <trkpt lat="46.32517" lon="-0.31099">
        <ele>70.439</ele>
        <time>2011-06-25T16:41:53Z</time>
      </trkpt>
      <trkpt lat="46.32518" lon="-0.31097">
        <ele>70.4125</ele>
        <time>2011-06-25T16:41:54Z</time>
      </trkpt>
      <trkpt lat="46.32519" lon="-0.31095">
        <ele>70.3856</ele>
        <time>2011-06-25T16:41:55Z</time>
      </trkpt>
      <trkpt lat="46.3252" lon="-0.31094">
        <ele>70.3606</ele>
        <time>2011-06-25T16:41:56Z</time>
      </trkpt>
      <trkpt lat="46.3252" lon="-0.31092">
        <ele>70.3368</ele>
        <time>2011-06-25T16:41:57Z</time>
      </trkpt>
      <trkpt lat="46.32521" lon="-0.31091">
        <ele>70.312</ele>
        <time>2011-06-25T16:41:58Z</time>
      </trkpt>
      <trkpt lat="46.32522" lon="-0.3109">
        <ele>70.2962</ele>
        <time>2011-06-25T16:41:59Z</time>
      </trkpt>
      <trkpt lat="46.32523" lon="-0.31089">
        <ele>70.2809</ele>
        <time>2011-06-25T16:42:00Z</time>
      </trkpt>
      <trkpt lat="46.32523" lon="-0.31089">
        <ele>70.2676</ele>
        <time>2011-06-25T16:42:01Z</time>
      </trkpt>
      <trkpt lat="46.32524" lon="-0.31088">
        <ele>70.2531</ele>
        <time>2011-06-25T16:42:02Z</time>
      </trkpt>
      <trkpt lat="46.32525" lon="-0.31088">
        <ele>70.2372</ele>
        <time>2011-06-25T16:42:03Z</time>
      </trkpt>
      <trkpt lat="46.32526" lon="-0.31087">
        <ele>70.2252</ele>
        <time>2011-06-25T16:42:04Z</time>
      </trkpt>
      <trkpt lat="46.32526" lon="-0.31086">
        <ele>70.2157</ele>
        <time>2011-06-25T16:42:05Z</time>
      </trkpt>
      <trkpt lat="46.32527" lon="-0.31085">
        <ele>70.2062</ele>
        <time>2011-06-25T16:42:06Z</time>
      </trkpt>
      <trkpt lat="46.32528" lon="-0.31085">
        <ele>70.1962</ele>
        <time>2011-06-25T16:42:07Z</time>
      </trkpt>
      <trkpt lat="46.32529" lon="-0.31084">
        <ele>70.1826</ele>
        <time>2011-06-25T16:42:08Z</time>
      </trkpt>
      <trkpt lat="46.3253" lon="-0.31083">
        <ele>70.1643</ele>
        <time>2011-06-25T16:42:09Z</time>
      </trkpt>
      <trkpt lat="46.32532" lon="-0.31081">
        <ele>70.1553</ele>
        <time>2011-06-25T16:42:10Z</time>
      </trkpt>
      <trkpt lat="46.32533" lon="-0.31079">
        <ele>70.148</ele>
        <time>2011-06-25T16:42:11Z</time>
      </trkpt>
      <trkpt lat="46.32535" lon="-0.31077">
        <ele>70.1483</ele>
        <time>2011-06-25T16:42:11Z</time>
      </trkpt>
      <trkpt lat="46.32537" lon="-0.31076">
        <ele>70.1401</ele>
        <time>2011-06-25T16:42:13Z</time>
      </trkpt>
      <trkpt lat="46.32539" lon="-0.31075">
        <ele>70.1319</ele>
        <time>2011-06-25T16:42:14Z</time>
      </trkpt>
      <trkpt lat="46.32541" lon="-0.31074">
        <ele>70.1225</ele>
        <time>2011-06-25T16:42:15Z</time>
      </trkpt>
      <trkpt lat="46.32543" lon="-0.31073">
        <ele>70.1193</ele>
        <time>2011-06-25T16:42:16Z</time>
      </trkpt>
      <trkpt lat="46.32544" lon="-0.31072">
        <ele>70.1199</ele>
        <time>2011-06-25T16:42:17Z</time>
      </trkpt>
      <trkpt lat="46.32545" lon="-0.31072">
        <ele>70.1189</ele>
        <time>2011-06-25T16:42:18Z</time>
      </trkpt>
      <trkpt lat="46.32547" lon="-0.31071">
        <ele>70.1334</ele>
        <time>2011-06-25T16:42:19Z</time>
      </trkpt>
      <trkpt lat="46.32548" lon="-0.3107">
        <ele>70.1475</ele>
        <time>2011-06-25T16:42:20Z</time>
      </trkpt>
      <trkpt lat="46.32549" lon="-0.3107">
        <ele>70.1617</ele>
        <time>2011-06-25T16:42:21Z</time>
      </trkpt>
      <trkpt lat="46.3255" lon="-0.31069">
        <ele>70.1742</ele>
        <time>2011-06-25T16:42:22Z</time>
      </trkpt>
      <trkpt lat="46.32551" lon="-0.31068">
        <ele>70.1881</ele>
        <time>2011-06-25T16:42:23Z</time>
      </trkpt>
      <trkpt lat="46.32552" lon="-0.31067">
        <ele>70.2004</ele>
        <time>2011-06-25T16:42:24Z</time>
      </trkpt>
      <trkpt lat="46.32553" lon="-0.31066">
        <ele>70.2125</ele>
        <time>2011-06-25T16:42:25Z</time>
      </trkpt>
      <trkpt lat="46.32554" lon="-0.31065">
        <ele>70.2239</ele>
        <time>2011-06-25T16:42:26Z</time>
      </trkpt>
      <trkpt lat="46.32555" lon="-0.31064">
        <ele>70.245</ele>
        <time>2011-06-25T16:42:27Z</time>
      </trkpt>
      <trkpt lat="46.32556" lon="-0.31063">
        <ele>70.2673</ele>
        <time>2011-06-25T16:42:28Z</time>
      </trkpt>
      <trkpt lat="46.32557" lon="-0.31061">
        <ele>70.2904</ele>
        <time>2011-06-25T16:42:29Z</time>
      </trkpt>
      <trkpt lat="46.32558" lon="-0.3106">
        <ele>70.3221</ele>
        <time>2011-06-25T16:42:30Z</time>
      </trkpt>
      <trkpt lat="46.3256" lon="-0.31059">
        <ele>70.3754</ele>
        <time>2011-06-25T16:42:31Z</time>
      </trkpt>
      <trkpt lat="46.32562" lon="-0.31058">
        <ele>70.4461</ele>
        <time>2011-06-25T16:42:31Z</time>
      </trkpt>
      <trkpt lat="46.32563" lon="-0.31057">
        <ele>70.5239</ele>
        <time>2011-06-25T16:42:33Z</time>
      </trkpt>
      <trkpt lat="46.32565" lon="-0.31056">
        <ele>70.5994</ele>
        <time>2011-06-25T16:42:33Z</time>
      </trkpt>
      <trkpt lat="46.32567" lon="-0.31054">
        <ele>70.6705</ele>
        <time>2011-06-25T16:42:34Z</time>
      </trkpt>
      <trkpt lat="46.32569" lon="-0.31053">
        <ele>70.7383</ele>
        <time>2011-06-25T16:42:36Z</time>
      </trkpt>
      <trkpt lat="46.3257" lon="-0.31052">
        <ele>70.806</ele>
        <time>2011-06-25T16:42:36Z</time>
      </trkpt>
      <trkpt lat="46.32571" lon="-0.31052">
        <ele>70.8772</ele>
        <time>2011-06-25T16:42:37Z</time>
      </trkpt>
      <trkpt lat="46.32573" lon="-0.31051">
        <ele>70.9497</ele>
        <time>2011-06-25T16:42:38Z</time>
      </trkpt>
      <trkpt lat="46.32575" lon="-0.31051">
        <ele>71.0313</ele>
        <time>2011-06-25T16:42:40Z</time>
      </trkpt>
      <trkpt lat="46.32576" lon="-0.31051">
        <ele>71.1122</ele>
        <time>2011-06-25T16:42:41Z</time>
      </trkpt>
      <trkpt lat="46.32577" lon="-0.3105">
        <ele>71.1887</ele>
        <time>2011-06-25T16:42:41Z</time>
      </trkpt>
      <trkpt lat="46.32578" lon="-0.3105">
        <ele>71.2628</ele>
        <time>2011-06-25T16:42:42Z</time>
      </trkpt>
      <trkpt lat="46.3258" lon="-0.3105">
        <ele>71.333</ele>
        <time>2011-06-25T16:42:43Z</time>
      </trkpt>
      <trkpt lat="46.32581" lon="-0.3105">
        <ele>71.4013</ele>
        <time>2011-06-25T16:42:44Z</time>
      </trkpt>
      <trkpt lat="46.32583" lon="-0.31049">
        <ele>71.4687</ele>
        <time>2011-06-25T16:42:45Z</time>
      </trkpt>
      <trkpt lat="46.32584" lon="-0.31047">
        <ele>71.5247</ele>
        <time>2011-06-25T16:42:46Z</time>
      </trkpt>
      <trkpt lat="46.32585" lon="-0.31046">
        <ele>71.5788</ele>
        <time>2011-06-25T16:42:48Z</time>
      </trkpt>
      <trkpt lat="46.32586" lon="-0.31044">
        <ele>71.6299</ele>
        <time>2011-06-25T16:42:48Z</time>
      </trkpt>
      <trkpt lat="46.32587" lon="-0.31043">
        <ele>71.6868</ele>
        <time>2011-06-25T16:42:49Z</time>
      </trkpt>
      <trkpt lat="46.32589" lon="-0.31041">
        <ele>71.7407</ele>
        <time>2011-06-25T16:42:50Z</time>
      </trkpt>
      <trkpt lat="46.3259" lon="-0.3104">
        <ele>71.7889</ele>
        <time>2011-06-25T16:42:51Z</time>
      </trkpt>
      <trkpt lat="46.32591" lon="-0.31038">
        <ele>71.8355</ele>
        <time>2011-06-25T16:42:52Z</time>
      </trkpt>
      <trkpt lat="46.32592" lon="-0.31037">
        <ele>71.8821</ele>
        <time>2011-06-25T16:42:53Z</time>
      </trkpt>
      <trkpt lat="46.32594" lon="-0.31035">
        <ele>71.9191</ele>
        <time>2011-06-25T16:42:55Z</time>
      </trkpt>
      <trkpt lat="46.32594" lon="-0.31034">
        <ele>71.9511</ele>
        <time>2011-06-25T16:42:56Z</time>
      </trkpt>
      <trkpt lat="46.32595" lon="-0.31032">
        <ele>71.9788</ele>
        <time>2011-06-25T16:42:56Z</time>
      </trkpt>
      <trkpt lat="46.32596" lon="-0.31031">
        <ele>72.0053</ele>
        <time>2011-06-25T16:42:58Z</time>
      </trkpt>
      <trkpt lat="46.32597" lon="-0.3103">
        <ele>72.0274</ele>
        <time>2011-06-25T16:42:59Z</time>
      </trkpt>
      <trkpt lat="46.32597" lon="-0.31028">
        <ele>72.0459</ele>
        <time>2011-06-25T16:42:59Z</time>
      </trkpt>
      <trkpt lat="46.32598" lon="-0.31027">
        <ele>72.0654</ele>
        <time>2011-06-25T16:43:00Z</time>
      </trkpt>
      <trkpt lat="46.32598" lon="-0.31025">
        <ele>72.0787</ele>
        <time>2011-06-25T16:43:01Z</time>
      </trkpt>
      <trkpt lat="46.32599" lon="-0.31023">
        <ele>72.0914</ele>
        <time>2011-06-25T16:43:03Z</time>
      </trkpt>
      <trkpt lat="46.32599" lon="-0.31021">
        <ele>72.1032</ele>
        <time>2011-06-25T16:43:03Z</time>
      </trkpt>
      <trkpt lat="46.326" lon="-0.31019">
        <ele>72.1171</ele>
        <time>2011-06-25T16:43:05Z</time>
      </trkpt>
      <trkpt lat="46.326" lon="-0.31017">
        <ele>72.131</ele>
        <time>2011-06-25T16:43:06Z</time>
      </trkpt>
      <trkpt lat="46.326" lon="-0.31015">
        <ele>72.1443</ele>
        <time>2011-06-25T16:43:06Z</time>
      </trkpt>
      <trkpt lat="46.326" lon="-0.31013">
        <ele>72.156</ele>
        <time>2011-06-25T16:43:08Z</time>
      </trkpt>
      <trkpt lat="46.326" lon="-0.31011">
        <ele>72.1676</ele>
        <time>2011-06-25T16:43:09Z</time>
      </trkpt>
      <trkpt lat="46.32601" lon="-0.31009">
        <ele>72.1809</ele>
        <time>2011-06-25T16:43:09Z</time>
      </trkpt>
      <trkpt lat="46.32601" lon="-0.31007">
        <ele>72.1897</ele>
        <time>2011-06-25T16:43:10Z</time>
      </trkpt>
      <trkpt lat="46.32602" lon="-0.31006">
        <ele>72.1981</ele>
        <time>2011-06-25T16:43:12Z</time>
      </trkpt>
      <trkpt lat="46.32602" lon="-0.31004">
        <ele>72.2048</ele>
        <time>2011-06-25T16:43:12Z</time>
      </trkpt>
      <trkpt lat="46.32603" lon="-0.31001">
        <ele>72.2088</ele>
        <time>2011-06-25T16:43:13Z</time>
      </trkpt>
      <trkpt lat="46.32604" lon="-0.30999">
        <ele>72.2096</ele>
        <time>2011-06-25T16:43:14Z</time>
      </trkpt>
      <trkpt lat="46.32605" lon="-0.30997">
        <ele>72.2063</ele>
        <time>2011-06-25T16:43:16Z</time>
      </trkpt>
      <trkpt lat="46.32607" lon="-0.30996">
        <ele>72.1998</ele>
        <time>2011-06-25T16:43:17Z</time>
      </trkpt>
      <trkpt lat="46.32608" lon="-0.30995">
        <ele>72.1921</ele>
        <time>2011-06-25T16:43:17Z</time>
      </trkpt>
      <trkpt lat="46.32608" lon="-0.30993">
        <ele>72.1842</ele>
        <time>2011-06-25T16:43:18Z</time>
      </trkpt>
      <trkpt lat="46.32609" lon="-0.30992">
        <ele>72.1727</ele>
        <time>2011-06-25T16:43:20Z</time>
      </trkpt>
      <trkpt lat="46.3261" lon="-0.30992">
        <ele>72.1598</ele>
        <time>2011-06-25T16:43:20Z</time>
      </trkpt>
      <trkpt lat="46.32612" lon="-0.3099">
        <ele>72.1517</ele>
        <time>2011-06-25T16:43:21Z</time>
      </trkpt>
      <trkpt lat="46.32612" lon="-0.30989">
        <ele>72.1445</ele>
        <time>2011-06-25T16:43:23Z</time>
      </trkpt>
      <trkpt lat="46.32613" lon="-0.30988">
        <ele>72.1358</ele>
        <time>2011-06-25T16:43:23Z</time>
      </trkpt>
      <trkpt lat="46.32614" lon="-0.30987">
        <ele>72.1264</ele>
        <time>2011-06-25T16:43:24Z</time>
      </trkpt>
      <trkpt lat="46.32615" lon="-0.30986">
        <ele>72.106</ele>
        <time>2011-06-25T16:43:25Z</time>
      </trkpt>
      <trkpt lat="46.32616" lon="-0.30986">
        <ele>72.0892</ele>
        <time>2011-06-25T16:43:26Z</time>
      </trkpt>
      <trkpt lat="46.32616" lon="-0.30985">
        <ele>72.0745</ele>
        <time>2011-06-25T16:43:28Z</time>
      </trkpt>
      <trkpt lat="46.32618" lon="-0.30984">
        <ele>72.0601</ele>
        <time>2011-06-25T16:43:28Z</time>
      </trkpt>
      <trkpt lat="46.32619" lon="-0.30984">
        <ele>72.0505</ele>
        <time>2011-06-25T16:43:30Z</time>
      </trkpt>
      <trkpt lat="46.3262" lon="-0.30984">
        <ele>72.0427</ele>
        <time>2011-06-25T16:43:30Z</time>
      </trkpt>
      <trkpt lat="46.32621" lon="-0.30982">
        <ele>72.0357</ele>
        <time>2011-06-25T16:43:31Z</time>
      </trkpt>
      <trkpt lat="46.32622" lon="-0.30982">
        <ele>72.0302</ele>
        <time>2011-06-25T16:43:32Z</time>
      </trkpt>
      <trkpt lat="46.32623" lon="-0.30981">
        <ele>72.03</ele>
        <time>2011-06-25T16:43:34Z</time>
      </trkpt>
      <trkpt lat="46.32624" lon="-0.30981">
        <ele>72.0276</ele>
        <time>2011-06-25T16:43:35Z</time>
      </trkpt>
      <trkpt lat="46.32625" lon="-0.3098">
        <ele>72.0283</ele>
        <time>2011-06-25T16:43:35Z</time>
      </trkpt>
      <trkpt lat="46.32626" lon="-0.3098">
        <ele>72.0309</ele>
        <time>2011-06-25T16:43:36Z</time>
      </trkpt>
      <trkpt lat="46.32627" lon="-0.30979">
        <ele>72.0346</ele>
        <time>2011-06-25T16:43:37Z</time>
      </trkpt>
      <trkpt lat="46.32628" lon="-0.30979">
        <ele>72.0318</ele>
        <time>2011-06-25T16:43:38Z</time>
      </trkpt>
      <trkpt lat="46.32629" lon="-0.30978">
        <ele>72.0298</ele>
        <time>2011-06-25T16:43:39Z</time>
      </trkpt>
      <trkpt lat="46.3263" lon="-0.30978">
        <ele>72.0294</ele>
        <time>2011-06-25T16:43:41Z</time>
      </trkpt>
      <trkpt lat="46.32631" lon="-0.30978">
        <ele>72.0331</ele>
        <time>2011-06-25T16:43:41Z</time>
      </trkpt>
      <trkpt lat="46.32632" lon="-0.30978">
        <ele>72.0378</ele>
        <time>2011-06-25T16:43:43Z</time>
      </trkpt>
      <trkpt lat="46.32633" lon="-0.30978">
        <ele>72.0451</ele>
        <time>2011-06-25T16:43:43Z</time>
      </trkpt>
      <trkpt lat="46.32634" lon="-0.30978">
        <ele>72.0523</ele>
        <time>2011-06-25T16:43:45Z</time>
      </trkpt>
      <trkpt lat="46.32635" lon="-0.30978">
        <ele>72.0594</ele>
        <time>2011-06-25T16:43:46Z</time>
      </trkpt>
      <trkpt lat="46.32636" lon="-0.30978">
        <ele>72.0678</ele>
        <time>2011-06-25T16:43:46Z</time>
      </trkpt>
      <trkpt lat="46.32637" lon="-0.30977">
        <ele>72.0752</ele>
        <time>2011-06-25T16:43:47Z</time>
      </trkpt>
      <trkpt lat="46.32639" lon="-0.30977">
        <ele>72.0808</ele>
        <time>2011-06-25T16:43:49Z</time>
      </trkpt>
      <trkpt lat="46.3264" lon="-0.30977">
        <ele>72.0872</ele>
        <time>2011-06-25T16:43:50Z</time>
      </trkpt>
      <trkpt lat="46.32641" lon="-0.30977">
        <ele>72.0878</ele>
        <time>2011-06-25T16:43:50Z</time>
      </trkpt>
      <trkpt lat="46.32642" lon="-0.30976">
        <ele>72.0873</ele>
        <time>2011-06-25T16:43:51Z</time>
      </trkpt>
      <trkpt lat="46.32644" lon="-0.30976">
        <ele>72.0844</ele>
        <time>2011-06-25T16:43:53Z</time>
      </trkpt>
      <trkpt lat="46.32645" lon="-0.30976">
        <ele>72.0816</ele>
        <time>2011-06-25T16:43:53Z</time>
      </trkpt>
      <trkpt lat="46.32646" lon="-0.30976">
        <ele>72.0762</ele>
        <time>2011-06-25T16:43:54Z</time>
      </trkpt>
      <trkpt lat="46.32647" lon="-0.30977">
        <ele>72.0747</ele>
        <time>2011-06-25T16:43:55Z</time>
      </trkpt>
      <trkpt lat="46.32648" lon="-0.30977">
        <ele>72.0752</ele>
        <time>2011-06-25T16:43:56Z</time>
      </trkpt>
      <trkpt lat="46.3265" lon="-0.30978">
        <ele>72.0803</ele>
        <time>2011-06-25T16:43:57Z</time>
      </trkpt>
      <trkpt lat="46.32651" lon="-0.30978">
        <ele>72.0847</ele>
        <time>2011-06-25T16:43:58Z</time>
      </trkpt>
      <trkpt lat="46.32652" lon="-0.30979">
        <ele>72.0915</ele>
        <time>2011-06-25T16:43:59Z</time>
      </trkpt>
      <trkpt lat="46.32654" lon="-0.30979">
        <ele>72.1021</ele>
        <time>2011-06-25T16:44:01Z</time>
      </trkpt>
      <trkpt lat="46.32655" lon="-0.30979">
        <ele>72.1159</ele>
        <time>2011-06-25T16:44:01Z</time>
      </trkpt>
      <trkpt lat="46.32657" lon="-0.30979">
        <ele>72.137</ele>
        <time>2011-06-25T16:44:03Z</time>
      </trkpt>
      <trkpt lat="46.32658" lon="-0.3098">
        <ele>72.1577</ele>
        <time>2011-06-25T16:44:04Z</time>
      </trkpt>
      <trkpt lat="46.32659" lon="-0.30981">
        <ele>72.2057</ele>
        <time>2011-06-25T16:44:05Z</time>
      </trkpt>
      <trkpt lat="46.3266" lon="-0.30982">
        <ele>72.2615</ele>
        <time>2011-06-25T16:44:05Z</time>
      </trkpt>
      <trkpt lat="46.32662" lon="-0.30982">
        <ele>72.3256</ele>
        <time>2011-06-25T16:44:06Z</time>
      </trkpt>
      <trkpt lat="46.32663" lon="-0.30983">
        <ele>72.3984</ele>
        <time>2011-06-25T16:44:07Z</time>
      </trkpt>
      <trkpt lat="46.32665" lon="-0.30983">
        <ele>72.4643</ele>
        <time>2011-06-25T16:44:08Z</time>
      </trkpt>
      <trkpt lat="46.32666" lon="-0.30983">
        <ele>72.5251</ele>
        <time>2011-06-25T16:44:10Z</time>
      </trkpt>
      <trkpt lat="46.32668" lon="-0.30983">
        <ele>72.5771</ele>
        <time>2011-06-25T16:44:10Z</time>
      </trkpt>
      <trkpt lat="46.32669" lon="-0.30983">
        <ele>72.6283</ele>
        <time>2011-06-25T16:44:11Z</time>
      </trkpt>
      <trkpt lat="46.3267" lon="-0.30982">
        <ele>72.6737</ele>
        <time>2011-06-25T16:44:13Z</time>
      </trkpt>
      <trkpt lat="46.32672" lon="-0.30981">
        <ele>72.7185</ele>
        <time>2011-06-25T16:44:13Z</time>
      </trkpt>
      <trkpt lat="46.32673" lon="-0.30979">
        <ele>72.7636</ele>
        <time>2011-06-25T16:44:15Z</time>
      </trkpt>
      <trkpt lat="46.32674" lon="-0.30978">
        <ele>72.8079</ele>
        <time>2011-06-25T16:44:15Z</time>
      </trkpt>
      <trkpt lat="46.32675" lon="-0.30976">
        <ele>72.8492</ele>
        <time>2011-06-25T16:44:16Z</time>
      </trkpt>
      <trkpt lat="46.32676" lon="-0.30975">
        <ele>72.8904</ele>
        <time>2011-06-25T16:44:18Z</time>
      </trkpt>
      <trkpt lat="46.32676" lon="-0.30973">
        <ele>72.9334</ele>
        <time>2011-06-25T16:44:18Z</time>
      </trkpt>
      <trkpt lat="46.32678" lon="-0.30971">
        <ele>72.9766</ele>
        <time>2011-06-25T16:44:20Z</time>
      </trkpt>
      <trkpt lat="46.32679" lon="-0.30969">
        <ele>73.0208</ele>
        <time>2011-06-25T16:44:21Z</time>
      </trkpt>
      <trkpt lat="46.32679" lon="-0.30967">
        <ele>73.065</ele>
        <time>2011-06-25T16:44:21Z</time>
      </trkpt>
      <trkpt lat="46.3268" lon="-0.30965">
        <ele>73.1094</ele>
        <time>2011-06-25T16:44:22Z</time>
      </trkpt>
      <trkpt lat="46.32681" lon="-0.30963">
        <ele>73.1529</ele>
        <time>2011-06-25T16:44:23Z</time>
      </trkpt>
      <trkpt lat="46.32682" lon="-0.30961">
        <ele>73.1927</ele>
        <time>2011-06-25T16:44:24Z</time>
      </trkpt>
      <trkpt lat="46.32683" lon="-0.30959">
        <ele>73.2291</ele>
        <time>2011-06-25T16:44:25Z</time>
      </trkpt>
      <trkpt lat="46.32684" lon="-0.30957">
        <ele>73.2649</ele>
        <time>2011-06-25T16:44:26Z</time>
      </trkpt>
      <trkpt lat="46.32686" lon="-0.30956">
        <ele>73.3024</ele>
        <time>2011-06-25T16:44:27Z</time>
      </trkpt>
      <trkpt lat="46.32686" lon="-0.30954">
        <ele>73.3397</ele>
        <time>2011-06-25T16:44:28Z</time>
      </trkpt>
      <trkpt lat="46.32687" lon="-0.30953">
        <ele>73.3757</ele>
        <time>2011-06-25T16:44:29Z</time>
      </trkpt>
      <trkpt lat="46.32688" lon="-0.30952">
        <ele>73.4093</ele>
        <time>2011-06-25T16:44:30Z</time>
      </trkpt>
      <trkpt lat="46.32689" lon="-0.30951">
        <ele>73.4427</ele>
        <time>2011-06-25T16:44:31Z</time>
      </trkpt>
      <trkpt lat="46.3269" lon="-0.30949">
        <ele>73.477</ele>
        <time>2011-06-25T16:44:33Z</time>
      </trkpt>
      <trkpt lat="46.32691" lon="-0.30948">
        <ele>73.5115</ele>
        <time>2011-06-25T16:44:34Z</time>
      </trkpt>
      <trkpt lat="46.32692" lon="-0.30947">
        <ele>73.5437</ele>
        <time>2011-06-25T16:44:35Z</time>
      </trkpt>
      <trkpt lat="46.32692" lon="-0.30946">
        <ele>73.575</ele>
        <time>2011-06-25T16:44:35Z</time>
      </trkpt>
      <trkpt lat="46.32693" lon="-0.30945">
        <ele>73.6045</ele>
        <time>2011-06-25T16:44:36Z</time>
      </trkpt>
      <trkpt lat="46.32694" lon="-0.30944">
        <ele>73.6369</ele>
        <time>2011-06-25T16:44:37Z</time>
      </trkpt>
      <trkpt lat="46.32695" lon="-0.30944">
        <ele>73.6676</ele>
        <time>2011-06-25T16:44:38Z</time>
      </trkpt>
      <trkpt lat="46.32696" lon="-0.30943">
        <ele>73.6955</ele>
        <time>2011-06-25T16:44:39Z</time>
      </trkpt>
      <trkpt lat="46.32697" lon="-0.30943">
        <ele>73.7268</ele>
        <time>2011-06-25T16:44:40Z</time>
      </trkpt>
      <trkpt lat="46.32698" lon="-0.30942">
        <ele>73.7622</ele>
        <time>2011-06-25T16:44:41Z</time>
      </trkpt>
      <trkpt lat="46.32699" lon="-0.30942">
        <ele>73.8024</ele>
        <time>2011-06-25T16:44:42Z</time>
      </trkpt>
      <trkpt lat="46.327" lon="-0.30941">
        <ele>73.8396</ele>
        <time>2011-06-25T16:44:44Z</time>
      </trkpt>
      <trkpt lat="46.32702" lon="-0.3094">
        <ele>73.8745</ele>
        <time>2011-06-25T16:44:44Z</time>
      </trkpt>
      <trkpt lat="46.32704" lon="-0.30939">
        <ele>73.9073</ele>
        <time>2011-06-25T16:44:45Z</time>
      </trkpt>
      <trkpt lat="46.32706" lon="-0.30938">
        <ele>73.9349</ele>
        <time>2011-06-25T16:44:46Z</time>
      </trkpt>
      <trkpt lat="46.32708" lon="-0.30936">
        <ele>73.9534</ele>
        <time>2011-06-25T16:44:47Z</time>
      </trkpt>
      <trkpt lat="46.32709" lon="-0.30936">
        <ele>73.9743</ele>
        <time>2011-06-25T16:44:49Z</time>
      </trkpt>
      <trkpt lat="46.32711" lon="-0.30935">
        <ele>73.9922</ele>
        <time>2011-06-25T16:44:49Z</time>
      </trkpt>
      <trkpt lat="46.32713" lon="-0.30934">
        <ele>74.0072</ele>
        <time>2011-06-25T16:44:50Z</time>
      </trkpt>
      <trkpt lat="46.32715" lon="-0.30934">
        <ele>74.0243</ele>
        <time>2011-06-25T16:44:52Z</time>
      </trkpt>
      <trkpt lat="46.32716" lon="-0.30933">
        <ele>74.0444</ele>
        <time>2011-06-25T16:44:52Z</time>
      </trkpt>
      <trkpt lat="46.32718" lon="-0.30932">
        <ele>74.0683</ele>
        <time>2011-06-25T16:44:53Z</time>
      </trkpt>
      <trkpt lat="46.32719" lon="-0.30932">
        <ele>74.0912</ele>
        <time>2011-06-25T16:44:54Z</time>
      </trkpt>
      <trkpt lat="46.3272" lon="-0.30931">
        <ele>74.1134</ele>
        <time>2011-06-25T16:44:55Z</time>
      </trkpt>
      <trkpt lat="46.32721" lon="-0.30931">
        <ele>74.1387</ele>
        <time>2011-06-25T16:44:56Z</time>
      </trkpt>
      <trkpt lat="46.32723" lon="-0.3093">
        <ele>74.1622</ele>
        <time>2011-06-25T16:44:58Z</time>
      </trkpt>
      <trkpt lat="46.32724" lon="-0.3093">
        <ele>74.1866</ele>
        <time>2011-06-25T16:44:58Z</time>
      </trkpt>
      <trkpt lat="46.32725" lon="-0.3093">
        <ele>74.2188</ele>
        <time>2011-06-25T16:44:59Z</time>
      </trkpt>
      <trkpt lat="46.32726" lon="-0.3093">
        <ele>74.2513</ele>
        <time>2011-06-25T16:45:00Z</time>
      </trkpt>
      <trkpt lat="46.32727" lon="-0.30929">
        <ele>74.2866</ele>
        <time>2011-06-25T16:45:01Z</time>
      </trkpt>
      <trkpt lat="46.32729" lon="-0.30929">
        <ele>74.3315</ele>
        <time>2011-06-25T16:45:03Z</time>
      </trkpt>
      <trkpt lat="46.3273" lon="-0.30928">
        <ele>74.3898</ele>
        <time>2011-06-25T16:45:03Z</time>
      </trkpt>
      <trkpt lat="46.32731" lon="-0.30927">
        <ele>74.4656</ele>
        <time>2011-06-25T16:45:04Z</time>
      </trkpt>
      <trkpt lat="46.32733" lon="-0.30926">
        <ele>74.553</ele>
        <time>2011-06-25T16:45:05Z</time>
      </trkpt>
      <trkpt lat="46.32735" lon="-0.30926">
        <ele>74.6449</ele>
        <time>2011-06-25T16:45:06Z</time>
      </trkpt>
      <trkpt lat="46.32736" lon="-0.30925">
        <ele>74.7417</ele>
        <time>2011-06-25T16:45:08Z</time>
      </trkpt>
      <trkpt lat="46.32738" lon="-0.30924">
        <ele>74.8348</ele>
        <time>2011-06-25T16:45:09Z</time>
      </trkpt>
      <trkpt lat="46.32739" lon="-0.30922">
        <ele>74.926</ele>
        <time>2011-06-25T16:45:09Z</time>
      </trkpt>
      <trkpt lat="46.3274" lon="-0.3092">
        <ele>75.0145</ele>
        <time>2011-06-25T16:45:10Z</time>
      </trkpt>
      <trkpt lat="46.32742" lon="-0.30919">
        <ele>75.0992</ele>
        <time>2011-06-25T16:45:11Z</time>
      </trkpt>
      <trkpt lat="46.32744" lon="-0.30917">
        <ele>75.1874</ele>
        <time>2011-06-25T16:45:13Z</time>
      </trkpt>
      <trkpt lat="46.32745" lon="-0.30915">
        <ele>75.2788</ele>
        <time>2011-06-25T16:45:13Z</time>
      </trkpt>
      <trkpt lat="46.32747" lon="-0.30913">
        <ele>75.3675</ele>
        <time>2011-06-25T16:45:14Z</time>
      </trkpt>
      <trkpt lat="46.32748" lon="-0.30912">
        <ele>75.4548</ele>
        <time>2011-06-25T16:45:16Z</time>
      </trkpt>
      <trkpt lat="46.32748" lon="-0.3091">
        <ele>75.5362</ele>
        <time>2011-06-25T16:45:17Z</time>
      </trkpt>
      <trkpt lat="46.3275" lon="-0.30909">
        <ele>75.6166</ele>
        <time>2011-06-25T16:45:17Z</time>
      </trkpt>
      <trkpt lat="46.3275" lon="-0.30907">
        <ele>75.6965</ele>
        <time>2011-06-25T16:45:19Z</time>
      </trkpt>
      <trkpt lat="46.32752" lon="-0.30905">
        <ele>75.7752</ele>
        <time>2011-06-25T16:45:19Z</time>
      </trkpt>
      <trkpt lat="46.32753" lon="-0.30904">
        <ele>75.855</ele>
        <time>2011-06-25T16:45:20Z</time>
      </trkpt>
      <trkpt lat="46.32754" lon="-0.30903">
        <ele>75.9356</ele>
        <time>2011-06-25T16:45:22Z</time>
      </trkpt>
      <trkpt lat="46.32755" lon="-0.30902">
        <ele>76.0128</ele>
        <time>2011-06-25T16:45:22Z</time>
      </trkpt>
      <trkpt lat="46.32756" lon="-0.30901">
        <ele>76.0872</ele>
        <time>2011-06-25T16:45:23Z</time>
      </trkpt>
      <trkpt lat="46.32758" lon="-0.309">
        <ele>76.1585</ele>
        <time>2011-06-25T16:45:24Z</time>
      </trkpt>
      <trkpt lat="46.3276" lon="-0.30899">
        <ele>76.237</ele>
        <time>2011-06-25T16:45:25Z</time>
      </trkpt>
      <trkpt lat="46.32761" lon="-0.30898">
        <ele>76.3245</ele>
        <time>2011-06-25T16:45:27Z</time>
      </trkpt>
      <trkpt lat="46.32763" lon="-0.30898">
        <ele>76.4095</ele>
        <time>2011-06-25T16:45:28Z</time>
      </trkpt>
      <trkpt lat="46.32764" lon="-0.30896">
        <ele>76.4937</ele>
        <time>2011-06-25T16:45:28Z</time>
      </trkpt>
      <trkpt lat="46.32765" lon="-0.30896">
        <ele>76.5734</ele>
        <time>2011-06-25T16:45:29Z</time>
      </trkpt>
      <trkpt lat="46.32766" lon="-0.30895">
        <ele>76.6499</ele>
        <time>2011-06-25T16:45:30Z</time>
      </trkpt>
      <trkpt lat="46.32768" lon="-0.30895">
        <ele>76.7232</ele>
        <time>2011-06-25T16:45:31Z</time>
      </trkpt>
      <trkpt lat="46.32769" lon="-0.30894">
        <ele>76.7916</ele>
        <time>2011-06-25T16:45:32Z</time>
      </trkpt>
      <trkpt lat="46.3277" lon="-0.30893">
        <ele>76.8561</ele>
        <time>2011-06-25T16:45:33Z</time>
      </trkpt>
      <trkpt lat="46.3277" lon="-0.30892">
        <ele>76.9177</ele>
        <time>2011-06-25T16:45:34Z</time>
      </trkpt>
      <trkpt lat="46.32771" lon="-0.30892">
        <ele>76.9762</ele>
        <time>2011-06-25T16:45:35Z</time>
      </trkpt>
      <trkpt lat="46.32772" lon="-0.30891">
        <ele>77.0331</ele>
        <time>2011-06-25T16:45:36Z</time>
      </trkpt>
      <trkpt lat="46.32774" lon="-0.30891">
        <ele>77.0899</ele>
        <time>2011-06-25T16:45:37Z</time>
      </trkpt>
      <trkpt lat="46.32774" lon="-0.3089">
        <ele>77.144</ele>
        <time>2011-06-25T16:45:38Z</time>
      </trkpt>
      <trkpt lat="46.32776" lon="-0.3089">
        <ele>77.1955</ele>
        <time>2011-06-25T16:45:39Z</time>
      </trkpt>
      <trkpt lat="46.32777" lon="-0.30889">
        <ele>77.2439</ele>
        <time>2011-06-25T16:45:40Z</time>
      </trkpt>
      <trkpt lat="46.32778" lon="-0.30888">
        <ele>77.2923</ele>
        <time>2011-06-25T16:45:41Z</time>
      </trkpt>
      <trkpt lat="46.3278" lon="-0.30888">
        <ele>77.3397</ele>
        <time>2011-06-25T16:45:42Z</time>
      </trkpt>
      <trkpt lat="46.32781" lon="-0.30887">
        <ele>77.382</ele>
        <time>2011-06-25T16:45:43Z</time>
      </trkpt>
      <trkpt lat="46.32783" lon="-0.30886">
        <ele>77.4195</ele>
        <time>2011-06-25T16:45:44Z</time>
      </trkpt>
      <trkpt lat="46.32784" lon="-0.30885">
        <ele>77.4552</ele>
        <time>2011-06-25T16:45:45Z</time>
      </trkpt>
      <trkpt lat="46.32785" lon="-0.30884">
        <ele>77.4893</ele>
        <time>2011-06-25T16:45:46Z</time>
      </trkpt>
      <trkpt lat="46.32787" lon="-0.30884">
        <ele>77.5254</ele>
        <time>2011-06-25T16:45:48Z</time>
      </trkpt>
      <trkpt lat="46.32789" lon="-0.30884">
        <ele>77.5603</ele>
        <time>2011-06-25T16:45:48Z</time>
      </trkpt>
      <trkpt lat="46.32791" lon="-0.30884">
        <ele>77.592</ele>
        <time>2011-06-25T16:45:49Z</time>
      </trkpt>
      <trkpt lat="46.32793" lon="-0.30885">
        <ele>77.6159</ele>
        <time>2011-06-25T16:45:51Z</time>
      </trkpt>
      <trkpt lat="46.32794" lon="-0.30885">
        <ele>77.6405</ele>
        <time>2011-06-25T16:45:51Z</time>
      </trkpt>
      <trkpt lat="46.32795" lon="-0.30886">
        <ele>77.6627</ele>
        <time>2011-06-25T16:45:52Z</time>
      </trkpt>
      <trkpt lat="46.32796" lon="-0.30887">
        <ele>77.6842</ele>
        <time>2011-06-25T16:45:53Z</time>
      </trkpt>
      <trkpt lat="46.32797" lon="-0.30888">
        <ele>77.7066</ele>
        <time>2011-06-25T16:45:54Z</time>
      </trkpt>
      <trkpt lat="46.32798" lon="-0.30888">
        <ele>77.7319</ele>
        <time>2011-06-25T16:45:55Z</time>
      </trkpt>
      <trkpt lat="46.328" lon="-0.30889">
        <ele>77.7556</ele>
        <time>2011-06-25T16:45:56Z</time>
      </trkpt>
      <trkpt lat="46.32801" lon="-0.3089">
        <ele>77.783</ele>
        <time>2011-06-25T16:45:57Z</time>
      </trkpt>
      <trkpt lat="46.32803" lon="-0.30891">
        <ele>77.8296</ele>
        <time>2011-06-25T16:45:58Z</time>
      </trkpt>
      <trkpt lat="46.32805" lon="-0.30892">
        <ele>77.8879</ele>
        <time>2011-06-25T16:45:59Z</time>
      </trkpt>
      <trkpt lat="46.32806" lon="-0.30892">
        <ele>77.9474</ele>
        <time>2011-06-25T16:46:00Z</time>
      </trkpt>
      <trkpt lat="46.32807" lon="-0.30892">
        <ele>78.0057</ele>
        <time>2011-06-25T16:46:01Z</time>
      </trkpt>
      <trkpt lat="46.32808" lon="-0.30892">
        <ele>78.0669</ele>
        <time>2011-06-25T16:46:03Z</time>
      </trkpt>
      <trkpt lat="46.32808" lon="-0.30892">
        <ele>78.1229</ele>
        <time>2011-06-25T16:46:03Z</time>
      </trkpt>
      <trkpt lat="46.32812" lon="-0.30896">
        <ele>78.5465</ele>
        <time>2011-06-25T16:46:31Z</time>
      </trkpt>
      <trkpt lat="46.32814" lon="-0.30898">
        <ele>78.8755</ele>
        <time>2011-06-25T16:46:57Z</time>
      </trkpt>
      <trkpt lat="46.32814" lon="-0.30899">
        <ele>78.9645</ele>
        <time>2011-06-25T16:46:58Z</time>
      </trkpt>
      <trkpt lat="46.32814" lon="-0.30901">
        <ele>79.0545</ele>
        <time>2011-06-25T16:47:00Z</time>
      </trkpt>
      <trkpt lat="46.32814" lon="-0.30903">
        <ele>79.1457</ele>
        <time>2011-06-25T16:47:01Z</time>
      </trkpt>
      <trkpt lat="46.32813" lon="-0.30904">
        <ele>79.2386</ele>
        <time>2011-06-25T16:47:02Z</time>
      </trkpt>
      <trkpt lat="46.32813" lon="-0.30906">
        <ele>79.3307</ele>
        <time>2011-06-25T16:47:03Z</time>
      </trkpt>
      <trkpt lat="46.32813" lon="-0.30908">
        <ele>79.4203</ele>
        <time>2011-06-25T16:47:03Z</time>
      </trkpt>
      <trkpt lat="46.32813" lon="-0.3091">
        <ele>79.5072</ele>
        <time>2011-06-25T16:47:05Z</time>
      </trkpt>
      <trkpt lat="46.32812" lon="-0.30912">
        <ele>79.59</ele>
        <time>2011-06-25T16:47:05Z</time>
      </trkpt>
      <trkpt lat="46.32812" lon="-0.30913">
        <ele>79.6701</ele>
        <time>2011-06-25T16:47:07Z</time>
      </trkpt>
      <trkpt lat="46.32811" lon="-0.30915">
        <ele>79.7478</ele>
        <time>2011-06-25T16:47:08Z</time>
      </trkpt>
      <trkpt lat="46.32811" lon="-0.30917">
        <ele>79.8228</ele>
        <time>2011-06-25T16:47:08Z</time>
      </trkpt>
      <trkpt lat="46.3281" lon="-0.30919">
        <ele>79.8963</ele>
        <time>2011-06-25T16:47:09Z</time>
      </trkpt>
      <trkpt lat="46.3281" lon="-0.30921">
        <ele>79.9666</ele>
        <time>2011-06-25T16:47:10Z</time>
      </trkpt>
      <trkpt lat="46.32811" lon="-0.30923">
        <ele>80.0355</ele>
        <time>2011-06-25T16:47:11Z</time>
      </trkpt>
      <trkpt lat="46.32811" lon="-0.30925">
        <ele>80.103</ele>
        <time>2011-06-25T16:47:13Z</time>
      </trkpt>
      <trkpt lat="46.32811" lon="-0.30927">
        <ele>80.1668</ele>
        <time>2011-06-25T16:47:13Z</time>
      </trkpt>
      <trkpt lat="46.32811" lon="-0.30929">
        <ele>80.233</ele>
        <time>2011-06-25T16:47:14Z</time>
      </trkpt>
      <trkpt lat="46.32811" lon="-0.30931">
        <ele>80.3018</ele>
        <time>2011-06-25T16:47:15Z</time>
      </trkpt>
      <trkpt lat="46.32811" lon="-0.30933">
        <ele>80.3702</ele>
        <time>2011-06-25T16:47:16Z</time>
      </trkpt>
      <trkpt lat="46.32811" lon="-0.30935">
        <ele>80.4326</ele>
        <time>2011-06-25T16:47:18Z</time>
      </trkpt>
      <trkpt lat="46.3281" lon="-0.30938">
        <ele>80.4918</ele>
        <time>2011-06-25T16:47:19Z</time>
      </trkpt>
      <trkpt lat="46.3281" lon="-0.3094">
        <ele>80.5467</ele>
        <time>2011-06-25T16:47:19Z</time>
      </trkpt>
      <trkpt lat="46.3281" lon="-0.30943">
        <ele>80.5934</ele>
        <time>2011-06-25T16:47:21Z</time>
      </trkpt>
      <trkpt lat="46.32809" lon="-0.30945">
        <ele>80.6385</ele>
        <time>2011-06-25T16:47:21Z</time>
      </trkpt>
      <trkpt lat="46.3281" lon="-0.30947">
        <ele>80.6753</ele>
        <time>2011-06-25T16:47:23Z</time>
      </trkpt>
      <trkpt lat="46.3281" lon="-0.30949">
        <ele>80.7051</ele>
        <time>2011-06-25T16:47:24Z</time>
      </trkpt>
      <trkpt lat="46.32811" lon="-0.30951">
        <ele>80.7301</ele>
        <time>2011-06-25T16:47:24Z</time>
      </trkpt>
      <trkpt lat="46.32811" lon="-0.30953">
        <ele>80.7525</ele>
        <time>2011-06-25T16:47:25Z</time>
      </trkpt>
      <trkpt lat="46.32811" lon="-0.30955">
        <ele>80.7744</ele>
        <time>2011-06-25T16:47:26Z</time>
      </trkpt>
      <trkpt lat="46.32812" lon="-0.30957">
        <ele>80.7945</ele>
        <time>2011-06-25T16:47:28Z</time>
      </trkpt>
      <trkpt lat="46.32812" lon="-0.30959">
        <ele>80.8082</ele>
        <time>2011-06-25T16:47:29Z</time>
      </trkpt>
      <trkpt lat="46.32813" lon="-0.30961">
        <ele>80.8161</ele>
        <time>2011-06-25T16:47:30Z</time>
      </trkpt>
      <trkpt lat="46.32813" lon="-0.30962">
        <ele>80.8213</ele>
        <time>2011-06-25T16:47:30Z</time>
      </trkpt>
      <trkpt lat="46.32813" lon="-0.30964">
        <ele>80.8233</ele>
        <time>2011-06-25T16:47:32Z</time>
      </trkpt>
      <trkpt lat="46.32813" lon="-0.30965">
        <ele>80.826</ele>
        <time>2011-06-25T16:47:32Z</time>
      </trkpt>
      <trkpt lat="46.32814" lon="-0.30966">
        <ele>80.8301</ele>
        <time>2011-06-25T16:47:33Z</time>
      </trkpt>
      <trkpt lat="46.32814" lon="-0.30967">
        <ele>80.8353</ele>
        <time>2011-06-25T16:47:34Z</time>
      </trkpt>
      <trkpt lat="46.32815" lon="-0.30968">
        <ele>80.8469</ele>
        <time>2011-06-25T16:47:35Z</time>
      </trkpt>
      <trkpt lat="46.32816" lon="-0.30969">
        <ele>80.8639</ele>
        <time>2011-06-25T16:47:36Z</time>
      </trkpt>
      <trkpt lat="46.32817" lon="-0.30971">
        <ele>80.8792</ele>
        <time>2011-06-25T16:47:37Z</time>
      </trkpt>
      <trkpt lat="46.32818" lon="-0.30973">
        <ele>80.8932</ele>
        <time>2011-06-25T16:47:38Z</time>
      </trkpt>
      <trkpt lat="46.32819" lon="-0.30974">
        <ele>80.9111</ele>
        <time>2011-06-25T16:47:39Z</time>
      </trkpt>
      <trkpt lat="46.32819" lon="-0.30976">
        <ele>80.9299</ele>
        <time>2011-06-25T16:47:41Z</time>
      </trkpt>
      <trkpt lat="46.3282" lon="-0.30977">
        <ele>80.9498</ele>
        <time>2011-06-25T16:47:42Z</time>
      </trkpt>
      <trkpt lat="46.32821" lon="-0.30979">
        <ele>80.9694</ele>
        <time>2011-06-25T16:47:42Z</time>
      </trkpt>
      <trkpt lat="46.32821" lon="-0.30981">
        <ele>80.9898</ele>
        <time>2011-06-25T16:47:43Z</time>
      </trkpt>
      <trkpt lat="46.32822" lon="-0.30983">
        <ele>81.0096</ele>
        <time>2011-06-25T16:47:45Z</time>
      </trkpt>
      <trkpt lat="46.32823" lon="-0.30985">
        <ele>81.0295</ele>
        <time>2011-06-25T16:47:45Z</time>
      </trkpt>
      <trkpt lat="46.32823" lon="-0.30987">
        <ele>81.0483</ele>
        <time>2011-06-25T16:47:47Z</time>
      </trkpt>
      <trkpt lat="46.32824" lon="-0.30989">
        <ele>81.0639</ele>
        <time>2011-06-25T16:47:48Z</time>
      </trkpt>
      <trkpt lat="46.32824" lon="-0.30991">
        <ele>81.0782</ele>
        <time>2011-06-25T16:47:48Z</time>
      </trkpt>
      <trkpt lat="46.32824" lon="-0.30994">
        <ele>81.0896</ele>
        <time>2011-06-25T16:47:50Z</time>
      </trkpt>
      <trkpt lat="46.32824" lon="-0.30996">
        <ele>81.0959</ele>
        <time>2011-06-25T16:47:50Z</time>
      </trkpt>
      <trkpt lat="46.32824" lon="-0.30999">
        <ele>81.1029</ele>
        <time>2011-06-25T16:47:51Z</time>
      </trkpt>
      <trkpt lat="46.32825" lon="-0.31001">
        <ele>81.1045</ele>
        <time>2011-06-25T16:47:52Z</time>
      </trkpt>
      <trkpt lat="46.32825" lon="-0.31003">
        <ele>81.1019</ele>
        <time>2011-06-25T16:47:53Z</time>
      </trkpt>
      <trkpt lat="46.32825" lon="-0.31005">
        <ele>81.0953</ele>
        <time>2011-06-25T16:47:54Z</time>
      </trkpt>
      <trkpt lat="46.32826" lon="-0.31007">
        <ele>81.0857</ele>
        <time>2011-06-25T16:47:56Z</time>
      </trkpt>
      <trkpt lat="46.32826" lon="-0.31009">
        <ele>81.0763</ele>
        <time>2011-06-25T16:47:56Z</time>
      </trkpt>
      <trkpt lat="46.32826" lon="-0.31011">
        <ele>81.0674</ele>
        <time>2011-06-25T16:47:58Z</time>
      </trkpt>
      <trkpt lat="46.32826" lon="-0.31012">
        <ele>81.0598</ele>
        <time>2011-06-25T16:47:59Z</time>
      </trkpt>
      <trkpt lat="46.32826" lon="-0.31014">
        <ele>81.055</ele>
        <time>2011-06-25T16:47:59Z</time>
      </trkpt>
      <trkpt lat="46.32827" lon="-0.31016">
        <ele>81.0504</ele>
        <time>2011-06-25T16:48:00Z</time>
      </trkpt>
      <trkpt lat="46.32828" lon="-0.31017">
        <ele>81.0462</ele>
        <time>2011-06-25T16:48:01Z</time>
      </trkpt>
      <trkpt lat="46.32829" lon="-0.31019">
        <ele>81.041</ele>
        <time>2011-06-25T16:48:03Z</time>
      </trkpt>
      <trkpt lat="46.32829" lon="-0.3102">
        <ele>81.0362</ele>
        <time>2011-06-25T16:48:04Z</time>
      </trkpt>
      <trkpt lat="46.3283" lon="-0.31022">
        <ele>81.033</ele>
        <time>2011-06-25T16:48:05Z</time>
      </trkpt>
      <trkpt lat="46.3283" lon="-0.31024">
        <ele>81.0307</ele>
        <time>2011-06-25T16:48:05Z</time>
      </trkpt>
      <trkpt lat="46.32831" lon="-0.31025">
        <ele>81.0282</ele>
        <time>2011-06-25T16:48:06Z</time>
      </trkpt>
      <trkpt lat="46.32831" lon="-0.31027">
        <ele>81.0256</ele>
        <time>2011-06-25T16:48:08Z</time>
      </trkpt>
      <trkpt lat="46.32832" lon="-0.31029">
        <ele>81.0234</ele>
        <time>2011-06-25T16:48:09Z</time>
      </trkpt>
      <trkpt lat="46.32833" lon="-0.3103">
        <ele>81.0209</ele>
        <time>2011-06-25T16:48:09Z</time>
      </trkpt>
      <trkpt lat="46.32834" lon="-0.31032">
        <ele>81.019</ele>
        <time>2011-06-25T16:48:11Z</time>
      </trkpt>
      <trkpt lat="46.32835" lon="-0.31033">
        <ele>81.0193</ele>
        <time>2011-06-25T16:48:12Z</time>
      </trkpt>
      <trkpt lat="46.32836" lon="-0.31034">
        <ele>81.0243</ele>
        <time>2011-06-25T16:48:12Z</time>
      </trkpt>
      <trkpt lat="46.32837" lon="-0.31036">
        <ele>81.0334</ele>
        <time>2011-06-25T16:48:14Z</time>
      </trkpt>
      <trkpt lat="46.32837" lon="-0.31037">
        <ele>81.0437</ele>
        <time>2011-06-25T16:48:15Z</time>
      </trkpt>
      <trkpt lat="46.32838" lon="-0.31039">
        <ele>81.0544</ele>
        <time>2011-06-25T16:48:16Z</time>
      </trkpt>
      <trkpt lat="46.32838" lon="-0.31041">
        <ele>81.0647</ele>
        <time>2011-06-25T16:48:16Z</time>
      </trkpt>
      <trkpt lat="46.32839" lon="-0.31043">
        <ele>81.076</ele>
        <time>2011-06-25T16:48:17Z</time>
      </trkpt>
      <trkpt lat="46.3284" lon="-0.31045">
        <ele>81.0869</ele>
        <time>2011-06-25T16:48:18Z</time>
      </trkpt>
      <trkpt lat="46.3284" lon="-0.31047">
        <ele>81.0961</ele>
        <time>2011-06-25T16:48:20Z</time>
      </trkpt>
      <trkpt lat="46.32841" lon="-0.31049">
        <ele>81.106</ele>
        <time>2011-06-25T16:48:20Z</time>
      </trkpt>
      <trkpt lat="46.32841" lon="-0.31051">
        <ele>81.1167</ele>
        <time>2011-06-25T16:48:21Z</time>
      </trkpt>
      <trkpt lat="46.32841" lon="-0.31053">
        <ele>81.1299</ele>
        <time>2011-06-25T16:48:22Z</time>
      </trkpt>
      <trkpt lat="46.32842" lon="-0.31055">
        <ele>81.1439</ele>
        <time>2011-06-25T16:48:23Z</time>
      </trkpt>
      <trkpt lat="46.32843" lon="-0.31057">
        <ele>81.1593</ele>
        <time>2011-06-25T16:48:25Z</time>
      </trkpt>
      <trkpt lat="46.32843" lon="-0.31059">
        <ele>81.1752</ele>
        <time>2011-06-25T16:48:25Z</time>
      </trkpt>
      <trkpt lat="46.32844" lon="-0.3106">
        <ele>81.1915</ele>
        <time>2011-06-25T16:48:27Z</time>
      </trkpt>
      <trkpt lat="46.32845" lon="-0.31062">
        <ele>81.2091</ele>
        <time>2011-06-25T16:48:28Z</time>
      </trkpt>
      <trkpt lat="46.32846" lon="-0.31063">
        <ele>81.2266</ele>
        <time>2011-06-25T16:48:28Z</time>
      </trkpt>
      <trkpt lat="46.32847" lon="-0.31065">
        <ele>81.245</ele>
        <time>2011-06-25T16:48:29Z</time>
      </trkpt>
      <trkpt lat="46.32848" lon="-0.31066">
        <ele>81.2644</ele>
        <time>2011-06-25T16:48:30Z</time>
      </trkpt>
      <trkpt lat="46.32849" lon="-0.31067">
        <ele>81.2844</ele>
        <time>2011-06-25T16:48:32Z</time>
      </trkpt>
      <trkpt lat="46.3285" lon="-0.31068">
        <ele>81.306</ele>
        <time>2011-06-25T16:48:32Z</time>
      </trkpt>
      <trkpt lat="46.32851" lon="-0.31069">
        <ele>81.3279</ele>
        <time>2011-06-25T16:48:34Z</time>
      </trkpt>
      <trkpt lat="46.32851" lon="-0.31069">
        <ele>81.3486</ele>
        <time>2011-06-25T16:48:35Z</time>
      </trkpt>
      <trkpt lat="46.32853" lon="-0.3107">
        <ele>81.3696</ele>
        <time>2011-06-25T16:48:35Z</time>
      </trkpt>
      <trkpt lat="46.32853" lon="-0.3107">
        <ele>81.393</ele>
        <time>2011-06-25T16:48:37Z</time>
      </trkpt>
      <trkpt lat="46.32854" lon="-0.31071">
        <ele>81.419</ele>
        <time>2011-06-25T16:48:37Z</time>
      </trkpt>
      <trkpt lat="46.32855" lon="-0.31071">
        <ele>81.4423</ele>
        <time>2011-06-25T16:48:38Z</time>
      </trkpt>
      <trkpt lat="46.32856" lon="-0.31071">
        <ele>81.4646</ele>
        <time>2011-06-25T16:48:39Z</time>
      </trkpt>
      <trkpt lat="46.32857" lon="-0.31072">
        <ele>81.4867</ele>
        <time>2011-06-25T16:48:40Z</time>
      </trkpt>
      <trkpt lat="46.32858" lon="-0.31072">
        <ele>81.5067</ele>
        <time>2011-06-25T16:48:41Z</time>
      </trkpt>
      <trkpt lat="46.32859" lon="-0.31073">
        <ele>81.5255</ele>
        <time>2011-06-25T16:48:42Z</time>
      </trkpt>
      <trkpt lat="46.3286" lon="-0.31074">
        <ele>81.5439</ele>
        <time>2011-06-25T16:48:43Z</time>
      </trkpt>
      <trkpt lat="46.32861" lon="-0.31074">
        <ele>81.5631</ele>
        <time>2011-06-25T16:48:44Z</time>
      </trkpt>
      <trkpt lat="46.32861" lon="-0.31075">
        <ele>81.5856</ele>
        <time>2011-06-25T16:48:46Z</time>
      </trkpt>
      <trkpt lat="46.32862" lon="-0.31075">
        <ele>81.6125</ele>
        <time>2011-06-25T16:48:47Z</time>
      </trkpt>
      <trkpt lat="46.32863" lon="-0.31076">
        <ele>81.6403</ele>
        <time>2011-06-25T16:48:47Z</time>
      </trkpt>
      <trkpt lat="46.32864" lon="-0.31076">
        <ele>81.6681</ele>
        <time>2011-06-25T16:48:48Z</time>
      </trkpt>
      <trkpt lat="46.32864" lon="-0.31077">
        <ele>81.6968</ele>
        <time>2011-06-25T16:48:49Z</time>
      </trkpt>
      <trkpt lat="46.32865" lon="-0.31078">
        <ele>81.7251</ele>
        <time>2011-06-25T16:48:50Z</time>
      </trkpt>
      <trkpt lat="46.32866" lon="-0.31078">
        <ele>81.7525</ele>
        <time>2011-06-25T16:48:52Z</time>
      </trkpt>
      <trkpt lat="46.32867" lon="-0.31079">
        <ele>81.778</ele>
        <time>2011-06-25T16:48:52Z</time>
      </trkpt>
      <trkpt lat="46.32868" lon="-0.3108">
        <ele>81.8004</ele>
        <time>2011-06-25T16:48:53Z</time>
      </trkpt>
      <trkpt lat="46.32869" lon="-0.31082">
        <ele>81.8228</ele>
        <time>2011-06-25T16:48:54Z</time>
      </trkpt>
      <trkpt lat="46.32869" lon="-0.31083">
        <ele>81.8441</ele>
        <time>2011-06-25T16:48:55Z</time>
      </trkpt>
      <trkpt lat="46.3287" lon="-0.31084">
        <ele>81.8674</ele>
        <time>2011-06-25T16:48:56Z</time>
      </trkpt>
      <trkpt lat="46.3287" lon="-0.31085">
        <ele>81.8895</ele>
        <time>2011-06-25T16:48:57Z</time>
      </trkpt>
      <trkpt lat="46.32871" lon="-0.31086">
        <ele>81.9119</ele>
        <time>2011-06-25T16:48:58Z</time>
      </trkpt>
      <trkpt lat="46.32871" lon="-0.31088">
        <ele>81.9342</ele>
        <time>2011-06-25T16:48:59Z</time>
      </trkpt>
      <trkpt lat="46.32871" lon="-0.31089">
        <ele>81.9553</ele>
        <time>2011-06-25T16:49:00Z</time>
      </trkpt>
      <trkpt lat="46.32872" lon="-0.3109">
        <ele>81.9752</ele>
        <time>2011-06-25T16:49:01Z</time>
      </trkpt>
      <trkpt lat="46.32873" lon="-0.31091">
        <ele>81.9938</ele>
        <time>2011-06-25T16:49:03Z</time>
      </trkpt>
      <trkpt lat="46.32874" lon="-0.31092">
        <ele>82.0181</ele>
        <time>2011-06-25T16:49:03Z</time>
      </trkpt>
      <trkpt lat="46.32874" lon="-0.31094">
        <ele>82.0452</ele>
        <time>2011-06-25T16:49:05Z</time>
      </trkpt>
      <trkpt lat="46.32875" lon="-0.31095">
        <ele>82.0727</ele>
        <time>2011-06-25T16:49:05Z</time>
      </trkpt>
      <trkpt lat="46.32875" lon="-0.31097">
        <ele>82.1014</ele>
        <time>2011-06-25T16:49:07Z</time>
      </trkpt>
      <trkpt lat="46.32876" lon="-0.31098">
        <ele>82.1331</ele>
        <time>2011-06-25T16:49:07Z</time>
      </trkpt>
      <trkpt lat="46.32877" lon="-0.311">
        <ele>82.1638</ele>
        <time>2011-06-25T16:49:08Z</time>
      </trkpt>
      <trkpt lat="46.32877" lon="-0.31101">
        <ele>82.1929</ele>
        <time>2011-06-25T16:49:09Z</time>
      </trkpt>
      <trkpt lat="46.32878" lon="-0.31103">
        <ele>82.2301</ele>
        <time>2011-06-25T16:49:11Z</time>
      </trkpt>
      <trkpt lat="46.32879" lon="-0.31105">
        <ele>82.2664</ele>
        <time>2011-06-25T16:49:11Z</time>
      </trkpt>
      <trkpt lat="46.32879" lon="-0.31107">
        <ele>82.3099</ele>
        <time>2011-06-25T16:49:12Z</time>
      </trkpt>
      <trkpt lat="46.3288" lon="-0.31108">
        <ele>82.3524</ele>
        <time>2011-06-25T16:49:13Z</time>
      </trkpt>
      <trkpt lat="46.32881" lon="-0.3111">
        <ele>82.3821</ele>
        <time>2011-06-25T16:49:14Z</time>
      </trkpt>
      <trkpt lat="46.32882" lon="-0.31112">
        <ele>82.4074</ele>
        <time>2011-06-25T16:49:15Z</time>
      </trkpt>
      <trkpt lat="46.32882" lon="-0.31113">
        <ele>82.4392</ele>
        <time>2011-06-25T16:49:16Z</time>
      </trkpt>
      <trkpt lat="46.32883" lon="-0.31115">
        <ele>82.4734</ele>
        <time>2011-06-25T16:49:17Z</time>
      </trkpt>
      <trkpt lat="46.32884" lon="-0.31117">
        <ele>82.5055</ele>
        <time>2011-06-25T16:49:19Z</time>
      </trkpt>
      <trkpt lat="46.32884" lon="-0.31118">
        <ele>82.5387</ele>
        <time>2011-06-25T16:49:19Z</time>
      </trkpt>
      <trkpt lat="46.32885" lon="-0.3112">
        <ele>82.572</ele>
        <time>2011-06-25T16:49:21Z</time>
      </trkpt>
      <trkpt lat="46.32886" lon="-0.31123">
        <ele>82.6032</ele>
        <time>2011-06-25T16:49:21Z</time>
      </trkpt>
      <trkpt lat="46.32887" lon="-0.31124">
        <ele>82.6336</ele>
        <time>2011-06-25T16:49:22Z</time>
      </trkpt>
      <trkpt lat="46.32887" lon="-0.31126">
        <ele>82.6627</ele>
        <time>2011-06-25T16:49:24Z</time>
      </trkpt>
      <trkpt lat="46.32888" lon="-0.31128">
        <ele>82.6976</ele>
        <time>2011-06-25T16:49:24Z</time>
      </trkpt>
      <trkpt lat="46.32888" lon="-0.3113">
        <ele>82.7321</ele>
        <time>2011-06-25T16:49:25Z</time>
      </trkpt>
      <trkpt lat="46.32889" lon="-0.31132">
        <ele>82.7628</ele>
        <time>2011-06-25T16:49:26Z</time>
      </trkpt>
      <trkpt lat="46.3289" lon="-0.31135">
        <ele>82.7998</ele>
        <time>2011-06-25T16:49:27Z</time>
      </trkpt>
      <trkpt lat="46.32892" lon="-0.31137">
        <ele>82.845</ele>
        <time>2011-06-25T16:49:28Z</time>
      </trkpt>
      <trkpt lat="46.32892" lon="-0.31139">
        <ele>82.8901</ele>
        <time>2011-06-25T16:49:29Z</time>
      </trkpt>
      <trkpt lat="46.32893" lon="-0.31142">
        <ele>82.9344</ele>
        <time>2011-06-25T16:49:30Z</time>
      </trkpt>
      <trkpt lat="46.32894" lon="-0.31144">
        <ele>82.9801</ele>
        <time>2011-06-25T16:49:31Z</time>
      </trkpt>
      <trkpt lat="46.32895" lon="-0.31145">
        <ele>83.0251</ele>
        <time>2011-06-25T16:49:32Z</time>
      </trkpt>
      <trkpt lat="46.32895" lon="-0.31147">
        <ele>83.0703</ele>
        <time>2011-06-25T16:49:33Z</time>
      </trkpt>
      <trkpt lat="46.32896" lon="-0.31149">
        <ele>83.113</ele>
        <time>2011-06-25T16:49:35Z</time>
      </trkpt>
      <trkpt lat="46.32897" lon="-0.3115">
        <ele>83.1505</ele>
        <time>2011-06-25T16:49:35Z</time>
      </trkpt>
      <trkpt lat="46.32898" lon="-0.31151">
        <ele>83.187</ele>
        <time>2011-06-25T16:49:36Z</time>
      </trkpt>
      <trkpt lat="46.32899" lon="-0.31153">
        <ele>83.223</ele>
        <time>2011-06-25T16:49:38Z</time>
      </trkpt>
      <trkpt lat="46.329" lon="-0.31154">
        <ele>83.2561</ele>
        <time>2011-06-25T16:49:38Z</time>
      </trkpt>
      <trkpt lat="46.32901" lon="-0.31155">
        <ele>83.2789</ele>
        <time>2011-06-25T16:49:39Z</time>
      </trkpt>
      <trkpt lat="46.32901" lon="-0.31157">
        <ele>83.3004</ele>
        <time>2011-06-25T16:49:41Z</time>
      </trkpt>
      <trkpt lat="46.32902" lon="-0.31158">
        <ele>83.322</ele>
        <time>2011-06-25T16:49:41Z</time>
      </trkpt>
      <trkpt lat="46.32903" lon="-0.3116">
        <ele>83.3408</ele>
        <time>2011-06-25T16:49:42Z</time>
      </trkpt>
      <trkpt lat="46.32903" lon="-0.31162">
        <ele>83.3566</ele>
        <time>2011-06-25T16:49:43Z</time>
      </trkpt>
      <trkpt lat="46.32904" lon="-0.31163">
        <ele>83.3728</ele>
        <time>2011-06-25T16:49:45Z</time>
      </trkpt>
      <trkpt lat="46.32904" lon="-0.31165">
        <ele>83.3861</ele>
        <time>2011-06-25T16:49:45Z</time>
      </trkpt>
      <trkpt lat="46.32905" lon="-0.31166">
        <ele>83.4003</ele>
        <time>2011-06-25T16:49:46Z</time>
      </trkpt>
      <trkpt lat="46.32906" lon="-0.31168">
        <ele>83.4141</ele>
        <time>2011-06-25T16:49:47Z</time>
      </trkpt>
      <trkpt lat="46.32908" lon="-0.3117">
        <ele>83.432</ele>
        <time>2011-06-25T16:49:48Z</time>
      </trkpt>
      <trkpt lat="46.32909" lon="-0.31172">
        <ele>83.4566</ele>
        <time>2011-06-25T16:49:49Z</time>
      </trkpt>
      <trkpt lat="46.32909" lon="-0.31174">
        <ele>83.4787</ele>
        <time>2011-06-25T16:49:50Z</time>
      </trkpt>
      <trkpt lat="46.32911" lon="-0.31176">
        <ele>83.5013</ele>
        <time>2011-06-25T16:49:52Z</time>
      </trkpt>
      <trkpt lat="46.32911" lon="-0.31177">
        <ele>83.5258</ele>
        <time>2011-06-25T16:49:52Z</time>
      </trkpt>
      <trkpt lat="46.32912" lon="-0.31179">
        <ele>83.5504</ele>
        <time>2011-06-25T16:49:54Z</time>
      </trkpt>
      <trkpt lat="46.32913" lon="-0.31181">
        <ele>83.5737</ele>
        <time>2011-06-25T16:49:54Z</time>
      </trkpt>
      <trkpt lat="46.32914" lon="-0.31183">
        <ele>83.5957</ele>
        <time>2011-06-25T16:49:55Z</time>
      </trkpt>
      <trkpt lat="46.32915" lon="-0.31184">
        <ele>83.6182</ele>
        <time>2011-06-25T16:49:56Z</time>
      </trkpt>
      <trkpt lat="46.32916" lon="-0.31186">
        <ele>83.6407</ele>
        <time>2011-06-25T16:49:57Z</time>
      </trkpt>
      <trkpt lat="46.32917" lon="-0.31188">
        <ele>83.6631</ele>
        <time>2011-06-25T16:49:58Z</time>
      </trkpt>
      <trkpt lat="46.32918" lon="-0.3119">
        <ele>83.6848</ele>
        <time>2011-06-25T16:49:59Z</time>
      </trkpt>
      <trkpt lat="46.32919" lon="-0.31191">
        <ele>83.7128</ele>
        <time>2011-06-25T16:50:01Z</time>
      </trkpt>
      <trkpt lat="46.32919" lon="-0.31192">
        <ele>83.7414</ele>
        <time>2011-06-25T16:50:02Z</time>
      </trkpt>
      <trkpt lat="46.3292" lon="-0.31194">
        <ele>83.7731</ele>
        <time>2011-06-25T16:50:02Z</time>
      </trkpt>
      <trkpt lat="46.32921" lon="-0.31196">
        <ele>83.8019</ele>
        <time>2011-06-25T16:50:03Z</time>
      </trkpt>
      <trkpt lat="46.32921" lon="-0.31198">
        <ele>83.8327</ele>
        <time>2011-06-25T16:50:05Z</time>
      </trkpt>
      <trkpt lat="46.32922" lon="-0.312">
        <ele>83.862</ele>
        <time>2011-06-25T16:50:05Z</time>
      </trkpt>
      <trkpt lat="46.32923" lon="-0.31202">
        <ele>83.8958</ele>
        <time>2011-06-25T16:50:07Z</time>
      </trkpt>
      <trkpt lat="46.32924" lon="-0.31205">
        <ele>83.9339</ele>
        <time>2011-06-25T16:50:08Z</time>
      </trkpt>
      <trkpt lat="46.32924" lon="-0.31207">
        <ele>83.9717</ele>
        <time>2011-06-25T16:50:09Z</time>
      </trkpt>
      <trkpt lat="46.32925" lon="-0.31208">
        <ele>84.01</ele>
        <time>2011-06-25T16:50:09Z</time>
      </trkpt>
      <trkpt lat="46.32926" lon="-0.3121">
        <ele>84.0503</ele>
        <time>2011-06-25T16:50:10Z</time>
      </trkpt>
      <trkpt lat="46.32926" lon="-0.31212">
        <ele>84.0904</ele>
        <time>2011-06-25T16:50:11Z</time>
      </trkpt>
      <trkpt lat="46.32927" lon="-0.31214">
        <ele>84.131</ele>
        <time>2011-06-25T16:50:12Z</time>
      </trkpt>
      <trkpt lat="46.32928" lon="-0.31216">
        <ele>84.171</ele>
        <time>2011-06-25T16:50:13Z</time>
      </trkpt>
      <trkpt lat="46.32929" lon="-0.31218">
        <ele>84.2138</ele>
        <time>2011-06-25T16:50:14Z</time>
      </trkpt>
      <trkpt lat="46.32929" lon="-0.31221">
        <ele>84.2577</ele>
        <time>2011-06-25T16:50:15Z</time>
      </trkpt>
      <trkpt lat="46.3293" lon="-0.31223">
        <ele>84.3046</ele>
        <time>2011-06-25T16:50:16Z</time>
      </trkpt>
      <trkpt lat="46.3293" lon="-0.31226">
        <ele>84.3575</ele>
        <time>2011-06-25T16:50:18Z</time>
      </trkpt>
      <trkpt lat="46.3293" lon="-0.31228">
        <ele>84.4108</ele>
        <time>2011-06-25T16:50:18Z</time>
      </trkpt>
      <trkpt lat="46.32931" lon="-0.31231">
        <ele>84.4655</ele>
        <time>2011-06-25T16:50:19Z</time>
      </trkpt>
      <trkpt lat="46.32931" lon="-0.31233">
        <ele>84.5194</ele>
        <time>2011-06-25T16:50:20Z</time>
      </trkpt>
      <trkpt lat="46.32932" lon="-0.31235">
        <ele>84.5744</ele>
        <time>2011-06-25T16:50:21Z</time>
      </trkpt>
      <trkpt lat="46.32932" lon="-0.31236">
        <ele>84.6252</ele>
        <time>2011-06-25T16:50:22Z</time>
      </trkpt>
      <trkpt lat="46.32932" lon="-0.31238">
        <ele>84.6779</ele>
        <time>2011-06-25T16:50:24Z</time>
      </trkpt>
      <trkpt lat="46.32933" lon="-0.3124">
        <ele>84.732</ele>
        <time>2011-06-25T16:50:24Z</time>
      </trkpt>
      <trkpt lat="46.32933" lon="-0.31242">
        <ele>84.7847</ele>
        <time>2011-06-25T16:50:25Z</time>
      </trkpt>
      <trkpt lat="46.32934" lon="-0.31244">
        <ele>84.8428</ele>
        <time>2011-06-25T16:50:27Z</time>
      </trkpt>
      <trkpt lat="46.32935" lon="-0.31246">
        <ele>84.902</ele>
        <time>2011-06-25T16:50:27Z</time>
      </trkpt>
      <trkpt lat="46.32935" lon="-0.31248">
        <ele>84.9633</ele>
        <time>2011-06-25T16:50:28Z</time>
      </trkpt>
      <trkpt lat="46.32936" lon="-0.31251">
        <ele>85.0333</ele>
        <time>2011-06-25T16:50:30Z</time>
      </trkpt>
      <trkpt lat="46.32937" lon="-0.31253">
        <ele>85.1082</ele>
        <time>2011-06-25T16:50:30Z</time>
      </trkpt>
      <trkpt lat="46.32937" lon="-0.31255">
        <ele>85.1882</ele>
        <time>2011-06-25T16:50:31Z</time>
      </trkpt>
      <trkpt lat="46.32938" lon="-0.31258">
        <ele>85.2721</ele>
        <time>2011-06-25T16:50:32Z</time>
      </trkpt>
      <trkpt lat="46.32939" lon="-0.31259">
        <ele>85.357</ele>
        <time>2011-06-25T16:50:33Z</time>
      </trkpt>
      <trkpt lat="46.32939" lon="-0.31261">
        <ele>85.4432</ele>
        <time>2011-06-25T16:50:34Z</time>
      </trkpt>
      <trkpt lat="46.3294" lon="-0.31263">
        <ele>85.5271</ele>
        <time>2011-06-25T16:50:35Z</time>
      </trkpt>
      <trkpt lat="46.3294" lon="-0.31265">
        <ele>85.6091</ele>
        <time>2011-06-25T16:50:37Z</time>
      </trkpt>
      <trkpt lat="46.32941" lon="-0.31267">
        <ele>85.6891</ele>
        <time>2011-06-25T16:50:37Z</time>
      </trkpt>
      <trkpt lat="46.32941" lon="-0.31269">
        <ele>85.7674</ele>
        <time>2011-06-25T16:50:39Z</time>
      </trkpt>
      <trkpt lat="46.32942" lon="-0.31271">
        <ele>85.8437</ele>
        <time>2011-06-25T16:50:39Z</time>
      </trkpt>
      <trkpt lat="46.32942" lon="-0.31273">
        <ele>85.9156</ele>
        <time>2011-06-25T16:50:40Z</time>
      </trkpt>
      <trkpt lat="46.32943" lon="-0.31275">
        <ele>85.9775</ele>
        <time>2011-06-25T16:50:41Z</time>
      </trkpt>
      <trkpt lat="46.32943" lon="-0.31277">
        <ele>86.0355</ele>
        <time>2011-06-25T16:50:42Z</time>
      </trkpt>
      <trkpt lat="46.32944" lon="-0.31279">
        <ele>86.0916</ele>
        <time>2011-06-25T16:50:43Z</time>
      </trkpt>
      <trkpt lat="46.32945" lon="-0.31281">
        <ele>86.1447</ele>
        <time>2011-06-25T16:50:44Z</time>
      </trkpt>
      <trkpt lat="46.32945" lon="-0.31283">
        <ele>86.1944</ele>
        <time>2011-06-25T16:50:45Z</time>
      </trkpt>
      <trkpt lat="46.32946" lon="-0.31285">
        <ele>86.2452</ele>
        <time>2011-06-25T16:50:47Z</time>
      </trkpt>
      <trkpt lat="46.32946" lon="-0.31287">
        <ele>86.2975</ele>
        <time>2011-06-25T16:50:47Z</time>
      </trkpt>
      <trkpt lat="46.32947" lon="-0.31288">
        <ele>86.3503</ele>
        <time>2011-06-25T16:50:49Z</time>
      </trkpt>
      <trkpt lat="46.32948" lon="-0.3129">
        <ele>86.4017</ele>
        <time>2011-06-25T16:50:50Z</time>
      </trkpt>
      <trkpt lat="46.32949" lon="-0.31292">
        <ele>86.4497</ele>
        <time>2011-06-25T16:50:51Z</time>
      </trkpt>
      <trkpt lat="46.32949" lon="-0.31294">
        <ele>86.4947</ele>
        <time>2011-06-25T16:50:52Z</time>
      </trkpt>
      <trkpt lat="46.3295" lon="-0.31296">
        <ele>86.5338</ele>
        <time>2011-06-25T16:50:52Z</time>
      </trkpt>
      <trkpt lat="46.3295" lon="-0.31297">
        <ele>86.5689</ele>
        <time>2011-06-25T16:50:53Z</time>
      </trkpt>
      <trkpt lat="46.32951" lon="-0.31299">
        <ele>86.6023</ele>
        <time>2011-06-25T16:50:55Z</time>
      </trkpt>
      <trkpt lat="46.32952" lon="-0.313">
        <ele>86.6348</ele>
        <time>2011-06-25T16:50:56Z</time>
      </trkpt>
      <trkpt lat="46.32952" lon="-0.31302">
        <ele>86.6659</ele>
        <time>2011-06-25T16:50:57Z</time>
      </trkpt>
      <trkpt lat="46.32953" lon="-0.31303">
        <ele>86.6964</ele>
        <time>2011-06-25T16:50:58Z</time>
      </trkpt>
      <trkpt lat="46.32953" lon="-0.31305">
        <ele>86.7236</ele>
        <time>2011-06-25T16:50:59Z</time>
      </trkpt>
      <trkpt lat="46.32954" lon="-0.31307">
        <ele>86.7449</ele>
        <time>2011-06-25T16:50:59Z</time>
      </trkpt>
      <trkpt lat="46.32954" lon="-0.31308">
        <ele>86.7612</ele>
        <time>2011-06-25T16:51:01Z</time>
      </trkpt>
      <trkpt lat="46.32954" lon="-0.3131">
        <ele>86.7735</ele>
        <time>2011-06-25T16:51:02Z</time>
      </trkpt>
      <trkpt lat="46.32954" lon="-0.31312">
        <ele>86.7823</ele>
        <time>2011-06-25T16:51:02Z</time>
      </trkpt>
      <trkpt lat="46.32954" lon="-0.31314">
        <ele>86.7868</ele>
        <time>2011-06-25T16:51:04Z</time>
      </trkpt>
      <trkpt lat="46.32954" lon="-0.31315">
        <ele>86.7864</ele>
        <time>2011-06-25T16:51:05Z</time>
      </trkpt>
      <trkpt lat="46.32955" lon="-0.31317">
        <ele>86.7829</ele>
        <time>2011-06-25T16:51:06Z</time>
      </trkpt>
      <trkpt lat="46.32956" lon="-0.31319">
        <ele>86.7775</ele>
        <time>2011-06-25T16:51:07Z</time>
      </trkpt>
      <trkpt lat="46.32956" lon="-0.3132">
        <ele>86.7696</ele>
        <time>2011-06-25T16:51:07Z</time>
      </trkpt>
      <trkpt lat="46.32957" lon="-0.31322">
        <ele>86.7619</ele>
        <time>2011-06-25T16:51:08Z</time>
      </trkpt>
      <trkpt lat="46.32958" lon="-0.31324">
        <ele>86.7552</ele>
        <time>2011-06-25T16:51:10Z</time>
      </trkpt>
      <trkpt lat="46.32958" lon="-0.31325">
        <ele>86.7496</ele>
        <time>2011-06-25T16:51:11Z</time>
      </trkpt>
      <trkpt lat="46.32959" lon="-0.31327">
        <ele>86.7458</ele>
        <time>2011-06-25T16:51:11Z</time>
      </trkpt>
      <trkpt lat="46.32959" lon="-0.31329">
        <ele>86.7433</ele>
        <time>2011-06-25T16:51:12Z</time>
      </trkpt>
      <trkpt lat="46.3296" lon="-0.31331">
        <ele>86.7413</ele>
        <time>2011-06-25T16:51:14Z</time>
      </trkpt>
      <trkpt lat="46.3296" lon="-0.31333">
        <ele>86.7387</ele>
        <time>2011-06-25T16:51:15Z</time>
      </trkpt>
      <trkpt lat="46.32961" lon="-0.31335">
        <ele>86.7376</ele>
        <time>2011-06-25T16:51:16Z</time>
      </trkpt>
      <trkpt lat="46.32961" lon="-0.31336">
        <ele>86.737</ele>
        <time>2011-06-25T16:51:16Z</time>
      </trkpt>
      <trkpt lat="46.32962" lon="-0.31338">
        <ele>86.7371</ele>
        <time>2011-06-25T16:51:18Z</time>
      </trkpt>
      <trkpt lat="46.32962" lon="-0.3134">
        <ele>86.7411</ele>
        <time>2011-06-25T16:51:19Z</time>
      </trkpt>
      <trkpt lat="46.32963" lon="-0.31341">
        <ele>86.7454</ele>
        <time>2011-06-25T16:51:19Z</time>
      </trkpt>
      <trkpt lat="46.32963" lon="-0.31343">
        <ele>86.7498</ele>
        <time>2011-06-25T16:51:20Z</time>
      </trkpt>
      <trkpt lat="46.32964" lon="-0.31345">
        <ele>86.7535</ele>
        <time>2011-06-25T16:51:22Z</time>
      </trkpt>
      <trkpt lat="46.32964" lon="-0.31347">
        <ele>86.7561</ele>
        <time>2011-06-25T16:51:22Z</time>
      </trkpt>
      <trkpt lat="46.32964" lon="-0.31349">
        <ele>86.7568</ele>
        <time>2011-06-25T16:51:24Z</time>
      </trkpt>
      <trkpt lat="46.32965" lon="-0.31351">
        <ele>86.7557</ele>
        <time>2011-06-25T16:51:24Z</time>
      </trkpt>
      <trkpt lat="46.32966" lon="-0.31353">
        <ele>86.7548</ele>
        <time>2011-06-25T16:51:26Z</time>
      </trkpt>
      <trkpt lat="46.32966" lon="-0.31354">
        <ele>86.7537</ele>
        <time>2011-06-25T16:51:27Z</time>
      </trkpt>
      <trkpt lat="46.32966" lon="-0.31356">
        <ele>86.751</ele>
        <time>2011-06-25T16:51:28Z</time>
      </trkpt>
      <trkpt lat="46.32967" lon="-0.31357">
        <ele>86.7472</ele>
        <time>2011-06-25T16:51:28Z</time>
      </trkpt>
      <trkpt lat="46.32967" lon="-0.31359">
        <ele>86.7412</ele>
        <time>2011-06-25T16:51:29Z</time>
      </trkpt>
      <trkpt lat="46.32968" lon="-0.31361">
        <ele>86.7353</ele>
        <time>2011-06-25T16:51:30Z</time>
      </trkpt>
      <trkpt lat="46.32968" lon="-0.31362">
        <ele>86.7285</ele>
        <time>2011-06-25T16:51:31Z</time>
      </trkpt>
      <trkpt lat="46.32969" lon="-0.31364">
        <ele>86.7194</ele>
        <time>2011-06-25T16:51:32Z</time>
      </trkpt>
      <trkpt lat="46.32969" lon="-0.31366">
        <ele>86.6987</ele>
        <time>2011-06-25T16:51:34Z</time>
      </trkpt>
      <trkpt lat="46.3297" lon="-0.31368">
        <ele>86.6715</ele>
        <time>2011-06-25T16:51:35Z</time>
      </trkpt>
      <trkpt lat="46.3297" lon="-0.3137">
        <ele>86.6475</ele>
        <time>2011-06-25T16:51:36Z</time>
      </trkpt>
      <trkpt lat="46.3297" lon="-0.31372">
        <ele>86.6242</ele>
        <time>2011-06-25T16:51:36Z</time>
      </trkpt>
      <trkpt lat="46.32971" lon="-0.31374">
        <ele>86.5923</ele>
        <time>2011-06-25T16:51:37Z</time>
      </trkpt>
      <trkpt lat="46.32971" lon="-0.31376">
        <ele>86.5595</ele>
        <time>2011-06-25T16:51:39Z</time>
      </trkpt>
      <trkpt lat="46.32972" lon="-0.31377">
        <ele>86.5231</ele>
        <time>2011-06-25T16:51:39Z</time>
      </trkpt>
      <trkpt lat="46.32972" lon="-0.31379">
        <ele>86.4848</ele>
        <time>2011-06-25T16:51:41Z</time>
      </trkpt>
      <trkpt lat="46.32972" lon="-0.31381">
        <ele>86.4419</ele>
        <time>2011-06-25T16:51:42Z</time>
      </trkpt>
      <trkpt lat="46.32973" lon="-0.31382">
        <ele>86.3996</ele>
        <time>2011-06-25T16:51:42Z</time>
      </trkpt>
      <trkpt lat="46.32973" lon="-0.31384">
        <ele>86.3592</ele>
        <time>2011-06-25T16:51:44Z</time>
      </trkpt>
      <trkpt lat="46.32973" lon="-0.31386">
        <ele>86.3233</ele>
        <time>2011-06-25T16:51:45Z</time>
      </trkpt>
      <trkpt lat="46.32974" lon="-0.31388">
        <ele>86.2915</ele>
        <time>2011-06-25T16:51:45Z</time>
      </trkpt>
      <trkpt lat="46.32974" lon="-0.3139">
        <ele>86.2636</ele>
        <time>2011-06-25T16:51:47Z</time>
      </trkpt>
      <trkpt lat="46.32975" lon="-0.31392">
        <ele>86.2395</ele>
        <time>2011-06-25T16:51:47Z</time>
      </trkpt>
      <trkpt lat="46.32975" lon="-0.31395">
        <ele>86.2195</ele>
        <time>2011-06-25T16:51:49Z</time>
      </trkpt>
      <trkpt lat="46.32975" lon="-0.31397">
        <ele>86.2001</ele>
        <time>2011-06-25T16:51:49Z</time>
      </trkpt>
      <trkpt lat="46.32976" lon="-0.31399">
        <ele>86.181</ele>
        <time>2011-06-25T16:51:50Z</time>
      </trkpt>
      <trkpt lat="46.32976" lon="-0.31402">
        <ele>86.1645</ele>
        <time>2011-06-25T16:51:51Z</time>
      </trkpt>
      <trkpt lat="46.32976" lon="-0.31403">
        <ele>86.1484</ele>
        <time>2011-06-25T16:51:52Z</time>
      </trkpt>
      <trkpt lat="46.32976" lon="-0.31405">
        <ele>86.1306</ele>
        <time>2011-06-25T16:51:53Z</time>
      </trkpt>
      <trkpt lat="46.32976" lon="-0.31407">
        <ele>86.1132</ele>
        <time>2011-06-25T16:51:54Z</time>
      </trkpt>
      <trkpt lat="46.32976" lon="-0.31409">
        <ele>86.0972</ele>
        <time>2011-06-25T16:51:55Z</time>
      </trkpt>
      <trkpt lat="46.32976" lon="-0.31411">
        <ele>86.0831</ele>
        <time>2011-06-25T16:51:56Z</time>
      </trkpt>
      <trkpt lat="46.32977" lon="-0.31412">
        <ele>86.0712</ele>
        <time>2011-06-25T16:51:58Z</time>
      </trkpt>
      <trkpt lat="46.32977" lon="-0.31414">
        <ele>86.0616</ele>
        <time>2011-06-25T16:51:58Z</time>
      </trkpt>
      <trkpt lat="46.32976" lon="-0.31416">
        <ele>86.0526</ele>
        <time>2011-06-25T16:51:59Z</time>
      </trkpt>
      <trkpt lat="46.32976" lon="-0.31417">
        <ele>86.0455</ele>
        <time>2011-06-25T16:52:00Z</time>
      </trkpt>
      <trkpt lat="46.32975" lon="-0.31418">
        <ele>86.0397</ele>
        <time>2011-06-25T16:52:02Z</time>
      </trkpt>
      <trkpt lat="46.32974" lon="-0.31419">
        <ele>86.0337</ele>
        <time>2011-06-25T16:52:02Z</time>
      </trkpt>
      <trkpt lat="46.32973" lon="-0.3142">
        <ele>86.0275</ele>
        <time>2011-06-25T16:52:03Z</time>
      </trkpt>
      <trkpt lat="46.32972" lon="-0.31421">
        <ele>86.0216</ele>
        <time>2011-06-25T16:52:04Z</time>
      </trkpt>
      <trkpt lat="46.32971" lon="-0.31422">
        <ele>86.0158</ele>
        <time>2011-06-25T16:52:06Z</time>
      </trkpt>
      <trkpt lat="46.3297" lon="-0.31423">
        <ele>86.011</ele>
        <time>2011-06-25T16:52:06Z</time>
      </trkpt>
      <trkpt lat="46.32969" lon="-0.31424">
        <ele>86.0099</ele>
        <time>2011-06-25T16:52:07Z</time>
      </trkpt>
      <trkpt lat="46.32967" lon="-0.31424">
        <ele>86.0109</ele>
        <time>2011-06-25T16:52:08Z</time>
      </trkpt>
      <trkpt lat="46.32966" lon="-0.31425">
        <ele>86.0127</ele>
        <time>2011-06-25T16:52:09Z</time>
      </trkpt>
      <trkpt lat="46.32964" lon="-0.31426">
        <ele>86.015</ele>
        <time>2011-06-25T16:52:10Z</time>
      </trkpt>
      <trkpt lat="46.32963" lon="-0.31426">
        <ele>86.0169</ele>
        <time>2011-06-25T16:52:11Z</time>
      </trkpt>
      <trkpt lat="46.32961" lon="-0.31426">
        <ele>86.0185</ele>
        <time>2011-06-25T16:52:12Z</time>
      </trkpt>
      <trkpt lat="46.3296" lon="-0.31427">
        <ele>86.0198</ele>
        <time>2011-06-25T16:52:13Z</time>
      </trkpt>
      <trkpt lat="46.32959" lon="-0.31428">
        <ele>86.0182</ele>
        <time>2011-06-25T16:52:14Z</time>
      </trkpt>
      <trkpt lat="46.32957" lon="-0.31428">
        <ele>86.0118</ele>
        <time>2011-06-25T16:52:15Z</time>
      </trkpt>
      <trkpt lat="46.32956" lon="-0.31429">
        <ele>86.0004</ele>
        <time>2011-06-25T16:52:17Z</time>
      </trkpt>
      <trkpt lat="46.32954" lon="-0.31429">
        <ele>85.9857</ele>
        <time>2011-06-25T16:52:18Z</time>
      </trkpt>
      <trkpt lat="46.32953" lon="-0.3143">
        <ele>85.9708</ele>
        <time>2011-06-25T16:52:18Z</time>
      </trkpt>
      <trkpt lat="46.32951" lon="-0.3143">
        <ele>85.9558</ele>
        <time>2011-06-25T16:52:19Z</time>
      </trkpt>
      <trkpt lat="46.32949" lon="-0.31431">
        <ele>85.9403</ele>
        <time>2011-06-25T16:52:21Z</time>
      </trkpt>
      <trkpt lat="46.32948" lon="-0.31432">
        <ele>85.9252</ele>
        <time>2011-06-25T16:52:22Z</time>
      </trkpt>
      <trkpt lat="46.32946" lon="-0.31433">
        <ele>85.9123</ele>
        <time>2011-06-25T16:52:23Z</time>
      </trkpt>
      <trkpt lat="46.32945" lon="-0.31433">
        <ele>85.8995</ele>
        <time>2011-06-25T16:52:24Z</time>
      </trkpt>
      <trkpt lat="46.32943" lon="-0.31434">
        <ele>85.8887</ele>
        <time>2011-06-25T16:52:24Z</time>
      </trkpt>
      <trkpt lat="46.32942" lon="-0.31435">
        <ele>85.8794</ele>
        <time>2011-06-25T16:52:26Z</time>
      </trkpt>
      <trkpt lat="46.32941" lon="-0.31435">
        <ele>85.8708</ele>
        <time>2011-06-25T16:52:27Z</time>
      </trkpt>
      <trkpt lat="46.32939" lon="-0.31436">
        <ele>85.8634</ele>
        <time>2011-06-25T16:52:28Z</time>
      </trkpt>
      <trkpt lat="46.32938" lon="-0.31437">
        <ele>85.8578</ele>
        <time>2011-06-25T16:52:28Z</time>
      </trkpt>
      <trkpt lat="46.32937" lon="-0.31438">
        <ele>85.8542</ele>
        <time>2011-06-25T16:52:30Z</time>
      </trkpt>
      <trkpt lat="46.32935" lon="-0.31439">
        <ele>85.852</ele>
        <time>2011-06-25T16:52:31Z</time>
      </trkpt>
      <trkpt lat="46.32934" lon="-0.31439">
        <ele>85.8507</ele>
        <time>2011-06-25T16:52:32Z</time>
      </trkpt>
      <trkpt lat="46.32933" lon="-0.3144">
        <ele>85.8507</ele>
        <time>2011-06-25T16:52:32Z</time>
      </trkpt>
      <trkpt lat="46.32932" lon="-0.31441">
        <ele>85.8517</ele>
        <time>2011-06-25T16:52:34Z</time>
      </trkpt>
      <trkpt lat="46.32931" lon="-0.31442">
        <ele>85.853</ele>
        <time>2011-06-25T16:52:35Z</time>
      </trkpt>
      <trkpt lat="46.3293" lon="-0.31442">
        <ele>85.8536</ele>
        <time>2011-06-25T16:52:35Z</time>
      </trkpt>
      <trkpt lat="46.32929" lon="-0.31443">
        <ele>85.8547</ele>
        <time>2011-06-25T16:52:37Z</time>
      </trkpt>
      <trkpt lat="46.32927" lon="-0.31444">
        <ele>85.8547</ele>
        <time>2011-06-25T16:52:38Z</time>
      </trkpt>
      <trkpt lat="46.32926" lon="-0.31445">
        <ele>85.854</ele>
        <time>2011-06-25T16:52:38Z</time>
      </trkpt>
      <trkpt lat="46.32925" lon="-0.31445">
        <ele>85.8538</ele>
        <time>2011-06-25T16:52:40Z</time>
      </trkpt>
      <trkpt lat="46.32924" lon="-0.31446">
        <ele>85.8543</ele>
        <time>2011-06-25T16:52:40Z</time>
      </trkpt>
      <trkpt lat="46.32922" lon="-0.31447">
        <ele>85.8557</ele>
        <time>2011-06-25T16:52:42Z</time>
      </trkpt>
      <trkpt lat="46.32921" lon="-0.31447">
        <ele>85.8571</ele>
        <time>2011-06-25T16:52:42Z</time>
      </trkpt>
      <trkpt lat="46.3292" lon="-0.31448">
        <ele>85.8593</ele>
        <time>2011-06-25T16:52:44Z</time>
      </trkpt>
      <trkpt lat="46.32919" lon="-0.31449">
        <ele>85.8616</ele>
        <time>2011-06-25T16:52:45Z</time>
      </trkpt>
      <trkpt lat="46.32917" lon="-0.3145">
        <ele>85.866</ele>
        <time>2011-06-25T16:52:46Z</time>
      </trkpt>
      <trkpt lat="46.32916" lon="-0.31451">
        <ele>85.872</ele>
        <time>2011-06-25T16:52:46Z</time>
      </trkpt>
      <trkpt lat="46.32915" lon="-0.31451">
        <ele>85.8794</ele>
        <time>2011-06-25T16:52:47Z</time>
      </trkpt>
      <trkpt lat="46.32914" lon="-0.31452">
        <ele>85.8867</ele>
        <time>2011-06-25T16:52:48Z</time>
      </trkpt>
      <trkpt lat="46.32913" lon="-0.31453">
        <ele>85.8936</ele>
        <time>2011-06-25T16:52:49Z</time>
      </trkpt>
      <trkpt lat="46.32912" lon="-0.31454">
        <ele>85.8991</ele>
        <time>2011-06-25T16:52:51Z</time>
      </trkpt>
      <trkpt lat="46.32911" lon="-0.31455">
        <ele>85.9035</ele>
        <time>2011-06-25T16:52:51Z</time>
      </trkpt>
      <trkpt lat="46.3291" lon="-0.31455">
        <ele>85.9069</ele>
        <time>2011-06-25T16:52:53Z</time>
      </trkpt>
      <trkpt lat="46.32909" lon="-0.31456">
        <ele>85.9095</ele>
        <time>2011-06-25T16:52:54Z</time>
      </trkpt>
      <trkpt lat="46.32908" lon="-0.31457">
        <ele>85.9123</ele>
        <time>2011-06-25T16:52:55Z</time>
      </trkpt>
      <trkpt lat="46.32907" lon="-0.31458">
        <ele>85.914</ele>
        <time>2011-06-25T16:52:56Z</time>
      </trkpt>
      <trkpt lat="46.32905" lon="-0.31458">
        <ele>85.9141</ele>
        <time>2011-06-25T16:52:57Z</time>
      </trkpt>
      <trkpt lat="46.32904" lon="-0.31459">
        <ele>85.912</ele>
        <time>2011-06-25T16:52:57Z</time>
      </trkpt>
      <trkpt lat="46.32903" lon="-0.3146">
        <ele>85.9077</ele>
        <time>2011-06-25T16:52:59Z</time>
      </trkpt>
      <trkpt lat="46.32901" lon="-0.3146">
        <ele>85.9021</ele>
        <time>2011-06-25T16:53:00Z</time>
      </trkpt>
      <trkpt lat="46.329" lon="-0.31461">
        <ele>85.896</ele>
        <time>2011-06-25T16:53:01Z</time>
      </trkpt>
      <trkpt lat="46.32899" lon="-0.31462">
        <ele>85.8898</ele>
        <time>2011-06-25T16:53:02Z</time>
      </trkpt>
      <trkpt lat="46.32898" lon="-0.31463">
        <ele>85.8834</ele>
        <time>2011-06-25T16:53:02Z</time>
      </trkpt>
      <trkpt lat="46.32896" lon="-0.31464">
        <ele>85.8782</ele>
        <time>2011-06-25T16:53:04Z</time>
      </trkpt>
      <trkpt lat="46.32895" lon="-0.31464">
        <ele>85.8742</ele>
        <time>2011-06-25T16:53:05Z</time>
      </trkpt>
      <trkpt lat="46.32894" lon="-0.31465">
        <ele>85.8706</ele>
        <time>2011-06-25T16:53:06Z</time>
      </trkpt>
      <trkpt lat="46.32893" lon="-0.31466">
        <ele>85.8671</ele>
        <time>2011-06-25T16:53:06Z</time>
      </trkpt>
      <trkpt lat="46.32892" lon="-0.31467">
        <ele>85.8636</ele>
        <time>2011-06-25T16:53:07Z</time>
      </trkpt>
      <trkpt lat="46.32891" lon="-0.31467">
        <ele>85.8609</ele>
        <time>2011-06-25T16:53:09Z</time>
      </trkpt>
      <trkpt lat="46.3289" lon="-0.31468">
        <ele>85.8577</ele>
        <time>2011-06-25T16:53:10Z</time>
      </trkpt>
      <trkpt lat="46.32889" lon="-0.31468">
        <ele>85.8546</ele>
        <time>2011-06-25T16:53:11Z</time>
      </trkpt>
      <trkpt lat="46.32888" lon="-0.31469">
        <ele>85.8517</ele>
        <time>2011-06-25T16:53:12Z</time>
      </trkpt>
      <trkpt lat="46.32887" lon="-0.3147">
        <ele>85.8491</ele>
        <time>2011-06-25T16:53:12Z</time>
      </trkpt>
      <trkpt lat="46.32886" lon="-0.3147">
        <ele>85.8442</ele>
        <time>2011-06-25T16:53:14Z</time>
      </trkpt>
      <trkpt lat="46.32885" lon="-0.31471">
        <ele>85.8392</ele>
        <time>2011-06-25T16:53:15Z</time>
      </trkpt>
      <trkpt lat="46.32884" lon="-0.31472">
        <ele>85.833</ele>
        <time>2011-06-25T16:53:16Z</time>
      </trkpt>
      <trkpt lat="46.32882" lon="-0.31472">
        <ele>85.8261</ele>
        <time>2011-06-25T16:53:17Z</time>
      </trkpt>
      <trkpt lat="46.32881" lon="-0.31473">
        <ele>85.8198</ele>
        <time>2011-06-25T16:53:17Z</time>
      </trkpt>
      <trkpt lat="46.3288" lon="-0.31474">
        <ele>85.8147</ele>
        <time>2011-06-25T16:53:19Z</time>
      </trkpt>
      <trkpt lat="46.32879" lon="-0.31474">
        <ele>85.8108</ele>
        <time>2011-06-25T16:53:20Z</time>
      </trkpt>
      <trkpt lat="46.32877" lon="-0.31475">
        <ele>85.8062</ele>
        <time>2011-06-25T16:53:20Z</time>
      </trkpt>
      <trkpt lat="46.32876" lon="-0.31476">
        <ele>85.8013</ele>
        <time>2011-06-25T16:53:21Z</time>
      </trkpt>
      <trkpt lat="46.32875" lon="-0.31477">
        <ele>85.7965</ele>
        <time>2011-06-25T16:53:22Z</time>
      </trkpt>
      <trkpt lat="46.32874" lon="-0.31477">
        <ele>85.7925</ele>
        <time>2011-06-25T16:53:24Z</time>
      </trkpt>
      <trkpt lat="46.32872" lon="-0.31478">
        <ele>85.7887</ele>
        <time>2011-06-25T16:53:25Z</time>
      </trkpt>
      <trkpt lat="46.32871" lon="-0.31479">
        <ele>85.7849</ele>
        <time>2011-06-25T16:53:26Z</time>
      </trkpt>
      <trkpt lat="46.32869" lon="-0.3148">
        <ele>85.7811</ele>
        <time>2011-06-25T16:53:27Z</time>
      </trkpt>
      <trkpt lat="46.32868" lon="-0.31481">
        <ele>85.7759</ele>
        <time>2011-06-25T16:53:27Z</time>
      </trkpt>
      <trkpt lat="46.32867" lon="-0.31481">
        <ele>85.7703</ele>
        <time>2011-06-25T16:53:28Z</time>
      </trkpt>
      <trkpt lat="46.32866" lon="-0.31482">
        <ele>85.7627</ele>
        <time>2011-06-25T16:53:29Z</time>
      </trkpt>
      <trkpt lat="46.32864" lon="-0.31483">
        <ele>85.7558</ele>
        <time>2011-06-25T16:53:30Z</time>
      </trkpt>
      <trkpt lat="46.32863" lon="-0.31484">
        <ele>85.7488</ele>
        <time>2011-06-25T16:53:31Z</time>
      </trkpt>
      <trkpt lat="46.32862" lon="-0.31484">
        <ele>85.7421</ele>
        <time>2011-06-25T16:53:32Z</time>
      </trkpt>
      <trkpt lat="46.3286" lon="-0.31485">
        <ele>85.7341</ele>
        <time>2011-06-25T16:53:33Z</time>
      </trkpt>
      <trkpt lat="46.32859" lon="-0.31486">
        <ele>85.7255</ele>
        <time>2011-06-25T16:53:34Z</time>
      </trkpt>
      <trkpt lat="46.32858" lon="-0.31487">
        <ele>85.7171</ele>
        <time>2011-06-25T16:53:35Z</time>
      </trkpt>
      <trkpt lat="46.32857" lon="-0.31487">
        <ele>85.7046</ele>
        <time>2011-06-25T16:53:37Z</time>
      </trkpt>
      <trkpt lat="46.32856" lon="-0.31488">
        <ele>85.6894</ele>
        <time>2011-06-25T16:53:38Z</time>
      </trkpt>
      <trkpt lat="46.32855" lon="-0.31489">
        <ele>85.6744</ele>
        <time>2011-06-25T16:53:38Z</time>
      </trkpt>
      <trkpt lat="46.32854" lon="-0.3149">
        <ele>85.6589</ele>
        <time>2011-06-25T16:53:39Z</time>
      </trkpt>
      <trkpt lat="46.32853" lon="-0.31491">
        <ele>85.6441</ele>
        <time>2011-06-25T16:53:40Z</time>
      </trkpt>
      <trkpt lat="46.32852" lon="-0.31492">
        <ele>85.6304</ele>
        <time>2011-06-25T16:53:41Z</time>
      </trkpt>
      <trkpt lat="46.32851" lon="-0.31493">
        <ele>85.6167</ele>
        <time>2011-06-25T16:53:43Z</time>
      </trkpt>
      <trkpt lat="46.3285" lon="-0.31493">
        <ele>85.6007</ele>
        <time>2011-06-25T16:53:43Z</time>
      </trkpt>
      <trkpt lat="46.32849" lon="-0.31494">
        <ele>85.584</ele>
        <time>2011-06-25T16:53:44Z</time>
      </trkpt>
      <trkpt lat="46.32848" lon="-0.31496">
        <ele>85.5676</ele>
        <time>2011-06-25T16:53:46Z</time>
      </trkpt>
      <trkpt lat="46.32847" lon="-0.31496">
        <ele>85.5505</ele>
        <time>2011-06-25T16:53:46Z</time>
      </trkpt>
      <trkpt lat="46.32846" lon="-0.31497">
        <ele>85.5338</ele>
        <time>2011-06-25T16:53:47Z</time>
      </trkpt>
      <trkpt lat="46.32845" lon="-0.31498">
        <ele>85.5174</ele>
        <time>2011-06-25T16:53:49Z</time>
      </trkpt>
      <trkpt lat="46.32843" lon="-0.31499">
        <ele>85.5045</ele>
        <time>2011-06-25T16:53:49Z</time>
      </trkpt>
      <trkpt lat="46.32842" lon="-0.315">
        <ele>85.4914</ele>
        <time>2011-06-25T16:53:50Z</time>
      </trkpt>
      <trkpt lat="46.32841" lon="-0.31501">
        <ele>85.4787</ele>
        <time>2011-06-25T16:53:51Z</time>
      </trkpt>
      <trkpt lat="46.3284" lon="-0.31502">
        <ele>85.4659</ele>
        <time>2011-06-25T16:53:52Z</time>
      </trkpt>
      <trkpt lat="46.32839" lon="-0.31503">
        <ele>85.4532</ele>
        <time>2011-06-25T16:53:53Z</time>
      </trkpt>
      <trkpt lat="46.32838" lon="-0.31504">
        <ele>85.4415</ele>
        <time>2011-06-25T16:53:54Z</time>
      </trkpt>
      <trkpt lat="46.32837" lon="-0.31505">
        <ele>85.4308</ele>
        <time>2011-06-25T16:53:55Z</time>
      </trkpt>
      <trkpt lat="46.32835" lon="-0.31507">
        <ele>85.4223</ele>
        <time>2011-06-25T16:53:56Z</time>
      </trkpt>
      <trkpt lat="46.32834" lon="-0.31508">
        <ele>85.4132</ele>
        <time>2011-06-25T16:53:57Z</time>
      </trkpt>
      <trkpt lat="46.32834" lon="-0.31509">
        <ele>85.4048</ele>
        <time>2011-06-25T16:53:58Z</time>
      </trkpt>
      <trkpt lat="46.32832" lon="-0.3151">
        <ele>85.3961</ele>
        <time>2011-06-25T16:54:00Z</time>
      </trkpt>
      <trkpt lat="46.32831" lon="-0.31512">
        <ele>85.3859</ele>
        <time>2011-06-25T16:54:00Z</time>
      </trkpt>
      <trkpt lat="46.3283" lon="-0.31513">
        <ele>85.3764</ele>
        <time>2011-06-25T16:54:01Z</time>
      </trkpt>
      <trkpt lat="46.3283" lon="-0.31515">
        <ele>85.3661</ele>
        <time>2011-06-25T16:54:02Z</time>
      </trkpt>
      <trkpt lat="46.32829" lon="-0.31517">
        <ele>85.35</ele>
        <time>2011-06-25T16:54:03Z</time>
      </trkpt>
      <trkpt lat="46.32828" lon="-0.31518">
        <ele>85.3357</ele>
        <time>2011-06-25T16:54:04Z</time>
      </trkpt>
      <trkpt lat="46.32828" lon="-0.3152">
        <ele>85.3225</ele>
        <time>2011-06-25T16:54:06Z</time>
      </trkpt>
      <trkpt lat="46.32828" lon="-0.31522">
        <ele>85.3122</ele>
        <time>2011-06-25T16:54:06Z</time>
      </trkpt>
      <trkpt lat="46.32827" lon="-0.31524">
        <ele>85.302</ele>
        <time>2011-06-25T16:54:08Z</time>
      </trkpt>
      <trkpt lat="46.32827" lon="-0.31527">
        <ele>85.292</ele>
        <time>2011-06-25T16:54:08Z</time>
      </trkpt>
      <trkpt lat="46.32827" lon="-0.31529">
        <ele>85.2808</ele>
        <time>2011-06-25T16:54:09Z</time>
      </trkpt>
      <trkpt lat="46.32827" lon="-0.31531">
        <ele>85.2704</ele>
        <time>2011-06-25T16:54:11Z</time>
      </trkpt>
      <trkpt lat="46.32828" lon="-0.31533">
        <ele>85.2621</ele>
        <time>2011-06-25T16:54:12Z</time>
      </trkpt>
      <trkpt lat="46.32828" lon="-0.31534">
        <ele>85.2567</ele>
        <time>2011-06-25T16:54:12Z</time>
      </trkpt>
      <trkpt lat="46.32829" lon="-0.31536">
        <ele>85.2537</ele>
        <time>2011-06-25T16:54:13Z</time>
      </trkpt>
      <trkpt lat="46.32829" lon="-0.31538">
        <ele>85.2488</ele>
        <time>2011-06-25T16:54:14Z</time>
      </trkpt>
      <trkpt lat="46.3283" lon="-0.31539">
        <ele>85.2489</ele>
        <time>2011-06-25T16:54:15Z</time>
      </trkpt>
      <trkpt lat="46.32831" lon="-0.31541">
        <ele>85.2514</ele>
        <time>2011-06-25T16:54:16Z</time>
      </trkpt>
      <trkpt lat="46.32832" lon="-0.31542">
        <ele>85.2551</ele>
        <time>2011-06-25T16:54:17Z</time>
      </trkpt>
      <trkpt lat="46.32832" lon="-0.31544">
        <ele>85.262</ele>
        <time>2011-06-25T16:54:18Z</time>
      </trkpt>
      <trkpt lat="46.32833" lon="-0.31546">
        <ele>85.2731</ele>
        <time>2011-06-25T16:54:20Z</time>
      </trkpt>
      <trkpt lat="46.32834" lon="-0.31547">
        <ele>85.2864</ele>
        <time>2011-06-25T16:54:21Z</time>
      </trkpt>
      <trkpt lat="46.32834" lon="-0.31549">
        <ele>85.3031</ele>
        <time>2011-06-25T16:54:21Z</time>
      </trkpt>
      <trkpt lat="46.32835" lon="-0.3155">
        <ele>85.3195</ele>
        <time>2011-06-25T16:54:23Z</time>
      </trkpt>
      <trkpt lat="46.32836" lon="-0.31552">
        <ele>85.3333</ele>
        <time>2011-06-25T16:54:23Z</time>
      </trkpt>
      <trkpt lat="46.32837" lon="-0.31553">
        <ele>85.347</ele>
        <time>2011-06-25T16:54:24Z</time>
      </trkpt>
      <trkpt lat="46.32837" lon="-0.31555">
        <ele>85.3605</ele>
        <time>2011-06-25T16:54:25Z</time>
      </trkpt>
      <trkpt lat="46.32838" lon="-0.31557">
        <ele>85.3728</ele>
        <time>2011-06-25T16:54:26Z</time>
      </trkpt>
      <trkpt lat="46.32839" lon="-0.31558">
        <ele>85.3855</ele>
        <time>2011-06-25T16:54:27Z</time>
      </trkpt>
      <trkpt lat="46.32839" lon="-0.3156">
        <ele>85.3983</ele>
        <time>2011-06-25T16:54:28Z</time>
      </trkpt>
      <trkpt lat="46.3284" lon="-0.31561">
        <ele>85.4107</ele>
        <time>2011-06-25T16:54:30Z</time>
      </trkpt>
      <trkpt lat="46.32841" lon="-0.31563">
        <ele>85.4226</ele>
        <time>2011-06-25T16:54:31Z</time>
      </trkpt>
      <trkpt lat="46.32842" lon="-0.31565">
        <ele>85.4342</ele>
        <time>2011-06-25T16:54:32Z</time>
      </trkpt>
      <trkpt lat="46.32842" lon="-0.31567">
        <ele>85.4437</ele>
        <time>2011-06-25T16:54:32Z</time>
      </trkpt>
      <trkpt lat="46.32843" lon="-0.31569">
        <ele>85.4567</ele>
        <time>2011-06-25T16:54:33Z</time>
      </trkpt>
      <trkpt lat="46.32844" lon="-0.3157">
        <ele>85.4736</ele>
        <time>2011-06-25T16:54:34Z</time>
      </trkpt>
      <trkpt lat="46.32845" lon="-0.31572">
        <ele>85.4924</ele>
        <time>2011-06-25T16:54:35Z</time>
      </trkpt>
      <trkpt lat="46.32845" lon="-0.31574">
        <ele>85.5129</ele>
        <time>2011-06-25T16:54:36Z</time>
      </trkpt>
      <trkpt lat="46.32846" lon="-0.31575">
        <ele>85.5359</ele>
        <time>2011-06-25T16:54:37Z</time>
      </trkpt>
      <trkpt lat="46.32846" lon="-0.31577">
        <ele>85.5598</ele>
        <time>2011-06-25T16:54:38Z</time>
      </trkpt>
      <trkpt lat="46.32847" lon="-0.31579">
        <ele>85.5828</ele>
        <time>2011-06-25T16:54:39Z</time>
      </trkpt>
      <trkpt lat="46.32848" lon="-0.3158">
        <ele>85.6057</ele>
        <time>2011-06-25T16:54:40Z</time>
      </trkpt>
      <trkpt lat="46.32849" lon="-0.31581">
        <ele>85.63</ele>
        <time>2011-06-25T16:54:41Z</time>
      </trkpt>
      <trkpt lat="46.3285" lon="-0.31583">
        <ele>85.6527</ele>
        <time>2011-06-25T16:54:42Z</time>
      </trkpt>
      <trkpt lat="46.3285" lon="-0.31585">
        <ele>85.6761</ele>
        <time>2011-06-25T16:54:43Z</time>
      </trkpt>
      <trkpt lat="46.32851" lon="-0.31586">
        <ele>85.7</ele>
        <time>2011-06-25T16:54:44Z</time>
      </trkpt>
      <trkpt lat="46.32852" lon="-0.31587">
        <ele>85.7249</ele>
        <time>2011-06-25T16:54:45Z</time>
      </trkpt>
      <trkpt lat="46.32853" lon="-0.31589">
        <ele>85.7509</ele>
        <time>2011-06-25T16:54:46Z</time>
      </trkpt>
      <trkpt lat="46.32853" lon="-0.3159">
        <ele>85.7817</ele>
        <time>2011-06-25T16:54:47Z</time>
      </trkpt>
      <trkpt lat="46.32854" lon="-0.31591">
        <ele>85.8176</ele>
        <time>2011-06-25T16:54:48Z</time>
      </trkpt>
      <trkpt lat="46.32855" lon="-0.31593">
        <ele>85.8583</ele>
        <time>2011-06-25T16:54:49Z</time>
      </trkpt>
      <trkpt lat="46.32856" lon="-0.31594">
        <ele>85.9024</ele>
        <time>2011-06-25T16:54:50Z</time>
      </trkpt>
      <trkpt lat="46.32856" lon="-0.31596">
        <ele>85.9466</ele>
        <time>2011-06-25T16:54:51Z</time>
      </trkpt>
      <trkpt lat="46.32856" lon="-0.31598">
        <ele>85.9896</ele>
        <time>2011-06-25T16:54:52Z</time>
      </trkpt>
      <trkpt lat="46.32857" lon="-0.31599">
        <ele>86.0307</ele>
        <time>2011-06-25T16:54:53Z</time>
      </trkpt>
      <trkpt lat="46.32858" lon="-0.31601">
        <ele>86.0702</ele>
        <time>2011-06-25T16:54:54Z</time>
      </trkpt>
      <trkpt lat="46.32858" lon="-0.31603">
        <ele>86.109</ele>
        <time>2011-06-25T16:54:55Z</time>
      </trkpt>
      <trkpt lat="46.32859" lon="-0.31604">
        <ele>86.147</ele>
        <time>2011-06-25T16:54:57Z</time>
      </trkpt>
      <trkpt lat="46.32859" lon="-0.31606">
        <ele>86.1828</ele>
        <time>2011-06-25T16:54:58Z</time>
      </trkpt>
      <trkpt lat="46.3286" lon="-0.31607">
        <ele>86.2175</ele>
        <time>2011-06-25T16:54:58Z</time>
      </trkpt>
      <trkpt lat="46.32861" lon="-0.31609">
        <ele>86.2515</ele>
        <time>2011-06-25T16:54:59Z</time>
      </trkpt>
      <trkpt lat="46.32861" lon="-0.3161">
        <ele>86.284</ele>
        <time>2011-06-25T16:55:00Z</time>
      </trkpt>
      <trkpt lat="46.32862" lon="-0.31612">
        <ele>86.3153</ele>
        <time>2011-06-25T16:55:01Z</time>
      </trkpt>
      <trkpt lat="46.32863" lon="-0.31613">
        <ele>86.3463</ele>
        <time>2011-06-25T16:55:02Z</time>
      </trkpt>
      <trkpt lat="46.32863" lon="-0.31615">
        <ele>86.3775</ele>
        <time>2011-06-25T16:55:03Z</time>
      </trkpt>
      <trkpt lat="46.32864" lon="-0.31616">
        <ele>86.411</ele>
        <time>2011-06-25T16:55:04Z</time>
      </trkpt>
      <trkpt lat="46.32865" lon="-0.31618">
        <ele>86.443</ele>
        <time>2011-06-25T16:55:05Z</time>
      </trkpt>
      <trkpt lat="46.32866" lon="-0.3162">
        <ele>86.4764</ele>
        <time>2011-06-25T16:55:06Z</time>
      </trkpt>
      <trkpt lat="46.32867" lon="-0.31622">
        <ele>86.5095</ele>
        <time>2011-06-25T16:55:07Z</time>
      </trkpt>
      <trkpt lat="46.32867" lon="-0.31624">
        <ele>86.5421</ele>
        <time>2011-06-25T16:55:08Z</time>
      </trkpt>
      <trkpt lat="46.32869" lon="-0.31626">
        <ele>86.5745</ele>
        <time>2011-06-25T16:55:09Z</time>
      </trkpt>
      <trkpt lat="46.32869" lon="-0.31627">
        <ele>86.5963</ele>
        <time>2011-06-25T16:55:10Z</time>
      </trkpt>
      <trkpt lat="46.3287" lon="-0.31629">
        <ele>86.617</ele>
        <time>2011-06-25T16:55:11Z</time>
      </trkpt>
      <trkpt lat="46.32871" lon="-0.31631">
        <ele>86.6376</ele>
        <time>2011-06-25T16:55:12Z</time>
      </trkpt>
      <trkpt lat="46.32872" lon="-0.31632">
        <ele>86.6574</ele>
        <time>2011-06-25T16:55:13Z</time>
      </trkpt>
      <trkpt lat="46.32873" lon="-0.31634">
        <ele>86.6754</ele>
        <time>2011-06-25T16:55:15Z</time>
      </trkpt>
      <trkpt lat="46.32874" lon="-0.31636">
        <ele>86.6873</ele>
        <time>2011-06-25T16:55:16Z</time>
      </trkpt>
      <trkpt lat="46.32875" lon="-0.31638">
        <ele>86.7005</ele>
        <time>2011-06-25T16:55:16Z</time>
      </trkpt>
      <trkpt lat="46.32876" lon="-0.31639">
        <ele>86.7131</ele>
        <time>2011-06-25T16:55:17Z</time>
      </trkpt>
      <trkpt lat="46.32877" lon="-0.31641">
        <ele>86.7247</ele>
        <time>2011-06-25T16:55:19Z</time>
      </trkpt>
      <trkpt lat="46.32877" lon="-0.31642">
        <ele>86.7308</ele>
        <time>2011-06-25T16:55:19Z</time>
      </trkpt>
      <trkpt lat="46.32879" lon="-0.31643">
        <ele>86.7369</ele>
        <time>2011-06-25T16:55:20Z</time>
      </trkpt>
      <trkpt lat="46.32879" lon="-0.31645">
        <ele>86.7427</ele>
        <time>2011-06-25T16:55:21Z</time>
      </trkpt>
      <trkpt lat="46.3288" lon="-0.31646">
        <ele>86.7507</ele>
        <time>2011-06-25T16:55:22Z</time>
      </trkpt>
      <trkpt lat="46.3288" lon="-0.31647">
        <ele>86.7629</ele>
        <time>2011-06-25T16:55:23Z</time>
      </trkpt>
      <trkpt lat="46.3288" lon="-0.31649">
        <ele>86.7808</ele>
        <time>2011-06-25T16:55:24Z</time>
      </trkpt>
      <trkpt lat="46.32881" lon="-0.3165">
        <ele>86.801</ele>
        <time>2011-06-25T16:55:25Z</time>
      </trkpt>
      <trkpt lat="46.32882" lon="-0.31652">
        <ele>86.8215</ele>
        <time>2011-06-25T16:55:26Z</time>
      </trkpt>
      <trkpt lat="46.32882" lon="-0.31653">
        <ele>86.847</ele>
        <time>2011-06-25T16:55:27Z</time>
      </trkpt>
      <trkpt lat="46.32882" lon="-0.31655">
        <ele>86.8726</ele>
        <time>2011-06-25T16:55:29Z</time>
      </trkpt>
      <trkpt lat="46.32883" lon="-0.31656">
        <ele>86.8979</ele>
        <time>2011-06-25T16:55:29Z</time>
      </trkpt>
      <trkpt lat="46.32884" lon="-0.31658">
        <ele>86.9231</ele>
        <time>2011-06-25T16:55:30Z</time>
      </trkpt>
      <trkpt lat="46.32884" lon="-0.3166">
        <ele>86.9488</ele>
        <time>2011-06-25T16:55:31Z</time>
      </trkpt>
      <trkpt lat="46.32885" lon="-0.31661">
        <ele>86.9735</ele>
        <time>2011-06-25T16:55:32Z</time>
      </trkpt>
      <trkpt lat="46.32885" lon="-0.31663">
        <ele>86.9972</ele>
        <time>2011-06-25T16:55:33Z</time>
      </trkpt>
      <trkpt lat="46.32886" lon="-0.31665">
        <ele>87.0207</ele>
        <time>2011-06-25T16:55:35Z</time>
      </trkpt>
      <trkpt lat="46.32886" lon="-0.31666">
        <ele>87.0466</ele>
        <time>2011-06-25T16:55:35Z</time>
      </trkpt>
      <trkpt lat="46.32886" lon="-0.31669">
        <ele>87.0747</ele>
        <time>2011-06-25T16:55:36Z</time>
      </trkpt>
      <trkpt lat="46.32886" lon="-0.3167">
        <ele>87.1028</ele>
        <time>2011-06-25T16:55:37Z</time>
      </trkpt>
      <trkpt lat="46.32886" lon="-0.31671">
        <ele>87.1246</ele>
        <time>2011-06-25T16:55:38Z</time>
      </trkpt>
      <trkpt lat="46.32887" lon="-0.31673">
        <ele>87.1401</ele>
        <time>2011-06-25T16:55:39Z</time>
      </trkpt>
      <trkpt lat="46.32887" lon="-0.31675">
        <ele>87.1618</ele>
        <time>2011-06-25T16:55:40Z</time>
      </trkpt>
      <trkpt lat="46.32888" lon="-0.31676">
        <ele>87.1878</ele>
        <time>2011-06-25T16:55:41Z</time>
      </trkpt>
      <trkpt lat="46.32888" lon="-0.31678">
        <ele>87.2116</ele>
        <time>2011-06-25T16:55:42Z</time>
      </trkpt>
      <trkpt lat="46.32889" lon="-0.31679">
        <ele>87.235</ele>
        <time>2011-06-25T16:55:43Z</time>
      </trkpt>
      <trkpt lat="46.3289" lon="-0.3168">
        <ele>87.2572</ele>
        <time>2011-06-25T16:55:44Z</time>
      </trkpt>
      <trkpt lat="46.32891" lon="-0.31682">
        <ele>87.2779</ele>
        <time>2011-06-25T16:55:45Z</time>
      </trkpt>
      <trkpt lat="46.32892" lon="-0.31683">
        <ele>87.3011</ele>
        <time>2011-06-25T16:55:46Z</time>
      </trkpt>
      <trkpt lat="46.32893" lon="-0.31684">
        <ele>87.3252</ele>
        <time>2011-06-25T16:55:47Z</time>
      </trkpt>
      <trkpt lat="46.32893" lon="-0.31685">
        <ele>87.3484</ele>
        <time>2011-06-25T16:55:48Z</time>
      </trkpt>
      <trkpt lat="46.32894" lon="-0.31687">
        <ele>87.3644</ele>
        <time>2011-06-25T16:55:49Z</time>
      </trkpt>
      <trkpt lat="46.32895" lon="-0.31688">
        <ele>87.3766</ele>
        <time>2011-06-25T16:55:50Z</time>
      </trkpt>
      <trkpt lat="46.32896" lon="-0.3169">
        <ele>87.3886</ele>
        <time>2011-06-25T16:55:51Z</time>
      </trkpt>
      <trkpt lat="46.32897" lon="-0.31691">
        <ele>87.3998</ele>
        <time>2011-06-25T16:55:52Z</time>
      </trkpt>
      <trkpt lat="46.32897" lon="-0.31693">
        <ele>87.4118</ele>
        <time>2011-06-25T16:55:53Z</time>
      </trkpt>
      <trkpt lat="46.32898" lon="-0.31694">
        <ele>87.4247</ele>
        <time>2011-06-25T16:55:54Z</time>
      </trkpt>
      <trkpt lat="46.32898" lon="-0.31696">
        <ele>87.4386</ele>
        <time>2011-06-25T16:55:55Z</time>
      </trkpt>
      <trkpt lat="46.32899" lon="-0.31698">
        <ele>87.4562</ele>
        <time>2011-06-25T16:55:56Z</time>
      </trkpt>
      <trkpt lat="46.329" lon="-0.31699">
        <ele>87.4714</ele>
        <time>2011-06-25T16:55:57Z</time>
      </trkpt>
      <trkpt lat="46.32901" lon="-0.31701">
        <ele>87.4857</ele>
        <time>2011-06-25T16:55:58Z</time>
      </trkpt>
      <trkpt lat="46.32901" lon="-0.31703">
        <ele>87.4994</ele>
        <time>2011-06-25T16:55:59Z</time>
      </trkpt>
      <trkpt lat="46.32902" lon="-0.31704">
        <ele>87.5116</ele>
        <time>2011-06-25T16:56:00Z</time>
      </trkpt>
      <trkpt lat="46.32902" lon="-0.31706">
        <ele>87.5226</ele>
        <time>2011-06-25T16:56:01Z</time>
      </trkpt>
      <trkpt lat="46.32902" lon="-0.31707">
        <ele>87.5323</ele>
        <time>2011-06-25T16:56:02Z</time>
      </trkpt>
      <trkpt lat="46.32903" lon="-0.31708">
        <ele>87.5406</ele>
        <time>2011-06-25T16:56:03Z</time>
      </trkpt>
      <trkpt lat="46.32903" lon="-0.3171">
        <ele>87.5515</ele>
        <time>2011-06-25T16:56:05Z</time>
      </trkpt>
      <trkpt lat="46.32903" lon="-0.31712">
        <ele>87.5673</ele>
        <time>2011-06-25T16:56:05Z</time>
      </trkpt>
      <trkpt lat="46.32904" lon="-0.31714">
        <ele>87.5905</ele>
        <time>2011-06-25T16:56:06Z</time>
      </trkpt>
      <trkpt lat="46.32904" lon="-0.31716">
        <ele>87.6121</ele>
        <time>2011-06-25T16:56:07Z</time>
      </trkpt>
      <trkpt lat="46.32905" lon="-0.31718">
        <ele>87.635</ele>
        <time>2011-06-25T16:56:08Z</time>
      </trkpt>
      <trkpt lat="46.32906" lon="-0.3172">
        <ele>87.6574</ele>
        <time>2011-06-25T16:56:09Z</time>
      </trkpt>
      <trkpt lat="46.32906" lon="-0.31722">
        <ele>87.6793</ele>
        <time>2011-06-25T16:56:10Z</time>
      </trkpt>
      <trkpt lat="46.32907" lon="-0.31724">
        <ele>87.7001</ele>
        <time>2011-06-25T16:56:11Z</time>
      </trkpt>
      <trkpt lat="46.32908" lon="-0.31726">
        <ele>87.7239</ele>
        <time>2011-06-25T16:56:12Z</time>
      </trkpt>
      <trkpt lat="46.32908" lon="-0.31728">
        <ele>87.7454</ele>
        <time>2011-06-25T16:56:14Z</time>
      </trkpt>
      <trkpt lat="46.32909" lon="-0.3173">
        <ele>87.7665</ele>
        <time>2011-06-25T16:56:15Z</time>
      </trkpt>
      <trkpt lat="46.32909" lon="-0.31732">
        <ele>87.789</ele>
        <time>2011-06-25T16:56:16Z</time>
      </trkpt>
      <trkpt lat="46.3291" lon="-0.31733">
        <ele>87.8145</ele>
        <time>2011-06-25T16:56:17Z</time>
      </trkpt>
      <trkpt lat="46.32911" lon="-0.31735">
        <ele>87.8399</ele>
        <time>2011-06-25T16:56:18Z</time>
      </trkpt>
      <trkpt lat="46.32911" lon="-0.31736">
        <ele>87.8643</ele>
        <time>2011-06-25T16:56:19Z</time>
      </trkpt>
      <trkpt lat="46.32911" lon="-0.31738">
        <ele>87.8877</ele>
        <time>2011-06-25T16:56:19Z</time>
      </trkpt>
      <trkpt lat="46.32912" lon="-0.3174">
        <ele>87.91</ele>
        <time>2011-06-25T16:56:21Z</time>
      </trkpt>
      <trkpt lat="46.32912" lon="-0.31742">
        <ele>87.9314</ele>
        <time>2011-06-25T16:56:22Z</time>
      </trkpt>
      <trkpt lat="46.32913" lon="-0.31744">
        <ele>87.9525</ele>
        <time>2011-06-25T16:56:22Z</time>
      </trkpt>
      <trkpt lat="46.32913" lon="-0.31745">
        <ele>87.9755</ele>
        <time>2011-06-25T16:56:24Z</time>
      </trkpt>
      <trkpt lat="46.32914" lon="-0.31747">
        <ele>88.0004</ele>
        <time>2011-06-25T16:56:25Z</time>
      </trkpt>
      <trkpt lat="46.32914" lon="-0.31749">
        <ele>88.0251</ele>
        <time>2011-06-25T16:56:26Z</time>
      </trkpt>
      <trkpt lat="46.32914" lon="-0.31751">
        <ele>88.0481</ele>
        <time>2011-06-25T16:56:27Z</time>
      </trkpt>
      <trkpt lat="46.32915" lon="-0.31752">
        <ele>88.068</ele>
        <time>2011-06-25T16:56:27Z</time>
      </trkpt>
      <trkpt lat="46.32916" lon="-0.31754">
        <ele>88.0818</ele>
        <time>2011-06-25T16:56:29Z</time>
      </trkpt>
      <trkpt lat="46.32916" lon="-0.31755">
        <ele>88.0931</ele>
        <time>2011-06-25T16:56:29Z</time>
      </trkpt>
      <trkpt lat="46.32917" lon="-0.31756">
        <ele>88.1038</ele>
        <time>2011-06-25T16:56:31Z</time>
      </trkpt>
      <trkpt lat="46.32918" lon="-0.31758">
        <ele>88.1139</ele>
        <time>2011-06-25T16:56:31Z</time>
      </trkpt>
      <trkpt lat="46.32919" lon="-0.31759">
        <ele>88.1238</ele>
        <time>2011-06-25T16:56:32Z</time>
      </trkpt>
      <trkpt lat="46.32919" lon="-0.31761">
        <ele>88.133</ele>
        <time>2011-06-25T16:56:33Z</time>
      </trkpt>
      <trkpt lat="46.3292" lon="-0.31763">
        <ele>88.1419</ele>
        <time>2011-06-25T16:56:34Z</time>
      </trkpt>
      <trkpt lat="46.32921" lon="-0.31765">
        <ele>88.1551</ele>
        <time>2011-06-25T16:56:35Z</time>
      </trkpt>
      <trkpt lat="46.32921" lon="-0.31767">
        <ele>88.1679</ele>
        <time>2011-06-25T16:56:36Z</time>
      </trkpt>
      <trkpt lat="46.32922" lon="-0.31769">
        <ele>88.1816</ele>
        <time>2011-06-25T16:56:37Z</time>
      </trkpt>
      <trkpt lat="46.32922" lon="-0.3177">
        <ele>88.1963</ele>
        <time>2011-06-25T16:56:38Z</time>
      </trkpt>
      <trkpt lat="46.32924" lon="-0.31772">
        <ele>88.2145</ele>
        <time>2011-06-25T16:56:40Z</time>
      </trkpt>
      <trkpt lat="46.32924" lon="-0.31773">
        <ele>88.2332</ele>
        <time>2011-06-25T16:56:41Z</time>
      </trkpt>
      <trkpt lat="46.32925" lon="-0.31775">
        <ele>88.2534</ele>
        <time>2011-06-25T16:56:42Z</time>
      </trkpt>
      <trkpt lat="46.32925" lon="-0.31776">
        <ele>88.2795</ele>
        <time>2011-06-25T16:56:43Z</time>
      </trkpt>
      <trkpt lat="46.32926" lon="-0.31778">
        <ele>88.3058</ele>
        <time>2011-06-25T16:56:43Z</time>
      </trkpt>
      <trkpt lat="46.32927" lon="-0.31779">
        <ele>88.3298</ele>
        <time>2011-06-25T16:56:44Z</time>
      </trkpt>
      <trkpt lat="46.32928" lon="-0.3178">
        <ele>88.3544</ele>
        <time>2011-06-25T16:56:46Z</time>
      </trkpt>
      <trkpt lat="46.32929" lon="-0.31782">
        <ele>88.3768</ele>
        <time>2011-06-25T16:56:47Z</time>
      </trkpt>
      <trkpt lat="46.32929" lon="-0.31783">
        <ele>88.4014</ele>
        <time>2011-06-25T16:56:48Z</time>
      </trkpt>
      <trkpt lat="46.3293" lon="-0.31785">
        <ele>88.4248</ele>
        <time>2011-06-25T16:56:48Z</time>
      </trkpt>
      <trkpt lat="46.3293" lon="-0.31786">
        <ele>88.4448</ele>
        <time>2011-06-25T16:56:50Z</time>
      </trkpt>
      <trkpt lat="46.32931" lon="-0.31788">
        <ele>88.4617</ele>
        <time>2011-06-25T16:56:50Z</time>
      </trkpt>
      <trkpt lat="46.32932" lon="-0.31789">
        <ele>88.477</ele>
        <time>2011-06-25T16:56:51Z</time>
      </trkpt>
      <trkpt lat="46.32932" lon="-0.3179">
        <ele>88.485</ele>
        <time>2011-06-25T16:56:52Z</time>
      </trkpt>
      <trkpt lat="46.32933" lon="-0.31792">
        <ele>88.4906</ele>
        <time>2011-06-25T16:56:54Z</time>
      </trkpt>
      <trkpt lat="46.32933" lon="-0.31793">
        <ele>88.4946</ele>
        <time>2011-06-25T16:56:55Z</time>
      </trkpt>
      <trkpt lat="46.32934" lon="-0.31794">
        <ele>88.4969</ele>
        <time>2011-06-25T16:56:55Z</time>
      </trkpt>
      <trkpt lat="46.32935" lon="-0.31796">
        <ele>88.501</ele>
        <time>2011-06-25T16:56:56Z</time>
      </trkpt>
      <trkpt lat="46.32935" lon="-0.31797">
        <ele>88.5056</ele>
        <time>2011-06-25T16:56:57Z</time>
      </trkpt>
      <trkpt lat="46.32936" lon="-0.31799">
        <ele>88.5104</ele>
        <time>2011-06-25T16:56:59Z</time>
      </trkpt>
      <trkpt lat="46.32937" lon="-0.318">
        <ele>88.5179</ele>
        <time>2011-06-25T16:57:00Z</time>
      </trkpt>
      <trkpt lat="46.32938" lon="-0.31802">
        <ele>88.5255</ele>
        <time>2011-06-25T16:57:01Z</time>
      </trkpt>
      <trkpt lat="46.32938" lon="-0.31803">
        <ele>88.531</ele>
        <time>2011-06-25T16:57:02Z</time>
      </trkpt>
      <trkpt lat="46.32939" lon="-0.31804">
        <ele>88.5354</ele>
        <time>2011-06-25T16:57:03Z</time>
      </trkpt>
      <trkpt lat="46.3294" lon="-0.31806">
        <ele>88.5373</ele>
        <time>2011-06-25T16:57:03Z</time>
      </trkpt>
      <trkpt lat="46.32941" lon="-0.31807">
        <ele>88.5346</ele>
        <time>2011-06-25T16:57:05Z</time>
      </trkpt>
      <trkpt lat="46.32942" lon="-0.31809">
        <ele>88.5319</ele>
        <time>2011-06-25T16:57:05Z</time>
      </trkpt>
      <trkpt lat="46.32943" lon="-0.31811">
        <ele>88.529</ele>
        <time>2011-06-25T16:57:07Z</time>
      </trkpt>
      <trkpt lat="46.32944" lon="-0.31812">
        <ele>88.5266</ele>
        <time>2011-06-25T16:57:07Z</time>
      </trkpt>
      <trkpt lat="46.32945" lon="-0.31814">
        <ele>88.5246</ele>
        <time>2011-06-25T16:57:09Z</time>
      </trkpt>
      <trkpt lat="46.32946" lon="-0.31815">
        <ele>88.5271</ele>
        <time>2011-06-25T16:57:09Z</time>
      </trkpt>
      <trkpt lat="46.32947" lon="-0.31817">
        <ele>88.527</ele>
        <time>2011-06-25T16:57:10Z</time>
      </trkpt>
      <trkpt lat="46.32948" lon="-0.31819">
        <ele>88.5303</ele>
        <time>2011-06-25T16:57:11Z</time>
      </trkpt>
      <trkpt lat="46.32949" lon="-0.31821">
        <ele>88.5344</ele>
        <time>2011-06-25T16:57:12Z</time>
      </trkpt>
      <trkpt lat="46.32949" lon="-0.31823">
        <ele>88.5422</ele>
        <time>2011-06-25T16:57:13Z</time>
      </trkpt>
      <trkpt lat="46.32951" lon="-0.31825">
        <ele>88.549</ele>
        <time>2011-06-25T16:57:15Z</time>
      </trkpt>
      <trkpt lat="46.32952" lon="-0.31827">
        <ele>88.5538</ele>
        <time>2011-06-25T16:57:16Z</time>
      </trkpt>
      <trkpt lat="46.32953" lon="-0.31828">
        <ele>88.5598</ele>
        <time>2011-06-25T16:57:16Z</time>
      </trkpt>
      <trkpt lat="46.32954" lon="-0.3183">
        <ele>88.5678</ele>
        <time>2011-06-25T16:57:17Z</time>
      </trkpt>
      <trkpt lat="46.32955" lon="-0.31832">
        <ele>88.5751</ele>
        <time>2011-06-25T16:57:18Z</time>
      </trkpt>
      <trkpt lat="46.32956" lon="-0.31833">
        <ele>88.5818</ele>
        <time>2011-06-25T16:57:19Z</time>
      </trkpt>
      <trkpt lat="46.32957" lon="-0.31834">
        <ele>88.5885</ele>
        <time>2011-06-25T16:57:20Z</time>
      </trkpt>
      <trkpt lat="46.32958" lon="-0.31836">
        <ele>88.596</ele>
        <time>2011-06-25T16:57:21Z</time>
      </trkpt>
      <trkpt lat="46.32959" lon="-0.31837">
        <ele>88.6083</ele>
        <time>2011-06-25T16:57:23Z</time>
      </trkpt>
      <trkpt lat="46.32959" lon="-0.31839">
        <ele>88.6212</ele>
        <time>2011-06-25T16:57:23Z</time>
      </trkpt>
      <trkpt lat="46.32961" lon="-0.31841">
        <ele>88.6405</ele>
        <time>2011-06-25T16:57:24Z</time>
      </trkpt>
      <trkpt lat="46.32961" lon="-0.31842">
        <ele>88.6651</ele>
        <time>2011-06-25T16:57:26Z</time>
      </trkpt>
      <trkpt lat="46.32962" lon="-0.31844">
        <ele>88.6946</ele>
        <time>2011-06-25T16:57:26Z</time>
      </trkpt>
      <trkpt lat="46.32963" lon="-0.31845">
        <ele>88.7286</ele>
        <time>2011-06-25T16:57:27Z</time>
      </trkpt>
      <trkpt lat="46.32964" lon="-0.31847">
        <ele>88.7658</ele>
        <time>2011-06-25T16:57:28Z</time>
      </trkpt>
      <trkpt lat="46.32964" lon="-0.31849">
        <ele>88.8012</ele>
        <time>2011-06-25T16:57:29Z</time>
      </trkpt>
      <trkpt lat="46.32965" lon="-0.3185">
        <ele>88.8343</ele>
        <time>2011-06-25T16:57:30Z</time>
      </trkpt>
      <trkpt lat="46.32966" lon="-0.31851">
        <ele>88.8656</ele>
        <time>2011-06-25T16:57:31Z</time>
      </trkpt>
      <trkpt lat="46.32967" lon="-0.31853">
        <ele>88.8981</ele>
        <time>2011-06-25T16:57:33Z</time>
      </trkpt>
      <trkpt lat="46.32967" lon="-0.31855">
        <ele>88.9296</ele>
        <time>2011-06-25T16:57:33Z</time>
      </trkpt>
      <trkpt lat="46.32968" lon="-0.31856">
        <ele>88.9602</ele>
        <time>2011-06-25T16:57:34Z</time>
      </trkpt>
      <trkpt lat="46.32969" lon="-0.31858">
        <ele>88.9872</ele>
        <time>2011-06-25T16:57:36Z</time>
      </trkpt>
      <trkpt lat="46.32969" lon="-0.31859">
        <ele>89.0129</ele>
        <time>2011-06-25T16:57:36Z</time>
      </trkpt>
      <trkpt lat="46.3297" lon="-0.31861">
        <ele>89.0357</ele>
        <time>2011-06-25T16:57:37Z</time>
      </trkpt>
      <trkpt lat="46.3297" lon="-0.31863">
        <ele>89.0581</ele>
        <time>2011-06-25T16:57:38Z</time>
      </trkpt>
      <trkpt lat="46.32971" lon="-0.31865">
        <ele>89.0798</ele>
        <time>2011-06-25T16:57:39Z</time>
      </trkpt>
      <trkpt lat="46.32972" lon="-0.31866">
        <ele>89.0965</ele>
        <time>2011-06-25T16:57:40Z</time>
      </trkpt>
      <trkpt lat="46.32973" lon="-0.31868">
        <ele>89.1074</ele>
        <time>2011-06-25T16:57:41Z</time>
      </trkpt>
      <trkpt lat="46.32974" lon="-0.31869">
        <ele>89.1086</ele>
        <time>2011-06-25T16:57:42Z</time>
      </trkpt>
      <trkpt lat="46.32975" lon="-0.31871">
        <ele>89.0989</ele>
        <time>2011-06-25T16:57:43Z</time>
      </trkpt>
      <trkpt lat="46.32975" lon="-0.31873">
        <ele>89.0871</ele>
        <time>2011-06-25T16:57:44Z</time>
      </trkpt>
      <trkpt lat="46.32976" lon="-0.31874">
        <ele>89.074</ele>
        <time>2011-06-25T16:57:46Z</time>
      </trkpt>
      <trkpt lat="46.32977" lon="-0.31876">
        <ele>89.0639</ele>
        <time>2011-06-25T16:57:47Z</time>
      </trkpt>
      <trkpt lat="46.32977" lon="-0.31878">
        <ele>89.0592</ele>
        <time>2011-06-25T16:57:48Z</time>
      </trkpt>
      <trkpt lat="46.32977" lon="-0.3188">
        <ele>89.0593</ele>
        <time>2011-06-25T16:57:48Z</time>
      </trkpt>
      <trkpt lat="46.32978" lon="-0.31881">
        <ele>89.0654</ele>
        <time>2011-06-25T16:57:49Z</time>
      </trkpt>
      <trkpt lat="46.32979" lon="-0.31884">
        <ele>89.0626</ele>
        <time>2011-06-25T16:57:50Z</time>
      </trkpt>
      <trkpt lat="46.3298" lon="-0.31886">
        <ele>89.0512</ele>
        <time>2011-06-25T16:57:51Z</time>
      </trkpt>
      <trkpt lat="46.3298" lon="-0.31888">
        <ele>89.0348</ele>
        <time>2011-06-25T16:57:52Z</time>
      </trkpt>
      <trkpt lat="46.3298" lon="-0.3189">
        <ele>89.0135</ele>
        <time>2011-06-25T16:57:54Z</time>
      </trkpt>
      <trkpt lat="46.32981" lon="-0.31892">
        <ele>88.9906</ele>
        <time>2011-06-25T16:57:55Z</time>
      </trkpt>
      <trkpt lat="46.32982" lon="-0.31894">
        <ele>88.9677</ele>
        <time>2011-06-25T16:57:55Z</time>
      </trkpt>
      <trkpt lat="46.32982" lon="-0.31896">
        <ele>88.9419</ele>
        <time>2011-06-25T16:57:56Z</time>
      </trkpt>
      <trkpt lat="46.32982" lon="-0.31898">
        <ele>88.9162</ele>
        <time>2011-06-25T16:57:57Z</time>
      </trkpt>
      <trkpt lat="46.32983" lon="-0.319">
        <ele>88.8927</ele>
        <time>2011-06-25T16:57:59Z</time>
      </trkpt>
      <trkpt lat="46.32983" lon="-0.31902">
        <ele>88.8679</ele>
        <time>2011-06-25T16:57:59Z</time>
      </trkpt>
      <trkpt lat="46.32984" lon="-0.31904">
        <ele>88.8433</ele>
        <time>2011-06-25T16:58:01Z</time>
      </trkpt>
      <trkpt lat="46.32985" lon="-0.31906">
        <ele>88.8198</ele>
        <time>2011-06-25T16:58:01Z</time>
      </trkpt>
      <trkpt lat="46.32985" lon="-0.31907">
        <ele>88.7959</ele>
        <time>2011-06-25T16:58:02Z</time>
      </trkpt>
      <trkpt lat="46.32986" lon="-0.3191">
        <ele>88.7689</ele>
        <time>2011-06-25T16:58:04Z</time>
      </trkpt>
      <trkpt lat="46.32986" lon="-0.31912">
        <ele>88.7437</ele>
        <time>2011-06-25T16:58:04Z</time>
      </trkpt>
      <trkpt lat="46.32986" lon="-0.31914">
        <ele>88.7202</ele>
        <time>2011-06-25T16:58:05Z</time>
      </trkpt>
      <trkpt lat="46.32987" lon="-0.31916">
        <ele>88.6986</ele>
        <time>2011-06-25T16:58:06Z</time>
      </trkpt>
      <trkpt lat="46.32987" lon="-0.31918">
        <ele>88.6741</ele>
        <time>2011-06-25T16:58:08Z</time>
      </trkpt>
      <trkpt lat="46.32987" lon="-0.3192">
        <ele>88.6469</ele>
        <time>2011-06-25T16:58:08Z</time>
      </trkpt>
      <trkpt lat="46.32988" lon="-0.31922">
        <ele>88.6206</ele>
        <time>2011-06-25T16:58:09Z</time>
      </trkpt>
      <trkpt lat="46.32988" lon="-0.31924">
        <ele>88.595</ele>
        <time>2011-06-25T16:58:10Z</time>
      </trkpt>
      <trkpt lat="46.32988" lon="-0.31926">
        <ele>88.5719</ele>
        <time>2011-06-25T16:58:11Z</time>
      </trkpt>
      <trkpt lat="46.32989" lon="-0.31928">
        <ele>88.5483</ele>
        <time>2011-06-25T16:58:12Z</time>
      </trkpt>
      <trkpt lat="46.32989" lon="-0.3193">
        <ele>88.5264</ele>
        <time>2011-06-25T16:58:14Z</time>
      </trkpt>
      <trkpt lat="46.32989" lon="-0.31933">
        <ele>88.5102</ele>
        <time>2011-06-25T16:58:14Z</time>
      </trkpt>
      <trkpt lat="46.3299" lon="-0.31935">
        <ele>88.4988</ele>
        <time>2011-06-25T16:58:15Z</time>
      </trkpt>
      <trkpt lat="46.3299" lon="-0.31937">
        <ele>88.4925</ele>
        <time>2011-06-25T16:58:16Z</time>
      </trkpt>
      <trkpt lat="46.3299" lon="-0.31939">
        <ele>88.4912</ele>
        <time>2011-06-25T16:58:17Z</time>
      </trkpt>
      <trkpt lat="46.3299" lon="-0.31941">
        <ele>88.4885</ele>
        <time>2011-06-25T16:58:19Z</time>
      </trkpt>
      <trkpt lat="46.3299" lon="-0.31943">
        <ele>88.487</ele>
        <time>2011-06-25T16:58:19Z</time>
      </trkpt>
      <trkpt lat="46.3299" lon="-0.31945">
        <ele>88.4868</ele>
        <time>2011-06-25T16:58:20Z</time>
      </trkpt>
      <trkpt lat="46.32991" lon="-0.31947">
        <ele>88.4841</ele>
        <time>2011-06-25T16:58:22Z</time>
      </trkpt>
      <trkpt lat="46.32991" lon="-0.31949">
        <ele>88.4802</ele>
        <time>2011-06-25T16:58:22Z</time>
      </trkpt>
      <trkpt lat="46.32991" lon="-0.31951">
        <ele>88.4768</ele>
        <time>2011-06-25T16:58:24Z</time>
      </trkpt>
      <trkpt lat="46.3299" lon="-0.31953">
        <ele>88.4743</ele>
        <time>2011-06-25T16:58:25Z</time>
      </trkpt>
      <trkpt lat="46.3299" lon="-0.31955">
        <ele>88.4728</ele>
        <time>2011-06-25T16:58:26Z</time>
      </trkpt>
      <trkpt lat="46.3299" lon="-0.31956">
        <ele>88.4656</ele>
        <time>2011-06-25T16:58:27Z</time>
      </trkpt>
      <trkpt lat="46.3299" lon="-0.31958">
        <ele>88.4595</ele>
        <time>2011-06-25T16:58:28Z</time>
      </trkpt>
      <trkpt lat="46.32991" lon="-0.3196">
        <ele>88.4554</ele>
        <time>2011-06-25T16:58:28Z</time>
      </trkpt>
      <trkpt lat="46.32991" lon="-0.31962">
        <ele>88.4489</ele>
        <time>2011-06-25T16:58:30Z</time>
      </trkpt>
      <trkpt lat="46.32991" lon="-0.31964">
        <ele>88.437</ele>
        <time>2011-06-25T16:58:30Z</time>
      </trkpt>
      <trkpt lat="46.3299" lon="-0.31966">
        <ele>88.4196</ele>
        <time>2011-06-25T16:58:32Z</time>
      </trkpt>
      <trkpt lat="46.32991" lon="-0.31968">
        <ele>88.4025</ele>
        <time>2011-06-25T16:58:33Z</time>
      </trkpt>
      <trkpt lat="46.32991" lon="-0.3197">
        <ele>88.3807</ele>
        <time>2011-06-25T16:58:34Z</time>
      </trkpt>
      <trkpt lat="46.32991" lon="-0.31972">
        <ele>88.355</ele>
        <time>2011-06-25T16:58:35Z</time>
      </trkpt>
      <trkpt lat="46.32991" lon="-0.31974">
        <ele>88.3279</ele>
        <time>2011-06-25T16:58:35Z</time>
      </trkpt>
      <trkpt lat="46.32991" lon="-0.31976">
        <ele>88.2997</ele>
        <time>2011-06-25T16:58:36Z</time>
      </trkpt>
      <trkpt lat="46.32991" lon="-0.31978">
        <ele>88.2701</ele>
        <time>2011-06-25T16:58:37Z</time>
      </trkpt>
      <trkpt lat="46.32991" lon="-0.3198">
        <ele>88.2378</ele>
        <time>2011-06-25T16:58:39Z</time>
      </trkpt>
      <trkpt lat="46.32991" lon="-0.31982">
        <ele>88.2022</ele>
        <time>2011-06-25T16:58:40Z</time>
      </trkpt>
      <trkpt lat="46.32991" lon="-0.31983">
        <ele>88.1657</ele>
        <time>2011-06-25T16:58:40Z</time>
      </trkpt>
      <trkpt lat="46.32992" lon="-0.31985">
        <ele>88.1298</ele>
        <time>2011-06-25T16:58:41Z</time>
      </trkpt>
      <trkpt lat="46.32992" lon="-0.31987">
        <ele>88.0939</ele>
        <time>2011-06-25T16:58:43Z</time>
      </trkpt>
      <trkpt lat="46.32992" lon="-0.31988">
        <ele>88.0552</ele>
        <time>2011-06-25T16:58:43Z</time>
      </trkpt>
      <trkpt lat="46.32992" lon="-0.3199">
        <ele>88.0175</ele>
        <time>2011-06-25T16:58:44Z</time>
      </trkpt>
      <trkpt lat="46.32993" lon="-0.31991">
        <ele>87.9756</ele>
        <time>2011-06-25T16:58:45Z</time>
      </trkpt>
      <trkpt lat="46.32993" lon="-0.31993">
        <ele>87.932</ele>
        <time>2011-06-25T16:58:47Z</time>
      </trkpt>
      <trkpt lat="46.32992" lon="-0.31995">
        <ele>87.886</ele>
        <time>2011-06-25T16:58:48Z</time>
      </trkpt>
      <trkpt lat="46.32992" lon="-0.31996">
        <ele>87.8412</ele>
        <time>2011-06-25T16:58:49Z</time>
      </trkpt>
      <trkpt lat="46.32993" lon="-0.31998">
        <ele>87.7974</ele>
        <time>2011-06-25T16:58:50Z</time>
      </trkpt>
      <trkpt lat="46.32993" lon="-0.32">
        <ele>87.755</ele>
        <time>2011-06-25T16:58:51Z</time>
      </trkpt>
      <trkpt lat="46.32993" lon="-0.32002">
        <ele>87.7137</ele>
        <time>2011-06-25T16:58:52Z</time>
      </trkpt>
      <trkpt lat="46.32993" lon="-0.32003">
        <ele>87.6733</ele>
        <time>2011-06-25T16:58:53Z</time>
      </trkpt>
      <trkpt lat="46.32993" lon="-0.32005">
        <ele>87.6336</ele>
        <time>2011-06-25T16:58:54Z</time>
      </trkpt>
      <trkpt lat="46.32994" lon="-0.32007">
        <ele>87.593</ele>
        <time>2011-06-25T16:58:54Z</time>
      </trkpt>
      <trkpt lat="46.32994" lon="-0.32009">
        <ele>87.5513</ele>
        <time>2011-06-25T16:58:56Z</time>
      </trkpt>
      <trkpt lat="46.32994" lon="-0.3201">
        <ele>87.5094</ele>
        <time>2011-06-25T16:58:57Z</time>
      </trkpt>
      <trkpt lat="46.32994" lon="-0.32012">
        <ele>87.4661</ele>
        <time>2011-06-25T16:58:58Z</time>
      </trkpt>
      <trkpt lat="46.32995" lon="-0.32014">
        <ele>87.4223</ele>
        <time>2011-06-25T16:58:58Z</time>
      </trkpt>
      <trkpt lat="46.32995" lon="-0.32016">
        <ele>87.3768</ele>
        <time>2011-06-25T16:59:00Z</time>
      </trkpt>
      <trkpt lat="46.32995" lon="-0.32017">
        <ele>87.3309</ele>
        <time>2011-06-25T16:59:01Z</time>
      </trkpt>
      <trkpt lat="46.32996" lon="-0.32019">
        <ele>87.281</ele>
        <time>2011-06-25T16:59:02Z</time>
      </trkpt>
      <trkpt lat="46.32996" lon="-0.32021">
        <ele>87.232</ele>
        <time>2011-06-25T16:59:03Z</time>
      </trkpt>
      <trkpt lat="46.32996" lon="-0.32023">
        <ele>87.181</ele>
        <time>2011-06-25T16:59:04Z</time>
      </trkpt>
      <trkpt lat="46.32997" lon="-0.32025">
        <ele>87.1314</ele>
        <time>2011-06-25T16:59:05Z</time>
      </trkpt>
      <trkpt lat="46.32997" lon="-0.32026">
        <ele>87.0804</ele>
        <time>2011-06-25T16:59:06Z</time>
      </trkpt>
      <trkpt lat="46.32997" lon="-0.32028">
        <ele>87.0263</ele>
        <time>2011-06-25T16:59:07Z</time>
      </trkpt>
      <trkpt lat="46.32997" lon="-0.3203">
        <ele>86.9695</ele>
        <time>2011-06-25T16:59:08Z</time>
      </trkpt>
      <trkpt lat="46.32998" lon="-0.32032">
        <ele>86.9101</ele>
        <time>2011-06-25T16:59:08Z</time>
      </trkpt>
      <trkpt lat="46.32998" lon="-0.32034">
        <ele>86.8486</ele>
        <time>2011-06-25T16:59:09Z</time>
      </trkpt>
      <trkpt lat="46.32998" lon="-0.32037">
        <ele>86.784</ele>
        <time>2011-06-25T16:59:11Z</time>
      </trkpt>
      <trkpt lat="46.32998" lon="-0.32039">
        <ele>86.7208</ele>
        <time>2011-06-25T16:59:11Z</time>
      </trkpt>
      <trkpt lat="46.32998" lon="-0.32041">
        <ele>86.6587</ele>
        <time>2011-06-25T16:59:12Z</time>
      </trkpt>
      <trkpt lat="46.32998" lon="-0.32043">
        <ele>86.598</ele>
        <time>2011-06-25T16:59:14Z</time>
      </trkpt>
      <trkpt lat="46.32999" lon="-0.32045">
        <ele>86.5386</ele>
        <time>2011-06-25T16:59:15Z</time>
      </trkpt>
      <trkpt lat="46.32999" lon="-0.32047">
        <ele>86.4806</ele>
        <time>2011-06-25T16:59:16Z</time>
      </trkpt>
      <trkpt lat="46.32999" lon="-0.32049">
        <ele>86.4243</ele>
        <time>2011-06-25T16:59:17Z</time>
      </trkpt>
      <trkpt lat="46.32999" lon="-0.32051">
        <ele>86.37</ele>
        <time>2011-06-25T16:59:18Z</time>
      </trkpt>
      <trkpt lat="46.32999" lon="-0.32053">
        <ele>86.3151</ele>
        <time>2011-06-25T16:59:19Z</time>
      </trkpt>
      <trkpt lat="46.32999" lon="-0.32054">
        <ele>86.2584</ele>
        <time>2011-06-25T16:59:20Z</time>
      </trkpt>
      <trkpt lat="46.32999" lon="-0.32056">
        <ele>86.1999</ele>
        <time>2011-06-25T16:59:21Z</time>
      </trkpt>
      <trkpt lat="46.33" lon="-0.32058">
        <ele>86.1421</ele>
        <time>2011-06-25T16:59:22Z</time>
      </trkpt>
      <trkpt lat="46.33" lon="-0.3206">
        <ele>86.0836</ele>
        <time>2011-06-25T16:59:23Z</time>
      </trkpt>
      <trkpt lat="46.33" lon="-0.32061">
        <ele>86.0228</ele>
        <time>2011-06-25T16:59:24Z</time>
      </trkpt>
      <trkpt lat="46.33" lon="-0.32062">
        <ele>85.9616</ele>
        <time>2011-06-25T16:59:25Z</time>
      </trkpt>
      <trkpt lat="46.33" lon="-0.32064">
        <ele>85.9008</ele>
        <time>2011-06-25T16:59:26Z</time>
      </trkpt>
      <trkpt lat="46.33001" lon="-0.32065">
        <ele>85.8413</ele>
        <time>2011-06-25T16:59:27Z</time>
      </trkpt>
      <trkpt lat="46.33001" lon="-0.32067">
        <ele>85.7844</ele>
        <time>2011-06-25T16:59:28Z</time>
      </trkpt>
      <trkpt lat="46.33001" lon="-0.32069">
        <ele>85.7286</ele>
        <time>2011-06-25T16:59:29Z</time>
      </trkpt>
      <trkpt lat="46.33001" lon="-0.3207">
        <ele>85.6725</ele>
        <time>2011-06-25T16:59:30Z</time>
      </trkpt>
      <trkpt lat="46.33001" lon="-0.32072">
        <ele>85.6174</ele>
        <time>2011-06-25T16:59:31Z</time>
      </trkpt>
      <trkpt lat="46.33001" lon="-0.32074">
        <ele>85.5636</ele>
        <time>2011-06-25T16:59:32Z</time>
      </trkpt>
      <trkpt lat="46.33001" lon="-0.32076">
        <ele>85.5078</ele>
        <time>2011-06-25T16:59:33Z</time>
      </trkpt>
      <trkpt lat="46.33001" lon="-0.32078">
        <ele>85.4527</ele>
        <time>2011-06-25T16:59:34Z</time>
      </trkpt>
      <trkpt lat="46.33001" lon="-0.32079">
        <ele>85.3989</ele>
        <time>2011-06-25T16:59:35Z</time>
      </trkpt>
      <trkpt lat="46.33001" lon="-0.32081">
        <ele>85.3464</ele>
        <time>2011-06-25T16:59:36Z</time>
      </trkpt>
      <trkpt lat="46.33001" lon="-0.32083">
        <ele>85.2948</ele>
        <time>2011-06-25T16:59:36Z</time>
      </trkpt>
      <trkpt lat="46.33002" lon="-0.32084">
        <ele>85.2442</ele>
        <time>2011-06-25T16:59:37Z</time>
      </trkpt>
      <trkpt lat="46.33003" lon="-0.32086">
        <ele>85.195</ele>
        <time>2011-06-25T16:59:38Z</time>
      </trkpt>
      <trkpt lat="46.33003" lon="-0.32087">
        <ele>85.146</ele>
        <time>2011-06-25T16:59:39Z</time>
      </trkpt>
      <trkpt lat="46.33003" lon="-0.32089">
        <ele>85.0973</ele>
        <time>2011-06-25T16:59:41Z</time>
      </trkpt>
      <trkpt lat="46.33004" lon="-0.32091">
        <ele>85.0495</ele>
        <time>2011-06-25T16:59:41Z</time>
      </trkpt>
      <trkpt lat="46.33004" lon="-0.32093">
        <ele>85.001</ele>
        <time>2011-06-25T16:59:42Z</time>
      </trkpt>
      <trkpt lat="46.33005" lon="-0.32095">
        <ele>84.9535</ele>
        <time>2011-06-25T16:59:44Z</time>
      </trkpt>
      <trkpt lat="46.33006" lon="-0.32096">
        <ele>84.9092</ele>
        <time>2011-06-25T16:59:44Z</time>
      </trkpt>
      <trkpt lat="46.33007" lon="-0.32098">
        <ele>84.8679</ele>
        <time>2011-06-25T16:59:46Z</time>
      </trkpt>
      <trkpt lat="46.33007" lon="-0.321">
        <ele>84.8274</ele>
        <time>2011-06-25T16:59:47Z</time>
      </trkpt>
      <trkpt lat="46.33008" lon="-0.32102">
        <ele>84.7877</ele>
        <time>2011-06-25T16:59:47Z</time>
      </trkpt>
      <trkpt lat="46.33008" lon="-0.32104">
        <ele>84.7478</ele>
        <time>2011-06-25T16:59:48Z</time>
      </trkpt>
      <trkpt lat="46.33008" lon="-0.32106">
        <ele>84.708</ele>
        <time>2011-06-25T16:59:49Z</time>
      </trkpt>
      <trkpt lat="46.33009" lon="-0.32108">
        <ele>84.668</ele>
        <time>2011-06-25T16:59:51Z</time>
      </trkpt>
      <trkpt lat="46.33009" lon="-0.3211">
        <ele>84.6288</ele>
        <time>2011-06-25T16:59:51Z</time>
      </trkpt>
      <trkpt lat="46.33009" lon="-0.32112">
        <ele>84.5887</ele>
        <time>2011-06-25T16:59:52Z</time>
      </trkpt>
      <trkpt lat="46.33009" lon="-0.32114">
        <ele>84.5485</ele>
        <time>2011-06-25T16:59:53Z</time>
      </trkpt>
      <trkpt lat="46.3301" lon="-0.32116">
        <ele>84.5095</ele>
        <time>2011-06-25T16:59:54Z</time>
      </trkpt>
      <trkpt lat="46.3301" lon="-0.32118">
        <ele>84.4722</ele>
        <time>2011-06-25T16:59:55Z</time>
      </trkpt>
      <trkpt lat="46.33011" lon="-0.3212">
        <ele>84.434</ele>
        <time>2011-06-25T16:59:56Z</time>
      </trkpt>
      <trkpt lat="46.33011" lon="-0.32123">
        <ele>84.3956</ele>
        <time>2011-06-25T16:59:57Z</time>
      </trkpt>
      <trkpt lat="46.33011" lon="-0.32125">
        <ele>84.3555</ele>
        <time>2011-06-25T16:59:58Z</time>
      </trkpt>
      <trkpt lat="46.33011" lon="-0.32127">
        <ele>84.313</ele>
        <time>2011-06-25T17:00:00Z</time>
      </trkpt>
      <trkpt lat="46.33011" lon="-0.32129">
        <ele>84.2666</ele>
        <time>2011-06-25T17:00:01Z</time>
      </trkpt>
      <trkpt lat="46.33012" lon="-0.32131">
        <ele>84.2178</ele>
        <time>2011-06-25T17:00:02Z</time>
      </trkpt>
      <trkpt lat="46.33011" lon="-0.32133">
        <ele>84.1674</ele>
        <time>2011-06-25T17:00:02Z</time>
      </trkpt>
      <trkpt lat="46.33011" lon="-0.32135">
        <ele>84.1194</ele>
        <time>2011-06-25T17:00:03Z</time>
      </trkpt>
      <trkpt lat="46.33011" lon="-0.32137">
        <ele>84.0741</ele>
        <time>2011-06-25T17:00:04Z</time>
      </trkpt>
      <trkpt lat="46.33011" lon="-0.32139">
        <ele>84.0314</ele>
        <time>2011-06-25T17:00:05Z</time>
      </trkpt>
      <trkpt lat="46.3301" lon="-0.3214">
        <ele>83.9866</ele>
        <time>2011-06-25T17:00:07Z</time>
      </trkpt>
      <trkpt lat="46.33011" lon="-0.32142">
        <ele>83.9426</ele>
        <time>2011-06-25T17:00:08Z</time>
      </trkpt>
      <trkpt lat="46.33011" lon="-0.32144">
        <ele>83.8982</ele>
        <time>2011-06-25T17:00:09Z</time>
      </trkpt>
      <trkpt lat="46.33011" lon="-0.32146">
        <ele>83.8589</ele>
        <time>2011-06-25T17:00:09Z</time>
      </trkpt>
      <trkpt lat="46.33011" lon="-0.32149">
        <ele>83.8197</ele>
        <time>2011-06-25T17:00:11Z</time>
      </trkpt>
      <trkpt lat="46.33012" lon="-0.3215">
        <ele>83.7802</ele>
        <time>2011-06-25T17:00:11Z</time>
      </trkpt>
      <trkpt lat="46.33012" lon="-0.32152">
        <ele>83.7415</ele>
        <time>2011-06-25T17:00:13Z</time>
      </trkpt>
      <trkpt lat="46.33012" lon="-0.32155">
        <ele>83.7025</ele>
        <time>2011-06-25T17:00:14Z</time>
      </trkpt>
      <trkpt lat="46.33013" lon="-0.32156">
        <ele>83.6656</ele>
        <time>2011-06-25T17:00:14Z</time>
      </trkpt>
      <trkpt lat="46.33013" lon="-0.32158">
        <ele>83.6291</ele>
        <time>2011-06-25T17:00:15Z</time>
      </trkpt>
      <trkpt lat="46.33013" lon="-0.3216">
        <ele>83.5947</ele>
        <time>2011-06-25T17:00:16Z</time>
      </trkpt>
      <trkpt lat="46.33013" lon="-0.32162">
        <ele>83.5569</ele>
        <time>2011-06-25T17:00:17Z</time>
      </trkpt>
      <trkpt lat="46.33012" lon="-0.32164">
        <ele>83.5201</ele>
        <time>2011-06-25T17:00:18Z</time>
      </trkpt>
      <trkpt lat="46.33012" lon="-0.32166">
        <ele>83.4816</ele>
        <time>2011-06-25T17:00:20Z</time>
      </trkpt>
      <trkpt lat="46.33012" lon="-0.32168">
        <ele>83.4444</ele>
        <time>2011-06-25T17:00:20Z</time>
      </trkpt>
      <trkpt lat="46.33012" lon="-0.3217">
        <ele>83.4083</ele>
        <time>2011-06-25T17:00:21Z</time>
      </trkpt>
      <trkpt lat="46.33012" lon="-0.32172">
        <ele>83.372</ele>
        <time>2011-06-25T17:00:22Z</time>
      </trkpt>
      <trkpt lat="46.33012" lon="-0.32174">
        <ele>83.3388</ele>
        <time>2011-06-25T17:00:23Z</time>
      </trkpt>
      <trkpt lat="46.33012" lon="-0.32176">
        <ele>83.3015</ele>
        <time>2011-06-25T17:00:24Z</time>
      </trkpt>
      <trkpt lat="46.33012" lon="-0.32178">
        <ele>83.2644</ele>
        <time>2011-06-25T17:00:26Z</time>
      </trkpt>
      <trkpt lat="46.33012" lon="-0.3218">
        <ele>83.2263</ele>
        <time>2011-06-25T17:00:26Z</time>
      </trkpt>
      <trkpt lat="46.33013" lon="-0.32183">
        <ele>83.1915</ele>
        <time>2011-06-25T17:00:27Z</time>
      </trkpt>
      <trkpt lat="46.33013" lon="-0.32185">
        <ele>83.1533</ele>
        <time>2011-06-25T17:00:29Z</time>
      </trkpt>
      <trkpt lat="46.33014" lon="-0.32186">
        <ele>83.1109</ele>
        <time>2011-06-25T17:00:29Z</time>
      </trkpt>
      <trkpt lat="46.33014" lon="-0.32188">
        <ele>83.0693</ele>
        <time>2011-06-25T17:00:31Z</time>
      </trkpt>
      <trkpt lat="46.33014" lon="-0.3219">
        <ele>83.0316</ele>
        <time>2011-06-25T17:00:32Z</time>
      </trkpt>
      <trkpt lat="46.33014" lon="-0.32192">
        <ele>82.9988</ele>
        <time>2011-06-25T17:00:33Z</time>
      </trkpt>
      <trkpt lat="46.33014" lon="-0.32194">
        <ele>82.9671</ele>
        <time>2011-06-25T17:00:33Z</time>
      </trkpt>
      <trkpt lat="46.33015" lon="-0.32197">
        <ele>82.9373</ele>
        <time>2011-06-25T17:00:34Z</time>
      </trkpt>
      <trkpt lat="46.33015" lon="-0.32199">
        <ele>82.9054</ele>
        <time>2011-06-25T17:00:35Z</time>
      </trkpt>
      <trkpt lat="46.33015" lon="-0.32201">
        <ele>82.8725</ele>
        <time>2011-06-25T17:00:37Z</time>
      </trkpt>
      <trkpt lat="46.33015" lon="-0.32203">
        <ele>82.8402</ele>
        <time>2011-06-25T17:00:37Z</time>
      </trkpt>
      <trkpt lat="46.33016" lon="-0.32204">
        <ele>82.8035</ele>
        <time>2011-06-25T17:00:39Z</time>
      </trkpt>
      <trkpt lat="46.33017" lon="-0.32206">
        <ele>82.7657</ele>
        <time>2011-06-25T17:00:39Z</time>
      </trkpt>
      <trkpt lat="46.33017" lon="-0.32208">
        <ele>82.7286</ele>
        <time>2011-06-25T17:00:41Z</time>
      </trkpt>
      <trkpt lat="46.33017" lon="-0.32209">
        <ele>82.6958</ele>
        <time>2011-06-25T17:00:42Z</time>
      </trkpt>
      <trkpt lat="46.33017" lon="-0.32211">
        <ele>82.667</ele>
        <time>2011-06-25T17:00:42Z</time>
      </trkpt>
      <trkpt lat="46.33017" lon="-0.32213">
        <ele>82.6379</ele>
        <time>2011-06-25T17:00:44Z</time>
      </trkpt>
      <trkpt lat="46.33017" lon="-0.32215">
        <ele>82.6094</ele>
        <time>2011-06-25T17:00:44Z</time>
      </trkpt>
      <trkpt lat="46.33018" lon="-0.32217">
        <ele>82.5816</ele>
        <time>2011-06-25T17:00:45Z</time>
      </trkpt>
      <trkpt lat="46.33018" lon="-0.32219">
        <ele>82.5607</ele>
        <time>2011-06-25T17:00:47Z</time>
      </trkpt>
      <trkpt lat="46.33018" lon="-0.32222">
        <ele>82.5393</ele>
        <time>2011-06-25T17:00:48Z</time>
      </trkpt>
      <trkpt lat="46.33018" lon="-0.32224">
        <ele>82.5196</ele>
        <time>2011-06-25T17:00:49Z</time>
      </trkpt>
      <trkpt lat="46.33018" lon="-0.32226">
        <ele>82.503</ele>
        <time>2011-06-25T17:00:49Z</time>
      </trkpt>
      <trkpt lat="46.33018" lon="-0.32229">
        <ele>82.4886</ele>
        <time>2011-06-25T17:00:51Z</time>
      </trkpt>
      <trkpt lat="46.33017" lon="-0.32231">
        <ele>82.4716</ele>
        <time>2011-06-25T17:00:52Z</time>
      </trkpt>
      <trkpt lat="46.33017" lon="-0.32233">
        <ele>82.4562</ele>
        <time>2011-06-25T17:00:53Z</time>
      </trkpt>
      <trkpt lat="46.33017" lon="-0.32235">
        <ele>82.4392</ele>
        <time>2011-06-25T17:00:54Z</time>
      </trkpt>
      <trkpt lat="46.33017" lon="-0.32237">
        <ele>82.4224</ele>
        <time>2011-06-25T17:00:54Z</time>
      </trkpt>
      <trkpt lat="46.33017" lon="-0.32238">
        <ele>82.4071</ele>
        <time>2011-06-25T17:00:56Z</time>
      </trkpt>
      <trkpt lat="46.33017" lon="-0.3224">
        <ele>82.3893</ele>
        <time>2011-06-25T17:00:57Z</time>
      </trkpt>
      <trkpt lat="46.33017" lon="-0.32241">
        <ele>82.3715</ele>
        <time>2011-06-25T17:00:57Z</time>
      </trkpt>
      <trkpt lat="46.33017" lon="-0.32243">
        <ele>82.3525</ele>
        <time>2011-06-25T17:00:58Z</time>
      </trkpt>
      <trkpt lat="46.33017" lon="-0.32244">
        <ele>82.3323</ele>
        <time>2011-06-25T17:00:59Z</time>
      </trkpt>
      <trkpt lat="46.33016" lon="-0.32246">
        <ele>82.3141</ele>
        <time>2011-06-25T17:01:01Z</time>
      </trkpt>
      <trkpt lat="46.33017" lon="-0.32248">
        <ele>82.2946</ele>
        <time>2011-06-25T17:01:01Z</time>
      </trkpt>
      <trkpt lat="46.33017" lon="-0.3225">
        <ele>82.2764</ele>
        <time>2011-06-25T17:01:03Z</time>
      </trkpt>
      <trkpt lat="46.33016" lon="-0.32252">
        <ele>82.2586</ele>
        <time>2011-06-25T17:01:04Z</time>
      </trkpt>
      <trkpt lat="46.33016" lon="-0.32254">
        <ele>82.2403</ele>
        <time>2011-06-25T17:01:04Z</time>
      </trkpt>
      <trkpt lat="46.33016" lon="-0.32256">
        <ele>82.2238</ele>
        <time>2011-06-25T17:01:05Z</time>
      </trkpt>
      <trkpt lat="46.33016" lon="-0.32257">
        <ele>82.2063</ele>
        <time>2011-06-25T17:01:06Z</time>
      </trkpt>
      <trkpt lat="46.33017" lon="-0.32259">
        <ele>82.1898</ele>
        <time>2011-06-25T17:01:07Z</time>
      </trkpt>
      <trkpt lat="46.33017" lon="-0.32261">
        <ele>82.1753</ele>
        <time>2011-06-25T17:01:09Z</time>
      </trkpt>
      <trkpt lat="46.33017" lon="-0.32263">
        <ele>82.1606</ele>
        <time>2011-06-25T17:01:09Z</time>
      </trkpt>
      <trkpt lat="46.33017" lon="-0.32265">
        <ele>82.146</ele>
        <time>2011-06-25T17:01:11Z</time>
      </trkpt>
      <trkpt lat="46.33017" lon="-0.32267">
        <ele>82.1326</ele>
        <time>2011-06-25T17:01:12Z</time>
      </trkpt>
      <trkpt lat="46.33017" lon="-0.32268">
        <ele>82.1199</ele>
        <time>2011-06-25T17:01:13Z</time>
      </trkpt>
      <trkpt lat="46.33017" lon="-0.3227">
        <ele>82.108</ele>
        <time>2011-06-25T17:01:14Z</time>
      </trkpt>
      <trkpt lat="46.33017" lon="-0.32272">
        <ele>82.0949</ele>
        <time>2011-06-25T17:01:15Z</time>
      </trkpt>
      <trkpt lat="46.33017" lon="-0.32274">
        <ele>82.083</ele>
        <time>2011-06-25T17:01:16Z</time>
      </trkpt>
      <trkpt lat="46.33017" lon="-0.32276">
        <ele>82.073</ele>
        <time>2011-06-25T17:01:17Z</time>
      </trkpt>
      <trkpt lat="46.33017" lon="-0.32277">
        <ele>82.0658</ele>
        <time>2011-06-25T17:01:17Z</time>
      </trkpt>
      <trkpt lat="46.33018" lon="-0.32279">
        <ele>82.0601</ele>
        <time>2011-06-25T17:01:19Z</time>
      </trkpt>
      <trkpt lat="46.33018" lon="-0.32281">
        <ele>82.057</ele>
        <time>2011-06-25T17:01:19Z</time>
      </trkpt>
      <trkpt lat="46.33018" lon="-0.32283">
        <ele>82.0538</ele>
        <time>2011-06-25T17:01:21Z</time>
      </trkpt>
      <trkpt lat="46.33018" lon="-0.32285">
        <ele>82.0505</ele>
        <time>2011-06-25T17:01:22Z</time>
      </trkpt>
      <trkpt lat="46.33018" lon="-0.32287">
        <ele>82.0468</ele>
        <time>2011-06-25T17:01:23Z</time>
      </trkpt>
      <trkpt lat="46.33018" lon="-0.32289">
        <ele>82.0449</ele>
        <time>2011-06-25T17:01:24Z</time>
      </trkpt>
      <trkpt lat="46.33019" lon="-0.32291">
        <ele>82.0434</ele>
        <time>2011-06-25T17:01:25Z</time>
      </trkpt>
      <trkpt lat="46.33019" lon="-0.32293">
        <ele>82.0415</ele>
        <time>2011-06-25T17:01:26Z</time>
      </trkpt>
      <trkpt lat="46.33018" lon="-0.32295">
        <ele>82.0426</ele>
        <time>2011-06-25T17:01:27Z</time>
      </trkpt>
      <trkpt lat="46.33018" lon="-0.32297">
        <ele>82.0509</ele>
        <time>2011-06-25T17:01:27Z</time>
      </trkpt>
      <trkpt lat="46.33019" lon="-0.32299">
        <ele>82.0605</ele>
        <time>2011-06-25T17:01:29Z</time>
      </trkpt>
      <trkpt lat="46.33019" lon="-0.32301">
        <ele>82.0716</ele>
        <time>2011-06-25T17:01:30Z</time>
      </trkpt>
      <trkpt lat="46.33019" lon="-0.32303">
        <ele>82.0854</ele>
        <time>2011-06-25T17:01:31Z</time>
      </trkpt>
      <trkpt lat="46.33019" lon="-0.32305">
        <ele>82.1016</ele>
        <time>2011-06-25T17:01:32Z</time>
      </trkpt>
      <trkpt lat="46.33019" lon="-0.32307">
        <ele>82.1192</ele>
        <time>2011-06-25T17:01:33Z</time>
      </trkpt>
      <trkpt lat="46.33019" lon="-0.32309">
        <ele>82.138</ele>
        <time>2011-06-25T17:01:33Z</time>
      </trkpt>
      <trkpt lat="46.33019" lon="-0.32311">
        <ele>82.1522</ele>
        <time>2011-06-25T17:01:34Z</time>
      </trkpt>
      <trkpt lat="46.33019" lon="-0.32313">
        <ele>82.165</ele>
        <time>2011-06-25T17:01:36Z</time>
      </trkpt>
      <trkpt lat="46.33019" lon="-0.32314">
        <ele>82.1735</ele>
        <time>2011-06-25T17:01:36Z</time>
      </trkpt>
      <trkpt lat="46.33019" lon="-0.32316">
        <ele>82.1805</ele>
        <time>2011-06-25T17:01:37Z</time>
      </trkpt>
      <trkpt lat="46.33019" lon="-0.32318">
        <ele>82.1877</ele>
        <time>2011-06-25T17:01:38Z</time>
      </trkpt>
      <trkpt lat="46.33019" lon="-0.3232">
        <ele>82.191</ele>
        <time>2011-06-25T17:01:39Z</time>
      </trkpt>
      <trkpt lat="46.33019" lon="-0.32322">
        <ele>82.1907</ele>
        <time>2011-06-25T17:01:40Z</time>
      </trkpt>
      <trkpt lat="46.33019" lon="-0.32324">
        <ele>82.1855</ele>
        <time>2011-06-25T17:01:42Z</time>
      </trkpt>
      <trkpt lat="46.3302" lon="-0.32326">
        <ele>82.1829</ele>
        <time>2011-06-25T17:01:43Z</time>
      </trkpt>
      <trkpt lat="46.3302" lon="-0.32328">
        <ele>82.1798</ele>
        <time>2011-06-25T17:01:43Z</time>
      </trkpt>
      <trkpt lat="46.3302" lon="-0.32329">
        <ele>82.1747</ele>
        <time>2011-06-25T17:01:45Z</time>
      </trkpt>
      <trkpt lat="46.3302" lon="-0.32331">
        <ele>82.1713</ele>
        <time>2011-06-25T17:01:45Z</time>
      </trkpt>
      <trkpt lat="46.3302" lon="-0.32333">
        <ele>82.1683</ele>
        <time>2011-06-25T17:01:47Z</time>
      </trkpt>
      <trkpt lat="46.3302" lon="-0.32335">
        <ele>82.1629</ele>
        <time>2011-06-25T17:01:48Z</time>
      </trkpt>
      <trkpt lat="46.3302" lon="-0.32337">
        <ele>82.1507</ele>
        <time>2011-06-25T17:01:49Z</time>
      </trkpt>
      <trkpt lat="46.33019" lon="-0.32339">
        <ele>82.1338</ele>
        <time>2011-06-25T17:01:49Z</time>
      </trkpt>
      <trkpt lat="46.33019" lon="-0.32342">
        <ele>82.112</ele>
        <time>2011-06-25T17:01:51Z</time>
      </trkpt>
      <trkpt lat="46.33019" lon="-0.32344">
        <ele>82.0941</ele>
        <time>2011-06-25T17:01:52Z</time>
      </trkpt>
      <trkpt lat="46.33019" lon="-0.32347">
        <ele>82.0807</ele>
        <time>2011-06-25T17:01:52Z</time>
      </trkpt>
      <trkpt lat="46.33019" lon="-0.32349">
        <ele>82.0673</ele>
        <time>2011-06-25T17:01:53Z</time>
      </trkpt>
      <trkpt lat="46.33019" lon="-0.32351">
        <ele>82.054</ele>
        <time>2011-06-25T17:01:54Z</time>
      </trkpt>
      <trkpt lat="46.33018" lon="-0.32352">
        <ele>82.04</ele>
        <time>2011-06-25T17:01:56Z</time>
      </trkpt>
      <trkpt lat="46.33018" lon="-0.32354">
        <ele>82.0269</ele>
        <time>2011-06-25T17:01:57Z</time>
      </trkpt>
      <trkpt lat="46.33019" lon="-0.32356">
        <ele>82.0142</ele>
        <time>2011-06-25T17:01:58Z</time>
      </trkpt>
      <trkpt lat="46.33019" lon="-0.32358">
        <ele>82.0015</ele>
        <time>2011-06-25T17:01:59Z</time>
      </trkpt>
      <trkpt lat="46.33019" lon="-0.3236">
        <ele>81.99</ele>
        <time>2011-06-25T17:01:59Z</time>
      </trkpt>
      <trkpt lat="46.33019" lon="-0.32361">
        <ele>81.9763</ele>
        <time>2011-06-25T17:02:01Z</time>
      </trkpt>
      <trkpt lat="46.33019" lon="-0.32363">
        <ele>81.9609</ele>
        <time>2011-06-25T17:02:02Z</time>
      </trkpt>
      <trkpt lat="46.33019" lon="-0.32365">
        <ele>81.9457</ele>
        <time>2011-06-25T17:02:03Z</time>
      </trkpt>
      <trkpt lat="46.33019" lon="-0.32366">
        <ele>81.9308</ele>
        <time>2011-06-25T17:02:03Z</time>
      </trkpt>
      <trkpt lat="46.33019" lon="-0.32368">
        <ele>81.917</ele>
        <time>2011-06-25T17:02:05Z</time>
      </trkpt>
      <trkpt lat="46.33019" lon="-0.3237">
        <ele>81.9036</ele>
        <time>2011-06-25T17:02:06Z</time>
      </trkpt>
      <trkpt lat="46.33019" lon="-0.32372">
        <ele>81.8903</ele>
        <time>2011-06-25T17:02:06Z</time>
      </trkpt>
      <trkpt lat="46.33019" lon="-0.32374">
        <ele>81.8758</ele>
        <time>2011-06-25T17:02:07Z</time>
      </trkpt>
      <trkpt lat="46.33019" lon="-0.32376">
        <ele>81.8612</ele>
        <time>2011-06-25T17:02:09Z</time>
      </trkpt>
      <trkpt lat="46.3302" lon="-0.32378">
        <ele>81.8465</ele>
        <time>2011-06-25T17:02:09Z</time>
      </trkpt>
      <trkpt lat="46.33019" lon="-0.3238">
        <ele>81.8343</ele>
        <time>2011-06-25T17:02:10Z</time>
      </trkpt>
      <trkpt lat="46.33019" lon="-0.32382">
        <ele>81.8198</ele>
        <time>2011-06-25T17:02:11Z</time>
      </trkpt>
      <trkpt lat="46.33019" lon="-0.32384">
        <ele>81.8058</ele>
        <time>2011-06-25T17:02:12Z</time>
      </trkpt>
      <trkpt lat="46.33019" lon="-0.32386">
        <ele>81.7923</ele>
        <time>2011-06-25T17:02:13Z</time>
      </trkpt>
      <trkpt lat="46.33019" lon="-0.32388">
        <ele>81.785</ele>
        <time>2011-06-25T17:02:14Z</time>
      </trkpt>
      <trkpt lat="46.33019" lon="-0.32389">
        <ele>81.7778</ele>
        <time>2011-06-25T17:02:15Z</time>
      </trkpt>
      <trkpt lat="46.33019" lon="-0.32391">
        <ele>81.7702</ele>
        <time>2011-06-25T17:02:17Z</time>
      </trkpt>
      <trkpt lat="46.33019" lon="-0.32393">
        <ele>81.766</ele>
        <time>2011-06-25T17:02:17Z</time>
      </trkpt>
      <trkpt lat="46.33019" lon="-0.32395">
        <ele>81.7622</ele>
        <time>2011-06-25T17:02:18Z</time>
      </trkpt>
      <trkpt lat="46.33019" lon="-0.32397">
        <ele>81.7572</ele>
        <time>2011-06-25T17:02:19Z</time>
      </trkpt>
      <trkpt lat="46.33019" lon="-0.32399">
        <ele>81.751</ele>
        <time>2011-06-25T17:02:20Z</time>
      </trkpt>
      <trkpt lat="46.33019" lon="-0.324">
        <ele>81.7423</ele>
        <time>2011-06-25T17:02:21Z</time>
      </trkpt>
      <trkpt lat="46.33019" lon="-0.32402">
        <ele>81.7302</ele>
        <time>2011-06-25T17:02:22Z</time>
      </trkpt>
      <trkpt lat="46.33018" lon="-0.32404">
        <ele>81.716</ele>
        <time>2011-06-25T17:02:23Z</time>
      </trkpt>
      <trkpt lat="46.33017" lon="-0.32406">
        <ele>81.6973</ele>
        <time>2011-06-25T17:02:24Z</time>
      </trkpt>
      <trkpt lat="46.33017" lon="-0.32408">
        <ele>81.6702</ele>
        <time>2011-06-25T17:02:25Z</time>
      </trkpt>
      <trkpt lat="46.33016" lon="-0.32411">
        <ele>81.64</ele>
        <time>2011-06-25T17:02:27Z</time>
      </trkpt>
      <trkpt lat="46.33015" lon="-0.32413">
        <ele>81.6008</ele>
        <time>2011-06-25T17:02:27Z</time>
      </trkpt>
      <trkpt lat="46.33014" lon="-0.32415">
        <ele>81.554</ele>
        <time>2011-06-25T17:02:28Z</time>
      </trkpt>
      <trkpt lat="46.33013" lon="-0.32417">
        <ele>81.5073</ele>
        <time>2011-06-25T17:02:30Z</time>
      </trkpt>
      <trkpt lat="46.33012" lon="-0.32419">
        <ele>81.457</ele>
        <time>2011-06-25T17:02:30Z</time>
      </trkpt>
      <trkpt lat="46.33011" lon="-0.3242">
        <ele>81.4021</ele>
        <time>2011-06-25T17:02:31Z</time>
      </trkpt>
      <trkpt lat="46.33011" lon="-0.32422">
        <ele>81.3421</ele>
        <time>2011-06-25T17:02:33Z</time>
      </trkpt>
      <trkpt lat="46.3301" lon="-0.32424">
        <ele>81.281</ele>
        <time>2011-06-25T17:02:34Z</time>
      </trkpt>
      <trkpt lat="46.33009" lon="-0.32425">
        <ele>81.2199</ele>
        <time>2011-06-25T17:02:35Z</time>
      </trkpt>
      <trkpt lat="46.33009" lon="-0.32427">
        <ele>81.1598</ele>
        <time>2011-06-25T17:02:35Z</time>
      </trkpt>
      <trkpt lat="46.33008" lon="-0.32428">
        <ele>81.1012</ele>
        <time>2011-06-25T17:02:36Z</time>
      </trkpt>
      <trkpt lat="46.33008" lon="-0.3243">
        <ele>81.0412</ele>
        <time>2011-06-25T17:02:37Z</time>
      </trkpt>
      <trkpt lat="46.33008" lon="-0.32432">
        <ele>80.9818</ele>
        <time>2011-06-25T17:02:38Z</time>
      </trkpt>
      <trkpt lat="46.33008" lon="-0.32433">
        <ele>80.9239</ele>
        <time>2011-06-25T17:02:40Z</time>
      </trkpt>
      <trkpt lat="46.33008" lon="-0.32435">
        <ele>80.8673</ele>
        <time>2011-06-25T17:02:40Z</time>
      </trkpt>
      <trkpt lat="46.33008" lon="-0.32437">
        <ele>80.8115</ele>
        <time>2011-06-25T17:02:41Z</time>
      </trkpt>
      <trkpt lat="46.33008" lon="-0.32439">
        <ele>80.7514</ele>
        <time>2011-06-25T17:02:43Z</time>
      </trkpt>
      <trkpt lat="46.33008" lon="-0.32441">
        <ele>80.6925</ele>
        <time>2011-06-25T17:02:43Z</time>
      </trkpt>
      <trkpt lat="46.33009" lon="-0.32442">
        <ele>80.6358</ele>
        <time>2011-06-25T17:02:45Z</time>
      </trkpt>
      <trkpt lat="46.33009" lon="-0.32444">
        <ele>80.5775</ele>
        <time>2011-06-25T17:02:46Z</time>
      </trkpt>
      <trkpt lat="46.33009" lon="-0.32446">
        <ele>80.5197</ele>
        <time>2011-06-25T17:02:46Z</time>
      </trkpt>
      <trkpt lat="46.33009" lon="-0.32448">
        <ele>80.4618</ele>
        <time>2011-06-25T17:02:47Z</time>
      </trkpt>
      <trkpt lat="46.33009" lon="-0.32449">
        <ele>80.4022</ele>
        <time>2011-06-25T17:02:48Z</time>
      </trkpt>
      <trkpt lat="46.3301" lon="-0.32451">
        <ele>80.3418</ele>
        <time>2011-06-25T17:02:50Z</time>
      </trkpt>
      <trkpt lat="46.3301" lon="-0.32453">
        <ele>80.2804</ele>
        <time>2011-06-25T17:02:50Z</time>
      </trkpt>
      <trkpt lat="46.33011" lon="-0.32455">
        <ele>80.2155</ele>
        <time>2011-06-25T17:02:52Z</time>
      </trkpt>
      <trkpt lat="46.33011" lon="-0.32457">
        <ele>80.1514</ele>
        <time>2011-06-25T17:02:53Z</time>
      </trkpt>
      <trkpt lat="46.33012" lon="-0.32459">
        <ele>80.0893</ele>
        <time>2011-06-25T17:02:53Z</time>
      </trkpt>
      <trkpt lat="46.33012" lon="-0.32461">
        <ele>80.0245</ele>
        <time>2011-06-25T17:02:54Z</time>
      </trkpt>
      <trkpt lat="46.33013" lon="-0.32462">
        <ele>79.9629</ele>
        <time>2011-06-25T17:02:55Z</time>
      </trkpt>
      <trkpt lat="46.33013" lon="-0.32464">
        <ele>79.8979</ele>
        <time>2011-06-25T17:02:57Z</time>
      </trkpt>
      <trkpt lat="46.33014" lon="-0.32466">
        <ele>79.8296</ele>
        <time>2011-06-25T17:02:58Z</time>
      </trkpt>
      <trkpt lat="46.33015" lon="-0.32468">
        <ele>79.7568</ele>
        <time>2011-06-25T17:02:58Z</time>
      </trkpt>
      <trkpt lat="46.33015" lon="-0.32469">
        <ele>79.6845</ele>
        <time>2011-06-25T17:03:00Z</time>
      </trkpt>
      <trkpt lat="46.33017" lon="-0.32471">
        <ele>79.6125</ele>
        <time>2011-06-25T17:03:00Z</time>
      </trkpt>
      <trkpt lat="46.33017" lon="-0.32472">
        <ele>79.5408</ele>
        <time>2011-06-25T17:03:01Z</time>
      </trkpt>
      <trkpt lat="46.33018" lon="-0.32473">
        <ele>79.4702</ele>
        <time>2011-06-25T17:03:03Z</time>
      </trkpt>
      <trkpt lat="46.33019" lon="-0.32474">
        <ele>79.3977</ele>
        <time>2011-06-25T17:03:03Z</time>
      </trkpt>
      <trkpt lat="46.3302" lon="-0.32475">
        <ele>79.3261</ele>
        <time>2011-06-25T17:03:04Z</time>
      </trkpt>
      <trkpt lat="46.3302" lon="-0.32476">
        <ele>79.2547</ele>
        <time>2011-06-25T17:03:05Z</time>
      </trkpt>
      <trkpt lat="46.33021" lon="-0.32477">
        <ele>79.184</ele>
        <time>2011-06-25T17:03:06Z</time>
      </trkpt>
      <trkpt lat="46.33022" lon="-0.32478">
        <ele>79.1138</ele>
        <time>2011-06-25T17:03:08Z</time>
      </trkpt>
      <trkpt lat="46.33023" lon="-0.32479">
        <ele>79.046</ele>
        <time>2011-06-25T17:03:08Z</time>
      </trkpt>
      <trkpt lat="46.33023" lon="-0.32481">
        <ele>78.9814</ele>
        <time>2011-06-25T17:03:10Z</time>
      </trkpt>
      <trkpt lat="46.33024" lon="-0.32482">
        <ele>78.9192</ele>
        <time>2011-06-25T17:03:10Z</time>
      </trkpt>
      <trkpt lat="46.33024" lon="-0.32483">
        <ele>78.859</ele>
        <time>2011-06-25T17:03:11Z</time>
      </trkpt>
      <trkpt lat="46.33025" lon="-0.32484">
        <ele>78.8017</ele>
        <time>2011-06-25T17:03:12Z</time>
      </trkpt>
      <trkpt lat="46.33026" lon="-0.32485">
        <ele>78.7458</ele>
        <time>2011-06-25T17:03:14Z</time>
      </trkpt>
      <trkpt lat="46.33027" lon="-0.32485">
        <ele>78.6875</ele>
        <time>2011-06-25T17:03:15Z</time>
      </trkpt>
      <trkpt lat="46.33028" lon="-0.32486">
        <ele>78.6296</ele>
        <time>2011-06-25T17:03:15Z</time>
      </trkpt>
      <trkpt lat="46.33029" lon="-0.32488">
        <ele>78.5731</ele>
        <time>2011-06-25T17:03:17Z</time>
      </trkpt>
      <trkpt lat="46.3303" lon="-0.32489">
        <ele>78.5204</ele>
        <time>2011-06-25T17:03:17Z</time>
      </trkpt>
      <trkpt lat="46.3303" lon="-0.3249">
        <ele>78.4601</ele>
        <time>2011-06-25T17:03:18Z</time>
      </trkpt>
      <trkpt lat="46.33031" lon="-0.32492">
        <ele>78.3923</ele>
        <time>2011-06-25T17:03:19Z</time>
      </trkpt>
      <trkpt lat="46.33032" lon="-0.32493">
        <ele>78.3241</ele>
        <time>2011-06-25T17:03:21Z</time>
      </trkpt>
      <trkpt lat="46.33033" lon="-0.32494">
        <ele>78.2578</ele>
        <time>2011-06-25T17:03:21Z</time>
      </trkpt>
      <trkpt lat="46.33034" lon="-0.32495">
        <ele>78.1906</ele>
        <time>2011-06-25T17:03:22Z</time>
      </trkpt>
      <trkpt lat="46.33034" lon="-0.32497">
        <ele>78.1214</ele>
        <time>2011-06-25T17:03:23Z</time>
      </trkpt>
      <trkpt lat="46.33035" lon="-0.32498">
        <ele>78.0328</ele>
        <time>2011-06-25T17:03:24Z</time>
      </trkpt>
      <trkpt lat="46.33036" lon="-0.32499">
        <ele>77.9428</ele>
        <time>2011-06-25T17:03:25Z</time>
      </trkpt>
      <trkpt lat="46.33036" lon="-0.325">
        <ele>77.8581</ele>
        <time>2011-06-25T17:03:26Z</time>
      </trkpt>
      <trkpt lat="46.33037" lon="-0.32501">
        <ele>77.7626</ele>
        <time>2011-06-25T17:03:28Z</time>
      </trkpt>
      <trkpt lat="46.33037" lon="-0.32502">
        <ele>77.6636</ele>
        <time>2011-06-25T17:03:29Z</time>
      </trkpt>
      <trkpt lat="46.33038" lon="-0.32504">
        <ele>77.5642</ele>
        <time>2011-06-25T17:03:30Z</time>
      </trkpt>
      <trkpt lat="46.33038" lon="-0.32505">
        <ele>77.4567</ele>
        <time>2011-06-25T17:03:30Z</time>
      </trkpt>
      <trkpt lat="46.33038" lon="-0.32507">
        <ele>77.3489</ele>
        <time>2011-06-25T17:03:31Z</time>
      </trkpt>
      <trkpt lat="46.33038" lon="-0.32508">
        <ele>77.2421</ele>
        <time>2011-06-25T17:03:33Z</time>
      </trkpt>
      <trkpt lat="46.33038" lon="-0.3251">
        <ele>77.1385</ele>
        <time>2011-06-25T17:03:34Z</time>
      </trkpt>
      <trkpt lat="46.33038" lon="-0.32512">
        <ele>77.0285</ele>
        <time>2011-06-25T17:03:34Z</time>
      </trkpt>
      <trkpt lat="46.33038" lon="-0.32514">
        <ele>76.9112</ele>
        <time>2011-06-25T17:03:35Z</time>
      </trkpt>
      <trkpt lat="46.33038" lon="-0.32516">
        <ele>76.784</ele>
        <time>2011-06-25T17:03:37Z</time>
      </trkpt>
      <trkpt lat="46.33038" lon="-0.32519">
        <ele>76.6533</ele>
        <time>2011-06-25T17:03:38Z</time>
      </trkpt>
      <trkpt lat="46.33038" lon="-0.32521">
        <ele>76.5279</ele>
        <time>2011-06-25T17:03:38Z</time>
      </trkpt>
      <trkpt lat="46.33038" lon="-0.32524">
        <ele>76.4026</ele>
        <time>2011-06-25T17:03:39Z</time>
      </trkpt>
      <trkpt lat="46.33038" lon="-0.32526">
        <ele>76.277</ele>
        <time>2011-06-25T17:03:40Z</time>
      </trkpt>
      <trkpt lat="46.33037" lon="-0.32528">
        <ele>76.1496</ele>
        <time>2011-06-25T17:03:41Z</time>
      </trkpt>
      <trkpt lat="46.33037" lon="-0.32531">
        <ele>76.0182</ele>
        <time>2011-06-25T17:03:42Z</time>
      </trkpt>
      <trkpt lat="46.33037" lon="-0.32533">
        <ele>75.8845</ele>
        <time>2011-06-25T17:03:43Z</time>
      </trkpt>
      <trkpt lat="46.33036" lon="-0.32535">
        <ele>75.7499</ele>
        <time>2011-06-25T17:03:44Z</time>
      </trkpt>
      <trkpt lat="46.33036" lon="-0.32536">
        <ele>75.6198</ele>
        <time>2011-06-25T17:03:46Z</time>
      </trkpt>
      <trkpt lat="46.33036" lon="-0.32538">
        <ele>75.4872</ele>
        <time>2011-06-25T17:03:46Z</time>
      </trkpt>
      <trkpt lat="46.33036" lon="-0.3254">
        <ele>75.3551</ele>
        <time>2011-06-25T17:03:48Z</time>
      </trkpt>
      <trkpt lat="46.33036" lon="-0.32542">
        <ele>75.2293</ele>
        <time>2011-06-25T17:03:48Z</time>
      </trkpt>
      <trkpt lat="46.33036" lon="-0.32544">
        <ele>75.1048</ele>
        <time>2011-06-25T17:03:49Z</time>
      </trkpt>
      <trkpt lat="46.33036" lon="-0.32546">
        <ele>74.9838</ele>
        <time>2011-06-25T17:03:51Z</time>
      </trkpt>
      <trkpt lat="46.33036" lon="-0.32549">
        <ele>74.8646</ele>
        <time>2011-06-25T17:03:51Z</time>
      </trkpt>
      <trkpt lat="46.33035" lon="-0.32551">
        <ele>74.7485</ele>
        <time>2011-06-25T17:03:52Z</time>
      </trkpt>
      <trkpt lat="46.33035" lon="-0.32553">
        <ele>74.6364</ele>
        <time>2011-06-25T17:03:54Z</time>
      </trkpt>
      <trkpt lat="46.33035" lon="-0.32554">
        <ele>74.5257</ele>
        <time>2011-06-25T17:03:55Z</time>
      </trkpt>
      <trkpt lat="46.33035" lon="-0.32556">
        <ele>74.4067</ele>
        <time>2011-06-25T17:03:56Z</time>
      </trkpt>
      <trkpt lat="46.33035" lon="-0.32557">
        <ele>74.2889</ele>
        <time>2011-06-25T17:03:56Z</time>
      </trkpt>
      <trkpt lat="46.33034" lon="-0.32559">
        <ele>74.1741</ele>
        <time>2011-06-25T17:03:58Z</time>
      </trkpt>
      <trkpt lat="46.33034" lon="-0.32561">
        <ele>74.062</ele>
        <time>2011-06-25T17:03:58Z</time>
      </trkpt>
      <trkpt lat="46.33033" lon="-0.32562">
        <ele>73.9493</ele>
        <time>2011-06-25T17:03:59Z</time>
      </trkpt>
      <trkpt lat="46.33033" lon="-0.32564">
        <ele>73.8376</ele>
        <time>2011-06-25T17:04:00Z</time>
      </trkpt>
      <trkpt lat="46.33033" lon="-0.32565">
        <ele>73.7311</ele>
        <time>2011-06-25T17:04:02Z</time>
      </trkpt>
      <trkpt lat="46.33032" lon="-0.32566">
        <ele>73.6123</ele>
        <time>2011-06-25T17:04:03Z</time>
      </trkpt>
      <trkpt lat="46.33032" lon="-0.32567">
        <ele>73.4848</ele>
        <time>2011-06-25T17:04:04Z</time>
      </trkpt>
      <trkpt lat="46.33032" lon="-0.32568">
        <ele>73.3618</ele>
        <time>2011-06-25T17:04:04Z</time>
      </trkpt>
      <trkpt lat="46.33031" lon="-0.32569">
        <ele>73.2443</ele>
        <time>2011-06-25T17:04:06Z</time>
      </trkpt>
      <trkpt lat="46.33031" lon="-0.32571">
        <ele>73.1244</ele>
        <time>2011-06-25T17:04:06Z</time>
      </trkpt>
      <trkpt lat="46.3303" lon="-0.32572">
        <ele>73.0078</ele>
        <time>2011-06-25T17:04:07Z</time>
      </trkpt>
      <trkpt lat="46.3303" lon="-0.32574">
        <ele>72.8894</ele>
        <time>2011-06-25T17:04:09Z</time>
      </trkpt>
      <trkpt lat="46.3303" lon="-0.32575">
        <ele>72.7434</ele>
        <time>2011-06-25T17:04:10Z</time>
      </trkpt>
      <trkpt lat="46.3303" lon="-0.32576">
        <ele>72.5979</ele>
        <time>2011-06-25T17:04:10Z</time>
      </trkpt>
      <trkpt lat="46.3303" lon="-0.32578">
        <ele>72.4517</ele>
        <time>2011-06-25T17:04:11Z</time>
      </trkpt>
      <trkpt lat="46.33029" lon="-0.32579">
        <ele>72.292</ele>
        <time>2011-06-25T17:04:12Z</time>
      </trkpt>
      <trkpt lat="46.33029" lon="-0.3258">
        <ele>72.1134</ele>
        <time>2011-06-25T17:04:13Z</time>
      </trkpt>
      <trkpt lat="46.33029" lon="-0.32582">
        <ele>71.9449</ele>
        <time>2011-06-25T17:04:15Z</time>
      </trkpt>
      <trkpt lat="46.33029" lon="-0.32583">
        <ele>71.769</ele>
        <time>2011-06-25T17:04:15Z</time>
      </trkpt>
      <trkpt lat="46.33029" lon="-0.32584">
        <ele>71.6041</ele>
        <time>2011-06-25T17:04:16Z</time>
      </trkpt>
      <trkpt lat="46.33029" lon="-0.32586">
        <ele>71.4415</ele>
        <time>2011-06-25T17:04:18Z</time>
      </trkpt>
      <trkpt lat="46.33029" lon="-0.32588">
        <ele>71.2331</ele>
        <time>2011-06-25T17:04:19Z</time>
      </trkpt>
      <trkpt lat="46.33029" lon="-0.32589">
        <ele>71.0133</ele>
        <time>2011-06-25T17:04:19Z</time>
      </trkpt>
      <trkpt lat="46.33029" lon="-0.32591">
        <ele>70.7817</ele>
        <time>2011-06-25T17:04:21Z</time>
      </trkpt>
      <trkpt lat="46.33029" lon="-0.32593">
        <ele>70.5441</ele>
        <time>2011-06-25T17:04:21Z</time>
      </trkpt>
      <trkpt lat="46.3303" lon="-0.32595">
        <ele>70.3044</ele>
        <time>2011-06-25T17:04:22Z</time>
      </trkpt>
      <trkpt lat="46.3303" lon="-0.32597">
        <ele>70.0652</ele>
        <time>2011-06-25T17:04:24Z</time>
      </trkpt>
      <trkpt lat="46.3303" lon="-0.32599">
        <ele>69.8224</ele>
        <time>2011-06-25T17:04:24Z</time>
      </trkpt>
      <trkpt lat="46.3303" lon="-0.32601">
        <ele>69.5944</ele>
        <time>2011-06-25T17:04:25Z</time>
      </trkpt>
      <trkpt lat="46.33031" lon="-0.32603">
        <ele>69.3696</ele>
        <time>2011-06-25T17:04:26Z</time>
      </trkpt>
      <trkpt lat="46.33031" lon="-0.32605">
        <ele>69.1488</ele>
        <time>2011-06-25T17:04:27Z</time>
      </trkpt>
      <trkpt lat="46.33031" lon="-0.32607">
        <ele>68.8986</ele>
        <time>2011-06-25T17:04:28Z</time>
      </trkpt>
      <trkpt lat="46.33031" lon="-0.32609">
        <ele>68.6318</ele>
        <time>2011-06-25T17:04:29Z</time>
      </trkpt>
      <trkpt lat="46.3303" lon="-0.3261">
        <ele>68.3533</ele>
        <time>2011-06-25T17:04:30Z</time>
      </trkpt>
      <trkpt lat="46.33029" lon="-0.32611">
        <ele>68.0442</ele>
        <time>2011-06-25T17:04:31Z</time>
      </trkpt>
      <trkpt lat="46.33028" lon="-0.32615">
        <ele>67.627</ele>
        <time>2011-06-25T17:04:34Z</time>
      </trkpt>
      <trkpt lat="46.33029" lon="-0.32619">
        <ele>67.0685</ele>
        <time>2011-06-25T17:04:36Z</time>
      </trkpt>
      <trkpt lat="46.33029" lon="-0.32621">
        <ele>66.826</ele>
        <time>2011-06-25T17:04:37Z</time>
      </trkpt>
      <trkpt lat="46.3303" lon="-0.32622">
        <ele>66.5858</ele>
        <time>2011-06-25T17:04:39Z</time>
      </trkpt>
      <trkpt lat="46.33031" lon="-0.32623">
        <ele>66.3436</ele>
        <time>2011-06-25T17:04:39Z</time>
      </trkpt>
      <trkpt lat="46.33032" lon="-0.32624">
        <ele>66.12</ele>
        <time>2011-06-25T17:04:40Z</time>
      </trkpt>
      <trkpt lat="46.33033" lon="-0.32625">
        <ele>65.9014</ele>
        <time>2011-06-25T17:04:41Z</time>
      </trkpt>
      <trkpt lat="46.33034" lon="-0.32625">
        <ele>65.6852</ele>
        <time>2011-06-25T17:04:43Z</time>
      </trkpt>
      <trkpt lat="46.33035" lon="-0.32626">
        <ele>65.4698</ele>
        <time>2011-06-25T17:04:43Z</time>
      </trkpt>
      <trkpt lat="46.33036" lon="-0.32627">
        <ele>65.2727</ele>
        <time>2011-06-25T17:04:44Z</time>
      </trkpt>
      <trkpt lat="46.33036" lon="-0.32628">
        <ele>65.0808</ele>
        <time>2011-06-25T17:04:45Z</time>
      </trkpt>
      <trkpt lat="46.33036" lon="-0.3263">
        <ele>64.8891</ele>
        <time>2011-06-25T17:04:46Z</time>
      </trkpt>
      <trkpt lat="46.33037" lon="-0.32632">
        <ele>64.697</ele>
        <time>2011-06-25T17:04:48Z</time>
      </trkpt>
      <trkpt lat="46.33037" lon="-0.32633">
        <ele>64.5153</ele>
        <time>2011-06-25T17:04:48Z</time>
      </trkpt>
      <trkpt lat="46.33037" lon="-0.32635">
        <ele>64.3393</ele>
        <time>2011-06-25T17:04:49Z</time>
      </trkpt>
      <trkpt lat="46.33036" lon="-0.32637">
        <ele>64.1695</ele>
        <time>2011-06-25T17:04:50Z</time>
      </trkpt>
      <trkpt lat="46.33036" lon="-0.3264">
        <ele>64.0069</ele>
        <time>2011-06-25T17:04:51Z</time>
      </trkpt>
      <trkpt lat="46.33036" lon="-0.32642">
        <ele>63.8583</ele>
        <time>2011-06-25T17:04:52Z</time>
      </trkpt>
      <trkpt lat="46.33035" lon="-0.32644">
        <ele>63.7203</ele>
        <time>2011-06-25T17:04:53Z</time>
      </trkpt>
      <trkpt lat="46.33035" lon="-0.32646">
        <ele>63.5952</ele>
        <time>2011-06-25T17:04:54Z</time>
      </trkpt>
      <trkpt lat="46.33034" lon="-0.32648">
        <ele>63.478</ele>
        <time>2011-06-25T17:04:55Z</time>
      </trkpt>
      <trkpt lat="46.33033" lon="-0.3265">
        <ele>63.3663</ele>
        <time>2011-06-25T17:04:56Z</time>
      </trkpt>
      <trkpt lat="46.33033" lon="-0.32652">
        <ele>63.2593</ele>
        <time>2011-06-25T17:04:57Z</time>
      </trkpt>
      <trkpt lat="46.33032" lon="-0.32653">
        <ele>63.1559</ele>
        <time>2011-06-25T17:04:58Z</time>
      </trkpt>
      <trkpt lat="46.33032" lon="-0.32655">
        <ele>63.0471</ele>
        <time>2011-06-25T17:04:59Z</time>
      </trkpt>
      <trkpt lat="46.33031" lon="-0.32657">
        <ele>62.9368</ele>
        <time>2011-06-25T17:05:00Z</time>
      </trkpt>
      <trkpt lat="46.33031" lon="-0.32659">
        <ele>62.8279</ele>
        <time>2011-06-25T17:05:01Z</time>
      </trkpt>
      <trkpt lat="46.3303" lon="-0.32661">
        <ele>62.7204</ele>
        <time>2011-06-25T17:05:02Z</time>
      </trkpt>
      <trkpt lat="46.3303" lon="-0.32662">
        <ele>62.6171</ele>
        <time>2011-06-25T17:05:04Z</time>
      </trkpt>
      <trkpt lat="46.3303" lon="-0.32664">
        <ele>62.5094</ele>
        <time>2011-06-25T17:05:04Z</time>
      </trkpt>
      <trkpt lat="46.33028" lon="-0.32666">
        <ele>62.3986</ele>
        <time>2011-06-25T17:05:06Z</time>
      </trkpt>
      <trkpt lat="46.33028" lon="-0.32668">
        <ele>62.291</ele>
        <time>2011-06-25T17:05:06Z</time>
      </trkpt>
      <trkpt lat="46.33028" lon="-0.3267">
        <ele>62.1897</ele>
        <time>2011-06-25T17:05:07Z</time>
      </trkpt>
      <trkpt lat="46.33028" lon="-0.32672">
        <ele>62.0928</ele>
        <time>2011-06-25T17:05:08Z</time>
      </trkpt>
      <trkpt lat="46.33028" lon="-0.32675">
        <ele>61.9992</ele>
        <time>2011-06-25T17:05:09Z</time>
      </trkpt>
      <trkpt lat="46.33027" lon="-0.32677">
        <ele>61.91</ele>
        <time>2011-06-25T17:05:10Z</time>
      </trkpt>
      <trkpt lat="46.33027" lon="-0.3268">
        <ele>61.8231</ele>
        <time>2011-06-25T17:05:11Z</time>
      </trkpt>
      <trkpt lat="46.33027" lon="-0.32682">
        <ele>61.738</ele>
        <time>2011-06-25T17:05:12Z</time>
      </trkpt>
      <trkpt lat="46.33026" lon="-0.32684">
        <ele>61.6481</ele>
        <time>2011-06-25T17:05:13Z</time>
      </trkpt>
      <trkpt lat="46.33026" lon="-0.32686">
        <ele>61.5612</ele>
        <time>2011-06-25T17:05:14Z</time>
      </trkpt>
      <trkpt lat="46.33025" lon="-0.32688">
        <ele>61.4734</ele>
        <time>2011-06-25T17:05:16Z</time>
      </trkpt>
      <trkpt lat="46.33025" lon="-0.32691">
        <ele>61.381</ele>
        <time>2011-06-25T17:05:16Z</time>
      </trkpt>
      <trkpt lat="46.33025" lon="-0.32693">
        <ele>61.2884</ele>
        <time>2011-06-25T17:05:17Z</time>
      </trkpt>
      <trkpt lat="46.33025" lon="-0.32696">
        <ele>61.1962</ele>
        <time>2011-06-25T17:05:19Z</time>
      </trkpt>
      <trkpt lat="46.33024" lon="-0.32698">
        <ele>61.1039</ele>
        <time>2011-06-25T17:05:19Z</time>
      </trkpt>
      <trkpt lat="46.33024" lon="-0.327">
        <ele>61.0143</ele>
        <time>2011-06-25T17:05:20Z</time>
      </trkpt>
      <trkpt lat="46.33024" lon="-0.32703">
        <ele>60.9246</ele>
        <time>2011-06-25T17:05:21Z</time>
      </trkpt>
      <trkpt lat="46.33024" lon="-0.32705">
        <ele>60.8286</ele>
        <time>2011-06-25T17:05:22Z</time>
      </trkpt>
      <trkpt lat="46.33024" lon="-0.32708">
        <ele>60.7297</ele>
        <time>2011-06-25T17:05:23Z</time>
      </trkpt>
      <trkpt lat="46.33023" lon="-0.3271">
        <ele>60.634</ele>
        <time>2011-06-25T17:05:24Z</time>
      </trkpt>
      <trkpt lat="46.33023" lon="-0.32712">
        <ele>60.538</ele>
        <time>2011-06-25T17:05:25Z</time>
      </trkpt>
      <trkpt lat="46.33022" lon="-0.32714">
        <ele>60.4421</ele>
        <time>2011-06-25T17:05:27Z</time>
      </trkpt>
      <trkpt lat="46.33022" lon="-0.32716">
        <ele>60.3449</ele>
        <time>2011-06-25T17:05:27Z</time>
      </trkpt>
      <trkpt lat="46.33021" lon="-0.32718">
        <ele>60.2508</ele>
        <time>2011-06-25T17:05:28Z</time>
      </trkpt>
      <trkpt lat="46.33021" lon="-0.3272">
        <ele>60.1563</ele>
        <time>2011-06-25T17:05:29Z</time>
      </trkpt>
      <trkpt lat="46.33021" lon="-0.32722">
        <ele>60.0552</ele>
        <time>2011-06-25T17:05:31Z</time>
      </trkpt>
      <trkpt lat="46.3302" lon="-0.32723">
        <ele>59.9487</ele>
        <time>2011-06-25T17:05:31Z</time>
      </trkpt>
      <trkpt lat="46.3302" lon="-0.32725">
        <ele>59.8404</ele>
        <time>2011-06-25T17:05:32Z</time>
      </trkpt>
      <trkpt lat="46.33019" lon="-0.32727">
        <ele>59.7352</ele>
        <time>2011-06-25T17:05:33Z</time>
      </trkpt>
      <trkpt lat="46.33019" lon="-0.32728">
        <ele>59.6298</ele>
        <time>2011-06-25T17:05:34Z</time>
      </trkpt>
      <trkpt lat="46.33018" lon="-0.3273">
        <ele>59.526</ele>
        <time>2011-06-25T17:05:35Z</time>
      </trkpt>
      <trkpt lat="46.33017" lon="-0.32732">
        <ele>59.425</ele>
        <time>2011-06-25T17:05:36Z</time>
      </trkpt>
      <trkpt lat="46.33016" lon="-0.32733">
        <ele>59.3283</ele>
        <time>2011-06-25T17:05:37Z</time>
      </trkpt>
      <trkpt lat="46.33016" lon="-0.32735">
        <ele>59.2345</ele>
        <time>2011-06-25T17:05:38Z</time>
      </trkpt>
      <trkpt lat="46.33015" lon="-0.32737">
        <ele>59.1412</ele>
        <time>2011-06-25T17:05:39Z</time>
      </trkpt>
      <trkpt lat="46.33014" lon="-0.32739">
        <ele>59.0469</ele>
        <time>2011-06-25T17:05:40Z</time>
      </trkpt>
      <trkpt lat="46.33014" lon="-0.3274">
        <ele>58.9537</ele>
        <time>2011-06-25T17:05:41Z</time>
      </trkpt>
      <trkpt lat="46.33012" lon="-0.32742">
        <ele>58.8721</ele>
        <time>2011-06-25T17:05:42Z</time>
      </trkpt>
      <trkpt lat="46.33012" lon="-0.32744">
        <ele>58.7915</ele>
        <time>2011-06-25T17:05:43Z</time>
      </trkpt>
      <trkpt lat="46.33011" lon="-0.32746">
        <ele>58.7113</ele>
        <time>2011-06-25T17:05:44Z</time>
      </trkpt>
      <trkpt lat="46.3301" lon="-0.32747">
        <ele>58.6327</ele>
        <time>2011-06-25T17:05:45Z</time>
      </trkpt>
      <trkpt lat="46.33009" lon="-0.32748">
        <ele>58.5529</ele>
        <time>2011-06-25T17:05:46Z</time>
      </trkpt>
      <trkpt lat="46.33009" lon="-0.3275">
        <ele>58.4758</ele>
        <time>2011-06-25T17:05:47Z</time>
      </trkpt>
      <trkpt lat="46.33007" lon="-0.32751">
        <ele>58.401</ele>
        <time>2011-06-25T17:05:48Z</time>
      </trkpt>
      <trkpt lat="46.33007" lon="-0.32752">
        <ele>58.3272</ele>
        <time>2011-06-25T17:05:49Z</time>
      </trkpt>
      <trkpt lat="46.33005" lon="-0.32753">
        <ele>58.2521</ele>
        <time>2011-06-25T17:05:51Z</time>
      </trkpt>
      <trkpt lat="46.33004" lon="-0.32755">
        <ele>58.1798</ele>
        <time>2011-06-25T17:05:51Z</time>
      </trkpt>
      <trkpt lat="46.33003" lon="-0.32756">
        <ele>58.1076</ele>
        <time>2011-06-25T17:05:52Z</time>
      </trkpt>
      <trkpt lat="46.33002" lon="-0.32757">
        <ele>58.0354</ele>
        <time>2011-06-25T17:05:53Z</time>
      </trkpt>
      <trkpt lat="46.33001" lon="-0.32758">
        <ele>57.9643</ele>
        <time>2011-06-25T17:05:54Z</time>
      </trkpt>
      <trkpt lat="46.32999" lon="-0.3276">
        <ele>57.8976</ele>
        <time>2011-06-25T17:05:55Z</time>
      </trkpt>
      <trkpt lat="46.32998" lon="-0.32762">
        <ele>57.8313</ele>
        <time>2011-06-25T17:05:56Z</time>
      </trkpt>
      <trkpt lat="46.32997" lon="-0.32763">
        <ele>57.7651</ele>
        <time>2011-06-25T17:05:57Z</time>
      </trkpt>
      <trkpt lat="46.32996" lon="-0.32765">
        <ele>57.699</ele>
        <time>2011-06-25T17:05:58Z</time>
      </trkpt>
      <trkpt lat="46.32995" lon="-0.32767">
        <ele>57.6286</ele>
        <time>2011-06-25T17:05:59Z</time>
      </trkpt>
      <trkpt lat="46.32993" lon="-0.32768">
        <ele>57.5484</ele>
        <time>2011-06-25T17:06:00Z</time>
      </trkpt>
      <trkpt lat="46.32992" lon="-0.3277">
        <ele>57.4614</ele>
        <time>2011-06-25T17:06:01Z</time>
      </trkpt>
      <trkpt lat="46.32991" lon="-0.32772">
        <ele>57.3751</ele>
        <time>2011-06-25T17:06:02Z</time>
      </trkpt>
      <trkpt lat="46.3299" lon="-0.32773">
        <ele>57.2916</ele>
        <time>2011-06-25T17:06:03Z</time>
      </trkpt>
      <trkpt lat="46.32989" lon="-0.32775">
        <ele>57.2086</ele>
        <time>2011-06-25T17:06:05Z</time>
      </trkpt>
      <trkpt lat="46.32987" lon="-0.32777">
        <ele>57.1211</ele>
        <time>2011-06-25T17:06:05Z</time>
      </trkpt>
      <trkpt lat="46.32986" lon="-0.32779">
        <ele>57.0308</ele>
        <time>2011-06-25T17:06:06Z</time>
      </trkpt>
      <trkpt lat="46.32984" lon="-0.3278">
        <ele>56.9369</ele>
        <time>2011-06-25T17:06:07Z</time>
      </trkpt>
      <trkpt lat="46.32983" lon="-0.32782">
        <ele>56.8405</ele>
        <time>2011-06-25T17:06:09Z</time>
      </trkpt>
      <trkpt lat="46.32982" lon="-0.32783">
        <ele>56.7467</ele>
        <time>2011-06-25T17:06:09Z</time>
      </trkpt>
      <trkpt lat="46.3298" lon="-0.32784">
        <ele>56.6556</ele>
        <time>2011-06-25T17:06:10Z</time>
      </trkpt>
      <trkpt lat="46.32979" lon="-0.32785">
        <ele>56.5622</ele>
        <time>2011-06-25T17:06:11Z</time>
      </trkpt>
      <trkpt lat="46.32978" lon="-0.32787">
        <ele>56.4701</ele>
        <time>2011-06-25T17:06:12Z</time>
      </trkpt>
      <trkpt lat="46.32976" lon="-0.32788">
        <ele>56.3801</ele>
        <time>2011-06-25T17:06:13Z</time>
      </trkpt>
      <trkpt lat="46.32975" lon="-0.32789">
        <ele>56.2889</ele>
        <time>2011-06-25T17:06:14Z</time>
      </trkpt>
      <trkpt lat="46.32974" lon="-0.3279">
        <ele>56.2005</ele>
        <time>2011-06-25T17:06:15Z</time>
      </trkpt>
      <trkpt lat="46.32972" lon="-0.32791">
        <ele>56.1143</ele>
        <time>2011-06-25T17:06:16Z</time>
      </trkpt>
      <trkpt lat="46.32971" lon="-0.32792">
        <ele>56.0332</ele>
        <time>2011-06-25T17:06:17Z</time>
      </trkpt>
      <trkpt lat="46.3297" lon="-0.32793">
        <ele>55.9549</ele>
        <time>2011-06-25T17:06:18Z</time>
      </trkpt>
      <trkpt lat="46.32969" lon="-0.32794">
        <ele>55.8794</ele>
        <time>2011-06-25T17:06:19Z</time>
      </trkpt>
      <trkpt lat="46.32968" lon="-0.32795">
        <ele>55.8072</ele>
        <time>2011-06-25T17:06:20Z</time>
      </trkpt>
      <trkpt lat="46.32967" lon="-0.32796">
        <ele>55.7368</ele>
        <time>2011-06-25T17:06:21Z</time>
      </trkpt>
      <trkpt lat="46.32966" lon="-0.32797">
        <ele>55.6674</ele>
        <time>2011-06-25T17:06:23Z</time>
      </trkpt>
      <trkpt lat="46.32964" lon="-0.32798">
        <ele>55.5978</ele>
        <time>2011-06-25T17:06:23Z</time>
      </trkpt>
      <trkpt lat="46.32962" lon="-0.32799">
        <ele>55.5391</ele>
        <time>2011-06-25T17:06:24Z</time>
      </trkpt>
      <trkpt lat="46.3296" lon="-0.32799">
        <ele>55.5055</ele>
        <time>2011-06-25T17:06:25Z</time>
      </trkpt>
      <trkpt lat="46.32958" lon="-0.32798">
        <ele>55.4958</ele>
        <time>2011-06-25T17:06:26Z</time>
      </trkpt>
      <trkpt lat="46.32956" lon="-0.32797">
        <ele>55.5011</ele>
        <time>2011-06-25T17:06:27Z</time>
      </trkpt>
      <trkpt lat="46.32953" lon="-0.32796">
        <ele>55.5199</ele>
        <time>2011-06-25T17:06:28Z</time>
      </trkpt>
      <trkpt lat="46.32951" lon="-0.32796">
        <ele>55.5483</ele>
        <time>2011-06-25T17:06:29Z</time>
      </trkpt>
      <trkpt lat="46.32949" lon="-0.32796">
        <ele>55.5839</ele>
        <time>2011-06-25T17:06:30Z</time>
      </trkpt>
      <trkpt lat="46.32948" lon="-0.32796">
        <ele>55.6268</ele>
        <time>2011-06-25T17:06:31Z</time>
      </trkpt>
      <trkpt lat="46.32946" lon="-0.32796">
        <ele>55.6722</ele>
        <time>2011-06-25T17:06:32Z</time>
      </trkpt>
      <trkpt lat="46.32945" lon="-0.32797">
        <ele>55.7195</ele>
        <time>2011-06-25T17:06:34Z</time>
      </trkpt>
      <trkpt lat="46.32943" lon="-0.32797">
        <ele>55.7705</ele>
        <time>2011-06-25T17:06:34Z</time>
      </trkpt>
      <trkpt lat="46.32942" lon="-0.32798">
        <ele>55.8248</ele>
        <time>2011-06-25T17:06:35Z</time>
      </trkpt>
      <trkpt lat="46.3294" lon="-0.32799">
        <ele>55.8817</ele>
        <time>2011-06-25T17:06:36Z</time>
      </trkpt>
      <trkpt lat="46.32939" lon="-0.328">
        <ele>55.9397</ele>
        <time>2011-06-25T17:06:38Z</time>
      </trkpt>
      <trkpt lat="46.32938" lon="-0.328">
        <ele>55.9994</ele>
        <time>2011-06-25T17:06:38Z</time>
      </trkpt>
      <trkpt lat="46.32937" lon="-0.32801">
        <ele>56.0624</ele>
        <time>2011-06-25T17:06:39Z</time>
      </trkpt>
      <trkpt lat="46.32936" lon="-0.32802">
        <ele>56.1283</ele>
        <time>2011-06-25T17:06:40Z</time>
      </trkpt>
      <trkpt lat="46.32934" lon="-0.32803">
        <ele>56.1951</ele>
        <time>2011-06-25T17:06:41Z</time>
      </trkpt>
      <trkpt lat="46.32933" lon="-0.32803">
        <ele>56.2614</ele>
        <time>2011-06-25T17:06:42Z</time>
      </trkpt>
      <trkpt lat="46.32932" lon="-0.32804">
        <ele>56.3257</ele>
        <time>2011-06-25T17:06:44Z</time>
      </trkpt>
      <trkpt lat="46.32931" lon="-0.32804">
        <ele>56.3891</ele>
        <time>2011-06-25T17:06:45Z</time>
      </trkpt>
      <trkpt lat="46.32929" lon="-0.32805">
        <ele>56.451</ele>
        <time>2011-06-25T17:06:45Z</time>
      </trkpt>
      <trkpt lat="46.32929" lon="-0.32806">
        <ele>56.5111</ele>
        <time>2011-06-25T17:06:46Z</time>
      </trkpt>
      <trkpt lat="46.32927" lon="-0.32807">
        <ele>56.5673</ele>
        <time>2011-06-25T17:06:48Z</time>
      </trkpt>
      <trkpt lat="46.32926" lon="-0.32808">
        <ele>56.6198</ele>
        <time>2011-06-25T17:06:49Z</time>
      </trkpt>
      <trkpt lat="46.32924" lon="-0.32809">
        <ele>56.6708</ele>
        <time>2011-06-25T17:06:50Z</time>
      </trkpt>
      <trkpt lat="46.32923" lon="-0.3281">
        <ele>56.7206</ele>
        <time>2011-06-25T17:06:51Z</time>
      </trkpt>
      <trkpt lat="46.32922" lon="-0.32811">
        <ele>56.7704</ele>
        <time>2011-06-25T17:06:52Z</time>
      </trkpt>
      <trkpt lat="46.32921" lon="-0.32811">
        <ele>56.8193</ele>
        <time>2011-06-25T17:06:52Z</time>
      </trkpt>
      <trkpt lat="46.32919" lon="-0.32812">
        <ele>56.8688</ele>
        <time>2011-06-25T17:06:54Z</time>
      </trkpt>
      <trkpt lat="46.32918" lon="-0.32812">
        <ele>56.9261</ele>
        <time>2011-06-25T17:06:54Z</time>
      </trkpt>
      <trkpt lat="46.32917" lon="-0.32813">
        <ele>56.9814</ele>
        <time>2011-06-25T17:06:55Z</time>
      </trkpt>
      <trkpt lat="46.32915" lon="-0.32813">
        <ele>57.0335</ele>
        <time>2011-06-25T17:06:57Z</time>
      </trkpt>
      <trkpt lat="46.32914" lon="-0.32814">
        <ele>57.0832</ele>
        <time>2011-06-25T17:06:58Z</time>
      </trkpt>
      <trkpt lat="46.32912" lon="-0.32814">
        <ele>57.1326</ele>
        <time>2011-06-25T17:06:58Z</time>
      </trkpt>
      <trkpt lat="46.32911" lon="-0.32815">
        <ele>57.1805</ele>
        <time>2011-06-25T17:06:59Z</time>
      </trkpt>
      <trkpt lat="46.3291" lon="-0.32816">
        <ele>57.2262</ele>
        <time>2011-06-25T17:07:01Z</time>
      </trkpt>
      <trkpt lat="46.32909" lon="-0.32817">
        <ele>57.2708</ele>
        <time>2011-06-25T17:07:02Z</time>
      </trkpt>
      <trkpt lat="46.32908" lon="-0.32817">
        <ele>57.31</ele>
        <time>2011-06-25T17:07:02Z</time>
      </trkpt>
      <trkpt lat="46.32907" lon="-0.32817">
        <ele>57.346</ele>
        <time>2011-06-25T17:07:03Z</time>
      </trkpt>
      <trkpt lat="46.32906" lon="-0.32818">
        <ele>57.3808</ele>
        <time>2011-06-25T17:07:05Z</time>
      </trkpt>
      <trkpt lat="46.32904" lon="-0.32819">
        <ele>57.4154</ele>
        <time>2011-06-25T17:07:05Z</time>
      </trkpt>
      <trkpt lat="46.32903" lon="-0.32819">
        <ele>57.4473</ele>
        <time>2011-06-25T17:07:06Z</time>
      </trkpt>
      <trkpt lat="46.32902" lon="-0.3282">
        <ele>57.4812</ele>
        <time>2011-06-25T17:07:07Z</time>
      </trkpt>
      <trkpt lat="46.32901" lon="-0.3282">
        <ele>57.5163</ele>
        <time>2011-06-25T17:07:09Z</time>
      </trkpt>
      <trkpt lat="46.329" lon="-0.32821">
        <ele>57.5511</ele>
        <time>2011-06-25T17:07:09Z</time>
      </trkpt>
      <trkpt lat="46.329" lon="-0.32822">
        <ele>57.5826</ele>
        <time>2011-06-25T17:07:11Z</time>
      </trkpt>
      <trkpt lat="46.32899" lon="-0.32822">
        <ele>57.6143</ele>
        <time>2011-06-25T17:07:11Z</time>
      </trkpt>
      <trkpt lat="46.32898" lon="-0.32823">
        <ele>57.6455</ele>
        <time>2011-06-25T17:07:13Z</time>
      </trkpt>
      <trkpt lat="46.32897" lon="-0.32824">
        <ele>57.6762</ele>
        <time>2011-06-25T17:07:14Z</time>
      </trkpt>
      <trkpt lat="46.32896" lon="-0.32824">
        <ele>57.7082</ele>
        <time>2011-06-25T17:07:14Z</time>
      </trkpt>
      <trkpt lat="46.32895" lon="-0.32825">
        <ele>57.7414</ele>
        <time>2011-06-25T17:07:15Z</time>
      </trkpt>
      <trkpt lat="46.32893" lon="-0.32826">
        <ele>57.7728</ele>
        <time>2011-06-25T17:07:17Z</time>
      </trkpt>
      <trkpt lat="46.32892" lon="-0.32827">
        <ele>57.8049</ele>
        <time>2011-06-25T17:07:18Z</time>
      </trkpt>
      <trkpt lat="46.32891" lon="-0.32828">
        <ele>57.8354</ele>
        <time>2011-06-25T17:07:18Z</time>
      </trkpt>
      <trkpt lat="46.3289" lon="-0.32829">
        <ele>57.8626</ele>
        <time>2011-06-25T17:07:19Z</time>
      </trkpt>
      <trkpt lat="46.32889" lon="-0.32831">
        <ele>57.883</ele>
        <time>2011-06-25T17:07:20Z</time>
      </trkpt>
      <trkpt lat="46.32888" lon="-0.32832">
        <ele>57.9051</ele>
        <time>2011-06-25T17:07:22Z</time>
      </trkpt>
      <trkpt lat="46.32887" lon="-0.32834">
        <ele>57.9332</ele>
        <time>2011-06-25T17:07:22Z</time>
      </trkpt>
      <trkpt lat="46.32885" lon="-0.32835">
        <ele>57.9672</ele>
        <time>2011-06-25T17:07:23Z</time>
      </trkpt>
      <trkpt lat="46.32884" lon="-0.32837">
        <ele>58.008</ele>
        <time>2011-06-25T17:07:24Z</time>
      </trkpt>
      <trkpt lat="46.32882" lon="-0.32838">
        <ele>58.0531</ele>
        <time>2011-06-25T17:07:25Z</time>
      </trkpt>
      <trkpt lat="46.32881" lon="-0.32839">
        <ele>58.0995</ele>
        <time>2011-06-25T17:07:27Z</time>
      </trkpt>
      <trkpt lat="46.3288" lon="-0.3284">
        <ele>58.1474</ele>
        <time>2011-06-25T17:07:28Z</time>
      </trkpt>
      <trkpt lat="46.32879" lon="-0.32841">
        <ele>58.199</ele>
        <time>2011-06-25T17:07:29Z</time>
      </trkpt>
      <trkpt lat="46.32878" lon="-0.32842">
        <ele>58.2552</ele>
        <time>2011-06-25T17:07:30Z</time>
      </trkpt>
      <trkpt lat="46.32877" lon="-0.32843">
        <ele>58.3174</ele>
        <time>2011-06-25T17:07:31Z</time>
      </trkpt>
      <trkpt lat="46.32875" lon="-0.32844">
        <ele>58.3882</ele>
        <time>2011-06-25T17:07:32Z</time>
      </trkpt>
      <trkpt lat="46.32874" lon="-0.32845">
        <ele>58.4665</ele>
        <time>2011-06-25T17:07:33Z</time>
      </trkpt>
      <trkpt lat="46.32874" lon="-0.32846">
        <ele>58.5437</ele>
        <time>2011-06-25T17:07:34Z</time>
      </trkpt>
      <trkpt lat="46.32872" lon="-0.32848">
        <ele>58.6226</ele>
        <time>2011-06-25T17:07:35Z</time>
      </trkpt>
      <trkpt lat="46.32871" lon="-0.32849">
        <ele>58.7038</ele>
        <time>2011-06-25T17:07:36Z</time>
      </trkpt>
      <trkpt lat="46.3287" lon="-0.3285">
        <ele>58.7855</ele>
        <time>2011-06-25T17:07:37Z</time>
      </trkpt>
      <trkpt lat="46.32868" lon="-0.32852">
        <ele>58.8679</ele>
        <time>2011-06-25T17:07:38Z</time>
      </trkpt>
      <trkpt lat="46.32867" lon="-0.32853">
        <ele>58.952</ele>
        <time>2011-06-25T17:07:39Z</time>
      </trkpt>
      <trkpt lat="46.32866" lon="-0.32854">
        <ele>59.0373</ele>
        <time>2011-06-25T17:07:40Z</time>
      </trkpt>
      <trkpt lat="46.32865" lon="-0.32855">
        <ele>59.1258</ele>
        <time>2011-06-25T17:07:41Z</time>
      </trkpt>
      <trkpt lat="46.32864" lon="-0.32857">
        <ele>59.213</ele>
        <time>2011-06-25T17:07:42Z</time>
      </trkpt>
      <trkpt lat="46.32863" lon="-0.32858">
        <ele>59.2989</ele>
        <time>2011-06-25T17:07:43Z</time>
      </trkpt>
      <trkpt lat="46.32862" lon="-0.32859">
        <ele>59.3839</ele>
        <time>2011-06-25T17:07:44Z</time>
      </trkpt>
      <trkpt lat="46.32861" lon="-0.3286">
        <ele>59.4672</ele>
        <time>2011-06-25T17:07:45Z</time>
      </trkpt>
      <trkpt lat="46.32861" lon="-0.32861">
        <ele>59.5497</ele>
        <time>2011-06-25T17:07:46Z</time>
      </trkpt>
      <trkpt lat="46.3286" lon="-0.32862">
        <ele>59.6339</ele>
        <time>2011-06-25T17:07:47Z</time>
      </trkpt>
      <trkpt lat="46.32859" lon="-0.32863">
        <ele>59.7141</ele>
        <time>2011-06-25T17:07:48Z</time>
      </trkpt>
      <trkpt lat="46.32858" lon="-0.32864">
        <ele>59.7931</ele>
        <time>2011-06-25T17:07:49Z</time>
      </trkpt>
      <trkpt lat="46.32858" lon="-0.32865">
        <ele>59.8697</ele>
        <time>2011-06-25T17:07:49Z</time>
      </trkpt>
      <trkpt lat="46.32856" lon="-0.32867">
        <ele>59.9463</ele>
        <time>2011-06-25T17:07:50Z</time>
      </trkpt>
      <trkpt lat="46.32855" lon="-0.32867">
        <ele>60.0298</ele>
        <time>2011-06-25T17:07:51Z</time>
      </trkpt>
      <trkpt lat="46.32854" lon="-0.32868">
        <ele>60.1165</ele>
        <time>2011-06-25T17:07:52Z</time>
      </trkpt>
      <trkpt lat="46.32853" lon="-0.32869">
        <ele>60.2028</ele>
        <time>2011-06-25T17:07:53Z</time>
      </trkpt>
      <trkpt lat="46.32852" lon="-0.3287">
        <ele>60.2884</ele>
        <time>2011-06-25T17:07:54Z</time>
      </trkpt>
      <trkpt lat="46.32851" lon="-0.32871">
        <ele>60.3717</ele>
        <time>2011-06-25T17:07:55Z</time>
      </trkpt>
      <trkpt lat="46.3285" lon="-0.32872">
        <ele>60.4522</ele>
        <time>2011-06-25T17:07:56Z</time>
      </trkpt>
      <trkpt lat="46.32849" lon="-0.32873">
        <ele>60.5316</ele>
        <time>2011-06-25T17:07:57Z</time>
      </trkpt>
      <trkpt lat="46.32848" lon="-0.32875">
        <ele>60.6097</ele>
        <time>2011-06-25T17:07:59Z</time>
      </trkpt>
      <trkpt lat="46.32847" lon="-0.32876">
        <ele>60.6885</ele>
        <time>2011-06-25T17:08:00Z</time>
      </trkpt>
      <trkpt lat="46.32846" lon="-0.32877">
        <ele>60.7684</ele>
        <time>2011-06-25T17:08:01Z</time>
      </trkpt>
      <trkpt lat="46.32845" lon="-0.32878">
        <ele>60.8478</ele>
        <time>2011-06-25T17:08:02Z</time>
      </trkpt>
      <trkpt lat="46.32843" lon="-0.32879">
        <ele>60.927</ele>
        <time>2011-06-25T17:08:03Z</time>
      </trkpt>
      <trkpt lat="46.32843" lon="-0.32881">
        <ele>61.0059</ele>
        <time>2011-06-25T17:08:04Z</time>
      </trkpt>
      <trkpt lat="46.32842" lon="-0.32882">
        <ele>61.081</ele>
        <time>2011-06-25T17:08:05Z</time>
      </trkpt>
      <trkpt lat="46.3284" lon="-0.32884">
        <ele>61.152</ele>
        <time>2011-06-25T17:08:06Z</time>
      </trkpt>
      <trkpt lat="46.32839" lon="-0.32885">
        <ele>61.222</ele>
        <time>2011-06-25T17:08:07Z</time>
      </trkpt>
      <trkpt lat="46.32838" lon="-0.32886">
        <ele>61.2884</ele>
        <time>2011-06-25T17:08:08Z</time>
      </trkpt>
      <trkpt lat="46.32837" lon="-0.32887">
        <ele>61.3554</ele>
        <time>2011-06-25T17:08:09Z</time>
      </trkpt>
      <trkpt lat="46.32836" lon="-0.32889">
        <ele>61.4225</ele>
        <time>2011-06-25T17:08:10Z</time>
      </trkpt>
      <trkpt lat="46.32834" lon="-0.3289">
        <ele>61.4921</ele>
        <time>2011-06-25T17:08:11Z</time>
      </trkpt>
      <trkpt lat="46.32833" lon="-0.32891">
        <ele>61.5645</ele>
        <time>2011-06-25T17:08:12Z</time>
      </trkpt>
      <trkpt lat="46.32832" lon="-0.32893">
        <ele>61.6347</ele>
        <time>2011-06-25T17:08:13Z</time>
      </trkpt>
      <trkpt lat="46.3283" lon="-0.32894">
        <ele>61.7041</ele>
        <time>2011-06-25T17:08:14Z</time>
      </trkpt>
      <trkpt lat="46.32829" lon="-0.32895">
        <ele>61.7725</ele>
        <time>2011-06-25T17:08:15Z</time>
      </trkpt>
      <trkpt lat="46.32827" lon="-0.32897">
        <ele>61.8415</ele>
        <time>2011-06-25T17:08:16Z</time>
      </trkpt>
      <trkpt lat="46.32826" lon="-0.32898">
        <ele>61.9103</ele>
        <time>2011-06-25T17:08:17Z</time>
      </trkpt>
      <trkpt lat="46.32825" lon="-0.32899">
        <ele>61.9789</ele>
        <time>2011-06-25T17:08:18Z</time>
      </trkpt>
      <trkpt lat="46.32824" lon="-0.329">
        <ele>62.0451</ele>
        <time>2011-06-25T17:08:19Z</time>
      </trkpt>
      <trkpt lat="46.32823" lon="-0.32901">
        <ele>62.1061</ele>
        <time>2011-06-25T17:08:20Z</time>
      </trkpt>
      <trkpt lat="46.32822" lon="-0.32903">
        <ele>62.1677</ele>
        <time>2011-06-25T17:08:20Z</time>
      </trkpt>
      <trkpt lat="46.32821" lon="-0.32904">
        <ele>62.2263</ele>
        <time>2011-06-25T17:08:22Z</time>
      </trkpt>
      <trkpt lat="46.3282" lon="-0.32906">
        <ele>62.2846</ele>
        <time>2011-06-25T17:08:23Z</time>
      </trkpt>
      <trkpt lat="46.32819" lon="-0.32907">
        <ele>62.3443</ele>
        <time>2011-06-25T17:08:24Z</time>
      </trkpt>
      <trkpt lat="46.32818" lon="-0.32908">
        <ele>62.4021</ele>
        <time>2011-06-25T17:08:25Z</time>
      </trkpt>
      <trkpt lat="46.32818" lon="-0.3291">
        <ele>62.4598</ele>
        <time>2011-06-25T17:08:26Z</time>
      </trkpt>
      <trkpt lat="46.32816" lon="-0.32911">
        <ele>62.5175</ele>
        <time>2011-06-25T17:08:27Z</time>
      </trkpt>
      <trkpt lat="46.32816" lon="-0.32912">
        <ele>62.5842</ele>
        <time>2011-06-25T17:08:28Z</time>
      </trkpt>
      <trkpt lat="46.32814" lon="-0.32913">
        <ele>62.6498</ele>
        <time>2011-06-25T17:08:29Z</time>
      </trkpt>
      <trkpt lat="46.32814" lon="-0.32915">
        <ele>62.7127</ele>
        <time>2011-06-25T17:08:30Z</time>
      </trkpt>
      <trkpt lat="46.32813" lon="-0.32916">
        <ele>62.774</ele>
        <time>2011-06-25T17:08:31Z</time>
      </trkpt>
      <trkpt lat="46.32812" lon="-0.32917">
        <ele>62.8361</ele>
        <time>2011-06-25T17:08:32Z</time>
      </trkpt>
      <trkpt lat="46.32811" lon="-0.32918">
        <ele>62.8986</ele>
        <time>2011-06-25T17:08:33Z</time>
      </trkpt>
      <trkpt lat="46.3281" lon="-0.32919">
        <ele>62.9606</ele>
        <time>2011-06-25T17:08:34Z</time>
      </trkpt>
      <trkpt lat="46.32809" lon="-0.32921">
        <ele>63.0207</ele>
        <time>2011-06-25T17:08:35Z</time>
      </trkpt>
      <trkpt lat="46.32808" lon="-0.32922">
        <ele>63.0814</ele>
        <time>2011-06-25T17:08:36Z</time>
      </trkpt>
      <trkpt lat="46.32807" lon="-0.32923">
        <ele>63.1429</ele>
        <time>2011-06-25T17:08:37Z</time>
      </trkpt>
      <trkpt lat="46.32806" lon="-0.32925">
        <ele>63.1962</ele>
        <time>2011-06-25T17:08:38Z</time>
      </trkpt>
      <trkpt lat="46.32805" lon="-0.32926">
        <ele>63.254</ele>
        <time>2011-06-25T17:08:39Z</time>
      </trkpt>
      <trkpt lat="46.32804" lon="-0.32927">
        <ele>63.3107</ele>
        <time>2011-06-25T17:08:40Z</time>
      </trkpt>
      <trkpt lat="46.32803" lon="-0.32928">
        <ele>63.3701</ele>
        <time>2011-06-25T17:08:40Z</time>
      </trkpt>
      <trkpt lat="46.32802" lon="-0.3293">
        <ele>63.4303</ele>
        <time>2011-06-25T17:08:42Z</time>
      </trkpt>
      <trkpt lat="46.32801" lon="-0.32931">
        <ele>63.4929</ele>
        <time>2011-06-25T17:08:43Z</time>
      </trkpt>
      <trkpt lat="46.328" lon="-0.32932">
        <ele>63.5571</ele>
        <time>2011-06-25T17:08:44Z</time>
      </trkpt>
      <trkpt lat="46.32799" lon="-0.32933">
        <ele>63.6227</ele>
        <time>2011-06-25T17:08:44Z</time>
      </trkpt>
      <trkpt lat="46.32798" lon="-0.32935">
        <ele>63.6902</ele>
        <time>2011-06-25T17:08:46Z</time>
      </trkpt>
      <trkpt lat="46.32797" lon="-0.32936">
        <ele>63.7572</ele>
        <time>2011-06-25T17:08:47Z</time>
      </trkpt>
      <trkpt lat="46.32795" lon="-0.32937">
        <ele>63.8229</ele>
        <time>2011-06-25T17:08:48Z</time>
      </trkpt>
      <trkpt lat="46.32795" lon="-0.32939">
        <ele>63.8878</ele>
        <time>2011-06-25T17:08:49Z</time>
      </trkpt>
      <trkpt lat="46.32794" lon="-0.32941">
        <ele>63.9517</ele>
        <time>2011-06-25T17:08:50Z</time>
      </trkpt>
      <trkpt lat="46.32793" lon="-0.32942">
        <ele>64.0138</ele>
        <time>2011-06-25T17:08:51Z</time>
      </trkpt>
      <trkpt lat="46.32792" lon="-0.32944">
        <ele>64.0739</ele>
        <time>2011-06-25T17:08:52Z</time>
      </trkpt>
      <trkpt lat="46.3279" lon="-0.32946">
        <ele>64.1328</ele>
        <time>2011-06-25T17:08:53Z</time>
      </trkpt>
      <trkpt lat="46.3279" lon="-0.32948">
        <ele>64.1962</ele>
        <time>2011-06-25T17:08:54Z</time>
      </trkpt>
      <trkpt lat="46.32789" lon="-0.32949">
        <ele>64.2578</ele>
        <time>2011-06-25T17:08:55Z</time>
      </trkpt>
      <trkpt lat="46.32788" lon="-0.32951">
        <ele>64.32</ele>
        <time>2011-06-25T17:08:56Z</time>
      </trkpt>
      <trkpt lat="46.32787" lon="-0.32953">
        <ele>64.3793</ele>
        <time>2011-06-25T17:08:57Z</time>
      </trkpt>
      <trkpt lat="46.32785" lon="-0.32954">
        <ele>64.4355</ele>
        <time>2011-06-25T17:08:58Z</time>
      </trkpt>
      <trkpt lat="46.32784" lon="-0.32956">
        <ele>64.4966</ele>
        <time>2011-06-25T17:08:59Z</time>
      </trkpt>
      <trkpt lat="46.32783" lon="-0.32958">
        <ele>64.5559</ele>
        <time>2011-06-25T17:09:00Z</time>
      </trkpt>
      <trkpt lat="46.32782" lon="-0.32959">
        <ele>64.6113</ele>
        <time>2011-06-25T17:09:01Z</time>
      </trkpt>
      <trkpt lat="46.32781" lon="-0.32961">
        <ele>64.6642</ele>
        <time>2011-06-25T17:09:02Z</time>
      </trkpt>
      <trkpt lat="46.3278" lon="-0.32962">
        <ele>64.7121</ele>
        <time>2011-06-25T17:09:03Z</time>
      </trkpt>
      <trkpt lat="46.32779" lon="-0.32964">
        <ele>64.7701</ele>
        <time>2011-06-25T17:09:04Z</time>
      </trkpt>
      <trkpt lat="46.32778" lon="-0.32965">
        <ele>64.8271</ele>
        <time>2011-06-25T17:09:05Z</time>
      </trkpt>
      <trkpt lat="46.32777" lon="-0.32967">
        <ele>64.883</ele>
        <time>2011-06-25T17:09:06Z</time>
      </trkpt>
      <trkpt lat="46.32776" lon="-0.32968">
        <ele>64.9434</ele>
        <time>2011-06-25T17:09:07Z</time>
      </trkpt>
      <trkpt lat="46.32775" lon="-0.3297">
        <ele>65.0164</ele>
        <time>2011-06-25T17:09:08Z</time>
      </trkpt>
      <trkpt lat="46.32774" lon="-0.32971">
        <ele>65.1044</ele>
        <time>2011-06-25T17:09:09Z</time>
      </trkpt>
      <trkpt lat="46.32773" lon="-0.32972">
        <ele>65.2012</ele>
        <time>2011-06-25T17:09:10Z</time>
      </trkpt>
      <trkpt lat="46.32772" lon="-0.32973">
        <ele>65.3018</ele>
        <time>2011-06-25T17:09:11Z</time>
      </trkpt>
      <trkpt lat="46.32771" lon="-0.32974">
        <ele>65.4001</ele>
        <time>2011-06-25T17:09:12Z</time>
      </trkpt>
      <trkpt lat="46.32771" lon="-0.32975">
        <ele>65.4966</ele>
        <time>2011-06-25T17:09:13Z</time>
      </trkpt>
      <trkpt lat="46.3277" lon="-0.32977">
        <ele>65.5939</ele>
        <time>2011-06-25T17:09:14Z</time>
      </trkpt>
      <trkpt lat="46.32769" lon="-0.32978">
        <ele>65.6898</ele>
        <time>2011-06-25T17:09:15Z</time>
      </trkpt>
      <trkpt lat="46.32768" lon="-0.32979">
        <ele>65.7845</ele>
        <time>2011-06-25T17:09:16Z</time>
      </trkpt>
      <trkpt lat="46.32767" lon="-0.32981">
        <ele>65.8775</ele>
        <time>2011-06-25T17:09:17Z</time>
      </trkpt>
      <trkpt lat="46.32766" lon="-0.32982">
        <ele>65.9723</ele>
        <time>2011-06-25T17:09:18Z</time>
      </trkpt>
      <trkpt lat="46.32766" lon="-0.32983">
        <ele>66.065</ele>
        <time>2011-06-25T17:09:19Z</time>
      </trkpt>
      <trkpt lat="46.32765" lon="-0.32985">
        <ele>66.1599</ele>
        <time>2011-06-25T17:09:20Z</time>
      </trkpt>
      <trkpt lat="46.32764" lon="-0.32986">
        <ele>66.2518</ele>
        <time>2011-06-25T17:09:21Z</time>
      </trkpt>
      <trkpt lat="46.32763" lon="-0.32987">
        <ele>66.3492</ele>
        <time>2011-06-25T17:09:22Z</time>
      </trkpt>
      <trkpt lat="46.32762" lon="-0.32989">
        <ele>66.4377</ele>
        <time>2011-06-25T17:09:23Z</time>
      </trkpt>
      <trkpt lat="46.32761" lon="-0.3299">
        <ele>66.5255</ele>
        <time>2011-06-25T17:09:24Z</time>
      </trkpt>
      <trkpt lat="46.32761" lon="-0.32991">
        <ele>66.6118</ele>
        <time>2011-06-25T17:09:25Z</time>
      </trkpt>
      <trkpt lat="46.3276" lon="-0.32993">
        <ele>66.696</ele>
        <time>2011-06-25T17:09:26Z</time>
      </trkpt>
      <trkpt lat="46.32759" lon="-0.32994">
        <ele>66.7834</ele>
        <time>2011-06-25T17:09:27Z</time>
      </trkpt>
      <trkpt lat="46.32758" lon="-0.32995">
        <ele>66.8725</ele>
        <time>2011-06-25T17:09:28Z</time>
      </trkpt>
      <trkpt lat="46.32757" lon="-0.32997">
        <ele>66.9598</ele>
        <time>2011-06-25T17:09:29Z</time>
      </trkpt>
      <trkpt lat="46.32756" lon="-0.32998">
        <ele>67.0457</ele>
        <time>2011-06-25T17:09:30Z</time>
      </trkpt>
      <trkpt lat="46.32756" lon="-0.33">
        <ele>67.1305</ele>
        <time>2011-06-25T17:09:31Z</time>
      </trkpt>
      <trkpt lat="46.32755" lon="-0.33002">
        <ele>67.2137</ele>
        <time>2011-06-25T17:09:32Z</time>
      </trkpt>
      <trkpt lat="46.32754" lon="-0.33003">
        <ele>67.2957</ele>
        <time>2011-06-25T17:09:33Z</time>
      </trkpt>
      <trkpt lat="46.32753" lon="-0.33004">
        <ele>67.3757</ele>
        <time>2011-06-25T17:09:34Z</time>
      </trkpt>
      <trkpt lat="46.32752" lon="-0.33005">
        <ele>67.4523</ele>
        <time>2011-06-25T17:09:35Z</time>
      </trkpt>
      <trkpt lat="46.32751" lon="-0.33007">
        <ele>67.5236</ele>
        <time>2011-06-25T17:09:36Z</time>
      </trkpt>
      <trkpt lat="46.3275" lon="-0.33008">
        <ele>67.5947</ele>
        <time>2011-06-25T17:09:37Z</time>
      </trkpt>
      <trkpt lat="46.3275" lon="-0.3301">
        <ele>67.6651</ele>
        <time>2011-06-25T17:09:38Z</time>
      </trkpt>
      <trkpt lat="46.32748" lon="-0.3301">
        <ele>67.7399</ele>
        <time>2011-06-25T17:09:39Z</time>
      </trkpt>
      <trkpt lat="46.32748" lon="-0.33012">
        <ele>67.8191</ele>
        <time>2011-06-25T17:09:40Z</time>
      </trkpt>
      <trkpt lat="46.32747" lon="-0.33013">
        <ele>67.8978</ele>
        <time>2011-06-25T17:09:41Z</time>
      </trkpt>
      <trkpt lat="46.32746" lon="-0.33014">
        <ele>67.9753</ele>
        <time>2011-06-25T17:09:42Z</time>
      </trkpt>
      <trkpt lat="46.32745" lon="-0.33015">
        <ele>68.0499</ele>
        <time>2011-06-25T17:09:43Z</time>
      </trkpt>
      <trkpt lat="46.32744" lon="-0.33016">
        <ele>68.1235</ele>
        <time>2011-06-25T17:09:44Z</time>
      </trkpt>
      <trkpt lat="46.32743" lon="-0.33017">
        <ele>68.1969</ele>
        <time>2011-06-25T17:09:45Z</time>
      </trkpt>
      <trkpt lat="46.32742" lon="-0.33018">
        <ele>68.2708</ele>
        <time>2011-06-25T17:09:46Z</time>
      </trkpt>
      <trkpt lat="46.3274" lon="-0.33019">
        <ele>68.3431</ele>
        <time>2011-06-25T17:09:47Z</time>
      </trkpt>
      <trkpt lat="46.3274" lon="-0.3302">
        <ele>68.4123</ele>
        <time>2011-06-25T17:09:48Z</time>
      </trkpt>
      <trkpt lat="46.32739" lon="-0.33021">
        <ele>68.482</ele>
        <time>2011-06-25T17:09:49Z</time>
      </trkpt>
      <trkpt lat="46.32738" lon="-0.33022">
        <ele>68.555</ele>
        <time>2011-06-25T17:09:50Z</time>
      </trkpt>
      <trkpt lat="46.32737" lon="-0.33023">
        <ele>68.6265</ele>
        <time>2011-06-25T17:09:51Z</time>
      </trkpt>
      <trkpt lat="46.32737" lon="-0.33024">
        <ele>68.6933</ele>
        <time>2011-06-25T17:09:52Z</time>
      </trkpt>
      <trkpt lat="46.32736" lon="-0.33025">
        <ele>68.7583</ele>
        <time>2011-06-25T17:09:53Z</time>
      </trkpt>
      <trkpt lat="46.32735" lon="-0.33026">
        <ele>68.8227</ele>
        <time>2011-06-25T17:09:54Z</time>
      </trkpt>
      <trkpt lat="46.32734" lon="-0.33027">
        <ele>68.885</ele>
        <time>2011-06-25T17:09:55Z</time>
      </trkpt>
      <trkpt lat="46.32734" lon="-0.33028">
        <ele>68.9481</ele>
        <time>2011-06-25T17:09:56Z</time>
      </trkpt>
      <trkpt lat="46.32732" lon="-0.33029">
        <ele>69.0071</ele>
        <time>2011-06-25T17:09:57Z</time>
      </trkpt>
      <trkpt lat="46.32732" lon="-0.3303">
        <ele>69.0626</ele>
        <time>2011-06-25T17:09:58Z</time>
      </trkpt>
      <trkpt lat="46.32731" lon="-0.33032">
        <ele>69.1135</ele>
        <time>2011-06-25T17:09:59Z</time>
      </trkpt>
      <trkpt lat="46.3273" lon="-0.33033">
        <ele>69.1587</ele>
        <time>2011-06-25T17:10:00Z</time>
      </trkpt>
      <trkpt lat="46.32729" lon="-0.33035">
        <ele>69.1967</ele>
        <time>2011-06-25T17:10:01Z</time>
      </trkpt>
      <trkpt lat="46.32728" lon="-0.33036">
        <ele>69.2297</ele>
        <time>2011-06-25T17:10:02Z</time>
      </trkpt>
      <trkpt lat="46.32727" lon="-0.33038">
        <ele>69.2572</ele>
        <time>2011-06-25T17:10:03Z</time>
      </trkpt>
      <trkpt lat="46.32726" lon="-0.3304">
        <ele>69.2785</ele>
        <time>2011-06-25T17:10:04Z</time>
      </trkpt>
      <trkpt lat="46.32724" lon="-0.33041">
        <ele>69.2959</ele>
        <time>2011-06-25T17:10:05Z</time>
      </trkpt>
      <trkpt lat="46.32723" lon="-0.33043">
        <ele>69.3154</ele>
        <time>2011-06-25T17:10:06Z</time>
      </trkpt>
      <trkpt lat="46.32722" lon="-0.33044">
        <ele>69.3346</ele>
        <time>2011-06-25T17:10:07Z</time>
      </trkpt>
      <trkpt lat="46.32721" lon="-0.33045">
        <ele>69.3522</ele>
        <time>2011-06-25T17:10:08Z</time>
      </trkpt>
      <trkpt lat="46.32719" lon="-0.33047">
        <ele>69.3672</ele>
        <time>2011-06-25T17:10:09Z</time>
      </trkpt>
      <trkpt lat="46.32718" lon="-0.33047">
        <ele>69.3823</ele>
        <time>2011-06-25T17:10:10Z</time>
      </trkpt>
      <trkpt lat="46.32717" lon="-0.33049">
        <ele>69.3915</ele>
        <time>2011-06-25T17:10:11Z</time>
      </trkpt>
      <trkpt lat="46.32716" lon="-0.3305">
        <ele>69.3952</ele>
        <time>2011-06-25T17:10:12Z</time>
      </trkpt>
      <trkpt lat="46.32715" lon="-0.33051">
        <ele>69.3964</ele>
        <time>2011-06-25T17:10:13Z</time>
      </trkpt>
      <trkpt lat="46.32713" lon="-0.33053">
        <ele>69.4019</ele>
        <time>2011-06-25T17:10:14Z</time>
      </trkpt>
      <trkpt lat="46.32712" lon="-0.33055">
        <ele>69.41</ele>
        <time>2011-06-25T17:10:15Z</time>
      </trkpt>
      <trkpt lat="46.32711" lon="-0.33057">
        <ele>69.4201</ele>
        <time>2011-06-25T17:10:16Z</time>
      </trkpt>
      <trkpt lat="46.3271" lon="-0.33058">
        <ele>69.4286</ele>
        <time>2011-06-25T17:10:17Z</time>
      </trkpt>
      <trkpt lat="46.32708" lon="-0.3306">
        <ele>69.4361</ele>
        <time>2011-06-25T17:10:18Z</time>
      </trkpt>
      <trkpt lat="46.32707" lon="-0.33062">
        <ele>69.4431</ele>
        <time>2011-06-25T17:10:19Z</time>
      </trkpt>
      <trkpt lat="46.32706" lon="-0.33064">
        <ele>69.4536</ele>
        <time>2011-06-25T17:10:20Z</time>
      </trkpt>
      <trkpt lat="46.32705" lon="-0.33065">
        <ele>69.4647</ele>
        <time>2011-06-25T17:10:21Z</time>
      </trkpt>
      <trkpt lat="46.32704" lon="-0.33067">
        <ele>69.4721</ele>
        <time>2011-06-25T17:10:22Z</time>
      </trkpt>
      <trkpt lat="46.32702" lon="-0.33068">
        <ele>69.4791</ele>
        <time>2011-06-25T17:10:23Z</time>
      </trkpt>
      <trkpt lat="46.32701" lon="-0.33069">
        <ele>69.4845</ele>
        <time>2011-06-25T17:10:24Z</time>
      </trkpt>
      <trkpt lat="46.327" lon="-0.3307">
        <ele>69.4976</ele>
        <time>2011-06-25T17:10:25Z</time>
      </trkpt>
      <trkpt lat="46.32698" lon="-0.33072">
        <ele>69.5137</ele>
        <time>2011-06-25T17:10:26Z</time>
      </trkpt>
      <trkpt lat="46.32697" lon="-0.33073">
        <ele>69.5304</ele>
        <time>2011-06-25T17:10:27Z</time>
      </trkpt>
      <trkpt lat="46.32695" lon="-0.33074">
        <ele>69.5463</ele>
        <time>2011-06-25T17:10:28Z</time>
      </trkpt>
      <trkpt lat="46.32694" lon="-0.33076">
        <ele>69.5611</ele>
        <time>2011-06-25T17:10:29Z</time>
      </trkpt>
      <trkpt lat="46.32692" lon="-0.33077">
        <ele>69.5765</ele>
        <time>2011-06-25T17:10:30Z</time>
      </trkpt>
      <trkpt lat="46.32691" lon="-0.33079">
        <ele>69.5922</ele>
        <time>2011-06-25T17:10:31Z</time>
      </trkpt>
      <trkpt lat="46.3269" lon="-0.3308">
        <ele>69.6099</ele>
        <time>2011-06-25T17:10:31Z</time>
      </trkpt>
      <trkpt lat="46.32689" lon="-0.33081">
        <ele>69.6283</ele>
        <time>2011-06-25T17:10:33Z</time>
      </trkpt>
      <trkpt lat="46.32688" lon="-0.33083">
        <ele>69.6462</ele>
        <time>2011-06-25T17:10:34Z</time>
      </trkpt>
      <trkpt lat="46.32687" lon="-0.33084">
        <ele>69.6627</ele>
        <time>2011-06-25T17:10:35Z</time>
      </trkpt>
      <trkpt lat="46.32686" lon="-0.33085">
        <ele>69.6792</ele>
        <time>2011-06-25T17:10:36Z</time>
      </trkpt>
      <trkpt lat="46.32685" lon="-0.33086">
        <ele>69.6998</ele>
        <time>2011-06-25T17:10:37Z</time>
      </trkpt>
      <trkpt lat="46.32684" lon="-0.33087">
        <ele>69.7233</ele>
        <time>2011-06-25T17:10:38Z</time>
      </trkpt>
      <trkpt lat="46.32683" lon="-0.33088">
        <ele>69.7473</ele>
        <time>2011-06-25T17:10:39Z</time>
      </trkpt>
      <trkpt lat="46.32682" lon="-0.3309">
        <ele>69.7704</ele>
        <time>2011-06-25T17:10:40Z</time>
      </trkpt>
      <trkpt lat="46.32681" lon="-0.33091">
        <ele>69.7889</ele>
        <time>2011-06-25T17:10:41Z</time>
      </trkpt>
      <trkpt lat="46.3268" lon="-0.33091">
        <ele>69.8068</ele>
        <time>2011-06-25T17:10:42Z</time>
      </trkpt>
      <trkpt lat="46.32679" lon="-0.33092">
        <ele>69.8252</ele>
        <time>2011-06-25T17:10:43Z</time>
      </trkpt>
      <trkpt lat="46.32678" lon="-0.33093">
        <ele>69.8437</ele>
        <time>2011-06-25T17:10:44Z</time>
      </trkpt>
      <trkpt lat="46.32676" lon="-0.33094">
        <ele>69.8647</ele>
        <time>2011-06-25T17:10:45Z</time>
      </trkpt>
      <trkpt lat="46.32675" lon="-0.33095">
        <ele>69.8886</ele>
        <time>2011-06-25T17:10:46Z</time>
      </trkpt>
      <trkpt lat="46.32674" lon="-0.33095">
        <ele>69.919</ele>
        <time>2011-06-25T17:10:47Z</time>
      </trkpt>
      <trkpt lat="46.32673" lon="-0.33096">
        <ele>69.9494</ele>
        <time>2011-06-25T17:10:48Z</time>
      </trkpt>
      <trkpt lat="46.32671" lon="-0.33096">
        <ele>69.9792</ele>
        <time>2011-06-25T17:10:49Z</time>
      </trkpt>
      <trkpt lat="46.32671" lon="-0.33097">
        <ele>70.0087</ele>
        <time>2011-06-25T17:10:50Z</time>
      </trkpt>
      <trkpt lat="46.32669" lon="-0.33098">
        <ele>70.0395</ele>
        <time>2011-06-25T17:10:51Z</time>
      </trkpt>
      <trkpt lat="46.32668" lon="-0.33099">
        <ele>70.0777</ele>
        <time>2011-06-25T17:10:52Z</time>
      </trkpt>
      <trkpt lat="46.32666" lon="-0.33099">
        <ele>70.1206</ele>
        <time>2011-06-25T17:10:53Z</time>
      </trkpt>
      <trkpt lat="46.32665" lon="-0.33099">
        <ele>70.1633</ele>
        <time>2011-06-25T17:10:54Z</time>
      </trkpt>
      <trkpt lat="46.32663" lon="-0.331">
        <ele>70.2048</ele>
        <time>2011-06-25T17:10:55Z</time>
      </trkpt>
      <trkpt lat="46.32662" lon="-0.33101">
        <ele>70.2476</ele>
        <time>2011-06-25T17:10:56Z</time>
      </trkpt>
      <trkpt lat="46.32661" lon="-0.33102">
        <ele>70.2945</ele>
        <time>2011-06-25T17:10:57Z</time>
      </trkpt>
      <trkpt lat="46.3266" lon="-0.33102">
        <ele>70.3398</ele>
        <time>2011-06-25T17:10:58Z</time>
      </trkpt>
      <trkpt lat="46.32658" lon="-0.33103">
        <ele>70.384</ele>
        <time>2011-06-25T17:10:59Z</time>
      </trkpt>
      <trkpt lat="46.32657" lon="-0.33104">
        <ele>70.4272</ele>
        <time>2011-06-25T17:11:00Z</time>
      </trkpt>
      <trkpt lat="46.32655" lon="-0.33105">
        <ele>70.4752</ele>
        <time>2011-06-25T17:11:01Z</time>
      </trkpt>
      <trkpt lat="46.32654" lon="-0.33106">
        <ele>70.5246</ele>
        <time>2011-06-25T17:11:02Z</time>
      </trkpt>
      <trkpt lat="46.32653" lon="-0.33107">
        <ele>70.576</ele>
        <time>2011-06-25T17:11:03Z</time>
      </trkpt>
      <trkpt lat="46.32651" lon="-0.33108">
        <ele>70.6262</ele>
        <time>2011-06-25T17:11:04Z</time>
      </trkpt>
      <trkpt lat="46.3265" lon="-0.33109">
        <ele>70.676</ele>
        <time>2011-06-25T17:11:05Z</time>
      </trkpt>
      <trkpt lat="46.32649" lon="-0.3311">
        <ele>70.7282</ele>
        <time>2011-06-25T17:11:06Z</time>
      </trkpt>
      <trkpt lat="46.32647" lon="-0.33111">
        <ele>70.7786</ele>
        <time>2011-06-25T17:11:07Z</time>
      </trkpt>
      <trkpt lat="46.32646" lon="-0.33112">
        <ele>70.8265</ele>
        <time>2011-06-25T17:11:08Z</time>
      </trkpt>
      <trkpt lat="46.32645" lon="-0.33113">
        <ele>70.8719</ele>
        <time>2011-06-25T17:11:09Z</time>
      </trkpt>
      <trkpt lat="46.32644" lon="-0.33113">
        <ele>70.9171</ele>
        <time>2011-06-25T17:11:10Z</time>
      </trkpt>
      <trkpt lat="46.32642" lon="-0.33114">
        <ele>70.9631</ele>
        <time>2011-06-25T17:11:11Z</time>
      </trkpt>
      <trkpt lat="46.32641" lon="-0.33115">
        <ele>71.0053</ele>
        <time>2011-06-25T17:11:12Z</time>
      </trkpt>
      <trkpt lat="46.32639" lon="-0.33116">
        <ele>71.0518</ele>
        <time>2011-06-25T17:11:13Z</time>
      </trkpt>
      <trkpt lat="46.32638" lon="-0.33117">
        <ele>71.0998</ele>
        <time>2011-06-25T17:11:14Z</time>
      </trkpt>
      <trkpt lat="46.32637" lon="-0.33118">
        <ele>71.1501</ele>
        <time>2011-06-25T17:11:15Z</time>
      </trkpt>
      <trkpt lat="46.32636" lon="-0.33119">
        <ele>71.2004</ele>
        <time>2011-06-25T17:11:16Z</time>
      </trkpt>
      <trkpt lat="46.32635" lon="-0.3312">
        <ele>71.2558</ele>
        <time>2011-06-25T17:11:17Z</time>
      </trkpt>
      <trkpt lat="46.32633" lon="-0.33121">
        <ele>71.312</ele>
        <time>2011-06-25T17:11:18Z</time>
      </trkpt>
      <trkpt lat="46.32632" lon="-0.33122">
        <ele>71.3698</ele>
        <time>2011-06-25T17:11:19Z</time>
      </trkpt>
      <trkpt lat="46.32631" lon="-0.33123">
        <ele>71.4262</ele>
        <time>2011-06-25T17:11:20Z</time>
      </trkpt>
      <trkpt lat="46.3263" lon="-0.33124">
        <ele>71.4843</ele>
        <time>2011-06-25T17:11:21Z</time>
      </trkpt>
      <trkpt lat="46.32629" lon="-0.33125">
        <ele>71.5413</ele>
        <time>2011-06-25T17:11:22Z</time>
      </trkpt>
      <trkpt lat="46.32627" lon="-0.33126">
        <ele>71.5987</ele>
        <time>2011-06-25T17:11:23Z</time>
      </trkpt>
      <trkpt lat="46.32626" lon="-0.33127">
        <ele>71.6537</ele>
        <time>2011-06-25T17:11:24Z</time>
      </trkpt>
      <trkpt lat="46.32624" lon="-0.33128">
        <ele>71.7064</ele>
        <time>2011-06-25T17:11:24Z</time>
      </trkpt>
      <trkpt lat="46.32623" lon="-0.33129">
        <ele>71.7579</ele>
        <time>2011-06-25T17:11:26Z</time>
      </trkpt>
      <trkpt lat="46.32621" lon="-0.33129">
        <ele>71.8047</ele>
        <time>2011-06-25T17:11:27Z</time>
      </trkpt>
      <trkpt lat="46.3262" lon="-0.3313">
        <ele>71.8484</ele>
        <time>2011-06-25T17:11:28Z</time>
      </trkpt>
      <trkpt lat="46.32619" lon="-0.33131">
        <ele>71.8918</ele>
        <time>2011-06-25T17:11:29Z</time>
      </trkpt>
      <trkpt lat="46.32618" lon="-0.33132">
        <ele>71.9294</ele>
        <time>2011-06-25T17:11:30Z</time>
      </trkpt>
      <trkpt lat="46.32616" lon="-0.33132">
        <ele>71.9639</ele>
        <time>2011-06-25T17:11:31Z</time>
      </trkpt>
      <trkpt lat="46.32615" lon="-0.33133">
        <ele>71.9953</ele>
        <time>2011-06-25T17:11:31Z</time>
      </trkpt>
      <trkpt lat="46.32614" lon="-0.33134">
        <ele>72.0259</ele>
        <time>2011-06-25T17:11:33Z</time>
      </trkpt>
      <trkpt lat="46.32613" lon="-0.33135">
        <ele>72.0559</ele>
        <time>2011-06-25T17:11:34Z</time>
      </trkpt>
      <trkpt lat="46.32612" lon="-0.33135">
        <ele>72.0851</ele>
        <time>2011-06-25T17:11:35Z</time>
      </trkpt>
      <trkpt lat="46.3261" lon="-0.33136">
        <ele>72.117</ele>
        <time>2011-06-25T17:11:36Z</time>
      </trkpt>
      <trkpt lat="46.32609" lon="-0.33136">
        <ele>72.1509</ele>
        <time>2011-06-25T17:11:37Z</time>
      </trkpt>
      <trkpt lat="46.32608" lon="-0.33137">
        <ele>72.1788</ele>
        <time>2011-06-25T17:11:38Z</time>
      </trkpt>
      <trkpt lat="46.32607" lon="-0.33137">
        <ele>72.2077</ele>
        <time>2011-06-25T17:11:39Z</time>
      </trkpt>
      <trkpt lat="46.32606" lon="-0.33137">
        <ele>72.2394</ele>
        <time>2011-06-25T17:11:40Z</time>
      </trkpt>
      <trkpt lat="46.32605" lon="-0.33137">
        <ele>72.2706</ele>
        <time>2011-06-25T17:11:41Z</time>
      </trkpt>
      <trkpt lat="46.32602" lon="-0.33137">
        <ele>72.3595</ele>
        <time>2011-06-25T17:11:45Z</time>
      </trkpt>
      <trkpt lat="46.32601" lon="-0.33137">
        <ele>72.423</ele>
        <time>2011-06-25T17:11:48Z</time>
      </trkpt>
      <trkpt lat="46.326" lon="-0.33138">
        <ele>72.4588</ele>
        <time>2011-06-25T17:11:51Z</time>
      </trkpt>
      <trkpt lat="46.326" lon="-0.33138">
        <ele>72.4916</ele>
        <time>2011-06-25T17:11:52Z</time>
      </trkpt>
      <trkpt lat="46.32599" lon="-0.33138">
        <ele>72.5239</ele>
        <time>2011-06-25T17:11:53Z</time>
      </trkpt>
      <trkpt lat="46.32598" lon="-0.33139">
        <ele>72.5548</ele>
        <time>2011-06-25T17:11:54Z</time>
      </trkpt>
      <trkpt lat="46.32597" lon="-0.3314">
        <ele>72.5813</ele>
        <time>2011-06-25T17:11:55Z</time>
      </trkpt>
      <trkpt lat="46.32596" lon="-0.33141">
        <ele>72.609</ele>
        <time>2011-06-25T17:11:56Z</time>
      </trkpt>
      <trkpt lat="46.32595" lon="-0.33142">
        <ele>72.6362</ele>
        <time>2011-06-25T17:11:57Z</time>
      </trkpt>
      <trkpt lat="46.32594" lon="-0.33143">
        <ele>72.6686</ele>
        <time>2011-06-25T17:11:58Z</time>
      </trkpt>
      <trkpt lat="46.32593" lon="-0.33144">
        <ele>72.7024</ele>
        <time>2011-06-25T17:11:59Z</time>
      </trkpt>
      <trkpt lat="46.32592" lon="-0.33145">
        <ele>72.7356</ele>
        <time>2011-06-25T17:12:00Z</time>
      </trkpt>
      <trkpt lat="46.32591" lon="-0.33147">
        <ele>72.7674</ele>
        <time>2011-06-25T17:12:01Z</time>
      </trkpt>
      <trkpt lat="46.3259" lon="-0.33148">
        <ele>72.8</ele>
        <time>2011-06-25T17:12:02Z</time>
      </trkpt>
      <trkpt lat="46.32589" lon="-0.33149">
        <ele>72.834</ele>
        <time>2011-06-25T17:12:03Z</time>
      </trkpt>
      <trkpt lat="46.32588" lon="-0.3315">
        <ele>72.8689</ele>
        <time>2011-06-25T17:12:03Z</time>
      </trkpt>
      <trkpt lat="46.32587" lon="-0.33151">
        <ele>72.9051</ele>
        <time>2011-06-25T17:12:05Z</time>
      </trkpt>
      <trkpt lat="46.32586" lon="-0.33153">
        <ele>72.9429</ele>
        <time>2011-06-25T17:12:06Z</time>
      </trkpt>
      <trkpt lat="46.32585" lon="-0.33154">
        <ele>72.9816</ele>
        <time>2011-06-25T17:12:07Z</time>
      </trkpt>
      <trkpt lat="46.32584" lon="-0.33155">
        <ele>73.0196</ele>
        <time>2011-06-25T17:12:08Z</time>
      </trkpt>
      <trkpt lat="46.32583" lon="-0.33156">
        <ele>73.0536</ele>
        <time>2011-06-25T17:12:09Z</time>
      </trkpt>
      <trkpt lat="46.32582" lon="-0.33157">
        <ele>73.0881</ele>
        <time>2011-06-25T17:12:10Z</time>
      </trkpt>
      <trkpt lat="46.32581" lon="-0.33159">
        <ele>73.122</ele>
        <time>2011-06-25T17:12:11Z</time>
      </trkpt>
      <trkpt lat="46.32579" lon="-0.3316">
        <ele>73.1553</ele>
        <time>2011-06-25T17:12:12Z</time>
      </trkpt>
      <trkpt lat="46.32578" lon="-0.33161">
        <ele>73.1836</ele>
        <time>2011-06-25T17:12:13Z</time>
      </trkpt>
      <trkpt lat="46.32577" lon="-0.33162">
        <ele>73.2102</ele>
        <time>2011-06-25T17:12:14Z</time>
      </trkpt>
      <trkpt lat="46.32576" lon="-0.33163">
        <ele>73.2173</ele>
        <time>2011-06-25T17:12:15Z</time>
      </trkpt>
      <trkpt lat="46.32575" lon="-0.33164">
        <ele>73.2236</ele>
        <time>2011-06-25T17:12:16Z</time>
      </trkpt>
      <trkpt lat="46.32573" lon="-0.33166">
        <ele>73.228</ele>
        <time>2011-06-25T17:12:17Z</time>
      </trkpt>
      <trkpt lat="46.32572" lon="-0.33167">
        <ele>73.2306</ele>
        <time>2011-06-25T17:12:18Z</time>
      </trkpt>
      <trkpt lat="46.32571" lon="-0.33169">
        <ele>73.2278</ele>
        <time>2011-06-25T17:12:19Z</time>
      </trkpt>
      <trkpt lat="46.3257" lon="-0.3317">
        <ele>73.223</ele>
        <time>2011-06-25T17:12:20Z</time>
      </trkpt>
      <trkpt lat="46.32569" lon="-0.33171">
        <ele>73.1971</ele>
        <time>2011-06-25T17:12:21Z</time>
      </trkpt>
      <trkpt lat="46.32567" lon="-0.33171">
        <ele>73.1758</ele>
        <time>2011-06-25T17:12:22Z</time>
      </trkpt>
      <trkpt lat="46.32565" lon="-0.33171">
        <ele>73.1616</ele>
        <time>2011-06-25T17:12:23Z</time>
      </trkpt>
      <trkpt lat="46.32563" lon="-0.33171">
        <ele>73.1414</ele>
        <time>2011-06-25T17:12:24Z</time>
      </trkpt>
      <trkpt lat="46.32561" lon="-0.33171">
        <ele>73.1266</ele>
        <time>2011-06-25T17:12:25Z</time>
      </trkpt>
      <trkpt lat="46.32558" lon="-0.3317">
        <ele>73.1122</ele>
        <time>2011-06-25T17:12:26Z</time>
      </trkpt>
      <trkpt lat="46.32556" lon="-0.3317">
        <ele>73.1006</ele>
        <time>2011-06-25T17:12:27Z</time>
      </trkpt>
      <trkpt lat="46.32554" lon="-0.3317">
        <ele>73.0911</ele>
        <time>2011-06-25T17:12:28Z</time>
      </trkpt>
      <trkpt lat="46.32552" lon="-0.33169">
        <ele>73.0812</ele>
        <time>2011-06-25T17:12:29Z</time>
      </trkpt>
      <trkpt lat="46.3255" lon="-0.33169">
        <ele>73.0714</ele>
        <time>2011-06-25T17:12:30Z</time>
      </trkpt>
      <trkpt lat="46.32549" lon="-0.33169">
        <ele>73.058</ele>
        <time>2011-06-25T17:12:31Z</time>
      </trkpt>
      <trkpt lat="46.32547" lon="-0.33169">
        <ele>73.0464</ele>
        <time>2011-06-25T17:12:32Z</time>
      </trkpt>
      <trkpt lat="46.32546" lon="-0.33169">
        <ele>73.0351</ele>
        <time>2011-06-25T17:12:33Z</time>
      </trkpt>
      <trkpt lat="46.32544" lon="-0.33169">
        <ele>73.0245</ele>
        <time>2011-06-25T17:12:34Z</time>
      </trkpt>
      <trkpt lat="46.32542" lon="-0.33169">
        <ele>73.0086</ele>
        <time>2011-06-25T17:12:35Z</time>
      </trkpt>
      <trkpt lat="46.32541" lon="-0.3317">
        <ele>72.9945</ele>
        <time>2011-06-25T17:12:36Z</time>
      </trkpt>
      <trkpt lat="46.3254" lon="-0.3317">
        <ele>72.9804</ele>
        <time>2011-06-25T17:12:37Z</time>
      </trkpt>
      <trkpt lat="46.32538" lon="-0.33171">
        <ele>72.9686</ele>
        <time>2011-06-25T17:12:38Z</time>
      </trkpt>
      <trkpt lat="46.32537" lon="-0.33171">
        <ele>72.9571</ele>
        <time>2011-06-25T17:12:39Z</time>
      </trkpt>
      <trkpt lat="46.32536" lon="-0.33171">
        <ele>72.9499</ele>
        <time>2011-06-25T17:12:40Z</time>
      </trkpt>
      <trkpt lat="46.32534" lon="-0.33172">
        <ele>72.9348</ele>
        <time>2011-06-25T17:12:41Z</time>
      </trkpt>
      <trkpt lat="46.32534" lon="-0.33173">
        <ele>72.9194</ele>
        <time>2011-06-25T17:12:42Z</time>
      </trkpt>
      <trkpt lat="46.32533" lon="-0.33173">
        <ele>72.901</ele>
        <time>2011-06-25T17:12:43Z</time>
      </trkpt>
      <trkpt lat="46.32532" lon="-0.33174">
        <ele>72.8806</ele>
        <time>2011-06-25T17:12:44Z</time>
      </trkpt>
      <trkpt lat="46.32531" lon="-0.33175">
        <ele>72.8646</ele>
        <time>2011-06-25T17:12:45Z</time>
      </trkpt>
      <trkpt lat="46.3253" lon="-0.33176">
        <ele>72.8533</ele>
        <time>2011-06-25T17:12:46Z</time>
      </trkpt>
      <trkpt lat="46.3253" lon="-0.33177">
        <ele>72.8419</ele>
        <time>2011-06-25T17:12:47Z</time>
      </trkpt>
      <trkpt lat="46.32529" lon="-0.33179">
        <ele>72.826</ele>
        <time>2011-06-25T17:12:48Z</time>
      </trkpt>
      <trkpt lat="46.32529" lon="-0.3318">
        <ele>72.8101</ele>
        <time>2011-06-25T17:12:49Z</time>
      </trkpt>
      <trkpt lat="46.32529" lon="-0.33182">
        <ele>72.7973</ele>
        <time>2011-06-25T17:12:50Z</time>
      </trkpt>
      <trkpt lat="46.32529" lon="-0.33184">
        <ele>72.7845</ele>
        <time>2011-06-25T17:12:51Z</time>
      </trkpt>
      <trkpt lat="46.32529" lon="-0.33185">
        <ele>72.7696</ele>
        <time>2011-06-25T17:12:52Z</time>
      </trkpt>
      <trkpt lat="46.32529" lon="-0.33187">
        <ele>72.759</ele>
        <time>2011-06-25T17:12:53Z</time>
      </trkpt>
      <trkpt lat="46.32529" lon="-0.33188">
        <ele>72.7477</ele>
        <time>2011-06-25T17:12:54Z</time>
      </trkpt>
      <trkpt lat="46.32529" lon="-0.3319">
        <ele>72.7383</ele>
        <time>2011-06-25T17:12:55Z</time>
      </trkpt>
      <trkpt lat="46.32529" lon="-0.33191">
        <ele>72.7317</ele>
        <time>2011-06-25T17:12:56Z</time>
      </trkpt>
      <trkpt lat="46.32529" lon="-0.33193">
        <ele>72.7293</ele>
        <time>2011-06-25T17:12:57Z</time>
      </trkpt>
      <trkpt lat="46.32529" lon="-0.33195">
        <ele>72.733</ele>
        <time>2011-06-25T17:12:58Z</time>
      </trkpt>
      <trkpt lat="46.32529" lon="-0.33197">
        <ele>72.7419</ele>
        <time>2011-06-25T17:12:59Z</time>
      </trkpt>
      <trkpt lat="46.32529" lon="-0.33199">
        <ele>72.751</ele>
        <time>2011-06-25T17:13:00Z</time>
      </trkpt>
      <trkpt lat="46.32529" lon="-0.33201">
        <ele>72.7592</ele>
        <time>2011-06-25T17:13:01Z</time>
      </trkpt>
      <trkpt lat="46.32529" lon="-0.33203">
        <ele>72.7668</ele>
        <time>2011-06-25T17:13:02Z</time>
      </trkpt>
      <trkpt lat="46.32528" lon="-0.33205">
        <ele>72.7754</ele>
        <time>2011-06-25T17:13:03Z</time>
      </trkpt>
      <trkpt lat="46.32527" lon="-0.33207">
        <ele>72.7829</ele>
        <time>2011-06-25T17:13:04Z</time>
      </trkpt>
      <trkpt lat="46.32526" lon="-0.33208">
        <ele>72.7864</ele>
        <time>2011-06-25T17:13:05Z</time>
      </trkpt>
      <trkpt lat="46.32526" lon="-0.3321">
        <ele>72.7938</ele>
        <time>2011-06-25T17:13:06Z</time>
      </trkpt>
      <trkpt lat="46.32525" lon="-0.33212">
        <ele>72.7982</ele>
        <time>2011-06-25T17:13:07Z</time>
      </trkpt>
      <trkpt lat="46.32524" lon="-0.33214">
        <ele>72.8046</ele>
        <time>2011-06-25T17:13:08Z</time>
      </trkpt>
      <trkpt lat="46.32523" lon="-0.33215">
        <ele>72.8107</ele>
        <time>2011-06-25T17:13:09Z</time>
      </trkpt>
      <trkpt lat="46.32522" lon="-0.33217">
        <ele>72.814</ele>
        <time>2011-06-25T17:13:10Z</time>
      </trkpt>
      <trkpt lat="46.32521" lon="-0.33218">
        <ele>72.818</ele>
        <time>2011-06-25T17:13:11Z</time>
      </trkpt>
      <trkpt lat="46.3252" lon="-0.33219">
        <ele>72.8214</ele>
        <time>2011-06-25T17:13:12Z</time>
      </trkpt>
      <trkpt lat="46.32518" lon="-0.3322">
        <ele>72.8208</ele>
        <time>2011-06-25T17:13:13Z</time>
      </trkpt>
      <trkpt lat="46.32518" lon="-0.33222">
        <ele>72.8209</ele>
        <time>2011-06-25T17:13:14Z</time>
      </trkpt>
      <trkpt lat="46.32517" lon="-0.33223">
        <ele>72.8151</ele>
        <time>2011-06-25T17:13:15Z</time>
      </trkpt>
      <trkpt lat="46.32516" lon="-0.33225">
        <ele>72.8053</ele>
        <time>2011-06-25T17:13:16Z</time>
      </trkpt>
      <trkpt lat="46.32515" lon="-0.33227">
        <ele>72.7953</ele>
        <time>2011-06-25T17:13:17Z</time>
      </trkpt>
      <trkpt lat="46.32514" lon="-0.33229">
        <ele>72.7862</ele>
        <time>2011-06-25T17:13:18Z</time>
      </trkpt>
      <trkpt lat="46.32513" lon="-0.33231">
        <ele>72.7796</ele>
        <time>2011-06-25T17:13:19Z</time>
      </trkpt>
      <trkpt lat="46.32513" lon="-0.33232">
        <ele>72.775</ele>
        <time>2011-06-25T17:13:20Z</time>
      </trkpt>
      <trkpt lat="46.32512" lon="-0.33234">
        <ele>72.764</ele>
        <time>2011-06-25T17:13:21Z</time>
      </trkpt>
      <trkpt lat="46.32511" lon="-0.33236">
        <ele>72.7461</ele>
        <time>2011-06-25T17:13:22Z</time>
      </trkpt>
      <trkpt lat="46.3251" lon="-0.33238">
        <ele>72.7269</ele>
        <time>2011-06-25T17:13:23Z</time>
      </trkpt>
      <trkpt lat="46.32509" lon="-0.3324">
        <ele>72.7045</ele>
        <time>2011-06-25T17:13:24Z</time>
      </trkpt>
      <trkpt lat="46.32508" lon="-0.33241">
        <ele>72.6817</ele>
        <time>2011-06-25T17:13:25Z</time>
      </trkpt>
      <trkpt lat="46.32507" lon="-0.33242">
        <ele>72.6582</ele>
        <time>2011-06-25T17:13:26Z</time>
      </trkpt>
      <trkpt lat="46.32505" lon="-0.33243">
        <ele>72.6327</ele>
        <time>2011-06-25T17:13:27Z</time>
      </trkpt>
      <trkpt lat="46.32504" lon="-0.33244">
        <ele>72.6096</ele>
        <time>2011-06-25T17:13:28Z</time>
      </trkpt>
      <trkpt lat="46.32503" lon="-0.33245">
        <ele>72.5872</ele>
        <time>2011-06-25T17:13:29Z</time>
      </trkpt>
      <trkpt lat="46.32502" lon="-0.33246">
        <ele>72.5652</ele>
        <time>2011-06-25T17:13:30Z</time>
      </trkpt>
      <trkpt lat="46.32501" lon="-0.33248">
        <ele>72.5402</ele>
        <time>2011-06-25T17:13:31Z</time>
      </trkpt>
      <trkpt lat="46.32499" lon="-0.33249">
        <ele>72.5168</ele>
        <time>2011-06-25T17:13:32Z</time>
      </trkpt>
      <trkpt lat="46.32498" lon="-0.33251">
        <ele>72.4906</ele>
        <time>2011-06-25T17:13:33Z</time>
      </trkpt>
      <trkpt lat="46.32497" lon="-0.33252">
        <ele>72.465</ele>
        <time>2011-06-25T17:13:34Z</time>
      </trkpt>
      <trkpt lat="46.32496" lon="-0.33253">
        <ele>72.44</ele>
        <time>2011-06-25T17:13:35Z</time>
      </trkpt>
      <trkpt lat="46.32494" lon="-0.33254">
        <ele>72.4149</ele>
        <time>2011-06-25T17:13:36Z</time>
      </trkpt>
      <trkpt lat="46.32493" lon="-0.33255">
        <ele>72.3917</ele>
        <time>2011-06-25T17:13:37Z</time>
      </trkpt>
      <trkpt lat="46.32492" lon="-0.33256">
        <ele>72.3656</ele>
        <time>2011-06-25T17:13:38Z</time>
      </trkpt>
      <trkpt lat="46.32491" lon="-0.33257">
        <ele>72.3363</ele>
        <time>2011-06-25T17:13:39Z</time>
      </trkpt>
      <trkpt lat="46.3249" lon="-0.33258">
        <ele>72.3063</ele>
        <time>2011-06-25T17:13:40Z</time>
      </trkpt>
      <trkpt lat="46.32488" lon="-0.33259">
        <ele>72.2764</ele>
        <time>2011-06-25T17:13:41Z</time>
      </trkpt>
      <trkpt lat="46.32487" lon="-0.3326">
        <ele>72.2487</ele>
        <time>2011-06-25T17:13:42Z</time>
      </trkpt>
      <trkpt lat="46.32486" lon="-0.33261">
        <ele>72.2205</ele>
        <time>2011-06-25T17:13:43Z</time>
      </trkpt>
      <trkpt lat="46.32485" lon="-0.33261">
        <ele>72.1884</ele>
        <time>2011-06-25T17:13:44Z</time>
      </trkpt>
      <trkpt lat="46.32484" lon="-0.33263">
        <ele>72.1487</ele>
        <time>2011-06-25T17:13:45Z</time>
      </trkpt>
      <trkpt lat="46.32483" lon="-0.33264">
        <ele>72.0993</ele>
        <time>2011-06-25T17:13:46Z</time>
      </trkpt>
      <trkpt lat="46.32482" lon="-0.33265">
        <ele>72.0356</ele>
        <time>2011-06-25T17:13:47Z</time>
      </trkpt>
      <trkpt lat="46.32481" lon="-0.33267">
        <ele>71.965</ele>
        <time>2011-06-25T17:13:48Z</time>
      </trkpt>
      <trkpt lat="46.3248" lon="-0.33268">
        <ele>71.8966</ele>
        <time>2011-06-25T17:13:49Z</time>
      </trkpt>
      <trkpt lat="46.32478" lon="-0.3327">
        <ele>71.8255</ele>
        <time>2011-06-25T17:13:50Z</time>
      </trkpt>
      <trkpt lat="46.32477" lon="-0.3327">
        <ele>71.7556</ele>
        <time>2011-06-25T17:13:51Z</time>
      </trkpt>
      <trkpt lat="46.32476" lon="-0.33271">
        <ele>71.6871</ele>
        <time>2011-06-25T17:13:52Z</time>
      </trkpt>
      <trkpt lat="46.32474" lon="-0.33273">
        <ele>71.6202</ele>
        <time>2011-06-25T17:13:53Z</time>
      </trkpt>
      <trkpt lat="46.32473" lon="-0.33274">
        <ele>71.5528</ele>
        <time>2011-06-25T17:13:54Z</time>
      </trkpt>
      <trkpt lat="46.32472" lon="-0.33274">
        <ele>71.4898</ele>
        <time>2011-06-25T17:13:55Z</time>
      </trkpt>
      <trkpt lat="46.32471" lon="-0.33275">
        <ele>71.431</ele>
        <time>2011-06-25T17:13:56Z</time>
      </trkpt>
      <trkpt lat="46.3247" lon="-0.33276">
        <ele>71.3776</ele>
        <time>2011-06-25T17:13:56Z</time>
      </trkpt>
      <trkpt lat="46.32468" lon="-0.33277">
        <ele>71.3238</ele>
        <time>2011-06-25T17:13:58Z</time>
      </trkpt>
      <trkpt lat="46.32467" lon="-0.33277">
        <ele>71.2741</ele>
        <time>2011-06-25T17:13:59Z</time>
      </trkpt>
      <trkpt lat="46.32466" lon="-0.33278">
        <ele>71.2283</ele>
        <time>2011-06-25T17:14:00Z</time>
      </trkpt>
      <trkpt lat="46.32465" lon="-0.33279">
        <ele>71.1839</ele>
        <time>2011-06-25T17:14:01Z</time>
      </trkpt>
      <trkpt lat="46.32464" lon="-0.33279">
        <ele>71.1385</ele>
        <time>2011-06-25T17:14:02Z</time>
      </trkpt>
      <trkpt lat="46.32463" lon="-0.3328">
        <ele>71.0938</ele>
        <time>2011-06-25T17:14:03Z</time>
      </trkpt>
      <trkpt lat="46.32461" lon="-0.3328">
        <ele>71.0492</ele>
        <time>2011-06-25T17:14:04Z</time>
      </trkpt>
      <trkpt lat="46.3246" lon="-0.33281">
        <ele>71.0044</ele>
        <time>2011-06-25T17:14:05Z</time>
      </trkpt>
      <trkpt lat="46.32459" lon="-0.33281">
        <ele>70.9602</ele>
        <time>2011-06-25T17:14:06Z</time>
      </trkpt>
      <trkpt lat="46.32457" lon="-0.33282">
        <ele>70.9163</ele>
        <time>2011-06-25T17:14:06Z</time>
      </trkpt>
      <trkpt lat="46.32456" lon="-0.33283">
        <ele>70.8737</ele>
        <time>2011-06-25T17:14:07Z</time>
      </trkpt>
      <trkpt lat="46.32454" lon="-0.33284">
        <ele>70.8325</ele>
        <time>2011-06-25T17:14:08Z</time>
      </trkpt>
      <trkpt lat="46.32453" lon="-0.33284">
        <ele>70.7924</ele>
        <time>2011-06-25T17:14:10Z</time>
      </trkpt>
      <trkpt lat="46.32452" lon="-0.33285">
        <ele>70.7533</ele>
        <time>2011-06-25T17:14:11Z</time>
      </trkpt>
      <trkpt lat="46.32451" lon="-0.33286">
        <ele>70.719</ele>
        <time>2011-06-25T17:14:11Z</time>
      </trkpt>
      <trkpt lat="46.32449" lon="-0.33287">
        <ele>70.6885</ele>
        <time>2011-06-25T17:14:12Z</time>
      </trkpt>
      <trkpt lat="46.32448" lon="-0.33287">
        <ele>70.6591</ele>
        <time>2011-06-25T17:14:14Z</time>
      </trkpt>
      <trkpt lat="46.32447" lon="-0.33288">
        <ele>70.632</ele>
        <time>2011-06-25T17:14:15Z</time>
      </trkpt>
      <trkpt lat="46.32446" lon="-0.33288">
        <ele>70.6041</ele>
        <time>2011-06-25T17:14:16Z</time>
      </trkpt>
      <trkpt lat="46.32445" lon="-0.33288">
        <ele>70.5765</ele>
        <time>2011-06-25T17:14:17Z</time>
      </trkpt>
      <trkpt lat="46.32444" lon="-0.33289">
        <ele>70.5495</ele>
        <time>2011-06-25T17:14:18Z</time>
      </trkpt>
      <trkpt lat="46.32443" lon="-0.3329">
        <ele>70.5229</ele>
        <time>2011-06-25T17:14:19Z</time>
      </trkpt>
      <trkpt lat="46.32442" lon="-0.33291">
        <ele>70.4973</ele>
        <time>2011-06-25T17:14:20Z</time>
      </trkpt>
      <trkpt lat="46.32441" lon="-0.33292">
        <ele>70.4722</ele>
        <time>2011-06-25T17:14:21Z</time>
      </trkpt>
      <trkpt lat="46.32439" lon="-0.33293">
        <ele>70.4483</ele>
        <time>2011-06-25T17:14:22Z</time>
      </trkpt>
      <trkpt lat="46.32438" lon="-0.33294">
        <ele>70.4252</ele>
        <time>2011-06-25T17:14:23Z</time>
      </trkpt>
      <trkpt lat="46.32437" lon="-0.33295">
        <ele>70.4019</ele>
        <time>2011-06-25T17:14:24Z</time>
      </trkpt>
      <trkpt lat="46.32436" lon="-0.33296">
        <ele>70.3791</ele>
        <time>2011-06-25T17:14:25Z</time>
      </trkpt>
      <trkpt lat="46.32435" lon="-0.33297">
        <ele>70.3529</ele>
        <time>2011-06-25T17:14:26Z</time>
      </trkpt>
      <trkpt lat="46.32433" lon="-0.33299">
        <ele>70.3241</ele>
        <time>2011-06-25T17:14:27Z</time>
      </trkpt>
      <trkpt lat="46.32432" lon="-0.33299">
        <ele>70.2978</ele>
        <time>2011-06-25T17:14:28Z</time>
      </trkpt>
      <trkpt lat="46.3243" lon="-0.333">
        <ele>70.2724</ele>
        <time>2011-06-25T17:14:29Z</time>
      </trkpt>
      <trkpt lat="46.32429" lon="-0.33302">
        <ele>70.2486</ele>
        <time>2011-06-25T17:14:30Z</time>
      </trkpt>
      <trkpt lat="46.32428" lon="-0.33303">
        <ele>70.226</ele>
        <time>2011-06-25T17:14:31Z</time>
      </trkpt>
      <trkpt lat="46.32427" lon="-0.33304">
        <ele>70.2058</ele>
        <time>2011-06-25T17:14:32Z</time>
      </trkpt>
      <trkpt lat="46.32425" lon="-0.33305">
        <ele>70.1897</ele>
        <time>2011-06-25T17:14:33Z</time>
      </trkpt>
      <trkpt lat="46.32424" lon="-0.33306">
        <ele>70.175</ele>
        <time>2011-06-25T17:14:34Z</time>
      </trkpt>
      <trkpt lat="46.32423" lon="-0.33307">
        <ele>70.1645</ele>
        <time>2011-06-25T17:14:35Z</time>
      </trkpt>
      <trkpt lat="46.32422" lon="-0.33308">
        <ele>70.1542</ele>
        <time>2011-06-25T17:14:36Z</time>
      </trkpt>
      <trkpt lat="46.32421" lon="-0.33309">
        <ele>70.145</ele>
        <time>2011-06-25T17:14:37Z</time>
      </trkpt>
      <trkpt lat="46.3242" lon="-0.3331">
        <ele>70.1382</ele>
        <time>2011-06-25T17:14:38Z</time>
      </trkpt>
      <trkpt lat="46.32418" lon="-0.33312">
        <ele>70.1346</ele>
        <time>2011-06-25T17:14:39Z</time>
      </trkpt>
      <trkpt lat="46.32417" lon="-0.33313">
        <ele>70.1336</ele>
        <time>2011-06-25T17:14:40Z</time>
      </trkpt>
      <trkpt lat="46.32416" lon="-0.33314">
        <ele>70.1329</ele>
        <time>2011-06-25T17:14:41Z</time>
      </trkpt>
      <trkpt lat="46.32414" lon="-0.33315">
        <ele>70.1383</ele>
        <time>2011-06-25T17:14:42Z</time>
      </trkpt>
      <trkpt lat="46.32413" lon="-0.33316">
        <ele>70.1449</ele>
        <time>2011-06-25T17:14:43Z</time>
      </trkpt>
      <trkpt lat="46.32412" lon="-0.33317">
        <ele>70.15</ele>
        <time>2011-06-25T17:14:43Z</time>
      </trkpt>
      <trkpt lat="46.3241" lon="-0.33318">
        <ele>70.1676</ele>
        <time>2011-06-25T17:14:45Z</time>
      </trkpt>
      <trkpt lat="46.32409" lon="-0.33319">
        <ele>70.1945</ele>
        <time>2011-06-25T17:14:46Z</time>
      </trkpt>
      <trkpt lat="46.32408" lon="-0.3332">
        <ele>70.2204</ele>
        <time>2011-06-25T17:14:47Z</time>
      </trkpt>
      <trkpt lat="46.32407" lon="-0.33321">
        <ele>70.2524</ele>
        <time>2011-06-25T17:14:48Z</time>
      </trkpt>
      <trkpt lat="46.32406" lon="-0.33322">
        <ele>70.2835</ele>
        <time>2011-06-25T17:14:49Z</time>
      </trkpt>
      <trkpt lat="46.32405" lon="-0.33324">
        <ele>70.314</ele>
        <time>2011-06-25T17:14:50Z</time>
      </trkpt>
      <trkpt lat="46.32404" lon="-0.33325">
        <ele>70.3436</ele>
        <time>2011-06-25T17:14:51Z</time>
      </trkpt>
      <trkpt lat="46.32402" lon="-0.33327">
        <ele>70.3722</ele>
        <time>2011-06-25T17:14:52Z</time>
      </trkpt>
      <trkpt lat="46.32402" lon="-0.33328">
        <ele>70.4009</ele>
        <time>2011-06-25T17:14:53Z</time>
      </trkpt>
      <trkpt lat="46.32401" lon="-0.3333">
        <ele>70.4291</ele>
        <time>2011-06-25T17:14:54Z</time>
      </trkpt>
      <trkpt lat="46.324" lon="-0.33331">
        <ele>70.4575</ele>
        <time>2011-06-25T17:14:55Z</time>
      </trkpt>
      <trkpt lat="46.32399" lon="-0.33333">
        <ele>70.4839</ele>
        <time>2011-06-25T17:14:56Z</time>
      </trkpt>
      <trkpt lat="46.32398" lon="-0.33335">
        <ele>70.5108</ele>
        <time>2011-06-25T17:14:57Z</time>
      </trkpt>
      <trkpt lat="46.32397" lon="-0.33337">
        <ele>70.5374</ele>
        <time>2011-06-25T17:14:58Z</time>
      </trkpt>
      <trkpt lat="46.32396" lon="-0.33339">
        <ele>70.5641</ele>
        <time>2011-06-25T17:14:59Z</time>
      </trkpt>
      <trkpt lat="46.32394" lon="-0.33341">
        <ele>70.5923</ele>
        <time>2011-06-25T17:15:00Z</time>
      </trkpt>
      <trkpt lat="46.32394" lon="-0.33342">
        <ele>70.6224</ele>
        <time>2011-06-25T17:15:01Z</time>
      </trkpt>
      <trkpt lat="46.32393" lon="-0.33344">
        <ele>70.6518</ele>
        <time>2011-06-25T17:15:02Z</time>
      </trkpt>
      <trkpt lat="46.32392" lon="-0.33345">
        <ele>70.6812</ele>
        <time>2011-06-25T17:15:03Z</time>
      </trkpt>
      <trkpt lat="46.32391" lon="-0.33347">
        <ele>70.7105</ele>
        <time>2011-06-25T17:15:04Z</time>
      </trkpt>
      <trkpt lat="46.3239" lon="-0.33349">
        <ele>70.7402</ele>
        <time>2011-06-25T17:15:05Z</time>
      </trkpt>
      <trkpt lat="46.3239" lon="-0.3335">
        <ele>70.7675</ele>
        <time>2011-06-25T17:15:06Z</time>
      </trkpt>
      <trkpt lat="46.32389" lon="-0.33352">
        <ele>70.7944</ele>
        <time>2011-06-25T17:15:07Z</time>
      </trkpt>
      <trkpt lat="46.32388" lon="-0.33354">
        <ele>70.819</ele>
        <time>2011-06-25T17:15:08Z</time>
      </trkpt>
      <trkpt lat="46.32387" lon="-0.33355">
        <ele>70.8464</ele>
        <time>2011-06-25T17:15:09Z</time>
      </trkpt>
      <trkpt lat="46.32386" lon="-0.33357">
        <ele>70.876</ele>
        <time>2011-06-25T17:15:10Z</time>
      </trkpt>
      <trkpt lat="46.32385" lon="-0.33358">
        <ele>70.9085</ele>
        <time>2011-06-25T17:15:11Z</time>
      </trkpt>
      <trkpt lat="46.32384" lon="-0.33359">
        <ele>70.9411</ele>
        <time>2011-06-25T17:15:12Z</time>
      </trkpt>
      <trkpt lat="46.32383" lon="-0.33361">
        <ele>70.9738</ele>
        <time>2011-06-25T17:15:13Z</time>
      </trkpt>
      <trkpt lat="46.32381" lon="-0.33363">
        <ele>71.0052</ele>
        <time>2011-06-25T17:15:14Z</time>
      </trkpt>
      <trkpt lat="46.32381" lon="-0.33364">
        <ele>71.0372</ele>
        <time>2011-06-25T17:15:15Z</time>
      </trkpt>
      <trkpt lat="46.3238" lon="-0.33366">
        <ele>71.0709</ele>
        <time>2011-06-25T17:15:16Z</time>
      </trkpt>
      <trkpt lat="46.32379" lon="-0.33367">
        <ele>71.103</ele>
        <time>2011-06-25T17:15:17Z</time>
      </trkpt>
      <trkpt lat="46.32378" lon="-0.33369">
        <ele>71.1318</ele>
        <time>2011-06-25T17:15:18Z</time>
      </trkpt>
      <trkpt lat="46.32377" lon="-0.3337">
        <ele>71.1568</ele>
        <time>2011-06-25T17:15:19Z</time>
      </trkpt>
      <trkpt lat="46.32377" lon="-0.33372">
        <ele>71.1804</ele>
        <time>2011-06-25T17:15:20Z</time>
      </trkpt>
      <trkpt lat="46.32376" lon="-0.33373">
        <ele>71.2034</ele>
        <time>2011-06-25T17:15:21Z</time>
      </trkpt>
      <trkpt lat="46.32375" lon="-0.33375">
        <ele>71.2254</ele>
        <time>2011-06-25T17:15:22Z</time>
      </trkpt>
      <trkpt lat="46.32373" lon="-0.33376">
        <ele>71.2469</ele>
        <time>2011-06-25T17:15:23Z</time>
      </trkpt>
      <trkpt lat="46.32373" lon="-0.33377">
        <ele>71.2668</ele>
        <time>2011-06-25T17:15:24Z</time>
      </trkpt>
      <trkpt lat="46.32372" lon="-0.33379">
        <ele>71.2851</ele>
        <time>2011-06-25T17:15:25Z</time>
      </trkpt>
      <trkpt lat="46.32371" lon="-0.3338">
        <ele>71.3041</ele>
        <time>2011-06-25T17:15:26Z</time>
      </trkpt>
      <trkpt lat="46.3237" lon="-0.33382">
        <ele>71.3228</ele>
        <time>2011-06-25T17:15:27Z</time>
      </trkpt>
      <trkpt lat="46.32369" lon="-0.33383">
        <ele>71.341</ele>
        <time>2011-06-25T17:15:28Z</time>
      </trkpt>
      <trkpt lat="46.32368" lon="-0.33385">
        <ele>71.3589</ele>
        <time>2011-06-25T17:15:29Z</time>
      </trkpt>
      <trkpt lat="46.32367" lon="-0.33385">
        <ele>71.3768</ele>
        <time>2011-06-25T17:15:30Z</time>
      </trkpt>
      <trkpt lat="46.32367" lon="-0.33386">
        <ele>71.4115</ele>
        <time>2011-06-25T17:15:31Z</time>
      </trkpt>
      <trkpt lat="46.32366" lon="-0.33386">
        <ele>71.4452</ele>
        <time>2011-06-25T17:15:32Z</time>
      </trkpt>
      <trkpt lat="46.32365" lon="-0.33387">
        <ele>71.4883</ele>
        <time>2011-06-25T17:15:33Z</time>
      </trkpt>
      <trkpt lat="46.32364" lon="-0.33388">
        <ele>71.5281</ele>
        <time>2011-06-25T17:15:34Z</time>
      </trkpt>
      <trkpt lat="46.32364" lon="-0.33389">
        <ele>71.5615</ele>
        <time>2011-06-25T17:15:35Z</time>
      </trkpt>
      <trkpt lat="46.32362" lon="-0.3339">
        <ele>71.5952</ele>
        <time>2011-06-25T17:15:36Z</time>
      </trkpt>
      <trkpt lat="46.32361" lon="-0.33391">
        <ele>71.6295</ele>
        <time>2011-06-25T17:15:36Z</time>
      </trkpt>
      <trkpt lat="46.3236" lon="-0.33392">
        <ele>71.6604</ele>
        <time>2011-06-25T17:15:37Z</time>
      </trkpt>
      <trkpt lat="46.32359" lon="-0.33393">
        <ele>71.6948</ele>
        <time>2011-06-25T17:15:39Z</time>
      </trkpt>
      <trkpt lat="46.32358" lon="-0.33394">
        <ele>71.7334</ele>
        <time>2011-06-25T17:15:40Z</time>
      </trkpt>
      <trkpt lat="46.32357" lon="-0.33395">
        <ele>71.7687</ele>
        <time>2011-06-25T17:15:41Z</time>
      </trkpt>
      <trkpt lat="46.32356" lon="-0.33397">
        <ele>71.8064</ele>
        <time>2011-06-25T17:15:42Z</time>
      </trkpt>
      <trkpt lat="46.32355" lon="-0.33399">
        <ele>71.8442</ele>
        <time>2011-06-25T17:15:43Z</time>
      </trkpt>
      <trkpt lat="46.32354" lon="-0.334">
        <ele>71.882</ele>
        <time>2011-06-25T17:15:44Z</time>
      </trkpt>
      <trkpt lat="46.32354" lon="-0.33402">
        <ele>71.9137</ele>
        <time>2011-06-25T17:15:45Z</time>
      </trkpt>
      <trkpt lat="46.32353" lon="-0.33404">
        <ele>71.945</ele>
        <time>2011-06-25T17:15:46Z</time>
      </trkpt>
      <trkpt lat="46.32352" lon="-0.33406">
        <ele>71.977</ele>
        <time>2011-06-25T17:15:47Z</time>
      </trkpt>
      <trkpt lat="46.32351" lon="-0.33407">
        <ele>72.0085</ele>
        <time>2011-06-25T17:15:48Z</time>
      </trkpt>
      <trkpt lat="46.3235" lon="-0.33409">
        <ele>72.0391</ele>
        <time>2011-06-25T17:15:49Z</time>
      </trkpt>
      <trkpt lat="46.32349" lon="-0.3341">
        <ele>72.0704</ele>
        <time>2011-06-25T17:15:50Z</time>
      </trkpt>
      <trkpt lat="46.32348" lon="-0.33412">
        <ele>72.1022</ele>
        <time>2011-06-25T17:15:51Z</time>
      </trkpt>
      <trkpt lat="46.32347" lon="-0.33414">
        <ele>72.1312</ele>
        <time>2011-06-25T17:15:52Z</time>
      </trkpt>
      <trkpt lat="46.32346" lon="-0.33415">
        <ele>72.1599</ele>
        <time>2011-06-25T17:15:53Z</time>
      </trkpt>
      <trkpt lat="46.32345" lon="-0.33417">
        <ele>72.1924</ele>
        <time>2011-06-25T17:15:54Z</time>
      </trkpt>
      <trkpt lat="46.32344" lon="-0.33418">
        <ele>72.219</ele>
        <time>2011-06-25T17:15:55Z</time>
      </trkpt>
      <trkpt lat="46.32343" lon="-0.3342">
        <ele>72.2443</ele>
        <time>2011-06-25T17:15:56Z</time>
      </trkpt>
      <trkpt lat="46.32343" lon="-0.33421">
        <ele>72.272</ele>
        <time>2011-06-25T17:15:57Z</time>
      </trkpt>
      <trkpt lat="46.32342" lon="-0.33423">
        <ele>72.2987</ele>
        <time>2011-06-25T17:15:58Z</time>
      </trkpt>
      <trkpt lat="46.32341" lon="-0.33425">
        <ele>72.3264</ele>
        <time>2011-06-25T17:15:59Z</time>
      </trkpt>
      <trkpt lat="46.3234" lon="-0.33426">
        <ele>72.3551</ele>
        <time>2011-06-25T17:16:00Z</time>
      </trkpt>
      <trkpt lat="46.3234" lon="-0.33428">
        <ele>72.3809</ele>
        <time>2011-06-25T17:16:01Z</time>
      </trkpt>
      <trkpt lat="46.32339" lon="-0.33429">
        <ele>72.4054</ele>
        <time>2011-06-25T17:16:02Z</time>
      </trkpt>
      <trkpt lat="46.32338" lon="-0.33431">
        <ele>72.4303</ele>
        <time>2011-06-25T17:16:03Z</time>
      </trkpt>
      <trkpt lat="46.32337" lon="-0.33432">
        <ele>72.4536</ele>
        <time>2011-06-25T17:16:04Z</time>
      </trkpt>
      <trkpt lat="46.32336" lon="-0.33434">
        <ele>72.4766</ele>
        <time>2011-06-25T17:16:05Z</time>
      </trkpt>
      <trkpt lat="46.32335" lon="-0.33435">
        <ele>72.4972</ele>
        <time>2011-06-25T17:16:06Z</time>
      </trkpt>
      <trkpt lat="46.32334" lon="-0.33437">
        <ele>72.5134</ele>
        <time>2011-06-25T17:16:07Z</time>
      </trkpt>
      <trkpt lat="46.32333" lon="-0.33439">
        <ele>72.5316</ele>
        <time>2011-06-25T17:16:08Z</time>
      </trkpt>
      <trkpt lat="46.32332" lon="-0.3344">
        <ele>72.5502</ele>
        <time>2011-06-25T17:16:09Z</time>
      </trkpt>
      <trkpt lat="46.32331" lon="-0.33442">
        <ele>72.5686</ele>
        <time>2011-06-25T17:16:10Z</time>
      </trkpt>
      <trkpt lat="46.3233" lon="-0.33443">
        <ele>72.5863</ele>
        <time>2011-06-25T17:16:10Z</time>
      </trkpt>
      <trkpt lat="46.32329" lon="-0.33445">
        <ele>72.6026</ele>
        <time>2011-06-25T17:16:12Z</time>
      </trkpt>
      <trkpt lat="46.32328" lon="-0.33446">
        <ele>72.6165</ele>
        <time>2011-06-25T17:16:13Z</time>
      </trkpt>
      <trkpt lat="46.32328" lon="-0.33447">
        <ele>72.6308</ele>
        <time>2011-06-25T17:16:14Z</time>
      </trkpt>
      <trkpt lat="46.32327" lon="-0.33449">
        <ele>72.6446</ele>
        <time>2011-06-25T17:16:15Z</time>
      </trkpt>
      <trkpt lat="46.32326" lon="-0.3345">
        <ele>72.6579</ele>
        <time>2011-06-25T17:16:16Z</time>
      </trkpt>
      <trkpt lat="46.32325" lon="-0.33452">
        <ele>72.6686</ele>
        <time>2011-06-25T17:16:17Z</time>
      </trkpt>
      <trkpt lat="46.32324" lon="-0.33453">
        <ele>72.6725</ele>
        <time>2011-06-25T17:16:18Z</time>
      </trkpt>
      <trkpt lat="46.32323" lon="-0.33455">
        <ele>72.6766</ele>
        <time>2011-06-25T17:16:19Z</time>
      </trkpt>
      <trkpt lat="46.32322" lon="-0.33457">
        <ele>72.6817</ele>
        <time>2011-06-25T17:16:20Z</time>
      </trkpt>
      <trkpt lat="46.32321" lon="-0.33459">
        <ele>72.6855</ele>
        <time>2011-06-25T17:16:21Z</time>
      </trkpt>
      <trkpt lat="46.3232" lon="-0.33461">
        <ele>72.6888</ele>
        <time>2011-06-25T17:16:22Z</time>
      </trkpt>
      <trkpt lat="46.32319" lon="-0.33462">
        <ele>72.6954</ele>
        <time>2011-06-25T17:16:23Z</time>
      </trkpt>
      <trkpt lat="46.32318" lon="-0.33464">
        <ele>72.702</ele>
        <time>2011-06-25T17:16:24Z</time>
      </trkpt>
      <trkpt lat="46.32317" lon="-0.33465">
        <ele>72.7073</ele>
        <time>2011-06-25T17:16:25Z</time>
      </trkpt>
      <trkpt lat="46.32316" lon="-0.33467">
        <ele>72.713</ele>
        <time>2011-06-25T17:16:26Z</time>
      </trkpt>
      <trkpt lat="46.32315" lon="-0.33467">
        <ele>72.7124</ele>
        <time>2011-06-25T17:16:27Z</time>
      </trkpt>
      <trkpt lat="46.32314" lon="-0.33468">
        <ele>72.702</ele>
        <time>2011-06-25T17:16:28Z</time>
      </trkpt>
      <trkpt lat="46.32313" lon="-0.33469">
        <ele>72.6817</ele>
        <time>2011-06-25T17:16:29Z</time>
      </trkpt>
      <trkpt lat="46.32311" lon="-0.33471">
        <ele>72.6838</ele>
        <time>2011-06-25T17:16:30Z</time>
      </trkpt>
      <trkpt lat="46.32308" lon="-0.33474">
        <ele>72.6836</ele>
        <time>2011-06-25T17:16:30Z</time>
      </trkpt>
      <trkpt lat="46.32306" lon="-0.33476">
        <ele>72.6855</ele>
        <time>2011-06-25T17:16:31Z</time>
      </trkpt>
      <trkpt lat="46.32305" lon="-0.33478">
        <ele>72.6981</ele>
        <time>2011-06-25T17:16:33Z</time>
      </trkpt>
      <trkpt lat="46.32303" lon="-0.3348">
        <ele>72.708</ele>
        <time>2011-06-25T17:16:34Z</time>
      </trkpt>
      <trkpt lat="46.32302" lon="-0.33482">
        <ele>72.7067</ele>
        <time>2011-06-25T17:16:35Z</time>
      </trkpt>
      <trkpt lat="46.32301" lon="-0.33484">
        <ele>72.6882</ele>
        <time>2011-06-25T17:16:36Z</time>
      </trkpt>
      <trkpt lat="46.323" lon="-0.33485">
        <ele>72.6725</ele>
        <time>2011-06-25T17:16:37Z</time>
      </trkpt>
      <trkpt lat="46.32299" lon="-0.33487">
        <ele>72.6557</ele>
        <time>2011-06-25T17:16:38Z</time>
      </trkpt>
      <trkpt lat="46.32298" lon="-0.33489">
        <ele>72.6317</ele>
        <time>2011-06-25T17:16:39Z</time>
      </trkpt>
      <trkpt lat="46.32298" lon="-0.3349">
        <ele>72.6091</ele>
        <time>2011-06-25T17:16:40Z</time>
      </trkpt>
      <trkpt lat="46.32297" lon="-0.33492">
        <ele>72.5934</ele>
        <time>2011-06-25T17:16:41Z</time>
      </trkpt>
      <trkpt lat="46.32296" lon="-0.33492">
        <ele>72.5821</ele>
        <time>2011-06-25T17:16:42Z</time>
      </trkpt>
      <trkpt lat="46.32295" lon="-0.33493">
        <ele>72.5695</ele>
        <time>2011-06-25T17:16:42Z</time>
      </trkpt>
      <trkpt lat="46.32293" lon="-0.33494">
        <ele>72.5576</ele>
        <time>2011-06-25T17:16:44Z</time>
      </trkpt>
      <trkpt lat="46.32293" lon="-0.33496">
        <ele>72.5439</ele>
        <time>2011-06-25T17:16:44Z</time>
      </trkpt>
      <trkpt lat="46.32291" lon="-0.33497">
        <ele>72.5363</ele>
        <time>2011-06-25T17:16:45Z</time>
      </trkpt>
      <trkpt lat="46.32291" lon="-0.33497">
        <ele>72.5352</ele>
        <time>2011-06-25T17:16:46Z</time>
      </trkpt>
      <trkpt lat="46.3229" lon="-0.33498">
        <ele>72.5387</ele>
        <time>2011-06-25T17:16:47Z</time>
      </trkpt>
      <trkpt lat="46.32289" lon="-0.33499">
        <ele>72.5482</ele>
        <time>2011-06-25T17:16:49Z</time>
      </trkpt>
      <trkpt lat="46.32288" lon="-0.335">
        <ele>72.5702</ele>
        <time>2011-06-25T17:16:50Z</time>
      </trkpt>
      <trkpt lat="46.32288" lon="-0.33501">
        <ele>72.6026</ele>
        <time>2011-06-25T17:16:51Z</time>
      </trkpt>
      <trkpt lat="46.32287" lon="-0.33502">
        <ele>72.6432</ele>
        <time>2011-06-25T17:16:52Z</time>
      </trkpt>
      <trkpt lat="46.32286" lon="-0.33502">
        <ele>72.6865</ele>
        <time>2011-06-25T17:16:53Z</time>
      </trkpt>
      <trkpt lat="46.32285" lon="-0.33503">
        <ele>72.7323</ele>
        <time>2011-06-25T17:16:54Z</time>
      </trkpt>
      <trkpt lat="46.32284" lon="-0.33504">
        <ele>72.7815</ele>
        <time>2011-06-25T17:16:55Z</time>
      </trkpt>
      <trkpt lat="46.32283" lon="-0.33505">
        <ele>72.8308</ele>
        <time>2011-06-25T17:16:56Z</time>
      </trkpt>
      <trkpt lat="46.32283" lon="-0.33506">
        <ele>72.8799</ele>
        <time>2011-06-25T17:16:57Z</time>
      </trkpt>
      <trkpt lat="46.32282" lon="-0.33508">
        <ele>72.9256</ele>
        <time>2011-06-25T17:16:58Z</time>
      </trkpt>
      <trkpt lat="46.32281" lon="-0.33509">
        <ele>72.9712</ele>
        <time>2011-06-25T17:16:59Z</time>
      </trkpt>
      <trkpt lat="46.3228" lon="-0.3351">
        <ele>73.0157</ele>
        <time>2011-06-25T17:17:00Z</time>
      </trkpt>
      <trkpt lat="46.32279" lon="-0.33511">
        <ele>73.059</ele>
        <time>2011-06-25T17:17:01Z</time>
      </trkpt>
      <trkpt lat="46.32278" lon="-0.33513">
        <ele>73.0999</ele>
        <time>2011-06-25T17:17:02Z</time>
      </trkpt>
      <trkpt lat="46.32278" lon="-0.33514">
        <ele>73.1395</ele>
        <time>2011-06-25T17:17:03Z</time>
      </trkpt>
      <trkpt lat="46.32277" lon="-0.33516">
        <ele>73.1786</ele>
        <time>2011-06-25T17:17:04Z</time>
      </trkpt>
      <trkpt lat="46.32276" lon="-0.33517">
        <ele>73.2164</ele>
        <time>2011-06-25T17:17:05Z</time>
      </trkpt>
      <trkpt lat="46.32275" lon="-0.33518">
        <ele>73.2528</ele>
        <time>2011-06-25T17:17:06Z</time>
      </trkpt>
      <trkpt lat="46.32274" lon="-0.3352">
        <ele>73.2885</ele>
        <time>2011-06-25T17:17:07Z</time>
      </trkpt>
      <trkpt lat="46.32273" lon="-0.33521">
        <ele>73.3236</ele>
        <time>2011-06-25T17:17:08Z</time>
      </trkpt>
      <trkpt lat="46.32272" lon="-0.33522">
        <ele>73.3576</ele>
        <time>2011-06-25T17:17:09Z</time>
      </trkpt>
      <trkpt lat="46.32271" lon="-0.33524">
        <ele>73.3908</ele>
        <time>2011-06-25T17:17:10Z</time>
      </trkpt>
      <trkpt lat="46.3227" lon="-0.33525">
        <ele>73.4196</ele>
        <time>2011-06-25T17:17:11Z</time>
      </trkpt>
      <trkpt lat="46.32269" lon="-0.33527">
        <ele>73.4482</ele>
        <time>2011-06-25T17:17:12Z</time>
      </trkpt>
      <trkpt lat="46.32268" lon="-0.33528">
        <ele>73.4755</ele>
        <time>2011-06-25T17:17:13Z</time>
      </trkpt>
      <trkpt lat="46.32267" lon="-0.3353">
        <ele>73.5017</ele>
        <time>2011-06-25T17:17:14Z</time>
      </trkpt>
      <trkpt lat="46.32266" lon="-0.33531">
        <ele>73.5267</ele>
        <time>2011-06-25T17:17:15Z</time>
      </trkpt>
      <trkpt lat="46.32265" lon="-0.33533">
        <ele>73.5519</ele>
        <time>2011-06-25T17:17:16Z</time>
      </trkpt>
      <trkpt lat="46.32264" lon="-0.33534">
        <ele>73.5763</ele>
        <time>2011-06-25T17:17:17Z</time>
      </trkpt>
      <trkpt lat="46.32263" lon="-0.33536">
        <ele>73.599</ele>
        <time>2011-06-25T17:17:18Z</time>
      </trkpt>
      <trkpt lat="46.32262" lon="-0.33537">
        <ele>73.6222</ele>
        <time>2011-06-25T17:17:19Z</time>
      </trkpt>
      <trkpt lat="46.32261" lon="-0.33538">
        <ele>73.645</ele>
        <time>2011-06-25T17:17:20Z</time>
      </trkpt>
      <trkpt lat="46.3226" lon="-0.3354">
        <ele>73.6673</ele>
        <time>2011-06-25T17:17:21Z</time>
      </trkpt>
      <trkpt lat="46.32259" lon="-0.33541">
        <ele>73.6873</ele>
        <time>2011-06-25T17:17:22Z</time>
      </trkpt>
      <trkpt lat="46.32258" lon="-0.33543">
        <ele>73.707</ele>
        <time>2011-06-25T17:17:23Z</time>
      </trkpt>
      <trkpt lat="46.32258" lon="-0.33544">
        <ele>73.7258</ele>
        <time>2011-06-25T17:17:24Z</time>
      </trkpt>
      <trkpt lat="46.32257" lon="-0.33546">
        <ele>73.7435</ele>
        <time>2011-06-25T17:17:25Z</time>
      </trkpt>
      <trkpt lat="46.32256" lon="-0.33548">
        <ele>73.7609</ele>
        <time>2011-06-25T17:17:26Z</time>
      </trkpt>
      <trkpt lat="46.32255" lon="-0.33549">
        <ele>73.778</ele>
        <time>2011-06-25T17:17:27Z</time>
      </trkpt>
      <trkpt lat="46.32254" lon="-0.33551">
        <ele>73.7962</ele>
        <time>2011-06-25T17:17:28Z</time>
      </trkpt>
      <trkpt lat="46.32253" lon="-0.33552">
        <ele>73.8147</ele>
        <time>2011-06-25T17:17:29Z</time>
      </trkpt>
      <trkpt lat="46.32252" lon="-0.33554">
        <ele>73.8333</ele>
        <time>2011-06-25T17:17:30Z</time>
      </trkpt>
      <trkpt lat="46.32251" lon="-0.33555">
        <ele>73.8517</ele>
        <time>2011-06-25T17:17:31Z</time>
      </trkpt>
      <trkpt lat="46.3225" lon="-0.33557">
        <ele>73.8696</ele>
        <time>2011-06-25T17:17:32Z</time>
      </trkpt>
      <trkpt lat="46.3225" lon="-0.33558">
        <ele>73.8911</ele>
        <time>2011-06-25T17:17:33Z</time>
      </trkpt>
      <trkpt lat="46.32249" lon="-0.33559">
        <ele>73.9124</ele>
        <time>2011-06-25T17:17:34Z</time>
      </trkpt>
      <trkpt lat="46.32248" lon="-0.3356">
        <ele>73.9333</ele>
        <time>2011-06-25T17:17:35Z</time>
      </trkpt>
      <trkpt lat="46.32247" lon="-0.33561">
        <ele>73.9587</ele>
        <time>2011-06-25T17:17:36Z</time>
      </trkpt>
      <trkpt lat="46.32246" lon="-0.33562">
        <ele>73.9824</ele>
        <time>2011-06-25T17:17:37Z</time>
      </trkpt>
      <trkpt lat="46.32245" lon="-0.33562">
        <ele>74.0142</ele>
        <time>2011-06-25T17:17:38Z</time>
      </trkpt>
      <trkpt lat="46.32244" lon="-0.33563">
        <ele>74.045</ele>
        <time>2011-06-25T17:17:39Z</time>
      </trkpt>
      <trkpt lat="46.32243" lon="-0.33564">
        <ele>74.0778</ele>
        <time>2011-06-25T17:17:40Z</time>
      </trkpt>
      <trkpt lat="46.32242" lon="-0.33565">
        <ele>74.1225</ele>
        <time>2011-06-25T17:17:41Z</time>
      </trkpt>
      <trkpt lat="46.32241" lon="-0.33566">
        <ele>74.165</ele>
        <time>2011-06-25T17:17:42Z</time>
      </trkpt>
      <trkpt lat="46.3224" lon="-0.33567">
        <ele>74.2061</ele>
        <time>2011-06-25T17:17:43Z</time>
      </trkpt>
      <trkpt lat="46.32239" lon="-0.33568">
        <ele>74.2506</ele>
        <time>2011-06-25T17:17:44Z</time>
      </trkpt>
      <trkpt lat="46.32237" lon="-0.33569">
        <ele>74.2966</ele>
        <time>2011-06-25T17:17:45Z</time>
      </trkpt>
      <trkpt lat="46.32236" lon="-0.3357">
        <ele>74.3427</ele>
        <time>2011-06-25T17:17:46Z</time>
      </trkpt>
      <trkpt lat="46.32235" lon="-0.3357">
        <ele>74.3883</ele>
        <time>2011-06-25T17:17:47Z</time>
      </trkpt>
      <trkpt lat="46.32233" lon="-0.33571">
        <ele>74.4326</ele>
        <time>2011-06-25T17:17:48Z</time>
      </trkpt>
      <trkpt lat="46.32232" lon="-0.33572">
        <ele>74.4719</ele>
        <time>2011-06-25T17:17:49Z</time>
      </trkpt>
      <trkpt lat="46.32231" lon="-0.33573">
        <ele>74.5096</ele>
        <time>2011-06-25T17:17:50Z</time>
      </trkpt>
      <trkpt lat="46.3223" lon="-0.33574">
        <ele>74.5454</ele>
        <time>2011-06-25T17:17:51Z</time>
      </trkpt>
      <trkpt lat="46.32229" lon="-0.33574">
        <ele>74.5769</ele>
        <time>2011-06-25T17:17:52Z</time>
      </trkpt>
      <trkpt lat="46.32227" lon="-0.33575">
        <ele>74.6051</ele>
        <time>2011-06-25T17:17:53Z</time>
      </trkpt>
      <trkpt lat="46.32227" lon="-0.33576">
        <ele>74.6315</ele>
        <time>2011-06-25T17:17:54Z</time>
      </trkpt>
      <trkpt lat="46.32225" lon="-0.33576">
        <ele>74.6556</ele>
        <time>2011-06-25T17:17:55Z</time>
      </trkpt>
      <trkpt lat="46.32224" lon="-0.33577">
        <ele>74.6789</ele>
        <time>2011-06-25T17:17:56Z</time>
      </trkpt>
      <trkpt lat="46.32223" lon="-0.33578">
        <ele>74.7013</ele>
        <time>2011-06-25T17:17:57Z</time>
      </trkpt>
      <trkpt lat="46.32222" lon="-0.33578">
        <ele>74.7232</ele>
        <time>2011-06-25T17:17:58Z</time>
      </trkpt>
      <trkpt lat="46.3222" lon="-0.33579">
        <ele>74.7441</ele>
        <time>2011-06-25T17:17:59Z</time>
      </trkpt>
      <trkpt lat="46.32219" lon="-0.33579">
        <ele>74.7644</ele>
        <time>2011-06-25T17:18:00Z</time>
      </trkpt>
      <trkpt lat="46.32217" lon="-0.3358">
        <ele>74.7836</ele>
        <time>2011-06-25T17:18:01Z</time>
      </trkpt>
      <trkpt lat="46.32216" lon="-0.33581">
        <ele>74.8005</ele>
        <time>2011-06-25T17:18:02Z</time>
      </trkpt>
      <trkpt lat="46.32215" lon="-0.33581">
        <ele>74.811</ele>
        <time>2011-06-25T17:18:03Z</time>
      </trkpt>
      <trkpt lat="46.32213" lon="-0.33582">
        <ele>74.8186</ele>
        <time>2011-06-25T17:18:04Z</time>
      </trkpt>
      <trkpt lat="46.32212" lon="-0.33583">
        <ele>74.825</ele>
        <time>2011-06-25T17:18:05Z</time>
      </trkpt>
      <trkpt lat="46.3221" lon="-0.33584">
        <ele>74.8296</ele>
        <time>2011-06-25T17:18:06Z</time>
      </trkpt>
      <trkpt lat="46.32209" lon="-0.33585">
        <ele>74.8308</ele>
        <time>2011-06-25T17:18:07Z</time>
      </trkpt>
      <trkpt lat="46.32208" lon="-0.33585">
        <ele>74.8308</ele>
        <time>2011-06-25T17:18:08Z</time>
      </trkpt>
      <trkpt lat="46.32206" lon="-0.33586">
        <ele>74.828</ele>
        <time>2011-06-25T17:18:09Z</time>
      </trkpt>
      <trkpt lat="46.32204" lon="-0.33587">
        <ele>74.8259</ele>
        <time>2011-06-25T17:18:10Z</time>
      </trkpt>
      <trkpt lat="46.32203" lon="-0.33588">
        <ele>74.8214</ele>
        <time>2011-06-25T17:18:11Z</time>
      </trkpt>
      <trkpt lat="46.32203" lon="-0.33589">
        <ele>74.8128</ele>
        <time>2011-06-25T17:18:12Z</time>
      </trkpt>
      <trkpt lat="46.32201" lon="-0.33589">
        <ele>74.804</ele>
        <time>2011-06-25T17:18:13Z</time>
      </trkpt>
      <trkpt lat="46.322" lon="-0.3359">
        <ele>74.7968</ele>
        <time>2011-06-25T17:18:14Z</time>
      </trkpt>
      <trkpt lat="46.32199" lon="-0.3359">
        <ele>74.7902</ele>
        <time>2011-06-25T17:18:15Z</time>
      </trkpt>
      <trkpt lat="46.32197" lon="-0.33591">
        <ele>74.7804</ele>
        <time>2011-06-25T17:18:16Z</time>
      </trkpt>
      <trkpt lat="46.32196" lon="-0.33592">
        <ele>74.7678</ele>
        <time>2011-06-25T17:18:17Z</time>
      </trkpt>
      <trkpt lat="46.32195" lon="-0.33592">
        <ele>74.7523</ele>
        <time>2011-06-25T17:18:18Z</time>
      </trkpt>
      <trkpt lat="46.32193" lon="-0.33593">
        <ele>74.7361</ele>
        <time>2011-06-25T17:18:19Z</time>
      </trkpt>
      <trkpt lat="46.32192" lon="-0.33593">
        <ele>74.7204</ele>
        <time>2011-06-25T17:18:20Z</time>
      </trkpt>
      <trkpt lat="46.3219" lon="-0.33594">
        <ele>74.7047</ele>
        <time>2011-06-25T17:18:21Z</time>
      </trkpt>
      <trkpt lat="46.32189" lon="-0.33594">
        <ele>74.6895</ele>
        <time>2011-06-25T17:18:22Z</time>
      </trkpt>
      <trkpt lat="46.32188" lon="-0.33594">
        <ele>74.6753</ele>
        <time>2011-06-25T17:18:23Z</time>
      </trkpt>
      <trkpt lat="46.32186" lon="-0.33595">
        <ele>74.66</ele>
        <time>2011-06-25T17:18:24Z</time>
      </trkpt>
      <trkpt lat="46.32185" lon="-0.33595">
        <ele>74.6455</ele>
        <time>2011-06-25T17:18:25Z</time>
      </trkpt>
      <trkpt lat="46.32184" lon="-0.33595">
        <ele>74.6317</ele>
        <time>2011-06-25T17:18:26Z</time>
      </trkpt>
      <trkpt lat="46.32182" lon="-0.33596">
        <ele>74.6176</ele>
        <time>2011-06-25T17:18:27Z</time>
      </trkpt>
      <trkpt lat="46.32181" lon="-0.33596">
        <ele>74.6037</ele>
        <time>2011-06-25T17:18:28Z</time>
      </trkpt>
      <trkpt lat="46.3218" lon="-0.33596">
        <ele>74.5904</ele>
        <time>2011-06-25T17:18:29Z</time>
      </trkpt>
      <trkpt lat="46.32178" lon="-0.33596">
        <ele>74.5756</ele>
        <time>2011-06-25T17:18:30Z</time>
      </trkpt>
      <trkpt lat="46.32177" lon="-0.33597">
        <ele>74.5601</ele>
        <time>2011-06-25T17:18:31Z</time>
      </trkpt>
      <trkpt lat="46.32175" lon="-0.33597">
        <ele>74.5453</ele>
        <time>2011-06-25T17:18:32Z</time>
      </trkpt>
      <trkpt lat="46.32174" lon="-0.33597">
        <ele>74.5315</ele>
        <time>2011-06-25T17:18:33Z</time>
      </trkpt>
      <trkpt lat="46.32172" lon="-0.33597">
        <ele>74.5192</ele>
        <time>2011-06-25T17:18:34Z</time>
      </trkpt>
      <trkpt lat="46.32171" lon="-0.33597">
        <ele>74.5074</ele>
        <time>2011-06-25T17:18:35Z</time>
      </trkpt>
      <trkpt lat="46.3217" lon="-0.33597">
        <ele>74.4965</ele>
        <time>2011-06-25T17:18:36Z</time>
      </trkpt>
      <trkpt lat="46.32168" lon="-0.33598">
        <ele>74.4867</ele>
        <time>2011-06-25T17:18:37Z</time>
      </trkpt>
      <trkpt lat="46.32167" lon="-0.33598">
        <ele>74.4815</ele>
        <time>2011-06-25T17:18:38Z</time>
      </trkpt>
      <trkpt lat="46.32165" lon="-0.33598">
        <ele>74.4754</ele>
        <time>2011-06-25T17:18:39Z</time>
      </trkpt>
      <trkpt lat="46.32164" lon="-0.33598">
        <ele>74.4711</ele>
        <time>2011-06-25T17:18:40Z</time>
      </trkpt>
      <trkpt lat="46.32162" lon="-0.33599">
        <ele>74.4682</ele>
        <time>2011-06-25T17:18:41Z</time>
      </trkpt>
      <trkpt lat="46.32161" lon="-0.33599">
        <ele>74.4641</ele>
        <time>2011-06-25T17:18:42Z</time>
      </trkpt>
      <trkpt lat="46.32159" lon="-0.33599">
        <ele>74.4612</ele>
        <time>2011-06-25T17:18:43Z</time>
      </trkpt>
      <trkpt lat="46.32158" lon="-0.33599">
        <ele>74.4618</ele>
        <time>2011-06-25T17:18:44Z</time>
      </trkpt>
      <trkpt lat="46.32156" lon="-0.33599">
        <ele>74.4612</ele>
        <time>2011-06-25T17:18:45Z</time>
      </trkpt>
      <trkpt lat="46.32155" lon="-0.33599">
        <ele>74.4571</ele>
        <time>2011-06-25T17:18:46Z</time>
      </trkpt>
      <trkpt lat="46.32154" lon="-0.33599">
        <ele>74.4542</ele>
        <time>2011-06-25T17:18:47Z</time>
      </trkpt>
      <trkpt lat="46.32153" lon="-0.33599">
        <ele>74.4515</ele>
        <time>2011-06-25T17:18:48Z</time>
      </trkpt>
      <trkpt lat="46.32151" lon="-0.336">
        <ele>74.4486</ele>
        <time>2011-06-25T17:18:49Z</time>
      </trkpt>
      <trkpt lat="46.3215" lon="-0.336">
        <ele>74.4448</ele>
        <time>2011-06-25T17:18:50Z</time>
      </trkpt>
      <trkpt lat="46.32148" lon="-0.336">
        <ele>74.4403</ele>
        <time>2011-06-25T17:18:51Z</time>
      </trkpt>
      <trkpt lat="46.32147" lon="-0.33601">
        <ele>74.4351</ele>
        <time>2011-06-25T17:18:52Z</time>
      </trkpt>
      <trkpt lat="46.32146" lon="-0.33601">
        <ele>74.4277</ele>
        <time>2011-06-25T17:18:53Z</time>
      </trkpt>
      <trkpt lat="46.32145" lon="-0.33602">
        <ele>74.4188</ele>
        <time>2011-06-25T17:18:54Z</time>
      </trkpt>
      <trkpt lat="46.32144" lon="-0.33602">
        <ele>74.409</ele>
        <time>2011-06-25T17:18:55Z</time>
      </trkpt>
      <trkpt lat="46.32143" lon="-0.33603">
        <ele>74.4015</ele>
        <time>2011-06-25T17:18:56Z</time>
      </trkpt>
      <trkpt lat="46.32142" lon="-0.33603">
        <ele>74.3952</ele>
        <time>2011-06-25T17:18:57Z</time>
      </trkpt>
      <trkpt lat="46.3214" lon="-0.33603">
        <ele>74.389</ele>
        <time>2011-06-25T17:18:58Z</time>
      </trkpt>
      <trkpt lat="46.32139" lon="-0.33603">
        <ele>74.3833</ele>
        <time>2011-06-25T17:18:59Z</time>
      </trkpt>
      <trkpt lat="46.32137" lon="-0.33603">
        <ele>74.3805</ele>
        <time>2011-06-25T17:19:00Z</time>
      </trkpt>
      <trkpt lat="46.32135" lon="-0.33603">
        <ele>74.3834</ele>
        <time>2011-06-25T17:19:01Z</time>
      </trkpt>
      <trkpt lat="46.32134" lon="-0.33603">
        <ele>74.3904</ele>
        <time>2011-06-25T17:19:02Z</time>
      </trkpt>
      <trkpt lat="46.32132" lon="-0.33603">
        <ele>74.4021</ele>
        <time>2011-06-25T17:19:03Z</time>
      </trkpt>
      <trkpt lat="46.32131" lon="-0.33603">
        <ele>74.417</ele>
        <time>2011-06-25T17:19:04Z</time>
      </trkpt>
      <trkpt lat="46.32129" lon="-0.33602">
        <ele>74.4357</ele>
        <time>2011-06-25T17:19:05Z</time>
      </trkpt>
      <trkpt lat="46.32127" lon="-0.33602">
        <ele>74.456</ele>
        <time>2011-06-25T17:19:06Z</time>
      </trkpt>
      <trkpt lat="46.32126" lon="-0.33603">
        <ele>74.4792</ele>
        <time>2011-06-25T17:19:07Z</time>
      </trkpt>
      <trkpt lat="46.32124" lon="-0.33603">
        <ele>74.5043</ele>
        <time>2011-06-25T17:19:08Z</time>
      </trkpt>
      <trkpt lat="46.32123" lon="-0.33604">
        <ele>74.5308</ele>
        <time>2011-06-25T17:19:09Z</time>
      </trkpt>
      <trkpt lat="46.32121" lon="-0.33604">
        <ele>74.5597</ele>
        <time>2011-06-25T17:19:10Z</time>
      </trkpt>
      <trkpt lat="46.3212" lon="-0.33604">
        <ele>74.59</ele>
        <time>2011-06-25T17:19:11Z</time>
      </trkpt>
      <trkpt lat="46.32119" lon="-0.33604">
        <ele>74.6213</ele>
        <time>2011-06-25T17:19:12Z</time>
      </trkpt>
      <trkpt lat="46.32118" lon="-0.33605">
        <ele>74.6542</ele>
        <time>2011-06-25T17:19:13Z</time>
      </trkpt>
      <trkpt lat="46.32116" lon="-0.33605">
        <ele>74.6877</ele>
        <time>2011-06-25T17:19:14Z</time>
      </trkpt>
      <trkpt lat="46.32115" lon="-0.33606">
        <ele>74.7222</ele>
        <time>2011-06-25T17:19:15Z</time>
      </trkpt>
      <trkpt lat="46.32113" lon="-0.33606">
        <ele>74.7564</ele>
        <time>2011-06-25T17:19:16Z</time>
      </trkpt>
      <trkpt lat="46.32112" lon="-0.33607">
        <ele>74.7917</ele>
        <time>2011-06-25T17:19:17Z</time>
      </trkpt>
      <trkpt lat="46.32111" lon="-0.33608">
        <ele>74.8266</ele>
        <time>2011-06-25T17:19:18Z</time>
      </trkpt>
      <trkpt lat="46.3211" lon="-0.33608">
        <ele>74.8612</ele>
        <time>2011-06-25T17:19:19Z</time>
      </trkpt>
      <trkpt lat="46.32108" lon="-0.33609">
        <ele>74.8956</ele>
        <time>2011-06-25T17:19:20Z</time>
      </trkpt>
      <trkpt lat="46.32107" lon="-0.33609">
        <ele>74.93</ele>
        <time>2011-06-25T17:19:21Z</time>
      </trkpt>
      <trkpt lat="46.32106" lon="-0.3361">
        <ele>74.9656</ele>
        <time>2011-06-25T17:19:22Z</time>
      </trkpt>
      <trkpt lat="46.32105" lon="-0.3361">
        <ele>75.0015</ele>
        <time>2011-06-25T17:19:23Z</time>
      </trkpt>
      <trkpt lat="46.32103" lon="-0.33611">
        <ele>75.038</ele>
        <time>2011-06-25T17:19:24Z</time>
      </trkpt>
      <trkpt lat="46.32102" lon="-0.33611">
        <ele>75.0746</ele>
        <time>2011-06-25T17:19:25Z</time>
      </trkpt>
      <trkpt lat="46.32101" lon="-0.33611">
        <ele>75.1106</ele>
        <time>2011-06-25T17:19:26Z</time>
      </trkpt>
      <trkpt lat="46.321" lon="-0.33612">
        <ele>75.1461</ele>
        <time>2011-06-25T17:19:27Z</time>
      </trkpt>
      <trkpt lat="46.32098" lon="-0.33613">
        <ele>75.1804</ele>
        <time>2011-06-25T17:19:28Z</time>
      </trkpt>
      <trkpt lat="46.32097" lon="-0.33613">
        <ele>75.2138</ele>
        <time>2011-06-25T17:19:29Z</time>
      </trkpt>
      <trkpt lat="46.32096" lon="-0.33614">
        <ele>75.2459</ele>
        <time>2011-06-25T17:19:30Z</time>
      </trkpt>
      <trkpt lat="46.32095" lon="-0.33615">
        <ele>75.2767</ele>
        <time>2011-06-25T17:19:31Z</time>
      </trkpt>
      <trkpt lat="46.32094" lon="-0.33615">
        <ele>75.3069</ele>
        <time>2011-06-25T17:19:32Z</time>
      </trkpt>
      <trkpt lat="46.32093" lon="-0.33616">
        <ele>75.3338</ele>
        <time>2011-06-25T17:19:33Z</time>
      </trkpt>
      <trkpt lat="46.32092" lon="-0.33617">
        <ele>75.3587</ele>
        <time>2011-06-25T17:19:34Z</time>
      </trkpt>
      <trkpt lat="46.32091" lon="-0.33617">
        <ele>75.3831</ele>
        <time>2011-06-25T17:19:35Z</time>
      </trkpt>
      <trkpt lat="46.3209" lon="-0.33617">
        <ele>75.404</ele>
        <time>2011-06-25T17:19:36Z</time>
      </trkpt>
      <trkpt lat="46.32089" lon="-0.33618">
        <ele>75.4184</ele>
        <time>2011-06-25T17:19:37Z</time>
      </trkpt>
      <trkpt lat="46.32088" lon="-0.33619">
        <ele>75.4301</ele>
        <time>2011-06-25T17:19:38Z</time>
      </trkpt>
      <trkpt lat="46.32087" lon="-0.3362">
        <ele>75.4427</ele>
        <time>2011-06-25T17:19:39Z</time>
      </trkpt>
      <trkpt lat="46.32085" lon="-0.33621">
        <ele>75.4557</ele>
        <time>2011-06-25T17:19:40Z</time>
      </trkpt>
      <trkpt lat="46.32085" lon="-0.33622">
        <ele>75.4689</ele>
        <time>2011-06-25T17:19:41Z</time>
      </trkpt>
      <trkpt lat="46.32084" lon="-0.33624">
        <ele>75.4847</ele>
        <time>2011-06-25T17:19:42Z</time>
      </trkpt>
      <trkpt lat="46.32084" lon="-0.33625">
        <ele>75.5046</ele>
        <time>2011-06-25T17:19:43Z</time>
      </trkpt>
      <trkpt lat="46.32083" lon="-0.33625">
        <ele>75.5244</ele>
        <time>2011-06-25T17:19:44Z</time>
      </trkpt>
      <trkpt lat="46.32082" lon="-0.33626">
        <ele>75.544</ele>
        <time>2011-06-25T17:19:45Z</time>
      </trkpt>
      <trkpt lat="46.32081" lon="-0.33627">
        <ele>75.5657</ele>
        <time>2011-06-25T17:19:46Z</time>
      </trkpt>
      <trkpt lat="46.3208" lon="-0.33628">
        <ele>75.5894</ele>
        <time>2011-06-25T17:19:47Z</time>
      </trkpt>
      <trkpt lat="46.32079" lon="-0.33629">
        <ele>75.6137</ele>
        <time>2011-06-25T17:19:48Z</time>
      </trkpt>
      <trkpt lat="46.32078" lon="-0.33629">
        <ele>75.6399</ele>
        <time>2011-06-25T17:19:49Z</time>
      </trkpt>
      <trkpt lat="46.32077" lon="-0.3363">
        <ele>75.6661</ele>
        <time>2011-06-25T17:19:50Z</time>
      </trkpt>
      <trkpt lat="46.32076" lon="-0.33631">
        <ele>75.6927</ele>
        <time>2011-06-25T17:19:51Z</time>
      </trkpt>
      <trkpt lat="46.32074" lon="-0.33632">
        <ele>75.7193</ele>
        <time>2011-06-25T17:19:52Z</time>
      </trkpt>
      <trkpt lat="46.32074" lon="-0.33633">
        <ele>75.7456</ele>
        <time>2011-06-25T17:19:53Z</time>
      </trkpt>
      <trkpt lat="46.32072" lon="-0.33634">
        <ele>75.7715</ele>
        <time>2011-06-25T17:19:54Z</time>
      </trkpt>
      <trkpt lat="46.32071" lon="-0.33634">
        <ele>75.7978</ele>
        <time>2011-06-25T17:19:55Z</time>
      </trkpt>
      <trkpt lat="46.32071" lon="-0.33635">
        <ele>75.8242</ele>
        <time>2011-06-25T17:19:56Z</time>
      </trkpt>
      <trkpt lat="46.32069" lon="-0.33636">
        <ele>75.8513</ele>
        <time>2011-06-25T17:19:57Z</time>
      </trkpt>
      <trkpt lat="46.32068" lon="-0.33636">
        <ele>75.8789</ele>
        <time>2011-06-25T17:19:58Z</time>
      </trkpt>
      <trkpt lat="46.32067" lon="-0.33637">
        <ele>75.908</ele>
        <time>2011-06-25T17:19:59Z</time>
      </trkpt>
      <trkpt lat="46.32065" lon="-0.33637">
        <ele>75.938</ele>
        <time>2011-06-25T17:20:00Z</time>
      </trkpt>
      <trkpt lat="46.32064" lon="-0.33638">
        <ele>75.9708</ele>
        <time>2011-06-25T17:20:01Z</time>
      </trkpt>
      <trkpt lat="46.32063" lon="-0.33639">
        <ele>76.0032</ele>
        <time>2011-06-25T17:20:02Z</time>
      </trkpt>
      <trkpt lat="46.32061" lon="-0.3364">
        <ele>76.0405</ele>
        <time>2011-06-25T17:20:03Z</time>
      </trkpt>
      <trkpt lat="46.3206" lon="-0.3364">
        <ele>76.0777</ele>
        <time>2011-06-25T17:20:04Z</time>
      </trkpt>
      <trkpt lat="46.32059" lon="-0.3364">
        <ele>76.1148</ele>
        <time>2011-06-25T17:20:05Z</time>
      </trkpt>
      <trkpt lat="46.32057" lon="-0.33641">
        <ele>76.1511</ele>
        <time>2011-06-25T17:20:06Z</time>
      </trkpt>
      <trkpt lat="46.32056" lon="-0.33641">
        <ele>76.1932</ele>
        <time>2011-06-25T17:20:07Z</time>
      </trkpt>
      <trkpt lat="46.32055" lon="-0.33642">
        <ele>76.2343</ele>
        <time>2011-06-25T17:20:08Z</time>
      </trkpt>
      <trkpt lat="46.32053" lon="-0.33643">
        <ele>76.2741</ele>
        <time>2011-06-25T17:20:09Z</time>
      </trkpt>
      <trkpt lat="46.32052" lon="-0.33644">
        <ele>76.315</ele>
        <time>2011-06-25T17:20:10Z</time>
      </trkpt>
      <trkpt lat="46.32051" lon="-0.33644">
        <ele>76.3571</ele>
        <time>2011-06-25T17:20:11Z</time>
      </trkpt>
      <trkpt lat="46.3205" lon="-0.33645">
        <ele>76.3991</ele>
        <time>2011-06-25T17:20:12Z</time>
      </trkpt>
      <trkpt lat="46.32049" lon="-0.33646">
        <ele>76.4371</ele>
        <time>2011-06-25T17:20:13Z</time>
      </trkpt>
      <trkpt lat="46.32048" lon="-0.33647">
        <ele>76.4727</ele>
        <time>2011-06-25T17:20:14Z</time>
      </trkpt>
      <trkpt lat="46.32047" lon="-0.33648">
        <ele>76.5074</ele>
        <time>2011-06-25T17:20:15Z</time>
      </trkpt>
      <trkpt lat="46.32045" lon="-0.33648">
        <ele>76.5416</ele>
        <time>2011-06-25T17:20:16Z</time>
      </trkpt>
      <trkpt lat="46.32044" lon="-0.33649">
        <ele>76.5748</ele>
        <time>2011-06-25T17:20:17Z</time>
      </trkpt>
      <trkpt lat="46.32043" lon="-0.3365">
        <ele>76.6089</ele>
        <time>2011-06-25T17:20:18Z</time>
      </trkpt>
      <trkpt lat="46.32041" lon="-0.33651">
        <ele>76.6465</ele>
        <time>2011-06-25T17:20:19Z</time>
      </trkpt>
      <trkpt lat="46.3204" lon="-0.33651">
        <ele>76.6897</ele>
        <time>2011-06-25T17:20:20Z</time>
      </trkpt>
      <trkpt lat="46.32039" lon="-0.33652">
        <ele>76.737</ele>
        <time>2011-06-25T17:20:21Z</time>
      </trkpt>
      <trkpt lat="46.32037" lon="-0.33652">
        <ele>76.7881</ele>
        <time>2011-06-25T17:20:22Z</time>
      </trkpt>
      <trkpt lat="46.32036" lon="-0.33652">
        <ele>76.8427</ele>
        <time>2011-06-25T17:20:23Z</time>
      </trkpt>
      <trkpt lat="46.32035" lon="-0.33653">
        <ele>76.8988</ele>
        <time>2011-06-25T17:20:24Z</time>
      </trkpt>
      <trkpt lat="46.32033" lon="-0.33653">
        <ele>76.9613</ele>
        <time>2011-06-25T17:20:25Z</time>
      </trkpt>
      <trkpt lat="46.32032" lon="-0.33653">
        <ele>77.0259</ele>
        <time>2011-06-25T17:20:26Z</time>
      </trkpt>
      <trkpt lat="46.32031" lon="-0.33653">
        <ele>77.0896</ele>
        <time>2011-06-25T17:20:27Z</time>
      </trkpt>
      <trkpt lat="46.32029" lon="-0.33653">
        <ele>77.1514</ele>
        <time>2011-06-25T17:20:28Z</time>
      </trkpt>
      <trkpt lat="46.32028" lon="-0.33654">
        <ele>77.2114</ele>
        <time>2011-06-25T17:20:29Z</time>
      </trkpt>
      <trkpt lat="46.32027" lon="-0.33655">
        <ele>77.2695</ele>
        <time>2011-06-25T17:20:30Z</time>
      </trkpt>
      <trkpt lat="46.32026" lon="-0.33656">
        <ele>77.3256</ele>
        <time>2011-06-25T17:20:31Z</time>
      </trkpt>
      <trkpt lat="46.32025" lon="-0.33657">
        <ele>77.3808</ele>
        <time>2011-06-25T17:20:32Z</time>
      </trkpt>
      <trkpt lat="46.32023" lon="-0.33657">
        <ele>77.4337</ele>
        <time>2011-06-25T17:20:33Z</time>
      </trkpt>
      <trkpt lat="46.32022" lon="-0.33658">
        <ele>77.4856</ele>
        <time>2011-06-25T17:20:34Z</time>
      </trkpt>
      <trkpt lat="46.32021" lon="-0.33659">
        <ele>77.5358</ele>
        <time>2011-06-25T17:20:35Z</time>
      </trkpt>
      <trkpt lat="46.32019" lon="-0.3366">
        <ele>77.5843</ele>
        <time>2011-06-25T17:20:36Z</time>
      </trkpt>
      <trkpt lat="46.32018" lon="-0.33661">
        <ele>77.6301</ele>
        <time>2011-06-25T17:20:37Z</time>
      </trkpt>
      <trkpt lat="46.32017" lon="-0.33662">
        <ele>77.6756</ele>
        <time>2011-06-25T17:20:38Z</time>
      </trkpt>
      <trkpt lat="46.32015" lon="-0.33662">
        <ele>77.72</ele>
        <time>2011-06-25T17:20:39Z</time>
      </trkpt>
      <trkpt lat="46.32014" lon="-0.33663">
        <ele>77.7643</ele>
        <time>2011-06-25T17:20:40Z</time>
      </trkpt>
      <trkpt lat="46.32013" lon="-0.33664">
        <ele>77.8078</ele>
        <time>2011-06-25T17:20:41Z</time>
      </trkpt>
      <trkpt lat="46.32011" lon="-0.33665">
        <ele>77.8506</ele>
        <time>2011-06-25T17:20:42Z</time>
      </trkpt>
      <trkpt lat="46.3201" lon="-0.33666">
        <ele>77.8926</ele>
        <time>2011-06-25T17:20:43Z</time>
      </trkpt>
      <trkpt lat="46.32009" lon="-0.33667">
        <ele>77.9331</ele>
        <time>2011-06-25T17:20:44Z</time>
      </trkpt>
      <trkpt lat="46.32008" lon="-0.33668">
        <ele>77.9722</ele>
        <time>2011-06-25T17:20:45Z</time>
      </trkpt>
      <trkpt lat="46.32007" lon="-0.3367">
        <ele>78.0132</ele>
        <time>2011-06-25T17:20:46Z</time>
      </trkpt>
      <trkpt lat="46.32005" lon="-0.3367">
        <ele>78.0557</ele>
        <time>2011-06-25T17:20:47Z</time>
      </trkpt>
      <trkpt lat="46.32003" lon="-0.33671">
        <ele>78.0992</ele>
        <time>2011-06-25T17:20:48Z</time>
      </trkpt>
      <trkpt lat="46.32002" lon="-0.33671">
        <ele>78.1411</ele>
        <time>2011-06-25T17:20:49Z</time>
      </trkpt>
      <trkpt lat="46.32001" lon="-0.33672">
        <ele>78.1827</ele>
        <time>2011-06-25T17:20:50Z</time>
      </trkpt>
      <trkpt lat="46.31999" lon="-0.33673">
        <ele>78.2227</ele>
        <time>2011-06-25T17:20:51Z</time>
      </trkpt>
      <trkpt lat="46.31998" lon="-0.33673">
        <ele>78.2566</ele>
        <time>2011-06-25T17:20:52Z</time>
      </trkpt>
      <trkpt lat="46.31997" lon="-0.33674">
        <ele>78.2862</ele>
        <time>2011-06-25T17:20:53Z</time>
      </trkpt>
      <trkpt lat="46.31995" lon="-0.33674">
        <ele>78.3123</ele>
        <time>2011-06-25T17:20:54Z</time>
      </trkpt>
      <trkpt lat="46.31994" lon="-0.33675">
        <ele>78.3363</ele>
        <time>2011-06-25T17:20:55Z</time>
      </trkpt>
      <trkpt lat="46.31992" lon="-0.33675">
        <ele>78.3595</ele>
        <time>2011-06-25T17:20:56Z</time>
      </trkpt>
      <trkpt lat="46.31991" lon="-0.33676">
        <ele>78.3776</ele>
        <time>2011-06-25T17:20:57Z</time>
      </trkpt>
      <trkpt lat="46.31989" lon="-0.33677">
        <ele>78.3925</ele>
        <time>2011-06-25T17:20:58Z</time>
      </trkpt>
      <trkpt lat="46.31988" lon="-0.33678">
        <ele>78.406</ele>
        <time>2011-06-25T17:20:59Z</time>
      </trkpt>
      <trkpt lat="46.31987" lon="-0.33678">
        <ele>78.4198</ele>
        <time>2011-06-25T17:21:00Z</time>
      </trkpt>
      <trkpt lat="46.31986" lon="-0.33679">
        <ele>78.4332</ele>
        <time>2011-06-25T17:21:01Z</time>
      </trkpt>
      <trkpt lat="46.31984" lon="-0.3368">
        <ele>78.4455</ele>
        <time>2011-06-25T17:21:02Z</time>
      </trkpt>
      <trkpt lat="46.31983" lon="-0.33681">
        <ele>78.4576</ele>
        <time>2011-06-25T17:21:03Z</time>
      </trkpt>
      <trkpt lat="46.31982" lon="-0.33681">
        <ele>78.4691</ele>
        <time>2011-06-25T17:21:04Z</time>
      </trkpt>
      <trkpt lat="46.3198" lon="-0.33682">
        <ele>78.4801</ele>
        <time>2011-06-25T17:21:05Z</time>
      </trkpt>
      <trkpt lat="46.31979" lon="-0.33683">
        <ele>78.4905</ele>
        <time>2011-06-25T17:21:06Z</time>
      </trkpt>
      <trkpt lat="46.31978" lon="-0.33683">
        <ele>78.4993</ele>
        <time>2011-06-25T17:21:07Z</time>
      </trkpt>
      <trkpt lat="46.31976" lon="-0.33683">
        <ele>78.5072</ele>
        <time>2011-06-25T17:21:08Z</time>
      </trkpt>
      <trkpt lat="46.31975" lon="-0.33684">
        <ele>78.5148</ele>
        <time>2011-06-25T17:21:09Z</time>
      </trkpt>
      <trkpt lat="46.31973" lon="-0.33684">
        <ele>78.5221</ele>
        <time>2011-06-25T17:21:10Z</time>
      </trkpt>
      <trkpt lat="46.31972" lon="-0.33685">
        <ele>78.5296</ele>
        <time>2011-06-25T17:21:11Z</time>
      </trkpt>
      <trkpt lat="46.31971" lon="-0.33686">
        <ele>78.5362</ele>
        <time>2011-06-25T17:21:12Z</time>
      </trkpt>
      <trkpt lat="46.3197" lon="-0.33686">
        <ele>78.5425</ele>
        <time>2011-06-25T17:21:13Z</time>
      </trkpt>
      <trkpt lat="46.31968" lon="-0.33687">
        <ele>78.5492</ele>
        <time>2011-06-25T17:21:14Z</time>
      </trkpt>
      <trkpt lat="46.31967" lon="-0.33688">
        <ele>78.5563</ele>
        <time>2011-06-25T17:21:15Z</time>
      </trkpt>
      <trkpt lat="46.31966" lon="-0.33688">
        <ele>78.5633</ele>
        <time>2011-06-25T17:21:16Z</time>
      </trkpt>
      <trkpt lat="46.31965" lon="-0.33689">
        <ele>78.5702</ele>
        <time>2011-06-25T17:21:17Z</time>
      </trkpt>
      <trkpt lat="46.31963" lon="-0.3369">
        <ele>78.5736</ele>
        <time>2011-06-25T17:21:18Z</time>
      </trkpt>
      <trkpt lat="46.31962" lon="-0.33691">
        <ele>78.5751</ele>
        <time>2011-06-25T17:21:19Z</time>
      </trkpt>
      <trkpt lat="46.31961" lon="-0.33691">
        <ele>78.5763</ele>
        <time>2011-06-25T17:21:20Z</time>
      </trkpt>
      <trkpt lat="46.3196" lon="-0.33692">
        <ele>78.5775</ele>
        <time>2011-06-25T17:21:21Z</time>
      </trkpt>
      <trkpt lat="46.31958" lon="-0.33693">
        <ele>78.5784</ele>
        <time>2011-06-25T17:21:22Z</time>
      </trkpt>
      <trkpt lat="46.31957" lon="-0.33693">
        <ele>78.5783</ele>
        <time>2011-06-25T17:21:23Z</time>
      </trkpt>
      <trkpt lat="46.31956" lon="-0.33694">
        <ele>78.5764</ele>
        <time>2011-06-25T17:21:24Z</time>
      </trkpt>
      <trkpt lat="46.31955" lon="-0.33694">
        <ele>78.5733</ele>
        <time>2011-06-25T17:21:25Z</time>
      </trkpt>
      <trkpt lat="46.31954" lon="-0.33694">
        <ele>78.5703</ele>
        <time>2011-06-25T17:21:26Z</time>
      </trkpt>
      <trkpt lat="46.31953" lon="-0.33694">
        <ele>78.5683</ele>
        <time>2011-06-25T17:21:27Z</time>
      </trkpt>
      <trkpt lat="46.31951" lon="-0.33695">
        <ele>78.5567</ele>
        <time>2011-06-25T17:21:28Z</time>
      </trkpt>
      <trkpt lat="46.3195" lon="-0.33695">
        <ele>78.5484</ele>
        <time>2011-06-25T17:21:29Z</time>
      </trkpt>
      <trkpt lat="46.31949" lon="-0.33696">
        <ele>78.5328</ele>
        <time>2011-06-25T17:21:30Z</time>
      </trkpt>
      <trkpt lat="46.31947" lon="-0.33696">
        <ele>78.511</ele>
        <time>2011-06-25T17:21:31Z</time>
      </trkpt>
      <trkpt lat="46.31946" lon="-0.33697">
        <ele>78.4896</ele>
        <time>2011-06-25T17:21:32Z</time>
      </trkpt>
      <trkpt lat="46.31945" lon="-0.33697">
        <ele>78.4607</ele>
        <time>2011-06-25T17:21:33Z</time>
      </trkpt>
      <trkpt lat="46.31944" lon="-0.33698">
        <ele>78.4322</ele>
        <time>2011-06-25T17:21:34Z</time>
      </trkpt>
      <trkpt lat="46.31942" lon="-0.33699">
        <ele>78.4004</ele>
        <time>2011-06-25T17:21:35Z</time>
      </trkpt>
      <trkpt lat="46.31941" lon="-0.337">
        <ele>78.3733</ele>
        <time>2011-06-25T17:21:36Z</time>
      </trkpt>
      <trkpt lat="46.3194" lon="-0.337">
        <ele>78.3499</ele>
        <time>2011-06-25T17:21:37Z</time>
      </trkpt>
      <trkpt lat="46.31938" lon="-0.33701">
        <ele>78.3265</ele>
        <time>2011-06-25T17:21:38Z</time>
      </trkpt>
      <trkpt lat="46.31937" lon="-0.33702">
        <ele>78.3006</ele>
        <time>2011-06-25T17:21:39Z</time>
      </trkpt>
      <trkpt lat="46.31936" lon="-0.33703">
        <ele>78.2743</ele>
        <time>2011-06-25T17:21:40Z</time>
      </trkpt>
      <trkpt lat="46.31934" lon="-0.33704">
        <ele>78.2494</ele>
        <time>2011-06-25T17:21:41Z</time>
      </trkpt>
      <trkpt lat="46.31933" lon="-0.33705">
        <ele>78.2271</ele>
        <time>2011-06-25T17:21:42Z</time>
      </trkpt>
      <trkpt lat="46.31932" lon="-0.33705">
        <ele>78.2067</ele>
        <time>2011-06-25T17:21:43Z</time>
      </trkpt>
      <trkpt lat="46.31931" lon="-0.33705">
        <ele>78.1905</ele>
        <time>2011-06-25T17:21:44Z</time>
      </trkpt>
      <trkpt lat="46.31929" lon="-0.33706">
        <ele>78.1794</ele>
        <time>2011-06-25T17:21:45Z</time>
      </trkpt>
      <trkpt lat="46.31928" lon="-0.33707">
        <ele>78.1744</ele>
        <time>2011-06-25T17:21:46Z</time>
      </trkpt>
      <trkpt lat="46.31927" lon="-0.33707">
        <ele>78.1703</ele>
        <time>2011-06-25T17:21:47Z</time>
      </trkpt>
      <trkpt lat="46.31926" lon="-0.33708">
        <ele>78.1682</ele>
        <time>2011-06-25T17:21:48Z</time>
      </trkpt>
      <trkpt lat="46.31925" lon="-0.33709">
        <ele>78.1658</ele>
        <time>2011-06-25T17:21:49Z</time>
      </trkpt>
      <trkpt lat="46.31924" lon="-0.33709">
        <ele>78.1638</ele>
        <time>2011-06-25T17:21:50Z</time>
      </trkpt>
      <trkpt lat="46.31923" lon="-0.33709">
        <ele>78.1585</ele>
        <time>2011-06-25T17:21:51Z</time>
      </trkpt>
      <trkpt lat="46.31921" lon="-0.3371">
        <ele>78.1506</ele>
        <time>2011-06-25T17:21:52Z</time>
      </trkpt>
      <trkpt lat="46.3192" lon="-0.3371">
        <ele>78.1427</ele>
        <time>2011-06-25T17:21:53Z</time>
      </trkpt>
      <trkpt lat="46.31919" lon="-0.3371">
        <ele>78.135</ele>
        <time>2011-06-25T17:21:54Z</time>
      </trkpt>
      <trkpt lat="46.31918" lon="-0.33711">
        <ele>78.1225</ele>
        <time>2011-06-25T17:21:55Z</time>
      </trkpt>
      <trkpt lat="46.31916" lon="-0.33711">
        <ele>78.1101</ele>
        <time>2011-06-25T17:21:56Z</time>
      </trkpt>
      <trkpt lat="46.31915" lon="-0.33711">
        <ele>78.0923</ele>
        <time>2011-06-25T17:21:57Z</time>
      </trkpt>
      <trkpt lat="46.31914" lon="-0.33711">
        <ele>78.0738</ele>
        <time>2011-06-25T17:21:58Z</time>
      </trkpt>
      <trkpt lat="46.31913" lon="-0.33712">
        <ele>78.0536</ele>
        <time>2011-06-25T17:21:59Z</time>
      </trkpt>
      <trkpt lat="46.31912" lon="-0.33712">
        <ele>78.0369</ele>
        <time>2011-06-25T17:22:00Z</time>
      </trkpt>
      <trkpt lat="46.3191" lon="-0.33713">
        <ele>78.0177</ele>
        <time>2011-06-25T17:22:01Z</time>
      </trkpt>
      <trkpt lat="46.31909" lon="-0.33714">
        <ele>77.9984</ele>
        <time>2011-06-25T17:22:02Z</time>
      </trkpt>
      <trkpt lat="46.31908" lon="-0.33714">
        <ele>77.9777</ele>
        <time>2011-06-25T17:22:03Z</time>
      </trkpt>
      <trkpt lat="46.31907" lon="-0.33715">
        <ele>77.95</ele>
        <time>2011-06-25T17:22:04Z</time>
      </trkpt>
      <trkpt lat="46.31905" lon="-0.33716">
        <ele>77.9212</ele>
        <time>2011-06-25T17:22:05Z</time>
      </trkpt>
      <trkpt lat="46.31904" lon="-0.33717">
        <ele>77.8961</ele>
        <time>2011-06-25T17:22:06Z</time>
      </trkpt>
      <trkpt lat="46.31902" lon="-0.33718">
        <ele>77.8709</ele>
        <time>2011-06-25T17:22:07Z</time>
      </trkpt>
      <trkpt lat="46.31901" lon="-0.33719">
        <ele>77.8494</ele>
        <time>2011-06-25T17:22:08Z</time>
      </trkpt>
      <trkpt lat="46.319" lon="-0.3372">
        <ele>77.8289</ele>
        <time>2011-06-25T17:22:09Z</time>
      </trkpt>
      <trkpt lat="46.31899" lon="-0.3372">
        <ele>77.8062</ele>
        <time>2011-06-25T17:22:10Z</time>
      </trkpt>
      <trkpt lat="46.31897" lon="-0.33721">
        <ele>77.7836</ele>
        <time>2011-06-25T17:22:11Z</time>
      </trkpt>
      <trkpt lat="46.31896" lon="-0.33721">
        <ele>77.7657</ele>
        <time>2011-06-25T17:22:12Z</time>
      </trkpt>
      <trkpt lat="46.31895" lon="-0.33722">
        <ele>77.7496</ele>
        <time>2011-06-25T17:22:13Z</time>
      </trkpt>
      <trkpt lat="46.31894" lon="-0.33722">
        <ele>77.7375</ele>
        <time>2011-06-25T17:22:14Z</time>
      </trkpt>
      <trkpt lat="46.31892" lon="-0.33723">
        <ele>77.725</ele>
        <time>2011-06-25T17:22:15Z</time>
      </trkpt>
      <trkpt lat="46.31891" lon="-0.33724">
        <ele>77.7055</ele>
        <time>2011-06-25T17:22:16Z</time>
      </trkpt>
      <trkpt lat="46.31889" lon="-0.33724">
        <ele>77.6862</ele>
        <time>2011-06-25T17:22:17Z</time>
      </trkpt>
      <trkpt lat="46.31887" lon="-0.33725">
        <ele>77.6663</ele>
        <time>2011-06-25T17:22:18Z</time>
      </trkpt>
      <trkpt lat="46.31886" lon="-0.33725">
        <ele>77.6464</ele>
        <time>2011-06-25T17:22:19Z</time>
      </trkpt>
      <trkpt lat="46.31885" lon="-0.33725">
        <ele>77.6237</ele>
        <time>2011-06-25T17:22:20Z</time>
      </trkpt>
      <trkpt lat="46.31883" lon="-0.33726">
        <ele>77.5986</ele>
        <time>2011-06-25T17:22:21Z</time>
      </trkpt>
      <trkpt lat="46.31881" lon="-0.33726">
        <ele>77.5719</ele>
        <time>2011-06-25T17:22:22Z</time>
      </trkpt>
      <trkpt lat="46.3188" lon="-0.33727">
        <ele>77.5448</ele>
        <time>2011-06-25T17:22:23Z</time>
      </trkpt>
      <trkpt lat="46.31878" lon="-0.33727">
        <ele>77.5194</ele>
        <time>2011-06-25T17:22:24Z</time>
      </trkpt>
      <trkpt lat="46.31877" lon="-0.33728">
        <ele>77.4964</ele>
        <time>2011-06-25T17:22:25Z</time>
      </trkpt>
      <trkpt lat="46.31875" lon="-0.33728">
        <ele>77.4746</ele>
        <time>2011-06-25T17:22:26Z</time>
      </trkpt>
      <trkpt lat="46.31874" lon="-0.33729">
        <ele>77.4544</ele>
        <time>2011-06-25T17:22:27Z</time>
      </trkpt>
      <trkpt lat="46.31872" lon="-0.3373">
        <ele>77.4353</ele>
        <time>2011-06-25T17:22:28Z</time>
      </trkpt>
      <trkpt lat="46.31871" lon="-0.33731">
        <ele>77.4171</ele>
        <time>2011-06-25T17:22:29Z</time>
      </trkpt>
      <trkpt lat="46.31869" lon="-0.33731">
        <ele>77.4003</ele>
        <time>2011-06-25T17:22:30Z</time>
      </trkpt>
      <trkpt lat="46.31868" lon="-0.33732">
        <ele>77.3823</ele>
        <time>2011-06-25T17:22:31Z</time>
      </trkpt>
      <trkpt lat="46.31867" lon="-0.33733">
        <ele>77.3676</ele>
        <time>2011-06-25T17:22:32Z</time>
      </trkpt>
      <trkpt lat="46.31865" lon="-0.33734">
        <ele>77.3526</ele>
        <time>2011-06-25T17:22:33Z</time>
      </trkpt>
      <trkpt lat="46.31864" lon="-0.33734">
        <ele>77.3377</ele>
        <time>2011-06-25T17:22:34Z</time>
      </trkpt>
      <trkpt lat="46.31863" lon="-0.33735">
        <ele>77.3214</ele>
        <time>2011-06-25T17:22:35Z</time>
      </trkpt>
      <trkpt lat="46.31861" lon="-0.33735">
        <ele>77.3054</ele>
        <time>2011-06-25T17:22:36Z</time>
      </trkpt>
      <trkpt lat="46.3186" lon="-0.33736">
        <ele>77.2889</ele>
        <time>2011-06-25T17:22:37Z</time>
      </trkpt>
      <trkpt lat="46.31858" lon="-0.33737">
        <ele>77.2728</ele>
        <time>2011-06-25T17:22:38Z</time>
      </trkpt>
      <trkpt lat="46.31857" lon="-0.33737">
        <ele>77.2572</ele>
        <time>2011-06-25T17:22:39Z</time>
      </trkpt>
      <trkpt lat="46.31855" lon="-0.33738">
        <ele>77.2423</ele>
        <time>2011-06-25T17:22:40Z</time>
      </trkpt>
      <trkpt lat="46.31854" lon="-0.33738">
        <ele>77.2282</ele>
        <time>2011-06-25T17:22:41Z</time>
      </trkpt>
      <trkpt lat="46.31853" lon="-0.33739">
        <ele>77.212</ele>
        <time>2011-06-25T17:22:42Z</time>
      </trkpt>
      <trkpt lat="46.31852" lon="-0.33739">
        <ele>77.1951</ele>
        <time>2011-06-25T17:22:43Z</time>
      </trkpt>
      <trkpt lat="46.3185" lon="-0.3374">
        <ele>77.176</ele>
        <time>2011-06-25T17:22:44Z</time>
      </trkpt>
      <trkpt lat="46.31849" lon="-0.3374">
        <ele>77.1536</ele>
        <time>2011-06-25T17:22:45Z</time>
      </trkpt>
      <trkpt lat="46.31848" lon="-0.3374">
        <ele>77.1313</ele>
        <time>2011-06-25T17:22:46Z</time>
      </trkpt>
      <trkpt lat="46.31847" lon="-0.3374">
        <ele>77.0999</ele>
        <time>2011-06-25T17:22:47Z</time>
      </trkpt>
      <trkpt lat="46.31846" lon="-0.3374">
        <ele>77.0676</ele>
        <time>2011-06-25T17:22:48Z</time>
      </trkpt>
      <trkpt lat="46.31845" lon="-0.33741">
        <ele>77.0285</ele>
        <time>2011-06-25T17:22:49Z</time>
      </trkpt>
      <trkpt lat="46.31844" lon="-0.3374">
        <ele>76.992</ele>
        <time>2011-06-25T17:22:50Z</time>
      </trkpt>
      <trkpt lat="46.31842" lon="-0.33741">
        <ele>76.9554</ele>
        <time>2011-06-25T17:22:51Z</time>
      </trkpt>
      <trkpt lat="46.31841" lon="-0.33741">
        <ele>76.9174</ele>
        <time>2011-06-25T17:22:52Z</time>
      </trkpt>
      <trkpt lat="46.3184" lon="-0.33741">
        <ele>76.8779</ele>
        <time>2011-06-25T17:22:53Z</time>
      </trkpt>
      <trkpt lat="46.31838" lon="-0.33741">
        <ele>76.837</ele>
        <time>2011-06-25T17:22:54Z</time>
      </trkpt>
      <trkpt lat="46.31837" lon="-0.33741">
        <ele>76.7942</ele>
        <time>2011-06-25T17:22:55Z</time>
      </trkpt>
      <trkpt lat="46.31836" lon="-0.33741">
        <ele>76.751</ele>
        <time>2011-06-25T17:22:56Z</time>
      </trkpt>
      <trkpt lat="46.31834" lon="-0.33741">
        <ele>76.7094</ele>
        <time>2011-06-25T17:22:57Z</time>
      </trkpt>
      <trkpt lat="46.31833" lon="-0.33741">
        <ele>76.67</ele>
        <time>2011-06-25T17:22:58Z</time>
      </trkpt>
      <trkpt lat="46.31831" lon="-0.33742">
        <ele>76.6333</ele>
        <time>2011-06-25T17:22:59Z</time>
      </trkpt>
      <trkpt lat="46.3183" lon="-0.33743">
        <ele>76.5986</ele>
        <time>2011-06-25T17:23:00Z</time>
      </trkpt>
      <trkpt lat="46.31829" lon="-0.33743">
        <ele>76.5661</ele>
        <time>2011-06-25T17:23:01Z</time>
      </trkpt>
      <trkpt lat="46.31828" lon="-0.33743">
        <ele>76.5339</ele>
        <time>2011-06-25T17:23:02Z</time>
      </trkpt>
      <trkpt lat="46.31826" lon="-0.33743">
        <ele>76.503</ele>
        <time>2011-06-25T17:23:03Z</time>
      </trkpt>
      <trkpt lat="46.31825" lon="-0.33743">
        <ele>76.4752</ele>
        <time>2011-06-25T17:23:04Z</time>
      </trkpt>
      <trkpt lat="46.31824" lon="-0.33744">
        <ele>76.4485</ele>
        <time>2011-06-25T17:23:05Z</time>
      </trkpt>
      <trkpt lat="46.31822" lon="-0.33744">
        <ele>76.4245</ele>
        <time>2011-06-25T17:23:06Z</time>
      </trkpt>
      <trkpt lat="46.31821" lon="-0.33744">
        <ele>76.4034</ele>
        <time>2011-06-25T17:23:07Z</time>
      </trkpt>
      <trkpt lat="46.3182" lon="-0.33744">
        <ele>76.3846</ele>
        <time>2011-06-25T17:23:08Z</time>
      </trkpt>
      <trkpt lat="46.31818" lon="-0.33744">
        <ele>76.3672</ele>
        <time>2011-06-25T17:23:09Z</time>
      </trkpt>
      <trkpt lat="46.31817" lon="-0.33744">
        <ele>76.3503</ele>
        <time>2011-06-25T17:23:10Z</time>
      </trkpt>
      <trkpt lat="46.31815" lon="-0.33743">
        <ele>76.3366</ele>
        <time>2011-06-25T17:23:11Z</time>
      </trkpt>
      <trkpt lat="46.31814" lon="-0.33743">
        <ele>76.3252</ele>
        <time>2011-06-25T17:23:12Z</time>
      </trkpt>
      <trkpt lat="46.31813" lon="-0.33742">
        <ele>76.3116</ele>
        <time>2011-06-25T17:23:13Z</time>
      </trkpt>
      <trkpt lat="46.31811" lon="-0.33741">
        <ele>76.2964</ele>
        <time>2011-06-25T17:23:14Z</time>
      </trkpt>
      <trkpt lat="46.3181" lon="-0.3374">
        <ele>76.2825</ele>
        <time>2011-06-25T17:23:15Z</time>
      </trkpt>
      <trkpt lat="46.31809" lon="-0.3374">
        <ele>76.2662</ele>
        <time>2011-06-25T17:23:16Z</time>
      </trkpt>
      <trkpt lat="46.31807" lon="-0.33739">
        <ele>76.2474</ele>
        <time>2011-06-25T17:23:17Z</time>
      </trkpt>
      <trkpt lat="46.31805" lon="-0.33739">
        <ele>76.2267</ele>
        <time>2011-06-25T17:23:18Z</time>
      </trkpt>
      <trkpt lat="46.31803" lon="-0.33739">
        <ele>76.206</ele>
        <time>2011-06-25T17:23:19Z</time>
      </trkpt>
      <trkpt lat="46.31802" lon="-0.3374">
        <ele>76.1838</ele>
        <time>2011-06-25T17:23:20Z</time>
      </trkpt>
      <trkpt lat="46.31801" lon="-0.3374">
        <ele>76.1618</ele>
        <time>2011-06-25T17:23:21Z</time>
      </trkpt>
      <trkpt lat="46.31799" lon="-0.3374">
        <ele>76.1401</ele>
        <time>2011-06-25T17:23:22Z</time>
      </trkpt>
      <trkpt lat="46.31797" lon="-0.3374">
        <ele>76.121</ele>
        <time>2011-06-25T17:23:23Z</time>
      </trkpt>
      <trkpt lat="46.31796" lon="-0.33739">
        <ele>76.1005</ele>
        <time>2011-06-25T17:23:24Z</time>
      </trkpt>
      <trkpt lat="46.31794" lon="-0.33739">
        <ele>76.0795</ele>
        <time>2011-06-25T17:23:25Z</time>
      </trkpt>
      <trkpt lat="46.31792" lon="-0.33739">
        <ele>76.0679</ele>
        <time>2011-06-25T17:23:26Z</time>
      </trkpt>
      <trkpt lat="46.31791" lon="-0.33739">
        <ele>76.0594</ele>
        <time>2011-06-25T17:23:27Z</time>
      </trkpt>
      <trkpt lat="46.31789" lon="-0.33738">
        <ele>76.0521</ele>
        <time>2011-06-25T17:23:28Z</time>
      </trkpt>
      <trkpt lat="46.31788" lon="-0.33738">
        <ele>76.0458</ele>
        <time>2011-06-25T17:23:29Z</time>
      </trkpt>
      <trkpt lat="46.31787" lon="-0.33738">
        <ele>76.0331</ele>
        <time>2011-06-25T17:23:30Z</time>
      </trkpt>
      <trkpt lat="46.31785" lon="-0.33738">
        <ele>76.0204</ele>
        <time>2011-06-25T17:23:31Z</time>
      </trkpt>
      <trkpt lat="46.31784" lon="-0.33738">
        <ele>76.008</ele>
        <time>2011-06-25T17:23:32Z</time>
      </trkpt>
      <trkpt lat="46.31783" lon="-0.33738">
        <ele>75.9914</ele>
        <time>2011-06-25T17:23:33Z</time>
      </trkpt>
      <trkpt lat="46.31781" lon="-0.33737">
        <ele>75.9697</ele>
        <time>2011-06-25T17:23:34Z</time>
      </trkpt>
      <trkpt lat="46.3178" lon="-0.33737">
        <ele>75.9464</ele>
        <time>2011-06-25T17:23:35Z</time>
      </trkpt>
      <trkpt lat="46.31779" lon="-0.33737">
        <ele>75.9226</ele>
        <time>2011-06-25T17:23:36Z</time>
      </trkpt>
      <trkpt lat="46.31778" lon="-0.33737">
        <ele>75.8959</ele>
        <time>2011-06-25T17:23:37Z</time>
      </trkpt>
      <trkpt lat="46.31776" lon="-0.33737">
        <ele>75.8713</ele>
        <time>2011-06-25T17:23:38Z</time>
      </trkpt>
      <trkpt lat="46.31775" lon="-0.33737">
        <ele>75.8431</ele>
        <time>2011-06-25T17:23:39Z</time>
      </trkpt>
      <trkpt lat="46.31774" lon="-0.33736">
        <ele>75.8185</ele>
        <time>2011-06-25T17:23:40Z</time>
      </trkpt>
      <trkpt lat="46.31773" lon="-0.33735">
        <ele>75.7916</ele>
        <time>2011-06-25T17:23:41Z</time>
      </trkpt>
      <trkpt lat="46.31771" lon="-0.33735">
        <ele>75.7744</ele>
        <time>2011-06-25T17:23:42Z</time>
      </trkpt>
      <trkpt lat="46.3177" lon="-0.33735">
        <ele>75.7582</ele>
        <time>2011-06-25T17:23:43Z</time>
      </trkpt>
      <trkpt lat="46.31768" lon="-0.33736">
        <ele>75.7343</ele>
        <time>2011-06-25T17:23:44Z</time>
      </trkpt>
      <trkpt lat="46.31767" lon="-0.33736">
        <ele>75.714</ele>
        <time>2011-06-25T17:23:45Z</time>
      </trkpt>
      <trkpt lat="46.31765" lon="-0.33737">
        <ele>75.6919</ele>
        <time>2011-06-25T17:23:46Z</time>
      </trkpt>
      <trkpt lat="46.31764" lon="-0.33737">
        <ele>75.6715</ele>
        <time>2011-06-25T17:23:47Z</time>
      </trkpt>
      <trkpt lat="46.31762" lon="-0.33738">
        <ele>75.6496</ele>
        <time>2011-06-25T17:23:48Z</time>
      </trkpt>
      <trkpt lat="46.31761" lon="-0.33738">
        <ele>75.6249</ele>
        <time>2011-06-25T17:23:49Z</time>
      </trkpt>
      <trkpt lat="46.3176" lon="-0.33738">
        <ele>75.5926</ele>
        <time>2011-06-25T17:23:50Z</time>
      </trkpt>
      <trkpt lat="46.31759" lon="-0.33738">
        <ele>75.5607</ele>
        <time>2011-06-25T17:23:51Z</time>
      </trkpt>
      <trkpt lat="46.31758" lon="-0.33738">
        <ele>75.5272</ele>
        <time>2011-06-25T17:23:52Z</time>
      </trkpt>
      <trkpt lat="46.31757" lon="-0.33738">
        <ele>75.4933</ele>
        <time>2011-06-25T17:23:53Z</time>
      </trkpt>
      <trkpt lat="46.31756" lon="-0.33738">
        <ele>75.4606</ele>
        <time>2011-06-25T17:23:54Z</time>
      </trkpt>
      <trkpt lat="46.31755" lon="-0.33737">
        <ele>75.4194</ele>
        <time>2011-06-25T17:23:55Z</time>
      </trkpt>
      <trkpt lat="46.31754" lon="-0.33737">
        <ele>75.3755</ele>
        <time>2011-06-25T17:23:56Z</time>
      </trkpt>
      <trkpt lat="46.31752" lon="-0.33737">
        <ele>75.3075</ele>
        <time>2011-06-25T17:23:57Z</time>
      </trkpt>
      <trkpt lat="46.31751" lon="-0.33737">
        <ele>75.2397</ele>
        <time>2011-06-25T17:23:58Z</time>
      </trkpt>
      <trkpt lat="46.3175" lon="-0.33738">
        <ele>75.136</ele>
        <time>2011-06-25T17:23:59Z</time>
      </trkpt>
      <trkpt lat="46.31749" lon="-0.33738">
        <ele>75.0337</ele>
        <time>2011-06-25T17:24:00Z</time>
      </trkpt>
      <trkpt lat="46.31748" lon="-0.33738">
        <ele>74.9036</ele>
        <time>2011-06-25T17:24:01Z</time>
      </trkpt>
      <trkpt lat="46.31747" lon="-0.33739">
        <ele>74.7523</ele>
        <time>2011-06-25T17:24:02Z</time>
      </trkpt>
      <trkpt lat="46.31746" lon="-0.33739">
        <ele>74.6033</ele>
        <time>2011-06-25T17:24:03Z</time>
      </trkpt>
      <trkpt lat="46.31744" lon="-0.33739">
        <ele>74.4585</ele>
        <time>2011-06-25T17:24:04Z</time>
      </trkpt>
      <trkpt lat="46.31743" lon="-0.33739">
        <ele>74.3155</ele>
        <time>2011-06-25T17:24:05Z</time>
      </trkpt>
      <trkpt lat="46.31742" lon="-0.33739">
        <ele>74.1767</ele>
        <time>2011-06-25T17:24:06Z</time>
      </trkpt>
      <trkpt lat="46.31741" lon="-0.33739">
        <ele>74.0404</ele>
        <time>2011-06-25T17:24:07Z</time>
      </trkpt>
      <trkpt lat="46.31739" lon="-0.3374">
        <ele>73.8855</ele>
        <time>2011-06-25T17:24:08Z</time>
      </trkpt>
      <trkpt lat="46.31738" lon="-0.3374">
        <ele>73.7176</ele>
        <time>2011-06-25T17:24:09Z</time>
      </trkpt>
      <trkpt lat="46.31737" lon="-0.3374">
        <ele>73.5534</ele>
        <time>2011-06-25T17:24:10Z</time>
      </trkpt>
      <trkpt lat="46.31735" lon="-0.3374">
        <ele>73.3905</ele>
        <time>2011-06-25T17:24:11Z</time>
      </trkpt>
      <trkpt lat="46.31734" lon="-0.3374">
        <ele>73.2299</ele>
        <time>2011-06-25T17:24:12Z</time>
      </trkpt>
      <trkpt lat="46.31733" lon="-0.3374">
        <ele>73.0775</ele>
        <time>2011-06-25T17:24:13Z</time>
      </trkpt>
      <trkpt lat="46.31732" lon="-0.3374">
        <ele>72.9291</ele>
        <time>2011-06-25T17:24:14Z</time>
      </trkpt>
      <trkpt lat="46.3173" lon="-0.3374">
        <ele>72.7862</ele>
        <time>2011-06-25T17:24:15Z</time>
      </trkpt>
      <trkpt lat="46.31729" lon="-0.3374">
        <ele>72.6449</ele>
        <time>2011-06-25T17:24:16Z</time>
      </trkpt>
      <trkpt lat="46.31728" lon="-0.3374">
        <ele>72.4999</ele>
        <time>2011-06-25T17:24:17Z</time>
      </trkpt>
      <trkpt lat="46.31727" lon="-0.33741">
        <ele>72.3533</ele>
        <time>2011-06-25T17:24:18Z</time>
      </trkpt>
      <trkpt lat="46.31725" lon="-0.33741">
        <ele>72.2067</ele>
        <time>2011-06-25T17:24:19Z</time>
      </trkpt>
      <trkpt lat="46.31724" lon="-0.33741">
        <ele>72.0603</ele>
        <time>2011-06-25T17:24:20Z</time>
      </trkpt>
      <trkpt lat="46.31722" lon="-0.33741">
        <ele>71.9176</ele>
        <time>2011-06-25T17:24:21Z</time>
      </trkpt>
      <trkpt lat="46.31721" lon="-0.33741">
        <ele>71.7791</ele>
        <time>2011-06-25T17:24:22Z</time>
      </trkpt>
      <trkpt lat="46.3172" lon="-0.33741">
        <ele>71.6422</ele>
        <time>2011-06-25T17:24:23Z</time>
      </trkpt>
      <trkpt lat="46.31718" lon="-0.33741">
        <ele>71.509</ele>
        <time>2011-06-25T17:24:24Z</time>
      </trkpt>
      <trkpt lat="46.31717" lon="-0.33741">
        <ele>71.3814</ele>
        <time>2011-06-25T17:24:25Z</time>
      </trkpt>
      <trkpt lat="46.31716" lon="-0.33741">
        <ele>71.2551</ele>
        <time>2011-06-25T17:24:26Z</time>
      </trkpt>
      <trkpt lat="46.31715" lon="-0.3374">
        <ele>71.1292</ele>
        <time>2011-06-25T17:24:27Z</time>
      </trkpt>
      <trkpt lat="46.31713" lon="-0.3374">
        <ele>71.0061</ele>
        <time>2011-06-25T17:24:28Z</time>
      </trkpt>
      <trkpt lat="46.31712" lon="-0.3374">
        <ele>70.8909</ele>
        <time>2011-06-25T17:24:29Z</time>
      </trkpt>
      <trkpt lat="46.3171" lon="-0.3374">
        <ele>70.7799</ele>
        <time>2011-06-25T17:24:30Z</time>
      </trkpt>
      <trkpt lat="46.31709" lon="-0.3374">
        <ele>70.6716</ele>
        <time>2011-06-25T17:24:31Z</time>
      </trkpt>
      <trkpt lat="46.31707" lon="-0.3374">
        <ele>70.566</ele>
        <time>2011-06-25T17:24:32Z</time>
      </trkpt>
      <trkpt lat="46.31706" lon="-0.3374">
        <ele>70.4615</ele>
        <time>2011-06-25T17:24:33Z</time>
      </trkpt>
      <trkpt lat="46.31705" lon="-0.33739">
        <ele>70.3586</ele>
        <time>2011-06-25T17:24:34Z</time>
      </trkpt>
      <trkpt lat="46.31704" lon="-0.33739">
        <ele>70.2572</ele>
        <time>2011-06-25T17:24:35Z</time>
      </trkpt>
      <trkpt lat="46.31703" lon="-0.33739">
        <ele>70.1569</ele>
        <time>2011-06-25T17:24:36Z</time>
      </trkpt>
      <trkpt lat="46.31702" lon="-0.33739">
        <ele>70.0578</ele>
        <time>2011-06-25T17:24:37Z</time>
      </trkpt>
      <trkpt lat="46.317" lon="-0.33739">
        <ele>69.958</ele>
        <time>2011-06-25T17:24:38Z</time>
      </trkpt>
      <trkpt lat="46.31699" lon="-0.33739">
        <ele>69.8555</ele>
        <time>2011-06-25T17:24:39Z</time>
      </trkpt>
      <trkpt lat="46.31697" lon="-0.33738">
        <ele>69.7536</ele>
        <time>2011-06-25T17:24:40Z</time>
      </trkpt>
      <trkpt lat="46.31696" lon="-0.33738">
        <ele>69.6535</ele>
        <time>2011-06-25T17:24:41Z</time>
      </trkpt>
      <trkpt lat="46.31694" lon="-0.33738">
        <ele>69.5539</ele>
        <time>2011-06-25T17:24:42Z</time>
      </trkpt>
      <trkpt lat="46.31693" lon="-0.33738">
        <ele>69.4564</ele>
        <time>2011-06-25T17:24:43Z</time>
      </trkpt>
      <trkpt lat="46.31691" lon="-0.33738">
        <ele>69.3615</ele>
        <time>2011-06-25T17:24:44Z</time>
      </trkpt>
      <trkpt lat="46.3169" lon="-0.33738">
        <ele>69.2681</ele>
        <time>2011-06-25T17:24:45Z</time>
      </trkpt>
      <trkpt lat="46.31688" lon="-0.33739">
        <ele>69.1749</ele>
        <time>2011-06-25T17:24:46Z</time>
      </trkpt>
      <trkpt lat="46.31687" lon="-0.33739">
        <ele>69.0847</ele>
        <time>2011-06-25T17:24:46Z</time>
      </trkpt>
      <trkpt lat="46.31685" lon="-0.33739">
        <ele>68.9984</ele>
        <time>2011-06-25T17:24:48Z</time>
      </trkpt>
      <trkpt lat="46.31684" lon="-0.33739">
        <ele>68.9173</ele>
        <time>2011-06-25T17:24:49Z</time>
      </trkpt>
      <trkpt lat="46.31683" lon="-0.33739">
        <ele>68.8427</ele>
        <time>2011-06-25T17:24:50Z</time>
      </trkpt>
      <trkpt lat="46.31681" lon="-0.33739">
        <ele>68.7696</ele>
        <time>2011-06-25T17:24:51Z</time>
      </trkpt>
      <trkpt lat="46.3168" lon="-0.33739">
        <ele>68.7017</ele>
        <time>2011-06-25T17:24:52Z</time>
      </trkpt>
      <trkpt lat="46.31678" lon="-0.33739">
        <ele>68.6349</ele>
        <time>2011-06-25T17:24:53Z</time>
      </trkpt>
      <trkpt lat="46.31677" lon="-0.33739">
        <ele>68.5695</ele>
        <time>2011-06-25T17:24:54Z</time>
      </trkpt>
      <trkpt lat="46.31676" lon="-0.33739">
        <ele>68.5057</ele>
        <time>2011-06-25T17:24:55Z</time>
      </trkpt>
      <trkpt lat="46.31675" lon="-0.33739">
        <ele>68.4465</ele>
        <time>2011-06-25T17:24:56Z</time>
      </trkpt>
      <trkpt lat="46.31673" lon="-0.33738">
        <ele>68.3896</ele>
        <time>2011-06-25T17:24:57Z</time>
      </trkpt>
      <trkpt lat="46.31672" lon="-0.33738">
        <ele>68.334</ele>
        <time>2011-06-25T17:24:58Z</time>
      </trkpt>
      <trkpt lat="46.31671" lon="-0.33738">
        <ele>68.2804</ele>
        <time>2011-06-25T17:24:59Z</time>
      </trkpt>
      <trkpt lat="46.3167" lon="-0.33738">
        <ele>68.2278</ele>
        <time>2011-06-25T17:25:00Z</time>
      </trkpt>
      <trkpt lat="46.31669" lon="-0.33737">
        <ele>68.1755</ele>
        <time>2011-06-25T17:25:01Z</time>
      </trkpt>
      <trkpt lat="46.31667" lon="-0.33737">
        <ele>68.1232</ele>
        <time>2011-06-25T17:25:02Z</time>
      </trkpt>
      <trkpt lat="46.31666" lon="-0.33737">
        <ele>68.0658</ele>
        <time>2011-06-25T17:25:03Z</time>
      </trkpt>
      <trkpt lat="46.31665" lon="-0.33737">
        <ele>68.0074</ele>
        <time>2011-06-25T17:25:04Z</time>
      </trkpt>
      <trkpt lat="46.31664" lon="-0.33737">
        <ele>67.9493</ele>
        <time>2011-06-25T17:25:05Z</time>
      </trkpt>
      <trkpt lat="46.31662" lon="-0.33737">
        <ele>67.8923</ele>
        <time>2011-06-25T17:25:06Z</time>
      </trkpt>
      <trkpt lat="46.31661" lon="-0.33736">
        <ele>67.8362</ele>
        <time>2011-06-25T17:25:07Z</time>
      </trkpt>
      <trkpt lat="46.31659" lon="-0.33736">
        <ele>67.7789</ele>
        <time>2011-06-25T17:25:08Z</time>
      </trkpt>
      <trkpt lat="46.31658" lon="-0.33735">
        <ele>67.7228</ele>
        <time>2011-06-25T17:25:09Z</time>
      </trkpt>
      <trkpt lat="46.31656" lon="-0.33735">
        <ele>67.6652</ele>
        <time>2011-06-25T17:25:10Z</time>
      </trkpt>
      <trkpt lat="46.31655" lon="-0.33735">
        <ele>67.6059</ele>
        <time>2011-06-25T17:25:11Z</time>
      </trkpt>
      <trkpt lat="46.31654" lon="-0.33735">
        <ele>67.5439</ele>
        <time>2011-06-25T17:25:12Z</time>
      </trkpt>
      <trkpt lat="46.31653" lon="-0.33735">
        <ele>67.4783</ele>
        <time>2011-06-25T17:25:13Z</time>
      </trkpt>
      <trkpt lat="46.31651" lon="-0.33735">
        <ele>67.4131</ele>
        <time>2011-06-25T17:25:14Z</time>
      </trkpt>
      <trkpt lat="46.3165" lon="-0.33735">
        <ele>67.3491</ele>
        <time>2011-06-25T17:25:15Z</time>
      </trkpt>
      <trkpt lat="46.31649" lon="-0.33735">
        <ele>67.2857</ele>
        <time>2011-06-25T17:25:16Z</time>
      </trkpt>
      <trkpt lat="46.31648" lon="-0.33735">
        <ele>67.223</ele>
        <time>2011-06-25T17:25:17Z</time>
      </trkpt>
      <trkpt lat="46.31646" lon="-0.33735">
        <ele>67.1608</ele>
        <time>2011-06-25T17:25:18Z</time>
      </trkpt>
      <trkpt lat="46.31645" lon="-0.33735">
        <ele>67.0963</ele>
        <time>2011-06-25T17:25:19Z</time>
      </trkpt>
      <trkpt lat="46.31644" lon="-0.33735">
        <ele>67.0328</ele>
        <time>2011-06-25T17:25:20Z</time>
      </trkpt>
      <trkpt lat="46.31643" lon="-0.33735">
        <ele>66.9708</ele>
        <time>2011-06-25T17:25:21Z</time>
      </trkpt>
      <trkpt lat="46.31641" lon="-0.33735">
        <ele>66.9108</ele>
        <time>2011-06-25T17:25:22Z</time>
      </trkpt>
      <trkpt lat="46.3164" lon="-0.33735">
        <ele>66.8518</ele>
        <time>2011-06-25T17:25:23Z</time>
      </trkpt>
      <trkpt lat="46.31639" lon="-0.33736">
        <ele>66.794</ele>
        <time>2011-06-25T17:25:24Z</time>
      </trkpt>
      <trkpt lat="46.31638" lon="-0.33736">
        <ele>66.7356</ele>
        <time>2011-06-25T17:25:25Z</time>
      </trkpt>
      <trkpt lat="46.31636" lon="-0.33736">
        <ele>66.6787</ele>
        <time>2011-06-25T17:25:26Z</time>
      </trkpt>
      <trkpt lat="46.31635" lon="-0.33736">
        <ele>66.6232</ele>
        <time>2011-06-25T17:25:27Z</time>
      </trkpt>
      <trkpt lat="46.31634" lon="-0.33737">
        <ele>66.5676</ele>
        <time>2011-06-25T17:25:28Z</time>
      </trkpt>
      <trkpt lat="46.31632" lon="-0.33737">
        <ele>66.5113</ele>
        <time>2011-06-25T17:25:29Z</time>
      </trkpt>
      <trkpt lat="46.31631" lon="-0.33737">
        <ele>66.4566</ele>
        <time>2011-06-25T17:25:30Z</time>
      </trkpt>
      <trkpt lat="46.31629" lon="-0.33737">
        <ele>66.4061</ele>
        <time>2011-06-25T17:25:31Z</time>
      </trkpt>
      <trkpt lat="46.31627" lon="-0.33737">
        <ele>66.355</ele>
        <time>2011-06-25T17:25:32Z</time>
      </trkpt>
      <trkpt lat="46.31625" lon="-0.33736">
        <ele>66.3103</ele>
        <time>2011-06-25T17:25:32Z</time>
      </trkpt>
      <trkpt lat="46.31624" lon="-0.33736">
        <ele>66.2722</ele>
        <time>2011-06-25T17:25:34Z</time>
      </trkpt>
      <trkpt lat="46.31622" lon="-0.33736">
        <ele>66.2402</ele>
        <time>2011-06-25T17:25:35Z</time>
      </trkpt>
      <trkpt lat="46.3162" lon="-0.33736">
        <ele>66.2101</ele>
        <time>2011-06-25T17:25:36Z</time>
      </trkpt>
      <trkpt lat="46.31619" lon="-0.33736">
        <ele>66.1811</ele>
        <time>2011-06-25T17:25:37Z</time>
      </trkpt>
      <trkpt lat="46.31617" lon="-0.33736">
        <ele>66.1523</ele>
        <time>2011-06-25T17:25:38Z</time>
      </trkpt>
      <trkpt lat="46.31616" lon="-0.33736">
        <ele>66.1191</ele>
        <time>2011-06-25T17:25:39Z</time>
      </trkpt>
      <trkpt lat="46.31615" lon="-0.33736">
        <ele>66.0817</ele>
        <time>2011-06-25T17:25:40Z</time>
      </trkpt>
      <trkpt lat="46.31614" lon="-0.33737">
        <ele>66.0427</ele>
        <time>2011-06-25T17:25:41Z</time>
      </trkpt>
      <trkpt lat="46.31612" lon="-0.33737">
        <ele>66.0044</ele>
        <time>2011-06-25T17:25:42Z</time>
      </trkpt>
      <trkpt lat="46.31612" lon="-0.33737">
        <ele>65.9671</ele>
        <time>2011-06-25T17:25:43Z</time>
      </trkpt>
      <trkpt lat="46.31611" lon="-0.33738">
        <ele>65.9309</ele>
        <time>2011-06-25T17:25:44Z</time>
      </trkpt>
      <trkpt lat="46.3161" lon="-0.33738">
        <ele>65.8949</ele>
        <time>2011-06-25T17:25:45Z</time>
      </trkpt>
      <trkpt lat="46.31609" lon="-0.33739">
        <ele>65.8609</ele>
        <time>2011-06-25T17:25:46Z</time>
      </trkpt>
      <trkpt lat="46.31607" lon="-0.3374">
        <ele>65.8265</ele>
        <time>2011-06-25T17:25:47Z</time>
      </trkpt>
      <trkpt lat="46.31607" lon="-0.3374">
        <ele>65.7877</ele>
        <time>2011-06-25T17:25:48Z</time>
      </trkpt>
      <trkpt lat="46.31606" lon="-0.33741">
        <ele>65.7509</ele>
        <time>2011-06-25T17:25:49Z</time>
      </trkpt>
      <trkpt lat="46.31604" lon="-0.33742">
        <ele>65.7146</ele>
        <time>2011-06-25T17:25:50Z</time>
      </trkpt>
      <trkpt lat="46.31603" lon="-0.33742">
        <ele>65.6765</ele>
        <time>2011-06-25T17:25:51Z</time>
      </trkpt>
      <trkpt lat="46.31601" lon="-0.33743">
        <ele>65.6376</ele>
        <time>2011-06-25T17:25:52Z</time>
      </trkpt>
      <trkpt lat="46.316" lon="-0.33744">
        <ele>65.5992</ele>
        <time>2011-06-25T17:25:53Z</time>
      </trkpt>
      <trkpt lat="46.31599" lon="-0.33745">
        <ele>65.5559</ele>
        <time>2011-06-25T17:25:54Z</time>
      </trkpt>
      <trkpt lat="46.31598" lon="-0.33746">
        <ele>65.5065</ele>
        <time>2011-06-25T17:25:55Z</time>
      </trkpt>
      <trkpt lat="46.31596" lon="-0.33747">
        <ele>65.4567</ele>
        <time>2011-06-25T17:25:56Z</time>
      </trkpt>
      <trkpt lat="46.31595" lon="-0.33748">
        <ele>65.3989</ele>
        <time>2011-06-25T17:25:57Z</time>
      </trkpt>
      <trkpt lat="46.31594" lon="-0.3375">
        <ele>65.3368</ele>
        <time>2011-06-25T17:25:58Z</time>
      </trkpt>
      <trkpt lat="46.31593" lon="-0.33751">
        <ele>65.2701</ele>
        <time>2011-06-25T17:25:59Z</time>
      </trkpt>
      <trkpt lat="46.31592" lon="-0.33752">
        <ele>65.2052</ele>
        <time>2011-06-25T17:26:00Z</time>
      </trkpt>
      <trkpt lat="46.31591" lon="-0.33753">
        <ele>65.134</ele>
        <time>2011-06-25T17:26:01Z</time>
      </trkpt>
      <trkpt lat="46.3159" lon="-0.33755">
        <ele>65.0636</ele>
        <time>2011-06-25T17:26:02Z</time>
      </trkpt>
      <trkpt lat="46.31589" lon="-0.33756">
        <ele>64.9952</ele>
        <time>2011-06-25T17:26:03Z</time>
      </trkpt>
      <trkpt lat="46.31588" lon="-0.33757">
        <ele>64.9285</ele>
        <time>2011-06-25T17:26:04Z</time>
      </trkpt>
      <trkpt lat="46.31587" lon="-0.33758">
        <ele>64.8605</ele>
        <time>2011-06-25T17:26:05Z</time>
      </trkpt>
      <trkpt lat="46.31586" lon="-0.33759">
        <ele>64.7936</ele>
        <time>2011-06-25T17:26:06Z</time>
      </trkpt>
      <trkpt lat="46.31585" lon="-0.3376">
        <ele>64.7305</ele>
        <time>2011-06-25T17:26:07Z</time>
      </trkpt>
      <trkpt lat="46.31583" lon="-0.33761">
        <ele>64.6654</ele>
        <time>2011-06-25T17:26:08Z</time>
      </trkpt>
      <trkpt lat="46.31582" lon="-0.33762">
        <ele>64.6019</ele>
        <time>2011-06-25T17:26:09Z</time>
      </trkpt>
      <trkpt lat="46.3158" lon="-0.33762">
        <ele>64.539</ele>
        <time>2011-06-25T17:26:10Z</time>
      </trkpt>
      <trkpt lat="46.31579" lon="-0.33763">
        <ele>64.4769</ele>
        <time>2011-06-25T17:26:11Z</time>
      </trkpt>
      <trkpt lat="46.31577" lon="-0.33764">
        <ele>64.4095</ele>
        <time>2011-06-25T17:26:12Z</time>
      </trkpt>
      <trkpt lat="46.31576" lon="-0.33765">
        <ele>64.3365</ele>
        <time>2011-06-25T17:26:13Z</time>
      </trkpt>
      <trkpt lat="46.31575" lon="-0.33766">
        <ele>64.2646</ele>
        <time>2011-06-25T17:26:14Z</time>
      </trkpt>
      <trkpt lat="46.31574" lon="-0.33767">
        <ele>64.1922</ele>
        <time>2011-06-25T17:26:15Z</time>
      </trkpt>
      <trkpt lat="46.31572" lon="-0.33768">
        <ele>64.1127</ele>
        <time>2011-06-25T17:26:16Z</time>
      </trkpt>
      <trkpt lat="46.31571" lon="-0.33769">
        <ele>64.0295</ele>
        <time>2011-06-25T17:26:17Z</time>
      </trkpt>
      <trkpt lat="46.31569" lon="-0.33769">
        <ele>63.9467</ele>
        <time>2011-06-25T17:26:18Z</time>
      </trkpt>
      <trkpt lat="46.31568" lon="-0.3377">
        <ele>63.8656</ele>
        <time>2011-06-25T17:26:19Z</time>
      </trkpt>
      <trkpt lat="46.31567" lon="-0.33771">
        <ele>63.7827</ele>
        <time>2011-06-25T17:26:20Z</time>
      </trkpt>
      <trkpt lat="46.31566" lon="-0.33772">
        <ele>63.702</ele>
        <time>2011-06-25T17:26:21Z</time>
      </trkpt>
      <trkpt lat="46.31564" lon="-0.33772">
        <ele>63.623</ele>
        <time>2011-06-25T17:26:22Z</time>
      </trkpt>
      <trkpt lat="46.31563" lon="-0.33773">
        <ele>63.5448</ele>
        <time>2011-06-25T17:26:23Z</time>
      </trkpt>
      <trkpt lat="46.31562" lon="-0.33774">
        <ele>63.4624</ele>
        <time>2011-06-25T17:26:24Z</time>
      </trkpt>
      <trkpt lat="46.31561" lon="-0.33776">
        <ele>63.3828</ele>
        <time>2011-06-25T17:26:25Z</time>
      </trkpt>
      <trkpt lat="46.3156" lon="-0.33777">
        <ele>63.3045</ele>
        <time>2011-06-25T17:26:26Z</time>
      </trkpt>
      <trkpt lat="46.31559" lon="-0.33778">
        <ele>63.2168</ele>
        <time>2011-06-25T17:26:27Z</time>
      </trkpt>
      <trkpt lat="46.31558" lon="-0.33779">
        <ele>63.132</ele>
        <time>2011-06-25T17:26:28Z</time>
      </trkpt>
      <trkpt lat="46.31556" lon="-0.3378">
        <ele>63.0499</ele>
        <time>2011-06-25T17:26:29Z</time>
      </trkpt>
      <trkpt lat="46.31555" lon="-0.33782">
        <ele>62.9703</ele>
        <time>2011-06-25T17:26:30Z</time>
      </trkpt>
      <trkpt lat="46.31554" lon="-0.33783">
        <ele>62.8921</ele>
        <time>2011-06-25T17:26:31Z</time>
      </trkpt>
      <trkpt lat="46.31552" lon="-0.33783">
        <ele>62.8162</ele>
        <time>2011-06-25T17:26:32Z</time>
      </trkpt>
      <trkpt lat="46.31551" lon="-0.33784">
        <ele>62.7419</ele>
        <time>2011-06-25T17:26:33Z</time>
      </trkpt>
      <trkpt lat="46.3155" lon="-0.33785">
        <ele>62.6708</ele>
        <time>2011-06-25T17:26:34Z</time>
      </trkpt>
      <trkpt lat="46.31548" lon="-0.33786">
        <ele>62.6022</ele>
        <time>2011-06-25T17:26:35Z</time>
      </trkpt>
      <trkpt lat="46.31547" lon="-0.33787">
        <ele>62.5329</ele>
        <time>2011-06-25T17:26:36Z</time>
      </trkpt>
      <trkpt lat="46.31546" lon="-0.33788">
        <ele>62.4632</ele>
        <time>2011-06-25T17:26:37Z</time>
      </trkpt>
      <trkpt lat="46.31545" lon="-0.3379">
        <ele>62.3949</ele>
        <time>2011-06-25T17:26:38Z</time>
      </trkpt>
      <trkpt lat="46.31543" lon="-0.3379">
        <ele>62.3258</ele>
        <time>2011-06-25T17:26:39Z</time>
      </trkpt>
      <trkpt lat="46.31542" lon="-0.33791">
        <ele>62.2586</ele>
        <time>2011-06-25T17:26:40Z</time>
      </trkpt>
      <trkpt lat="46.31541" lon="-0.33792">
        <ele>62.1927</ele>
        <time>2011-06-25T17:26:41Z</time>
      </trkpt>
      <trkpt lat="46.3154" lon="-0.33792">
        <ele>62.1249</ele>
        <time>2011-06-25T17:26:42Z</time>
      </trkpt>
      <trkpt lat="46.31539" lon="-0.33793">
        <ele>62.0541</ele>
        <time>2011-06-25T17:26:43Z</time>
      </trkpt>
      <trkpt lat="46.31537" lon="-0.33793">
        <ele>61.9822</ele>
        <time>2011-06-25T17:26:44Z</time>
      </trkpt>
      <trkpt lat="46.31536" lon="-0.33793">
        <ele>61.9103</ele>
        <time>2011-06-25T17:26:45Z</time>
      </trkpt>
      <trkpt lat="46.31534" lon="-0.33794">
        <ele>61.8398</ele>
        <time>2011-06-25T17:26:46Z</time>
      </trkpt>
      <trkpt lat="46.31533" lon="-0.33794">
        <ele>61.7708</ele>
        <time>2011-06-25T17:26:47Z</time>
      </trkpt>
      <trkpt lat="46.31532" lon="-0.33795">
        <ele>61.7107</ele>
        <time>2011-06-25T17:26:48Z</time>
      </trkpt>
      <trkpt lat="46.31531" lon="-0.33796">
        <ele>61.6513</ele>
        <time>2011-06-25T17:26:49Z</time>
      </trkpt>
      <trkpt lat="46.3153" lon="-0.33796">
        <ele>61.5943</ele>
        <time>2011-06-25T17:26:50Z</time>
      </trkpt>
      <trkpt lat="46.31529" lon="-0.33797">
        <ele>61.5404</ele>
        <time>2011-06-25T17:26:51Z</time>
      </trkpt>
      <trkpt lat="46.31527" lon="-0.33797">
        <ele>61.4876</ele>
        <time>2011-06-25T17:26:52Z</time>
      </trkpt>
      <trkpt lat="46.31526" lon="-0.33798">
        <ele>61.4336</ele>
        <time>2011-06-25T17:26:53Z</time>
      </trkpt>
      <trkpt lat="46.31525" lon="-0.33799">
        <ele>61.378</ele>
        <time>2011-06-25T17:26:54Z</time>
      </trkpt>
      <trkpt lat="46.31524" lon="-0.338">
        <ele>61.3241</ele>
        <time>2011-06-25T17:26:55Z</time>
      </trkpt>
      <trkpt lat="46.31524" lon="-0.33801">
        <ele>61.2743</ele>
        <time>2011-06-25T17:26:56Z</time>
      </trkpt>
      <trkpt lat="46.31522" lon="-0.33802">
        <ele>61.2251</ele>
        <time>2011-06-25T17:26:57Z</time>
      </trkpt>
      <trkpt lat="46.31521" lon="-0.33803">
        <ele>61.1772</ele>
        <time>2011-06-25T17:26:58Z</time>
      </trkpt>
      <trkpt lat="46.3152" lon="-0.33803">
        <ele>61.1258</ele>
        <time>2011-06-25T17:26:59Z</time>
      </trkpt>
      <trkpt lat="46.31519" lon="-0.33804">
        <ele>61.0753</ele>
        <time>2011-06-25T17:27:00Z</time>
      </trkpt>
      <trkpt lat="46.31518" lon="-0.33805">
        <ele>61.0229</ele>
        <time>2011-06-25T17:27:01Z</time>
      </trkpt>
      <trkpt lat="46.31517" lon="-0.33806">
        <ele>60.9701</ele>
        <time>2011-06-25T17:27:02Z</time>
      </trkpt>
      <trkpt lat="46.31516" lon="-0.33807">
        <ele>60.9216</ele>
        <time>2011-06-25T17:27:03Z</time>
      </trkpt>
      <trkpt lat="46.31516" lon="-0.33809">
        <ele>60.867</ele>
        <time>2011-06-25T17:27:04Z</time>
      </trkpt>
      <trkpt lat="46.31514" lon="-0.3381">
        <ele>60.8149</ele>
        <time>2011-06-25T17:27:05Z</time>
      </trkpt>
      <trkpt lat="46.31513" lon="-0.33811">
        <ele>60.7569</ele>
        <time>2011-06-25T17:27:06Z</time>
      </trkpt>
      <trkpt lat="46.31512" lon="-0.33812">
        <ele>60.7009</ele>
        <time>2011-06-25T17:27:07Z</time>
      </trkpt>
      <trkpt lat="46.3151" lon="-0.33813">
        <ele>60.646</ele>
        <time>2011-06-25T17:27:08Z</time>
      </trkpt>
      <trkpt lat="46.31509" lon="-0.33814">
        <ele>60.5935</ele>
        <time>2011-06-25T17:27:09Z</time>
      </trkpt>
      <trkpt lat="46.31508" lon="-0.33815">
        <ele>60.5435</ele>
        <time>2011-06-25T17:27:10Z</time>
      </trkpt>
      <trkpt lat="46.31506" lon="-0.33816">
        <ele>60.4959</ele>
        <time>2011-06-25T17:27:11Z</time>
      </trkpt>
      <trkpt lat="46.31505" lon="-0.33817">
        <ele>60.4489</ele>
        <time>2011-06-25T17:27:12Z</time>
      </trkpt>
      <trkpt lat="46.31504" lon="-0.33817">
        <ele>60.4033</ele>
        <time>2011-06-25T17:27:13Z</time>
      </trkpt>
      <trkpt lat="46.31502" lon="-0.33818">
        <ele>60.3589</ele>
        <time>2011-06-25T17:27:14Z</time>
      </trkpt>
      <trkpt lat="46.31501" lon="-0.33819">
        <ele>60.314</ele>
        <time>2011-06-25T17:27:15Z</time>
      </trkpt>
      <trkpt lat="46.315" lon="-0.33819">
        <ele>60.2688</ele>
        <time>2011-06-25T17:27:16Z</time>
      </trkpt>
      <trkpt lat="46.31498" lon="-0.3382">
        <ele>60.2256</ele>
        <time>2011-06-25T17:27:17Z</time>
      </trkpt>
      <trkpt lat="46.31497" lon="-0.33821">
        <ele>60.1841</ele>
        <time>2011-06-25T17:27:18Z</time>
      </trkpt>
      <trkpt lat="46.31496" lon="-0.33822">
        <ele>60.1437</ele>
        <time>2011-06-25T17:27:19Z</time>
      </trkpt>
      <trkpt lat="46.31494" lon="-0.33822">
        <ele>60.1064</ele>
        <time>2011-06-25T17:27:20Z</time>
      </trkpt>
      <trkpt lat="46.31493" lon="-0.33823">
        <ele>60.0699</ele>
        <time>2011-06-25T17:27:21Z</time>
      </trkpt>
      <trkpt lat="46.31492" lon="-0.33823">
        <ele>60.0359</ele>
        <time>2011-06-25T17:27:22Z</time>
      </trkpt>
      <trkpt lat="46.3149" lon="-0.33823">
        <ele>60.0048</ele>
        <time>2011-06-25T17:27:23Z</time>
      </trkpt>
      <trkpt lat="46.31489" lon="-0.33824">
        <ele>59.9739</ele>
        <time>2011-06-25T17:27:24Z</time>
      </trkpt>
      <trkpt lat="46.31487" lon="-0.33825">
        <ele>59.9441</ele>
        <time>2011-06-25T17:27:25Z</time>
      </trkpt>
      <trkpt lat="46.31486" lon="-0.33826">
        <ele>59.9114</ele>
        <time>2011-06-25T17:27:26Z</time>
      </trkpt>
      <trkpt lat="46.31485" lon="-0.33826">
        <ele>59.8771</ele>
        <time>2011-06-25T17:27:27Z</time>
      </trkpt>
      <trkpt lat="46.31484" lon="-0.33827">
        <ele>59.8435</ele>
        <time>2011-06-25T17:27:28Z</time>
      </trkpt>
      <trkpt lat="46.31482" lon="-0.33828">
        <ele>59.8072</ele>
        <time>2011-06-25T17:27:29Z</time>
      </trkpt>
      <trkpt lat="46.31481" lon="-0.33829">
        <ele>59.7685</ele>
        <time>2011-06-25T17:27:30Z</time>
      </trkpt>
      <trkpt lat="46.3148" lon="-0.33829">
        <ele>59.7291</ele>
        <time>2011-06-25T17:27:31Z</time>
      </trkpt>
      <trkpt lat="46.31479" lon="-0.3383">
        <ele>59.6934</ele>
        <time>2011-06-25T17:27:32Z</time>
      </trkpt>
      <trkpt lat="46.31477" lon="-0.33831">
        <ele>59.6582</ele>
        <time>2011-06-25T17:27:33Z</time>
      </trkpt>
      <trkpt lat="46.31476" lon="-0.33832">
        <ele>59.623</ele>
        <time>2011-06-25T17:27:34Z</time>
      </trkpt>
      <trkpt lat="46.31475" lon="-0.33833">
        <ele>59.5867</ele>
        <time>2011-06-25T17:27:35Z</time>
      </trkpt>
      <trkpt lat="46.31474" lon="-0.33833">
        <ele>59.5535</ele>
        <time>2011-06-25T17:27:36Z</time>
      </trkpt>
      <trkpt lat="46.31473" lon="-0.33834">
        <ele>59.5226</ele>
        <time>2011-06-25T17:27:37Z</time>
      </trkpt>
      <trkpt lat="46.31471" lon="-0.33834">
        <ele>59.4913</ele>
        <time>2011-06-25T17:27:38Z</time>
      </trkpt>
      <trkpt lat="46.3147" lon="-0.33835">
        <ele>59.4603</ele>
        <time>2011-06-25T17:27:39Z</time>
      </trkpt>
      <trkpt lat="46.31469" lon="-0.33835">
        <ele>59.4276</ele>
        <time>2011-06-25T17:27:40Z</time>
      </trkpt>
      <trkpt lat="46.31467" lon="-0.33836">
        <ele>59.3933</ele>
        <time>2011-06-25T17:27:41Z</time>
      </trkpt>
      <trkpt lat="46.31466" lon="-0.33837">
        <ele>59.3598</ele>
        <time>2011-06-25T17:27:42Z</time>
      </trkpt>
      <trkpt lat="46.31465" lon="-0.33837">
        <ele>59.3281</ele>
        <time>2011-06-25T17:27:43Z</time>
      </trkpt>
      <trkpt lat="46.31464" lon="-0.33838">
        <ele>59.2971</ele>
        <time>2011-06-25T17:27:44Z</time>
      </trkpt>
      <trkpt lat="46.31462" lon="-0.33838">
        <ele>59.2666</ele>
        <time>2011-06-25T17:27:45Z</time>
      </trkpt>
      <trkpt lat="46.31461" lon="-0.33839">
        <ele>59.2387</ele>
        <time>2011-06-25T17:27:46Z</time>
      </trkpt>
      <trkpt lat="46.31459" lon="-0.3384">
        <ele>59.2121</ele>
        <time>2011-06-25T17:27:47Z</time>
      </trkpt>
      <trkpt lat="46.31458" lon="-0.33841">
        <ele>59.1867</ele>
        <time>2011-06-25T17:27:48Z</time>
      </trkpt>
      <trkpt lat="46.31456" lon="-0.33842">
        <ele>59.1592</ele>
        <time>2011-06-25T17:27:49Z</time>
      </trkpt>
      <trkpt lat="46.31455" lon="-0.33843">
        <ele>59.1325</ele>
        <time>2011-06-25T17:27:50Z</time>
      </trkpt>
      <trkpt lat="46.31453" lon="-0.33844">
        <ele>59.1067</ele>
        <time>2011-06-25T17:27:51Z</time>
      </trkpt>
      <trkpt lat="46.31452" lon="-0.33844">
        <ele>59.082</ele>
        <time>2011-06-25T17:27:52Z</time>
      </trkpt>
      <trkpt lat="46.3145" lon="-0.33845">
        <ele>59.058</ele>
        <time>2011-06-25T17:27:53Z</time>
      </trkpt>
      <trkpt lat="46.31449" lon="-0.33845">
        <ele>59.0345</ele>
        <time>2011-06-25T17:27:54Z</time>
      </trkpt>
      <trkpt lat="46.31448" lon="-0.33846">
        <ele>59.0103</ele>
        <time>2011-06-25T17:27:55Z</time>
      </trkpt>
      <trkpt lat="46.31446" lon="-0.33847">
        <ele>58.9886</ele>
        <time>2011-06-25T17:27:56Z</time>
      </trkpt>
      <trkpt lat="46.31445" lon="-0.33847">
        <ele>58.9672</ele>
        <time>2011-06-25T17:27:57Z</time>
      </trkpt>
      <trkpt lat="46.31443" lon="-0.33848">
        <ele>58.9456</ele>
        <time>2011-06-25T17:27:58Z</time>
      </trkpt>
      <trkpt lat="46.31442" lon="-0.33848">
        <ele>58.9275</ele>
        <time>2011-06-25T17:27:59Z</time>
      </trkpt>
      <trkpt lat="46.31441" lon="-0.33849">
        <ele>58.9093</ele>
        <time>2011-06-25T17:28:00Z</time>
      </trkpt>
      <trkpt lat="46.31439" lon="-0.3385">
        <ele>58.8869</ele>
        <time>2011-06-25T17:28:01Z</time>
      </trkpt>
      <trkpt lat="46.31438" lon="-0.33851">
        <ele>58.8638</ele>
        <time>2011-06-25T17:28:02Z</time>
      </trkpt>
      <trkpt lat="46.31436" lon="-0.33851">
        <ele>58.8435</ele>
        <time>2011-06-25T17:28:03Z</time>
      </trkpt>
      <trkpt lat="46.31435" lon="-0.33852">
        <ele>58.8252</ele>
        <time>2011-06-25T17:28:04Z</time>
      </trkpt>
      <trkpt lat="46.31433" lon="-0.33853">
        <ele>58.808</ele>
        <time>2011-06-25T17:28:05Z</time>
      </trkpt>
      <trkpt lat="46.31432" lon="-0.33853">
        <ele>58.7921</ele>
        <time>2011-06-25T17:28:06Z</time>
      </trkpt>
      <trkpt lat="46.3143" lon="-0.33854">
        <ele>58.7789</ele>
        <time>2011-06-25T17:28:07Z</time>
      </trkpt>
      <trkpt lat="46.31429" lon="-0.33854">
        <ele>58.7669</ele>
        <time>2011-06-25T17:28:08Z</time>
      </trkpt>
      <trkpt lat="46.31427" lon="-0.33855">
        <ele>58.7561</ele>
        <time>2011-06-25T17:28:09Z</time>
      </trkpt>
      <trkpt lat="46.31426" lon="-0.33856">
        <ele>58.7477</ele>
        <time>2011-06-25T17:28:10Z</time>
      </trkpt>
      <trkpt lat="46.31424" lon="-0.33856">
        <ele>58.739</ele>
        <time>2011-06-25T17:28:11Z</time>
      </trkpt>
      <trkpt lat="46.31423" lon="-0.33857">
        <ele>58.7302</ele>
        <time>2011-06-25T17:28:12Z</time>
      </trkpt>
      <trkpt lat="46.31422" lon="-0.33857">
        <ele>58.7221</ele>
        <time>2011-06-25T17:28:13Z</time>
      </trkpt>
      <trkpt lat="46.31421" lon="-0.33857">
        <ele>58.7177</ele>
        <time>2011-06-25T17:28:14Z</time>
      </trkpt>
      <trkpt lat="46.31419" lon="-0.33858">
        <ele>58.7195</ele>
        <time>2011-06-25T17:28:15Z</time>
      </trkpt>
      <trkpt lat="46.31418" lon="-0.33858">
        <ele>58.7225</ele>
        <time>2011-06-25T17:28:16Z</time>
      </trkpt>
      <trkpt lat="46.31416" lon="-0.33859">
        <ele>58.727</ele>
        <time>2011-06-25T17:28:17Z</time>
      </trkpt>
      <trkpt lat="46.31415" lon="-0.33859">
        <ele>58.7316</ele>
        <time>2011-06-25T17:28:18Z</time>
      </trkpt>
      <trkpt lat="46.31414" lon="-0.3386">
        <ele>58.7357</ele>
        <time>2011-06-25T17:28:19Z</time>
      </trkpt>
      <trkpt lat="46.31413" lon="-0.3386">
        <ele>58.7403</ele>
        <time>2011-06-25T17:28:20Z</time>
      </trkpt>
      <trkpt lat="46.31411" lon="-0.33861">
        <ele>58.7449</ele>
        <time>2011-06-25T17:28:21Z</time>
      </trkpt>
      <trkpt lat="46.3141" lon="-0.33861">
        <ele>58.7498</ele>
        <time>2011-06-25T17:28:22Z</time>
      </trkpt>
      <trkpt lat="46.31408" lon="-0.33862">
        <ele>58.7542</ele>
        <time>2011-06-25T17:28:23Z</time>
      </trkpt>
      <trkpt lat="46.31407" lon="-0.33862">
        <ele>58.757</ele>
        <time>2011-06-25T17:28:24Z</time>
      </trkpt>
      <trkpt lat="46.31406" lon="-0.33863">
        <ele>58.7596</ele>
        <time>2011-06-25T17:28:25Z</time>
      </trkpt>
      <trkpt lat="46.31405" lon="-0.33863">
        <ele>58.7627</ele>
        <time>2011-06-25T17:28:26Z</time>
      </trkpt>
      <trkpt lat="46.31403" lon="-0.33863">
        <ele>58.7657</ele>
        <time>2011-06-25T17:28:27Z</time>
      </trkpt>
      <trkpt lat="46.31401" lon="-0.33864">
        <ele>58.7703</ele>
        <time>2011-06-25T17:28:28Z</time>
      </trkpt>
      <trkpt lat="46.314" lon="-0.33864">
        <ele>58.775</ele>
        <time>2011-06-25T17:28:29Z</time>
      </trkpt>
      <trkpt lat="46.31399" lon="-0.33864">
        <ele>58.7832</ele>
        <time>2011-06-25T17:28:30Z</time>
      </trkpt>
      <trkpt lat="46.31397" lon="-0.33864">
        <ele>58.7973</ele>
        <time>2011-06-25T17:28:31Z</time>
      </trkpt>
      <trkpt lat="46.31396" lon="-0.33864">
        <ele>58.8108</ele>
        <time>2011-06-25T17:28:32Z</time>
      </trkpt>
      <trkpt lat="46.31394" lon="-0.33864">
        <ele>58.8311</ele>
        <time>2011-06-25T17:28:33Z</time>
      </trkpt>
      <trkpt lat="46.31393" lon="-0.33864">
        <ele>58.8529</ele>
        <time>2011-06-25T17:28:34Z</time>
      </trkpt>
      <trkpt lat="46.31392" lon="-0.33864">
        <ele>58.8738</ele>
        <time>2011-06-25T17:28:35Z</time>
      </trkpt>
      <trkpt lat="46.3139" lon="-0.33864">
        <ele>58.8949</ele>
        <time>2011-06-25T17:28:36Z</time>
      </trkpt>
      <trkpt lat="46.31389" lon="-0.33864">
        <ele>58.917</ele>
        <time>2011-06-25T17:28:37Z</time>
      </trkpt>
      <trkpt lat="46.31388" lon="-0.33864">
        <ele>58.9379</ele>
        <time>2011-06-25T17:28:38Z</time>
      </trkpt>
      <trkpt lat="46.31386" lon="-0.33864">
        <ele>58.9574</ele>
        <time>2011-06-25T17:28:39Z</time>
      </trkpt>
      <trkpt lat="46.31385" lon="-0.33864">
        <ele>58.9769</ele>
        <time>2011-06-25T17:28:40Z</time>
      </trkpt>
      <trkpt lat="46.31384" lon="-0.33865">
        <ele>58.9951</ele>
        <time>2011-06-25T17:28:41Z</time>
      </trkpt>
      <trkpt lat="46.31382" lon="-0.33865">
        <ele>59.0127</ele>
        <time>2011-06-25T17:28:42Z</time>
      </trkpt>
      <trkpt lat="46.31381" lon="-0.33865">
        <ele>59.0265</ele>
        <time>2011-06-25T17:28:43Z</time>
      </trkpt>
      <trkpt lat="46.31379" lon="-0.33866">
        <ele>59.0341</ele>
        <time>2011-06-25T17:28:44Z</time>
      </trkpt>
      <trkpt lat="46.31378" lon="-0.33866">
        <ele>59.0363</ele>
        <time>2011-06-25T17:28:45Z</time>
      </trkpt>
      <trkpt lat="46.31377" lon="-0.33867">
        <ele>59.0389</ele>
        <time>2011-06-25T17:28:46Z</time>
      </trkpt>
      <trkpt lat="46.31376" lon="-0.33867">
        <ele>59.0386</ele>
        <time>2011-06-25T17:28:47Z</time>
      </trkpt>
      <trkpt lat="46.31374" lon="-0.33867">
        <ele>59.039</ele>
        <time>2011-06-25T17:28:48Z</time>
      </trkpt>
      <trkpt lat="46.31373" lon="-0.33868">
        <ele>59.0388</ele>
        <time>2011-06-25T17:28:49Z</time>
      </trkpt>
      <trkpt lat="46.31372" lon="-0.33868">
        <ele>59.0386</ele>
        <time>2011-06-25T17:28:50Z</time>
      </trkpt>
      <trkpt lat="46.3137" lon="-0.33868">
        <ele>59.0377</ele>
        <time>2011-06-25T17:28:51Z</time>
      </trkpt>
      <trkpt lat="46.31369" lon="-0.33868">
        <ele>59.0371</ele>
        <time>2011-06-25T17:28:52Z</time>
      </trkpt>
      <trkpt lat="46.31367" lon="-0.33868">
        <ele>59.0384</ele>
        <time>2011-06-25T17:28:53Z</time>
      </trkpt>
      <trkpt lat="46.31366" lon="-0.33869">
        <ele>59.0421</ele>
        <time>2011-06-25T17:28:54Z</time>
      </trkpt>
      <trkpt lat="46.31364" lon="-0.33869">
        <ele>59.0454</ele>
        <time>2011-06-25T17:28:55Z</time>
      </trkpt>
      <trkpt lat="46.31363" lon="-0.33869">
        <ele>59.0474</ele>
        <time>2011-06-25T17:28:56Z</time>
      </trkpt>
      <trkpt lat="46.31362" lon="-0.3387">
        <ele>59.0508</ele>
        <time>2011-06-25T17:28:57Z</time>
      </trkpt>
      <trkpt lat="46.31361" lon="-0.3387">
        <ele>59.0578</ele>
        <time>2011-06-25T17:28:58Z</time>
      </trkpt>
      <trkpt lat="46.31359" lon="-0.3387">
        <ele>59.0642</ele>
        <time>2011-06-25T17:28:59Z</time>
      </trkpt>
      <trkpt lat="46.31358" lon="-0.3387">
        <ele>59.0749</ele>
        <time>2011-06-25T17:29:00Z</time>
      </trkpt>
      <trkpt lat="46.31356" lon="-0.3387">
        <ele>59.0916</ele>
        <time>2011-06-25T17:29:01Z</time>
      </trkpt>
      <trkpt lat="46.31355" lon="-0.33871">
        <ele>59.1075</ele>
        <time>2011-06-25T17:29:02Z</time>
      </trkpt>
      <trkpt lat="46.31354" lon="-0.33871">
        <ele>59.1233</ele>
        <time>2011-06-25T17:29:03Z</time>
      </trkpt>
      <trkpt lat="46.31353" lon="-0.33871">
        <ele>59.1391</ele>
        <time>2011-06-25T17:29:04Z</time>
      </trkpt>
      <trkpt lat="46.31351" lon="-0.3387">
        <ele>59.1564</ele>
        <time>2011-06-25T17:29:05Z</time>
      </trkpt>
      <trkpt lat="46.3135" lon="-0.3387">
        <ele>59.1732</ele>
        <time>2011-06-25T17:29:06Z</time>
      </trkpt>
      <trkpt lat="46.31348" lon="-0.3387">
        <ele>59.1899</ele>
        <time>2011-06-25T17:29:07Z</time>
      </trkpt>
      <trkpt lat="46.31347" lon="-0.33871">
        <ele>59.2063</ele>
        <time>2011-06-25T17:29:08Z</time>
      </trkpt>
      <trkpt lat="46.31345" lon="-0.33871">
        <ele>59.2234</ele>
        <time>2011-06-25T17:29:09Z</time>
      </trkpt>
      <trkpt lat="46.31344" lon="-0.33871">
        <ele>59.2404</ele>
        <time>2011-06-25T17:29:10Z</time>
      </trkpt>
      <trkpt lat="46.31343" lon="-0.33871">
        <ele>59.259</ele>
        <time>2011-06-25T17:29:11Z</time>
      </trkpt>
      <trkpt lat="46.31342" lon="-0.33871">
        <ele>59.2776</ele>
        <time>2011-06-25T17:29:12Z</time>
      </trkpt>
      <trkpt lat="46.3134" lon="-0.33871">
        <ele>59.301</ele>
        <time>2011-06-25T17:29:13Z</time>
      </trkpt>
      <trkpt lat="46.31339" lon="-0.33872">
        <ele>59.3247</ele>
        <time>2011-06-25T17:29:14Z</time>
      </trkpt>
      <trkpt lat="46.31338" lon="-0.33872">
        <ele>59.3534</ele>
        <time>2011-06-25T17:29:15Z</time>
      </trkpt>
      <trkpt lat="46.31337" lon="-0.33872">
        <ele>59.3802</ele>
        <time>2011-06-25T17:29:16Z</time>
      </trkpt>
      <trkpt lat="46.31335" lon="-0.33872">
        <ele>59.4064</ele>
        <time>2011-06-25T17:29:17Z</time>
      </trkpt>
      <trkpt lat="46.31334" lon="-0.33873">
        <ele>59.4318</ele>
        <time>2011-06-25T17:29:18Z</time>
      </trkpt>
      <trkpt lat="46.31333" lon="-0.33874">
        <ele>59.4566</ele>
        <time>2011-06-25T17:29:19Z</time>
      </trkpt>
      <trkpt lat="46.31332" lon="-0.33874">
        <ele>59.4791</ele>
        <time>2011-06-25T17:29:20Z</time>
      </trkpt>
      <trkpt lat="46.31331" lon="-0.33875">
        <ele>59.5004</ele>
        <time>2011-06-25T17:29:21Z</time>
      </trkpt>
      <trkpt lat="46.3133" lon="-0.33875">
        <ele>59.5208</ele>
        <time>2011-06-25T17:29:22Z</time>
      </trkpt>
      <trkpt lat="46.31329" lon="-0.33876">
        <ele>59.5397</ele>
        <time>2011-06-25T17:29:23Z</time>
      </trkpt>
      <trkpt lat="46.31328" lon="-0.33876">
        <ele>59.5582</ele>
        <time>2011-06-25T17:29:24Z</time>
      </trkpt>
      <trkpt lat="46.31327" lon="-0.33876">
        <ele>59.5745</ele>
        <time>2011-06-25T17:29:25Z</time>
      </trkpt>
      <trkpt lat="46.31326" lon="-0.33877">
        <ele>59.5901</ele>
        <time>2011-06-25T17:29:26Z</time>
      </trkpt>
      <trkpt lat="46.31324" lon="-0.33877">
        <ele>59.6061</ele>
        <time>2011-06-25T17:29:27Z</time>
      </trkpt>
      <trkpt lat="46.31323" lon="-0.33878">
        <ele>59.6229</ele>
        <time>2011-06-25T17:29:28Z</time>
      </trkpt>
      <trkpt lat="46.31322" lon="-0.33879">
        <ele>59.6411</ele>
        <time>2011-06-25T17:29:29Z</time>
      </trkpt>
      <trkpt lat="46.3132" lon="-0.33879">
        <ele>59.6589</ele>
        <time>2011-06-25T17:29:30Z</time>
      </trkpt>
      <trkpt lat="46.31319" lon="-0.3388">
        <ele>59.6764</ele>
        <time>2011-06-25T17:29:31Z</time>
      </trkpt>
      <trkpt lat="46.31318" lon="-0.3388">
        <ele>59.6941</ele>
        <time>2011-06-25T17:29:32Z</time>
      </trkpt>
      <trkpt lat="46.31316" lon="-0.33881">
        <ele>59.7106</ele>
        <time>2011-06-25T17:29:33Z</time>
      </trkpt>
      <trkpt lat="46.31315" lon="-0.33881">
        <ele>59.7271</ele>
        <time>2011-06-25T17:29:34Z</time>
      </trkpt>
      <trkpt lat="46.31314" lon="-0.33881">
        <ele>59.7432</ele>
        <time>2011-06-25T17:29:35Z</time>
      </trkpt>
      <trkpt lat="46.31313" lon="-0.33881">
        <ele>59.7617</ele>
        <time>2011-06-25T17:29:36Z</time>
      </trkpt>
      <trkpt lat="46.31311" lon="-0.33881">
        <ele>59.7798</ele>
        <time>2011-06-25T17:29:37Z</time>
      </trkpt>
      <trkpt lat="46.3131" lon="-0.33882">
        <ele>59.7972</ele>
        <time>2011-06-25T17:29:38Z</time>
      </trkpt>
      <trkpt lat="46.31308" lon="-0.33883">
        <ele>59.804</ele>
        <time>2011-06-25T17:29:39Z</time>
      </trkpt>
      <trkpt lat="46.31306" lon="-0.33883">
        <ele>59.798</ele>
        <time>2011-06-25T17:29:40Z</time>
      </trkpt>
      <trkpt lat="46.31305" lon="-0.33883">
        <ele>59.7866</ele>
        <time>2011-06-25T17:29:41Z</time>
      </trkpt>
      <trkpt lat="46.31303" lon="-0.33882">
        <ele>59.7711</ele>
        <time>2011-06-25T17:29:42Z</time>
      </trkpt>
      <trkpt lat="46.31301" lon="-0.33882">
        <ele>59.7533</ele>
        <time>2011-06-25T17:29:43Z</time>
      </trkpt>
      <trkpt lat="46.31299" lon="-0.33882">
        <ele>59.7359</ele>
        <time>2011-06-25T17:29:44Z</time>
      </trkpt>
      <trkpt lat="46.31298" lon="-0.33882">
        <ele>59.7202</ele>
        <time>2011-06-25T17:29:45Z</time>
      </trkpt>
      <trkpt lat="46.31296" lon="-0.33882">
        <ele>59.7064</ele>
        <time>2011-06-25T17:29:46Z</time>
      </trkpt>
      <trkpt lat="46.31295" lon="-0.33882">
        <ele>59.6908</ele>
        <time>2011-06-25T17:29:47Z</time>
      </trkpt>
      <trkpt lat="46.31293" lon="-0.33882">
        <ele>59.6741</ele>
        <time>2011-06-25T17:29:48Z</time>
      </trkpt>
      <trkpt lat="46.31291" lon="-0.33883">
        <ele>59.6595</ele>
        <time>2011-06-25T17:29:49Z</time>
      </trkpt>
      <trkpt lat="46.3129" lon="-0.33883">
        <ele>59.6468</ele>
        <time>2011-06-25T17:29:50Z</time>
      </trkpt>
      <trkpt lat="46.31288" lon="-0.33883">
        <ele>59.6356</ele>
        <time>2011-06-25T17:29:51Z</time>
      </trkpt>
      <trkpt lat="46.31287" lon="-0.33883">
        <ele>59.6247</ele>
        <time>2011-06-25T17:29:52Z</time>
      </trkpt>
      <trkpt lat="46.31285" lon="-0.33884">
        <ele>59.6135</ele>
        <time>2011-06-25T17:29:53Z</time>
      </trkpt>
      <trkpt lat="46.31284" lon="-0.33884">
        <ele>59.6035</ele>
        <time>2011-06-25T17:29:54Z</time>
      </trkpt>
      <trkpt lat="46.31282" lon="-0.33884">
        <ele>59.5941</ele>
        <time>2011-06-25T17:29:55Z</time>
      </trkpt>
      <trkpt lat="46.31281" lon="-0.33884">
        <ele>59.5851</ele>
        <time>2011-06-25T17:29:56Z</time>
      </trkpt>
      <trkpt lat="46.31279" lon="-0.33884">
        <ele>59.5759</ele>
        <time>2011-06-25T17:29:57Z</time>
      </trkpt>
      <trkpt lat="46.31278" lon="-0.33884">
        <ele>59.5677</ele>
        <time>2011-06-25T17:29:58Z</time>
      </trkpt>
      <trkpt lat="46.31277" lon="-0.33884">
        <ele>59.5597</ele>
        <time>2011-06-25T17:29:59Z</time>
      </trkpt>
      <trkpt lat="46.31276" lon="-0.33884">
        <ele>59.5519</ele>
        <time>2011-06-25T17:30:00Z</time>
      </trkpt>
      <trkpt lat="46.31274" lon="-0.33885">
        <ele>59.5442</ele>
        <time>2011-06-25T17:30:01Z</time>
      </trkpt>
      <trkpt lat="46.31273" lon="-0.33885">
        <ele>59.5359</ele>
        <time>2011-06-25T17:30:02Z</time>
      </trkpt>
      <trkpt lat="46.31271" lon="-0.33885">
        <ele>59.5277</ele>
        <time>2011-06-25T17:30:03Z</time>
      </trkpt>
      <trkpt lat="46.3127" lon="-0.33885">
        <ele>59.5198</ele>
        <time>2011-06-25T17:30:04Z</time>
      </trkpt>
      <trkpt lat="46.31268" lon="-0.33886">
        <ele>59.5133</ele>
        <time>2011-06-25T17:30:05Z</time>
      </trkpt>
      <trkpt lat="46.31267" lon="-0.33886">
        <ele>59.5081</ele>
        <time>2011-06-25T17:30:06Z</time>
      </trkpt>
      <trkpt lat="46.31265" lon="-0.33887">
        <ele>59.5061</ele>
        <time>2011-06-25T17:30:07Z</time>
      </trkpt>
      <trkpt lat="46.31264" lon="-0.33888">
        <ele>59.5069</ele>
        <time>2011-06-25T17:30:08Z</time>
      </trkpt>
      <trkpt lat="46.31263" lon="-0.33888">
        <ele>59.5104</ele>
        <time>2011-06-25T17:30:09Z</time>
      </trkpt>
      <trkpt lat="46.31261" lon="-0.33889">
        <ele>59.5143</ele>
        <time>2011-06-25T17:30:10Z</time>
      </trkpt>
      <trkpt lat="46.3126" lon="-0.3389">
        <ele>59.5182</ele>
        <time>2011-06-25T17:30:11Z</time>
      </trkpt>
      <trkpt lat="46.31258" lon="-0.3389">
        <ele>59.5205</ele>
        <time>2011-06-25T17:30:12Z</time>
      </trkpt>
      <trkpt lat="46.31257" lon="-0.3389">
        <ele>59.5223</ele>
        <time>2011-06-25T17:30:13Z</time>
      </trkpt>
      <trkpt lat="46.31255" lon="-0.33891">
        <ele>59.523</ele>
        <time>2011-06-25T17:30:14Z</time>
      </trkpt>
      <trkpt lat="46.31254" lon="-0.33892">
        <ele>59.5187</ele>
        <time>2011-06-25T17:30:15Z</time>
      </trkpt>
      <trkpt lat="46.31253" lon="-0.33892">
        <ele>59.5129</ele>
        <time>2011-06-25T17:30:16Z</time>
      </trkpt>
      <trkpt lat="46.31251" lon="-0.33892">
        <ele>59.5053</ele>
        <time>2011-06-25T17:30:17Z</time>
      </trkpt>
      <trkpt lat="46.3125" lon="-0.33892">
        <ele>59.4947</ele>
        <time>2011-06-25T17:30:18Z</time>
      </trkpt>
      <trkpt lat="46.31249" lon="-0.33892">
        <ele>59.484</ele>
        <time>2011-06-25T17:30:19Z</time>
      </trkpt>
      <trkpt lat="46.31247" lon="-0.33892">
        <ele>59.4757</ele>
        <time>2011-06-25T17:30:19Z</time>
      </trkpt>
      <trkpt lat="46.31245" lon="-0.33892">
        <ele>59.4725</ele>
        <time>2011-06-25T17:30:21Z</time>
      </trkpt>
      <trkpt lat="46.31244" lon="-0.33892">
        <ele>59.4798</ele>
        <time>2011-06-25T17:30:22Z</time>
      </trkpt>
      <trkpt lat="46.31243" lon="-0.33892">
        <ele>59.4931</ele>
        <time>2011-06-25T17:30:22Z</time>
      </trkpt>
      <trkpt lat="46.31241" lon="-0.33891">
        <ele>59.5096</ele>
        <time>2011-06-25T17:30:24Z</time>
      </trkpt>
      <trkpt lat="46.3124" lon="-0.33891">
        <ele>59.5269</ele>
        <time>2011-06-25T17:30:24Z</time>
      </trkpt>
      <trkpt lat="46.31238" lon="-0.33891">
        <ele>59.5423</ele>
        <time>2011-06-25T17:30:26Z</time>
      </trkpt>
      <trkpt lat="46.31237" lon="-0.33891">
        <ele>59.5595</ele>
        <time>2011-06-25T17:30:27Z</time>
      </trkpt>
      <trkpt lat="46.31235" lon="-0.33891">
        <ele>59.5769</ele>
        <time>2011-06-25T17:30:28Z</time>
      </trkpt>
      <trkpt lat="46.31234" lon="-0.33891">
        <ele>59.5962</ele>
        <time>2011-06-25T17:30:28Z</time>
      </trkpt>
      <trkpt lat="46.31232" lon="-0.33891">
        <ele>59.6152</ele>
        <time>2011-06-25T17:30:30Z</time>
      </trkpt>
      <trkpt lat="46.3123" lon="-0.33892">
        <ele>59.6317</ele>
        <time>2011-06-25T17:30:30Z</time>
      </trkpt>
      <trkpt lat="46.31229" lon="-0.33892">
        <ele>59.6466</ele>
        <time>2011-06-25T17:30:31Z</time>
      </trkpt>
      <trkpt lat="46.31228" lon="-0.33892">
        <ele>59.6597</ele>
        <time>2011-06-25T17:30:33Z</time>
      </trkpt>
      <trkpt lat="46.31226" lon="-0.33893">
        <ele>59.6726</ele>
        <time>2011-06-25T17:30:34Z</time>
      </trkpt>
      <trkpt lat="46.31225" lon="-0.33893">
        <ele>59.6853</ele>
        <time>2011-06-25T17:30:35Z</time>
      </trkpt>
      <trkpt lat="46.31223" lon="-0.33893">
        <ele>59.6985</ele>
        <time>2011-06-25T17:30:36Z</time>
      </trkpt>
      <trkpt lat="46.31222" lon="-0.33894">
        <ele>59.7121</ele>
        <time>2011-06-25T17:30:36Z</time>
      </trkpt>
      <trkpt lat="46.31221" lon="-0.33894">
        <ele>59.7271</ele>
        <time>2011-06-25T17:30:38Z</time>
      </trkpt>
      <trkpt lat="46.3122" lon="-0.33894">
        <ele>59.7429</ele>
        <time>2011-06-25T17:30:39Z</time>
      </trkpt>
      <trkpt lat="46.31218" lon="-0.33895">
        <ele>59.7559</ele>
        <time>2011-06-25T17:30:40Z</time>
      </trkpt>
      <trkpt lat="46.31217" lon="-0.33895">
        <ele>59.7666</ele>
        <time>2011-06-25T17:30:41Z</time>
      </trkpt>
      <trkpt lat="46.31215" lon="-0.33895">
        <ele>59.7725</ele>
        <time>2011-06-25T17:30:41Z</time>
      </trkpt>
      <trkpt lat="46.31214" lon="-0.33896">
        <ele>59.7758</ele>
        <time>2011-06-25T17:30:43Z</time>
      </trkpt>
      <trkpt lat="46.31213" lon="-0.33896">
        <ele>59.7755</ele>
        <time>2011-06-25T17:30:43Z</time>
      </trkpt>
      <trkpt lat="46.31211" lon="-0.33896">
        <ele>59.7731</ele>
        <time>2011-06-25T17:30:45Z</time>
      </trkpt>
      <trkpt lat="46.3121" lon="-0.33897">
        <ele>59.7701</ele>
        <time>2011-06-25T17:30:46Z</time>
      </trkpt>
      <trkpt lat="46.31208" lon="-0.33897">
        <ele>59.7668</ele>
        <time>2011-06-25T17:30:46Z</time>
      </trkpt>
      <trkpt lat="46.31207" lon="-0.33898">
        <ele>59.7627</ele>
        <time>2011-06-25T17:30:47Z</time>
      </trkpt>
      <trkpt lat="46.31206" lon="-0.33898">
        <ele>59.7572</ele>
        <time>2011-06-25T17:30:49Z</time>
      </trkpt>
      <trkpt lat="46.31205" lon="-0.33899">
        <ele>59.7518</ele>
        <time>2011-06-25T17:30:50Z</time>
      </trkpt>
      <trkpt lat="46.31204" lon="-0.339">
        <ele>59.7464</ele>
        <time>2011-06-25T17:30:51Z</time>
      </trkpt>
      <trkpt lat="46.31202" lon="-0.33901">
        <ele>59.7407</ele>
        <time>2011-06-25T17:30:52Z</time>
      </trkpt>
      <trkpt lat="46.31201" lon="-0.33901">
        <ele>59.7369</ele>
        <time>2011-06-25T17:30:52Z</time>
      </trkpt>
      <trkpt lat="46.31199" lon="-0.33902">
        <ele>59.7327</ele>
        <time>2011-06-25T17:30:54Z</time>
      </trkpt>
      <trkpt lat="46.31197" lon="-0.33903">
        <ele>59.7327</ele>
        <time>2011-06-25T17:30:55Z</time>
      </trkpt>
      <trkpt lat="46.31197" lon="-0.33903">
        <ele>59.7274</ele>
        <time>2011-06-25T17:30:56Z</time>
      </trkpt>
      <trkpt lat="46.31195" lon="-0.33904">
        <ele>59.7173</ele>
        <time>2011-06-25T17:30:57Z</time>
      </trkpt>
      <trkpt lat="46.31194" lon="-0.33904">
        <ele>59.7075</ele>
        <time>2011-06-25T17:30:58Z</time>
      </trkpt>
      <trkpt lat="46.31193" lon="-0.33904">
        <ele>59.6973</ele>
        <time>2011-06-25T17:30:59Z</time>
      </trkpt>
      <trkpt lat="46.31191" lon="-0.33905">
        <ele>59.6772</ele>
        <time>2011-06-25T17:31:00Z</time>
      </trkpt>
      <trkpt lat="46.3119" lon="-0.33906">
        <ele>59.6431</ele>
        <time>2011-06-25T17:31:01Z</time>
      </trkpt>
      <trkpt lat="46.31189" lon="-0.33907">
        <ele>59.6026</ele>
        <time>2011-06-25T17:31:02Z</time>
      </trkpt>
      <trkpt lat="46.31187" lon="-0.33908">
        <ele>59.5628</ele>
        <time>2011-06-25T17:31:03Z</time>
      </trkpt>
      <trkpt lat="46.31186" lon="-0.3391">
        <ele>59.5147</ele>
        <time>2011-06-25T17:31:04Z</time>
      </trkpt>
      <trkpt lat="46.31184" lon="-0.33911">
        <ele>59.4651</ele>
        <time>2011-06-25T17:31:05Z</time>
      </trkpt>
      <trkpt lat="46.31183" lon="-0.33912">
        <ele>59.4121</ele>
        <time>2011-06-25T17:31:06Z</time>
      </trkpt>
      <trkpt lat="46.31182" lon="-0.33912">
        <ele>59.3605</ele>
        <time>2011-06-25T17:31:07Z</time>
      </trkpt>
      <trkpt lat="46.31181" lon="-0.33913">
        <ele>59.3102</ele>
        <time>2011-06-25T17:31:08Z</time>
      </trkpt>
      <trkpt lat="46.3118" lon="-0.33914">
        <ele>59.262</ele>
        <time>2011-06-25T17:31:09Z</time>
      </trkpt>
      <trkpt lat="46.31179" lon="-0.33915">
        <ele>59.215</ele>
        <time>2011-06-25T17:31:10Z</time>
      </trkpt>
      <trkpt lat="46.31178" lon="-0.33915">
        <ele>59.166</ele>
        <time>2011-06-25T17:31:11Z</time>
      </trkpt>
      <trkpt lat="46.31177" lon="-0.33917">
        <ele>59.1105</ele>
        <time>2011-06-25T17:31:12Z</time>
      </trkpt>
      <trkpt lat="46.31176" lon="-0.33918">
        <ele>59.0559</ele>
        <time>2011-06-25T17:31:13Z</time>
      </trkpt>
      <trkpt lat="46.31175" lon="-0.33919">
        <ele>59.0019</ele>
        <time>2011-06-25T17:31:14Z</time>
      </trkpt>
      <trkpt lat="46.31174" lon="-0.3392">
        <ele>58.9355</ele>
        <time>2011-06-25T17:31:15Z</time>
      </trkpt>
      <trkpt lat="46.31173" lon="-0.33922">
        <ele>58.8721</ele>
        <time>2011-06-25T17:31:16Z</time>
      </trkpt>
      <trkpt lat="46.31171" lon="-0.33923">
        <ele>58.798</ele>
        <time>2011-06-25T17:31:17Z</time>
      </trkpt>
      <trkpt lat="46.3117" lon="-0.33924">
        <ele>58.7287</ele>
        <time>2011-06-25T17:31:18Z</time>
      </trkpt>
      <trkpt lat="46.31169" lon="-0.33925">
        <ele>58.6649</ele>
        <time>2011-06-25T17:31:19Z</time>
      </trkpt>
      <trkpt lat="46.31168" lon="-0.33926">
        <ele>58.6057</ele>
        <time>2011-06-25T17:31:20Z</time>
      </trkpt>
      <trkpt lat="46.31166" lon="-0.33927">
        <ele>58.5499</ele>
        <time>2011-06-25T17:31:21Z</time>
      </trkpt>
      <trkpt lat="46.31165" lon="-0.33928">
        <ele>58.4956</ele>
        <time>2011-06-25T17:31:22Z</time>
      </trkpt>
      <trkpt lat="46.31164" lon="-0.33929">
        <ele>58.4424</ele>
        <time>2011-06-25T17:31:23Z</time>
      </trkpt>
      <trkpt lat="46.31162" lon="-0.3393">
        <ele>58.3917</ele>
        <time>2011-06-25T17:31:24Z</time>
      </trkpt>
      <trkpt lat="46.31162" lon="-0.33931">
        <ele>58.3422</ele>
        <time>2011-06-25T17:31:25Z</time>
      </trkpt>
      <trkpt lat="46.3116" lon="-0.33932">
        <ele>58.2952</ele>
        <time>2011-06-25T17:31:26Z</time>
      </trkpt>
      <trkpt lat="46.31159" lon="-0.33933">
        <ele>58.2486</ele>
        <time>2011-06-25T17:31:27Z</time>
      </trkpt>
      <trkpt lat="46.31158" lon="-0.33934">
        <ele>58.2023</ele>
        <time>2011-06-25T17:31:28Z</time>
      </trkpt>
      <trkpt lat="46.31157" lon="-0.33935">
        <ele>58.152</ele>
        <time>2011-06-25T17:31:29Z</time>
      </trkpt>
      <trkpt lat="46.31156" lon="-0.33936">
        <ele>58.1024</ele>
        <time>2011-06-25T17:31:30Z</time>
      </trkpt>
      <trkpt lat="46.31154" lon="-0.33937">
        <ele>58.0537</ele>
        <time>2011-06-25T17:31:31Z</time>
      </trkpt>
      <trkpt lat="46.31153" lon="-0.33938">
        <ele>58.002</ele>
        <time>2011-06-25T17:31:32Z</time>
      </trkpt>
      <trkpt lat="46.31152" lon="-0.33938">
        <ele>57.9455</ele>
        <time>2011-06-25T17:31:33Z</time>
      </trkpt>
      <trkpt lat="46.3115" lon="-0.33939">
        <ele>57.8834</ele>
        <time>2011-06-25T17:31:34Z</time>
      </trkpt>
      <trkpt lat="46.3115" lon="-0.33939">
        <ele>57.817</ele>
        <time>2011-06-25T17:31:35Z</time>
      </trkpt>
      <trkpt lat="46.31149" lon="-0.3394">
        <ele>57.7489</ele>
        <time>2011-06-25T17:31:36Z</time>
      </trkpt>
      <trkpt lat="46.31147" lon="-0.3394">
        <ele>57.6806</ele>
        <time>2011-06-25T17:31:37Z</time>
      </trkpt>
      <trkpt lat="46.31147" lon="-0.33941">
        <ele>57.6148</ele>
        <time>2011-06-25T17:31:38Z</time>
      </trkpt>
      <trkpt lat="46.31146" lon="-0.33942">
        <ele>57.5532</ele>
        <time>2011-06-25T17:31:39Z</time>
      </trkpt>
      <trkpt lat="46.31144" lon="-0.33943">
        <ele>57.4887</ele>
        <time>2011-06-25T17:31:40Z</time>
      </trkpt>
      <trkpt lat="46.31143" lon="-0.33943">
        <ele>57.425</ele>
        <time>2011-06-25T17:31:41Z</time>
      </trkpt>
      <trkpt lat="46.31142" lon="-0.33945">
        <ele>57.3622</ele>
        <time>2011-06-25T17:31:42Z</time>
      </trkpt>
      <trkpt lat="46.31141" lon="-0.33946">
        <ele>57.2986</ele>
        <time>2011-06-25T17:31:43Z</time>
      </trkpt>
      <trkpt lat="46.3114" lon="-0.33947">
        <ele>57.2366</ele>
        <time>2011-06-25T17:31:44Z</time>
      </trkpt>
      <trkpt lat="46.31139" lon="-0.33947">
        <ele>57.1742</ele>
        <time>2011-06-25T17:31:45Z</time>
      </trkpt>
      <trkpt lat="46.31138" lon="-0.33948">
        <ele>57.1157</ele>
        <time>2011-06-25T17:31:46Z</time>
      </trkpt>
      <trkpt lat="46.31137" lon="-0.33949">
        <ele>57.0593</ele>
        <time>2011-06-25T17:31:47Z</time>
      </trkpt>
      <trkpt lat="46.31136" lon="-0.3395">
        <ele>56.961</ele>
        <time>2011-06-25T17:31:48Z</time>
      </trkpt>
      <trkpt lat="46.31134" lon="-0.33952">
        <ele>56.864</ele>
        <time>2011-06-25T17:31:49Z</time>
      </trkpt>
      <trkpt lat="46.31133" lon="-0.33952">
        <ele>56.7658</ele>
        <time>2011-06-25T17:31:50Z</time>
      </trkpt>
      <trkpt lat="46.31133" lon="-0.33954">
        <ele>56.6706</ele>
        <time>2011-06-25T17:31:51Z</time>
      </trkpt>
      <trkpt lat="46.31132" lon="-0.33955">
        <ele>56.5798</ele>
        <time>2011-06-25T17:31:52Z</time>
      </trkpt>
      <trkpt lat="46.31131" lon="-0.33956">
        <ele>56.4927</ele>
        <time>2011-06-25T17:31:53Z</time>
      </trkpt>
      <trkpt lat="46.3113" lon="-0.33956">
        <ele>56.4141</ele>
        <time>2011-06-25T17:31:54Z</time>
      </trkpt>
      <trkpt lat="46.3113" lon="-0.33957">
        <ele>56.3384</ele>
        <time>2011-06-25T17:31:55Z</time>
      </trkpt>
      <trkpt lat="46.31129" lon="-0.33957">
        <ele>56.2621</ele>
        <time>2011-06-25T17:31:56Z</time>
      </trkpt>
      <trkpt lat="46.31128" lon="-0.33958">
        <ele>56.1886</ele>
        <time>2011-06-25T17:31:57Z</time>
      </trkpt>
      <trkpt lat="46.31127" lon="-0.33958">
        <ele>56.1142</ele>
        <time>2011-06-25T17:31:58Z</time>
      </trkpt>
      <trkpt lat="46.31126" lon="-0.33959">
        <ele>56.0439</ele>
        <time>2011-06-25T17:31:59Z</time>
      </trkpt>
      <trkpt lat="46.31126" lon="-0.3396">
        <ele>55.9763</ele>
        <time>2011-06-25T17:32:00Z</time>
      </trkpt>
      <trkpt lat="46.31125" lon="-0.33961">
        <ele>55.906</ele>
        <time>2011-06-25T17:32:01Z</time>
      </trkpt>
      <trkpt lat="46.31124" lon="-0.33961">
        <ele>55.8391</ele>
        <time>2011-06-25T17:32:02Z</time>
      </trkpt>
      <trkpt lat="46.31123" lon="-0.33962">
        <ele>55.7734</ele>
        <time>2011-06-25T17:32:03Z</time>
      </trkpt>
      <trkpt lat="46.31122" lon="-0.33963">
        <ele>55.714</ele>
        <time>2011-06-25T17:32:04Z</time>
      </trkpt>
      <trkpt lat="46.31121" lon="-0.33963">
        <ele>55.6576</ele>
        <time>2011-06-25T17:32:05Z</time>
      </trkpt>
      <trkpt lat="46.3112" lon="-0.33964">
        <ele>55.6016</ele>
        <time>2011-06-25T17:32:06Z</time>
      </trkpt>
      <trkpt lat="46.31118" lon="-0.33964">
        <ele>55.5471</ele>
        <time>2011-06-25T17:32:07Z</time>
      </trkpt>
      <trkpt lat="46.31117" lon="-0.33965">
        <ele>55.4872</ele>
        <time>2011-06-25T17:32:08Z</time>
      </trkpt>
      <trkpt lat="46.31116" lon="-0.33966">
        <ele>55.4224</ele>
        <time>2011-06-25T17:32:09Z</time>
      </trkpt>
      <trkpt lat="46.31115" lon="-0.33967">
        <ele>55.3658</ele>
        <time>2011-06-25T17:32:10Z</time>
      </trkpt>
      <trkpt lat="46.31113" lon="-0.33968">
        <ele>55.318</ele>
        <time>2011-06-25T17:32:11Z</time>
      </trkpt>
      <trkpt lat="46.31112" lon="-0.3397">
        <ele>55.2721</ele>
        <time>2011-06-25T17:32:12Z</time>
      </trkpt>
      <trkpt lat="46.31111" lon="-0.33971">
        <ele>55.2317</ele>
        <time>2011-06-25T17:32:13Z</time>
      </trkpt>
      <trkpt lat="46.31109" lon="-0.33972">
        <ele>55.1933</ele>
        <time>2011-06-25T17:32:14Z</time>
      </trkpt>
      <trkpt lat="46.31108" lon="-0.33973">
        <ele>55.1611</ele>
        <time>2011-06-25T17:32:15Z</time>
      </trkpt>
      <trkpt lat="46.31107" lon="-0.33974">
        <ele>55.1304</ele>
        <time>2011-06-25T17:32:16Z</time>
      </trkpt>
      <trkpt lat="46.31106" lon="-0.33975">
        <ele>55.1044</ele>
        <time>2011-06-25T17:32:17Z</time>
      </trkpt>
      <trkpt lat="46.31105" lon="-0.33976">
        <ele>55.087</ele>
        <time>2011-06-25T17:32:18Z</time>
      </trkpt>
      <trkpt lat="46.31104" lon="-0.33977">
        <ele>55.0654</ele>
        <time>2011-06-25T17:32:19Z</time>
      </trkpt>
      <trkpt lat="46.31102" lon="-0.33978">
        <ele>55.0435</ele>
        <time>2011-06-25T17:32:20Z</time>
      </trkpt>
      <trkpt lat="46.31101" lon="-0.33979">
        <ele>55.0248</ele>
        <time>2011-06-25T17:32:21Z</time>
      </trkpt>
      <trkpt lat="46.311" lon="-0.3398">
        <ele>55.0135</ele>
        <time>2011-06-25T17:32:22Z</time>
      </trkpt>
      <trkpt lat="46.31099" lon="-0.33981">
        <ele>55.0072</ele>
        <time>2011-06-25T17:32:23Z</time>
      </trkpt>
      <trkpt lat="46.31097" lon="-0.33982">
        <ele>55.0042</ele>
        <time>2011-06-25T17:32:24Z</time>
      </trkpt>
      <trkpt lat="46.31096" lon="-0.33983">
        <ele>54.9909</ele>
        <time>2011-06-25T17:32:25Z</time>
      </trkpt>
      <trkpt lat="46.31095" lon="-0.33984">
        <ele>54.9809</ele>
        <time>2011-06-25T17:32:26Z</time>
      </trkpt>
      <trkpt lat="46.31094" lon="-0.33985">
        <ele>54.9762</ele>
        <time>2011-06-25T17:32:27Z</time>
      </trkpt>
      <trkpt lat="46.31093" lon="-0.33985">
        <ele>54.9755</ele>
        <time>2011-06-25T17:32:28Z</time>
      </trkpt>
      <trkpt lat="46.31091" lon="-0.33986">
        <ele>54.977</ele>
        <time>2011-06-25T17:32:29Z</time>
      </trkpt>
      <trkpt lat="46.31091" lon="-0.33987">
        <ele>54.9835</ele>
        <time>2011-06-25T17:32:30Z</time>
      </trkpt>
      <trkpt lat="46.31089" lon="-0.33987">
        <ele>54.9937</ele>
        <time>2011-06-25T17:32:31Z</time>
      </trkpt>
      <trkpt lat="46.31088" lon="-0.33987">
        <ele>55.0125</ele>
        <time>2011-06-25T17:32:32Z</time>
      </trkpt>
      <trkpt lat="46.31087" lon="-0.33988">
        <ele>55.0305</ele>
        <time>2011-06-25T17:32:33Z</time>
      </trkpt>
      <trkpt lat="46.31086" lon="-0.33988">
        <ele>55.0483</ele>
        <time>2011-06-25T17:32:34Z</time>
      </trkpt>
      <trkpt lat="46.31084" lon="-0.33988">
        <ele>55.0689</ele>
        <time>2011-06-25T17:32:35Z</time>
      </trkpt>
      <trkpt lat="46.31083" lon="-0.33989">
        <ele>55.0897</ele>
        <time>2011-06-25T17:32:36Z</time>
      </trkpt>
      <trkpt lat="46.31081" lon="-0.33989">
        <ele>55.1127</ele>
        <time>2011-06-25T17:32:37Z</time>
      </trkpt>
      <trkpt lat="46.3108" lon="-0.33989">
        <ele>55.1379</ele>
        <time>2011-06-25T17:32:38Z</time>
      </trkpt>
      <trkpt lat="46.31079" lon="-0.33989">
        <ele>55.168</ele>
        <time>2011-06-25T17:32:39Z</time>
      </trkpt>
      <trkpt lat="46.31078" lon="-0.33989">
        <ele>55.1994</ele>
        <time>2011-06-25T17:32:40Z</time>
      </trkpt>
      <trkpt lat="46.31076" lon="-0.3399">
        <ele>55.2305</ele>
        <time>2011-06-25T17:32:41Z</time>
      </trkpt>
      <trkpt lat="46.31075" lon="-0.33991">
        <ele>55.2525</ele>
        <time>2011-06-25T17:32:42Z</time>
      </trkpt>
      <trkpt lat="46.31074" lon="-0.33992">
        <ele>55.2668</ele>
        <time>2011-06-25T17:32:43Z</time>
      </trkpt>
      <trkpt lat="46.31072" lon="-0.33993">
        <ele>55.2766</ele>
        <time>2011-06-25T17:32:44Z</time>
      </trkpt>
      <trkpt lat="46.3107" lon="-0.33994">
        <ele>55.288</ele>
        <time>2011-06-25T17:32:45Z</time>
      </trkpt>
      <trkpt lat="46.31069" lon="-0.33995">
        <ele>55.3043</ele>
        <time>2011-06-25T17:32:46Z</time>
      </trkpt>
      <trkpt lat="46.31068" lon="-0.33996">
        <ele>55.3241</ele>
        <time>2011-06-25T17:32:47Z</time>
      </trkpt>
      <trkpt lat="46.31067" lon="-0.33996">
        <ele>55.3554</ele>
        <time>2011-06-25T17:32:48Z</time>
      </trkpt>
      <trkpt lat="46.31065" lon="-0.33996">
        <ele>55.4078</ele>
        <time>2011-06-25T17:32:49Z</time>
      </trkpt>
      <trkpt lat="46.31064" lon="-0.33997">
        <ele>55.4809</ele>
        <time>2011-06-25T17:32:50Z</time>
      </trkpt>
      <trkpt lat="46.31063" lon="-0.33998">
        <ele>55.5515</ele>
        <time>2011-06-25T17:32:51Z</time>
      </trkpt>
      <trkpt lat="46.31062" lon="-0.33998">
        <ele>55.6166</ele>
        <time>2011-06-25T17:32:52Z</time>
      </trkpt>
      <trkpt lat="46.31061" lon="-0.33999">
        <ele>55.6837</ele>
        <time>2011-06-25T17:32:53Z</time>
      </trkpt>
      <trkpt lat="46.3106" lon="-0.34">
        <ele>55.7502</ele>
        <time>2011-06-25T17:32:54Z</time>
      </trkpt>
      <trkpt lat="46.31059" lon="-0.34">
        <ele>55.8146</ele>
        <time>2011-06-25T17:32:55Z</time>
      </trkpt>
      <trkpt lat="46.31057" lon="-0.34001">
        <ele>55.8757</ele>
        <time>2011-06-25T17:32:56Z</time>
      </trkpt>
      <trkpt lat="46.31057" lon="-0.34001">
        <ele>55.9315</ele>
        <time>2011-06-25T17:32:57Z</time>
      </trkpt>
      <trkpt lat="46.31056" lon="-0.34002">
        <ele>55.9867</ele>
        <time>2011-06-25T17:32:58Z</time>
      </trkpt>
      <trkpt lat="46.31054" lon="-0.34002">
        <ele>56.0416</ele>
        <time>2011-06-25T17:32:59Z</time>
      </trkpt>
      <trkpt lat="46.31053" lon="-0.34002">
        <ele>56.0979</ele>
        <time>2011-06-25T17:33:00Z</time>
      </trkpt>
      <trkpt lat="46.31051" lon="-0.34002">
        <ele>56.1526</ele>
        <time>2011-06-25T17:33:01Z</time>
      </trkpt>
      <trkpt lat="46.3105" lon="-0.34002">
        <ele>56.2086</ele>
        <time>2011-06-25T17:33:02Z</time>
      </trkpt>
      <trkpt lat="46.31049" lon="-0.34002">
        <ele>56.249</ele>
        <time>2011-06-25T17:33:03Z</time>
      </trkpt>
      <trkpt lat="46.31047" lon="-0.34003">
        <ele>56.2655</ele>
        <time>2011-06-25T17:33:04Z</time>
      </trkpt>
      <trkpt lat="46.31047" lon="-0.34003">
        <ele>56.2839</ele>
        <time>2011-06-25T17:33:05Z</time>
      </trkpt>
      <trkpt lat="46.31046" lon="-0.34004">
        <ele>56.3034</ele>
        <time>2011-06-25T17:33:06Z</time>
      </trkpt>
      <trkpt lat="46.31045" lon="-0.34005">
        <ele>56.3337</ele>
        <time>2011-06-25T17:33:07Z</time>
      </trkpt>
      <trkpt lat="46.31044" lon="-0.34006">
        <ele>56.3717</ele>
        <time>2011-06-25T17:33:08Z</time>
      </trkpt>
      <trkpt lat="46.31043" lon="-0.34007">
        <ele>56.4167</ele>
        <time>2011-06-25T17:33:09Z</time>
      </trkpt>
      <trkpt lat="46.31042" lon="-0.34007">
        <ele>56.4644</ele>
        <time>2011-06-25T17:33:10Z</time>
      </trkpt>
      <trkpt lat="46.31041" lon="-0.34007">
        <ele>56.518</ele>
        <time>2011-06-25T17:33:11Z</time>
      </trkpt>
      <trkpt lat="46.31039" lon="-0.34008">
        <ele>56.5845</ele>
        <time>2011-06-25T17:33:12Z</time>
      </trkpt>
      <trkpt lat="46.31038" lon="-0.34008">
        <ele>56.6621</ele>
        <time>2011-06-25T17:33:12Z</time>
      </trkpt>
      <trkpt lat="46.31037" lon="-0.34009">
        <ele>56.7419</ele>
        <time>2011-06-25T17:33:14Z</time>
      </trkpt>
      <trkpt lat="46.31036" lon="-0.34009">
        <ele>56.8212</ele>
        <time>2011-06-25T17:33:15Z</time>
      </trkpt>
      <trkpt lat="46.31035" lon="-0.3401">
        <ele>56.9197</ele>
        <time>2011-06-25T17:33:16Z</time>
      </trkpt>
      <trkpt lat="46.31033" lon="-0.34011">
        <ele>57.0198</ele>
        <time>2011-06-25T17:33:17Z</time>
      </trkpt>
      <trkpt lat="46.31032" lon="-0.34012">
        <ele>57.1193</ele>
        <time>2011-06-25T17:33:18Z</time>
      </trkpt>
      <trkpt lat="46.31031" lon="-0.34013">
        <ele>57.2164</ele>
        <time>2011-06-25T17:33:19Z</time>
      </trkpt>
      <trkpt lat="46.3103" lon="-0.34014">
        <ele>57.303</ele>
        <time>2011-06-25T17:33:20Z</time>
      </trkpt>
      <trkpt lat="46.31028" lon="-0.34014">
        <ele>57.3811</ele>
        <time>2011-06-25T17:33:21Z</time>
      </trkpt>
      <trkpt lat="46.31027" lon="-0.34015">
        <ele>57.4633</ele>
        <time>2011-06-25T17:33:22Z</time>
      </trkpt>
      <trkpt lat="46.31024" lon="-0.34016">
        <ele>57.5379</ele>
        <time>2011-06-25T17:33:23Z</time>
      </trkpt>
      <trkpt lat="46.31021" lon="-0.34016">
        <ele>57.5974</ele>
        <time>2011-06-25T17:33:24Z</time>
      </trkpt>
      <trkpt lat="46.31019" lon="-0.34016">
        <ele>57.6515</ele>
        <time>2011-06-25T17:33:25Z</time>
      </trkpt>
      <trkpt lat="46.31017" lon="-0.34017">
        <ele>57.699</ele>
        <time>2011-06-25T17:33:26Z</time>
      </trkpt>
      <trkpt lat="46.31014" lon="-0.34018">
        <ele>57.749</ele>
        <time>2011-06-25T17:33:27Z</time>
      </trkpt>
      <trkpt lat="46.31012" lon="-0.34019">
        <ele>57.7988</ele>
        <time>2011-06-25T17:33:28Z</time>
      </trkpt>
      <trkpt lat="46.31009" lon="-0.34019">
        <ele>57.8483</ele>
        <time>2011-06-25T17:33:29Z</time>
      </trkpt>
      <trkpt lat="46.31007" lon="-0.34019">
        <ele>57.8777</ele>
        <time>2011-06-25T17:33:30Z</time>
      </trkpt>
      <trkpt lat="46.31005" lon="-0.3402">
        <ele>57.9021</ele>
        <time>2011-06-25T17:33:31Z</time>
      </trkpt>
      <trkpt lat="46.31003" lon="-0.3402">
        <ele>57.9279</ele>
        <time>2011-06-25T17:33:32Z</time>
      </trkpt>
      <trkpt lat="46.31001" lon="-0.34021">
        <ele>57.9543</ele>
        <time>2011-06-25T17:33:33Z</time>
      </trkpt>
      <trkpt lat="46.30999" lon="-0.34021">
        <ele>57.9832</ele>
        <time>2011-06-25T17:33:34Z</time>
      </trkpt>
      <trkpt lat="46.30997" lon="-0.34022">
        <ele>58.019</ele>
        <time>2011-06-25T17:33:35Z</time>
      </trkpt>
      <trkpt lat="46.30995" lon="-0.34022">
        <ele>58.0561</ele>
        <time>2011-06-25T17:33:36Z</time>
      </trkpt>
      <trkpt lat="46.30994" lon="-0.34022">
        <ele>58.103</ele>
        <time>2011-06-25T17:33:37Z</time>
      </trkpt>
      <trkpt lat="46.30992" lon="-0.34022">
        <ele>58.1483</ele>
        <time>2011-06-25T17:33:38Z</time>
      </trkpt>
      <trkpt lat="46.30991" lon="-0.34023">
        <ele>58.1956</ele>
        <time>2011-06-25T17:33:39Z</time>
      </trkpt>
      <trkpt lat="46.3099" lon="-0.34023">
        <ele>58.2507</ele>
        <time>2011-06-25T17:33:40Z</time>
      </trkpt>
      <trkpt lat="46.3099" lon="-0.34023">
        <ele>58.3034</ele>
        <time>2011-06-25T17:33:41Z</time>
      </trkpt>
      <trkpt lat="46.30989" lon="-0.34023">
        <ele>58.352</ele>
        <time>2011-06-25T17:33:42Z</time>
      </trkpt>
      <trkpt lat="46.30988" lon="-0.34024">
        <ele>58.4017</ele>
        <time>2011-06-25T17:33:43Z</time>
      </trkpt>
      <trkpt lat="46.30987" lon="-0.34024">
        <ele>58.4549</ele>
        <time>2011-06-25T17:33:44Z</time>
      </trkpt>
      <trkpt lat="46.30986" lon="-0.34024">
        <ele>58.5061</ele>
        <time>2011-06-25T17:33:45Z</time>
      </trkpt>
      <trkpt lat="46.30985" lon="-0.34024">
        <ele>58.5589</ele>
        <time>2011-06-25T17:33:46Z</time>
      </trkpt>
      <trkpt lat="46.30984" lon="-0.34025">
        <ele>58.6163</ele>
        <time>2011-06-25T17:33:47Z</time>
      </trkpt>
      <trkpt lat="46.30983" lon="-0.34025">
        <ele>58.6761</ele>
        <time>2011-06-25T17:33:48Z</time>
      </trkpt>
      <trkpt lat="46.30982" lon="-0.34025">
        <ele>58.7379</ele>
        <time>2011-06-25T17:33:49Z</time>
      </trkpt>
      <trkpt lat="46.30981" lon="-0.34026">
        <ele>58.7938</ele>
        <time>2011-06-25T17:33:50Z</time>
      </trkpt>
      <trkpt lat="46.3098" lon="-0.34027">
        <ele>58.85</ele>
        <time>2011-06-25T17:33:51Z</time>
      </trkpt>
      <trkpt lat="46.3098" lon="-0.34027">
        <ele>58.9124</ele>
        <time>2011-06-25T17:33:52Z</time>
      </trkpt>
      <trkpt lat="46.30979" lon="-0.34027">
        <ele>58.9746</ele>
        <time>2011-06-25T17:33:53Z</time>
      </trkpt>
      <trkpt lat="46.30977" lon="-0.34026">
        <ele>59.055</ele>
        <time>2011-06-25T17:33:54Z</time>
      </trkpt>
      <trkpt lat="46.30975" lon="-0.34027">
        <ele>59.1313</ele>
        <time>2011-06-25T17:33:55Z</time>
      </trkpt>
      <trkpt lat="46.30973" lon="-0.34027">
        <ele>59.2222</ele>
        <time>2011-06-25T17:33:56Z</time>
      </trkpt>
      <trkpt lat="46.30971" lon="-0.34028">
        <ele>59.3531</ele>
        <time>2011-06-25T17:33:57Z</time>
      </trkpt>
      <trkpt lat="46.3097" lon="-0.34028">
        <ele>59.4938</ele>
        <time>2011-06-25T17:33:58Z</time>
      </trkpt>
      <trkpt lat="46.30968" lon="-0.34028">
        <ele>59.6433</ele>
        <time>2011-06-25T17:33:59Z</time>
      </trkpt>
      <trkpt lat="46.30966" lon="-0.34028">
        <ele>59.7921</ele>
        <time>2011-06-25T17:34:00Z</time>
      </trkpt>
      <trkpt lat="46.30965" lon="-0.34028">
        <ele>59.9413</ele>
        <time>2011-06-25T17:34:01Z</time>
      </trkpt>
      <trkpt lat="46.30963" lon="-0.34028">
        <ele>60.0999</ele>
        <time>2011-06-25T17:34:02Z</time>
      </trkpt>
      <trkpt lat="46.30962" lon="-0.34028">
        <ele>60.2521</ele>
        <time>2011-06-25T17:34:03Z</time>
      </trkpt>
      <trkpt lat="46.3096" lon="-0.34028">
        <ele>60.3992</ele>
        <time>2011-06-25T17:34:04Z</time>
      </trkpt>
      <trkpt lat="46.30958" lon="-0.34028">
        <ele>60.5406</ele>
        <time>2011-06-25T17:34:05Z</time>
      </trkpt>
      <trkpt lat="46.30957" lon="-0.34029">
        <ele>60.6789</ele>
        <time>2011-06-25T17:34:06Z</time>
      </trkpt>
      <trkpt lat="46.30956" lon="-0.34029">
        <ele>60.8189</ele>
        <time>2011-06-25T17:34:07Z</time>
      </trkpt>
      <trkpt lat="46.30954" lon="-0.34029">
        <ele>60.9603</ele>
        <time>2011-06-25T17:34:08Z</time>
      </trkpt>
      <trkpt lat="46.30953" lon="-0.34029">
        <ele>61.0977</ele>
        <time>2011-06-25T17:34:09Z</time>
      </trkpt>
      <trkpt lat="46.30952" lon="-0.34029">
        <ele>61.2325</ele>
        <time>2011-06-25T17:34:10Z</time>
      </trkpt>
      <trkpt lat="46.3095" lon="-0.34029">
        <ele>61.3688</ele>
        <time>2011-06-25T17:34:11Z</time>
      </trkpt>
      <trkpt lat="46.30949" lon="-0.3403">
        <ele>61.4927</ele>
        <time>2011-06-25T17:34:12Z</time>
      </trkpt>
      <trkpt lat="46.30948" lon="-0.3403">
        <ele>61.6158</ele>
        <time>2011-06-25T17:34:13Z</time>
      </trkpt>
      <trkpt lat="46.30946" lon="-0.3403">
        <ele>61.7361</ele>
        <time>2011-06-25T17:34:14Z</time>
      </trkpt>
      <trkpt lat="46.30945" lon="-0.3403">
        <ele>61.8553</ele>
        <time>2011-06-25T17:34:15Z</time>
      </trkpt>
      <trkpt lat="46.30943" lon="-0.34031">
        <ele>61.9668</ele>
        <time>2011-06-25T17:34:16Z</time>
      </trkpt>
      <trkpt lat="46.30941" lon="-0.34031">
        <ele>62.0776</ele>
        <time>2011-06-25T17:34:17Z</time>
      </trkpt>
      <trkpt lat="46.3094" lon="-0.34032">
        <ele>62.1867</ele>
        <time>2011-06-25T17:34:18Z</time>
      </trkpt>
      <trkpt lat="46.30938" lon="-0.34033">
        <ele>62.2937</ele>
        <time>2011-06-25T17:34:19Z</time>
      </trkpt>
      <trkpt lat="46.30937" lon="-0.34033">
        <ele>62.3975</ele>
        <time>2011-06-25T17:34:20Z</time>
      </trkpt>
      <trkpt lat="46.30935" lon="-0.34033">
        <ele>62.4968</ele>
        <time>2011-06-25T17:34:21Z</time>
      </trkpt>
      <trkpt lat="46.30934" lon="-0.34033">
        <ele>62.5907</ele>
        <time>2011-06-25T17:34:22Z</time>
      </trkpt>
      <trkpt lat="46.30933" lon="-0.34033">
        <ele>62.6839</ele>
        <time>2011-06-25T17:34:23Z</time>
      </trkpt>
      <trkpt lat="46.30931" lon="-0.34034">
        <ele>62.7754</ele>
        <time>2011-06-25T17:34:24Z</time>
      </trkpt>
      <trkpt lat="46.3093" lon="-0.34034">
        <ele>62.8784</ele>
        <time>2011-06-25T17:34:25Z</time>
      </trkpt>
      <trkpt lat="46.30928" lon="-0.34035">
        <ele>62.9788</ele>
        <time>2011-06-25T17:34:26Z</time>
      </trkpt>
      <trkpt lat="46.30927" lon="-0.34035">
        <ele>63.0704</ele>
        <time>2011-06-25T17:34:27Z</time>
      </trkpt>
      <trkpt lat="46.30925" lon="-0.34036">
        <ele>63.1562</ele>
        <time>2011-06-25T17:34:28Z</time>
      </trkpt>
      <trkpt lat="46.30924" lon="-0.34036">
        <ele>63.2421</ele>
        <time>2011-06-25T17:34:29Z</time>
      </trkpt>
      <trkpt lat="46.30923" lon="-0.34036">
        <ele>63.3286</ele>
        <time>2011-06-25T17:34:30Z</time>
      </trkpt>
      <trkpt lat="46.30922" lon="-0.34036">
        <ele>63.4167</ele>
        <time>2011-06-25T17:34:31Z</time>
      </trkpt>
      <trkpt lat="46.30922" lon="-0.34037">
        <ele>63.505</ele>
        <time>2011-06-25T17:34:32Z</time>
      </trkpt>
      <trkpt lat="46.3092" lon="-0.34037">
        <ele>63.5992</ele>
        <time>2011-06-25T17:34:33Z</time>
      </trkpt>
      <trkpt lat="46.30919" lon="-0.34038">
        <ele>63.6934</ele>
        <time>2011-06-25T17:34:34Z</time>
      </trkpt>
      <trkpt lat="46.30917" lon="-0.34038">
        <ele>63.786</ele>
        <time>2011-06-25T17:34:35Z</time>
      </trkpt>
      <trkpt lat="46.30916" lon="-0.34038">
        <ele>63.873</ele>
        <time>2011-06-25T17:34:36Z</time>
      </trkpt>
      <trkpt lat="46.30915" lon="-0.34039">
        <ele>63.9537</ele>
        <time>2011-06-25T17:34:37Z</time>
      </trkpt>
      <trkpt lat="46.30914" lon="-0.34039">
        <ele>64.0281</ele>
        <time>2011-06-25T17:34:38Z</time>
      </trkpt>
      <trkpt lat="46.30912" lon="-0.3404">
        <ele>64.0947</ele>
        <time>2011-06-25T17:34:39Z</time>
      </trkpt>
      <trkpt lat="46.30912" lon="-0.34041">
        <ele>64.1576</ele>
        <time>2011-06-25T17:34:40Z</time>
      </trkpt>
      <trkpt lat="46.30911" lon="-0.34041">
        <ele>64.2216</ele>
        <time>2011-06-25T17:34:41Z</time>
      </trkpt>
      <trkpt lat="46.3091" lon="-0.34042">
        <ele>64.2803</ele>
        <time>2011-06-25T17:34:42Z</time>
      </trkpt>
      <trkpt lat="46.30909" lon="-0.34042">
        <ele>64.3401</ele>
        <time>2011-06-25T17:34:43Z</time>
      </trkpt>
      <trkpt lat="46.30907" lon="-0.34042">
        <ele>64.3881</ele>
        <time>2011-06-25T17:34:44Z</time>
      </trkpt>
      <trkpt lat="46.30906" lon="-0.34043">
        <ele>64.4308</ele>
        <time>2011-06-25T17:34:45Z</time>
      </trkpt>
      <trkpt lat="46.30906" lon="-0.34043">
        <ele>64.4736</ele>
        <time>2011-06-25T17:34:46Z</time>
      </trkpt>
      <trkpt lat="46.30904" lon="-0.34044">
        <ele>64.519</ele>
        <time>2011-06-25T17:34:47Z</time>
      </trkpt>
      <trkpt lat="46.30904" lon="-0.34044">
        <ele>64.5646</ele>
        <time>2011-06-25T17:34:48Z</time>
      </trkpt>
      <trkpt lat="46.30903" lon="-0.34045">
        <ele>64.6098</ele>
        <time>2011-06-25T17:34:49Z</time>
      </trkpt>
      <trkpt lat="46.30901" lon="-0.34045">
        <ele>64.6552</ele>
        <time>2011-06-25T17:34:50Z</time>
      </trkpt>
      <trkpt lat="46.30901" lon="-0.34046">
        <ele>64.7031</ele>
        <time>2011-06-25T17:34:51Z</time>
      </trkpt>
      <trkpt lat="46.309" lon="-0.34047">
        <ele>64.7534</ele>
        <time>2011-06-25T17:34:52Z</time>
      </trkpt>
      <trkpt lat="46.30899" lon="-0.34047">
        <ele>64.8049</ele>
        <time>2011-06-25T17:34:53Z</time>
      </trkpt>
      <trkpt lat="46.30898" lon="-0.34048">
        <ele>64.8563</ele>
        <time>2011-06-25T17:34:54Z</time>
      </trkpt>
      <trkpt lat="46.30896" lon="-0.34049">
        <ele>64.9077</ele>
        <time>2011-06-25T17:34:55Z</time>
      </trkpt>
      <trkpt lat="46.30895" lon="-0.34049">
        <ele>64.9531</ele>
        <time>2011-06-25T17:34:56Z</time>
      </trkpt>
      <trkpt lat="46.30894" lon="-0.3405">
        <ele>64.9887</ele>
        <time>2011-06-25T17:34:57Z</time>
      </trkpt>
      <trkpt lat="46.30893" lon="-0.3405">
        <ele>65.0216</ele>
        <time>2011-06-25T17:34:58Z</time>
      </trkpt>
      <trkpt lat="46.30891" lon="-0.34051">
        <ele>65.0589</ele>
        <time>2011-06-25T17:34:59Z</time>
      </trkpt>
      <trkpt lat="46.3089" lon="-0.34052">
        <ele>65.0941</ele>
        <time>2011-06-25T17:35:00Z</time>
      </trkpt>
      <trkpt lat="46.30889" lon="-0.34053">
        <ele>65.1305</ele>
        <time>2011-06-25T17:35:01Z</time>
      </trkpt>
      <trkpt lat="46.30888" lon="-0.34054">
        <ele>65.1663</ele>
        <time>2011-06-25T17:35:02Z</time>
      </trkpt>
      <trkpt lat="46.30886" lon="-0.34055">
        <ele>65.2017</ele>
        <time>2011-06-25T17:35:03Z</time>
      </trkpt>
      <trkpt lat="46.30885" lon="-0.34056">
        <ele>65.2367</ele>
        <time>2011-06-25T17:35:04Z</time>
      </trkpt>
      <trkpt lat="46.30884" lon="-0.34057">
        <ele>65.2732</ele>
        <time>2011-06-25T17:35:05Z</time>
      </trkpt>
      <trkpt lat="46.30883" lon="-0.34058">
        <ele>65.3084</ele>
        <time>2011-06-25T17:35:06Z</time>
      </trkpt>
      <trkpt lat="46.30882" lon="-0.34059">
        <ele>65.3476</ele>
        <time>2011-06-25T17:35:07Z</time>
      </trkpt>
      <trkpt lat="46.30881" lon="-0.3406">
        <ele>65.3874</ele>
        <time>2011-06-25T17:35:08Z</time>
      </trkpt>
      <trkpt lat="46.3088" lon="-0.34062">
        <ele>65.4306</ele>
        <time>2011-06-25T17:35:09Z</time>
      </trkpt>
      <trkpt lat="46.30879" lon="-0.34063">
        <ele>65.4839</ele>
        <time>2011-06-25T17:35:10Z</time>
      </trkpt>
      <trkpt lat="46.30878" lon="-0.34064">
        <ele>65.5375</ele>
        <time>2011-06-25T17:35:11Z</time>
      </trkpt>
      <trkpt lat="46.30877" lon="-0.34065">
        <ele>65.5939</ele>
        <time>2011-06-25T17:35:12Z</time>
      </trkpt>
      <trkpt lat="46.30876" lon="-0.34066">
        <ele>65.6442</ele>
        <time>2011-06-25T17:35:13Z</time>
      </trkpt>
      <trkpt lat="46.30875" lon="-0.34068">
        <ele>65.6985</ele>
        <time>2011-06-25T17:35:14Z</time>
      </trkpt>
      <trkpt lat="46.30874" lon="-0.34069">
        <ele>65.753</ele>
        <time>2011-06-25T17:35:15Z</time>
      </trkpt>
      <trkpt lat="46.30872" lon="-0.3407">
        <ele>65.8137</ele>
        <time>2011-06-25T17:35:16Z</time>
      </trkpt>
      <trkpt lat="46.30871" lon="-0.34071">
        <ele>65.876</ele>
        <time>2011-06-25T17:35:17Z</time>
      </trkpt>
      <trkpt lat="46.3087" lon="-0.34072">
        <ele>65.9394</ele>
        <time>2011-06-25T17:35:18Z</time>
      </trkpt>
      <trkpt lat="46.30869" lon="-0.34074">
        <ele>66.0074</ele>
        <time>2011-06-25T17:35:19Z</time>
      </trkpt>
      <trkpt lat="46.30868" lon="-0.34075">
        <ele>66.0793</ele>
        <time>2011-06-25T17:35:20Z</time>
      </trkpt>
      <trkpt lat="46.30867" lon="-0.34076">
        <ele>66.1536</ele>
        <time>2011-06-25T17:35:21Z</time>
      </trkpt>
      <trkpt lat="46.30866" lon="-0.34077">
        <ele>66.2286</ele>
        <time>2011-06-25T17:35:22Z</time>
      </trkpt>
      <trkpt lat="46.30864" lon="-0.34078">
        <ele>66.3022</ele>
        <time>2011-06-25T17:35:23Z</time>
      </trkpt>
      <trkpt lat="46.30863" lon="-0.34079">
        <ele>66.3757</ele>
        <time>2011-06-25T17:35:24Z</time>
      </trkpt>
      <trkpt lat="46.30861" lon="-0.3408">
        <ele>66.4493</ele>
        <time>2011-06-25T17:35:25Z</time>
      </trkpt>
      <trkpt lat="46.3086" lon="-0.34081">
        <ele>66.5251</ele>
        <time>2011-06-25T17:35:26Z</time>
      </trkpt>
      <trkpt lat="46.30859" lon="-0.34082">
        <ele>66.5948</ele>
        <time>2011-06-25T17:35:27Z</time>
      </trkpt>
      <trkpt lat="46.30857" lon="-0.34083">
        <ele>66.6641</ele>
        <time>2011-06-25T17:35:28Z</time>
      </trkpt>
      <trkpt lat="46.30856" lon="-0.34084">
        <ele>66.7346</ele>
        <time>2011-06-25T17:35:29Z</time>
      </trkpt>
      <trkpt lat="46.30854" lon="-0.34084">
        <ele>66.8081</ele>
        <time>2011-06-25T17:35:30Z</time>
      </trkpt>
      <trkpt lat="46.30853" lon="-0.34085">
        <ele>66.8793</ele>
        <time>2011-06-25T17:35:31Z</time>
      </trkpt>
      <trkpt lat="46.30852" lon="-0.34085">
        <ele>66.9507</ele>
        <time>2011-06-25T17:35:32Z</time>
      </trkpt>
      <trkpt lat="46.3085" lon="-0.34086">
        <ele>67.025</ele>
        <time>2011-06-25T17:35:33Z</time>
      </trkpt>
      <trkpt lat="46.30849" lon="-0.34086">
        <ele>67.0951</ele>
        <time>2011-06-25T17:35:34Z</time>
      </trkpt>
      <trkpt lat="46.30848" lon="-0.34087">
        <ele>67.1645</ele>
        <time>2011-06-25T17:35:35Z</time>
      </trkpt>
      <trkpt lat="46.30846" lon="-0.34087">
        <ele>67.233</ele>
        <time>2011-06-25T17:35:36Z</time>
      </trkpt>
      <trkpt lat="46.30845" lon="-0.34087">
        <ele>67.3007</ele>
        <time>2011-06-25T17:35:37Z</time>
      </trkpt>
      <trkpt lat="46.30844" lon="-0.34087">
        <ele>67.3636</ele>
        <time>2011-06-25T17:35:38Z</time>
      </trkpt>
      <trkpt lat="46.30843" lon="-0.34087">
        <ele>67.4186</ele>
        <time>2011-06-25T17:35:39Z</time>
      </trkpt>
      <trkpt lat="46.30841" lon="-0.34087">
        <ele>67.4702</ele>
        <time>2011-06-25T17:35:40Z</time>
      </trkpt>
      <trkpt lat="46.3084" lon="-0.34087">
        <ele>67.5232</ele>
        <time>2011-06-25T17:35:41Z</time>
      </trkpt>
      <trkpt lat="46.30838" lon="-0.34087">
        <ele>67.5724</ele>
        <time>2011-06-25T17:35:42Z</time>
      </trkpt>
      <trkpt lat="46.30837" lon="-0.34087">
        <ele>67.6246</ele>
        <time>2011-06-25T17:35:43Z</time>
      </trkpt>
      <trkpt lat="46.30836" lon="-0.34088">
        <ele>67.6808</ele>
        <time>2011-06-25T17:35:44Z</time>
      </trkpt>
      <trkpt lat="46.30835" lon="-0.34088">
        <ele>67.7379</ele>
        <time>2011-06-25T17:35:45Z</time>
      </trkpt>
      <trkpt lat="46.30833" lon="-0.34089">
        <ele>67.8003</ele>
        <time>2011-06-25T17:35:46Z</time>
      </trkpt>
      <trkpt lat="46.30832" lon="-0.3409">
        <ele>67.8671</ele>
        <time>2011-06-25T17:35:47Z</time>
      </trkpt>
      <trkpt lat="46.3083" lon="-0.3409">
        <ele>67.9287</ele>
        <time>2011-06-25T17:35:48Z</time>
      </trkpt>
      <trkpt lat="46.30829" lon="-0.34091">
        <ele>67.9894</ele>
        <time>2011-06-25T17:35:49Z</time>
      </trkpt>
      <trkpt lat="46.30827" lon="-0.34092">
        <ele>68.0465</ele>
        <time>2011-06-25T17:35:50Z</time>
      </trkpt>
      <trkpt lat="46.30826" lon="-0.34092">
        <ele>68.1031</ele>
        <time>2011-06-25T17:35:51Z</time>
      </trkpt>
      <trkpt lat="46.30824" lon="-0.34093">
        <ele>68.1611</ele>
        <time>2011-06-25T17:35:52Z</time>
      </trkpt>
      <trkpt lat="46.30823" lon="-0.34094">
        <ele>68.2189</ele>
        <time>2011-06-25T17:35:53Z</time>
      </trkpt>
      <trkpt lat="46.30821" lon="-0.34095">
        <ele>68.2798</ele>
        <time>2011-06-25T17:35:54Z</time>
      </trkpt>
      <trkpt lat="46.3082" lon="-0.34096">
        <ele>68.3405</ele>
        <time>2011-06-25T17:35:55Z</time>
      </trkpt>
      <trkpt lat="46.30819" lon="-0.34097">
        <ele>68.3998</ele>
        <time>2011-06-25T17:35:56Z</time>
      </trkpt>
      <trkpt lat="46.30818" lon="-0.34097">
        <ele>68.4601</ele>
        <time>2011-06-25T17:35:57Z</time>
      </trkpt>
      <trkpt lat="46.30816" lon="-0.34098">
        <ele>68.5207</ele>
        <time>2011-06-25T17:35:58Z</time>
      </trkpt>
      <trkpt lat="46.30815" lon="-0.34099">
        <ele>68.5764</ele>
        <time>2011-06-25T17:35:59Z</time>
      </trkpt>
      <trkpt lat="46.30814" lon="-0.341">
        <ele>68.6251</ele>
        <time>2011-06-25T17:36:00Z</time>
      </trkpt>
      <trkpt lat="46.30813" lon="-0.34101">
        <ele>68.6679</ele>
        <time>2011-06-25T17:36:01Z</time>
      </trkpt>
      <trkpt lat="46.30811" lon="-0.34102">
        <ele>68.702</ele>
        <time>2011-06-25T17:36:02Z</time>
      </trkpt>
      <trkpt lat="46.3081" lon="-0.34103">
        <ele>68.7331</ele>
        <time>2011-06-25T17:36:03Z</time>
      </trkpt>
      <trkpt lat="46.30809" lon="-0.34104">
        <ele>68.7668</ele>
        <time>2011-06-25T17:36:04Z</time>
      </trkpt>
      <trkpt lat="46.30807" lon="-0.34105">
        <ele>68.7941</ele>
        <time>2011-06-25T17:36:05Z</time>
      </trkpt>
      <trkpt lat="46.30805" lon="-0.34106">
        <ele>68.8217</ele>
        <time>2011-06-25T17:36:05Z</time>
      </trkpt>
      <trkpt lat="46.30803" lon="-0.34107">
        <ele>68.8478</ele>
        <time>2011-06-25T17:36:07Z</time>
      </trkpt>
      <trkpt lat="46.30801" lon="-0.34108">
        <ele>68.8749</ele>
        <time>2011-06-25T17:36:07Z</time>
      </trkpt>
      <trkpt lat="46.30798" lon="-0.34109">
        <ele>68.8999</ele>
        <time>2011-06-25T17:36:08Z</time>
      </trkpt>
      <trkpt lat="46.30795" lon="-0.3411">
        <ele>68.921</ele>
        <time>2011-06-25T17:36:09Z</time>
      </trkpt>
      <trkpt lat="46.30792" lon="-0.34111">
        <ele>68.9396</ele>
        <time>2011-06-25T17:36:10Z</time>
      </trkpt>
      <trkpt lat="46.3079" lon="-0.34112">
        <ele>68.9582</ele>
        <time>2011-06-25T17:36:11Z</time>
      </trkpt>
      <trkpt lat="46.30788" lon="-0.34113">
        <ele>68.9786</ele>
        <time>2011-06-25T17:36:12Z</time>
      </trkpt>
      <trkpt lat="46.30785" lon="-0.34114">
        <ele>68.9958</ele>
        <time>2011-06-25T17:36:13Z</time>
      </trkpt>
      <trkpt lat="46.30784" lon="-0.34114">
        <ele>69.0129</ele>
        <time>2011-06-25T17:36:14Z</time>
      </trkpt>
      <trkpt lat="46.30782" lon="-0.34115">
        <ele>69.0305</ele>
        <time>2011-06-25T17:36:15Z</time>
      </trkpt>
      <trkpt lat="46.30781" lon="-0.34116">
        <ele>69.0484</ele>
        <time>2011-06-25T17:36:16Z</time>
      </trkpt>
      <trkpt lat="46.3078" lon="-0.34116">
        <ele>69.0662</ele>
        <time>2011-06-25T17:36:17Z</time>
      </trkpt>
      <trkpt lat="46.30779" lon="-0.34117">
        <ele>69.0838</ele>
        <time>2011-06-25T17:36:18Z</time>
      </trkpt>
      <trkpt lat="46.30777" lon="-0.34117">
        <ele>69.1025</ele>
        <time>2011-06-25T17:36:19Z</time>
      </trkpt>
      <trkpt lat="46.30777" lon="-0.34117">
        <ele>69.1173</ele>
        <time>2011-06-25T17:36:20Z</time>
      </trkpt>
      <trkpt lat="46.30776" lon="-0.34118">
        <ele>69.1306</ele>
        <time>2011-06-25T17:36:21Z</time>
      </trkpt>
      <trkpt lat="46.30775" lon="-0.34118">
        <ele>69.1402</ele>
        <time>2011-06-25T17:36:23Z</time>
      </trkpt>
      <trkpt lat="46.30774" lon="-0.34119">
        <ele>69.1484</ele>
        <time>2011-06-25T17:36:23Z</time>
      </trkpt>
      <trkpt lat="46.30772" lon="-0.3412">
        <ele>69.1572</ele>
        <time>2011-06-25T17:36:24Z</time>
      </trkpt>
      <trkpt lat="46.30771" lon="-0.34121">
        <ele>69.1628</ele>
        <time>2011-06-25T17:36:25Z</time>
      </trkpt>
      <trkpt lat="46.3077" lon="-0.34121">
        <ele>69.1666</ele>
        <time>2011-06-25T17:36:26Z</time>
      </trkpt>
      <trkpt lat="46.30769" lon="-0.34122">
        <ele>69.1681</ele>
        <time>2011-06-25T17:36:27Z</time>
      </trkpt>
      <trkpt lat="46.30768" lon="-0.34123">
        <ele>69.1686</ele>
        <time>2011-06-25T17:36:28Z</time>
      </trkpt>
      <trkpt lat="46.30767" lon="-0.34124">
        <ele>69.1686</ele>
        <time>2011-06-25T17:36:29Z</time>
      </trkpt>
      <trkpt lat="46.30766" lon="-0.34125">
        <ele>69.1737</ele>
        <time>2011-06-25T17:36:30Z</time>
      </trkpt>
      <trkpt lat="46.30764" lon="-0.34126">
        <ele>69.1813</ele>
        <time>2011-06-25T17:36:31Z</time>
      </trkpt>
      <trkpt lat="46.30763" lon="-0.34127">
        <ele>69.1926</ele>
        <time>2011-06-25T17:36:32Z</time>
      </trkpt>
      <trkpt lat="46.30762" lon="-0.34128">
        <ele>69.2024</ele>
        <time>2011-06-25T17:36:33Z</time>
      </trkpt>
      <trkpt lat="46.30761" lon="-0.34129">
        <ele>69.2134</ele>
        <time>2011-06-25T17:36:34Z</time>
      </trkpt>
      <trkpt lat="46.30759" lon="-0.3413">
        <ele>69.225</ele>
        <time>2011-06-25T17:36:35Z</time>
      </trkpt>
      <trkpt lat="46.30758" lon="-0.34131">
        <ele>69.2385</ele>
        <time>2011-06-25T17:36:36Z</time>
      </trkpt>
      <trkpt lat="46.30757" lon="-0.34132">
        <ele>69.2556</ele>
        <time>2011-06-25T17:36:37Z</time>
      </trkpt>
      <trkpt lat="46.30756" lon="-0.34133">
        <ele>69.2753</ele>
        <time>2011-06-25T17:36:38Z</time>
      </trkpt>
      <trkpt lat="46.30755" lon="-0.34133">
        <ele>69.2943</ele>
        <time>2011-06-25T17:36:39Z</time>
      </trkpt>
      <trkpt lat="46.30754" lon="-0.34134">
        <ele>69.3134</ele>
        <time>2011-06-25T17:36:40Z</time>
      </trkpt>
      <trkpt lat="46.30753" lon="-0.34135">
        <ele>69.3339</ele>
        <time>2011-06-25T17:36:41Z</time>
      </trkpt>
      <trkpt lat="46.30751" lon="-0.34136">
        <ele>69.3537</ele>
        <time>2011-06-25T17:36:42Z</time>
      </trkpt>
      <trkpt lat="46.3075" lon="-0.34137">
        <ele>69.3768</ele>
        <time>2011-06-25T17:36:43Z</time>
      </trkpt>
      <trkpt lat="46.30749" lon="-0.34137">
        <ele>69.3998</ele>
        <time>2011-06-25T17:36:44Z</time>
      </trkpt>
      <trkpt lat="46.30748" lon="-0.34138">
        <ele>69.4245</ele>
        <time>2011-06-25T17:36:45Z</time>
      </trkpt>
      <trkpt lat="46.30747" lon="-0.34138">
        <ele>69.4486</ele>
        <time>2011-06-25T17:36:46Z</time>
      </trkpt>
      <trkpt lat="46.30745" lon="-0.34139">
        <ele>69.4723</ele>
        <time>2011-06-25T17:36:47Z</time>
      </trkpt>
      <trkpt lat="46.30744" lon="-0.34139">
        <ele>69.4971</ele>
        <time>2011-06-25T17:36:48Z</time>
      </trkpt>
      <trkpt lat="46.30743" lon="-0.3414">
        <ele>69.5198</ele>
        <time>2011-06-25T17:36:49Z</time>
      </trkpt>
      <trkpt lat="46.30742" lon="-0.34142">
        <ele>69.5422</ele>
        <time>2011-06-25T17:36:50Z</time>
      </trkpt>
      <trkpt lat="46.30742" lon="-0.34143">
        <ele>69.5645</ele>
        <time>2011-06-25T17:36:51Z</time>
      </trkpt>
      <trkpt lat="46.30741" lon="-0.34145">
        <ele>69.5859</ele>
        <time>2011-06-25T17:36:52Z</time>
      </trkpt>
      <trkpt lat="46.3074" lon="-0.34146">
        <ele>69.606</ele>
        <time>2011-06-25T17:36:53Z</time>
      </trkpt>
      <trkpt lat="46.3074" lon="-0.34148">
        <ele>69.6291</ele>
        <time>2011-06-25T17:36:54Z</time>
      </trkpt>
      <trkpt lat="46.3074" lon="-0.3415">
        <ele>69.6533</ele>
        <time>2011-06-25T17:36:55Z</time>
      </trkpt>
      <trkpt lat="46.30739" lon="-0.34152">
        <ele>69.6783</ele>
        <time>2011-06-25T17:36:56Z</time>
      </trkpt>
      <trkpt lat="46.30739" lon="-0.34154">
        <ele>69.7057</ele>
        <time>2011-06-25T17:36:57Z</time>
      </trkpt>
      <trkpt lat="46.30738" lon="-0.34156">
        <ele>69.736</ele>
        <time>2011-06-25T17:36:58Z</time>
      </trkpt>
      <trkpt lat="46.30738" lon="-0.34158">
        <ele>69.766</ele>
        <time>2011-06-25T17:36:59Z</time>
      </trkpt>
      <trkpt lat="46.30737" lon="-0.3416">
        <ele>69.7979</ele>
        <time>2011-06-25T17:37:00Z</time>
      </trkpt>
      <trkpt lat="46.30737" lon="-0.34162">
        <ele>69.8285</ele>
        <time>2011-06-25T17:37:01Z</time>
      </trkpt>
      <trkpt lat="46.30737" lon="-0.34164">
        <ele>69.8553</ele>
        <time>2011-06-25T17:37:02Z</time>
      </trkpt>
      <trkpt lat="46.30737" lon="-0.34167">
        <ele>69.8825</ele>
        <time>2011-06-25T17:37:03Z</time>
      </trkpt>
      <trkpt lat="46.30737" lon="-0.34169">
        <ele>69.9102</ele>
        <time>2011-06-25T17:37:04Z</time>
      </trkpt>
      <trkpt lat="46.30737" lon="-0.34171">
        <ele>69.9403</ele>
        <time>2011-06-25T17:37:05Z</time>
      </trkpt>
      <trkpt lat="46.30737" lon="-0.34173">
        <ele>69.9728</ele>
        <time>2011-06-25T17:37:06Z</time>
      </trkpt>
      <trkpt lat="46.30736" lon="-0.34175">
        <ele>70.0032</ele>
        <time>2011-06-25T17:37:07Z</time>
      </trkpt>
      <trkpt lat="46.30736" lon="-0.34178">
        <ele>70.0356</ele>
        <time>2011-06-25T17:37:08Z</time>
      </trkpt>
      <trkpt lat="46.30735" lon="-0.3418">
        <ele>70.0702</ele>
        <time>2011-06-25T17:37:09Z</time>
      </trkpt>
      <trkpt lat="46.30735" lon="-0.34182">
        <ele>70.1046</ele>
        <time>2011-06-25T17:37:10Z</time>
      </trkpt>
      <trkpt lat="46.30735" lon="-0.34184">
        <ele>70.1391</ele>
        <time>2011-06-25T17:37:12Z</time>
      </trkpt>
      <trkpt lat="46.30735" lon="-0.34186">
        <ele>70.1748</ele>
        <time>2011-06-25T17:37:13Z</time>
      </trkpt>
      <trkpt lat="46.30734" lon="-0.34189">
        <ele>70.2115</ele>
        <time>2011-06-25T17:37:14Z</time>
      </trkpt>
      <trkpt lat="46.30734" lon="-0.34191">
        <ele>70.249</ele>
        <time>2011-06-25T17:37:14Z</time>
      </trkpt>
      <trkpt lat="46.30734" lon="-0.34193">
        <ele>70.2901</ele>
        <time>2011-06-25T17:37:15Z</time>
      </trkpt>
      <trkpt lat="46.30734" lon="-0.34195">
        <ele>70.3296</ele>
        <time>2011-06-25T17:37:16Z</time>
      </trkpt>
      <trkpt lat="46.30734" lon="-0.34198">
        <ele>70.3701</ele>
        <time>2011-06-25T17:37:17Z</time>
      </trkpt>
      <trkpt lat="46.30734" lon="-0.342">
        <ele>70.409</ele>
        <time>2011-06-25T17:37:18Z</time>
      </trkpt>
      <trkpt lat="46.30733" lon="-0.34201">
        <ele>70.4443</ele>
        <time>2011-06-25T17:37:19Z</time>
      </trkpt>
      <trkpt lat="46.30733" lon="-0.34203">
        <ele>70.4764</ele>
        <time>2011-06-25T17:37:20Z</time>
      </trkpt>
      <trkpt lat="46.30734" lon="-0.34205">
        <ele>70.5079</ele>
        <time>2011-06-25T17:37:21Z</time>
      </trkpt>
      <trkpt lat="46.30734" lon="-0.34207">
        <ele>70.5421</ele>
        <time>2011-06-25T17:37:22Z</time>
      </trkpt>
      <trkpt lat="46.30733" lon="-0.34209">
        <ele>70.5776</ele>
        <time>2011-06-25T17:37:23Z</time>
      </trkpt>
      <trkpt lat="46.30733" lon="-0.34211">
        <ele>70.6115</ele>
        <time>2011-06-25T17:37:24Z</time>
      </trkpt>
      <trkpt lat="46.30733" lon="-0.34212">
        <ele>70.6477</ele>
        <time>2011-06-25T17:37:25Z</time>
      </trkpt>
      <trkpt lat="46.30733" lon="-0.34214">
        <ele>70.6883</ele>
        <time>2011-06-25T17:37:26Z</time>
      </trkpt>
      <trkpt lat="46.30733" lon="-0.34216">
        <ele>70.7272</ele>
        <time>2011-06-25T17:37:27Z</time>
      </trkpt>
      <trkpt lat="46.30733" lon="-0.34217">
        <ele>70.7693</ele>
        <time>2011-06-25T17:37:28Z</time>
      </trkpt>
      <trkpt lat="46.30732" lon="-0.34218">
        <ele>70.817</ele>
        <time>2011-06-25T17:37:29Z</time>
      </trkpt>
      <trkpt lat="46.30732" lon="-0.34219">
        <ele>70.8646</ele>
        <time>2011-06-25T17:37:30Z</time>
      </trkpt>
      <trkpt lat="46.30731" lon="-0.3422">
        <ele>70.9111</ele>
        <time>2011-06-25T17:37:32Z</time>
      </trkpt>
    </trkseg>
  </trk>
</gpx>